<?xml version='1.0' encoding='UTF-8'?><gpx version="1.1" creator="JPX - https://github.com/jenetics/jpx" xmlns="http://www.topografix.com/GPX/1/1"><trk><trkseg><trkpt lat="39.06421683917161" lon="9.015187619843932"><ele>40.0</ele><time>2026-03-26T08:16:52Z</time></trkpt><trkpt lat="39.064280454223294" lon="9.015218177814704"><ele>40.0</ele><time>2026-03-26T08:16:59Z</time></trkpt><trkpt lat="39.064342171055365" lon="9.015084529434843"><ele>40.0</ele><time>2026-03-26T08:17:01Z</time></trkpt><trkpt lat="39.06433332816104" lon="9.014941938595596"><ele>40.0</ele><time>2026-03-26T08:17:02Z</time></trkpt><trkpt lat="39.06429604689019" lon="9.01480756435242"><ele>40.0</ele><time>2026-03-26T08:17:03Z</time></trkpt><trkpt lat="39.064226557537765" lon="9.014654897669603"><ele>40.6</ele><time>2026-03-26T08:17:04Z</time></trkpt><trkpt lat="39.064171072302955" lon="9.014541222662416"><ele>41.2</ele><time>2026-03-26T08:17:05Z</time></trkpt><trkpt lat="39.064126428221" lon="9.014437966454038"><ele>41.8</ele><time>2026-03-26T08:17:06Z</time></trkpt><trkpt lat="39.06408318799631" lon="9.014331315198298"><ele>42.4</ele><time>2026-03-26T08:17:07Z</time></trkpt><trkpt lat="39.06403639159068" lon="9.01422570665686"><ele>43.0</ele><time>2026-03-26T08:17:08Z</time></trkpt><trkpt lat="39.0639947262365" lon="9.014126215935033"><ele>43.333333333333336</ele><time>2026-03-26T08:17:09Z</time></trkpt><trkpt lat="39.06396030474651" lon="9.014049354886549"><ele>43.66666666666667</ele><time>2026-03-26T08:17:10Z</time></trkpt><trkpt lat="39.06392597965618" lon="9.013978130910239"><ele>44.0</ele><time>2026-03-26T08:17:11Z</time></trkpt><trkpt lat="39.06398297713515" lon="9.01386667660661"><ele>44.333333333333336</ele><time>2026-03-26T08:17:13Z</time></trkpt><trkpt lat="39.06407576008816" lon="9.013825145884173"><ele>44.666666666666664</ele><time>2026-03-26T08:17:15Z</time></trkpt><trkpt lat="39.06412966554806" lon="9.013758828917249"><ele>45.0</ele><time>2026-03-26T08:17:18Z</time></trkpt><trkpt lat="39.06415831414351" lon="9.013601660386966"><ele>45.0</ele><time>2026-03-26T08:17:22Z</time></trkpt><trkpt lat="39.06409752342592" lon="9.013491027335192"><ele>45.0</ele><time>2026-03-26T08:17:24Z</time></trkpt><trkpt lat="39.064213280100674" lon="9.013367670332146"><ele>45.0</ele><time>2026-03-26T08:17:26Z</time></trkpt><trkpt lat="39.06431443185354" lon="9.013324481012951"><ele>45.0</ele><time>2026-03-26T08:17:27Z</time></trkpt><trkpt lat="39.0644175037184" lon="9.013279372354122"><ele>44.5</ele><time>2026-03-26T08:17:28Z</time></trkpt><trkpt lat="39.064507353005226" lon="9.013239082006132"><ele>44.0</ele><time>2026-03-26T08:17:29Z</time></trkpt><trkpt lat="39.064585414954124" lon="9.013197846346063"><ele>43.5</ele><time>2026-03-26T08:17:30Z</time></trkpt><trkpt lat="39.064661016113384" lon="9.013157326573838"><ele>43.0</ele><time>2026-03-26T08:17:31Z</time></trkpt><trkpt lat="39.064740225864256" lon="9.013110750398871"><ele>42.5</ele><time>2026-03-26T08:17:32Z</time></trkpt><trkpt lat="39.064824082963526" lon="9.013058182373737"><ele>42.0</ele><time>2026-03-26T08:17:33Z</time></trkpt><trkpt lat="39.064913911833074" lon="9.012983848253418"><ele>40.800000000000004</ele><time>2026-03-26T08:17:34Z</time></trkpt><trkpt lat="39.065007468449735" lon="9.012904777443927"><ele>39.6</ele><time>2026-03-26T08:17:35Z</time></trkpt><trkpt lat="39.0651004964212" lon="9.012838669189454"><ele>38.400000000000006</ele><time>2026-03-26T08:17:36Z</time></trkpt><trkpt lat="39.06519007981386" lon="9.012778512169648"><ele>37.2</ele><time>2026-03-26T08:17:37Z</time></trkpt><trkpt lat="39.06527372345972" lon="9.012715928800068"><ele>36.0</ele><time>2026-03-26T08:17:38Z</time></trkpt><trkpt lat="39.06535339763558" lon="9.012652172819106"><ele>36.0</ele><time>2026-03-26T08:17:39Z</time></trkpt><trkpt lat="39.065435668353835" lon="9.012589536306843"><ele>36.0</ele><time>2026-03-26T08:17:40Z</time></trkpt><trkpt lat="39.06551835443498" lon="9.012526524655446"><ele>36.0</ele><time>2026-03-26T08:17:41Z</time></trkpt><trkpt lat="39.06560083110793" lon="9.012464705962927"><ele>36.0</ele><time>2026-03-26T08:17:42Z</time></trkpt><trkpt lat="39.065684235950506" lon="9.012406002441875"><ele>36.0</ele><time>2026-03-26T08:17:43Z</time></trkpt><trkpt lat="39.06576257924751" lon="9.012347791479144"><ele>35.666666666666664</ele><time>2026-03-26T08:17:44Z</time></trkpt><trkpt lat="39.065840237397126" lon="9.01230358891773"><ele>35.333333333333336</ele><time>2026-03-26T08:17:45Z</time></trkpt><trkpt lat="39.065906469507425" lon="9.012266722681609"><ele>35.0</ele><time>2026-03-26T08:17:46Z</time></trkpt><trkpt lat="39.065983831596526" lon="9.01220770501537"><ele>34.66666666666667</ele><time>2026-03-26T08:17:48Z</time></trkpt><trkpt lat="39.066038928145005" lon="9.012148243342375"><ele>34.333333333333336</ele><time>2026-03-26T08:17:51Z</time></trkpt><trkpt lat="39.066089752994095" lon="9.012097420731012"><ele>34.0</ele><time>2026-03-26T08:17:55Z</time></trkpt><trkpt lat="39.06603607427204" lon="9.011975369654632"><ele>34.0</ele><time>2026-03-26T08:17:56Z</time></trkpt><trkpt lat="39.065971986019946" lon="9.011856959072617"><ele>34.0</ele><time>2026-03-26T08:17:57Z</time></trkpt><trkpt lat="39.06589173036912" lon="9.01173960285096"><ele>34.0</ele><time>2026-03-26T08:17:58Z</time></trkpt><trkpt lat="39.06582458959158" lon="9.011615172084037"><ele>34.0</ele><time>2026-03-26T08:17:59Z</time></trkpt><trkpt lat="39.06574649020725" lon="9.011483775940608"><ele>34.4</ele><time>2026-03-26T08:18:00Z</time></trkpt><trkpt lat="39.06567406894395" lon="9.011329175957812"><ele>34.8</ele><time>2026-03-26T08:18:01Z</time></trkpt><trkpt lat="39.06562502391128" lon="9.011193755625474"><ele>35.2</ele><time>2026-03-26T08:18:02Z</time></trkpt><trkpt lat="39.06559492026274" lon="9.011092395083164"><ele>35.6</ele><time>2026-03-26T08:18:03Z</time></trkpt><trkpt lat="39.065583164240756" lon="9.011012530046434"><ele>36.0</ele><time>2026-03-26T08:18:04Z</time></trkpt><trkpt lat="39.065609493781594" lon="9.010885335518655"><ele>37.0</ele><time>2026-03-26T08:18:06Z</time></trkpt><trkpt lat="39.06563333964311" lon="9.010787070138141"><ele>38.0</ele><time>2026-03-26T08:18:08Z</time></trkpt><trkpt lat="39.06549772911988" lon="9.010654776500058"><ele>39.0</ele><time>2026-03-26T08:18:10Z</time></trkpt><trkpt lat="39.06538241968311" lon="9.010603594712908"><ele>40.0</ele><time>2026-03-26T08:18:11Z</time></trkpt><trkpt lat="39.06525247544003" lon="9.010542254000098"><ele>40.0</ele><time>2026-03-26T08:18:12Z</time></trkpt><trkpt lat="39.065148602217036" lon="9.010469002773215"><ele>40.0</ele><time>2026-03-26T08:18:13Z</time></trkpt><trkpt lat="39.065065115028624" lon="9.010399728246746"><ele>40.0</ele><time>2026-03-26T08:18:14Z</time></trkpt><trkpt lat="39.064980331966716" lon="9.01033421685618"><ele>40.0</ele><time>2026-03-26T08:18:15Z</time></trkpt><trkpt lat="39.06489575930853" lon="9.010266974870849"><ele>40.0</ele><time>2026-03-26T08:18:16Z</time></trkpt><trkpt lat="39.06480862944874" lon="9.010198926326494"><ele>40.6</ele><time>2026-03-26T08:18:17Z</time></trkpt><trkpt lat="39.06472448190884" lon="9.010128067105807"><ele>41.2</ele><time>2026-03-26T08:18:18Z</time></trkpt><trkpt lat="39.0646497228965" lon="9.010041283649958"><ele>41.8</ele><time>2026-03-26T08:18:19Z</time></trkpt><trkpt lat="39.06458329044697" lon="9.009945532323016"><ele>42.4</ele><time>2026-03-26T08:18:20Z</time></trkpt><trkpt lat="39.064538122053044" lon="9.00985926608948"><ele>43.0</ele><time>2026-03-26T08:18:21Z</time></trkpt><trkpt lat="39.06448596969284" lon="9.009773428009396"><ele>43.4</ele><time>2026-03-26T08:18:22Z</time></trkpt><trkpt lat="39.06442739342697" lon="9.009680663617788"><ele>43.8</ele><time>2026-03-26T08:18:23Z</time></trkpt><trkpt lat="39.064361250635535" lon="9.009587917676335"><ele>44.2</ele><time>2026-03-26T08:18:24Z</time></trkpt><trkpt lat="39.064301441596896" lon="9.009494843629506"><ele>44.6</ele><time>2026-03-26T08:18:25Z</time></trkpt><trkpt lat="39.064241521771386" lon="9.009407278034152"><ele>45.0</ele><time>2026-03-26T08:18:26Z</time></trkpt><trkpt lat="39.06418092455296" lon="9.009313920623596"><ele>45.0</ele><time>2026-03-26T08:18:27Z</time></trkpt><trkpt lat="39.06412058593912" lon="9.00922289956699"><ele>45.0</ele><time>2026-03-26T08:18:28Z</time></trkpt><trkpt lat="39.06405796157396" lon="9.00913337296808"><ele>45.0</ele><time>2026-03-26T08:18:29Z</time></trkpt><trkpt lat="39.06399286096774" lon="9.009043501354464"><ele>45.0</ele><time>2026-03-26T08:18:29.999Z</time></trkpt><trkpt lat="39.0639264529856" lon="9.008949880521433"><ele>45.0</ele><time>2026-03-26T08:18:30.999Z</time></trkpt><trkpt lat="39.06388094886737" lon="9.008833713300044"><ele>45.666666666666664</ele><time>2026-03-26T08:18:31.999Z</time></trkpt><trkpt lat="39.063813764945806" lon="9.00874058760518"><ele>46.33333333333333</ele><time>2026-03-26T08:18:32.999Z</time></trkpt><trkpt lat="39.063749476628416" lon="9.008644262413247"><ele>47.0</ele><time>2026-03-26T08:18:33.999Z</time></trkpt><trkpt lat="39.06368336773495" lon="9.00857380767688"><ele>47.666666666666664</ele><time>2026-03-26T08:18:34.999Z</time></trkpt><trkpt lat="39.06363974984673" lon="9.008500771895184"><ele>48.33333333333333</ele><time>2026-03-26T08:18:35.999Z</time></trkpt><trkpt lat="39.06361220071947" lon="9.008402449035701"><ele>49.0</ele><time>2026-03-26T08:18:36.999Z</time></trkpt><trkpt lat="39.06358973253504" lon="9.008300006598454"><ele>49.0</ele><time>2026-03-26T08:18:37.999Z</time></trkpt><trkpt lat="39.06356514992599" lon="9.0081901471072"><ele>49.0</ele><time>2026-03-26T08:18:38.999Z</time></trkpt><trkpt lat="39.06354169948147" lon="9.00807521820151"><ele>49.0</ele><time>2026-03-26T08:18:39.999Z</time></trkpt><trkpt lat="39.06352269412332" lon="9.007958319398119"><ele>49.0</ele><time>2026-03-26T08:18:40.999Z</time></trkpt><trkpt lat="39.063503036820606" lon="9.007835476469142"><ele>49.0</ele><time>2026-03-26T08:18:41.999Z</time></trkpt><trkpt lat="39.06348346122086" lon="9.007713144120055"><ele>48.99999999999999</ele><time>2026-03-26T08:18:42.999Z</time></trkpt><trkpt lat="39.06346482801355" lon="9.0075967010007"><ele>49.0</ele><time>2026-03-26T08:18:43.999Z</time></trkpt><trkpt lat="39.06344486690138" lon="9.007476060476922"><ele>49.0</ele><time>2026-03-26T08:18:45Z</time></trkpt><trkpt lat="39.063425120640844" lon="9.007357709333148"><ele>49.0</ele><time>2026-03-26T08:18:46Z</time></trkpt><trkpt lat="39.063407087799106" lon="9.007249627721142"><ele>48.99999999999999</ele><time>2026-03-26T08:18:47Z</time></trkpt><trkpt lat="39.06340309057424" lon="9.00714673346124"><ele>49.0</ele><time>2026-03-26T08:18:48Z</time></trkpt><trkpt lat="39.06343067617663" lon="9.007030887433725"><ele>48.6</ele><time>2026-03-26T08:18:49Z</time></trkpt><trkpt lat="39.063460199453786" lon="9.006910031403386"><ele>48.2</ele><time>2026-03-26T08:18:50Z</time></trkpt><trkpt lat="39.06349210728144" lon="9.006784490911707"><ele>47.800000000000004</ele><time>2026-03-26T08:18:51Z</time></trkpt><trkpt lat="39.06355195814031" lon="9.00666255631289"><ele>47.400000000000006</ele><time>2026-03-26T08:18:52Z</time></trkpt><trkpt lat="39.06358052189673" lon="9.006529524499406"><ele>47.0</ele><time>2026-03-26T08:18:53Z</time></trkpt><trkpt lat="39.06361127623498" lon="9.006386290356046"><ele>46.5</ele><time>2026-03-26T08:18:54Z</time></trkpt><trkpt lat="39.06364242150885" lon="9.006241749358214"><ele>46.0</ele><time>2026-03-26T08:18:55Z</time></trkpt><trkpt lat="39.06367372159568" lon="9.006096496371825"><ele>45.5</ele><time>2026-03-26T08:18:56Z</time></trkpt><trkpt lat="39.06370424405699" lon="9.005954852097991"><ele>45.0</ele><time>2026-03-26T08:18:57Z</time></trkpt><trkpt lat="39.06373415869226" lon="9.005816028536378"><ele>44.8</ele><time>2026-03-26T08:18:58Z</time></trkpt><trkpt lat="39.06376328583713" lon="9.005680859446866"><ele>44.6</ele><time>2026-03-26T08:18:59Z</time></trkpt><trkpt lat="39.06379302977613" lon="9.00554282802364"><ele>44.400000000000006</ele><time>2026-03-26T08:19:00Z</time></trkpt><trkpt lat="39.063821498596276" lon="9.0054089037369"><ele>44.2</ele><time>2026-03-26T08:19:01Z</time></trkpt><trkpt lat="39.06384899847805" lon="9.00527797238411"><ele>44.0</ele><time>2026-03-26T08:19:02Z</time></trkpt><trkpt lat="39.06387154983505" lon="9.00516332785538"><ele>44.0</ele><time>2026-03-26T08:19:03Z</time></trkpt><trkpt lat="39.06389023280604" lon="9.005066467372906"><ele>44.0</ele><time>2026-03-26T08:19:04Z</time></trkpt><trkpt lat="39.06390564831129" lon="9.00497998346975"><ele>44.0</ele><time>2026-03-26T08:19:05Z</time></trkpt><trkpt lat="39.063930440527024" lon="9.00484089442021"><ele>44.0</ele><time>2026-03-26T08:19:07Z</time></trkpt><trkpt lat="39.06394555311445" lon="9.004756109934709"><ele>44.0</ele><time>2026-03-26T08:19:09Z</time></trkpt><trkpt lat="39.063959670271004" lon="9.004676910021262"><ele>44.0</ele><time>2026-03-26T08:19:12Z</time></trkpt><trkpt lat="39.06398090949624" lon="9.00455775407636"><ele>44.400000000000006</ele><time>2026-03-26T08:19:14Z</time></trkpt><trkpt lat="39.06400750624752" lon="9.004468521083828"><ele>44.8</ele><time>2026-03-26T08:19:15Z</time></trkpt><trkpt lat="39.064046062419955" lon="9.004354870685695"><ele>45.2</ele><time>2026-03-26T08:19:16Z</time></trkpt><trkpt lat="39.064096226281315" lon="9.004234062601261"><ele>45.599999999999994</ele><time>2026-03-26T08:19:17Z</time></trkpt><trkpt lat="39.064160390673806" lon="9.004096389967708"><ele>46.0</ele><time>2026-03-26T08:19:18Z</time></trkpt><trkpt lat="39.06423210331889" lon="9.003957844156883"><ele>44.25</ele><time>2026-03-26T08:19:19Z</time></trkpt><trkpt lat="39.06430922380307" lon="9.003819139937015"><ele>42.5</ele><time>2026-03-26T08:19:20Z</time></trkpt><trkpt lat="39.06438335705266" lon="9.00368600632298"><ele>40.75</ele><time>2026-03-26T08:19:21Z</time></trkpt><trkpt lat="39.06445744365862" lon="9.00355295647705"><ele>39.0</ele><time>2026-03-26T08:19:22Z</time></trkpt><trkpt lat="39.064529521369714" lon="9.003423514372168"><ele>39.75</ele><time>2026-03-26T08:19:23Z</time></trkpt><trkpt lat="39.06458995083647" lon="9.003286530444822"><ele>40.5</ele><time>2026-03-26T08:19:24Z</time></trkpt><trkpt lat="39.06466219961132" lon="9.003161714336777"><ele>41.25</ele><time>2026-03-26T08:19:25Z</time></trkpt><trkpt lat="39.064732876567206" lon="9.003035191516158"><ele>42.0</ele><time>2026-03-26T08:19:26Z</time></trkpt><trkpt lat="39.06481200321023" lon="9.002914716744012"><ele>42.0</ele><time>2026-03-26T08:19:27Z</time></trkpt><trkpt lat="39.064877158375545" lon="9.002781788998192"><ele>42.0</ele><time>2026-03-26T08:19:28Z</time></trkpt><trkpt lat="39.06493889800878" lon="9.002646322301828"><ele>42.0</ele><time>2026-03-26T08:19:29Z</time></trkpt><trkpt lat="39.06499687336628" lon="9.002508178591237"><ele>42.0</ele><time>2026-03-26T08:19:30Z</time></trkpt><trkpt lat="39.06505224300531" lon="9.002364705797335"><ele>43.25</ele><time>2026-03-26T08:19:31Z</time></trkpt><trkpt lat="39.065102193135914" lon="9.002214794580912"><ele>44.5</ele><time>2026-03-26T08:19:32Z</time></trkpt><trkpt lat="39.065152487467074" lon="9.00206896681845"><ele>45.75</ele><time>2026-03-26T08:19:33Z</time></trkpt><trkpt lat="39.0652038785999" lon="9.001924161801703"><ele>47.0</ele><time>2026-03-26T08:19:34Z</time></trkpt><trkpt lat="39.06525291726595" lon="9.001772445976746"><ele>47.25</ele><time>2026-03-26T08:19:35Z</time></trkpt><trkpt lat="39.06528350430154" lon="9.00160671526099"><ele>47.5</ele><time>2026-03-26T08:19:36Z</time></trkpt><trkpt lat="39.06530274014466" lon="9.001439124798585"><ele>47.75</ele><time>2026-03-26T08:19:37Z</time></trkpt><trkpt lat="39.06531908350887" lon="9.001277429784432"><ele>48.0</ele><time>2026-03-26T08:19:38Z</time></trkpt><trkpt lat="39.06533386108846" lon="9.001111544119514"><ele>48.0</ele><time>2026-03-26T08:19:39Z</time></trkpt><trkpt lat="39.065348226492056" lon="9.000942779363983"><ele>48.0</ele><time>2026-03-26T08:19:40Z</time></trkpt><trkpt lat="39.06536313080092" lon="9.000773144587644"><ele>48.0</ele><time>2026-03-26T08:19:41Z</time></trkpt><trkpt lat="39.06537866396804" lon="9.00059641273108"><ele>48.0</ele><time>2026-03-26T08:19:42Z</time></trkpt><trkpt lat="39.06539498810905" lon="9.000417402664695"><ele>48.5</ele><time>2026-03-26T08:19:43Z</time></trkpt><trkpt lat="39.06541145747079" lon="9.000238921539923"><ele>49.0</ele><time>2026-03-26T08:19:44Z</time></trkpt><trkpt lat="39.0654270213876" lon="9.00007025286564"><ele>49.5</ele><time>2026-03-26T08:19:45Z</time></trkpt><trkpt lat="39.06544085824028" lon="8.9999078303489"><ele>50.0</ele><time>2026-03-26T08:19:46Z</time></trkpt><trkpt lat="39.0654413507654" lon="8.999744790578053"><ele>50.0</ele><time>2026-03-26T08:19:47Z</time></trkpt><trkpt lat="39.06546233099738" lon="8.999583443422631"><ele>50.0</ele><time>2026-03-26T08:19:48Z</time></trkpt><trkpt lat="39.0654839242498" lon="8.999420265217509"><ele>50.0</ele><time>2026-03-26T08:19:49Z</time></trkpt><trkpt lat="39.065499969465094" lon="8.999258456547269"><ele>50.0</ele><time>2026-03-26T08:19:50Z</time></trkpt><trkpt lat="39.06551608252973" lon="8.999102824994676"><ele>50.25</ele><time>2026-03-26T08:19:51Z</time></trkpt><trkpt lat="39.06554029272483" lon="8.998952006023512"><ele>50.5</ele><time>2026-03-26T08:19:52Z</time></trkpt><trkpt lat="39.06557798308975" lon="8.998805571528276"><ele>50.75</ele><time>2026-03-26T08:19:53Z</time></trkpt><trkpt lat="39.06563480889145" lon="8.998663476073745"><ele>51.0</ele><time>2026-03-26T08:19:54Z</time></trkpt><trkpt lat="39.0656966079869" lon="8.998526592869554"><ele>51.0</ele><time>2026-03-26T08:19:55Z</time></trkpt><trkpt lat="39.065760465492374" lon="8.998395058590113"><ele>51.0</ele><time>2026-03-26T08:19:56Z</time></trkpt><trkpt lat="39.065826270195174" lon="8.9982699169241"><ele>51.0</ele><time>2026-03-26T08:19:57Z</time></trkpt><trkpt lat="39.06589044891522" lon="8.998150719796167"><ele>51.0</ele><time>2026-03-26T08:19:58Z</time></trkpt><trkpt lat="39.06593451864071" lon="8.998022905628638"><ele>50.75</ele><time>2026-03-26T08:19:59Z</time></trkpt><trkpt lat="39.065947775981776" lon="8.997879491638324"><ele>50.5</ele><time>2026-03-26T08:20:00Z</time></trkpt><trkpt lat="39.06593761000774" lon="8.997721977267664"><ele>50.25</ele><time>2026-03-26T08:20:01Z</time></trkpt><trkpt lat="39.065908083618986" lon="8.997565141082097"><ele>50.0</ele><time>2026-03-26T08:20:02Z</time></trkpt><trkpt lat="39.06589345260614" lon="8.997409200826393"><ele>51.25</ele><time>2026-03-26T08:20:03Z</time></trkpt><trkpt lat="39.065857852125376" lon="8.997258866345133"><ele>52.5</ele><time>2026-03-26T08:20:04Z</time></trkpt><trkpt lat="39.06584591313059" lon="8.997100425528215"><ele>53.75</ele><time>2026-03-26T08:20:05Z</time></trkpt><trkpt lat="39.0658506058745" lon="8.996944668213205"><ele>55.0</ele><time>2026-03-26T08:20:06Z</time></trkpt><trkpt lat="39.06585714552669" lon="8.996794085137493"><ele>55.25</ele><time>2026-03-26T08:20:07Z</time></trkpt><trkpt lat="39.06587133649128" lon="8.996640738241533"><ele>55.5</ele><time>2026-03-26T08:20:08Z</time></trkpt><trkpt lat="39.06590414140528" lon="8.99649095711236"><ele>55.75</ele><time>2026-03-26T08:20:09Z</time></trkpt><trkpt lat="39.06591772505974" lon="8.996337095445819"><ele>56.0</ele><time>2026-03-26T08:20:10Z</time></trkpt><trkpt lat="39.06592059024502" lon="8.996199223434843"><ele>56.00000000000001</ele><time>2026-03-26T08:20:11Z</time></trkpt><trkpt lat="39.06592301684127" lon="8.996102001764484"><ele>56.0</ele><time>2026-03-26T08:20:12Z</time></trkpt><trkpt lat="39.065950349369835" lon="8.996020205157281"><ele>56.0</ele><time>2026-03-26T08:20:13Z</time></trkpt><trkpt lat="39.066021413842535" lon="8.995976450961452"><ele>56.0</ele><time>2026-03-26T08:20:14Z</time></trkpt><trkpt lat="39.066093143970406" lon="8.995915159328835"><ele>56.00000000000001</ele><time>2026-03-26T08:20:15Z</time></trkpt><trkpt lat="39.066165297630555" lon="8.995835802684276"><ele>56.0</ele><time>2026-03-26T08:20:16Z</time></trkpt><trkpt lat="39.06622193917091" lon="8.995734914435392"><ele>56.4</ele><time>2026-03-26T08:20:17Z</time></trkpt><trkpt lat="39.066286433259485" lon="8.995642044865633"><ele>56.8</ele><time>2026-03-26T08:20:18Z</time></trkpt><trkpt lat="39.066347277025244" lon="8.995535693373238"><ele>57.199999999999996</ele><time>2026-03-26T08:20:19Z</time></trkpt><trkpt lat="39.06640226281275" lon="8.995422536092743"><ele>57.599999999999994</ele><time>2026-03-26T08:20:20Z</time></trkpt><trkpt lat="39.06644946687039" lon="8.995300611494596"><ele>58.0</ele><time>2026-03-26T08:20:21Z</time></trkpt><trkpt lat="39.06648969855366" lon="8.995173586139355"><ele>58.0</ele><time>2026-03-26T08:20:21.999Z</time></trkpt><trkpt lat="39.06652874813073" lon="8.995041328559163"><ele>58.0</ele><time>2026-03-26T08:20:22.999Z</time></trkpt><trkpt lat="39.06657429380312" lon="8.99490440824528"><ele>58.0</ele><time>2026-03-26T08:20:23.999Z</time></trkpt><trkpt lat="39.06662350826558" lon="8.994766382972488"><ele>58.0</ele><time>2026-03-26T08:20:24.999Z</time></trkpt><trkpt lat="39.06667372267563" lon="8.994625793703582"><ele>58.599999999999994</ele><time>2026-03-26T08:20:25.999Z</time></trkpt><trkpt lat="39.0667239987707" lon="8.994491030348458"><ele>59.199999999999996</ele><time>2026-03-26T08:20:26.999Z</time></trkpt><trkpt lat="39.066772092332265" lon="8.994358556563403"><ele>59.8</ele><time>2026-03-26T08:20:27.999Z</time></trkpt><trkpt lat="39.066807691146515" lon="8.994230277730606"><ele>60.4</ele><time>2026-03-26T08:20:28.999Z</time></trkpt><trkpt lat="39.06682058933966" lon="8.994098363055171"><ele>61.0</ele><time>2026-03-26T08:20:29.999Z</time></trkpt><trkpt lat="39.06683775884277" lon="8.993944260506053"><ele>61.83333333333333</ele><time>2026-03-26T08:20:30.999Z</time></trkpt><trkpt lat="39.066839426628334" lon="8.993799361676164"><ele>62.666666666666664</ele><time>2026-03-26T08:20:31.999Z</time></trkpt><trkpt lat="39.06684080471179" lon="8.993679632329474"><ele>63.5</ele><time>2026-03-26T08:20:32.999Z</time></trkpt><trkpt lat="39.06684639962824" lon="8.993572569360468"><ele>64.33333333333333</ele><time>2026-03-26T08:20:33.999Z</time></trkpt><trkpt lat="39.06686082448001" lon="8.993481325179204"><ele>65.16666666666667</ele><time>2026-03-26T08:20:34.999Z</time></trkpt><trkpt lat="39.066890397980096" lon="8.993386693203611"><ele>66.0</ele><time>2026-03-26T08:20:35.999Z</time></trkpt><trkpt lat="39.06695654599675" lon="8.993314295412468"><ele>67.0</ele><time>2026-03-26T08:20:36.999Z</time></trkpt><trkpt lat="39.06702874891838" lon="8.993207965001329"><ele>68.0</ele><time>2026-03-26T08:20:37.999Z</time></trkpt><trkpt lat="39.067077423822695" lon="8.993079430501059"><ele>69.0</ele><time>2026-03-26T08:20:38.999Z</time></trkpt><trkpt lat="39.06711276522203" lon="8.992988521585099"><ele>70.0</ele><time>2026-03-26T08:20:39.999Z</time></trkpt><trkpt lat="39.06715854047933" lon="8.9929157189424"><ele>71.0</ele><time>2026-03-26T08:20:40.999Z</time></trkpt><trkpt lat="39.067222695833" lon="8.992850639546948"><ele>71.0</ele><time>2026-03-26T08:20:41.999Z</time></trkpt><trkpt lat="39.0673018884976" lon="8.992790208298834"><ele>71.0</ele><time>2026-03-26T08:20:42.999Z</time></trkpt><trkpt lat="39.06739568976884" lon="8.992747252025474"><ele>71.0</ele><time>2026-03-26T08:20:43.999Z</time></trkpt><trkpt lat="39.06751820660565" lon="8.992695795643762"><ele>71.0</ele><time>2026-03-26T08:20:44.999Z</time></trkpt><trkpt lat="39.0676338672885" lon="8.992627305303598"><ele>71.0</ele><time>2026-03-26T08:20:45.999Z</time></trkpt><trkpt lat="39.06772625903431" lon="8.992577583946352"><ele>70.39999999999999</ele><time>2026-03-26T08:20:46.999Z</time></trkpt><trkpt lat="39.0678173991723" lon="8.992525937567462"><ele>69.8</ele><time>2026-03-26T08:20:47.999Z</time></trkpt><trkpt lat="39.067903128314576" lon="8.992456113217518"><ele>69.19999999999999</ele><time>2026-03-26T08:20:48.999Z</time></trkpt><trkpt lat="39.067995313019786" lon="8.992377279932594"><ele>68.6</ele><time>2026-03-26T08:20:49.999Z</time></trkpt><trkpt lat="39.06809392781255" lon="8.992291524340029"><ele>68.0</ele><time>2026-03-26T08:20:51Z</time></trkpt><trkpt lat="39.068206553154795" lon="8.992230672070836"><ele>68.4</ele><time>2026-03-26T08:20:52Z</time></trkpt><trkpt lat="39.06830578442203" lon="8.992144765927367"><ele>68.8</ele><time>2026-03-26T08:20:53Z</time></trkpt><trkpt lat="39.0684083653383" lon="8.992089793690397"><ele>69.2</ele><time>2026-03-26T08:20:54Z</time></trkpt><trkpt lat="39.06848968705884" lon="8.992036580841859"><ele>69.6</ele><time>2026-03-26T08:20:55Z</time></trkpt><trkpt lat="39.068547007162856" lon="8.9919884938418"><ele>70.0</ele><time>2026-03-26T08:20:56Z</time></trkpt><trkpt lat="39.068655265103835" lon="8.99196377455463"><ele>70.0</ele><time>2026-03-26T08:20:58Z</time></trkpt><trkpt lat="39.068705861194445" lon="8.992032955410364"><ele>70.0</ele><time>2026-03-26T08:20:59Z</time></trkpt><trkpt lat="39.06879518347433" lon="8.992063083863078"><ele>70.0</ele><time>2026-03-26T08:21:01Z</time></trkpt><trkpt lat="39.06886640512819" lon="8.992066550963218"><ele>70.0</ele><time>2026-03-26T08:21:03Z</time></trkpt><trkpt lat="39.06893304423123" lon="8.992043330626228"><ele>70.0</ele><time>2026-03-26T08:21:05Z</time></trkpt><trkpt lat="39.06893892130407" lon="8.991951875842316"><ele>70.0</ele><time>2026-03-26T08:21:06Z</time></trkpt><trkpt lat="39.068952293815485" lon="8.99186775524335"><ele>70.0</ele><time>2026-03-26T08:21:07Z</time></trkpt><trkpt lat="39.06898132290103" lon="8.991781764913288"><ele>70.0</ele><time>2026-03-26T08:21:08Z</time></trkpt><trkpt lat="39.06899468128371" lon="8.991694347748348"><ele>70.0</ele><time>2026-03-26T08:21:09Z</time></trkpt><trkpt lat="39.06901333072748" lon="8.991610693575439"><ele>70.0</ele><time>2026-03-26T08:21:10Z</time></trkpt><trkpt lat="39.06904536347076" lon="8.991517155451568"><ele>70.0</ele><time>2026-03-26T08:21:11Z</time></trkpt><trkpt lat="39.06911229752768" lon="8.99139278605934"><ele>70.0</ele><time>2026-03-26T08:21:13Z</time></trkpt><trkpt lat="39.069180023057896" lon="8.991338267037564"><ele>70.0</ele><time>2026-03-26T08:21:14Z</time></trkpt><trkpt lat="39.069249960268515" lon="8.991278462533034"><ele>71.25</ele><time>2026-03-26T08:21:15Z</time></trkpt><trkpt lat="39.06931967438183" lon="8.991183762837094"><ele>72.5</ele><time>2026-03-26T08:21:16Z</time></trkpt><trkpt lat="39.06939795241349" lon="8.991068886290515"><ele>73.75</ele><time>2026-03-26T08:21:17Z</time></trkpt><trkpt lat="39.0694876488626" lon="8.990937146782665"><ele>75.0</ele><time>2026-03-26T08:21:18Z</time></trkpt><trkpt lat="39.069568883428445" lon="8.990821425791008"><ele>76.0</ele><time>2026-03-26T08:21:19Z</time></trkpt><trkpt lat="39.06961943672324" lon="8.990714482789087"><ele>77.0</ele><time>2026-03-26T08:21:20Z</time></trkpt><trkpt lat="39.06965901407875" lon="8.99061352719076"><ele>78.0</ele><time>2026-03-26T08:21:21Z</time></trkpt><trkpt lat="39.06969694023582" lon="8.990509097752716"><ele>79.0</ele><time>2026-03-26T08:21:22Z</time></trkpt><trkpt lat="39.06974779687645" lon="8.990408426012802"><ele>80.0</ele><time>2026-03-26T08:21:23Z</time></trkpt><trkpt lat="39.06981131498072" lon="8.99030660782027"><ele>80.0</ele><time>2026-03-26T08:21:24Z</time></trkpt><trkpt lat="39.069887437393454" lon="8.990209575554914"><ele>80.0</ele><time>2026-03-26T08:21:25Z</time></trkpt><trkpt lat="39.06995326477476" lon="8.990106291827805"><ele>80.0</ele><time>2026-03-26T08:21:26Z</time></trkpt><trkpt lat="39.07001142784302" lon="8.989983920896227"><ele>80.0</ele><time>2026-03-26T08:21:27Z</time></trkpt><trkpt lat="39.07006095914691" lon="8.989852662096018"><ele>80.0</ele><time>2026-03-26T08:21:28Z</time></trkpt><trkpt lat="39.07011149473383" lon="8.989740514788968"><ele>81.0</ele><time>2026-03-26T08:21:29Z</time></trkpt><trkpt lat="39.07017131461289" lon="8.989644500746259"><ele>82.0</ele><time>2026-03-26T08:21:30Z</time></trkpt><trkpt lat="39.07022512887068" lon="8.989554093735544"><ele>83.0</ele><time>2026-03-26T08:21:31Z</time></trkpt><trkpt lat="39.07025783646782" lon="8.989477808758746"><ele>84.0</ele><time>2026-03-26T08:21:32Z</time></trkpt><trkpt lat="39.07030484289649" lon="8.989335628815263"><ele>85.0</ele><time>2026-03-26T08:21:34Z</time></trkpt><trkpt lat="39.070345253016285" lon="8.989213096040581"><ele>86.5</ele><time>2026-03-26T08:21:36Z</time></trkpt><trkpt lat="39.07038231834138" lon="8.989087700272739"><ele>88.0</ele><time>2026-03-26T08:21:38Z</time></trkpt><trkpt lat="39.070408437959046" lon="8.98901375687"><ele>89.5</ele><time>2026-03-26T08:21:39Z</time></trkpt><trkpt lat="39.07043636798709" lon="8.988904401657067"><ele>91.0</ele><time>2026-03-26T08:21:40Z</time></trkpt><trkpt lat="39.07047163330785" lon="8.988800112759206"><ele>92.5</ele><time>2026-03-26T08:21:41Z</time></trkpt><trkpt lat="39.070503080365356" lon="8.988710252554226"><ele>94.0</ele><time>2026-03-26T08:21:42Z</time></trkpt><trkpt lat="39.07054455570093" lon="8.988585043838002"><ele>94.0</ele><time>2026-03-26T08:21:44Z</time></trkpt><trkpt lat="39.070569761293385" lon="8.988497924238885"><ele>94.0</ele><time>2026-03-26T08:21:46Z</time></trkpt><trkpt lat="39.07058014556389" lon="8.988415637748982"><ele>94.0</ele><time>2026-03-26T08:21:49Z</time></trkpt><trkpt lat="39.07052575766719" lon="8.988228889094579"><ele>94.0</ele><time>2026-03-26T08:21:51Z</time></trkpt><trkpt lat="39.07045429009269" lon="8.98811440732791"><ele>94.0</ele><time>2026-03-26T08:21:52Z</time></trkpt><trkpt lat="39.07036367342355" lon="8.98798975791864"><ele>93.5</ele><time>2026-03-26T08:21:53Z</time></trkpt><trkpt lat="39.070264060719445" lon="8.987852555560304"><ele>93.0</ele><time>2026-03-26T08:21:54Z</time></trkpt><trkpt lat="39.07016333401833" lon="8.987709669278974"><ele>92.5</ele><time>2026-03-26T08:21:55Z</time></trkpt><trkpt lat="39.070066841921026" lon="8.987568103998747"><ele>92.0</ele><time>2026-03-26T08:21:56Z</time></trkpt><trkpt lat="39.06997785137297" lon="8.987438106620122"><ele>92.25</ele><time>2026-03-26T08:21:57Z</time></trkpt><trkpt lat="39.06989983353131" lon="8.987323347933806"><ele>92.5</ele><time>2026-03-26T08:21:58Z</time></trkpt><trkpt lat="39.069820353107716" lon="8.987212290841315"><ele>92.75</ele><time>2026-03-26T08:21:59Z</time></trkpt><trkpt lat="39.069732464584824" lon="8.987102333604941"><ele>93.0</ele><time>2026-03-26T08:22:00Z</time></trkpt><trkpt lat="39.06963448131074" lon="8.986995067635583"><ele>93.0</ele><time>2026-03-26T08:22:01Z</time></trkpt><trkpt lat="39.06953099119507" lon="8.986888091540521"><ele>93.0</ele><time>2026-03-26T08:22:02Z</time></trkpt><trkpt lat="39.06942150282578" lon="8.986784287615633"><ele>93.0</ele><time>2026-03-26T08:22:03Z</time></trkpt><trkpt lat="39.06931382977255" lon="8.986684971399159"><ele>93.0</ele><time>2026-03-26T08:22:04Z</time></trkpt><trkpt lat="39.069217522532625" lon="8.986589184596335"><ele>91.25</ele><time>2026-03-26T08:22:05Z</time></trkpt><trkpt lat="39.06912337312253" lon="8.98649435223961"><ele>89.5</ele><time>2026-03-26T08:22:06Z</time></trkpt><trkpt lat="39.06902630491308" lon="8.98639871870806"><ele>87.75</ele><time>2026-03-26T08:22:07Z</time></trkpt><trkpt lat="39.06892696188878" lon="8.986303817409366"><ele>86.0</ele><time>2026-03-26T08:22:08Z</time></trkpt><trkpt lat="39.06882554697473" lon="8.986206733573988"><ele>85.0</ele><time>2026-03-26T08:22:09Z</time></trkpt><trkpt lat="39.0687221879201" lon="8.986108648149617"><ele>84.0</ele><time>2026-03-26T08:22:10Z</time></trkpt><trkpt lat="39.06861682489571" lon="8.986007809669559"><ele>83.0</ele><time>2026-03-26T08:22:11Z</time></trkpt><trkpt lat="39.06851005647208" lon="8.985903264583447"><ele>82.0</ele><time>2026-03-26T08:22:12Z</time></trkpt><trkpt lat="39.06840107185256" lon="8.985793311283835"><ele>81.75</ele><time>2026-03-26T08:22:13Z</time></trkpt><trkpt lat="39.06829593322118" lon="8.985673171285915"><ele>81.5</ele><time>2026-03-26T08:22:14Z</time></trkpt><trkpt lat="39.06820061636551" lon="8.98554619509696"><ele>81.25</ele><time>2026-03-26T08:22:15Z</time></trkpt><trkpt lat="39.06811378611609" lon="8.98539708972248"><ele>81.0</ele><time>2026-03-26T08:22:16Z</time></trkpt><trkpt lat="39.06805836707398" lon="8.985222164650487"><ele>81.0</ele><time>2026-03-26T08:22:17Z</time></trkpt><trkpt lat="39.0679936334298" lon="8.985051076291107"><ele>81.0</ele><time>2026-03-26T08:22:18Z</time></trkpt><trkpt lat="39.067928666054215" lon="8.984879233594274"><ele>81.0</ele><time>2026-03-26T08:22:19Z</time></trkpt><trkpt lat="39.067852019087255" lon="8.984717645622053"><ele>81.0</ele><time>2026-03-26T08:22:20Z</time></trkpt><trkpt lat="39.067794023548416" lon="8.98454576283963"><ele>81.0</ele><time>2026-03-26T08:22:21Z</time></trkpt><trkpt lat="39.067733362972696" lon="8.984372539549508"><ele>81.0</ele><time>2026-03-26T08:22:22Z</time></trkpt><trkpt lat="39.067669856254774" lon="8.984200179899732"><ele>81.0</ele><time>2026-03-26T08:22:23Z</time></trkpt><trkpt lat="39.06760666590232" lon="8.984028539080269"><ele>81.0</ele><time>2026-03-26T08:22:24Z</time></trkpt><trkpt lat="39.06754483467534" lon="8.983856608098566"><ele>82.0</ele><time>2026-03-26T08:22:25Z</time></trkpt><trkpt lat="39.06748160156763" lon="8.983683873909989"><ele>83.0</ele><time>2026-03-26T08:22:26Z</time></trkpt><trkpt lat="39.067418729938986" lon="8.983510160889123"><ele>84.0</ele><time>2026-03-26T08:22:27Z</time></trkpt><trkpt lat="39.06735763846114" lon="8.98333430304427"><ele>85.0</ele><time>2026-03-26T08:22:28Z</time></trkpt><trkpt lat="39.06729780125164" lon="8.983154787069987"><ele>86.33333333333333</ele><time>2026-03-26T08:22:29Z</time></trkpt><trkpt lat="39.06723669630871" lon="8.982974638577945"><ele>87.66666666666667</ele><time>2026-03-26T08:22:30Z</time></trkpt><trkpt lat="39.06717312676497" lon="8.982791959215959"><ele>89.0</ele><time>2026-03-26T08:22:31Z</time></trkpt><trkpt lat="39.06710495890356" lon="8.982609292238909"><ele>89.33333333333334</ele><time>2026-03-26T08:22:32Z</time></trkpt><trkpt lat="39.06703738754542" lon="8.982426295308091"><ele>89.66666666666667</ele><time>2026-03-26T08:22:33Z</time></trkpt><trkpt lat="39.06697181485952" lon="8.982239359152278"><ele>90.0</ele><time>2026-03-26T08:22:34Z</time></trkpt><trkpt lat="39.06690594887666" lon="8.982048104832586"><ele>90.0</ele><time>2026-03-26T08:22:35Z</time></trkpt><trkpt lat="39.0668388804559" lon="8.98185451079676"><ele>90.0</ele><time>2026-03-26T08:22:36Z</time></trkpt><trkpt lat="39.066770525698885" lon="8.9816614177354"><ele>90.0</ele><time>2026-03-26T08:22:36.999Z</time></trkpt><trkpt lat="39.0667017865526" lon="8.981466602265835"><ele>89.66666666666667</ele><time>2026-03-26T08:22:37.999Z</time></trkpt><trkpt lat="39.066632876967425" lon="8.981271395030056"><ele>89.33333333333334</ele><time>2026-03-26T08:22:38.999Z</time></trkpt><trkpt lat="39.06656358601563" lon="8.98107915601697"><ele>89.0</ele><time>2026-03-26T08:22:39.999Z</time></trkpt><trkpt lat="39.06649870226829" lon="8.980890870618447"><ele>88.66666666666667</ele><time>2026-03-26T08:22:40.999Z</time></trkpt><trkpt lat="39.066432313280266" lon="8.980705919216259"><ele>88.33333333333333</ele><time>2026-03-26T08:22:41.999Z</time></trkpt><trkpt lat="39.066362885634135" lon="8.980524786702315"><ele>88.0</ele><time>2026-03-26T08:22:42.999Z</time></trkpt><trkpt lat="39.06628124180801" lon="8.980347413152215"><ele>88.0</ele><time>2026-03-26T08:22:43.999Z</time></trkpt><trkpt lat="39.06619210358734" lon="8.98016732557178"><ele>88.0</ele><time>2026-03-26T08:22:44.999Z</time></trkpt><trkpt lat="39.06609548617118" lon="8.97998927207918"><ele>88.0</ele><time>2026-03-26T08:22:45.999Z</time></trkpt><trkpt lat="39.06599654831412" lon="8.979809056024791"><ele>88.66666666666666</ele><time>2026-03-26T08:22:46.999Z</time></trkpt><trkpt lat="39.06591185274408" lon="8.979615201141005"><ele>89.33333333333333</ele><time>2026-03-26T08:22:47.999Z</time></trkpt><trkpt lat="39.06580168613373" lon="8.979444823004405"><ele>90.0</ele><time>2026-03-26T08:22:48.999Z</time></trkpt><trkpt lat="39.0657058872612" lon="8.9792614405389"><ele>88.0</ele><time>2026-03-26T08:22:49.999Z</time></trkpt><trkpt lat="39.065610900872" lon="8.979080490493024"><ele>86.0</ele><time>2026-03-26T08:22:50.999Z</time></trkpt><trkpt lat="39.06551736747267" lon="8.97889897317324"><ele>84.0</ele><time>2026-03-26T08:22:51.999Z</time></trkpt><trkpt lat="39.06542509776272" lon="8.978721572340378"><ele>84.0</ele><time>2026-03-26T08:22:52.999Z</time></trkpt><trkpt lat="39.065334707680115" lon="8.978549827796028"><ele>84.0</ele><time>2026-03-26T08:22:53.999Z</time></trkpt><trkpt lat="39.06524394866037" lon="8.978381229779682"><ele>84.0</ele><time>2026-03-26T08:22:54.999Z</time></trkpt><trkpt lat="39.06515530766194" lon="8.978216089133225"><ele>84.33333333333333</ele><time>2026-03-26T08:22:55.999Z</time></trkpt><trkpt lat="39.065068350177754" lon="8.978049620020151"><ele>84.66666666666666</ele><time>2026-03-26T08:22:57Z</time></trkpt><trkpt lat="39.064983629003365" lon="8.97788433452592"><ele>85.0</ele><time>2026-03-26T08:22:58Z</time></trkpt><trkpt lat="39.064896820480485" lon="8.97772296202161"><ele>84.0</ele><time>2026-03-26T08:22:59Z</time></trkpt><trkpt lat="39.064808919019356" lon="8.977563237601327"><ele>83.0</ele><time>2026-03-26T08:23:00Z</time></trkpt><trkpt lat="39.06472337629538" lon="8.977403587830954"><ele>82.0</ele><time>2026-03-26T08:23:01Z</time></trkpt><trkpt lat="39.06463685852939" lon="8.977245530032587"><ele>82.0</ele><time>2026-03-26T08:23:02Z</time></trkpt><trkpt lat="39.06455370121912" lon="8.977089788956377"><ele>82.0</ele><time>2026-03-26T08:23:03Z</time></trkpt><trkpt lat="39.06448390479082" lon="8.976921669124525"><ele>82.0</ele><time>2026-03-26T08:23:04Z</time></trkpt><trkpt lat="39.0643872018453" lon="8.976777485703602"><ele>82.0</ele><time>2026-03-26T08:23:05Z</time></trkpt><trkpt lat="39.064317909220286" lon="8.976610215820553"><ele>82.5</ele><time>2026-03-26T08:23:06Z</time></trkpt><trkpt lat="39.06423573639951" lon="8.976456037028846"><ele>83.0</ele><time>2026-03-26T08:23:07Z</time></trkpt><trkpt lat="39.06415518178354" lon="8.976303408281535"><ele>83.5</ele><time>2026-03-26T08:23:08Z</time></trkpt><trkpt lat="39.064075878532634" lon="8.976149160830216"><ele>84.0</ele><time>2026-03-26T08:23:09Z</time></trkpt><trkpt lat="39.06399409412449" lon="8.975988544468612"><ele>82.33333333333333</ele><time>2026-03-26T08:23:10Z</time></trkpt><trkpt lat="39.06390445746963" lon="8.975830370675222"><ele>80.66666666666666</ele><time>2026-03-26T08:23:11Z</time></trkpt><trkpt lat="39.06383397711777" lon="8.975658188439658"><ele>79.0</ele><time>2026-03-26T08:23:12Z</time></trkpt><trkpt lat="39.063773245042064" lon="8.975486334698163"><ele>79.0</ele><time>2026-03-26T08:23:13Z</time></trkpt><trkpt lat="39.063723669447874" lon="8.975309497877591"><ele>79.0</ele><time>2026-03-26T08:23:14Z</time></trkpt><trkpt lat="39.06368923003437" lon="8.975125892670118"><ele>79.0</ele><time>2026-03-26T08:23:15Z</time></trkpt><trkpt lat="39.06365887840558" lon="8.974935690437935"><ele>79.0</ele><time>2026-03-26T08:23:16Z</time></trkpt><trkpt lat="39.0636301029751" lon="8.974741921880144"><ele>79.66666666666666</ele><time>2026-03-26T08:23:17Z</time></trkpt><trkpt lat="39.06360003714794" lon="8.974547732161826"><ele>80.33333333333333</ele><time>2026-03-26T08:23:18Z</time></trkpt><trkpt lat="39.06356269303643" lon="8.974356054215171"><ele>81.0</ele><time>2026-03-26T08:23:19Z</time></trkpt><trkpt lat="39.063516793061076" lon="8.974170821221433"><ele>81.0</ele><time>2026-03-26T08:23:20Z</time></trkpt><trkpt lat="39.06346306460391" lon="8.973997510827713"><ele>81.0</ele><time>2026-03-26T08:23:21Z</time></trkpt><trkpt lat="39.06340289405753" lon="8.973831503972585"><ele>81.0</ele><time>2026-03-26T08:23:22Z</time></trkpt><trkpt lat="39.0633361712251" lon="8.973674282162731"><ele>81.0</ele><time>2026-03-26T08:23:23Z</time></trkpt><trkpt lat="39.06326959650861" lon="8.973528405996566"><ele>79.0</ele><time>2026-03-26T08:23:24Z</time></trkpt><trkpt lat="39.063204774312545" lon="8.973387603732359"><ele>77.0</ele><time>2026-03-26T08:23:25Z</time></trkpt><trkpt lat="39.063134793382275" lon="8.973243135833053"><ele>75.0</ele><time>2026-03-26T08:23:26Z</time></trkpt><trkpt lat="39.063067154756524" lon="8.973103247262411"><ele>73.0</ele><time>2026-03-26T08:23:27Z</time></trkpt><trkpt lat="39.06300378733818" lon="8.972975731319357"><ele>72.8</ele><time>2026-03-26T08:23:28Z</time></trkpt><trkpt lat="39.062946621494234" lon="8.972857879033855"><ele>72.6</ele><time>2026-03-26T08:23:29Z</time></trkpt><trkpt lat="39.062894410275945" lon="8.972749090480812"><ele>72.4</ele><time>2026-03-26T08:23:30Z</time></trkpt><trkpt lat="39.06285239469381" lon="8.972658643666495"><ele>72.2</ele><time>2026-03-26T08:23:31Z</time></trkpt><trkpt lat="39.06281685160983" lon="8.972575398161169"><ele>72.0</ele><time>2026-03-26T08:23:32Z</time></trkpt><trkpt lat="39.062787990541295" lon="8.97244296722171"><ele>71.0</ele><time>2026-03-26T08:23:34Z</time></trkpt><trkpt lat="39.06291376527388" lon="8.972308691777098"><ele>70.0</ele><time>2026-03-26T08:23:36Z</time></trkpt><trkpt lat="39.063011495883714" lon="8.972282109187608"><ele>69.0</ele><time>2026-03-26T08:23:37Z</time></trkpt><trkpt lat="39.063119587986165" lon="8.972269924541832"><ele>68.0</ele><time>2026-03-26T08:23:38Z</time></trkpt><trkpt lat="39.063234587792216" lon="8.972255643855382"><ele>69.0</ele><time>2026-03-26T08:23:39Z</time></trkpt><trkpt lat="39.06334634941191" lon="8.972229775052492"><ele>70.0</ele><time>2026-03-26T08:23:40Z</time></trkpt><trkpt lat="39.06345540581655" lon="8.972197528417926"><ele>71.0</ele><time>2026-03-26T08:23:41Z</time></trkpt><trkpt lat="39.063565063201615" lon="8.972173062936145"><ele>72.0</ele><time>2026-03-26T08:23:42Z</time></trkpt><trkpt lat="39.06367621918149" lon="8.972146422672138"><ele>72.0</ele><time>2026-03-26T08:23:43Z</time></trkpt><trkpt lat="39.063786909558026" lon="8.972120968527628"><ele>72.0</ele><time>2026-03-26T08:23:44Z</time></trkpt><trkpt lat="39.06389819440817" lon="8.972097514256259"><ele>72.0</ele><time>2026-03-26T08:23:45Z</time></trkpt><trkpt lat="39.06401001395204" lon="8.972066295323595"><ele>72.0</ele><time>2026-03-26T08:23:46Z</time></trkpt><trkpt lat="39.064126150088825" lon="8.972033692409543"><ele>73.25</ele><time>2026-03-26T08:23:47Z</time></trkpt><trkpt lat="39.06424909284505" lon="8.972026699094371"><ele>74.5</ele><time>2026-03-26T08:23:48Z</time></trkpt><trkpt lat="39.064366484383356" lon="8.97197920903473"><ele>75.75</ele><time>2026-03-26T08:23:49Z</time></trkpt><trkpt lat="39.064483780180765" lon="8.971942320703306"><ele>77.0</ele><time>2026-03-26T08:23:50Z</time></trkpt><trkpt lat="39.06460167512006" lon="8.971911991948234"><ele>77.0</ele><time>2026-03-26T08:23:51Z</time></trkpt><trkpt lat="39.06471951501506" lon="8.971883094482482"><ele>77.0</ele><time>2026-03-26T08:23:52Z</time></trkpt><trkpt lat="39.06483497579523" lon="8.971849887317525"><ele>77.0</ele><time>2026-03-26T08:23:53Z</time></trkpt><trkpt lat="39.06494915952747" lon="8.971814094463515"><ele>77.0</ele><time>2026-03-26T08:23:54Z</time></trkpt><trkpt lat="39.065060265649606" lon="8.971767533475717"><ele>80.0</ele><time>2026-03-26T08:23:55Z</time></trkpt><trkpt lat="39.06515335612208" lon="8.971686177513762"><ele>83.0</ele><time>2026-03-26T08:23:56Z</time></trkpt><trkpt lat="39.065236459794356" lon="8.971578556799148"><ele>86.0</ele><time>2026-03-26T08:23:57Z</time></trkpt><trkpt lat="39.0652869268421" lon="8.97143315523599"><ele>89.0</ele><time>2026-03-26T08:23:58Z</time></trkpt><trkpt lat="39.06531019759212" lon="8.97127845982979"><ele>89.0</ele><time>2026-03-26T08:23:59Z</time></trkpt><trkpt lat="39.065351125528686" lon="8.971135495988488"><ele>89.0</ele><time>2026-03-26T08:24:00Z</time></trkpt><trkpt lat="39.06538286835373" lon="8.970987895677078"><ele>89.0</ele><time>2026-03-26T08:24:01Z</time></trkpt><trkpt lat="39.06542993291865" lon="8.970854403594466"><ele>89.0</ele><time>2026-03-26T08:24:02Z</time></trkpt><trkpt lat="39.065487002336056" lon="8.970711344517243"><ele>87.0</ele><time>2026-03-26T08:24:03Z</time></trkpt><trkpt lat="39.065535113968345" lon="8.970575307659681"><ele>85.0</ele><time>2026-03-26T08:24:04Z</time></trkpt><trkpt lat="39.06559860155712" lon="8.970447389167765"><ele>83.0</ele><time>2026-03-26T08:24:05Z</time></trkpt><trkpt lat="39.06566945183965" lon="8.97032429231015"><ele>81.0</ele><time>2026-03-26T08:24:06Z</time></trkpt><trkpt lat="39.065746799433434" lon="8.97020433326174"><ele>85.75</ele><time>2026-03-26T08:24:07Z</time></trkpt><trkpt lat="39.06583437572388" lon="8.97009007028151"><ele>90.5</ele><time>2026-03-26T08:24:08Z</time></trkpt><trkpt lat="39.06592109921237" lon="8.969969876440226"><ele>95.25</ele><time>2026-03-26T08:24:09Z</time></trkpt><trkpt lat="39.066006126292294" lon="8.969844956914066"><ele>100.0</ele><time>2026-03-26T08:24:10Z</time></trkpt><trkpt lat="39.06608707514844" lon="8.96972609641984"><ele>100.0</ele><time>2026-03-26T08:24:11Z</time></trkpt><trkpt lat="39.066170350423995" lon="8.969609014744567"><ele>100.0</ele><time>2026-03-26T08:24:12Z</time></trkpt><trkpt lat="39.06626515929163" lon="8.969516905465937"><ele>100.0</ele><time>2026-03-26T08:24:13Z</time></trkpt><trkpt lat="39.06634834732792" lon="8.969406885727429"><ele>100.0</ele><time>2026-03-26T08:24:14Z</time></trkpt><trkpt lat="39.06642074168126" lon="8.969280061352897"><ele>94.75</ele><time>2026-03-26T08:24:15Z</time></trkpt><trkpt lat="39.06651048068078" lon="8.969176665453908"><ele>89.5</ele><time>2026-03-26T08:24:16Z</time></trkpt><trkpt lat="39.06654864467711" lon="8.968996355344613"><ele>84.25</ele><time>2026-03-26T08:24:17Z</time></trkpt><trkpt lat="39.06659229229742" lon="8.968815595635416"><ele>79.0</ele><time>2026-03-26T08:24:18Z</time></trkpt><trkpt lat="39.06664099335629" lon="8.968645310972734"><ele>88.75</ele><time>2026-03-26T08:24:19Z</time></trkpt><trkpt lat="39.066671567088996" lon="8.968484965528368"><ele>98.5</ele><time>2026-03-26T08:24:20Z</time></trkpt><trkpt lat="39.06670192883317" lon="8.968328460215382"><ele>108.25</ele><time>2026-03-26T08:24:21Z</time></trkpt><trkpt lat="39.06672366680631" lon="8.968174788647227"><ele>118.0</ele><time>2026-03-26T08:24:22Z</time></trkpt><trkpt lat="39.06676669695657" lon="8.968032507259974"><ele>118.0</ele><time>2026-03-26T08:24:23Z</time></trkpt><trkpt lat="39.066805434699404" lon="8.96790202057149"><ele>118.00000000000001</ele><time>2026-03-26T08:24:24Z</time></trkpt><trkpt lat="39.06683489365274" lon="8.96778210659102"><ele>118.00000000000001</ele><time>2026-03-26T08:24:25Z</time></trkpt><trkpt lat="39.06686925897339" lon="8.967656090403885"><ele>118.0</ele><time>2026-03-26T08:24:26Z</time></trkpt><trkpt lat="39.06686987356196" lon="8.96750641790699"><ele>118.0</ele><time>2026-03-26T08:24:27Z</time></trkpt><trkpt lat="39.06688281727465" lon="8.96735137896715"><ele>115.25</ele><time>2026-03-26T08:24:28Z</time></trkpt><trkpt lat="39.066895043926266" lon="8.967184126056376"><ele>112.5</ele><time>2026-03-26T08:24:29Z</time></trkpt><trkpt lat="39.066919786592564" lon="8.967015209843682"><ele>109.75</ele><time>2026-03-26T08:24:30Z</time></trkpt><trkpt lat="39.06693169343301" lon="8.966859249713618"><ele>107.0</ele><time>2026-03-26T08:24:31Z</time></trkpt><trkpt lat="39.06694303007547" lon="8.966710758248754"><ele>108.75</ele><time>2026-03-26T08:24:32Z</time></trkpt><trkpt lat="39.06695431616043" lon="8.96656414734554"><ele>110.5</ele><time>2026-03-26T08:24:33Z</time></trkpt><trkpt lat="39.066966094906014" lon="8.966412061744423"><ele>112.25</ele><time>2026-03-26T08:24:34Z</time></trkpt><trkpt lat="39.06696167259567" lon="8.966254987802724"><ele>114.0</ele><time>2026-03-26T08:24:35Z</time></trkpt><trkpt lat="39.066974381132475" lon="8.966096038884798"><ele>114.0</ele><time>2026-03-26T08:24:36Z</time></trkpt><trkpt lat="39.06698613746831" lon="8.965938194903952"><ele>114.0</ele><time>2026-03-26T08:24:37Z</time></trkpt><trkpt lat="39.06701497522525" lon="8.965780925523642"><ele>114.0</ele><time>2026-03-26T08:24:37.999Z</time></trkpt><trkpt lat="39.06701347101118" lon="8.965620777124093"><ele>114.0</ele><time>2026-03-26T08:24:38.999Z</time></trkpt><trkpt lat="39.06702464986068" lon="8.965468640473723"><ele>114.0</ele><time>2026-03-26T08:24:39.999Z</time></trkpt><trkpt lat="39.0670548501511" lon="8.965315267288629"><ele>114.0</ele><time>2026-03-26T08:24:40.999Z</time></trkpt><trkpt lat="39.067077815721795" lon="8.965162940410261"><ele>114.0</ele><time>2026-03-26T08:24:41.999Z</time></trkpt><trkpt lat="39.06710615719267" lon="8.965045706762652"><ele>114.0</ele><time>2026-03-26T08:24:42.999Z</time></trkpt><trkpt lat="39.06716373632942" lon="8.964956199686466"><ele>114.0</ele><time>2026-03-26T08:24:43.999Z</time></trkpt><trkpt lat="39.06723717692286" lon="8.964878877867855"><ele>112.80000000000001</ele><time>2026-03-26T08:24:44.999Z</time></trkpt><trkpt lat="39.06732250376653" lon="8.964815441877457"><ele>111.60000000000001</ele><time>2026-03-26T08:24:45.999Z</time></trkpt><trkpt lat="39.06741177118032" lon="8.96477791440892"><ele>110.4</ele><time>2026-03-26T08:24:46.999Z</time></trkpt><trkpt lat="39.067500230558544" lon="8.964773845182208"><ele>109.2</ele><time>2026-03-26T08:24:47.999Z</time></trkpt><trkpt lat="39.06757692113059" lon="8.96477854678782"><ele>108.0</ele><time>2026-03-26T08:24:48.999Z</time></trkpt><trkpt lat="39.06767165223198" lon="8.964792364227483"><ele>114.60000000000001</ele><time>2026-03-26T08:24:49.999Z</time></trkpt><trkpt lat="39.067768339537096" lon="8.96477068142013"><ele>121.20000000000002</ele><time>2026-03-26T08:24:50.999Z</time></trkpt><trkpt lat="39.067846146282385" lon="8.96472591605359"><ele>127.8</ele><time>2026-03-26T08:24:51.999Z</time></trkpt><trkpt lat="39.06790647861193" lon="8.964687633192353"><ele>134.4</ele><time>2026-03-26T08:24:52.999Z</time></trkpt><trkpt lat="39.06802178088952" lon="8.964613279432637"><ele>141.0</ele><time>2026-03-26T08:24:54.999Z</time></trkpt><trkpt lat="39.0680688002349" lon="8.964496605869217"><ele>141.0</ele><time>2026-03-26T08:24:55.999Z</time></trkpt><trkpt lat="39.06812698303566" lon="8.964421841185887"><ele>141.0</ele><time>2026-03-26T08:24:56.999Z</time></trkpt><trkpt lat="39.068179305942216" lon="8.964344643488392"><ele>141.0</ele><time>2026-03-26T08:24:57.999Z</time></trkpt><trkpt lat="39.06823604781113" lon="8.964245846948733"><ele>141.0</ele><time>2026-03-26T08:24:58.999Z</time></trkpt><trkpt lat="39.06828303111077" lon="8.964141594735503"><ele>141.0</ele><time>2026-03-26T08:24:59.999Z</time></trkpt><trkpt lat="39.068342681840804" lon="8.964055461043214"><ele>141.0</ele><time>2026-03-26T08:25:00.999Z</time></trkpt><trkpt lat="39.06840118583006" lon="8.963971685319631"><ele>140.0</ele><time>2026-03-26T08:25:01.999Z</time></trkpt><trkpt lat="39.06846046940785" lon="8.963874335909553"><ele>139.0</ele><time>2026-03-26T08:25:03Z</time></trkpt><trkpt lat="39.068529619661945" lon="8.96378258374212"><ele>138.0</ele><time>2026-03-26T08:25:04Z</time></trkpt><trkpt lat="39.06857880047329" lon="8.96367525726613"><ele>137.0</ele><time>2026-03-26T08:25:05Z</time></trkpt><trkpt lat="39.068622950906196" lon="8.963565938443248"><ele>136.0</ele><time>2026-03-26T08:25:06Z</time></trkpt><trkpt lat="39.06864668678836" lon="8.963445992212282"><ele>132.2</ele><time>2026-03-26T08:25:07Z</time></trkpt><trkpt lat="39.06869229927309" lon="8.96333657743315"><ele>128.39999999999998</ele><time>2026-03-26T08:25:08Z</time></trkpt><trkpt lat="39.068713657372655" lon="8.963211981902985"><ele>124.6</ele><time>2026-03-26T08:25:09Z</time></trkpt><trkpt lat="39.068693821982826" lon="8.963077211176588"><ele>120.8</ele><time>2026-03-26T08:25:10Z</time></trkpt><trkpt lat="39.06872396026347" lon="8.962948384786964"><ele>117.0</ele><time>2026-03-26T08:25:11Z</time></trkpt><trkpt lat="39.0687518901268" lon="8.962822443797915"><ele>117.0</ele><time>2026-03-26T08:25:12Z</time></trkpt><trkpt lat="39.068790903759286" lon="8.962682881894455"><ele>116.99999999999999</ele><time>2026-03-26T08:25:13Z</time></trkpt><trkpt lat="39.068862336384896" lon="8.96256832604507"><ele>116.99999999999999</ele><time>2026-03-26T08:25:14Z</time></trkpt><trkpt lat="39.06894588317424" lon="8.96247257723049"><ele>117.0</ele><time>2026-03-26T08:25:15Z</time></trkpt><trkpt lat="39.06904902998535" lon="8.962434041240446"><ele>117.0</ele><time>2026-03-26T08:25:16Z</time></trkpt><trkpt lat="39.06913960484562" lon="8.962420270670284"><ele>116.39999999999999</ele><time>2026-03-26T08:25:17Z</time></trkpt><trkpt lat="39.06921313396599" lon="8.962389227851268"><ele>115.79999999999998</ele><time>2026-03-26T08:25:18Z</time></trkpt><trkpt lat="39.06928180900107" lon="8.962344565403505"><ele>115.2</ele><time>2026-03-26T08:25:19Z</time></trkpt><trkpt lat="39.069340063976455" lon="8.962227216156087"><ele>114.6</ele><time>2026-03-26T08:25:20Z</time></trkpt><trkpt lat="39.06935889810909" lon="8.962076817780751"><ele>114.0</ele><time>2026-03-26T08:25:21Z</time></trkpt><trkpt lat="39.06933845709899" lon="8.961915280234852"><ele>114.0</ele><time>2026-03-26T08:25:22Z</time></trkpt><trkpt lat="39.06929032828136" lon="8.961764047179438"><ele>114.0</ele><time>2026-03-26T08:25:23Z</time></trkpt><trkpt lat="39.069239415127264" lon="8.961645607237932"><ele>114.0</ele><time>2026-03-26T08:25:24Z</time></trkpt><trkpt lat="39.06919828059201" lon="8.961548820119097"><ele>114.0</ele><time>2026-03-26T08:25:25Z</time></trkpt><trkpt lat="39.069161701938285" lon="8.961460823190539"><ele>114.0</ele><time>2026-03-26T08:25:26Z</time></trkpt><trkpt lat="39.06913100247011" lon="8.961380689631497"><ele>110.0</ele><time>2026-03-26T08:25:27Z</time></trkpt><trkpt lat="39.069092212963525" lon="8.96130227735207"><ele>106.0</ele><time>2026-03-26T08:25:28Z</time></trkpt><trkpt lat="39.06907332699774" lon="8.961216406251054"><ele>102.0</ele><time>2026-03-26T08:25:29Z</time></trkpt><trkpt lat="39.069036829584725" lon="8.961146518237822"><ele>98.0</ele><time>2026-03-26T08:25:30Z</time></trkpt><trkpt lat="39.068982741555686" lon="8.96109932156341"><ele>94.0</ele><time>2026-03-26T08:25:31Z</time></trkpt><trkpt lat="39.068884653553916" lon="8.961090107500429"><ele>90.0</ele><time>2026-03-26T08:25:32Z</time></trkpt><trkpt lat="39.06880200543691" lon="8.961147175231838"><ele>90.0</ele><time>2026-03-26T08:25:33Z</time></trkpt><trkpt lat="39.06875281707329" lon="8.961232516264012"><ele>90.0</ele><time>2026-03-26T08:25:34Z</time></trkpt><trkpt lat="39.06867926269257" lon="8.961298991843565"><ele>90.0</ele><time>2026-03-26T08:25:35Z</time></trkpt><trkpt lat="39.068613141681716" lon="8.96137133012095"><ele>90.0</ele><time>2026-03-26T08:25:36Z</time></trkpt><trkpt lat="39.06855099125497" lon="8.961422404521457"><ele>90.0</ele><time>2026-03-26T08:25:37Z</time></trkpt><trkpt lat="39.068484847247916" lon="8.96146384812106"><ele>90.0</ele><time>2026-03-26T08:25:38Z</time></trkpt><trkpt lat="39.06843012533703" lon="8.96152064110265"><ele>90.0</ele><time>2026-03-26T08:25:39Z</time></trkpt><trkpt lat="39.06834235157028" lon="8.96158406623772"><ele>90.0</ele><time>2026-03-26T08:25:41Z</time></trkpt><trkpt lat="39.06824599642151" lon="8.961411912976503"><ele>90.0</ele><time>2026-03-26T08:25:43Z</time></trkpt><trkpt lat="39.06822791158506" lon="8.961317415558261"><ele>90.0</ele><time>2026-03-26T08:25:44Z</time></trkpt><trkpt lat="39.06822255595608" lon="8.96119954736561"><ele>90.0</ele><time>2026-03-26T08:25:45Z</time></trkpt><trkpt lat="39.06823943709897" lon="8.961053991694667"><ele>88.5</ele><time>2026-03-26T08:25:46Z</time></trkpt><trkpt lat="39.068263160207366" lon="8.960900662120421"><ele>87.0</ele><time>2026-03-26T08:25:47Z</time></trkpt><trkpt lat="39.06825033875845" lon="8.960723960578648"><ele>85.5</ele><time>2026-03-26T08:25:48Z</time></trkpt><trkpt lat="39.068285539367885" lon="8.960567213192101"><ele>84.0</ele><time>2026-03-26T08:25:49Z</time></trkpt><trkpt lat="39.06831360377543" lon="8.960431117901994"><ele>84.0</ele><time>2026-03-26T08:25:50Z</time></trkpt><trkpt lat="39.068336730762944" lon="8.960297465106363"><ele>84.0</ele><time>2026-03-26T08:25:51Z</time></trkpt><trkpt lat="39.0683565275488" lon="8.960157047070567"><ele>84.0</ele><time>2026-03-26T08:25:52Z</time></trkpt><trkpt lat="39.0683841827952" lon="8.9600110828044"><ele>84.0</ele><time>2026-03-26T08:25:53Z</time></trkpt><trkpt lat="39.06838082335809" lon="8.959859015229666"><ele>83.6</ele><time>2026-03-26T08:25:54Z</time></trkpt><trkpt lat="39.06837147588605" lon="8.959725853525999"><ele>83.2</ele><time>2026-03-26T08:25:55Z</time></trkpt><trkpt lat="39.06835822341689" lon="8.959595929279374"><ele>82.8</ele><time>2026-03-26T08:25:56Z</time></trkpt><trkpt lat="39.06836017918395" lon="8.959466928266515"><ele>82.39999999999999</ele><time>2026-03-26T08:25:57Z</time></trkpt><trkpt lat="39.06835996390867" lon="8.959348913710553"><ele>82.0</ele><time>2026-03-26T08:25:58Z</time></trkpt><trkpt lat="39.06836600055603" lon="8.95922424956457"><ele>81.75</ele><time>2026-03-26T08:25:59Z</time></trkpt><trkpt lat="39.06837893472522" lon="8.959083658596276"><ele>81.5</ele><time>2026-03-26T08:26:00Z</time></trkpt><trkpt lat="39.06840992431149" lon="8.958928773735966"><ele>81.25</ele><time>2026-03-26T08:26:01Z</time></trkpt><trkpt lat="39.068439289837016" lon="8.958768524171164"><ele>81.0</ele><time>2026-03-26T08:26:02Z</time></trkpt><trkpt lat="39.06845278282236" lon="8.958612612763247"><ele>81.0</ele><time>2026-03-26T08:26:03Z</time></trkpt><trkpt lat="39.06843862229256" lon="8.958447186994798"><ele>81.0</ele><time>2026-03-26T08:26:04Z</time></trkpt><trkpt lat="39.06840993871585" lon="8.958306229254188"><ele>81.0</ele><time>2026-03-26T08:26:05Z</time></trkpt><trkpt lat="39.06837984700273" lon="8.95819651396296"><ele>81.0</ele><time>2026-03-26T08:26:06Z</time></trkpt><trkpt lat="39.06836846268082" lon="8.958088261732598"><ele>81.0</ele><time>2026-03-26T08:26:07Z</time></trkpt><trkpt lat="39.06835362230054" lon="8.957985295097453"><ele>81.16666666666667</ele><time>2026-03-26T08:26:08Z</time></trkpt><trkpt lat="39.0683672268699" lon="8.957875912475588"><ele>81.33333333333333</ele><time>2026-03-26T08:26:09Z</time></trkpt><trkpt lat="39.06838863166056" lon="8.957758922641604"><ele>81.5</ele><time>2026-03-26T08:26:10Z</time></trkpt><trkpt lat="39.06840975317166" lon="8.957649507252684"><ele>81.66666666666666</ele><time>2026-03-26T08:26:11Z</time></trkpt><trkpt lat="39.06842408606302" lon="8.957550854744179"><ele>81.83333333333333</ele><time>2026-03-26T08:26:12Z</time></trkpt><trkpt lat="39.06844489490213" lon="8.957460597712945"><ele>82.0</ele><time>2026-03-26T08:26:13Z</time></trkpt><trkpt lat="39.068476779670696" lon="8.957370296759356"><ele>82.39999999999999</ele><time>2026-03-26T08:26:14Z</time></trkpt><trkpt lat="39.06852499087032" lon="8.95727948456346"><ele>82.8</ele><time>2026-03-26T08:26:15Z</time></trkpt><trkpt lat="39.06859098699715" lon="8.957180291513229"><ele>83.2</ele><time>2026-03-26T08:26:16Z</time></trkpt><trkpt lat="39.068691136704295" lon="8.957114694047407"><ele>83.6</ele><time>2026-03-26T08:26:17Z</time></trkpt><trkpt lat="39.068791366462754" lon="8.957048031086456"><ele>84.0</ele><time>2026-03-26T08:26:18Z</time></trkpt><trkpt lat="39.06886345000898" lon="8.956967813456206"><ele>84.0</ele><time>2026-03-26T08:26:19Z</time></trkpt><trkpt lat="39.068926027874255" lon="8.956895289548743"><ele>84.0</ele><time>2026-03-26T08:26:20Z</time></trkpt><trkpt lat="39.0689789835964" lon="8.95682848665108"><ele>84.0</ele><time>2026-03-26T08:26:21Z</time></trkpt><trkpt lat="39.0690469404362" lon="8.956773607243047"><ele>84.0</ele><time>2026-03-26T08:26:22Z</time></trkpt><trkpt lat="39.06912951075965" lon="8.956713637447226"><ele>84.0</ele><time>2026-03-26T08:26:23Z</time></trkpt><trkpt lat="39.06922963014016" lon="8.956630570904665"><ele>84.80000000000001</ele><time>2026-03-26T08:26:24Z</time></trkpt><trkpt lat="39.069355366551214" lon="8.956566708670978"><ele>85.60000000000001</ele><time>2026-03-26T08:26:25Z</time></trkpt><trkpt lat="39.06944649236617" lon="8.956531177099041"><ele>86.4</ele><time>2026-03-26T08:26:26Z</time></trkpt><trkpt lat="39.06951970420267" lon="8.956503797599806"><ele>87.2</ele><time>2026-03-26T08:26:27Z</time></trkpt><trkpt lat="39.06962090640768" lon="8.956494063056212"><ele>88.0</ele><time>2026-03-26T08:26:28Z</time></trkpt><trkpt lat="39.06972395569254" lon="8.956495311708931"><ele>88.0</ele><time>2026-03-26T08:26:29Z</time></trkpt><trkpt lat="39.069808916655035" lon="8.956525741101835"><ele>88.0</ele><time>2026-03-26T08:26:30Z</time></trkpt><trkpt lat="39.06989505944828" lon="8.95656040290906"><ele>88.0</ele><time>2026-03-26T08:26:31Z</time></trkpt><trkpt lat="39.06999052573036" lon="8.956609818227417"><ele>88.0</ele><time>2026-03-26T08:26:32Z</time></trkpt><trkpt lat="39.07009015674399" lon="8.956669825725536"><ele>88.0</ele><time>2026-03-26T08:26:33Z</time></trkpt><trkpt lat="39.070197444802545" lon="8.956728577795731"><ele>87.66666666666666</ele><time>2026-03-26T08:26:34Z</time></trkpt><trkpt lat="39.070309407766" lon="8.956756936225423"><ele>87.33333333333333</ele><time>2026-03-26T08:26:35Z</time></trkpt><trkpt lat="39.07042748573244" lon="8.956800404093574"><ele>87.0</ele><time>2026-03-26T08:26:36Z</time></trkpt><trkpt lat="39.070736451771914" lon="8.956576425592203"><ele>87.25</ele><time>2026-03-26T08:26:37Z</time></trkpt><trkpt lat="39.07081907214987" lon="8.95664412532298"><ele>87.5</ele><time>2026-03-26T08:26:38Z</time></trkpt><trkpt lat="39.07092865070935" lon="8.956717134198549"><ele>87.75</ele><time>2026-03-26T08:26:39Z</time></trkpt><trkpt lat="39.07102873991063" lon="8.956765126338967"><ele>88.0</ele><time>2026-03-26T08:26:40Z</time></trkpt><trkpt lat="39.07120494333632" lon="8.95685490764858"><ele>88.0</ele><time>2026-03-26T08:26:41Z</time></trkpt><trkpt lat="39.07133990773589" lon="8.956935066516001"><ele>88.0</ele><time>2026-03-26T08:26:42Z</time></trkpt><trkpt lat="39.07146361206854" lon="8.957012014498284"><ele>88.0</ele><time>2026-03-26T08:26:43Z</time></trkpt><trkpt lat="39.07157962993284" lon="8.957086353195818"><ele>88.0</ele><time>2026-03-26T08:26:44Z</time></trkpt><trkpt lat="39.071661754978365" lon="8.957137789985474"><ele>88.0</ele><time>2026-03-26T08:26:45Z</time></trkpt><trkpt lat="39.07175696574428" lon="8.957186767011034"><ele>88.0</ele><time>2026-03-26T08:26:46Z</time></trkpt><trkpt lat="39.07186783894228" lon="8.957239939527035"><ele>88.0</ele><time>2026-03-26T08:26:47.999Z</time></trkpt><trkpt lat="39.07193560410244" lon="8.957265677480658"><ele>88.0</ele><time>2026-03-26T08:26:49.999Z</time></trkpt><trkpt lat="39.07204731560167" lon="8.957290884892023"><ele>88.0</ele><time>2026-03-26T08:26:52.999Z</time></trkpt><trkpt lat="39.072150859787634" lon="8.957305701767709"><ele>88.0</ele><time>2026-03-26T08:26:54.999Z</time></trkpt><trkpt lat="39.07222828219274" lon="8.957284043081462"><ele>88.0</ele><time>2026-03-26T08:26:55.999Z</time></trkpt><trkpt lat="39.07229872189853" lon="8.957262457542553"><ele>88.0</ele><time>2026-03-26T08:26:56.999Z</time></trkpt><trkpt lat="39.07238219819649" lon="8.957234027411866"><ele>88.0</ele><time>2026-03-26T08:26:57.999Z</time></trkpt><trkpt lat="39.07246453985231" lon="8.957196716132907"><ele>88.0</ele><time>2026-03-26T08:26:58.999Z</time></trkpt><trkpt lat="39.072550027014124" lon="8.957155975537384"><ele>88.0</ele><time>2026-03-26T08:26:59.999Z</time></trkpt><trkpt lat="39.07263442850223" lon="8.957112012258644"><ele>88.4</ele><time>2026-03-26T08:27:00.999Z</time></trkpt><trkpt lat="39.07273460674874" lon="8.956974983632074"><ele>88.80000000000001</ele><time>2026-03-26T08:27:03.999Z</time></trkpt><trkpt lat="39.07277267924434" lon="8.956897111304023"><ele>89.2</ele><time>2026-03-26T08:27:04.999Z</time></trkpt><trkpt lat="39.07281369819378" lon="8.956760901855027"><ele>89.6</ele><time>2026-03-26T08:27:06.999Z</time></trkpt><trkpt lat="39.072867788973966" lon="8.956664932873311"><ele>90.0</ele><time>2026-03-26T08:27:07.999Z</time></trkpt><trkpt lat="39.07291810786274" lon="8.956575122352719"><ele>91.2</ele><time>2026-03-26T08:27:09Z</time></trkpt><trkpt lat="39.07295977436205" lon="8.956477667130669"><ele>92.4</ele><time>2026-03-26T08:27:11Z</time></trkpt><trkpt lat="39.07299862318585" lon="8.95636296717705"><ele>93.6</ele><time>2026-03-26T08:27:12Z</time></trkpt><trkpt lat="39.07306035513936" lon="8.956186786820066"><ele>94.8</ele><time>2026-03-26T08:27:13Z</time></trkpt><trkpt lat="39.07310898861225" lon="8.956057436831047"><ele>96.0</ele><time>2026-03-26T08:27:14Z</time></trkpt><trkpt lat="39.07314230731563" lon="8.955971098551688"><ele>96.0</ele><time>2026-03-26T08:27:15Z</time></trkpt><trkpt lat="39.07316999852179" lon="8.955897193481315"><ele>96.0</ele><time>2026-03-26T08:27:16Z</time></trkpt><trkpt lat="39.073261575759524" lon="8.955877907985275"><ele>96.0</ele><time>2026-03-26T08:27:18Z</time></trkpt><trkpt lat="39.0732599448231" lon="8.955770593363727"><ele>96.0</ele><time>2026-03-26T08:27:19Z</time></trkpt><trkpt lat="39.073272888111894" lon="8.95567246550258"><ele>96.0</ele><time>2026-03-26T08:27:20Z</time></trkpt><trkpt lat="39.073262867745214" lon="8.95556670102577"><ele>96.0</ele><time>2026-03-26T08:27:21Z</time></trkpt><trkpt lat="39.07325029462097" lon="8.95546445721257"><ele>98.16666666666667</ele><time>2026-03-26T08:27:22Z</time></trkpt><trkpt lat="39.07323789327072" lon="8.955378320558106"><ele>100.33333333333334</ele><time>2026-03-26T08:27:23Z</time></trkpt><trkpt lat="39.073210259699046" lon="8.955247868559658"><ele>102.5</ele><time>2026-03-26T08:27:25Z</time></trkpt><trkpt lat="39.07321829641207" lon="8.95515571458708"><ele>104.66666666666667</ele><time>2026-03-26T08:27:27Z</time></trkpt><trkpt lat="39.07321372837359" lon="8.955039517214372"><ele>106.83333333333334</ele><time>2026-03-26T08:27:29Z</time></trkpt><trkpt lat="39.07320976767182" lon="8.954938768652896"><ele>109.0</ele><time>2026-03-26T08:27:31Z</time></trkpt><trkpt lat="39.07320457042195" lon="8.95481473815903"><ele>109.6</ele><time>2026-03-26T08:27:33Z</time></trkpt><trkpt lat="39.07320168202123" lon="8.954697786325502"><ele>110.2</ele><time>2026-03-26T08:27:35Z</time></trkpt><trkpt lat="39.073199188795456" lon="8.954601488070681"><ele>110.79999999999998</ele><time>2026-03-26T08:27:37Z</time></trkpt><trkpt lat="39.07315948729226" lon="8.954467775962641"><ele>111.39999999999999</ele><time>2026-03-26T08:27:39Z</time></trkpt><trkpt lat="39.073100766447304" lon="8.954426342078891"><ele>112.0</ele><time>2026-03-26T08:27:40Z</time></trkpt><trkpt lat="39.07299361804239" lon="8.95436971053186"><ele>112.00000000000001</ele><time>2026-03-26T08:27:42Z</time></trkpt><trkpt lat="39.07292412556193" lon="8.954320870793104"><ele>112.0</ele><time>2026-03-26T08:27:43Z</time></trkpt><trkpt lat="39.07286367355296" lon="8.954233376716388"><ele>112.0</ele><time>2026-03-26T08:27:44Z</time></trkpt><trkpt lat="39.07281856637668" lon="8.954140447527182"><ele>112.0</ele><time>2026-03-26T08:27:45Z</time></trkpt><trkpt lat="39.07276504074918" lon="8.954037862521572"><ele>112.00000000000001</ele><time>2026-03-26T08:27:46Z</time></trkpt><trkpt lat="39.07271990954944" lon="8.95393762621342"><ele>112.0</ele><time>2026-03-26T08:27:47Z</time></trkpt><trkpt lat="39.07268212026982" lon="8.953833637700324"><ele>109.8</ele><time>2026-03-26T08:27:48Z</time></trkpt><trkpt lat="39.07265558296055" lon="8.953724582061062"><ele>107.6</ele><time>2026-03-26T08:27:49Z</time></trkpt><trkpt lat="39.07263325396853" lon="8.953615188339585"><ele>105.39999999999999</ele><time>2026-03-26T08:27:50Z</time></trkpt><trkpt lat="39.07261648748124" lon="8.953499055052065"><ele>103.19999999999999</ele><time>2026-03-26T08:27:51Z</time></trkpt><trkpt lat="39.07261376390619" lon="8.953405224298008"><ele>101.0</ele><time>2026-03-26T08:27:52Z</time></trkpt><trkpt lat="39.07262450420473" lon="8.953249843271822"><ele>100.28571428571428</ele><time>2026-03-26T08:27:54Z</time></trkpt><trkpt lat="39.072642298928" lon="8.953168251363246"><ele>99.57142857142857</ele><time>2026-03-26T08:27:55Z</time></trkpt><trkpt lat="39.0726652101076" lon="8.953087473502666"><ele>98.85714285714286</ele><time>2026-03-26T08:27:56Z</time></trkpt><trkpt lat="39.07269741376703" lon="8.95300324622524"><ele>98.14285714285714</ele><time>2026-03-26T08:27:57Z</time></trkpt><trkpt lat="39.07273795983181" lon="8.952916262682994"><ele>97.42857142857143</ele><time>2026-03-26T08:27:58Z</time></trkpt><trkpt lat="39.072782535446514" lon="8.95283100658105"><ele>96.71428571428571</ele><time>2026-03-26T08:27:59Z</time></trkpt><trkpt lat="39.07283159199103" lon="8.952742300583704"><ele>96.0</ele><time>2026-03-26T08:28:00Z</time></trkpt><trkpt lat="39.072886873099876" lon="8.952655788751121"><ele>96.0</ele><time>2026-03-26T08:28:01Z</time></trkpt><trkpt lat="39.07294942537163" lon="8.952576875362997"><ele>96.0</ele><time>2026-03-26T08:28:02Z</time></trkpt><trkpt lat="39.0730174949573" lon="8.95250599747837"><ele>96.0</ele><time>2026-03-26T08:28:03Z</time></trkpt><trkpt lat="39.07308698745486" lon="8.95243768681562"><ele>96.0</ele><time>2026-03-26T08:28:04Z</time></trkpt><trkpt lat="39.073151074810866" lon="8.952380274607117"><ele>96.0</ele><time>2026-03-26T08:28:05Z</time></trkpt><trkpt lat="39.07326112066373" lon="8.952295850975592"><ele>96.28571428571428</ele><time>2026-03-26T08:28:07Z</time></trkpt><trkpt lat="39.07332532021259" lon="8.952264448703346"><ele>96.57142857142857</ele><time>2026-03-26T08:28:08Z</time></trkpt><trkpt lat="39.07338915555408" lon="8.952246335303414"><ele>96.85714285714286</ele><time>2026-03-26T08:28:09Z</time></trkpt><trkpt lat="39.073453880363736" lon="8.952243330784267"><ele>97.14285714285714</ele><time>2026-03-26T08:28:10Z</time></trkpt><trkpt lat="39.07351787316324" lon="8.95223926910776"><ele>97.42857142857143</ele><time>2026-03-26T08:28:11Z</time></trkpt><trkpt lat="39.07358560971065" lon="8.952239890454857"><ele>97.71428571428571</ele><time>2026-03-26T08:28:12Z</time></trkpt><trkpt lat="39.07369150967285" lon="8.95224817333407"><ele>98.0</ele><time>2026-03-26T08:28:14Z</time></trkpt><trkpt lat="39.07379182545781" lon="8.95224715779656"><ele>98.0</ele><time>2026-03-26T08:28:16Z</time></trkpt><trkpt lat="39.073833792486106" lon="8.952164488673924"><ele>98.0</ele><time>2026-03-26T08:28:17Z</time></trkpt><trkpt lat="39.07383538765926" lon="8.952065841929452"><ele>98.0</ele><time>2026-03-26T08:28:18Z</time></trkpt><trkpt lat="39.07381553310603" lon="8.951940875224858"><ele>98.0</ele><time>2026-03-26T08:28:20Z</time></trkpt><trkpt lat="39.073722927239196" lon="8.951800853309637"><ele>98.0</ele><time>2026-03-26T08:28:22Z</time></trkpt><trkpt lat="39.07365590094691" lon="8.951717588754066"><ele>98.2</ele><time>2026-03-26T08:28:23Z</time></trkpt><trkpt lat="39.073588576844344" lon="8.951636168725946"><ele>98.4</ele><time>2026-03-26T08:28:24Z</time></trkpt><trkpt lat="39.07354570734204" lon="8.951524660420237"><ele>98.60000000000001</ele><time>2026-03-26T08:28:25Z</time></trkpt><trkpt lat="39.07352081433307" lon="8.951422036247022"><ele>98.80000000000001</ele><time>2026-03-26T08:28:26Z</time></trkpt><trkpt lat="39.07350637993642" lon="8.95131502537108"><ele>99.0</ele><time>2026-03-26T08:28:27Z</time></trkpt><trkpt lat="39.07349601457565" lon="8.95119110634277"><ele>99.0</ele><time>2026-03-26T08:28:28Z</time></trkpt><trkpt lat="39.07347114962153" lon="8.951055708018087"><ele>99.0</ele><time>2026-03-26T08:28:29Z</time></trkpt><trkpt lat="39.07346110455786" lon="8.950913002677083"><ele>99.0</ele><time>2026-03-26T08:28:30Z</time></trkpt><trkpt lat="39.07344948811586" lon="8.950746911606434"><ele>99.0</ele><time>2026-03-26T08:28:31Z</time></trkpt><trkpt lat="39.07343470875697" lon="8.950589637655535"><ele>100.6</ele><time>2026-03-26T08:28:32Z</time></trkpt><trkpt lat="39.073420329702095" lon="8.950451271303923"><ele>102.2</ele><time>2026-03-26T08:28:33Z</time></trkpt><trkpt lat="39.07339911465111" lon="8.950323469538832"><ele>103.79999999999998</ele><time>2026-03-26T08:28:34Z</time></trkpt><trkpt lat="39.073364984812116" lon="8.950204576415631"><ele>105.39999999999999</ele><time>2026-03-26T08:28:35Z</time></trkpt><trkpt lat="39.07332017977902" lon="8.950093209984313"><ele>107.0</ele><time>2026-03-26T08:28:36Z</time></trkpt><trkpt lat="39.073293736193136" lon="8.95000457507372"><ele>106.99999999999999</ele><time>2026-03-26T08:28:37Z</time></trkpt><trkpt lat="39.07327855687782" lon="8.949906338534396"><ele>107.0</ele><time>2026-03-26T08:28:39Z</time></trkpt><trkpt lat="39.073374411707185" lon="8.949889503202765"><ele>107.0</ele><time>2026-03-26T08:28:42Z</time></trkpt><trkpt lat="39.07339500289049" lon="8.949984806790054"><ele>107.0</ele><time>2026-03-26T08:28:43Z</time></trkpt><trkpt lat="39.07342168942396" lon="8.950068727490837"><ele>106.99999999999999</ele><time>2026-03-26T08:28:44Z</time></trkpt><trkpt lat="39.073500674390495" lon="8.950149916133297"><ele>107.0</ele><time>2026-03-26T08:28:45Z</time></trkpt><trkpt lat="39.07357040088323" lon="8.950253045529422"><ele>107.0</ele><time>2026-03-26T08:28:46Z</time></trkpt><trkpt lat="39.07364146518727" lon="8.95036571883244"><ele>106.99999999999999</ele><time>2026-03-26T08:28:47Z</time></trkpt><trkpt lat="39.073695573786786" lon="8.950459865336368"><ele>106.99999999999999</ele><time>2026-03-26T08:28:48Z</time></trkpt><trkpt lat="39.07375617886116" lon="8.950556661086166"><ele>107.0</ele><time>2026-03-26T08:28:50Z</time></trkpt><trkpt lat="39.07382738832102" lon="8.950516157101458"><ele>107.0</ele><time>2026-03-26T08:28:52Z</time></trkpt><trkpt lat="39.0738270808455" lon="8.950386802371426"><ele>107.0</ele><time>2026-03-26T08:28:54Z</time></trkpt><trkpt lat="39.07378732001612" lon="8.950305722065616"><ele>106.99999999999999</ele><time>2026-03-26T08:28:55Z</time></trkpt><trkpt lat="39.073743168849504" lon="8.95021487181625"><ele>106.99999999999999</ele><time>2026-03-26T08:28:56Z</time></trkpt><trkpt lat="39.073700612458104" lon="8.950104786208085"><ele>107.0</ele><time>2026-03-26T08:28:57Z</time></trkpt><trkpt lat="39.07365524288529" lon="8.949976471887371"><ele>107.0</ele><time>2026-03-26T08:28:58Z</time></trkpt><trkpt lat="39.073625661984565" lon="8.949843694648402"><ele>109.19999999999999</ele><time>2026-03-26T08:28:59Z</time></trkpt><trkpt lat="39.07358452755509" lon="8.949719806030846"><ele>111.39999999999999</ele><time>2026-03-26T08:29:00Z</time></trkpt><trkpt lat="39.07354775822386" lon="8.949595602898983"><ele>113.60000000000001</ele><time>2026-03-26T08:29:01Z</time></trkpt><trkpt lat="39.073519105699695" lon="8.949491613940701"><ele>115.80000000000001</ele><time>2026-03-26T08:29:02Z</time></trkpt><trkpt lat="39.07349905661585" lon="8.949408080607764"><ele>118.0</ele><time>2026-03-26T08:29:03Z</time></trkpt><trkpt lat="39.07351171188432" lon="8.949281154984538"><ele>118.80000000000001</ele><time>2026-03-26T08:29:04.999Z</time></trkpt><trkpt lat="39.07362185155616" lon="8.949179067867492"><ele>119.60000000000001</ele><time>2026-03-26T08:29:06.999Z</time></trkpt><trkpt lat="39.0736938635743" lon="8.94911375130105"><ele>120.39999999999999</ele><time>2026-03-26T08:29:07.999Z</time></trkpt><trkpt lat="39.07376951857564" lon="8.949040471157463"><ele>121.19999999999999</ele><time>2026-03-26T08:29:08.999Z</time></trkpt><trkpt lat="39.07383667615578" lon="8.948938592276845"><ele>122.0</ele><time>2026-03-26T08:29:09.999Z</time></trkpt><trkpt lat="39.0738798780411" lon="8.94880769741432"><ele>122.0</ele><time>2026-03-26T08:29:10.999Z</time></trkpt><trkpt lat="39.07390190952049" lon="8.948672344135128"><ele>121.99999999999999</ele><time>2026-03-26T08:29:11.999Z</time></trkpt><trkpt lat="39.07393557867543" lon="8.948540458731308"><ele>121.99999999999999</ele><time>2026-03-26T08:29:12.999Z</time></trkpt><trkpt lat="39.073979187421365" lon="8.948430788042046"><ele>122.0</ele><time>2026-03-26T08:29:14Z</time></trkpt><trkpt lat="39.07400509878053" lon="8.9483304093373"><ele>122.0</ele><time>2026-03-26T08:29:15Z</time></trkpt><trkpt lat="39.07401976327943" lon="8.948226081770182"><ele>119.8</ele><time>2026-03-26T08:29:16Z</time></trkpt><trkpt lat="39.07405289306737" lon="8.948124996415189"><ele>117.6</ele><time>2026-03-26T08:29:17Z</time></trkpt><trkpt lat="39.07407767078874" lon="8.948011216290288"><ele>115.39999999999999</ele><time>2026-03-26T08:29:18Z</time></trkpt><trkpt lat="39.07413227664523" lon="8.947913232951999"><ele>113.19999999999999</ele><time>2026-03-26T08:29:19Z</time></trkpt><trkpt lat="39.074187557410504" lon="8.947825009218935"><ele>111.0</ele><time>2026-03-26T08:29:20Z</time></trkpt><trkpt lat="39.074251681003354" lon="8.947718664986608"><ele>115.4</ele><time>2026-03-26T08:29:21Z</time></trkpt><trkpt lat="39.07431523464839" lon="8.947612216473278"><ele>119.8</ele><time>2026-03-26T08:29:22Z</time></trkpt><trkpt lat="39.07438180462958" lon="8.947497695204127"><ele>124.20000000000002</ele><time>2026-03-26T08:29:23Z</time></trkpt><trkpt lat="39.07443896476408" lon="8.947382761459602"><ele>128.6</ele><time>2026-03-26T08:29:24Z</time></trkpt><trkpt lat="39.07449069061457" lon="8.947274035208979"><ele>133.0</ele><time>2026-03-26T08:29:25Z</time></trkpt><trkpt lat="39.07455025584144" lon="8.947174711126612"><ele>133.0</ele><time>2026-03-26T08:29:26Z</time></trkpt><trkpt lat="39.07460450096533" lon="8.94708704768798"><ele>133.0</ele><time>2026-03-26T08:29:27Z</time></trkpt><trkpt lat="39.07465312052004" lon="8.947016470934383"><ele>133.0</ele><time>2026-03-26T08:29:28Z</time></trkpt><trkpt lat="39.07470337867756" lon="8.946959177197485"><ele>133.0</ele><time>2026-03-26T08:29:29Z</time></trkpt><trkpt lat="39.07476186250879" lon="8.946909319411562"><ele>133.0</ele><time>2026-03-26T08:29:30Z</time></trkpt><trkpt lat="39.07483799137886" lon="8.946858399622633"><ele>133.0</ele><time>2026-03-26T08:29:31Z</time></trkpt><trkpt lat="39.07492607186394" lon="8.946808123322906"><ele>133.8</ele><time>2026-03-26T08:29:32Z</time></trkpt><trkpt lat="39.07501679227333" lon="8.946748670440876"><ele>134.60000000000002</ele><time>2026-03-26T08:29:33Z</time></trkpt><trkpt lat="39.07510687221358" lon="8.946716729810815"><ele>135.39999999999998</ele><time>2026-03-26T08:29:34Z</time></trkpt><trkpt lat="39.075186546829265" lon="8.94668090239666"><ele>136.2</ele><time>2026-03-26T08:29:35Z</time></trkpt><trkpt lat="39.0752591738495" lon="8.94662172253742"><ele>137.0</ele><time>2026-03-26T08:29:36Z</time></trkpt><trkpt lat="39.075315936777024" lon="8.946532626723949"><ele>137.0</ele><time>2026-03-26T08:29:36.999Z</time></trkpt><trkpt lat="39.07534448414387" lon="8.94643656244503"><ele>137.0</ele><time>2026-03-26T08:29:37.999Z</time></trkpt><trkpt lat="39.0753528028155" lon="8.946333594984784"><ele>137.0</ele><time>2026-03-26T08:29:38.999Z</time></trkpt><trkpt lat="39.07536000307465" lon="8.946219454559458"><ele>137.0</ele><time>2026-03-26T08:29:39.999Z</time></trkpt><trkpt lat="39.07537873942392" lon="8.946099650742145"><ele>137.0</ele><time>2026-03-26T08:29:40.999Z</time></trkpt><trkpt lat="39.07540411569239" lon="8.945979718009806"><ele>137.0</ele><time>2026-03-26T08:29:41.999Z</time></trkpt><trkpt lat="39.07542935912427" lon="8.945861980122235"><ele>135.0</ele><time>2026-03-26T08:29:42.999Z</time></trkpt><trkpt lat="39.07545419793318" lon="8.945746429697893"><ele>133.0</ele><time>2026-03-26T08:29:43.999Z</time></trkpt><trkpt lat="39.07547628468648" lon="8.945646930346768"><ele>131.0</ele><time>2026-03-26T08:29:44.999Z</time></trkpt><trkpt lat="39.07548095083242" lon="8.945554085675445"><ele>129.0</ele><time>2026-03-26T08:29:45.999Z</time></trkpt><trkpt lat="39.075452992633785" lon="8.945462839674969"><ele>126.99999999999999</ele><time>2026-03-26T08:29:46.999Z</time></trkpt><trkpt lat="39.07540368669459" lon="8.945360017363546"><ele>125.0</ele><time>2026-03-26T08:29:47.999Z</time></trkpt><trkpt lat="39.07537504881754" lon="8.945245691005479"><ele>125.0</ele><time>2026-03-26T08:29:48.999Z</time></trkpt><trkpt lat="39.07539108012447" lon="8.945102302218052"><ele>125.0</ele><time>2026-03-26T08:29:49.999Z</time></trkpt><trkpt lat="39.07537515971259" lon="8.944963447935418"><ele>125.0</ele><time>2026-03-26T08:29:50.999Z</time></trkpt><trkpt lat="39.075382662465074" lon="8.94483555389629"><ele>125.0</ele><time>2026-03-26T08:29:51.999Z</time></trkpt><trkpt lat="39.075380680495456" lon="8.944719238004259"><ele>125.0</ele><time>2026-03-26T08:29:52.999Z</time></trkpt><trkpt lat="39.07537306145523" lon="8.944599016238818"><ele>125.14285714285714</ele><time>2026-03-26T08:29:53.999Z</time></trkpt><trkpt lat="39.07537155097188" lon="8.94448844769486"><ele>125.28571428571429</ele><time>2026-03-26T08:29:54.999Z</time></trkpt><trkpt lat="39.075382805190074" lon="8.944401286940703"><ele>125.42857142857143</ele><time>2026-03-26T08:29:55.999Z</time></trkpt><trkpt lat="39.07540647823961" lon="8.944325331384293"><ele>125.57142857142857</ele><time>2026-03-26T08:29:56.999Z</time></trkpt><trkpt lat="39.07544894904907" lon="8.944253298338824"><ele>125.71428571428572</ele><time>2026-03-26T08:29:57.999Z</time></trkpt><trkpt lat="39.07550644944993" lon="8.944189468785071"><ele>125.85714285714286</ele><time>2026-03-26T08:29:58.999Z</time></trkpt><trkpt lat="39.07557752481535" lon="8.944135556571396"><ele>126.0</ele><time>2026-03-26T08:29:59.998Z</time></trkpt><trkpt lat="39.07565559870763" lon="8.944057387470652"><ele>126.0</ele><time>2026-03-26T08:30:00.998Z</time></trkpt><trkpt lat="39.07574040820106" lon="8.943939311810874"><ele>126.0</ele><time>2026-03-26T08:30:01.998Z</time></trkpt><trkpt lat="39.075834906030146" lon="8.943822265110802"><ele>126.0</ele><time>2026-03-26T08:30:02.998Z</time></trkpt><trkpt lat="39.07590356667208" lon="8.943702293561346"><ele>126.0</ele><time>2026-03-26T08:30:03.998Z</time></trkpt><trkpt lat="39.07597664978069" lon="8.943608080876622"><ele>127.33333333333333</ele><time>2026-03-26T08:30:04.998Z</time></trkpt><trkpt lat="39.07606039727853" lon="8.943537929219367"><ele>128.66666666666666</ele><time>2026-03-26T08:30:05.998Z</time></trkpt><trkpt lat="39.0761318493824" lon="8.943463994009598"><ele>130.0</ele><time>2026-03-26T08:30:06.998Z</time></trkpt><trkpt lat="39.07618570826189" lon="8.943390055758918"><ele>131.33333333333331</ele><time>2026-03-26T08:30:07.998Z</time></trkpt><trkpt lat="39.07621566528509" lon="8.943288443453566"><ele>132.66666666666666</ele><time>2026-03-26T08:30:08.998Z</time></trkpt><trkpt lat="39.07626357960187" lon="8.94319308659328"><ele>134.0</ele><time>2026-03-26T08:30:09.998Z</time></trkpt><trkpt lat="39.076259411611325" lon="8.943071262715907"><ele>134.0</ele><time>2026-03-26T08:30:10.998Z</time></trkpt><trkpt lat="39.07629535951314" lon="8.94297043228675"><ele>134.0</ele><time>2026-03-26T08:30:11.998Z</time></trkpt><trkpt lat="39.076330520660676" lon="8.94287469928927"><ele>134.0</ele><time>2026-03-26T08:30:12.998Z</time></trkpt><trkpt lat="39.076369783160224" lon="8.942768925112722"><ele>134.0</ele><time>2026-03-26T08:30:13.998Z</time></trkpt><trkpt lat="39.076404461946844" lon="8.942659653814683"><ele>134.0</ele><time>2026-03-26T08:30:14.998Z</time></trkpt><trkpt lat="39.07644878355336" lon="8.942556096033757"><ele>134.0</ele><time>2026-03-26T08:30:15.998Z</time></trkpt><trkpt lat="39.076544846095665" lon="8.942485432232724"><ele>137.0</ele><time>2026-03-26T08:30:16.998Z</time></trkpt><trkpt lat="39.07661042209346" lon="8.942391189918602"><ele>140.0</ele><time>2026-03-26T08:30:17.998Z</time></trkpt><trkpt lat="39.076657731102024" lon="8.942320804223671"><ele>143.0</ele><time>2026-03-26T08:30:18.998Z</time></trkpt><trkpt lat="39.07669861586843" lon="8.942239117623222"><ele>146.0</ele><time>2026-03-26T08:30:19.998Z</time></trkpt><trkpt lat="39.07671044210103" lon="8.942133136914006"><ele>149.0</ele><time>2026-03-26T08:30:20.998Z</time></trkpt><trkpt lat="39.0767072480868" lon="8.941988760756288"><ele>152.0</ele><time>2026-03-26T08:30:21.998Z</time></trkpt><trkpt lat="39.076718649950166" lon="8.941850525048157"><ele>152.0</ele><time>2026-03-26T08:30:22.998Z</time></trkpt><trkpt lat="39.07674317157581" lon="8.941740739741542"><ele>152.0</ele><time>2026-03-26T08:30:23.998Z</time></trkpt><trkpt lat="39.0767679690796" lon="8.941648601634606"><ele>152.0</ele><time>2026-03-26T08:30:24.998Z</time></trkpt><trkpt lat="39.07679987007619" lon="8.941562597539107"><ele>152.0</ele><time>2026-03-26T08:30:25.998Z</time></trkpt><trkpt lat="39.076834617045094" lon="8.941475751884868"><ele>152.0</ele><time>2026-03-26T08:30:26.998Z</time></trkpt><trkpt lat="39.07687876506527" lon="8.941396137925656"><ele>152.0</ele><time>2026-03-26T08:30:27.998Z</time></trkpt><trkpt lat="39.07693634713954" lon="8.941324363547828"><ele>149.2</ele><time>2026-03-26T08:30:28.998Z</time></trkpt><trkpt lat="39.07700349712992" lon="8.941268602217692"><ele>146.39999999999998</ele><time>2026-03-26T08:30:29.998Z</time></trkpt><trkpt lat="39.07708330541611" lon="8.94123073301942"><ele>143.60000000000002</ele><time>2026-03-26T08:30:30.998Z</time></trkpt><trkpt lat="39.07717986939995" lon="8.941206729136141"><ele>140.8</ele><time>2026-03-26T08:30:31.998Z</time></trkpt><trkpt lat="39.07728693307582" lon="8.941185519437115"><ele>138.0</ele><time>2026-03-26T08:30:32.998Z</time></trkpt><trkpt lat="39.077395138593396" lon="8.94115896368538"><ele>142.8</ele><time>2026-03-26T08:30:33.998Z</time></trkpt><trkpt lat="39.07750091459833" lon="8.941139359623515"><ele>147.60000000000002</ele><time>2026-03-26T08:30:34.998Z</time></trkpt><trkpt lat="39.077598805394196" lon="8.941129150539044"><ele>152.39999999999998</ele><time>2026-03-26T08:30:35.998Z</time></trkpt><trkpt lat="39.077686148957774" lon="8.941128730529268"><ele>157.2</ele><time>2026-03-26T08:30:36.998Z</time></trkpt><trkpt lat="39.07776503843911" lon="8.941154486655744"><ele>162.0</ele><time>2026-03-26T08:30:37.998Z</time></trkpt><trkpt lat="39.07782776929643" lon="8.941209690688934"><ele>162.0</ele><time>2026-03-26T08:30:38.998Z</time></trkpt><trkpt lat="39.07788006612476" lon="8.94125505661549"><ele>162.0</ele><time>2026-03-26T08:30:39.998Z</time></trkpt><trkpt lat="39.077999636957635" lon="8.941289027662904"><ele>162.0</ele><time>2026-03-26T08:30:41.998Z</time></trkpt><trkpt lat="39.078077068684514" lon="8.94127882899764"><ele>162.0</ele><time>2026-03-26T08:30:42.998Z</time></trkpt><trkpt lat="39.07815675847603" lon="8.941250640273404"><ele>162.0</ele><time>2026-03-26T08:30:43.998Z</time></trkpt><trkpt lat="39.07824112117364" lon="8.941204738057294"><ele>162.0</ele><time>2026-03-26T08:30:44.998Z</time></trkpt><trkpt lat="39.07833426358127" lon="8.94116520132676"><ele>162.39999999999998</ele><time>2026-03-26T08:30:45.998Z</time></trkpt><trkpt lat="39.07845408246889" lon="8.94113559847844"><ele>162.79999999999998</ele><time>2026-03-26T08:30:46.998Z</time></trkpt><trkpt lat="39.07856665606331" lon="8.94110998153188"><ele>163.2</ele><time>2026-03-26T08:30:47.998Z</time></trkpt><trkpt lat="39.07865959023035" lon="8.941086399141748"><ele>163.6</ele><time>2026-03-26T08:30:48.998Z</time></trkpt><trkpt lat="39.078733198229436" lon="8.94106873547865"><ele>164.0</ele><time>2026-03-26T08:30:49.998Z</time></trkpt><trkpt lat="39.07880403274437" lon="8.941056516480618"><ele>164.0</ele><time>2026-03-26T08:30:50.998Z</time></trkpt><trkpt lat="39.07887692222684" lon="8.941051065519547"><ele>164.0</ele><time>2026-03-26T08:30:51.998Z</time></trkpt><trkpt lat="39.07894081185009" lon="8.941001998067016"><ele>164.0</ele><time>2026-03-26T08:30:52.998Z</time></trkpt><trkpt lat="39.07899581803339" lon="8.940916945314534"><ele>164.0</ele><time>2026-03-26T08:30:53.998Z</time></trkpt><trkpt lat="39.07904565466469" lon="8.940821228465126"><ele>164.0</ele><time>2026-03-26T08:30:54.998Z</time></trkpt><trkpt lat="39.07909436236381" lon="8.940725803635774"><ele>164.0</ele><time>2026-03-26T08:30:55.998Z</time></trkpt><trkpt lat="39.07917007855283" lon="8.940653333044144"><ele>161.0</ele><time>2026-03-26T08:30:56.998Z</time></trkpt><trkpt lat="39.07926357857346" lon="8.94059369395566"><ele>158.0</ele><time>2026-03-26T08:30:57.998Z</time></trkpt><trkpt lat="39.07934404258135" lon="8.940514038567999"><ele>155.0</ele><time>2026-03-26T08:30:58.998Z</time></trkpt><trkpt lat="39.07941069594285" lon="8.940420692375497"><ele>152.0</ele><time>2026-03-26T08:30:59.998Z</time></trkpt><trkpt lat="39.07947148229809" lon="8.940331546412159"><ele>149.0</ele><time>2026-03-26T08:31:00.998Z</time></trkpt><trkpt lat="39.079525964765196" lon="8.940238419550782"><ele>149.0</ele><time>2026-03-26T08:31:01.998Z</time></trkpt><trkpt lat="39.079576157327" lon="8.940140134012607"><ele>149.0</ele><time>2026-03-26T08:31:02.998Z</time></trkpt><trkpt lat="39.07963209841943" lon="8.94004462878823"><ele>149.0</ele><time>2026-03-26T08:31:03.998Z</time></trkpt><trkpt lat="39.079687471213866" lon="8.939942030931945"><ele>149.0</ele><time>2026-03-26T08:31:04.998Z</time></trkpt><trkpt lat="39.079733335688786" lon="8.939834515281328"><ele>149.0</ele><time>2026-03-26T08:31:05.998Z</time></trkpt><trkpt lat="39.07977353895154" lon="8.939725397243151"><ele>146.6</ele><time>2026-03-26T08:31:06.998Z</time></trkpt><trkpt lat="39.07980415997669" lon="8.939606059844113"><ele>144.2</ele><time>2026-03-26T08:31:07.998Z</time></trkpt><trkpt lat="39.079823782640496" lon="8.939461756748658"><ele>141.79999999999998</ele><time>2026-03-26T08:31:08.998Z</time></trkpt><trkpt lat="39.079837119203866" lon="8.939329952955688"><ele>139.4</ele><time>2026-03-26T08:31:09.998Z</time></trkpt><trkpt lat="39.0798446395977" lon="8.939214444153583"><ele>137.0</ele><time>2026-03-26T08:31:10.998Z</time></trkpt><trkpt lat="39.079857008899324" lon="8.939112508619258"><ele>137.0</ele><time>2026-03-26T08:31:11.998Z</time></trkpt><trkpt lat="39.07988151435394" lon="8.939015873182372"><ele>137.0</ele><time>2026-03-26T08:31:12.998Z</time></trkpt><trkpt lat="39.079916925447066" lon="8.938908754760215"><ele>137.0</ele><time>2026-03-26T08:31:13.998Z</time></trkpt><trkpt lat="39.07996640408628" lon="8.938804709121797"><ele>137.0</ele><time>2026-03-26T08:31:14.998Z</time></trkpt><trkpt lat="39.08002350015591" lon="8.938709565157378"><ele>137.0</ele><time>2026-03-26T08:31:15.998Z</time></trkpt><trkpt lat="39.080091384134946" lon="8.938620159883856"><ele>137.66666666666666</ele><time>2026-03-26T08:31:16.998Z</time></trkpt><trkpt lat="39.08016341853726" lon="8.938539123902533"><ele>138.33333333333331</ele><time>2026-03-26T08:31:17.998Z</time></trkpt><trkpt lat="39.080236405048645" lon="8.938470501900335"><ele>139.0</ele><time>2026-03-26T08:31:18.998Z</time></trkpt><trkpt lat="39.08030223089874" lon="8.938402463155397"><ele>139.66666666666666</ele><time>2026-03-26T08:31:19.999Z</time></trkpt><trkpt lat="39.08036033203127" lon="8.938332020241122"><ele>140.33333333333334</ele><time>2026-03-26T08:31:20.999Z</time></trkpt><trkpt lat="39.08040981788572" lon="8.938254802372347"><ele>141.0</ele><time>2026-03-26T08:31:21.999Z</time></trkpt><trkpt lat="39.08045726318818" lon="8.938158177972767"><ele>141.0</ele><time>2026-03-26T08:31:22.999Z</time></trkpt><trkpt lat="39.08051609133985" lon="8.93807712859182"><ele>141.0</ele><time>2026-03-26T08:31:23.999Z</time></trkpt><trkpt lat="39.08058128840987" lon="8.938029376579609"><ele>141.0</ele><time>2026-03-26T08:31:24.999Z</time></trkpt><trkpt lat="39.080629032028114" lon="8.93797104533747"><ele>141.0</ele><time>2026-03-26T08:31:25.999Z</time></trkpt><trkpt lat="39.08066384611302" lon="8.937891959080126"><ele>141.0</ele><time>2026-03-26T08:31:26.999Z</time></trkpt><trkpt lat="39.08069638189104" lon="8.937800528960793"><ele>141.0</ele><time>2026-03-26T08:31:27.999Z</time></trkpt><trkpt lat="39.08072327252814" lon="8.937697243978308"><ele>141.0</ele><time>2026-03-26T08:31:28.999Z</time></trkpt><trkpt lat="39.08074220235215" lon="8.937583494531305"><ele>141.0</ele><time>2026-03-26T08:31:29.999Z</time></trkpt><trkpt lat="39.08074545728043" lon="8.937482018989588"><ele>141.0</ele><time>2026-03-26T08:31:31Z</time></trkpt><trkpt lat="39.080743977768755" lon="8.937400356366368"><ele>141.0</ele><time>2026-03-26T08:31:32Z</time></trkpt><trkpt lat="39.08073251756488" lon="8.937237617493413"><ele>141.0</ele><time>2026-03-26T08:31:34Z</time></trkpt><trkpt lat="39.08073147433383" lon="8.937145229583116"><ele>141.0</ele><time>2026-03-26T08:31:35Z</time></trkpt><trkpt lat="39.08072838483066" lon="8.937046361716183"><ele>141.0</ele><time>2026-03-26T08:31:36Z</time></trkpt><trkpt lat="39.08071179130534" lon="8.936948411609787"><ele>141.0</ele><time>2026-03-26T08:31:37Z</time></trkpt><trkpt lat="39.08068252299181" lon="8.936849056416332"><ele>141.0</ele><time>2026-03-26T08:31:38Z</time></trkpt><trkpt lat="39.080640914198554" lon="8.936746147504847"><ele>141.0</ele><time>2026-03-26T08:31:39Z</time></trkpt><trkpt lat="39.08059743478541" lon="8.936642675881243"><ele>141.0</ele><time>2026-03-26T08:31:40Z</time></trkpt><trkpt lat="39.08055243307396" lon="8.936532696404441"><ele>141.0</ele><time>2026-03-26T08:31:41Z</time></trkpt><trkpt lat="39.08050615539591" lon="8.936419998493527"><ele>141.0</ele><time>2026-03-26T08:31:42Z</time></trkpt><trkpt lat="39.08045779487493" lon="8.936307040742856"><ele>141.0</ele><time>2026-03-26T08:31:43Z</time></trkpt><trkpt lat="39.0804174710392" lon="8.936200900133889"><ele>141.0</ele><time>2026-03-26T08:31:44Z</time></trkpt><trkpt lat="39.080381803202506" lon="8.936101451293725"><ele>141.0</ele><time>2026-03-26T08:31:45Z</time></trkpt><trkpt lat="39.08033177635506" lon="8.936011178564142"><ele>141.0</ele><time>2026-03-26T08:31:46Z</time></trkpt><trkpt lat="39.080261192757916" lon="8.935917842536357"><ele>141.8</ele><time>2026-03-26T08:31:47Z</time></trkpt><trkpt lat="39.080183313165975" lon="8.93582257642789"><ele>142.6</ele><time>2026-03-26T08:31:48Z</time></trkpt><trkpt lat="39.08011891225603" lon="8.935742372138423"><ele>143.4</ele><time>2026-03-26T08:31:49Z</time></trkpt><trkpt lat="39.08008074118542" lon="8.935674673746265"><ele>144.2</ele><time>2026-03-26T08:31:50Z</time></trkpt><trkpt lat="39.080044542136264" lon="8.935543985479795"><ele>145.0</ele><time>2026-03-26T08:31:52Z</time></trkpt><trkpt lat="39.08011114718939" lon="8.935433323344453"><ele>145.0</ele><time>2026-03-26T08:31:54Z</time></trkpt><trkpt lat="39.08017328009475" lon="8.935403322872897"><ele>145.0</ele><time>2026-03-26T08:31:55Z</time></trkpt><trkpt lat="39.0802403476314" lon="8.935371434429838"><ele>145.0</ele><time>2026-03-26T08:31:56Z</time></trkpt><trkpt lat="39.080306701198644" lon="8.935326184999912"><ele>145.0</ele><time>2026-03-26T08:31:57Z</time></trkpt><trkpt lat="39.08036894485838" lon="8.935264758345248"><ele>145.0</ele><time>2026-03-26T08:31:58Z</time></trkpt><trkpt lat="39.08042600983009" lon="8.935201174146385"><ele>145.0</ele><time>2026-03-26T08:31:59Z</time></trkpt><trkpt lat="39.080475138612954" lon="8.935115243790943"><ele>144.66666666666669</ele><time>2026-03-26T08:32:00Z</time></trkpt><trkpt lat="39.080511544905285" lon="8.935007361089179"><ele>144.33333333333334</ele><time>2026-03-26T08:32:01Z</time></trkpt><trkpt lat="39.080541932456256" lon="8.934895013419794"><ele>144.0</ele><time>2026-03-26T08:32:02Z</time></trkpt><trkpt lat="39.08056432310085" lon="8.93479499429184"><ele>143.66666666666666</ele><time>2026-03-26T08:32:03Z</time></trkpt><trkpt lat="39.08057324765353" lon="8.934694625019338"><ele>143.33333333333331</ele><time>2026-03-26T08:32:04Z</time></trkpt><trkpt lat="39.08057055828021" lon="8.934590973073856"><ele>143.0</ele><time>2026-03-26T08:32:05Z</time></trkpt><trkpt lat="39.0805451835102" lon="8.934484025837566"><ele>143.0</ele><time>2026-03-26T08:32:06Z</time></trkpt><trkpt lat="39.080512802339584" lon="8.93436142927301"><ele>143.0</ele><time>2026-03-26T08:32:07Z</time></trkpt><trkpt lat="39.0804842451945" lon="8.934239566035531"><ele>143.0</ele><time>2026-03-26T08:32:08Z</time></trkpt><trkpt lat="39.080458869717766" lon="8.934125617128277"><ele>143.0</ele><time>2026-03-26T08:32:09Z</time></trkpt><trkpt lat="39.08043104305525" lon="8.934019967805233"><ele>143.0</ele><time>2026-03-26T08:32:10Z</time></trkpt><trkpt lat="39.08040122401846" lon="8.933929764132486"><ele>143.0</ele><time>2026-03-26T08:32:11Z</time></trkpt><trkpt lat="39.08036207822432" lon="8.933857227467874"><ele>143.0</ele><time>2026-03-26T08:32:12Z</time></trkpt><trkpt lat="39.08032646483072" lon="8.933719617887785"><ele>143.0</ele><time>2026-03-26T08:32:14Z</time></trkpt><trkpt lat="39.080362436741545" lon="8.93357154193735"><ele>143.0</ele><time>2026-03-26T08:32:16Z</time></trkpt><trkpt lat="39.08039029516961" lon="8.933492677641366"><ele>143.0</ele><time>2026-03-26T08:32:17Z</time></trkpt><trkpt lat="39.08041748572871" lon="8.933412512557679"><ele>143.0</ele><time>2026-03-26T08:32:18Z</time></trkpt><trkpt lat="39.080437927172696" lon="8.933303974610531"><ele>143.0</ele><time>2026-03-26T08:32:19Z</time></trkpt><trkpt lat="39.08045107166716" lon="8.933165435894376"><ele>143.0</ele><time>2026-03-26T08:32:20Z</time></trkpt><trkpt lat="39.080453771786" lon="8.933010669876884"><ele>143.0</ele><time>2026-03-26T08:32:21Z</time></trkpt><trkpt lat="39.08047655178887" lon="8.9328789444582"><ele>143.0</ele><time>2026-03-26T08:32:22Z</time></trkpt><trkpt lat="39.08052123280849" lon="8.932769028385732"><ele>143.0</ele><time>2026-03-26T08:32:23Z</time></trkpt><trkpt lat="39.0805744732983" lon="8.932673638397143"><ele>143.0</ele><time>2026-03-26T08:32:24Z</time></trkpt><trkpt lat="39.080642227354154" lon="8.932599964534447"><ele>143.0</ele><time>2026-03-26T08:32:25Z</time></trkpt><trkpt lat="39.08072340469774" lon="8.932545974801082"><ele>143.0</ele><time>2026-03-26T08:32:26Z</time></trkpt><trkpt lat="39.080811775729444" lon="8.932511476041897"><ele>143.0</ele><time>2026-03-26T08:32:27Z</time></trkpt><trkpt lat="39.08090782576999" lon="8.932484200094208"><ele>143.0</ele><time>2026-03-26T08:32:28Z</time></trkpt><trkpt lat="39.08100453495357" lon="8.932454541168596"><ele>144.4</ele><time>2026-03-26T08:32:29Z</time></trkpt><trkpt lat="39.081101003970666" lon="8.932415585180784"><ele>145.8</ele><time>2026-03-26T08:32:30Z</time></trkpt><trkpt lat="39.081197918420095" lon="8.9323836879124"><ele>147.2</ele><time>2026-03-26T08:32:31Z</time></trkpt><trkpt lat="39.08129088726085" lon="8.932347356944323"><ele>148.6</ele><time>2026-03-26T08:32:32Z</time></trkpt><trkpt lat="39.08138654162525" lon="8.93231029633077"><ele>150.0</ele><time>2026-03-26T08:32:33Z</time></trkpt><trkpt lat="39.08147604810782" lon="8.932258270167193"><ele>150.0</ele><time>2026-03-26T08:32:34Z</time></trkpt><trkpt lat="39.08155854738021" lon="8.932191759897474"><ele>150.0</ele><time>2026-03-26T08:32:35Z</time></trkpt><trkpt lat="39.08163678653637" lon="8.932114363008832"><ele>150.0</ele><time>2026-03-26T08:32:36Z</time></trkpt><trkpt lat="39.08170926067329" lon="8.932030023776655"><ele>150.0</ele><time>2026-03-26T08:32:37Z</time></trkpt><trkpt lat="39.081770110647554" lon="8.931938831217389"><ele>150.0</ele><time>2026-03-26T08:32:38Z</time></trkpt><trkpt lat="39.08182492920627" lon="8.931838082399567"><ele>150.83333333333334</ele><time>2026-03-26T08:32:39Z</time></trkpt><trkpt lat="39.08186939102445" lon="8.9317320143485"><ele>151.66666666666666</ele><time>2026-03-26T08:32:40Z</time></trkpt><trkpt lat="39.08189360101915" lon="8.931617903035537"><ele>152.5</ele><time>2026-03-26T08:32:41Z</time></trkpt><trkpt lat="39.08189990872028" lon="8.931514876983856"><ele>153.33333333333331</ele><time>2026-03-26T08:32:42Z</time></trkpt><trkpt lat="39.08188952393562" lon="8.931414237376451"><ele>154.16666666666666</ele><time>2026-03-26T08:32:43Z</time></trkpt><trkpt lat="39.08185597364079" lon="8.931309498112418"><ele>155.0</ele><time>2026-03-26T08:32:44Z</time></trkpt><trkpt lat="39.08179908570278" lon="8.931204812022944"><ele>155.0</ele><time>2026-03-26T08:32:45Z</time></trkpt><trkpt lat="39.081725787803485" lon="8.93111456582383"><ele>155.0</ele><time>2026-03-26T08:32:46Z</time></trkpt><trkpt lat="39.081636970794854" lon="8.931041489998"><ele>155.0</ele><time>2026-03-26T08:32:47Z</time></trkpt><trkpt lat="39.0815183514269" lon="8.9309834380715"><ele>155.0</ele><time>2026-03-26T08:32:48Z</time></trkpt><trkpt lat="39.081394888443256" lon="8.930941859545069"><ele>154.8</ele><time>2026-03-26T08:32:49Z</time></trkpt><trkpt lat="39.0812836108184" lon="8.930901961491402"><ele>154.6</ele><time>2026-03-26T08:32:50Z</time></trkpt><trkpt lat="39.0811827400209" lon="8.93086908349288"><ele>154.4</ele><time>2026-03-26T08:32:51Z</time></trkpt><trkpt lat="39.08107344427578" lon="8.930855320551132"><ele>154.2</ele><time>2026-03-26T08:32:52Z</time></trkpt><trkpt lat="39.08096521342702" lon="8.930833436316966"><ele>154.0</ele><time>2026-03-26T08:32:53Z</time></trkpt><trkpt lat="39.08085842948244" lon="8.930814250288538"><ele>154.8</ele><time>2026-03-26T08:32:54Z</time></trkpt><trkpt lat="39.080754342232616" lon="8.930786233551508"><ele>155.60000000000002</ele><time>2026-03-26T08:32:55Z</time></trkpt><trkpt lat="39.080652254705235" lon="8.930758696697454"><ele>156.4</ele><time>2026-03-26T08:32:56Z</time></trkpt><trkpt lat="39.08055756870161" lon="8.930717594413679"><ele>157.20000000000002</ele><time>2026-03-26T08:32:57Z</time></trkpt><trkpt lat="39.08047417396276" lon="8.930672786466953"><ele>158.0</ele><time>2026-03-26T08:32:58Z</time></trkpt><trkpt lat="39.08041031339578" lon="8.930624419682932"><ele>158.0</ele><time>2026-03-26T08:32:59Z</time></trkpt><trkpt lat="39.08036153153173" lon="8.930569584811945"><ele>158.0</ele><time>2026-03-26T08:33:00Z</time></trkpt><trkpt lat="39.080332312080785" lon="8.930493196869504"><ele>158.0</ele><time>2026-03-26T08:33:01Z</time></trkpt><trkpt lat="39.08031682625867" lon="8.930394136110381"><ele>158.0</ele><time>2026-03-26T08:33:02Z</time></trkpt><trkpt lat="39.08030364447452" lon="8.93029546412475"><ele>158.0</ele><time>2026-03-26T08:33:03Z</time></trkpt><trkpt lat="39.08029845221832" lon="8.930206279335678"><ele>158.0</ele><time>2026-03-26T08:33:04Z</time></trkpt><trkpt lat="39.08032079935498" lon="8.93007962110609"><ele>157.6</ele><time>2026-03-26T08:33:06Z</time></trkpt><trkpt lat="39.08034672807739" lon="8.929960769177562"><ele>157.20000000000002</ele><time>2026-03-26T08:33:09Z</time></trkpt><trkpt lat="39.08037124384043" lon="8.92987552341271"><ele>156.8</ele><time>2026-03-26T08:33:11Z</time></trkpt><trkpt lat="39.08041226095258" lon="8.929794797918682"><ele>156.4</ele><time>2026-03-26T08:33:13Z</time></trkpt><trkpt lat="39.080519074411214" lon="8.929786318564565"><ele>156.0</ele><time>2026-03-26T08:33:15Z</time></trkpt><trkpt lat="39.080636479577386" lon="8.929820994992422"><ele>156.0</ele><time>2026-03-26T08:33:17Z</time></trkpt><trkpt lat="39.0807033140394" lon="8.929829742148726"><ele>156.0</ele><time>2026-03-26T08:33:18Z</time></trkpt><trkpt lat="39.08077196800639" lon="8.929824156267236"><ele>156.0</ele><time>2026-03-26T08:33:19Z</time></trkpt><trkpt lat="39.08084424203061" lon="8.929803435190193"><ele>156.0</ele><time>2026-03-26T08:33:20Z</time></trkpt><trkpt lat="39.08092037885291" lon="8.929781936018202"><ele>156.0</ele><time>2026-03-26T08:33:21Z</time></trkpt><trkpt lat="39.08100706730553" lon="8.929759342952202"><ele>156.0</ele><time>2026-03-26T08:33:22Z</time></trkpt><trkpt lat="39.08109321836233" lon="8.929739973269134"><ele>155.83333333333334</ele><time>2026-03-26T08:33:23Z</time></trkpt><trkpt lat="39.08117470527738" lon="8.929720861876497"><ele>155.66666666666666</ele><time>2026-03-26T08:33:24Z</time></trkpt><trkpt lat="39.08124558873184" lon="8.929696152881714"><ele>155.5</ele><time>2026-03-26T08:33:25Z</time></trkpt><trkpt lat="39.081309197308364" lon="8.929646451472237"><ele>155.33333333333331</ele><time>2026-03-26T08:33:26Z</time></trkpt><trkpt lat="39.08137612508698" lon="8.929574680705848"><ele>155.16666666666666</ele><time>2026-03-26T08:33:27Z</time></trkpt><trkpt lat="39.081451522033866" lon="8.929505498505147"><ele>155.0</ele><time>2026-03-26T08:33:28Z</time></trkpt><trkpt lat="39.08152653977058" lon="8.929439988777036"><ele>156.66666666666666</ele><time>2026-03-26T08:33:29Z</time></trkpt><trkpt lat="39.08159904959418" lon="8.92938507803789"><ele>158.33333333333331</ele><time>2026-03-26T08:33:30Z</time></trkpt><trkpt lat="39.081662087963764" lon="8.929337089681061"><ele>160.0</ele><time>2026-03-26T08:33:31Z</time></trkpt><trkpt lat="39.08171525500773" lon="8.929252172828715"><ele>161.66666666666666</ele><time>2026-03-26T08:33:32Z</time></trkpt><trkpt lat="39.08177161735663" lon="8.929139871809586"><ele>163.33333333333334</ele><time>2026-03-26T08:33:33Z</time></trkpt><trkpt lat="39.08184412557857" lon="8.929045481518108"><ele>165.0</ele><time>2026-03-26T08:33:34Z</time></trkpt><trkpt lat="39.081930859609855" lon="8.928943540444902"><ele>165.0</ele><time>2026-03-26T08:33:35Z</time></trkpt><trkpt lat="39.08200371843191" lon="8.92882754023317"><ele>165.0</ele><time>2026-03-26T08:33:36Z</time></trkpt><trkpt lat="39.082045874621706" lon="8.928722589328007"><ele>165.0</ele><time>2026-03-26T08:33:37Z</time></trkpt><trkpt lat="39.082088565137155" lon="8.928630255755152"><ele>165.0</ele><time>2026-03-26T08:33:38Z</time></trkpt><trkpt lat="39.082139399574274" lon="8.928554606071044"><ele>165.0</ele><time>2026-03-26T08:33:39Z</time></trkpt><trkpt lat="39.08218702947745" lon="8.928499500848563"><ele>165.0</ele><time>2026-03-26T08:33:40Z</time></trkpt><trkpt lat="39.08225901798585" lon="8.928407525155254"><ele>167.6</ele><time>2026-03-26T08:33:42Z</time></trkpt><trkpt lat="39.082270442534735" lon="8.928276459169995"><ele>170.2</ele><time>2026-03-26T08:33:44Z</time></trkpt><trkpt lat="39.08224750599654" lon="8.928142363661381"><ele>172.8</ele><time>2026-03-26T08:33:46Z</time></trkpt><trkpt lat="39.08221631883281" lon="8.928021839549578"><ele>175.4</ele><time>2026-03-26T08:33:49Z</time></trkpt><trkpt lat="39.08217402980535" lon="8.92792205967977"><ele>178.0</ele><time>2026-03-26T08:33:52Z</time></trkpt><trkpt lat="39.08219203429644" lon="8.92784423166895"><ele>178.0</ele><time>2026-03-26T08:33:54Z</time></trkpt><trkpt lat="39.08219222249739" lon="8.927718506305652"><ele>178.0</ele><time>2026-03-26T08:33:57Z</time></trkpt><trkpt lat="39.08218442343745" lon="8.927633903785921"><ele>178.0</ele><time>2026-03-26T08:33:59Z</time></trkpt><trkpt lat="39.08212687418045" lon="8.92751905856505"><ele>178.0</ele><time>2026-03-26T08:34:01Z</time></trkpt><trkpt lat="39.082047314129966" lon="8.927376808090694"><ele>178.0</ele><time>2026-03-26T08:34:03Z</time></trkpt><trkpt lat="39.082003367252966" lon="8.927304068404482"><ele>177.83333333333334</ele><time>2026-03-26T08:34:04Z</time></trkpt><trkpt lat="39.08195375659062" lon="8.927234641092307"><ele>177.66666666666669</ele><time>2026-03-26T08:34:05Z</time></trkpt><trkpt lat="39.08191044743785" lon="8.927142395347627"><ele>177.5</ele><time>2026-03-26T08:34:06Z</time></trkpt><trkpt lat="39.081871370057705" lon="8.927052317322461"><ele>177.33333333333334</ele><time>2026-03-26T08:34:07Z</time></trkpt><trkpt lat="39.08182696326442" lon="8.926971710135332"><ele>177.16666666666666</ele><time>2026-03-26T08:34:08Z</time></trkpt><trkpt lat="39.081780647735116" lon="8.926915857450254"><ele>177.0</ele><time>2026-03-26T08:34:09Z</time></trkpt><trkpt lat="39.08173553967787" lon="8.926787393339943"><ele>176.83333333333334</ele><time>2026-03-26T08:34:11Z</time></trkpt><trkpt lat="39.081776758016225" lon="8.926632010434911"><ele>176.66666666666666</ele><time>2026-03-26T08:34:13Z</time></trkpt><trkpt lat="39.08180936519942" lon="8.926545241677879"><ele>176.5</ele><time>2026-03-26T08:34:14Z</time></trkpt><trkpt lat="39.08182418519922" lon="8.926462956649567"><ele>176.33333333333331</ele><time>2026-03-26T08:34:15Z</time></trkpt><trkpt lat="39.081890669467704" lon="8.926356186033757"><ele>176.16666666666666</ele><time>2026-03-26T08:34:17Z</time></trkpt><trkpt lat="39.081956387689914" lon="8.926328747589238"><ele>176.0</ele><time>2026-03-26T08:34:18Z</time></trkpt><trkpt lat="39.08206306122766" lon="8.926326040382717"><ele>176.0</ele><time>2026-03-26T08:34:20Z</time></trkpt><trkpt lat="39.08214371147931" lon="8.92625270417506"><ele>176.0</ele><time>2026-03-26T08:34:23Z</time></trkpt><trkpt lat="39.08221259214007" lon="8.926207425895486"><ele>176.0</ele><time>2026-03-26T08:34:25Z</time></trkpt><trkpt lat="39.08230989578814" lon="8.926227979010838"><ele>176.0</ele><time>2026-03-26T08:34:27Z</time></trkpt><trkpt lat="39.082381927175476" lon="8.926248273181157"><ele>176.0</ele><time>2026-03-26T08:34:28Z</time></trkpt><trkpt lat="39.08247161522648" lon="8.926279586840865"><ele>176.0</ele><time>2026-03-26T08:34:29Z</time></trkpt><trkpt lat="39.08254892286658" lon="8.926309862595861"><ele>175.5</ele><time>2026-03-26T08:34:30Z</time></trkpt><trkpt lat="39.082609714911364" lon="8.926336273680306"><ele>175.0</ele><time>2026-03-26T08:34:31Z</time></trkpt><trkpt lat="39.0827195827872" lon="8.926376909907503"><ele>174.5</ele><time>2026-03-26T08:34:33Z</time></trkpt><trkpt lat="39.0828057682466" lon="8.92637468412245"><ele>174.0</ele><time>2026-03-26T08:34:36Z</time></trkpt><trkpt lat="39.08289453026634" lon="8.926348148530609"><ele>173.5</ele><time>2026-03-26T08:34:39Z</time></trkpt><trkpt lat="39.082958731366126" lon="8.926283791472706"><ele>173.0</ele><time>2026-03-26T08:34:41Z</time></trkpt><trkpt lat="39.082988598524885" lon="8.926164651428742"><ele>173.0</ele><time>2026-03-26T08:34:43Z</time></trkpt><trkpt lat="39.08298765747436" lon="8.926072132999108"><ele>173.0</ele><time>2026-03-26T08:34:44Z</time></trkpt><trkpt lat="39.08296822771594" lon="8.925949547372507"><ele>173.0</ele><time>2026-03-26T08:34:45Z</time></trkpt><trkpt lat="39.08294575594073" lon="8.925815393979489"><ele>173.0</ele><time>2026-03-26T08:34:46Z</time></trkpt><trkpt lat="39.082931950897255" lon="8.925695044874551"><ele>173.0</ele><time>2026-03-26T08:34:47Z</time></trkpt><trkpt lat="39.0829300841603" lon="8.925588269654524"><ele>173.8</ele><time>2026-03-26T08:34:48Z</time></trkpt><trkpt lat="39.08294135645629" lon="8.925501062001866"><ele>174.60000000000002</ele><time>2026-03-26T08:34:49Z</time></trkpt><trkpt lat="39.0829992759663" lon="8.925362500055677"><ele>175.39999999999998</ele><time>2026-03-26T08:34:51Z</time></trkpt><trkpt lat="39.08309937994063" lon="8.925275918979263"><ele>176.2</ele><time>2026-03-26T08:34:53Z</time></trkpt><trkpt lat="39.083165277578814" lon="8.925275975087482"><ele>177.0</ele><time>2026-03-26T08:34:54Z</time></trkpt><trkpt lat="39.08323304674481" lon="8.925309967624756"><ele>176.5</ele><time>2026-03-26T08:34:55Z</time></trkpt><trkpt lat="39.08328524656236" lon="8.925357889144012"><ele>176.0</ele><time>2026-03-26T08:34:56Z</time></trkpt><trkpt lat="39.083320193228396" lon="8.925430277253392"><ele>175.5</ele><time>2026-03-26T08:34:57Z</time></trkpt><trkpt lat="39.083351033028634" lon="8.925528218394229"><ele>175.0</ele><time>2026-03-26T08:34:58Z</time></trkpt><trkpt lat="39.08338438077381" lon="8.925639274218472"><ele>174.5</ele><time>2026-03-26T08:34:59Z</time></trkpt><trkpt lat="39.083420787518" lon="8.92572543896928"><ele>174.0</ele><time>2026-03-26T08:35:00Z</time></trkpt><trkpt lat="39.08346335374064" lon="8.9257984623483"><ele>174.0</ele><time>2026-03-26T08:35:01Z</time></trkpt><trkpt lat="39.08351951390036" lon="8.925859760924768"><ele>174.0</ele><time>2026-03-26T08:35:02Z</time></trkpt><trkpt lat="39.08359130618262" lon="8.925897958594318"><ele>174.0</ele><time>2026-03-26T08:35:03Z</time></trkpt><trkpt lat="39.083657113320065" lon="8.925920928552667"><ele>174.0</ele><time>2026-03-26T08:35:04Z</time></trkpt><trkpt lat="39.08372404746966" lon="8.925919125051518"><ele>174.0</ele><time>2026-03-26T08:35:05Z</time></trkpt><trkpt lat="39.0837956211256" lon="8.925897737217197"><ele>174.0</ele><time>2026-03-26T08:35:06Z</time></trkpt><trkpt lat="39.08387200405905" lon="8.925856760847006"><ele>174.0</ele><time>2026-03-26T08:35:07Z</time></trkpt><trkpt lat="39.08396019681021" lon="8.925813134001027"><ele>174.0</ele><time>2026-03-26T08:35:08Z</time></trkpt><trkpt lat="39.08404975639333" lon="8.925770058617609"><ele>174.0</ele><time>2026-03-26T08:35:09Z</time></trkpt><trkpt lat="39.08412974940514" lon="8.92572292319706"><ele>174.0</ele><time>2026-03-26T08:35:10Z</time></trkpt><trkpt lat="39.08420118567863" lon="8.925659231187677"><ele>174.0</ele><time>2026-03-26T08:35:11Z</time></trkpt><trkpt lat="39.084257105584456" lon="8.925584074438989"><ele>174.0</ele><time>2026-03-26T08:35:12Z</time></trkpt><trkpt lat="39.084304321712466" lon="8.925480719208243"><ele>174.0</ele><time>2026-03-26T08:35:14Z</time></trkpt><trkpt lat="39.08434760051636" lon="8.925358188902296"><ele>174.33333333333334</ele><time>2026-03-26T08:35:17Z</time></trkpt><trkpt lat="39.08438911450555" lon="8.925240004373846"><ele>174.66666666666666</ele><time>2026-03-26T08:35:19Z</time></trkpt><trkpt lat="39.08441034940777" lon="8.925156599771581"><ele>175.0</ele><time>2026-03-26T08:35:20Z</time></trkpt><trkpt lat="39.08443206175432" lon="8.925071943230623"><ele>175.33333333333331</ele><time>2026-03-26T08:35:21Z</time></trkpt><trkpt lat="39.08445721991656" lon="8.924983331149678"><ele>175.66666666666666</ele><time>2026-03-26T08:35:22Z</time></trkpt><trkpt lat="39.08448497588272" lon="8.924889955509485"><ele>176.0</ele><time>2026-03-26T08:35:23Z</time></trkpt><trkpt lat="39.084511251266285" lon="8.924790151318705"><ele>176.0</ele><time>2026-03-26T08:35:24Z</time></trkpt><trkpt lat="39.08453247010199" lon="8.92468990386711"><ele>176.0</ele><time>2026-03-26T08:35:25Z</time></trkpt><trkpt lat="39.08455020115773" lon="8.92458859170265"><ele>176.0</ele><time>2026-03-26T08:35:26Z</time></trkpt><trkpt lat="39.08456790687027" lon="8.924482836387552"><ele>176.0</ele><time>2026-03-26T08:35:27Z</time></trkpt><trkpt lat="39.08458946021361" lon="8.924371992944012"><ele>176.0</ele><time>2026-03-26T08:35:28Z</time></trkpt><trkpt lat="39.08462079865723" lon="8.924257640000102"><ele>176.0</ele><time>2026-03-26T08:35:29Z</time></trkpt><trkpt lat="39.084634603755404" lon="8.924149445386067"><ele>177.16666666666666</ele><time>2026-03-26T08:35:30Z</time></trkpt><trkpt lat="39.084627914226516" lon="8.924040439782187"><ele>178.33333333333331</ele><time>2026-03-26T08:35:31Z</time></trkpt><trkpt lat="39.084614368074135" lon="8.923920647248798"><ele>179.5</ele><time>2026-03-26T08:35:32Z</time></trkpt><trkpt lat="39.08460244176106" lon="8.923810186704868"><ele>180.66666666666666</ele><time>2026-03-26T08:35:33Z</time></trkpt><trkpt lat="39.08458727616779" lon="8.92371430172171"><ele>181.83333333333334</ele><time>2026-03-26T08:35:34Z</time></trkpt><trkpt lat="39.084577531650226" lon="8.923630455012166"><ele>183.0</ele><time>2026-03-26T08:35:35Z</time></trkpt><trkpt lat="39.08457530975937" lon="8.923539539269912"><ele>183.0</ele><time>2026-03-26T08:35:36Z</time></trkpt><trkpt lat="39.08457416454039" lon="8.923442211367565"><ele>183.0</ele><time>2026-03-26T08:35:37Z</time></trkpt><trkpt lat="39.08458473070132" lon="8.923355976890923"><ele>183.0</ele><time>2026-03-26T08:35:38Z</time></trkpt><trkpt lat="39.08461110331149" lon="8.923275053666904"><ele>183.0</ele><time>2026-03-26T08:35:39Z</time></trkpt><trkpt lat="39.08465783868976" lon="8.923210883160342"><ele>183.0</ele><time>2026-03-26T08:35:40Z</time></trkpt><trkpt lat="39.08471731744085" lon="8.923165043120658"><ele>183.0</ele><time>2026-03-26T08:35:41Z</time></trkpt><trkpt lat="39.084787249850606" lon="8.923122648416797"><ele>183.0</ele><time>2026-03-26T08:35:42Z</time></trkpt><trkpt lat="39.08486067063204" lon="8.923086949719856"><ele>182.60000000000002</ele><time>2026-03-26T08:35:43Z</time></trkpt><trkpt lat="39.08494034706747" lon="8.923062407827176"><ele>182.20000000000002</ele><time>2026-03-26T08:35:44Z</time></trkpt><trkpt lat="39.085032012414686" lon="8.923043401110336"><ele>181.8</ele><time>2026-03-26T08:35:45Z</time></trkpt><trkpt lat="39.08513104644396" lon="8.923016213675025"><ele>181.4</ele><time>2026-03-26T08:35:46Z</time></trkpt><trkpt lat="39.085223655728065" lon="8.922994661569799"><ele>181.0</ele><time>2026-03-26T08:35:47Z</time></trkpt><trkpt lat="39.085310232035475" lon="8.922981613638342"><ele>181.0</ele><time>2026-03-26T08:35:48Z</time></trkpt><trkpt lat="39.085394280603104" lon="8.922968659030763"><ele>181.0</ele><time>2026-03-26T08:35:49Z</time></trkpt><trkpt lat="39.08547829933271" lon="8.922948541648763"><ele>181.0</ele><time>2026-03-26T08:35:50Z</time></trkpt><trkpt lat="39.085557936210634" lon="8.922935202297623"><ele>181.0</ele><time>2026-03-26T08:35:51Z</time></trkpt><trkpt lat="39.0856310000134" lon="8.922925827027923"><ele>181.0</ele><time>2026-03-26T08:35:52Z</time></trkpt><trkpt lat="39.085701054871244" lon="8.922914801921696"><ele>181.0</ele><time>2026-03-26T08:35:53Z</time></trkpt><trkpt lat="39.085776691740264" lon="8.92288183509434"><ele>183.5</ele><time>2026-03-26T08:35:54Z</time></trkpt><trkpt lat="39.085847564993955" lon="8.922834945739906"><ele>186.0</ele><time>2026-03-26T08:35:55Z</time></trkpt><trkpt lat="39.085923191772196" lon="8.922805412620109"><ele>188.5</ele><time>2026-03-26T08:35:56Z</time></trkpt><trkpt lat="39.085992416685286" lon="8.922784376346328"><ele>191.0</ele><time>2026-03-26T08:35:57Z</time></trkpt><trkpt lat="39.08605505568053" lon="8.922746047664944"><ele>193.49999999999997</ele><time>2026-03-26T08:35:58Z</time></trkpt><trkpt lat="39.08611809961267" lon="8.922687668821414"><ele>196.0</ele><time>2026-03-26T08:35:59Z</time></trkpt><trkpt lat="39.086174032956286" lon="8.922617370341671"><ele>194.66666666666666</ele><time>2026-03-26T08:36:00Z</time></trkpt><trkpt lat="39.086223218915016" lon="8.922545633525036"><ele>193.33333333333331</ele><time>2026-03-26T08:36:01Z</time></trkpt><trkpt lat="39.08626422139201" lon="8.922468305341667"><ele>192.0</ele><time>2026-03-26T08:36:02Z</time></trkpt><trkpt lat="39.086300012121505" lon="8.922372469887023"><ele>190.66666666666666</ele><time>2026-03-26T08:36:03Z</time></trkpt><trkpt lat="39.08632180972197" lon="8.922263996340059"><ele>189.33333333333331</ele><time>2026-03-26T08:36:04Z</time></trkpt><trkpt lat="39.08633594138265" lon="8.922148329661447"><ele>188.0</ele><time>2026-03-26T08:36:05Z</time></trkpt><trkpt lat="39.08635639026168" lon="8.922029023071666"><ele>188.0</ele><time>2026-03-26T08:36:06Z</time></trkpt><trkpt lat="39.08636696304631" lon="8.921900819398603"><ele>188.0</ele><time>2026-03-26T08:36:07Z</time></trkpt><trkpt lat="39.086364187854045" lon="8.921767274388571"><ele>188.0</ele><time>2026-03-26T08:36:08Z</time></trkpt><trkpt lat="39.08635641153657" lon="8.921660573475737"><ele>188.0</ele><time>2026-03-26T08:36:09Z</time></trkpt><trkpt lat="39.08633421697388" lon="8.921564247518905"><ele>188.0</ele><time>2026-03-26T08:36:10Z</time></trkpt><trkpt lat="39.08630531611209" lon="8.921466258874288"><ele>188.0</ele><time>2026-03-26T08:36:11Z</time></trkpt><trkpt lat="39.08625944979294" lon="8.9213658954926"><ele>188.33333333333331</ele><time>2026-03-26T08:36:12Z</time></trkpt><trkpt lat="39.08620782049062" lon="8.921261754457005"><ele>188.66666666666666</ele><time>2026-03-26T08:36:13Z</time></trkpt><trkpt lat="39.08615971586247" lon="8.921159979319597"><ele>189.0</ele><time>2026-03-26T08:36:14Z</time></trkpt><trkpt lat="39.08612109555939" lon="8.921073385990377"><ele>189.33333333333334</ele><time>2026-03-26T08:36:15Z</time></trkpt><trkpt lat="39.08608657201388" lon="8.920999657145757"><ele>189.66666666666669</ele><time>2026-03-26T08:36:16Z</time></trkpt><trkpt lat="39.086034088414465" lon="8.92094767689901"><ele>190.0</ele><time>2026-03-26T08:36:17Z</time></trkpt><trkpt lat="39.08596024281697" lon="8.920914705502668"><ele>189.6</ele><time>2026-03-26T08:36:18Z</time></trkpt><trkpt lat="39.085875082391766" lon="8.920899112582303"><ele>189.2</ele><time>2026-03-26T08:36:19Z</time></trkpt><trkpt lat="39.085798208577636" lon="8.920887776286875"><ele>188.8</ele><time>2026-03-26T08:36:20Z</time></trkpt><trkpt lat="39.08570591379007" lon="8.920806292439448"><ele>188.4</ele><time>2026-03-26T08:36:22Z</time></trkpt><trkpt lat="39.085675053156955" lon="8.920639603336047"><ele>188.0</ele><time>2026-03-26T08:36:24Z</time></trkpt><trkpt lat="39.085679085529726" lon="8.92054328734406"><ele>188.0</ele><time>2026-03-26T08:36:25Z</time></trkpt><trkpt lat="39.08570107841221" lon="8.92045081194162"><ele>188.0</ele><time>2026-03-26T08:36:26Z</time></trkpt><trkpt lat="39.08574241334445" lon="8.920371696634453"><ele>188.0</ele><time>2026-03-26T08:36:27Z</time></trkpt><trkpt lat="39.085789841690826" lon="8.920305957559066"><ele>188.0</ele><time>2026-03-26T08:36:28Z</time></trkpt><trkpt lat="39.08585126304694" lon="8.9202450986665"><ele>188.0</ele><time>2026-03-26T08:36:29Z</time></trkpt><trkpt lat="39.085923664846774" lon="8.920196693195313"><ele>188.0</ele><time>2026-03-26T08:36:30Z</time></trkpt><trkpt lat="39.08599744284192" lon="8.920151388069403"><ele>188.0</ele><time>2026-03-26T08:36:31Z</time></trkpt><trkpt lat="39.08606641247448" lon="8.920105820253356"><ele>188.0</ele><time>2026-03-26T08:36:32Z</time></trkpt><trkpt lat="39.0861348668543" lon="8.920056741114891"><ele>188.0</ele><time>2026-03-26T08:36:33Z</time></trkpt><trkpt lat="39.08620669738439" lon="8.91999156111152"><ele>188.0</ele><time>2026-03-26T08:36:34Z</time></trkpt><trkpt lat="39.08628709469" lon="8.919943041152472"><ele>188.0</ele><time>2026-03-26T08:36:35Z</time></trkpt><trkpt lat="39.08637425918511" lon="8.919908595299635"><ele>188.0</ele><time>2026-03-26T08:36:36Z</time></trkpt><trkpt lat="39.086457231757244" lon="8.919874981530514"><ele>188.0</ele><time>2026-03-26T08:36:37Z</time></trkpt><trkpt lat="39.08654655196841" lon="8.919856477628182"><ele>188.0</ele><time>2026-03-26T08:36:38Z</time></trkpt><trkpt lat="39.0866339186623" lon="8.919848292032672"><ele>188.0</ele><time>2026-03-26T08:36:39Z</time></trkpt><trkpt lat="39.0867181560661" lon="8.919833307699665"><ele>188.0</ele><time>2026-03-26T08:36:40Z</time></trkpt><trkpt lat="39.086792833887706" lon="8.919779808848775"><ele>188.0</ele><time>2026-03-26T08:36:41Z</time></trkpt><trkpt lat="39.086864744564316" lon="8.919708700952429"><ele>188.0</ele><time>2026-03-26T08:36:42Z</time></trkpt><trkpt lat="39.08694418729603" lon="8.919637060665293"><ele>189.0</ele><time>2026-03-26T08:36:43Z</time></trkpt><trkpt lat="39.08702283280515" lon="8.919554935119093"><ele>190.0</ele><time>2026-03-26T08:36:44Z</time></trkpt><trkpt lat="39.08710260683878" lon="8.919491572186336"><ele>191.0</ele><time>2026-03-26T08:36:45Z</time></trkpt><trkpt lat="39.08717134150312" lon="8.919441477970253"><ele>192.0</ele><time>2026-03-26T08:36:46Z</time></trkpt><trkpt lat="39.087227268506226" lon="8.919382534077519"><ele>193.00000000000003</ele><time>2026-03-26T08:36:47Z</time></trkpt><trkpt lat="39.08727470704173" lon="8.919289439517906"><ele>194.0</ele><time>2026-03-26T08:36:48Z</time></trkpt><trkpt lat="39.08732264665907" lon="8.919194633006153"><ele>194.50000000000003</ele><time>2026-03-26T08:36:49Z</time></trkpt><trkpt lat="39.08737339190437" lon="8.919124862715032"><ele>195.0</ele><time>2026-03-26T08:36:50Z</time></trkpt><trkpt lat="39.087426830863286" lon="8.919081260792876"><ele>195.5</ele><time>2026-03-26T08:36:51Z</time></trkpt><trkpt lat="39.08754548661751" lon="8.919036740271396"><ele>196.0</ele><time>2026-03-26T08:36:53Z</time></trkpt><trkpt lat="39.087611819503095" lon="8.919035006773308"><ele>196.50000000000003</ele><time>2026-03-26T08:36:54Z</time></trkpt><trkpt lat="39.08768610358832" lon="8.919059191507223"><ele>197.0</ele><time>2026-03-26T08:36:55Z</time></trkpt><trkpt lat="39.08775976229248" lon="8.919086728946445"><ele>197.00000000000003</ele><time>2026-03-26T08:36:56Z</time></trkpt><trkpt lat="39.08783274663163" lon="8.919089925283878"><ele>197.0</ele><time>2026-03-26T08:36:57Z</time></trkpt><trkpt lat="39.08790111907115" lon="8.919077092598956"><ele>197.0</ele><time>2026-03-26T08:36:58Z</time></trkpt><trkpt lat="39.0879788023477" lon="8.919059264184707"><ele>197.0</ele><time>2026-03-26T08:36:59Z</time></trkpt><trkpt lat="39.0880578345228" lon="8.919038494728872"><ele>197.00000000000003</ele><time>2026-03-26T08:37:00Z</time></trkpt><trkpt lat="39.08813421657655" lon="8.918999674131"><ele>197.0</ele><time>2026-03-26T08:37:01Z</time></trkpt><trkpt lat="39.08820492316306" lon="8.918947002160637"><ele>197.33333333333334</ele><time>2026-03-26T08:37:02Z</time></trkpt><trkpt lat="39.08828065272823" lon="8.918903608382221"><ele>197.66666666666669</ele><time>2026-03-26T08:37:03Z</time></trkpt><trkpt lat="39.08835666168335" lon="8.91886379497156"><ele>198.0</ele><time>2026-03-26T08:37:04Z</time></trkpt><trkpt lat="39.08843339668072" lon="8.918827522869991"><ele>198.33333333333331</ele><time>2026-03-26T08:37:05Z</time></trkpt><trkpt lat="39.08852107193567" lon="8.918786877128262"><ele>198.66666666666666</ele><time>2026-03-26T08:37:06Z</time></trkpt><trkpt lat="39.08861133868983" lon="8.918741751899537"><ele>199.0</ele><time>2026-03-26T08:37:07Z</time></trkpt><trkpt lat="39.08869894992468" lon="8.918703648937354"><ele>198.99999999999997</ele><time>2026-03-26T08:37:08Z</time></trkpt><trkpt lat="39.088780379995306" lon="8.918667380756933"><ele>199.0</ele><time>2026-03-26T08:37:09Z</time></trkpt><trkpt lat="39.08885324780973" lon="8.91862546462159"><ele>199.0</ele><time>2026-03-26T08:37:10Z</time></trkpt><trkpt lat="39.08892276489977" lon="8.918571005505825"><ele>199.0</ele><time>2026-03-26T08:37:11Z</time></trkpt><trkpt lat="39.0889943270062" lon="8.918529757986404"><ele>198.99999999999997</ele><time>2026-03-26T08:37:12Z</time></trkpt><trkpt lat="39.08906621410974" lon="8.918485029005225"><ele>199.0</ele><time>2026-03-26T08:37:13Z</time></trkpt><trkpt lat="39.08913441649148" lon="8.91843330734699"><ele>198.16666666666666</ele><time>2026-03-26T08:37:14Z</time></trkpt><trkpt lat="39.08919852268864" lon="8.918381025219334"><ele>197.33333333333331</ele><time>2026-03-26T08:37:15Z</time></trkpt><trkpt lat="39.089267727643254" lon="8.91833481710116"><ele>196.5</ele><time>2026-03-26T08:37:16Z</time></trkpt><trkpt lat="39.089335017633495" lon="8.918288993243928"><ele>195.66666666666669</ele><time>2026-03-26T08:37:17Z</time></trkpt><trkpt lat="39.08940088413497" lon="8.918241173636885"><ele>194.83333333333334</ele><time>2026-03-26T08:37:18Z</time></trkpt><trkpt lat="39.08947409028792" lon="8.91818161192181"><ele>194.0</ele><time>2026-03-26T08:37:19Z</time></trkpt><trkpt lat="39.089549092923704" lon="8.91811139899726"><ele>194.0</ele><time>2026-03-26T08:37:20Z</time></trkpt><trkpt lat="39.089628185270406" lon="8.91804293968306"><ele>194.0</ele><time>2026-03-26T08:37:21Z</time></trkpt><trkpt lat="39.08970710309709" lon="8.917973482949424"><ele>194.0</ele><time>2026-03-26T08:37:22Z</time></trkpt><trkpt lat="39.08980344209342" lon="8.917905696692621"><ele>194.0</ele><time>2026-03-26T08:37:23Z</time></trkpt><trkpt lat="39.08989532730212" lon="8.917854450158794"><ele>194.0</ele><time>2026-03-26T08:37:24Z</time></trkpt><trkpt lat="39.0899802867907" lon="8.917820175317928"><ele>194.2</ele><time>2026-03-26T08:37:25Z</time></trkpt><trkpt lat="39.09006916406694" lon="8.917779825804667"><ele>194.39999999999998</ele><time>2026-03-26T08:37:26Z</time></trkpt><trkpt lat="39.09016387633823" lon="8.917742444008665"><ele>194.6</ele><time>2026-03-26T08:37:27Z</time></trkpt><trkpt lat="39.09026130681519" lon="8.917692162105324"><ele>194.8</ele><time>2026-03-26T08:37:28Z</time></trkpt><trkpt lat="39.09035092732686" lon="8.91759986228596"><ele>195.0</ele><time>2026-03-26T08:37:29Z</time></trkpt><trkpt lat="39.09044178241189" lon="8.917500461428247"><ele>195.0</ele><time>2026-03-26T08:37:30Z</time></trkpt><trkpt lat="39.09052533493504" lon="8.917421575698992"><ele>195.0</ele><time>2026-03-26T08:37:31Z</time></trkpt><trkpt lat="39.0906015874951" lon="8.917349331435362"><ele>195.0</ele><time>2026-03-26T08:37:32Z</time></trkpt><trkpt lat="39.09067047911455" lon="8.917281611855941"><ele>195.0</ele><time>2026-03-26T08:37:33Z</time></trkpt><trkpt lat="39.09073023516345" lon="8.917230347468443"><ele>195.0</ele><time>2026-03-26T08:37:34Z</time></trkpt><trkpt lat="39.090787646888714" lon="8.917186853379032"><ele>195.0</ele><time>2026-03-26T08:37:35Z</time></trkpt><trkpt lat="39.090846959797" lon="8.917131159689925"><ele>195.0</ele><time>2026-03-26T08:37:36Z</time></trkpt><trkpt lat="39.0909079827049" lon="8.91704319465209"><ele>195.0</ele><time>2026-03-26T08:37:37Z</time></trkpt><trkpt lat="39.09096749136416" lon="8.91694693586351"><ele>195.0</ele><time>2026-03-26T08:37:38.001Z</time></trkpt><trkpt lat="39.091035728215125" lon="8.91684920704546"><ele>195.0</ele><time>2026-03-26T08:37:39.001Z</time></trkpt><trkpt lat="39.09109779461884" lon="8.916750631292171"><ele>195.0</ele><time>2026-03-26T08:37:40.001Z</time></trkpt><trkpt lat="39.09115049225583" lon="8.916638378508177"><ele>195.0</ele><time>2026-03-26T08:37:41.001Z</time></trkpt><trkpt lat="39.09118838449615" lon="8.916527038626981"><ele>195.0</ele><time>2026-03-26T08:37:42.001Z</time></trkpt><trkpt lat="39.091223715937616" lon="8.916436310963391"><ele>195.0</ele><time>2026-03-26T08:37:43.001Z</time></trkpt><trkpt lat="39.09127451355658" lon="8.916364078506023"><ele>195.0</ele><time>2026-03-26T08:37:44.001Z</time></trkpt><trkpt lat="39.09132825757683" lon="8.916283063517517"><ele>195.0</ele><time>2026-03-26T08:37:45.001Z</time></trkpt><trkpt lat="39.091382657554746" lon="8.91620850392112"><ele>195.0</ele><time>2026-03-26T08:37:46.001Z</time></trkpt><trkpt lat="39.091405654964454" lon="8.916113958540778"><ele>195.0</ele><time>2026-03-26T08:37:47.001Z</time></trkpt><trkpt lat="39.091400985739526" lon="8.915992404845255"><ele>195.0</ele><time>2026-03-26T08:37:48.001Z</time></trkpt><trkpt lat="39.09137696785507" lon="8.91587347323075"><ele>195.0</ele><time>2026-03-26T08:37:49.001Z</time></trkpt><trkpt lat="39.0913682194192" lon="8.915772579705932"><ele>195.0</ele><time>2026-03-26T08:37:50.001Z</time></trkpt><trkpt lat="39.09138006482568" lon="8.915680536386834"><ele>195.0</ele><time>2026-03-26T08:37:51.001Z</time></trkpt><trkpt lat="39.09139862662137" lon="8.915576238108002"><ele>195.0</ele><time>2026-03-26T08:37:52.001Z</time></trkpt><trkpt lat="39.09142442005811" lon="8.915451228465807"><ele>196.0</ele><time>2026-03-26T08:37:53Z</time></trkpt><trkpt lat="39.09143902903185" lon="8.915328181336353"><ele>197.0</ele><time>2026-03-26T08:37:54Z</time></trkpt><trkpt lat="39.09144808429138" lon="8.915201188285426"><ele>198.0</ele><time>2026-03-26T08:37:55Z</time></trkpt><trkpt lat="39.09145148142496" lon="8.915069018777249"><ele>199.0</ele><time>2026-03-26T08:37:56Z</time></trkpt><trkpt lat="39.09144992255798" lon="8.91494904256303"><ele>200.0</ele><time>2026-03-26T08:37:57Z</time></trkpt><trkpt lat="39.09144716533202" lon="8.914847294370484"><ele>200.8</ele><time>2026-03-26T08:37:58Z</time></trkpt><trkpt lat="39.09145482953674" lon="8.914749524208833"><ele>201.6</ele><time>2026-03-26T08:37:59Z</time></trkpt><trkpt lat="39.09147651762606" lon="8.914615609897112"><ele>202.39999999999998</ele><time>2026-03-26T08:38:01Z</time></trkpt><trkpt lat="39.091502959395235" lon="8.914509234541887"><ele>203.2</ele><time>2026-03-26T08:38:03Z</time></trkpt><trkpt lat="39.09147918870657" lon="8.914410040821704"><ele>204.0</ele><time>2026-03-26T08:38:05Z</time></trkpt><trkpt lat="39.09141322186734" lon="8.914294520730438"><ele>204.66666666666666</ele><time>2026-03-26T08:38:07Z</time></trkpt><trkpt lat="39.091361084643076" lon="8.914211177305637"><ele>205.33333333333331</ele><time>2026-03-26T08:38:08Z</time></trkpt><trkpt lat="39.09130473601417" lon="8.914155398287262"><ele>206.0</ele><time>2026-03-26T08:38:09Z</time></trkpt><trkpt lat="39.09124023158639" lon="8.914098725874965"><ele>206.66666666666666</ele><time>2026-03-26T08:38:10Z</time></trkpt><trkpt lat="39.09111752192574" lon="8.914009656119088"><ele>207.33333333333331</ele><time>2026-03-26T08:38:12Z</time></trkpt><trkpt lat="39.09104432513151" lon="8.913993515995372"><ele>208.0</ele><time>2026-03-26T08:38:13Z</time></trkpt><trkpt lat="39.090978107617666" lon="8.914000070891769"><ele>207.99999999999997</ele><time>2026-03-26T08:38:14Z</time></trkpt><trkpt lat="39.09091252310987" lon="8.914001269257376"><ele>208.0</ele><time>2026-03-26T08:38:15Z</time></trkpt><trkpt lat="39.09083895667556" lon="8.914014460244406"><ele>208.0</ele><time>2026-03-26T08:38:16Z</time></trkpt><trkpt lat="39.09076109672055" lon="8.914034074530553"><ele>208.0</ele><time>2026-03-26T08:38:17Z</time></trkpt><trkpt lat="39.09069684591511" lon="8.914059846988923"><ele>207.99999999999997</ele><time>2026-03-26T08:38:18Z</time></trkpt><trkpt lat="39.090589230369105" lon="8.914059922713268"><ele>208.0</ele><time>2026-03-26T08:38:20Z</time></trkpt><trkpt lat="39.090499982271844" lon="8.913977261768132"><ele>210.4</ele><time>2026-03-26T08:38:22Z</time></trkpt><trkpt lat="39.09046336915065" lon="8.913902689124892"><ele>212.8</ele><time>2026-03-26T08:38:23Z</time></trkpt><trkpt lat="39.09043342009273" lon="8.913798057989561"><ele>215.2</ele><time>2026-03-26T08:38:24Z</time></trkpt><trkpt lat="39.09041125187885" lon="8.91367912208344"><ele>217.6</ele><time>2026-03-26T08:38:25Z</time></trkpt><trkpt lat="39.09040070410039" lon="8.913553025734165"><ele>220.0</ele><time>2026-03-26T08:38:25.999Z</time></trkpt><trkpt lat="39.09040651430384" lon="8.91342210338226"><ele>219.83333333333331</ele><time>2026-03-26T08:38:26.999Z</time></trkpt><trkpt lat="39.09041762982635" lon="8.913285410335861"><ele>219.66666666666666</ele><time>2026-03-26T08:38:27.999Z</time></trkpt><trkpt lat="39.09044146699918" lon="8.913164186739756"><ele>219.5</ele><time>2026-03-26T08:38:28.999Z</time></trkpt><trkpt lat="39.0904656892332" lon="8.913065773914424"><ele>219.33333333333331</ele><time>2026-03-26T08:38:29.999Z</time></trkpt><trkpt lat="39.09049978767345" lon="8.912982789922527"><ele>219.16666666666666</ele><time>2026-03-26T08:38:30.999Z</time></trkpt><trkpt lat="39.09052524822329" lon="8.912907768371705"><ele>219.0</ele><time>2026-03-26T08:38:31.999Z</time></trkpt><trkpt lat="39.09058213060103" lon="8.912768511829164"><ele>219.0</ele><time>2026-03-26T08:38:33.999Z</time></trkpt><trkpt lat="39.09065079751021" lon="8.912732932948824"><ele>219.0</ele><time>2026-03-26T08:38:34.999Z</time></trkpt><trkpt lat="39.09071719921991" lon="8.912686835534748"><ele>219.0</ele><time>2026-03-26T08:38:35.999Z</time></trkpt><trkpt lat="39.09077288823569" lon="8.912608513047118"><ele>219.0</ele><time>2026-03-26T08:38:36.999Z</time></trkpt><trkpt lat="39.090825212138164" lon="8.912505340443156"><ele>219.0</ele><time>2026-03-26T08:38:37.999Z</time></trkpt><trkpt lat="39.09088217740274" lon="8.912407475985882"><ele>219.0</ele><time>2026-03-26T08:38:38.999Z</time></trkpt><trkpt lat="39.09095170353643" lon="8.912316130217707"><ele>217.6</ele><time>2026-03-26T08:38:39.999Z</time></trkpt><trkpt lat="39.09102866904823" lon="8.912224215512573"><ele>216.2</ele><time>2026-03-26T08:38:40.999Z</time></trkpt><trkpt lat="39.091104357407126" lon="8.912113664013098"><ele>214.79999999999998</ele><time>2026-03-26T08:38:41.999Z</time></trkpt><trkpt lat="39.09117144607705" lon="8.911993888781833"><ele>213.39999999999998</ele><time>2026-03-26T08:38:42.999Z</time></trkpt><trkpt lat="39.09123465228739" lon="8.911895302783957"><ele>212.0</ele><time>2026-03-26T08:38:43.999Z</time></trkpt><trkpt lat="39.09130074927357" lon="8.911822128030769"><ele>212.00000000000003</ele><time>2026-03-26T08:38:44.999Z</time></trkpt><trkpt lat="39.0913710526832" lon="8.911766606119874"><ele>212.0</ele><time>2026-03-26T08:38:45.999Z</time></trkpt><trkpt lat="39.091434977099745" lon="8.91169620488487"><ele>212.0</ele><time>2026-03-26T08:38:46.999Z</time></trkpt><trkpt lat="39.091484826356385" lon="8.911612119454016"><ele>212.0</ele><time>2026-03-26T08:38:47.999Z</time></trkpt><trkpt lat="39.09152712876928" lon="8.911511546111166"><ele>212.00000000000003</ele><time>2026-03-26T08:38:48.999Z</time></trkpt><trkpt lat="39.09158851816225" lon="8.911419301343267"><ele>212.0</ele><time>2026-03-26T08:38:49.999Z</time></trkpt><trkpt lat="39.09167165171027" lon="8.91133977635282"><ele>212.16666666666669</ele><time>2026-03-26T08:38:50.999Z</time></trkpt><trkpt lat="39.091749869293515" lon="8.91126793659398"><ele>212.33333333333334</ele><time>2026-03-26T08:38:51.999Z</time></trkpt><trkpt lat="39.091823032933" lon="8.911198812401436"><ele>212.5</ele><time>2026-03-26T08:38:52.999Z</time></trkpt><trkpt lat="39.091891534436336" lon="8.91114567913572"><ele>212.66666666666669</ele><time>2026-03-26T08:38:53.999Z</time></trkpt><trkpt lat="39.09195643773968" lon="8.911108754474697"><ele>212.83333333333334</ele><time>2026-03-26T08:38:54.999Z</time></trkpt><trkpt lat="39.09201656142262" lon="8.911065528079432"><ele>213.0</ele><time>2026-03-26T08:38:55.999Z</time></trkpt><trkpt lat="39.09210260826172" lon="8.910974345529468"><ele>213.66666666666666</ele><time>2026-03-26T08:38:57.999Z</time></trkpt><trkpt lat="39.0921348506216" lon="8.910898567256663"><ele>214.33333333333331</ele><time>2026-03-26T08:38:59.999Z</time></trkpt><trkpt lat="39.09218164454841" lon="8.91079766291413"><ele>215.0</ele><time>2026-03-26T08:39:03.999Z</time></trkpt><trkpt lat="39.09222072843715" lon="8.910683710693736"><ele>215.66666666666666</ele><time>2026-03-26T08:39:06.999Z</time></trkpt><trkpt lat="39.092251133691136" lon="8.910597942114265"><ele>216.33333333333331</ele><time>2026-03-26T08:39:08.999Z</time></trkpt><trkpt lat="39.09231279685471" lon="8.910516965456786"><ele>217.0</ele><time>2026-03-26T08:39:10.999Z</time></trkpt><trkpt lat="39.09239394943783" lon="8.910465776497622"><ele>216.16666666666666</ele><time>2026-03-26T08:39:12.999Z</time></trkpt><trkpt lat="39.092480454184106" lon="8.910438467163091"><ele>215.33333333333331</ele><time>2026-03-26T08:39:14.999Z</time></trkpt><trkpt lat="39.09256532343175" lon="8.91042462261213"><ele>214.5</ele><time>2026-03-26T08:39:16.999Z</time></trkpt><trkpt lat="39.09262995706822" lon="8.910424363855842"><ele>213.66666666666669</ele><time>2026-03-26T08:39:18.999Z</time></trkpt><trkpt lat="39.09269022333776" lon="8.910351715076128"><ele>212.83333333333334</ele><time>2026-03-26T08:39:21.999Z</time></trkpt><trkpt lat="39.09258255875801" lon="8.910275512816932"><ele>212.0</ele><time>2026-03-26T08:40:14.999Z</time></trkpt><trkpt lat="39.09252798148793" lon="8.91018247211072"><ele>212.00000000000003</ele><time>2026-03-26T08:40:16.999Z</time></trkpt><trkpt lat="39.092524936660745" lon="8.910097006911718"><ele>212.0</ele><time>2026-03-26T08:40:20.999Z</time></trkpt><trkpt lat="39.09258496949541" lon="8.910007627763314"><ele>212.0</ele><time>2026-03-26T08:40:23.999Z</time></trkpt><trkpt lat="39.09261790863094" lon="8.909918818189622"><ele>212.0</ele><time>2026-03-26T08:40:25.999Z</time></trkpt><trkpt lat="39.09258590204672" lon="8.909845385953696"><ele>212.00000000000003</ele><time>2026-03-26T08:40:29.999Z</time></trkpt><trkpt lat="39.09249982418558" lon="8.909862689039905"><ele>212.0</ele><time>2026-03-26T08:40:32.999Z</time></trkpt><trkpt lat="39.09241175003277" lon="8.909711191129647"><ele>216.0</ele><time>2026-03-26T08:40:35.999Z</time></trkpt><trkpt lat="39.09232935979285" lon="8.909632336622751"><ele>220.0</ele><time>2026-03-26T08:40:37.999Z</time></trkpt><trkpt lat="39.09226765854876" lon="8.9096009817175"><ele>224.0</ele><time>2026-03-26T08:40:38.999Z</time></trkpt><trkpt lat="39.09215351730465" lon="8.909543040890496"><ele>228.0</ele><time>2026-03-26T08:40:40.999Z</time></trkpt><trkpt lat="39.09206131113962" lon="8.909421535567187"><ele>232.0</ele><time>2026-03-26T08:40:42.999Z</time></trkpt><trkpt lat="39.09200668474823" lon="8.909366469469788"><ele>232.00000000000003</ele><time>2026-03-26T08:40:43.999Z</time></trkpt><trkpt lat="39.091948501469545" lon="8.909332289302478"><ele>232.0</ele><time>2026-03-26T08:40:44.999Z</time></trkpt><trkpt lat="39.091884647525966" lon="8.909296988800556"><ele>232.00000000000003</ele><time>2026-03-26T08:40:45.999Z</time></trkpt><trkpt lat="39.091820965348056" lon="8.909254253597366"><ele>232.00000000000003</ele><time>2026-03-26T08:40:46.999Z</time></trkpt><trkpt lat="39.091762743561" lon="8.909196797938653"><ele>232.0</ele><time>2026-03-26T08:40:47.999Z</time></trkpt><trkpt lat="39.09173557040996" lon="8.909096809211755"><ele>232.00000000000003</ele><time>2026-03-26T08:40:51.999Z</time></trkpt><trkpt lat="39.091809885788784" lon="8.909048375867423"><ele>232.00000000000003</ele><time>2026-03-26T08:40:53.999Z</time></trkpt><trkpt lat="39.09186674897864" lon="8.90897725896262"><ele>234.39999999999998</ele><time>2026-03-26T08:40:56.999Z</time></trkpt><trkpt lat="39.09190476175491" lon="8.908844786911125"><ele>236.79999999999998</ele><time>2026-03-26T08:40:59.999Z</time></trkpt><trkpt lat="39.09188625670943" lon="8.908741727381585"><ele>239.2</ele><time>2026-03-26T08:41:02.999Z</time></trkpt><trkpt lat="39.091829343195286" lon="8.90878699381873"><ele>241.6</ele><time>2026-03-26T08:41:05.999Z</time></trkpt><trkpt lat="39.091768892591" lon="8.908825021222542"><ele>244.0</ele><time>2026-03-26T08:41:07.999Z</time></trkpt><trkpt lat="39.09158653200353" lon="8.908842003192001"><ele>249.2</ele><time>2026-03-26T08:41:09.999Z</time></trkpt><trkpt lat="39.091467333619576" lon="8.908877126831202"><ele>254.39999999999998</ele><time>2026-03-26T08:41:11.999Z</time></trkpt><trkpt lat="39.09135208779919" lon="8.908893739280666"><ele>259.6</ele><time>2026-03-26T08:41:13.999Z</time></trkpt><trkpt lat="39.091235454339454" lon="8.908900408404682"><ele>264.8</ele><time>2026-03-26T08:41:15.999Z</time></trkpt><trkpt lat="39.091142381609885" lon="8.908911931494956"><ele>270.0</ele><time>2026-03-26T08:41:17.999Z</time></trkpt><trkpt lat="39.09108353360493" lon="8.908948184364334"><ele>270.0</ele><time>2026-03-26T08:42:20.999Z</time></trkpt><trkpt lat="39.09101829814102" lon="8.908949620745632"><ele>270.0</ele><time>2026-03-26T08:42:22.999Z</time></trkpt><trkpt lat="39.09091511642196" lon="8.908924734988945"><ele>270.0</ele><time>2026-03-26T08:42:24.999Z</time></trkpt><trkpt lat="39.090809481161266" lon="8.908930590794172"><ele>270.0</ele><time>2026-03-26T08:42:26.999Z</time></trkpt><trkpt lat="39.09072651314585" lon="8.909016086955559"><ele>270.0</ele><time>2026-03-26T08:42:28.999Z</time></trkpt><trkpt lat="39.090641595457534" lon="8.909044597099268"><ele>270.0</ele><time>2026-03-26T08:42:30.999Z</time></trkpt><trkpt lat="39.090610075916786" lon="8.90894020123614"><ele>270.0</ele><time>2026-03-26T08:42:33.999Z</time></trkpt><trkpt lat="39.090663604530846" lon="8.908866913641592"><ele>270.0</ele><time>2026-03-26T08:42:37.999Z</time></trkpt><trkpt lat="39.09067471715704" lon="8.908752277026315"><ele>270.0</ele><time>2026-03-26T08:42:39.999Z</time></trkpt><trkpt lat="39.09073609250298" lon="8.908678225264039"><ele>270.0</ele><time>2026-03-26T08:42:41.999Z</time></trkpt><trkpt lat="39.09081771640345" lon="8.908614243789614"><ele>270.0</ele><time>2026-03-26T08:42:43.999Z</time></trkpt><trkpt lat="39.09088798427631" lon="8.908548063316573"><ele>270.0</ele><time>2026-03-26T08:42:44.999Z</time></trkpt><trkpt lat="39.090941357923484" lon="8.908496546627816"><ele>270.0</ele><time>2026-03-26T08:42:45.999Z</time></trkpt><trkpt lat="39.09099395480464" lon="8.908437020546964"><ele>270.0</ele><time>2026-03-26T08:42:46.999Z</time></trkpt><trkpt lat="39.091046695025405" lon="8.908361080728048"><ele>270.0</ele><time>2026-03-26T08:42:47.999Z</time></trkpt><trkpt lat="39.09110177221324" lon="8.90828520402245"><ele>270.0</ele><time>2026-03-26T08:42:48.999Z</time></trkpt><trkpt lat="39.09115456400414" lon="8.908206679160433"><ele>270.0</ele><time>2026-03-26T08:42:49.999Z</time></trkpt><trkpt lat="39.09119386581979" lon="8.908128034287797"><ele>271.85714285714283</ele><time>2026-03-26T08:42:50.999Z</time></trkpt><trkpt lat="39.091222978800744" lon="8.90804123464047"><ele>273.71428571428567</ele><time>2026-03-26T08:42:51.999Z</time></trkpt><trkpt lat="39.09126089958769" lon="8.907958568365533"><ele>275.57142857142856</ele><time>2026-03-26T08:42:52.999Z</time></trkpt><trkpt lat="39.09129510899216" lon="8.907876281823922"><ele>277.42857142857144</ele><time>2026-03-26T08:42:53.999Z</time></trkpt><trkpt lat="39.09131878603423" lon="8.907795774133707"><ele>279.28571428571433</ele><time>2026-03-26T08:42:54.999Z</time></trkpt><trkpt lat="39.0913402416498" lon="8.907707687343677"><ele>281.14285714285717</ele><time>2026-03-26T08:42:56.999Z</time></trkpt><trkpt lat="39.09127749464422" lon="8.907716517006609"><ele>283.0</ele><time>2026-03-26T08:42:58.999Z</time></trkpt><trkpt lat="39.09122945032466" lon="8.907786704383886"><ele>283.0</ele><time>2026-03-26T08:43:00.999Z</time></trkpt><trkpt lat="39.0911417241942" lon="8.90787375883396"><ele>283.0</ele><time>2026-03-26T08:43:03.999Z</time></trkpt><trkpt lat="39.091035757805265" lon="8.90792253454479"><ele>283.0</ele><time>2026-03-26T08:43:05.999Z</time></trkpt><trkpt lat="39.09092705083685" lon="8.907944755975628"><ele>283.0</ele><time>2026-03-26T08:43:07.999Z</time></trkpt><trkpt lat="39.09086363003405" lon="8.907938237295147"><ele>283.0</ele><time>2026-03-26T08:43:08.999Z</time></trkpt><trkpt lat="39.0907481607563" lon="8.907887523518902"><ele>289.4</ele><time>2026-03-26T08:43:10.999Z</time></trkpt><trkpt lat="39.09064313656198" lon="8.907860660825861"><ele>295.8</ele><time>2026-03-26T08:43:12.999Z</time></trkpt><trkpt lat="39.09059503563573" lon="8.907808284364686"><ele>302.2</ele><time>2026-03-26T08:43:13.999Z</time></trkpt><trkpt lat="39.090480224966214" lon="8.907746980759326"><ele>308.6</ele><time>2026-03-26T08:43:15.999Z</time></trkpt><trkpt lat="39.0903901252802" lon="8.90772187900838"><ele>315.0</ele><time>2026-03-26T08:43:17.999Z</time></trkpt><trkpt lat="39.09028284555287" lon="8.907769700406288"><ele>315.0</ele><time>2026-03-26T08:43:19.999Z</time></trkpt><trkpt lat="39.09018810018375" lon="8.907861760336207"><ele>315.0</ele><time>2026-03-26T08:43:21.999Z</time></trkpt><trkpt lat="39.09014950282114" lon="8.90793670649592"><ele>315.0</ele><time>2026-03-26T08:43:22.999Z</time></trkpt><trkpt lat="39.090117852923164" lon="8.908022644305744"><ele>315.0</ele><time>2026-03-26T08:43:23.999Z</time></trkpt><trkpt lat="39.09007457446898" lon="8.908093104895524"><ele>315.0</ele><time>2026-03-26T08:43:24.999Z</time></trkpt><trkpt lat="39.09002666602558" lon="8.90814896564313"><ele>315.0</ele><time>2026-03-26T08:43:25.999Z</time></trkpt><trkpt lat="39.08997371500896" lon="8.90819617030895"><ele>320.0</ele><time>2026-03-26T08:43:26.999Z</time></trkpt><trkpt lat="39.089917314370204" lon="8.908239026031138"><ele>325.0</ele><time>2026-03-26T08:43:27.999Z</time></trkpt><trkpt lat="39.08985471952888" lon="8.908262256898258"><ele>330.0</ele><time>2026-03-26T08:43:28.999Z</time></trkpt><trkpt lat="39.08973196750487" lon="8.908276226939021"><ele>335.0</ele><time>2026-03-26T08:43:30.999Z</time></trkpt><trkpt lat="39.08966639377715" lon="8.908281162654895"><ele>340.0</ele><time>2026-03-26T08:43:31.999Z</time></trkpt><trkpt lat="39.08955355777893" lon="8.908303747584476"><ele>345.0</ele><time>2026-03-26T08:43:33.999Z</time></trkpt><trkpt lat="39.08949920770296" lon="8.90835367895453"><ele>345.0</ele><time>2026-03-26T08:43:34.999Z</time></trkpt><trkpt lat="39.089435232885826" lon="8.90840121937812"><ele>345.0</ele><time>2026-03-26T08:43:35.999Z</time></trkpt><trkpt lat="39.08938010843702" lon="8.908444496632518"><ele>345.0</ele><time>2026-03-26T08:43:36.999Z</time></trkpt><trkpt lat="39.08931938877957" lon="8.908489846228006"><ele>345.0</ele><time>2026-03-26T08:43:37.999Z</time></trkpt><trkpt lat="39.08923510879284" lon="8.908519464369236"><ele>345.0</ele><time>2026-03-26T08:43:38.999Z</time></trkpt><trkpt lat="39.089173698265235" lon="8.908564179796468"><ele>345.0</ele><time>2026-03-26T08:43:39.999Z</time></trkpt><trkpt lat="39.089129007571515" lon="8.908622118684196"><ele>345.0</ele><time>2026-03-26T08:43:40.999Z</time></trkpt><trkpt lat="39.08905778298901" lon="8.908661067861097"><ele>345.0</ele><time>2026-03-26T08:43:42.999Z</time></trkpt><trkpt lat="39.088998884068694" lon="8.908627783658345"><ele>345.0</ele><time>2026-03-26T08:43:44.999Z</time></trkpt><trkpt lat="39.08902297208055" lon="8.908526798176139"><ele>345.0</ele><time>2026-03-26T08:43:46.999Z</time></trkpt><trkpt lat="39.089095090260294" lon="8.908410512526297"><ele>345.0</ele><time>2026-03-26T08:43:48.999Z</time></trkpt><trkpt lat="39.08915955502676" lon="8.908307868130308"><ele>345.0</ele><time>2026-03-26T08:43:50.999Z</time></trkpt><trkpt lat="39.08921570598022" lon="8.908188633175557"><ele>345.0</ele><time>2026-03-26T08:43:52.999Z</time></trkpt><trkpt lat="39.089266965660435" lon="8.90812249559109"><ele>345.0</ele><time>2026-03-26T08:43:54.999Z</time></trkpt><trkpt lat="39.08931812010875" lon="8.90802719364718"><ele>345.0</ele><time>2026-03-26T08:43:56Z</time></trkpt><trkpt lat="39.089368410936714" lon="8.90794837952489"><ele>345.0</ele><time>2026-03-26T08:43:57Z</time></trkpt><trkpt lat="39.089425982903116" lon="8.907875406786017"><ele>345.0</ele><time>2026-03-26T08:43:58Z</time></trkpt><trkpt lat="39.08949526645937" lon="8.907827731311908"><ele>345.0</ele><time>2026-03-26T08:43:59Z</time></trkpt><trkpt lat="39.0895968181386" lon="8.907758851088872"><ele>345.0</ele><time>2026-03-26T08:44:01Z</time></trkpt><trkpt lat="39.089635601536166" lon="8.907673989543769"><ele>345.0</ele><time>2026-03-26T08:44:02Z</time></trkpt><trkpt lat="39.08965931903483" lon="8.9075961117758"><ele>345.0</ele><time>2026-03-26T08:44:03Z</time></trkpt><trkpt lat="39.08967496452497" lon="8.90746542526226"><ele>345.0</ele><time>2026-03-26T08:44:05Z</time></trkpt><trkpt lat="39.08967790240378" lon="8.907373597704936"><ele>345.0</ele><time>2026-03-26T08:44:06Z</time></trkpt><trkpt lat="39.089695959806726" lon="8.907291233573348"><ele>345.0</ele><time>2026-03-26T08:44:07Z</time></trkpt><trkpt lat="39.089732299443824" lon="8.907223238001668"><ele>345.0</ele><time>2026-03-26T08:44:08Z</time></trkpt><trkpt lat="39.08976355662077" lon="8.907149159957925"><ele>344.1666666666667</ele><time>2026-03-26T08:44:09Z</time></trkpt><trkpt lat="39.08979286837713" lon="8.907074310731998"><ele>343.3333333333333</ele><time>2026-03-26T08:44:10Z</time></trkpt><trkpt lat="39.089846970654015" lon="8.907015440319407"><ele>342.5</ele><time>2026-03-26T08:44:11Z</time></trkpt><trkpt lat="39.08993907137397" lon="8.906902403444949"><ele>341.66666666666663</ele><time>2026-03-26T08:44:13Z</time></trkpt><trkpt lat="39.08998781834314" lon="8.906824561912929"><ele>340.8333333333333</ele><time>2026-03-26T08:44:14Z</time></trkpt><trkpt lat="39.09004418481638" lon="8.9067717589133"><ele>340.0</ele><time>2026-03-26T08:44:15Z</time></trkpt><trkpt lat="39.09010510347423" lon="8.906716918986579"><ele>343.16666666666663</ele><time>2026-03-26T08:44:16Z</time></trkpt><trkpt lat="39.09014999047974" lon="8.906659774571633"><ele>346.3333333333333</ele><time>2026-03-26T08:44:17Z</time></trkpt><trkpt lat="39.09019515785223" lon="8.906599577651058"><ele>349.5</ele><time>2026-03-26T08:44:18Z</time></trkpt><trkpt lat="39.09022243927301" lon="8.906507655737954"><ele>352.6666666666667</ele><time>2026-03-26T08:44:20Z</time></trkpt><trkpt lat="39.09017475383403" lon="8.90641936501425"><ele>355.83333333333337</ele><time>2026-03-26T08:44:21.999Z</time></trkpt><trkpt lat="39.09010856136252" lon="8.906367181058616"><ele>359.0</ele><time>2026-03-26T08:44:22.999Z</time></trkpt><trkpt lat="39.090019548037176" lon="8.906283514402054"><ele>359.0</ele><time>2026-03-26T08:44:24.999Z</time></trkpt><trkpt lat="39.0899676637646" lon="8.906236232010594"><ele>359.0</ele><time>2026-03-26T08:44:25.999Z</time></trkpt><trkpt lat="39.08985554296611" lon="8.906220832128794"><ele>359.0</ele><time>2026-03-26T08:44:27.999Z</time></trkpt><trkpt lat="39.0897452749614" lon="8.906190043855267"><ele>359.0</ele><time>2026-03-26T08:44:29.999Z</time></trkpt><trkpt lat="39.08966191043187" lon="8.90615184487582"><ele>359.0</ele><time>2026-03-26T08:44:31.999Z</time></trkpt><trkpt lat="39.089602790219736" lon="8.90609959604012"><ele>359.0</ele><time>2026-03-26T08:44:33.999Z</time></trkpt><trkpt lat="39.08952894502768" lon="8.906035768914208"><ele>358.83333333333337</ele><time>2026-03-26T08:44:35.999Z</time></trkpt><trkpt lat="39.08945853515886" lon="8.905974457702474"><ele>358.6666666666667</ele><time>2026-03-26T08:44:37.999Z</time></trkpt><trkpt lat="39.08938642684911" lon="8.905914323303502"><ele>358.5</ele><time>2026-03-26T08:44:39.999Z</time></trkpt><trkpt lat="39.08930616904254" lon="8.905859981988083"><ele>358.3333333333333</ele><time>2026-03-26T08:44:41.999Z</time></trkpt><trkpt lat="39.089202938993644" lon="8.905858539350431"><ele>358.16666666666663</ele><time>2026-03-26T08:44:43.999Z</time></trkpt><trkpt lat="39.089137669662506" lon="8.905861626501151"><ele>358.0</ele><time>2026-03-26T08:44:44.999Z</time></trkpt><trkpt lat="39.0890678969688" lon="8.90586948066098"><ele>362.0</ele><time>2026-03-26T08:44:45.999Z</time></trkpt><trkpt lat="39.08900016008231" lon="8.905887065956561"><ele>366.0</ele><time>2026-03-26T08:44:46.999Z</time></trkpt><trkpt lat="39.08893289111927" lon="8.905917365375563"><ele>370.0</ele><time>2026-03-26T08:44:47.999Z</time></trkpt><trkpt lat="39.088828521147704" lon="8.90596445622131"><ele>374.0</ele><time>2026-03-26T08:44:49.999Z</time></trkpt><trkpt lat="39.08876277112099" lon="8.90597003539142"><ele>378.0</ele><time>2026-03-26T08:44:50.999Z</time></trkpt><trkpt lat="39.08867575373128" lon="8.905967275213703"><ele>382.0</ele><time>2026-03-26T08:44:52.999Z</time></trkpt><trkpt lat="39.08860652049784" lon="8.905942082492537"><ele>382.0</ele><time>2026-03-26T08:44:54.999Z</time></trkpt><trkpt lat="39.088565340150275" lon="8.905859379402441"><ele>382.0</ele><time>2026-03-26T08:44:56.999Z</time></trkpt><trkpt lat="39.088513903453325" lon="8.905715329499282"><ele>382.0</ele><time>2026-03-26T08:44:58.999Z</time></trkpt><trkpt lat="39.088501964756645" lon="8.905590985690893"><ele>382.0</ele><time>2026-03-26T08:44:59.999Z</time></trkpt><trkpt lat="39.0884954229213" lon="8.90550489901899"><ele>382.0</ele><time>2026-03-26T08:45:00.999Z</time></trkpt><trkpt lat="39.08850075079428" lon="8.905350114220031"><ele>382.0</ele><time>2026-03-26T08:45:02.999Z</time></trkpt><trkpt lat="39.08850960884127" lon="8.905261796537731"><ele>382.0</ele><time>2026-03-26T08:45:03.999Z</time></trkpt><trkpt lat="39.088529075826486" lon="8.905168068154172"><ele>382.0</ele><time>2026-03-26T08:45:04.999Z</time></trkpt><trkpt lat="39.08853407630054" lon="8.905055017225767"><ele>382.0</ele><time>2026-03-26T08:45:05.999Z</time></trkpt><trkpt lat="39.088538617001" lon="8.904960165170374"><ele>382.0</ele><time>2026-03-26T08:45:06.999Z</time></trkpt><trkpt lat="39.088591004754015" lon="8.904823496816194"><ele>382.0</ele><time>2026-03-26T08:45:08.999Z</time></trkpt><trkpt lat="39.08860213844507" lon="8.904736725314919"><ele>382.0</ele><time>2026-03-26T08:45:09.999Z</time></trkpt><trkpt lat="39.08860775290319" lon="8.904636728607262"><ele>382.0</ele><time>2026-03-26T08:45:10.999Z</time></trkpt><trkpt lat="39.08861060751611" lon="8.904534313971256"><ele>382.0</ele><time>2026-03-26T08:45:11.999Z</time></trkpt><trkpt lat="39.08861566107002" lon="8.904436500417045"><ele>382.0</ele><time>2026-03-26T08:45:12.999Z</time></trkpt><trkpt lat="39.08862040889309" lon="8.904348281424653"><ele>382.0</ele><time>2026-03-26T08:45:13.999Z</time></trkpt><trkpt lat="39.08863379344969" lon="8.90418780790649"><ele>382.0</ele><time>2026-03-26T08:45:15.999Z</time></trkpt><trkpt lat="39.088684967386705" lon="8.904040905372602"><ele>383.20000000000005</ele><time>2026-03-26T08:45:17.999Z</time></trkpt><trkpt lat="39.08871586407609" lon="8.903883243335486"><ele>384.4</ele><time>2026-03-26T08:45:19.999Z</time></trkpt><trkpt lat="39.0887539023666" lon="8.903818318888746"><ele>385.6</ele><time>2026-03-26T08:45:20.999Z</time></trkpt><trkpt lat="39.08880321416804" lon="8.903699132009747"><ele>386.79999999999995</ele><time>2026-03-26T08:45:22.999Z</time></trkpt><trkpt lat="39.08887507347678" lon="8.903584157302117"><ele>388.0</ele><time>2026-03-26T08:45:24.999Z</time></trkpt><trkpt lat="39.088890322701694" lon="8.903464095820048"><ele>388.2</ele><time>2026-03-26T08:45:26.999Z</time></trkpt><trkpt lat="39.08888370881061" lon="8.90331563572801"><ele>388.4</ele><time>2026-03-26T08:45:28.999Z</time></trkpt><trkpt lat="39.08885289330375" lon="8.903176889317445"><ele>388.59999999999997</ele><time>2026-03-26T08:45:30.999Z</time></trkpt><trkpt lat="39.08878915787139" lon="8.903090674745439"><ele>388.79999999999995</ele><time>2026-03-26T08:45:32.999Z</time></trkpt><trkpt lat="39.088686217406845" lon="8.903083740551288"><ele>389.0</ele><time>2026-03-26T08:45:34.999Z</time></trkpt><trkpt lat="39.08857841805392" lon="8.903124533995983"><ele>389.0</ele><time>2026-03-26T08:45:36.999Z</time></trkpt><trkpt lat="39.08848095844225" lon="8.90312999437983"><ele>389.0</ele><time>2026-03-26T08:45:38.999Z</time></trkpt><trkpt lat="39.08838905306812" lon="8.903143597559525"><ele>389.0</ele><time>2026-03-26T08:45:40.999Z</time></trkpt><trkpt lat="39.08831417260518" lon="8.90316322422884"><ele>389.0</ele><time>2026-03-26T08:45:42.999Z</time></trkpt><trkpt lat="39.08821087688175" lon="8.903193598305407"><ele>389.0</ele><time>2026-03-26T08:45:44.999Z</time></trkpt><trkpt lat="39.08809642032613" lon="8.903226953860761"><ele>394.66666666666663</ele><time>2026-03-26T08:45:46.999Z</time></trkpt><trkpt lat="39.08803246860172" lon="8.903238161137962"><ele>400.3333333333333</ele><time>2026-03-26T08:45:47.999Z</time></trkpt><trkpt lat="39.087966207693896" lon="8.903242691420688"><ele>406.0</ele><time>2026-03-26T08:45:48.999Z</time></trkpt><trkpt lat="39.08789230865237" lon="8.903238897817774"><ele>411.66666666666663</ele><time>2026-03-26T08:45:49.999Z</time></trkpt><trkpt lat="39.08778954276541" lon="8.903205833807812"><ele>417.3333333333333</ele><time>2026-03-26T08:45:51.999Z</time></trkpt><trkpt lat="39.08772850879885" lon="8.90315210264389"><ele>423.0</ele><time>2026-03-26T08:45:54.999Z</time></trkpt><trkpt lat="39.08773052956099" lon="8.903053808629021"><ele>423.0</ele><time>2026-03-26T08:45:56.999Z</time></trkpt><trkpt lat="39.08774809213465" lon="8.902932390595868"><ele>423.0</ele><time>2026-03-26T08:45:57.999Z</time></trkpt><trkpt lat="39.0877498527474" lon="8.902836703209587"><ele>423.0</ele><time>2026-03-26T08:45:58.999Z</time></trkpt><trkpt lat="39.08775177008447" lon="8.902739725761737"><ele>423.0</ele><time>2026-03-26T08:45:59.999Z</time></trkpt><trkpt lat="39.08773794487416" lon="8.902653403027253"><ele>423.0</ele><time>2026-03-26T08:46:00.999Z</time></trkpt><trkpt lat="39.08770090310302" lon="8.902567457352502"><ele>423.0</ele><time>2026-03-26T08:46:02Z</time></trkpt><trkpt lat="39.087683902401174" lon="8.902478481088623"><ele>425.1666666666667</ele><time>2026-03-26T08:46:03Z</time></trkpt><trkpt lat="39.08767329384885" lon="8.902388035299701"><ele>427.33333333333337</ele><time>2026-03-26T08:46:04Z</time></trkpt><trkpt lat="39.08762257501809" lon="8.902275465893828"><ele>429.5</ele><time>2026-03-26T08:46:06Z</time></trkpt><trkpt lat="39.0875569589702" lon="8.902172792043583"><ele>431.6666666666667</ele><time>2026-03-26T08:46:08Z</time></trkpt><trkpt lat="39.08751311641069" lon="8.902106859834666"><ele>433.83333333333337</ele><time>2026-03-26T08:46:09Z</time></trkpt><trkpt lat="39.08745466242535" lon="8.902050596885502"><ele>436.0</ele><time>2026-03-26T08:46:10Z</time></trkpt><trkpt lat="39.08739292551815" lon="8.901982768406814"><ele>436.0</ele><time>2026-03-26T08:46:11Z</time></trkpt><trkpt lat="39.08733323501088" lon="8.901929006798479"><ele>436.0</ele><time>2026-03-26T08:46:12Z</time></trkpt><trkpt lat="39.08728542564993" lon="8.901873211713134"><ele>436.0</ele><time>2026-03-26T08:46:13Z</time></trkpt><trkpt lat="39.08719434415466" lon="8.901811648960667"><ele>436.0</ele><time>2026-03-26T08:46:15Z</time></trkpt><trkpt lat="39.08713431707372" lon="8.901779851786207"><ele>436.0</ele><time>2026-03-26T08:46:16Z</time></trkpt><trkpt lat="39.08707083142836" lon="8.901760875165303"><ele>436.0</ele><time>2026-03-26T08:46:17Z</time></trkpt><trkpt lat="39.08700139087308" lon="8.90174492775408"><ele>436.0</ele><time>2026-03-26T08:46:18Z</time></trkpt><trkpt lat="39.086929074549495" lon="8.901727094786716"><ele>436.00000000000006</ele><time>2026-03-26T08:46:19Z</time></trkpt><trkpt lat="39.086857658321144" lon="8.901722392790948"><ele>436.0</ele><time>2026-03-26T08:46:20Z</time></trkpt><trkpt lat="39.0867786326089" lon="8.901719520676181"><ele>436.0</ele><time>2026-03-26T08:46:21Z</time></trkpt><trkpt lat="39.08669949565921" lon="8.901753186899354"><ele>436.0</ele><time>2026-03-26T08:46:22Z</time></trkpt><trkpt lat="39.086610423947484" lon="8.901754075184098"><ele>436.00000000000006</ele><time>2026-03-26T08:46:23Z</time></trkpt><trkpt lat="39.08654506250982" lon="8.90175366360323"><ele>436.0</ele><time>2026-03-26T08:46:24Z</time></trkpt><trkpt lat="39.08642650599271" lon="8.90177629607308"><ele>439.20000000000005</ele><time>2026-03-26T08:46:26Z</time></trkpt><trkpt lat="39.08633610575111" lon="8.901803323474253"><ele>442.40000000000003</ele><time>2026-03-26T08:46:27Z</time></trkpt><trkpt lat="39.08626419675086" lon="8.901816414087545"><ele>445.6</ele><time>2026-03-26T08:46:28Z</time></trkpt><trkpt lat="39.086149962984884" lon="8.90182439495273"><ele>448.8</ele><time>2026-03-26T08:46:30Z</time></trkpt><trkpt lat="39.086029286677935" lon="8.901825369161726"><ele>452.0</ele><time>2026-03-26T08:46:32Z</time></trkpt><trkpt lat="39.085910971143726" lon="8.901782479251054"><ele>448.20000000000005</ele><time>2026-03-26T08:46:34Z</time></trkpt><trkpt lat="39.0858057087806" lon="8.90170797662494"><ele>444.40000000000003</ele><time>2026-03-26T08:46:36Z</time></trkpt><trkpt lat="39.085739793914435" lon="8.901624218341325"><ele>440.59999999999997</ele><time>2026-03-26T08:46:38Z</time></trkpt><trkpt lat="39.085642303407106" lon="8.901563836730343"><ele>436.79999999999995</ele><time>2026-03-26T08:46:39.999Z</time></trkpt><trkpt lat="39.08554385373806" lon="8.901490824112539"><ele>433.0</ele><time>2026-03-26T08:46:41.999Z</time></trkpt><trkpt lat="39.085433457097984" lon="8.901414226037671"><ele>432.99999999999994</ele><time>2026-03-26T08:46:43.999Z</time></trkpt><trkpt lat="39.08537235247642" lon="8.901388614861139"><ele>433.0</ele><time>2026-03-26T08:46:44.999Z</time></trkpt><trkpt lat="39.08531628451687" lon="8.90133565255036"><ele>433.0</ele><time>2026-03-26T08:46:45.999Z</time></trkpt><trkpt lat="39.085255680852896" lon="8.901287083697987"><ele>433.0</ele><time>2026-03-26T08:46:46.999Z</time></trkpt><trkpt lat="39.08519624650076" lon="8.901239830894866"><ele>433.0</ele><time>2026-03-26T08:46:47.999Z</time></trkpt><trkpt lat="39.085125806315546" lon="8.901194617658202"><ele>432.99999999999994</ele><time>2026-03-26T08:46:48.999Z</time></trkpt><trkpt lat="39.085053068726154" lon="8.90113984734955"><ele>433.0</ele><time>2026-03-26T08:46:49.999Z</time></trkpt><trkpt lat="39.08498525197283" lon="8.901089425224015"><ele>434.50000000000006</ele><time>2026-03-26T08:46:50.999Z</time></trkpt><trkpt lat="39.084920789560236" lon="8.901035304011733"><ele>436.0</ele><time>2026-03-26T08:46:51.999Z</time></trkpt><trkpt lat="39.084858708130646" lon="8.901004207699764"><ele>437.5</ele><time>2026-03-26T08:46:52.999Z</time></trkpt><trkpt lat="39.08476430783164" lon="8.900932483587793"><ele>439.0</ele><time>2026-03-26T08:46:54.999Z</time></trkpt><trkpt lat="39.08468115453759" lon="8.900856393456932"><ele>440.50000000000006</ele><time>2026-03-26T08:46:56.999Z</time></trkpt><trkpt lat="39.0846128729038" lon="8.900777306560949"><ele>442.0</ele><time>2026-03-26T08:46:58.999Z</time></trkpt><trkpt lat="39.08461565015108" lon="8.900685992893335"><ele>442.0</ele><time>2026-03-26T08:47:01.999Z</time></trkpt><trkpt lat="39.08463803827002" lon="8.900590186248172"><ele>442.00000000000006</ele><time>2026-03-26T08:47:03.999Z</time></trkpt><trkpt lat="39.08470364524486" lon="8.900449979003186"><ele>442.00000000000006</ele><time>2026-03-26T08:47:06.999Z</time></trkpt><trkpt lat="39.08472759690413" lon="8.90036164791257"><ele>442.0</ele><time>2026-03-26T08:47:07.999Z</time></trkpt><trkpt lat="39.084763249321405" lon="8.900225709357283"><ele>442.0</ele><time>2026-03-26T08:47:09.999Z</time></trkpt><trkpt lat="39.084784091074106" lon="8.900073354016042"><ele>443.8</ele><time>2026-03-26T08:47:11.999Z</time></trkpt><trkpt lat="39.084837753359" lon="8.899946631591057"><ele>445.6</ele><time>2026-03-26T08:47:13.999Z</time></trkpt><trkpt lat="39.084935201241926" lon="8.89990613571425"><ele>447.40000000000003</ele><time>2026-03-26T08:47:15.999Z</time></trkpt><trkpt lat="39.08502439767957" lon="8.899784101865317"><ele>449.20000000000005</ele><time>2026-03-26T08:47:17.999Z</time></trkpt><trkpt lat="39.08508176490405" lon="8.899709969823792"><ele>451.0</ele><time>2026-03-26T08:47:18.999Z</time></trkpt><trkpt lat="39.08512746930327" lon="8.899652360305655"><ele>445.7142857142857</ele><time>2026-03-26T08:47:19.999Z</time></trkpt><trkpt lat="39.08517575322233" lon="8.899581101161703"><ele>440.42857142857144</ele><time>2026-03-26T08:47:20.999Z</time></trkpt><trkpt lat="39.085212230881226" lon="8.89949852457111"><ele>435.14285714285717</ele><time>2026-03-26T08:47:21.999Z</time></trkpt><trkpt lat="39.0852414056334" lon="8.899419653657608"><ele>429.8571428571429</ele><time>2026-03-26T08:47:22.999Z</time></trkpt><trkpt lat="39.085277715747864" lon="8.899346928117343"><ele>424.57142857142856</ele><time>2026-03-26T08:47:23.999Z</time></trkpt><trkpt lat="39.08530765728759" lon="8.899260175640238"><ele>419.28571428571433</ele><time>2026-03-26T08:47:24.999Z</time></trkpt><trkpt lat="39.08534489866162" lon="8.899171943028792"><ele>414.0</ele><time>2026-03-26T08:47:25.999Z</time></trkpt><trkpt lat="39.08537510642481" lon="8.899093472056967"><ele>414.0</ele><time>2026-03-26T08:47:26.999Z</time></trkpt><trkpt lat="39.085395742335024" lon="8.899015506390976"><ele>414.0</ele><time>2026-03-26T08:47:27.999Z</time></trkpt><trkpt lat="39.08538750518032" lon="8.898877335208471"><ele>414.0</ele><time>2026-03-26T08:47:29.999Z</time></trkpt><trkpt lat="39.08537183577001" lon="8.898798194714187"><ele>414.0</ele><time>2026-03-26T08:47:30.999Z</time></trkpt><trkpt lat="39.08530907533042" lon="8.898687463967335"><ele>414.0</ele><time>2026-03-26T08:47:32.999Z</time></trkpt><trkpt lat="39.08521565740816" lon="8.898629815679234"><ele>414.0</ele><time>2026-03-26T08:47:34.999Z</time></trkpt><trkpt lat="39.085119295503446" lon="8.898587819054674"><ele>414.0</ele><time>2026-03-26T08:47:36.999Z</time></trkpt><trkpt lat="39.08505660685203" lon="8.898563442026196"><ele>414.0</ele><time>2026-03-26T08:47:37.999Z</time></trkpt><trkpt lat="39.08495382835018" lon="8.89854152609011"><ele>414.0</ele><time>2026-03-26T08:47:39.999Z</time></trkpt><trkpt lat="39.08487730892095" lon="8.89850080943821"><ele>414.0</ele><time>2026-03-26T08:47:41.999Z</time></trkpt><trkpt lat="39.08476533165569" lon="8.898484672068006"><ele>414.0</ele><time>2026-03-26T08:47:43.999Z</time></trkpt><trkpt lat="39.084694250759874" lon="8.898459826867017"><ele>414.0</ele><time>2026-03-26T08:47:44.999Z</time></trkpt><trkpt lat="39.084614523346694" lon="8.898434250859905"><ele>416.1666666666667</ele><time>2026-03-26T08:47:45.999Z</time></trkpt><trkpt lat="39.084547833931445" lon="8.89841112187527"><ele>418.33333333333337</ele><time>2026-03-26T08:47:46.999Z</time></trkpt><trkpt lat="39.08448816167433" lon="8.898381758910569"><ele>420.5</ele><time>2026-03-26T08:47:47.999Z</time></trkpt><trkpt lat="39.084427760908774" lon="8.89835404789274"><ele>422.6666666666667</ele><time>2026-03-26T08:47:48.999Z</time></trkpt><trkpt lat="39.08432964635098" lon="8.898314373376238"><ele>424.83333333333337</ele><time>2026-03-26T08:47:50.999Z</time></trkpt><trkpt lat="39.08424505393506" lon="8.898283448010524"><ele>427.0</ele><time>2026-03-26T08:47:52.999Z</time></trkpt><trkpt lat="39.08418396260343" lon="8.898196617457685"><ele>427.00000000000006</ele><time>2026-03-26T08:47:54.999Z</time></trkpt><trkpt lat="39.08410615653333" lon="8.898162304887904"><ele>427.0</ele><time>2026-03-26T08:47:56.999Z</time></trkpt><trkpt lat="39.084065835745804" lon="8.89809689334931"><ele>427.0</ele><time>2026-03-26T08:47:58.999Z</time></trkpt><trkpt lat="39.084073248053976" lon="8.897996672716873"><ele>427.0</ele><time>2026-03-26T08:48:01.999Z</time></trkpt><trkpt lat="39.084124562681254" lon="8.897904124319531"><ele>427.00000000000006</ele><time>2026-03-26T08:48:03.999Z</time></trkpt><trkpt lat="39.08414867291492" lon="8.897778971210077"><ele>427.0</ele><time>2026-03-26T08:48:05.999Z</time></trkpt><trkpt lat="39.08418738210665" lon="8.897671405420649"><ele>425.40000000000003</ele><time>2026-03-26T08:48:09Z</time></trkpt><trkpt lat="39.08420785110579" lon="8.897552338225271"><ele>423.80000000000007</ele><time>2026-03-26T08:48:11Z</time></trkpt><trkpt lat="39.08422290673062" lon="8.897449202357704"><ele>422.2</ele><time>2026-03-26T08:48:13Z</time></trkpt><trkpt lat="39.084275517066814" lon="8.897238516940481"><ele>420.6</ele><time>2026-03-26T08:48:16Z</time></trkpt><trkpt lat="39.084286988215645" lon="8.897151407362603"><ele>419.0</ele><time>2026-03-26T08:48:17Z</time></trkpt><trkpt lat="39.084320691630424" lon="8.89701148595133"><ele>419.0</ele><time>2026-03-26T08:48:19Z</time></trkpt><trkpt lat="39.084319647078" lon="8.896883348202843"><ele>419.0</ele><time>2026-03-26T08:48:21Z</time></trkpt><trkpt lat="39.08429103367784" lon="8.896738066619662"><ele>419.0</ele><time>2026-03-26T08:48:24Z</time></trkpt><trkpt lat="39.08429335093285" lon="8.89663269506163"><ele>419.0</ele><time>2026-03-26T08:48:25Z</time></trkpt><trkpt lat="39.0842818522507" lon="8.896548772040505"><ele>419.0</ele><time>2026-03-26T08:48:26Z</time></trkpt><trkpt lat="39.08426930920158" lon="8.896427661091648"><ele>420.0</ele><time>2026-03-26T08:48:28Z</time></trkpt><trkpt lat="39.08426288141492" lon="8.896309844981541"><ele>421.0</ele><time>2026-03-26T08:48:31Z</time></trkpt><trkpt lat="39.08429124992226" lon="8.896164397418902"><ele>422.0</ele><time>2026-03-26T08:48:33Z</time></trkpt><trkpt lat="39.084335171999406" lon="8.896037988480606"><ele>423.0</ele><time>2026-03-26T08:48:35Z</time></trkpt><trkpt lat="39.0844257797252" lon="8.895948706002395"><ele>424.0</ele><time>2026-03-26T08:48:37Z</time></trkpt><trkpt lat="39.084455947881686" lon="8.896026141738153"><ele>424.0</ele><time>2026-03-26T08:48:38Z</time></trkpt><trkpt lat="39.084533285795224" lon="8.895998124091838"><ele>424.0</ele><time>2026-03-26T08:48:39Z</time></trkpt><trkpt lat="39.08463826308608" lon="8.895918923341448"><ele>424.0</ele><time>2026-03-26T08:48:42Z</time></trkpt><trkpt lat="39.084703673023974" lon="8.895785886990236"><ele>424.0</ele><time>2026-03-26T08:48:44Z</time></trkpt><trkpt lat="39.084787835159496" lon="8.895698618656079"><ele>424.0</ele><time>2026-03-26T08:48:45.999Z</time></trkpt><trkpt lat="39.084866556675145" lon="8.895600632094483"><ele>426.83333333333337</ele><time>2026-03-26T08:48:47.999Z</time></trkpt><trkpt lat="39.08490587229365" lon="8.895500467099039"><ele>429.6666666666667</ele><time>2026-03-26T08:48:49.999Z</time></trkpt><trkpt lat="39.08488997404076" lon="8.895395949375411"><ele>432.5</ele><time>2026-03-26T08:48:51.999Z</time></trkpt><trkpt lat="39.08487249818437" lon="8.895304481614401"><ele>435.33333333333337</ele><time>2026-03-26T08:48:52.999Z</time></trkpt><trkpt lat="39.084839466194445" lon="8.895229179904653"><ele>438.1666666666667</ele><time>2026-03-26T08:48:53.999Z</time></trkpt><trkpt lat="39.084805762828545" lon="8.895152719937292"><ele>441.0</ele><time>2026-03-26T08:48:54.999Z</time></trkpt><trkpt lat="39.084768505628446" lon="8.895058311648606"><ele>443.0</ele><time>2026-03-26T08:48:55.999Z</time></trkpt><trkpt lat="39.08472820827442" lon="8.894969425593947"><ele>445.0</ele><time>2026-03-26T08:48:56.999Z</time></trkpt><trkpt lat="39.08469393823935" lon="8.894882012968859"><ele>447.0</ele><time>2026-03-26T08:48:57.999Z</time></trkpt><trkpt lat="39.08466175184396" lon="8.894806940547955"><ele>449.0</ele><time>2026-03-26T08:48:58.999Z</time></trkpt><trkpt lat="39.08461253093651" lon="8.894704692388943"><ele>451.0</ele><time>2026-03-26T08:49:00.999Z</time></trkpt><trkpt lat="39.084567123592834" lon="8.894590830766996"><ele>453.0</ele><time>2026-03-26T08:49:02.999Z</time></trkpt><trkpt lat="39.08456506875456" lon="8.894449259951475"><ele>453.0</ele><time>2026-03-26T08:49:04.999Z</time></trkpt><trkpt lat="39.084571221608485" lon="8.894310891533223"><ele>452.99999999999994</ele><time>2026-03-26T08:49:06.999Z</time></trkpt><trkpt lat="39.08458616722051" lon="8.894163526597708"><ele>452.99999999999994</ele><time>2026-03-26T08:49:08.999Z</time></trkpt><trkpt lat="39.08456573823627" lon="8.894009616430413"><ele>453.0</ele><time>2026-03-26T08:49:10.999Z</time></trkpt><trkpt lat="39.084554671204415" lon="8.893924532566091"><ele>453.0</ele><time>2026-03-26T08:49:11.999Z</time></trkpt><trkpt lat="39.08454643026055" lon="8.893841521638365"><ele>451.59999999999997</ele><time>2026-03-26T08:49:12.999Z</time></trkpt><trkpt lat="39.084541973675925" lon="8.893760522367678"><ele>450.19999999999993</ele><time>2026-03-26T08:49:13.999Z</time></trkpt><trkpt lat="39.08453678916387" lon="8.893607658720873"><ele>448.8</ele><time>2026-03-26T08:49:15.999Z</time></trkpt><trkpt lat="39.08453040095617" lon="8.893469458898938"><ele>447.4</ele><time>2026-03-26T08:49:17.999Z</time></trkpt><trkpt lat="39.08453266640824" lon="8.893328055736232"><ele>446.0</ele><time>2026-03-26T08:49:19.999Z</time></trkpt><trkpt lat="39.084532437237534" lon="8.893174371707598"><ele>444.16666666666663</ele><time>2026-03-26T08:49:21.999Z</time></trkpt><trkpt lat="39.08452503567889" lon="8.89308429471767"><ele>442.3333333333333</ele><time>2026-03-26T08:49:22.999Z</time></trkpt><trkpt lat="39.08451924351201" lon="8.892994660614686"><ele>440.5</ele><time>2026-03-26T08:49:23.999Z</time></trkpt><trkpt lat="39.08451150377222" lon="8.892844790273752"><ele>438.66666666666663</ele><time>2026-03-26T08:49:25.999Z</time></trkpt><trkpt lat="39.08449394735247" lon="8.892731288726"><ele>436.8333333333333</ele><time>2026-03-26T08:49:27.999Z</time></trkpt><trkpt lat="39.08444061061994" lon="8.892655493798445"><ele>435.0</ele><time>2026-03-26T08:49:29.999Z</time></trkpt><trkpt lat="39.084367169854886" lon="8.892615155555912"><ele>435.0</ele><time>2026-03-26T08:49:31.999Z</time></trkpt><trkpt lat="39.08426038635828" lon="8.89264054492439"><ele>435.0</ele><time>2026-03-26T08:49:33.999Z</time></trkpt><trkpt lat="39.08419933327955" lon="8.892669704362334"><ele>435.0</ele><time>2026-03-26T08:49:34.999Z</time></trkpt><trkpt lat="39.08407391631792" lon="8.892691466465486"><ele>435.0</ele><time>2026-03-26T08:49:36.999Z</time></trkpt><trkpt lat="39.084001981417174" lon="8.892716160080669"><ele>435.0</ele><time>2026-03-26T08:49:37.999Z</time></trkpt><trkpt lat="39.083933886759716" lon="8.892741368159573"><ele>435.0</ele><time>2026-03-26T08:49:38.999Z</time></trkpt><trkpt lat="39.08386993149771" lon="8.892765534636933"><ele>436.3333333333333</ele><time>2026-03-26T08:49:39.999Z</time></trkpt><trkpt lat="39.083808833950414" lon="8.892788570929973"><ele>437.66666666666663</ele><time>2026-03-26T08:49:40.999Z</time></trkpt><trkpt lat="39.08369109774696" lon="8.892844333464044"><ele>439.0</ele><time>2026-03-26T08:49:42.999Z</time></trkpt><trkpt lat="39.08362890341442" lon="8.892887780731785"><ele>440.3333333333333</ele><time>2026-03-26T08:49:43.999Z</time></trkpt><trkpt lat="39.08352690093647" lon="8.892961354940656"><ele>441.66666666666663</ele><time>2026-03-26T08:49:45.999Z</time></trkpt><trkpt lat="39.083464522289944" lon="8.893002511005042"><ele>443.0</ele><time>2026-03-26T08:49:46.999Z</time></trkpt><trkpt lat="39.08335856148653" lon="8.893076467534899"><ele>442.99999999999994</ele><time>2026-03-26T08:49:48.999Z</time></trkpt><trkpt lat="39.0833055375453" lon="8.893121686625255"><ele>443.0</ele><time>2026-03-26T08:49:49.999Z</time></trkpt><trkpt lat="39.083216510356415" lon="8.893157094054281"><ele>443.0</ele><time>2026-03-26T08:49:51.999Z</time></trkpt><trkpt lat="39.083160531380564" lon="8.893216448715485"><ele>443.0</ele><time>2026-03-26T08:49:54.999Z</time></trkpt><trkpt lat="39.08309549738147" lon="8.893223403782269"><ele>442.99999999999994</ele><time>2026-03-26T08:49:57.999Z</time></trkpt><trkpt lat="39.08304606276029" lon="8.89315110470776"><ele>443.0</ele><time>2026-03-26T08:49:58.999Z</time></trkpt><trkpt lat="39.08303839476371" lon="8.893008057165025"><ele>444.99999999999994</ele><time>2026-03-26T08:50:00.999Z</time></trkpt><trkpt lat="39.08305811217086" lon="8.892906338524757"><ele>447.0</ele><time>2026-03-26T08:50:02.999Z</time></trkpt><trkpt lat="39.083085158423984" lon="8.892789516098368"><ele>449.0</ele><time>2026-03-26T08:50:04.999Z</time></trkpt><trkpt lat="39.08307933654911" lon="8.892692838996103"><ele>451.0</ele><time>2026-03-26T08:50:06.999Z</time></trkpt><trkpt lat="39.08309439766734" lon="8.892574782711597"><ele>452.99999999999994</ele><time>2026-03-26T08:50:08.999Z</time></trkpt><trkpt lat="39.08308965798029" lon="8.892483821766813"><ele>455.0</ele><time>2026-03-26T08:50:10.999Z</time></trkpt><trkpt lat="39.0831163082604" lon="8.892330636164303"><ele>455.0</ele><time>2026-03-26T08:50:12.999Z</time></trkpt><trkpt lat="39.08311770664477" lon="8.892186648174707"><ele>455.0</ele><time>2026-03-26T08:50:15Z</time></trkpt><trkpt lat="39.08308125204372" lon="8.89208638250373"><ele>455.0</ele><time>2026-03-26T08:50:17Z</time></trkpt><trkpt lat="39.08298407984466" lon="8.892021472505956"><ele>455.0</ele><time>2026-03-26T08:50:19Z</time></trkpt><trkpt lat="39.082923832374746" lon="8.891989338034353"><ele>455.0</ele><time>2026-03-26T08:50:20Z</time></trkpt><trkpt lat="39.082836108484884" lon="8.891940041357369"><ele>454.99999999999994</ele><time>2026-03-26T08:50:22Z</time></trkpt><trkpt lat="39.08275014062726" lon="8.891901248099964"><ele>455.0</ele><time>2026-03-26T08:50:24Z</time></trkpt><trkpt lat="39.08265312155504" lon="8.891888276937781"><ele>455.0</ele><time>2026-03-26T08:50:26Z</time></trkpt><trkpt lat="39.08258115058762" lon="8.891898287367695"><ele>455.0</ele><time>2026-03-26T08:50:27Z</time></trkpt><trkpt lat="39.082496127591945" lon="8.891891081122"><ele>454.99999999999994</ele><time>2026-03-26T08:50:29Z</time></trkpt><trkpt lat="39.082429982840644" lon="8.891899561660772"><ele>455.0</ele><time>2026-03-26T08:50:31Z</time></trkpt><trkpt lat="39.082347338805086" lon="8.891866646036375"><ele>455.6</ele><time>2026-03-26T08:50:34Z</time></trkpt><trkpt lat="39.08231966776123" lon="8.891771313565268"><ele>456.2</ele><time>2026-03-26T08:50:36Z</time></trkpt><trkpt lat="39.08227475190587" lon="8.8916575357336"><ele>456.79999999999995</ele><time>2026-03-26T08:50:38Z</time></trkpt><trkpt lat="39.082217248821195" lon="8.891547654911555"><ele>457.4</ele><time>2026-03-26T08:50:40Z</time></trkpt><trkpt lat="39.082144238988974" lon="8.891446331199168"><ele>458.0</ele><time>2026-03-26T08:50:42Z</time></trkpt><trkpt lat="39.08205969386656" lon="8.891380533562458"><ele>458.0</ele><time>2026-03-26T08:50:44Z</time></trkpt><trkpt lat="39.081978735729216" lon="8.891293783974906"><ele>457.99999999999994</ele><time>2026-03-26T08:50:46Z</time></trkpt><trkpt lat="39.08189619616244" lon="8.891200160498062"><ele>457.99999999999994</ele><time>2026-03-26T08:50:48Z</time></trkpt><trkpt lat="39.08181572363186" lon="8.891090562613819"><ele>458.0</ele><time>2026-03-26T08:50:50Z</time></trkpt><trkpt lat="39.081746435095496" lon="8.890985442376117"><ele>458.0</ele><time>2026-03-26T08:50:52Z</time></trkpt><trkpt lat="39.08167594830548" lon="8.890881530287835"><ele>454.2</ele><time>2026-03-26T08:50:54Z</time></trkpt><trkpt lat="39.08159251920401" lon="8.890789595117893"><ele>450.4</ele><time>2026-03-26T08:50:56Z</time></trkpt><trkpt lat="39.081500637083884" lon="8.890705357694268"><ele>446.59999999999997</ele><time>2026-03-26T08:50:58Z</time></trkpt><trkpt lat="39.08141902764437" lon="8.890637183374203"><ele>442.79999999999995</ele><time>2026-03-26T08:51:00Z</time></trkpt><trkpt lat="39.08135670625636" lon="8.89061113148578"><ele>439.0</ele><time>2026-03-26T08:51:01Z</time></trkpt><trkpt lat="39.08124460440426" lon="8.890557896118702"><ele>439.0</ele><time>2026-03-26T08:51:03Z</time></trkpt><trkpt lat="39.08118161343276" lon="8.890525155078777"><ele>439.0</ele><time>2026-03-26T08:51:03.999Z</time></trkpt><trkpt lat="39.081065285311695" lon="8.890476144845765"><ele>439.0</ele><time>2026-03-26T08:51:05.999Z</time></trkpt><trkpt lat="39.0809688082102" lon="8.890425220958432"><ele>439.0</ele><time>2026-03-26T08:51:07.999Z</time></trkpt><trkpt lat="39.0808592598144" lon="8.890386193215456"><ele>439.0</ele><time>2026-03-26T08:51:09.999Z</time></trkpt><trkpt lat="39.08077663891955" lon="8.890383432476252"><ele>436.1428571428571</ele><time>2026-03-26T08:51:10.999Z</time></trkpt><trkpt lat="39.080708427492645" lon="8.890362867693703"><ele>433.2857142857143</ele><time>2026-03-26T08:51:11.999Z</time></trkpt><trkpt lat="39.0806374686193" lon="8.890329649250567"><ele>430.42857142857144</ele><time>2026-03-26T08:51:13.999Z</time></trkpt><trkpt lat="39.080563196330466" lon="8.890289344396544"><ele>427.57142857142856</ele><time>2026-03-26T08:51:16.999Z</time></trkpt><trkpt lat="39.08049949047491" lon="8.890266940082247"><ele>424.7142857142857</ele><time>2026-03-26T08:53:29.999Z</time></trkpt><trkpt lat="39.080426844567164" lon="8.890247856342546"><ele>421.85714285714283</ele><time>2026-03-26T08:53:32.999Z</time></trkpt><trkpt lat="39.080365234393554" lon="8.890223964245168"><ele>419.0</ele><time>2026-03-26T08:53:34.999Z</time></trkpt><trkpt lat="39.080283625959765" lon="8.890110001971003"><ele>417.66666666666663</ele><time>2026-03-26T08:53:36.999Z</time></trkpt><trkpt lat="39.08024276449267" lon="8.890045503340263"><ele>416.3333333333333</ele><time>2026-03-26T08:53:37.999Z</time></trkpt><trkpt lat="39.08017913277348" lon="8.889917369822568"><ele>415.0</ele><time>2026-03-26T08:53:39.999Z</time></trkpt><trkpt lat="39.08011390166356" lon="8.889802162272506"><ele>413.66666666666663</ele><time>2026-03-26T08:53:41.999Z</time></trkpt><trkpt lat="39.080074405207796" lon="8.88973662779344"><ele>412.3333333333333</ele><time>2026-03-26T08:53:42.999Z</time></trkpt><trkpt lat="39.08002993619567" lon="8.889675915525485"><ele>411.0</ele><time>2026-03-26T08:53:43.999Z</time></trkpt><trkpt lat="39.07994895849485" lon="8.889561385093971"><ele>409.7142857142857</ele><time>2026-03-26T08:53:45.999Z</time></trkpt><trkpt lat="39.07992414217624" lon="8.889481217034225"><ele>408.42857142857144</ele><time>2026-03-26T08:53:46.999Z</time></trkpt><trkpt lat="39.0799098264261" lon="8.889390217009488"><ele>407.1428571428571</ele><time>2026-03-26T08:53:47.999Z</time></trkpt><trkpt lat="39.079878098228335" lon="8.889312079825471"><ele>405.8571428571429</ele><time>2026-03-26T08:53:48.999Z</time></trkpt><trkpt lat="39.07982835589776" lon="8.889245167946283"><ele>404.5714285714286</ele><time>2026-03-26T08:53:49.999Z</time></trkpt><trkpt lat="39.079781605812116" lon="8.8891783300721"><ele>403.2857142857143</ele><time>2026-03-26T08:53:50.999Z</time></trkpt><trkpt lat="39.07973230608387" lon="8.889113145190175"><ele>402.0</ele><time>2026-03-26T08:53:51.999Z</time></trkpt><trkpt lat="39.07967475018995" lon="8.889051756814236"><ele>402.0</ele><time>2026-03-26T08:53:52.999Z</time></trkpt><trkpt lat="39.07961445384624" lon="8.888988857507096"><ele>402.0</ele><time>2026-03-26T08:53:53.999Z</time></trkpt><trkpt lat="39.079555289904256" lon="8.888929153938752"><ele>402.0</ele><time>2026-03-26T08:53:54.999Z</time></trkpt><trkpt lat="39.079501600155254" lon="8.888866724821666"><ele>402.0</ele><time>2026-03-26T08:53:55.999Z</time></trkpt><trkpt lat="39.079401037772584" lon="8.888769107438014"><ele>402.0</ele><time>2026-03-26T08:53:57.999Z</time></trkpt><trkpt lat="39.079331595454526" lon="8.88874116597248"><ele>402.0</ele><time>2026-03-26T08:53:58.999Z</time></trkpt><trkpt lat="39.07925766978294" lon="8.888709852293518"><ele>402.0</ele><time>2026-03-26T08:53:59.999Z</time></trkpt><trkpt lat="39.07918316663504" lon="8.888691141142841"><ele>402.0</ele><time>2026-03-26T08:54:00.999Z</time></trkpt><trkpt lat="39.07910818087869" lon="8.888689008127908"><ele>402.0</ele><time>2026-03-26T08:54:01.999Z</time></trkpt><trkpt lat="39.07903738161157" lon="8.888676738896178"><ele>402.0</ele><time>2026-03-26T08:54:02.999Z</time></trkpt><trkpt lat="39.078973353454124" lon="8.88864091849402"><ele>402.0</ele><time>2026-03-26T08:54:03.999Z</time></trkpt><trkpt lat="39.078911993181" lon="8.888578974033889"><ele>402.0</ele><time>2026-03-26T08:54:04.999Z</time></trkpt><trkpt lat="39.07885337274329" lon="8.888520809657027"><ele>402.0</ele><time>2026-03-26T08:54:05.999Z</time></trkpt><trkpt lat="39.0787975281891" lon="8.888463387004697"><ele>400.6666666666667</ele><time>2026-03-26T08:54:06.999Z</time></trkpt><trkpt lat="39.07874731062363" lon="8.888411868870095"><ele>399.33333333333337</ele><time>2026-03-26T08:54:07.999Z</time></trkpt><trkpt lat="39.078660840471024" lon="8.88826848032335"><ele>398.0</ele><time>2026-03-26T08:54:09.999Z</time></trkpt><trkpt lat="39.078632070339836" lon="8.888181814207348"><ele>396.6666666666667</ele><time>2026-03-26T08:54:10.999Z</time></trkpt><trkpt lat="39.078610129832775" lon="8.888091486199928"><ele>395.33333333333337</ele><time>2026-03-26T08:54:11.999Z</time></trkpt><trkpt lat="39.07858358026867" lon="8.88800499327522"><ele>394.0</ele><time>2026-03-26T08:54:12.999Z</time></trkpt><trkpt lat="39.07855520312641" lon="8.88792919909751"><ele>394.00000000000006</ele><time>2026-03-26T08:54:13.999Z</time></trkpt><trkpt lat="39.07853083852875" lon="8.887853337986897"><ele>394.0</ele><time>2026-03-26T08:54:14.999Z</time></trkpt><trkpt lat="39.0785299625926" lon="8.887763455587042"><ele>394.0</ele><time>2026-03-26T08:54:15.999Z</time></trkpt><trkpt lat="39.07854702679067" lon="8.887660165594262"><ele>394.0</ele><time>2026-03-26T08:54:16.999Z</time></trkpt><trkpt lat="39.07855773637653" lon="8.887557037758725"><ele>394.00000000000006</ele><time>2026-03-26T08:54:17.999Z</time></trkpt><trkpt lat="39.07856689374081" lon="8.887474022460864"><ele>394.0</ele><time>2026-03-26T08:54:18.999Z</time></trkpt><trkpt lat="39.07856496387827" lon="8.887329988580369"><ele>396.79999999999995</ele><time>2026-03-26T08:54:20.999Z</time></trkpt><trkpt lat="39.078484738730495" lon="8.887210057618661"><ele>399.59999999999997</ele><time>2026-03-26T08:54:22.999Z</time></trkpt><trkpt lat="39.07841192150377" lon="8.887138675398923"><ele>402.4</ele><time>2026-03-26T08:54:23.999Z</time></trkpt><trkpt lat="39.07834378147532" lon="8.887069596873285"><ele>405.2</ele><time>2026-03-26T08:54:24.999Z</time></trkpt><trkpt lat="39.078277376054324" lon="8.88701748960105"><ele>408.0</ele><time>2026-03-26T08:54:26Z</time></trkpt><trkpt lat="39.078223798827615" lon="8.8869539313554"><ele>403.5</ele><time>2026-03-26T08:54:27Z</time></trkpt><trkpt lat="39.07818066801416" lon="8.886868232578577"><ele>399.0</ele><time>2026-03-26T08:54:28Z</time></trkpt><trkpt lat="39.07815183699993" lon="8.886788966337482"><ele>394.5</ele><time>2026-03-26T08:54:29Z</time></trkpt><trkpt lat="39.07814195818136" lon="8.886690964640081"><ele>390.0</ele><time>2026-03-26T08:54:30Z</time></trkpt><trkpt lat="39.07813828849947" lon="8.886587013042783"><ele>385.5</ele><time>2026-03-26T08:54:31Z</time></trkpt><trkpt lat="39.07812567271759" lon="8.88648313981116"><ele>381.0</ele><time>2026-03-26T08:54:32Z</time></trkpt><trkpt lat="39.07810233593803" lon="8.886381617850759"><ele>381.0</ele><time>2026-03-26T08:54:33Z</time></trkpt><trkpt lat="39.07806977156421" lon="8.88628982839467"><ele>381.0</ele><time>2026-03-26T08:54:34Z</time></trkpt><trkpt lat="39.07803775845901" lon="8.88619318832166"><ele>381.0</ele><time>2026-03-26T08:54:35Z</time></trkpt><trkpt lat="39.07800759383169" lon="8.886111523005523"><ele>381.0</ele><time>2026-03-26T08:54:36Z</time></trkpt><trkpt lat="39.07799436682603" lon="8.886022148579462"><ele>381.0</ele><time>2026-03-26T08:54:37Z</time></trkpt><trkpt lat="39.07799600196171" lon="8.885914089798373"><ele>381.0</ele><time>2026-03-26T08:54:38Z</time></trkpt><trkpt lat="39.07799717789472" lon="8.885821036132693"><ele>383.0</ele><time>2026-03-26T08:54:39Z</time></trkpt><trkpt lat="39.07797964292953" lon="8.885732917343965"><ele>385.0</ele><time>2026-03-26T08:54:40Z</time></trkpt><trkpt lat="39.077960093465514" lon="8.885649979868683"><ele>387.0</ele><time>2026-03-26T08:54:41Z</time></trkpt><trkpt lat="39.07794960220786" lon="8.88556668089923"><ele>389.0</ele><time>2026-03-26T08:54:42Z</time></trkpt><trkpt lat="39.077940927796135" lon="8.88547987643497"><ele>391.0</ele><time>2026-03-26T08:54:43Z</time></trkpt><trkpt lat="39.07793106651571" lon="8.885399135589878"><ele>393.0</ele><time>2026-03-26T08:54:44Z</time></trkpt><trkpt lat="39.07792176847847" lon="8.88524818663114"><ele>393.0</ele><time>2026-03-26T08:54:46Z</time></trkpt><trkpt lat="39.0779403079003" lon="8.88515844633827"><ele>393.0</ele><time>2026-03-26T08:54:47Z</time></trkpt><trkpt lat="39.07796195522229" lon="8.885059578360696"><ele>393.0</ele><time>2026-03-26T08:54:48Z</time></trkpt><trkpt lat="39.07795663212527" lon="8.884969809757889"><ele>393.0</ele><time>2026-03-26T08:54:49Z</time></trkpt><trkpt lat="39.0779175698672" lon="8.884805784006703"><ele>393.0</ele><time>2026-03-26T08:54:51Z</time></trkpt><trkpt lat="39.077873734774826" lon="8.884687933548781"><ele>391.6666666666667</ele><time>2026-03-26T08:54:53Z</time></trkpt><trkpt lat="39.07775419914193" lon="8.884628247393138"><ele>390.33333333333337</ele><time>2026-03-26T08:54:55Z</time></trkpt><trkpt lat="39.077677656786165" lon="8.884615435704713"><ele>389.0</ele><time>2026-03-26T08:54:56Z</time></trkpt><trkpt lat="39.07759477645943" lon="8.884586682760402"><ele>387.6666666666667</ele><time>2026-03-26T08:54:57Z</time></trkpt><trkpt lat="39.077529629313645" lon="8.884540215480058"><ele>386.33333333333337</ele><time>2026-03-26T08:54:58Z</time></trkpt><trkpt lat="39.07747427897928" lon="8.884483398771955"><ele>385.0</ele><time>2026-03-26T08:54:59Z</time></trkpt><trkpt lat="39.07736965123158" lon="8.884390953340837"><ele>385.0</ele><time>2026-03-26T08:55:01Z</time></trkpt><trkpt lat="39.077303608458784" lon="8.884342896827405"><ele>385.0</ele><time>2026-03-26T08:55:02Z</time></trkpt><trkpt lat="39.07723318768587" lon="8.884310542726238"><ele>385.0</ele><time>2026-03-26T08:55:03Z</time></trkpt><trkpt lat="39.07715851499203" lon="8.884291095620673"><ele>385.0</ele><time>2026-03-26T08:55:04Z</time></trkpt><trkpt lat="39.0770897982399" lon="8.884272267115714"><ele>385.0</ele><time>2026-03-26T08:55:05Z</time></trkpt><trkpt lat="39.07701355184592" lon="8.88427239698145"><ele>385.0</ele><time>2026-03-26T08:55:06Z</time></trkpt><trkpt lat="39.07694460651946" lon="8.884240003112064"><ele>385.0</ele><time>2026-03-26T08:55:07Z</time></trkpt><trkpt lat="39.07688450269119" lon="8.884202916951981"><ele>384.00000000000006</ele><time>2026-03-26T08:55:08Z</time></trkpt><trkpt lat="39.07683107933398" lon="8.884137819301179"><ele>383.0</ele><time>2026-03-26T08:55:09Z</time></trkpt><trkpt lat="39.076774290777465" lon="8.884065058715297"><ele>382.0</ele><time>2026-03-26T08:55:10Z</time></trkpt><trkpt lat="39.07671294274124" lon="8.883990261130306"><ele>381.0</ele><time>2026-03-26T08:55:11Z</time></trkpt><trkpt lat="39.0766426651571" lon="8.883915371511794"><ele>380.0</ele><time>2026-03-26T08:55:12Z</time></trkpt><trkpt lat="39.0765779811677" lon="8.883845777824645"><ele>379.0</ele><time>2026-03-26T08:55:13Z</time></trkpt><trkpt lat="39.07651806494455" lon="8.883773858470946"><ele>379.0</ele><time>2026-03-26T08:55:14Z</time></trkpt><trkpt lat="39.076473360446265" lon="8.883700014480082"><ele>379.0</ele><time>2026-03-26T08:55:15Z</time></trkpt><trkpt lat="39.07643055000011" lon="8.883637752636371"><ele>379.0</ele><time>2026-03-26T08:55:16Z</time></trkpt><trkpt lat="39.076311244864236" lon="8.883597481134226"><ele>379.0</ele><time>2026-03-26T08:55:18Z</time></trkpt><trkpt lat="39.0762341682843" lon="8.88359138460709"><ele>379.0</ele><time>2026-03-26T08:55:19Z</time></trkpt><trkpt lat="39.07613015413213" lon="8.88350514500617"><ele>379.0</ele><time>2026-03-26T08:55:21Z</time></trkpt><trkpt lat="39.07607407137265" lon="8.883431652615572"><ele>379.0</ele><time>2026-03-26T08:55:22Z</time></trkpt><trkpt lat="39.076003884761626" lon="8.883369893625902"><ele>379.0</ele><time>2026-03-26T08:55:23Z</time></trkpt><trkpt lat="39.07592488927187" lon="8.883314596227702"><ele>379.0</ele><time>2026-03-26T08:55:24Z</time></trkpt><trkpt lat="39.07586123428242" lon="8.883275274993306"><ele>379.0</ele><time>2026-03-26T08:55:25Z</time></trkpt><trkpt lat="39.07579956154504" lon="8.883232678140242"><ele>379.0</ele><time>2026-03-26T08:55:26Z</time></trkpt><trkpt lat="39.075665112482746" lon="8.88317341858397"><ele>381.3333333333333</ele><time>2026-03-26T08:55:28Z</time></trkpt><trkpt lat="39.075593967076145" lon="8.883139117389824"><ele>383.66666666666663</ele><time>2026-03-26T08:55:29Z</time></trkpt><trkpt lat="39.07552015252971" lon="8.883093680666951"><ele>386.0</ele><time>2026-03-26T08:55:30Z</time></trkpt><trkpt lat="39.075445811072925" lon="8.883030955875185"><ele>388.3333333333333</ele><time>2026-03-26T08:55:31Z</time></trkpt><trkpt lat="39.07537529007261" lon="8.88299942077911"><ele>390.6666666666667</ele><time>2026-03-26T08:55:32Z</time></trkpt><trkpt lat="39.07531244274876" lon="8.882979826563549"><ele>393.0</ele><time>2026-03-26T08:55:32.999Z</time></trkpt><trkpt lat="39.07520001183356" lon="8.882926628416245"><ele>393.0</ele><time>2026-03-26T08:55:34.999Z</time></trkpt><trkpt lat="39.07515436128996" lon="8.882862443150254"><ele>393.0</ele><time>2026-03-26T08:55:35.999Z</time></trkpt><trkpt lat="39.07509883695476" lon="8.88277189096258"><ele>393.0</ele><time>2026-03-26T08:55:36.999Z</time></trkpt><trkpt lat="39.07504035862926" lon="8.8827135379678"><ele>393.0</ele><time>2026-03-26T08:55:37.999Z</time></trkpt><trkpt lat="39.07489867225354" lon="8.882723942667658"><ele>393.0</ele><time>2026-03-26T08:55:39.999Z</time></trkpt><trkpt lat="39.07481596998261" lon="8.882760062806888"><ele>392.00000000000006</ele><time>2026-03-26T08:55:40.999Z</time></trkpt><trkpt lat="39.074735964820526" lon="8.88276440485544"><ele>391.0</ele><time>2026-03-26T08:55:41.999Z</time></trkpt><trkpt lat="39.074663383202044" lon="8.882773040183185"><ele>390.0</ele><time>2026-03-26T08:55:42.999Z</time></trkpt><trkpt lat="39.07459727616668" lon="8.882790064244295"><ele>389.0</ele><time>2026-03-26T08:55:43.999Z</time></trkpt><trkpt lat="39.07452938488332" lon="8.882792906917269"><ele>388.0</ele><time>2026-03-26T08:55:44.999Z</time></trkpt><trkpt lat="39.0744539304576" lon="8.882802682468714"><ele>387.00000000000006</ele><time>2026-03-26T08:55:45.999Z</time></trkpt><trkpt lat="39.074377478910826" lon="8.882808480820175"><ele>386.0</ele><time>2026-03-26T08:55:46.999Z</time></trkpt><trkpt lat="39.07430133454999" lon="8.882818857046988"><ele>385.99999999999994</ele><time>2026-03-26T08:55:47.999Z</time></trkpt><trkpt lat="39.07422886170823" lon="8.8828398549693"><ele>386.0</ele><time>2026-03-26T08:55:48.999Z</time></trkpt><trkpt lat="39.074164707713535" lon="8.882842077916706"><ele>386.0</ele><time>2026-03-26T08:55:49.999Z</time></trkpt><trkpt lat="39.07409260619322" lon="8.88281099726264"><ele>386.0</ele><time>2026-03-26T08:55:50.999Z</time></trkpt><trkpt lat="39.074010993403" lon="8.882748193880174"><ele>385.99999999999994</ele><time>2026-03-26T08:55:51.999Z</time></trkpt><trkpt lat="39.07393779294415" lon="8.882671654196084"><ele>386.0</ele><time>2026-03-26T08:55:52.999Z</time></trkpt><trkpt lat="39.073878343533735" lon="8.882595099210143"><ele>386.66666666666663</ele><time>2026-03-26T08:55:53.999Z</time></trkpt><trkpt lat="39.07381997558827" lon="8.882510741164754"><ele>387.3333333333333</ele><time>2026-03-26T08:55:54.999Z</time></trkpt><trkpt lat="39.073767724301355" lon="8.88242723434849"><ele>388.0</ele><time>2026-03-26T08:55:55.999Z</time></trkpt><trkpt lat="39.07371933174432" lon="8.882336785765643"><ele>388.66666666666663</ele><time>2026-03-26T08:55:56.999Z</time></trkpt><trkpt lat="39.07367286862737" lon="8.88223658238871"><ele>389.3333333333333</ele><time>2026-03-26T08:55:57.999Z</time></trkpt><trkpt lat="39.07362879579932" lon="8.882124256490679"><ele>390.0</ele><time>2026-03-26T08:55:58.999Z</time></trkpt><trkpt lat="39.07359401981919" lon="8.88202806751633"><ele>390.0</ele><time>2026-03-26T08:55:59.999Z</time></trkpt><trkpt lat="39.07356316900152" lon="8.881942633543863"><ele>390.0</ele><time>2026-03-26T08:56:00.999Z</time></trkpt><trkpt lat="39.07352125697764" lon="8.881867700335524"><ele>390.0</ele><time>2026-03-26T08:56:01.999Z</time></trkpt><trkpt lat="39.07346169525467" lon="8.881797803023995"><ele>390.0</ele><time>2026-03-26T08:56:02.999Z</time></trkpt><trkpt lat="39.073391863570905" lon="8.88172537175437"><ele>390.0</ele><time>2026-03-26T08:56:03.999Z</time></trkpt><trkpt lat="39.07331170640141" lon="8.88165614997052"><ele>390.0</ele><time>2026-03-26T08:56:04.999Z</time></trkpt><trkpt lat="39.07323855453933" lon="8.881567688893558"><ele>389.7142857142857</ele><time>2026-03-26T08:56:05.999Z</time></trkpt><trkpt lat="39.07317899733637" lon="8.881487838922174"><ele>389.42857142857144</ele><time>2026-03-26T08:56:06.999Z</time></trkpt><trkpt lat="39.07312447575957" lon="8.881418491396742"><ele>389.1428571428571</ele><time>2026-03-26T08:56:07.999Z</time></trkpt><trkpt lat="39.07307797692012" lon="8.88134978555237"><ele>388.8571428571429</ele><time>2026-03-26T08:56:08.999Z</time></trkpt><trkpt lat="39.07303037739021" lon="8.881281786711469"><ele>388.5714285714286</ele><time>2026-03-26T08:56:09.999Z</time></trkpt><trkpt lat="39.0729721774165" lon="8.881238172320025"><ele>388.2857142857143</ele><time>2026-03-26T08:56:10.999Z</time></trkpt><trkpt lat="39.07289750091674" lon="8.881220026600355"><ele>388.0</ele><time>2026-03-26T08:56:11.999Z</time></trkpt><trkpt lat="39.07281541190831" lon="8.881199641255835"><ele>388.0</ele><time>2026-03-26T08:56:12.999Z</time></trkpt><trkpt lat="39.07274913864723" lon="8.881160303712495"><ele>388.0</ele><time>2026-03-26T08:56:13.999Z</time></trkpt><trkpt lat="39.0726955922485" lon="8.881095036561765"><ele>388.0</ele><time>2026-03-26T08:56:14.999Z</time></trkpt><trkpt lat="39.07265320803134" lon="8.881011755895264"><ele>388.0</ele><time>2026-03-26T08:56:15.999Z</time></trkpt><trkpt lat="39.0726105923763" lon="8.880926768917442"><ele>388.0</ele><time>2026-03-26T08:56:16.999Z</time></trkpt><trkpt lat="39.07257102073596" lon="8.880856540773811"><ele>388.0</ele><time>2026-03-26T08:56:17.999Z</time></trkpt><trkpt lat="39.07254440710718" lon="8.880776343017377"><ele>388.0</ele><time>2026-03-26T08:56:18.999Z</time></trkpt><trkpt lat="39.0725367262647" lon="8.880685274162627"><ele>390.79999999999995</ele><time>2026-03-26T08:56:19.999Z</time></trkpt><trkpt lat="39.07253711904083" lon="8.880570723746509"><ele>393.6</ele><time>2026-03-26T08:56:20.999Z</time></trkpt><trkpt lat="39.072538684308" lon="8.88047019025491"><ele>396.4</ele><time>2026-03-26T08:56:21.999Z</time></trkpt><trkpt lat="39.07256292877161" lon="8.880314759672048"><ele>399.20000000000005</ele><time>2026-03-26T08:56:23.999Z</time></trkpt><trkpt lat="39.07260372865199" lon="8.880241806466586"><ele>402.0</ele><time>2026-03-26T08:56:24.999Z</time></trkpt><trkpt lat="39.07269941240221" lon="8.880134822573236"><ele>402.40000000000003</ele><time>2026-03-26T08:56:26.999Z</time></trkpt><trkpt lat="39.07274191995412" lon="8.880047283776094"><ele>402.8</ele><time>2026-03-26T08:56:27.999Z</time></trkpt><trkpt lat="39.072771985506336" lon="8.879967469176876"><ele>403.2</ele><time>2026-03-26T08:56:28.999Z</time></trkpt><trkpt lat="39.072827997077255" lon="8.87983385331401"><ele>403.6</ele><time>2026-03-26T08:56:30.999Z</time></trkpt><trkpt lat="39.07286902797881" lon="8.879768645763328"><ele>404.0</ele><time>2026-03-26T08:56:32Z</time></trkpt><trkpt lat="39.072908004611925" lon="8.879618265632246"><ele>404.0</ele><time>2026-03-26T08:56:34Z</time></trkpt><trkpt lat="39.072917034496534" lon="8.879524546201292"><ele>404.0</ele><time>2026-03-26T08:56:35Z</time></trkpt><trkpt lat="39.072893952164264" lon="8.879382400229193"><ele>404.0</ele><time>2026-03-26T08:56:37Z</time></trkpt><trkpt lat="39.07280469117936" lon="8.879248250677554"><ele>404.0</ele><time>2026-03-26T08:56:39Z</time></trkpt><trkpt lat="39.072745014234975" lon="8.87918087747211"><ele>404.0</ele><time>2026-03-26T08:56:40Z</time></trkpt><trkpt lat="39.072695411743936" lon="8.879126686888089"><ele>404.8333333333333</ele><time>2026-03-26T08:56:41Z</time></trkpt><trkpt lat="39.0726055601283" lon="8.87903071638301"><ele>405.66666666666663</ele><time>2026-03-26T08:56:43Z</time></trkpt><trkpt lat="39.07255305501722" lon="8.87898332119725"><ele>406.5</ele><time>2026-03-26T08:56:44Z</time></trkpt><trkpt lat="39.072496993220845" lon="8.878942185170489"><ele>407.33333333333337</ele><time>2026-03-26T08:56:45Z</time></trkpt><trkpt lat="39.07243004322955" lon="8.878917671554108"><ele>408.1666666666667</ele><time>2026-03-26T08:56:46Z</time></trkpt><trkpt lat="39.07235770897895" lon="8.878895681416434"><ele>409.0</ele><time>2026-03-26T08:56:47Z</time></trkpt><trkpt lat="39.072279722457914" lon="8.878872484403196"><ele>406.83333333333337</ele><time>2026-03-26T08:56:48Z</time></trkpt><trkpt lat="39.07219514606157" lon="8.878865755740238"><ele>404.6666666666667</ele><time>2026-03-26T08:56:49Z</time></trkpt><trkpt lat="39.0721118522822" lon="8.878845529399575"><ele>402.5</ele><time>2026-03-26T08:56:50Z</time></trkpt><trkpt lat="39.072035492100895" lon="8.878834249768957"><ele>400.33333333333337</ele><time>2026-03-26T08:56:51Z</time></trkpt><trkpt lat="39.07195979813375" lon="8.878823634053061"><ele>398.1666666666667</ele><time>2026-03-26T08:56:52Z</time></trkpt><trkpt lat="39.071881020926085" lon="8.878815351891845"><ele>396.0</ele><time>2026-03-26T08:56:53Z</time></trkpt><trkpt lat="39.07180299126155" lon="8.878800035379273"><ele>396.0</ele><time>2026-03-26T08:56:54Z</time></trkpt><trkpt lat="39.0717233723582" lon="8.878787976330525"><ele>396.0</ele><time>2026-03-26T08:56:55Z</time></trkpt><trkpt lat="39.0716467888623" lon="8.878774004468658"><ele>396.0</ele><time>2026-03-26T08:56:56Z</time></trkpt><trkpt lat="39.07157143525842" lon="8.878740738815553"><ele>396.0</ele><time>2026-03-26T08:56:57Z</time></trkpt><trkpt lat="39.07149882114737" lon="8.878702348680568"><ele>396.0</ele><time>2026-03-26T08:56:58Z</time></trkpt><trkpt lat="39.071442019393174" lon="8.878657423086356"><ele>396.0</ele><time>2026-03-26T08:56:59Z</time></trkpt><trkpt lat="39.07141271062324" lon="8.878508635887497"><ele>393.8333333333333</ele><time>2026-03-26T08:57:01Z</time></trkpt><trkpt lat="39.071427644496765" lon="8.878406016761604"><ele>391.6666666666667</ele><time>2026-03-26T08:57:02Z</time></trkpt><trkpt lat="39.0714345676271" lon="8.878281702794572"><ele>389.5</ele><time>2026-03-26T08:57:03Z</time></trkpt><trkpt lat="39.07142643360661" lon="8.878153969688938"><ele>387.33333333333337</ele><time>2026-03-26T08:57:04Z</time></trkpt><trkpt lat="39.071417350589144" lon="8.878048572103246"><ele>385.1666666666667</ele><time>2026-03-26T08:57:05Z</time></trkpt><trkpt lat="39.07142419704291" lon="8.877952738800508"><ele>383.0</ele><time>2026-03-26T08:57:06Z</time></trkpt><trkpt lat="39.071447930542966" lon="8.877850653769485"><ele>383.0</ele><time>2026-03-26T08:57:07Z</time></trkpt><trkpt lat="39.071476395358275" lon="8.877750476905051"><ele>383.0</ele><time>2026-03-26T08:57:08Z</time></trkpt><trkpt lat="39.07150408814543" lon="8.87765756521366"><ele>383.0</ele><time>2026-03-26T08:57:09Z</time></trkpt><trkpt lat="39.071545724852484" lon="8.877577349069789"><ele>383.0</ele><time>2026-03-26T08:57:10Z</time></trkpt><trkpt lat="39.07160168028817" lon="8.8774966723024"><ele>383.0</ele><time>2026-03-26T08:57:11Z</time></trkpt><trkpt lat="39.071662482578574" lon="8.87739305881447"><ele>383.0</ele><time>2026-03-26T08:57:12Z</time></trkpt><trkpt lat="39.07170623366008" lon="8.877271350684625"><ele>387.6666666666667</ele><time>2026-03-26T08:57:13Z</time></trkpt><trkpt lat="39.071757427736316" lon="8.877175632048763"><ele>392.33333333333337</ele><time>2026-03-26T08:57:14Z</time></trkpt><trkpt lat="39.07181537495977" lon="8.877104025685025"><ele>397.0</ele><time>2026-03-26T08:57:15Z</time></trkpt><trkpt lat="39.071874665379134" lon="8.877043964137544"><ele>401.6666666666667</ele><time>2026-03-26T08:57:16Z</time></trkpt><trkpt lat="39.0719296839626" lon="8.876980363705698"><ele>406.3333333333333</ele><time>2026-03-26T08:57:17Z</time></trkpt><trkpt lat="39.071968226088714" lon="8.876913737737862"><ele>411.0</ele><time>2026-03-26T08:57:18Z</time></trkpt><trkpt lat="39.07198084469101" lon="8.876772998775955"><ele>409.8333333333333</ele><time>2026-03-26T08:57:20Z</time></trkpt><trkpt lat="39.07197471485356" lon="8.876679854680736"><ele>408.66666666666663</ele><time>2026-03-26T08:57:21Z</time></trkpt><trkpt lat="39.07196987216911" lon="8.876520430468966"><ele>407.5</ele><time>2026-03-26T08:57:23Z</time></trkpt><trkpt lat="39.07194000156224" lon="8.876438405149262"><ele>406.3333333333333</ele><time>2026-03-26T08:57:24Z</time></trkpt><trkpt lat="39.071902031301924" lon="8.876367609408755"><ele>405.16666666666663</ele><time>2026-03-26T08:57:25Z</time></trkpt><trkpt lat="39.07189627921369" lon="8.876234522731767"><ele>404.0</ele><time>2026-03-26T08:57:27Z</time></trkpt><trkpt lat="39.07191770369279" lon="8.876148552788337"><ele>403.99999999999994</ele><time>2026-03-26T08:57:28Z</time></trkpt><trkpt lat="39.07190253997081" lon="8.876022409958589"><ele>404.0</ele><time>2026-03-26T08:57:30Z</time></trkpt><trkpt lat="39.07183864823043" lon="8.875964927452912"><ele>404.0</ele><time>2026-03-26T08:57:32Z</time></trkpt><trkpt lat="39.071773424387445" lon="8.875963372942355"><ele>404.0</ele><time>2026-03-26T08:57:33Z</time></trkpt><trkpt lat="39.07170062132976" lon="8.87595685447563"><ele>403.99999999999994</ele><time>2026-03-26T08:57:34Z</time></trkpt><trkpt lat="39.07161709300091" lon="8.875857005926061"><ele>404.0</ele><time>2026-03-26T08:57:36Z</time></trkpt><trkpt lat="39.071570669411976" lon="8.875740025969309"><ele>403.49999999999994</ele><time>2026-03-26T08:57:38Z</time></trkpt><trkpt lat="39.07150274334051" lon="8.875626810999972"><ele>403.0</ele><time>2026-03-26T08:57:40Z</time></trkpt><trkpt lat="39.07139786560388" lon="8.875534637294187"><ele>402.5</ele><time>2026-03-26T08:57:42Z</time></trkpt><trkpt lat="39.07135036936137" lon="8.8754731566733"><ele>402.0</ele><time>2026-03-26T08:57:42.999Z</time></trkpt><trkpt lat="39.07129780178102" lon="8.87540416463166"><ele>401.49999999999994</ele><time>2026-03-26T08:57:43.999Z</time></trkpt><trkpt lat="39.071251084163364" lon="8.875338701879494"><ele>401.0</ele><time>2026-03-26T08:57:44.999Z</time></trkpt><trkpt lat="39.071208308742634" lon="8.875262393396543"><ele>401.0</ele><time>2026-03-26T08:57:45.999Z</time></trkpt><trkpt lat="39.07117926676044" lon="8.875144490827768"><ele>401.0</ele><time>2026-03-26T08:57:46.999Z</time></trkpt><trkpt lat="39.07115225428655" lon="8.875017538537302"><ele>401.0</ele><time>2026-03-26T08:57:47.999Z</time></trkpt><trkpt lat="39.0711241785737" lon="8.87490803657229"><ele>401.0</ele><time>2026-03-26T08:57:48.999Z</time></trkpt><trkpt lat="39.07110210287222" lon="8.874805391800225"><ele>401.0</ele><time>2026-03-26T08:57:49.999Z</time></trkpt><trkpt lat="39.071079025696505" lon="8.874701017319097"><ele>402.49999999999994</ele><time>2026-03-26T08:57:50.999Z</time></trkpt><trkpt lat="39.071051720040565" lon="8.874595839586608"><ele>404.0</ele><time>2026-03-26T08:57:51.999Z</time></trkpt><trkpt lat="39.07103955952963" lon="8.874499237309513"><ele>405.5</ele><time>2026-03-26T08:57:52.999Z</time></trkpt><trkpt lat="39.07103273556779" lon="8.87439680922817"><ele>407.0</ele><time>2026-03-26T08:57:53.999Z</time></trkpt><trkpt lat="39.071010587269775" lon="8.874296637371963"><ele>408.49999999999994</ele><time>2026-03-26T08:57:54.999Z</time></trkpt><trkpt lat="39.07098708912515" lon="8.874200792580385"><ele>410.0</ele><time>2026-03-26T08:57:55.999Z</time></trkpt><trkpt lat="39.07097352544454" lon="8.874107068497073"><ele>411.66666666666663</ele><time>2026-03-26T08:57:56.999Z</time></trkpt><trkpt lat="39.07096702361084" lon="8.874016395348868"><ele>413.3333333333333</ele><time>2026-03-26T08:57:57.999Z</time></trkpt><trkpt lat="39.07097480800562" lon="8.873926592809564"><ele>415.0</ele><time>2026-03-26T08:57:58.999Z</time></trkpt><trkpt lat="39.07100507410884" lon="8.873845102327513"><ele>416.66666666666663</ele><time>2026-03-26T08:57:59.999Z</time></trkpt><trkpt lat="39.07105949758911" lon="8.873766474910825"><ele>418.3333333333333</ele><time>2026-03-26T08:58:00.999Z</time></trkpt><trkpt lat="39.07111930067462" lon="8.873708665829122"><ele>420.0</ele><time>2026-03-26T08:58:01.999Z</time></trkpt><trkpt lat="39.0711939349498" lon="8.873611864506024"><ele>420.0</ele><time>2026-03-26T08:58:03.999Z</time></trkpt><trkpt lat="39.07129014614483" lon="8.87355282727565"><ele>420.0</ele><time>2026-03-26T08:58:05.999Z</time></trkpt><trkpt lat="39.07135581946132" lon="8.873506852083903"><ele>420.0</ele><time>2026-03-26T08:58:07.999Z</time></trkpt><trkpt lat="39.07139466771758" lon="8.87340462459698"><ele>420.0</ele><time>2026-03-26T08:58:10.999Z</time></trkpt><trkpt lat="39.07130757278497" lon="8.873323312486624"><ele>420.0</ele><time>2026-03-26T08:58:12.999Z</time></trkpt><trkpt lat="39.07122916386174" lon="8.873312057525434"><ele>423.6</ele><time>2026-03-26T08:58:13.999Z</time></trkpt><trkpt lat="39.07114086505589" lon="8.873306107819568"><ele>427.2</ele><time>2026-03-26T08:58:15.999Z</time></trkpt><trkpt lat="39.07100316084868" lon="8.873332922723785"><ele>430.79999999999995</ele><time>2026-03-26T08:58:17.999Z</time></trkpt><trkpt lat="39.07092038416442" lon="8.873363484040652"><ele>434.4</ele><time>2026-03-26T08:58:18.999Z</time></trkpt><trkpt lat="39.07084234749507" lon="8.8733868318548"><ele>438.0</ele><time>2026-03-26T08:58:19.999Z</time></trkpt><trkpt lat="39.07076964293161" lon="8.87341457219106"><ele>434.1666666666667</ele><time>2026-03-26T08:58:20.999Z</time></trkpt><trkpt lat="39.070696827450995" lon="8.873461026995997"><ele>430.33333333333337</ele><time>2026-03-26T08:58:21.999Z</time></trkpt><trkpt lat="39.07062813092455" lon="8.873507597635179"><ele>426.5</ele><time>2026-03-26T08:58:22.999Z</time></trkpt><trkpt lat="39.0705562547916" lon="8.873538250701335"><ele>422.6666666666667</ele><time>2026-03-26T08:58:23.999Z</time></trkpt><trkpt lat="39.070490344723964" lon="8.873565711942609"><ele>418.83333333333337</ele><time>2026-03-26T08:58:24.999Z</time></trkpt><trkpt lat="39.07042240397589" lon="8.873694028650515"><ele>415.0</ele><time>2026-03-26T08:58:26.999Z</time></trkpt><trkpt lat="39.070402756787246" lon="8.873790708315271"><ele>415.0</ele><time>2026-03-26T08:58:27.999Z</time></trkpt><trkpt lat="39.07037340742382" lon="8.8738726069701"><ele>415.0</ele><time>2026-03-26T08:58:28.999Z</time></trkpt><trkpt lat="39.070289351944844" lon="8.873913269260806"><ele>415.0</ele><time>2026-03-26T08:58:30.999Z</time></trkpt><trkpt lat="39.07018673626012" lon="8.873852120536702"><ele>415.0</ele><time>2026-03-26T08:58:32.999Z</time></trkpt><trkpt lat="39.0700741662205" lon="8.873811278370429"><ele>415.0</ele><time>2026-03-26T08:58:34.999Z</time></trkpt><trkpt lat="39.06996890650103" lon="8.873759373011271"><ele>415.83333333333337</ele><time>2026-03-26T08:58:36.999Z</time></trkpt><trkpt lat="39.06987874509158" lon="8.873670181097483"><ele>416.6666666666667</ele><time>2026-03-26T08:58:39Z</time></trkpt><trkpt lat="39.069764622428366" lon="8.873669036755114"><ele>417.5</ele><time>2026-03-26T08:58:41Z</time></trkpt><trkpt lat="39.069700704475814" lon="8.873705712476285"><ele>418.33333333333337</ele><time>2026-03-26T08:58:42Z</time></trkpt><trkpt lat="39.0696327651576" lon="8.873742586481331"><ele>419.1666666666667</ele><time>2026-03-26T08:58:43Z</time></trkpt><trkpt lat="39.06956078023397" lon="8.873773503584998"><ele>420.0</ele><time>2026-03-26T08:58:44Z</time></trkpt><trkpt lat="39.069487227775944" lon="8.873801002865576"><ele>420.0</ele><time>2026-03-26T08:58:45Z</time></trkpt><trkpt lat="39.06941480695572" lon="8.873860575242292"><ele>420.0</ele><time>2026-03-26T08:58:46Z</time></trkpt><trkpt lat="39.06936106508686" lon="8.873918592055858"><ele>420.0</ele><time>2026-03-26T08:58:47Z</time></trkpt><trkpt lat="39.069283512758325" lon="8.873976034263663"><ele>420.0</ele><time>2026-03-26T08:58:49Z</time></trkpt><trkpt lat="39.06921763457595" lon="8.873934847379896"><ele>420.0</ele><time>2026-03-26T08:58:51Z</time></trkpt><trkpt lat="39.06923096645394" lon="8.873807344739728"><ele>420.0</ele><time>2026-03-26T08:58:53Z</time></trkpt><trkpt lat="39.0692928486329" lon="8.873685096890451"><ele>420.0</ele><time>2026-03-26T08:58:55Z</time></trkpt><trkpt lat="39.06935185087247" lon="8.87362158288231"><ele>420.0</ele><time>2026-03-26T08:58:56Z</time></trkpt><trkpt lat="39.06940535932466" lon="8.873529734890118"><ele>420.0</ele><time>2026-03-26T08:58:57Z</time></trkpt><trkpt lat="39.06945052689302" lon="8.873411183654271"><ele>420.0</ele><time>2026-03-26T08:58:58Z</time></trkpt><trkpt lat="39.0694956008972" lon="8.87330688683804"><ele>420.0</ele><time>2026-03-26T08:58:59Z</time></trkpt><trkpt lat="39.06954573113435" lon="8.873210867713658"><ele>419.1666666666667</ele><time>2026-03-26T08:59:00Z</time></trkpt><trkpt lat="39.06959385434779" lon="8.873112803889592"><ele>418.33333333333337</ele><time>2026-03-26T08:59:01Z</time></trkpt><trkpt lat="39.06964350879735" lon="8.873017710446177"><ele>417.5</ele><time>2026-03-26T08:59:02Z</time></trkpt><trkpt lat="39.069684597455066" lon="8.872930207321678"><ele>416.6666666666667</ele><time>2026-03-26T08:59:03Z</time></trkpt><trkpt lat="39.069715751772456" lon="8.872847152227038"><ele>415.83333333333337</ele><time>2026-03-26T08:59:04Z</time></trkpt><trkpt lat="39.06976472833982" lon="8.872720966212976"><ele>415.0</ele><time>2026-03-26T08:59:06Z</time></trkpt><trkpt lat="39.06978466817751" lon="8.872584178684628"><ele>413.1666666666667</ele><time>2026-03-26T08:59:08Z</time></trkpt><trkpt lat="39.06978248443143" lon="8.872467545063207"><ele>411.33333333333337</ele><time>2026-03-26T08:59:09Z</time></trkpt><trkpt lat="39.06977124314704" lon="8.872339572120122"><ele>409.5</ele><time>2026-03-26T08:59:10Z</time></trkpt><trkpt lat="39.069784557267475" lon="8.872239753941521"><ele>407.66666666666663</ele><time>2026-03-26T08:59:11Z</time></trkpt><trkpt lat="39.06981037991738" lon="8.872140334160836"><ele>405.8333333333333</ele><time>2026-03-26T08:59:12Z</time></trkpt><trkpt lat="39.06983890923756" lon="8.872045992554307"><ele>404.0</ele><time>2026-03-26T08:59:13Z</time></trkpt><trkpt lat="39.06985580413452" lon="8.871948974530213"><ele>403.99999999999994</ele><time>2026-03-26T08:59:14Z</time></trkpt><trkpt lat="39.069854775791946" lon="8.871837565937927"><ele>404.0</ele><time>2026-03-26T08:59:15Z</time></trkpt><trkpt lat="39.069841567019935" lon="8.87171279790242"><ele>404.0</ele><time>2026-03-26T08:59:16Z</time></trkpt><trkpt lat="39.06983836992085" lon="8.871607965240619"><ele>404.0</ele><time>2026-03-26T08:59:17Z</time></trkpt><trkpt lat="39.06985068443384" lon="8.87150656788507"><ele>403.99999999999994</ele><time>2026-03-26T08:59:18Z</time></trkpt><trkpt lat="39.069851813227444" lon="8.871387619310248"><ele>404.0</ele><time>2026-03-26T08:59:19Z</time></trkpt><trkpt lat="39.06983865757606" lon="8.871260417706642"><ele>402.57142857142856</ele><time>2026-03-26T08:59:20Z</time></trkpt><trkpt lat="39.0698277363691" lon="8.871159308268178"><ele>401.1428571428571</ele><time>2026-03-26T08:59:21Z</time></trkpt><trkpt lat="39.06981809294876" lon="8.871064240672428"><ele>399.7142857142857</ele><time>2026-03-26T08:59:22Z</time></trkpt><trkpt lat="39.06981628780498" lon="8.870976764027029"><ele>398.2857142857143</ele><time>2026-03-26T08:59:23Z</time></trkpt><trkpt lat="39.06981960564947" lon="8.870894979459475"><ele>396.8571428571429</ele><time>2026-03-26T08:59:24Z</time></trkpt><trkpt lat="39.06984098384584" lon="8.87080451529079"><ele>395.42857142857144</ele><time>2026-03-26T08:59:25Z</time></trkpt><trkpt lat="39.069875547665326" lon="8.870708870685366"><ele>394.0</ele><time>2026-03-26T08:59:26Z</time></trkpt><trkpt lat="39.069906946143504" lon="8.870630818797325"><ele>402.6</ele><time>2026-03-26T08:59:27Z</time></trkpt><trkpt lat="39.06999274232463" lon="8.870492557635295"><ele>411.2</ele><time>2026-03-26T08:59:29Z</time></trkpt><trkpt lat="39.07006624731809" lon="8.870428877650783"><ele>419.80000000000007</ele><time>2026-03-26T08:59:30Z</time></trkpt><trkpt lat="39.07012885155147" lon="8.870369554505716"><ele>428.40000000000003</ele><time>2026-03-26T08:59:31Z</time></trkpt><trkpt lat="39.070196075623336" lon="8.870312053879447"><ele>437.0</ele><time>2026-03-26T08:59:32Z</time></trkpt><trkpt lat="39.070265126415556" lon="8.87025603434144"><ele>436.99999999999994</ele><time>2026-03-26T08:59:33Z</time></trkpt><trkpt lat="39.070335005457174" lon="8.870209329983942"><ele>437.0</ele><time>2026-03-26T08:59:34Z</time></trkpt><trkpt lat="39.070402112752475" lon="8.870175714832511"><ele>437.0</ele><time>2026-03-26T08:59:35Z</time></trkpt><trkpt lat="39.070476628712214" lon="8.870111502273875"><ele>437.0</ele><time>2026-03-26T08:59:36Z</time></trkpt><trkpt lat="39.07056030700902" lon="8.870031965360443"><ele>436.99999999999994</ele><time>2026-03-26T08:59:37Z</time></trkpt><trkpt lat="39.0706378300718" lon="8.869958381540451"><ele>437.0</ele><time>2026-03-26T08:59:38Z</time></trkpt><trkpt lat="39.070703124653384" lon="8.869894604803218"><ele>437.4285714285714</ele><time>2026-03-26T08:59:39Z</time></trkpt><trkpt lat="39.0707548089399" lon="8.86982618639279"><ele>437.8571428571429</ele><time>2026-03-26T08:59:40Z</time></trkpt><trkpt lat="39.07081216152799" lon="8.86976846101412"><ele>438.2857142857143</ele><time>2026-03-26T08:59:41Z</time></trkpt><trkpt lat="39.07087028031937" lon="8.869693594377638"><ele>438.71428571428567</ele><time>2026-03-26T08:59:42Z</time></trkpt><trkpt lat="39.07091896317916" lon="8.869625272815135"><ele>439.1428571428571</ele><time>2026-03-26T08:59:43Z</time></trkpt><trkpt lat="39.07096846405617" lon="8.869565006313989"><ele>439.57142857142856</ele><time>2026-03-26T08:59:44Z</time></trkpt><trkpt lat="39.071014219836485" lon="8.869504401243288"><ele>440.0</ele><time>2026-03-26T08:59:45Z</time></trkpt><trkpt lat="39.07107276248302" lon="8.869402908179998"><ele>438.4</ele><time>2026-03-26T08:59:47Z</time></trkpt><trkpt lat="39.071030368760816" lon="8.869272323296514"><ele>436.8</ele><time>2026-03-26T08:59:49Z</time></trkpt><trkpt lat="39.070958297145204" lon="8.869215892076934"><ele>435.20000000000005</ele><time>2026-03-26T08:59:50Z</time></trkpt><trkpt lat="39.070884833442605" lon="8.869175624775766"><ele>433.6</ele><time>2026-03-26T08:59:51Z</time></trkpt><trkpt lat="39.07080865039612" lon="8.869124694672475"><ele>432.0</ele><time>2026-03-26T08:59:52Z</time></trkpt><trkpt lat="39.0707281935043" lon="8.86903310407155"><ele>424.6</ele><time>2026-03-26T08:59:54Z</time></trkpt><trkpt lat="39.07064454723108" lon="8.868890086764688"><ele>417.20000000000005</ele><time>2026-03-26T08:59:56Z</time></trkpt><trkpt lat="39.07059479640244" lon="8.868795122740718"><ele>409.8</ele><time>2026-03-26T08:59:56.999Z</time></trkpt><trkpt lat="39.070539619586995" lon="8.868693318864402"><ele>402.4</ele><time>2026-03-26T08:59:57.999Z</time></trkpt><trkpt lat="39.07049309690155" lon="8.868602549301983"><ele>395.0</ele><time>2026-03-26T08:59:58.999Z</time></trkpt><trkpt lat="39.07045216383126" lon="8.868532348575831"><ele>394.99999999999994</ele><time>2026-03-26T08:59:59.999Z</time></trkpt><trkpt lat="39.07042335374623" lon="8.868382296139462"><ele>395.0</ele><time>2026-03-26T09:00:01.999Z</time></trkpt><trkpt lat="39.07043239060592" lon="8.86828921731101"><ele>395.0</ele><time>2026-03-26T09:00:02.999Z</time></trkpt><trkpt lat="39.0704467473377" lon="8.868195706273537"><ele>395.0</ele><time>2026-03-26T09:00:03.999Z</time></trkpt><trkpt lat="39.070458874187125" lon="8.868106860933295"><ele>394.99999999999994</ele><time>2026-03-26T09:00:04.999Z</time></trkpt><trkpt lat="39.0704747917471" lon="8.868011828207894"><ele>395.0</ele><time>2026-03-26T09:00:05.999Z</time></trkpt><trkpt lat="39.070507435632194" lon="8.86792005568748"><ele>395.0</ele><time>2026-03-26T09:00:06.999Z</time></trkpt><trkpt lat="39.070544703307526" lon="8.867829299092568"><ele>395.0</ele><time>2026-03-26T09:00:07.999Z</time></trkpt><trkpt lat="39.07057849660442" lon="8.867754293235413"><ele>395.0</ele><time>2026-03-26T09:00:08.999Z</time></trkpt><trkpt lat="39.070600142768754" lon="8.867601969604177"><ele>395.0</ele><time>2026-03-26T09:00:10.999Z</time></trkpt><trkpt lat="39.07058976188229" lon="8.867437159706956"><ele>395.0</ele><time>2026-03-26T09:00:12.999Z</time></trkpt><trkpt lat="39.070588258729764" lon="8.867344987788856"><ele>393.2857142857143</ele><time>2026-03-26T09:00:13.999Z</time></trkpt><trkpt lat="39.07060231444151" lon="8.86725415632294"><ele>391.5714285714286</ele><time>2026-03-26T09:00:14.999Z</time></trkpt><trkpt lat="39.07062924053355" lon="8.867159526950287"><ele>389.8571428571429</ele><time>2026-03-26T09:00:15.999Z</time></trkpt><trkpt lat="39.070657613709734" lon="8.867069437661403"><ele>388.1428571428571</ele><time>2026-03-26T09:00:16.999Z</time></trkpt><trkpt lat="39.070690440632255" lon="8.866989903967395"><ele>386.42857142857144</ele><time>2026-03-26T09:00:17.999Z</time></trkpt><trkpt lat="39.07072851468425" lon="8.866920148154584"><ele>384.7142857142857</ele><time>2026-03-26T09:00:18.999Z</time></trkpt><trkpt lat="39.070778980512486" lon="8.866867406296592"><ele>383.0</ele><time>2026-03-26T09:00:19.999Z</time></trkpt><trkpt lat="39.07083795307609" lon="8.86681562003156"><ele>389.0</ele><time>2026-03-26T09:00:20.999Z</time></trkpt><trkpt lat="39.07088926884694" lon="8.86676249431196"><ele>395.0</ele><time>2026-03-26T09:00:21.999Z</time></trkpt><trkpt lat="39.07099763999477" lon="8.866669594871208"><ele>401.0</ele><time>2026-03-26T09:00:23.999Z</time></trkpt><trkpt lat="39.07107170788292" lon="8.866613377109186"><ele>407.0</ele><time>2026-03-26T09:00:24.999Z</time></trkpt><trkpt lat="39.07114007553074" lon="8.866560244318926"><ele>412.99999999999994</ele><time>2026-03-26T09:00:25.999Z</time></trkpt><trkpt lat="39.07119890259251" lon="8.866522021766365"><ele>419.0</ele><time>2026-03-26T09:00:26.999Z</time></trkpt><trkpt lat="39.07125876657212" lon="8.866496878363987"><ele>418.99999999999994</ele><time>2026-03-26T09:00:27.999Z</time></trkpt><trkpt lat="39.07133775062659" lon="8.866408021937362"><ele>419.0</ele><time>2026-03-26T09:00:29.999Z</time></trkpt><trkpt lat="39.07136149646346" lon="8.866266414411625"><ele>419.0</ele><time>2026-03-26T09:00:31.999Z</time></trkpt><trkpt lat="39.0713621186825" lon="8.866141125112323"><ele>419.0</ele><time>2026-03-26T09:00:33.999Z</time></trkpt><trkpt lat="39.07135060644483" lon="8.866058868069574"><ele>418.99999999999994</ele><time>2026-03-26T09:00:34.999Z</time></trkpt><trkpt lat="39.071333596541045" lon="8.865979569603175"><ele>419.0</ele><time>2026-03-26T09:00:35.999Z</time></trkpt><trkpt lat="39.07131660446505" lon="8.865831940753978"><ele>417.4</ele><time>2026-03-26T09:00:37.999Z</time></trkpt><trkpt lat="39.07132310128908" lon="8.865716325573004"><ele>415.79999999999995</ele><time>2026-03-26T09:00:39.999Z</time></trkpt><trkpt lat="39.07131179941286" lon="8.865587618770727"><ele>414.20000000000005</ele><time>2026-03-26T09:00:41.999Z</time></trkpt><trkpt lat="39.07123709505658" lon="8.86546282781216"><ele>412.6</ele><time>2026-03-26T09:00:44Z</time></trkpt><trkpt lat="39.07116910283407" lon="8.865405908513235"><ele>411.0</ele><time>2026-03-26T09:00:45Z</time></trkpt><trkpt lat="39.07108878180942" lon="8.865366485522795"><ele>411.0</ele><time>2026-03-26T09:00:46Z</time></trkpt><trkpt lat="39.07102008141132" lon="8.865356007698862"><ele>411.0</ele><time>2026-03-26T09:00:47Z</time></trkpt><trkpt lat="39.0709106072238" lon="8.865283273317216"><ele>411.0</ele><time>2026-03-26T09:00:49Z</time></trkpt><trkpt lat="39.07086121673253" lon="8.865206204806258"><ele>411.0</ele><time>2026-03-26T09:00:50Z</time></trkpt><trkpt lat="39.07081147085078" lon="8.865115074859656"><ele>411.0</ele><time>2026-03-26T09:00:51Z</time></trkpt><trkpt lat="39.07074009147914" lon="8.865016661733128"><ele>408.20000000000005</ele><time>2026-03-26T09:00:52Z</time></trkpt><trkpt lat="39.07066882465989" lon="8.864928052402618"><ele>405.40000000000003</ele><time>2026-03-26T09:00:53Z</time></trkpt><trkpt lat="39.07061149637355" lon="8.864840147790513"><ele>402.6</ele><time>2026-03-26T09:00:54Z</time></trkpt><trkpt lat="39.07057018686286" lon="8.864754802248367"><ele>399.8</ele><time>2026-03-26T09:00:55Z</time></trkpt><trkpt lat="39.07053369893268" lon="8.86461491874074"><ele>397.0</ele><time>2026-03-26T09:00:57Z</time></trkpt><trkpt lat="39.07057476922222" lon="8.86444850524647"><ele>397.0</ele><time>2026-03-26T09:00:59Z</time></trkpt><trkpt lat="39.070627770104" lon="8.864365635370547"><ele>397.0</ele><time>2026-03-26T09:01:00Z</time></trkpt><trkpt lat="39.070688566383865" lon="8.864289520260629"><ele>397.0</ele><time>2026-03-26T09:01:01Z</time></trkpt><trkpt lat="39.07074204167442" lon="8.864229421540488"><ele>397.0</ele><time>2026-03-26T09:01:02Z</time></trkpt><trkpt lat="39.07081494381634" lon="8.864133565378392"><ele>397.0</ele><time>2026-03-26T09:01:04Z</time></trkpt><trkpt lat="39.07089409466857" lon="8.864035499125398"><ele>402.6</ele><time>2026-03-26T09:01:06Z</time></trkpt><trkpt lat="39.07097383279966" lon="8.863953032995017"><ele>408.20000000000005</ele><time>2026-03-26T09:01:08Z</time></trkpt><trkpt lat="39.07105698153568" lon="8.86386722420291"><ele>413.8</ele><time>2026-03-26T09:01:11Z</time></trkpt><trkpt lat="39.07110859048408" lon="8.86372978769394"><ele>419.4</ele><time>2026-03-26T09:01:13Z</time></trkpt><trkpt lat="39.07117386976883" lon="8.863644965220276"><ele>425.0</ele><time>2026-03-26T09:01:15Z</time></trkpt><trkpt lat="39.07124593562752" lon="8.863579020267194"><ele>425.0</ele><time>2026-03-26T09:01:18Z</time></trkpt><trkpt lat="39.07131483958024" lon="8.863540757623491"><ele>425.0</ele><time>2026-03-26T09:01:20Z</time></trkpt><trkpt lat="39.07142072856183" lon="8.863491604760757"><ele>425.0</ele><time>2026-03-26T09:01:22Z</time></trkpt><trkpt lat="39.07150632942767" lon="8.86341104958085"><ele>425.0</ele><time>2026-03-26T09:01:24Z</time></trkpt><trkpt lat="39.07149284551306" lon="8.863282416874243"><ele>425.0</ele><time>2026-03-26T09:01:26Z</time></trkpt><trkpt lat="39.07143996820431" lon="8.863173611872847"><ele>424.16666666666663</ele><time>2026-03-26T09:01:28Z</time></trkpt><trkpt lat="39.07143050096869" lon="8.863086772500491"><ele>423.3333333333333</ele><time>2026-03-26T09:01:29Z</time></trkpt><trkpt lat="39.071461058400104" lon="8.862940521378428"><ele>422.5</ele><time>2026-03-26T09:01:31Z</time></trkpt><trkpt lat="39.07150455506652" lon="8.862866293595149"><ele>421.66666666666663</ele><time>2026-03-26T09:01:32Z</time></trkpt><trkpt lat="39.07154908304328" lon="8.862793478379478"><ele>420.8333333333333</ele><time>2026-03-26T09:01:33Z</time></trkpt><trkpt lat="39.071592023737324" lon="8.86272157684499"><ele>420.0</ele><time>2026-03-26T09:01:34Z</time></trkpt><trkpt lat="39.07162696411874" lon="8.862589444532873"><ele>420.0</ele><time>2026-03-26T09:01:36Z</time></trkpt><trkpt lat="39.07166281923235" lon="8.86248690031432"><ele>420.0</ele><time>2026-03-26T09:01:38Z</time></trkpt><trkpt lat="39.07174096547195" lon="8.862461750295997"><ele>420.0</ele><time>2026-03-26T09:01:40Z</time></trkpt><trkpt lat="39.07183413032555" lon="8.862480909203661"><ele>420.0</ele><time>2026-03-26T09:01:42Z</time></trkpt><trkpt lat="39.07191358177995" lon="8.86246013392185"><ele>420.0</ele><time>2026-03-26T09:01:44Z</time></trkpt><trkpt lat="39.07193624579452" lon="8.862380126179712"><ele>420.0</ele><time>2026-03-26T09:01:46Z</time></trkpt><trkpt lat="39.07187675718329" lon="8.862287525176688"><ele>420.0</ele><time>2026-03-26T09:01:48Z</time></trkpt><trkpt lat="39.071802832630844" lon="8.862218476071991"><ele>420.0</ele><time>2026-03-26T09:01:50Z</time></trkpt><trkpt lat="39.07173500745409" lon="8.862170265123797"><ele>420.0</ele><time>2026-03-26T09:01:52Z</time></trkpt><trkpt lat="39.07165724841504" lon="8.862153871587408"><ele>420.0</ele><time>2026-03-26T09:01:54Z</time></trkpt><trkpt lat="39.07157055443245" lon="8.862179497976792"><ele>420.0</ele><time>2026-03-26T09:01:56Z</time></trkpt><trkpt lat="39.07149040753414" lon="8.862170022818416"><ele>420.0</ele><time>2026-03-26T09:01:59Z</time></trkpt><trkpt lat="39.0714044807789" lon="8.862207390008045"><ele>420.1666666666667</ele><time>2026-03-26T09:02:01Z</time></trkpt><trkpt lat="39.07136325409561" lon="8.862272244006284"><ele>420.33333333333337</ele><time>2026-03-26T09:02:02Z</time></trkpt><trkpt lat="39.0713308877567" lon="8.86234952245907"><ele>420.5</ele><time>2026-03-26T09:02:03Z</time></trkpt><trkpt lat="39.071269155061344" lon="8.862413491528415"><ele>420.6666666666667</ele><time>2026-03-26T09:02:04Z</time></trkpt><trkpt lat="39.071185947566356" lon="8.862458097963636"><ele>420.83333333333337</ele><time>2026-03-26T09:02:05Z</time></trkpt><trkpt lat="39.07110281406148" lon="8.86248610999063"><ele>421.0</ele><time>2026-03-26T09:02:06Z</time></trkpt><trkpt lat="39.07103919873342" lon="8.862512599815162"><ele>421.00000000000006</ele><time>2026-03-26T09:02:06.999Z</time></trkpt><trkpt lat="39.07098134108447" lon="8.862548891543838"><ele>421.0</ele><time>2026-03-26T09:02:07.999Z</time></trkpt><trkpt lat="39.0709138738242" lon="8.862580623656962"><ele>421.0</ele><time>2026-03-26T09:02:08.999Z</time></trkpt><trkpt lat="39.0708355318539" lon="8.86260654137769"><ele>421.0</ele><time>2026-03-26T09:02:09.999Z</time></trkpt><trkpt lat="39.070749293099766" lon="8.862644543889381"><ele>421.00000000000006</ele><time>2026-03-26T09:02:10.999Z</time></trkpt><trkpt lat="39.070674852323805" lon="8.862704057579883"><ele>421.0</ele><time>2026-03-26T09:02:11.999Z</time></trkpt><trkpt lat="39.070620702878344" lon="8.862779948039547"><ele>417.33333333333337</ele><time>2026-03-26T09:02:12.999Z</time></trkpt><trkpt lat="39.0705534024721" lon="8.862858080218952"><ele>413.6666666666667</ele><time>2026-03-26T09:02:13.999Z</time></trkpt><trkpt lat="39.07048493908032" lon="8.862895532484794"><ele>410.0</ele><time>2026-03-26T09:02:14.999Z</time></trkpt><trkpt lat="39.07042391481318" lon="8.862937584992682"><ele>406.33333333333337</ele><time>2026-03-26T09:02:15.999Z</time></trkpt><trkpt lat="39.07036526276474" lon="8.862983060830853"><ele>402.6666666666667</ele><time>2026-03-26T09:02:16.999Z</time></trkpt><trkpt lat="39.070295969061995" lon="8.863032401359536"><ele>399.0</ele><time>2026-03-26T09:02:17.999Z</time></trkpt><trkpt lat="39.07021894158879" lon="8.863068768531829"><ele>399.0</ele><time>2026-03-26T09:02:18.999Z</time></trkpt><trkpt lat="39.070133205395926" lon="8.863093906128181"><ele>399.0</ele><time>2026-03-26T09:02:19.999Z</time></trkpt><trkpt lat="39.070036309746065" lon="8.863108042699162"><ele>399.0</ele><time>2026-03-26T09:02:20.999Z</time></trkpt><trkpt lat="39.06995695545209" lon="8.863128163420429"><ele>399.0</ele><time>2026-03-26T09:02:21.999Z</time></trkpt><trkpt lat="39.06988052978642" lon="8.863162826174566"><ele>399.0</ele><time>2026-03-26T09:02:22.999Z</time></trkpt><trkpt lat="39.069814043440395" lon="8.863212739235909"><ele>399.0</ele><time>2026-03-26T09:02:23.999Z</time></trkpt><trkpt lat="39.069753546725615" lon="8.86323702696622"><ele>398.0</ele><time>2026-03-26T09:02:24.999Z</time></trkpt><trkpt lat="39.06966784124815" lon="8.863183372377142"><ele>397.0</ele><time>2026-03-26T09:02:26.999Z</time></trkpt><trkpt lat="39.069609375661315" lon="8.863120688486251"><ele>396.0</ele><time>2026-03-26T09:02:27.999Z</time></trkpt><trkpt lat="39.06956135475082" lon="8.863063862624102"><ele>395.0</ele><time>2026-03-26T09:02:28.999Z</time></trkpt><trkpt lat="39.06952125325175" lon="8.862998895457894"><ele>394.0</ele><time>2026-03-26T09:02:29.999Z</time></trkpt><trkpt lat="39.069425242298415" lon="8.8629551410667"><ele>393.0</ele><time>2026-03-26T09:02:31.999Z</time></trkpt><trkpt lat="39.06935784486" lon="8.862987081990712"><ele>393.0</ele><time>2026-03-26T09:02:32.999Z</time></trkpt><trkpt lat="39.069289123758736" lon="8.863031508500233"><ele>393.0</ele><time>2026-03-26T09:02:33.999Z</time></trkpt><trkpt lat="39.06922704297706" lon="8.863055705023584"><ele>393.0</ele><time>2026-03-26T09:02:34.999Z</time></trkpt><trkpt lat="39.06914523478487" lon="8.863078005248106"><ele>393.0</ele><time>2026-03-26T09:02:35.999Z</time></trkpt><trkpt lat="39.069050939926946" lon="8.863046055433346"><ele>393.0</ele><time>2026-03-26T09:02:36.999Z</time></trkpt><trkpt lat="39.06897094556109" lon="8.863023689881464"><ele>393.0</ele><time>2026-03-26T09:02:37.999Z</time></trkpt><trkpt lat="39.06890084427324" lon="8.863012697060409"><ele>392.0</ele><time>2026-03-26T09:02:38.999Z</time></trkpt><trkpt lat="39.068834734330125" lon="8.862997898261487"><ele>391.0</ele><time>2026-03-26T09:02:39.999Z</time></trkpt><trkpt lat="39.068767647674726" lon="8.862980039074966"><ele>390.0</ele><time>2026-03-26T09:02:40.999Z</time></trkpt><trkpt lat="39.06869488238233" lon="8.862981870281244"><ele>389.0</ele><time>2026-03-26T09:02:41.999Z</time></trkpt><trkpt lat="39.068620716008596" lon="8.8629692442813"><ele>388.0</ele><time>2026-03-26T09:02:42.999Z</time></trkpt><trkpt lat="39.06855539464603" lon="8.862953720021684"><ele>387.0</ele><time>2026-03-26T09:02:43.999Z</time></trkpt><trkpt lat="39.06845429001982" lon="8.862871023813486"><ele>387.0</ele><time>2026-03-26T09:02:45.999Z</time></trkpt><trkpt lat="39.068386109514094" lon="8.862746679097649"><ele>387.0</ele><time>2026-03-26T09:02:47.999Z</time></trkpt><trkpt lat="39.06836532540739" lon="8.86259464169742"><ele>387.0</ele><time>2026-03-26T09:02:50Z</time></trkpt><trkpt lat="39.068321360985955" lon="8.862451562525672"><ele>387.0</ele><time>2026-03-26T09:02:52Z</time></trkpt><trkpt lat="39.06830499608969" lon="8.86235998368082"><ele>387.0</ele><time>2026-03-26T09:02:53Z</time></trkpt><trkpt lat="39.068296661566315" lon="8.862273372824758"><ele>386.6666666666667</ele><time>2026-03-26T09:02:54Z</time></trkpt><trkpt lat="39.06829215656078" lon="8.862145173084992"><ele>386.33333333333337</ele><time>2026-03-26T09:02:56Z</time></trkpt><trkpt lat="39.06828713321146" lon="8.862017946618467"><ele>386.0</ele><time>2026-03-26T09:02:58Z</time></trkpt><trkpt lat="39.068273146526685" lon="8.861932100318043"><ele>385.6666666666667</ele><time>2026-03-26T09:02:59Z</time></trkpt><trkpt lat="39.06825632307399" lon="8.861852088891704"><ele>385.33333333333337</ele><time>2026-03-26T09:03:00Z</time></trkpt><trkpt lat="39.06821984991951" lon="8.861709326545906"><ele>385.0</ele><time>2026-03-26T09:03:02Z</time></trkpt><trkpt lat="39.06817674508109" lon="8.861600231295494"><ele>386.1666666666667</ele><time>2026-03-26T09:03:04Z</time></trkpt><trkpt lat="39.06815591858612" lon="8.861497292072682"><ele>387.33333333333337</ele><time>2026-03-26T09:03:06Z</time></trkpt><trkpt lat="39.068133220088235" lon="8.861408874174499"><ele>388.5</ele><time>2026-03-26T09:03:07Z</time></trkpt><trkpt lat="39.068091755418386" lon="8.86130738964779"><ele>389.66666666666663</ele><time>2026-03-26T09:03:08Z</time></trkpt><trkpt lat="39.06805263585744" lon="8.86120092246766"><ele>390.8333333333333</ele><time>2026-03-26T09:03:09Z</time></trkpt><trkpt lat="39.0680232690805" lon="8.861081556866818"><ele>392.0</ele><time>2026-03-26T09:03:10Z</time></trkpt><trkpt lat="39.06799293798395" lon="8.860971630020693"><ele>392.14285714285717</ele><time>2026-03-26T09:03:11Z</time></trkpt><trkpt lat="39.0679759975369" lon="8.860872036400181"><ele>392.2857142857143</ele><time>2026-03-26T09:03:12Z</time></trkpt><trkpt lat="39.06795936711686" lon="8.860777866300367"><ele>392.42857142857144</ele><time>2026-03-26T09:03:13Z</time></trkpt><trkpt lat="39.06793082322394" lon="8.860692959327528"><ele>392.57142857142856</ele><time>2026-03-26T09:03:14Z</time></trkpt><trkpt lat="39.06789774827614" lon="8.86061002489394"><ele>392.7142857142857</ele><time>2026-03-26T09:03:15Z</time></trkpt><trkpt lat="39.06786956993367" lon="8.860525068736719"><ele>392.8571428571429</ele><time>2026-03-26T09:03:16Z</time></trkpt><trkpt lat="39.06783720736713" lon="8.860446015667955"><ele>393.0</ele><time>2026-03-26T09:03:17Z</time></trkpt><trkpt lat="39.06780262952442" lon="8.860376519165749"><ele>393.0</ele><time>2026-03-26T09:03:18Z</time></trkpt><trkpt lat="39.06773210637932" lon="8.860251955862704"><ele>393.0</ele><time>2026-03-26T09:03:20Z</time></trkpt><trkpt lat="39.06763712670634" lon="8.860145155109068"><ele>393.0</ele><time>2026-03-26T09:03:22Z</time></trkpt><trkpt lat="39.06757271993616" lon="8.860086696176388"><ele>393.0</ele><time>2026-03-26T09:03:24Z</time></trkpt><trkpt lat="39.06748979693422" lon="8.8600305415067"><ele>393.0</ele><time>2026-03-26T09:03:27Z</time></trkpt><trkpt lat="39.06741616077744" lon="8.859989796305287"><ele>394.2</ele><time>2026-03-26T09:03:29Z</time></trkpt><trkpt lat="39.06732310117021" lon="8.85992761104448"><ele>395.4</ele><time>2026-03-26T09:03:31Z</time></trkpt><trkpt lat="39.06725321292003" lon="8.859915267856664"><ele>396.59999999999997</ele><time>2026-03-26T09:03:32Z</time></trkpt><trkpt lat="39.067162404599806" lon="8.859939892995525"><ele>397.79999999999995</ele><time>2026-03-26T09:03:33Z</time></trkpt><trkpt lat="39.067082844618405" lon="8.859945985062597"><ele>399.0</ele><time>2026-03-26T09:03:34Z</time></trkpt><trkpt lat="39.06699587665607" lon="8.85987327506072"><ele>399.0</ele><time>2026-03-26T09:03:36Z</time></trkpt><trkpt lat="39.06694650588472" lon="8.859733897246077"><ele>399.0</ele><time>2026-03-26T09:03:38Z</time></trkpt><trkpt lat="39.066920246525925" lon="8.859622498554332"><ele>399.0</ele><time>2026-03-26T09:03:40Z</time></trkpt><trkpt lat="39.06684488846798" lon="8.859557401077534"><ele>399.0</ele><time>2026-03-26T09:03:42Z</time></trkpt><trkpt lat="39.06683676171614" lon="8.859473596117741"><ele>399.0</ele><time>2026-03-26T09:03:44Z</time></trkpt><trkpt lat="39.06680332392498" lon="8.85939067298627"><ele>399.0</ele><time>2026-03-26T09:12:19Z</time></trkpt><trkpt lat="39.066745712827554" lon="8.859236675616366"><ele>399.79999999999995</ele><time>2026-03-26T09:12:21Z</time></trkpt><trkpt lat="39.06671953333566" lon="8.859162239178039"><ele>400.59999999999997</ele><time>2026-03-26T09:12:22Z</time></trkpt><trkpt lat="39.06664654485888" lon="8.859042817850584"><ele>401.4</ele><time>2026-03-26T09:12:24Z</time></trkpt><trkpt lat="39.06660366430735" lon="8.858972043389702"><ele>402.2</ele><time>2026-03-26T09:12:25Z</time></trkpt><trkpt lat="39.06653359552754" lon="8.858838449576067"><ele>403.0</ele><time>2026-03-26T09:12:27Z</time></trkpt><trkpt lat="39.06648318203807" lon="8.858763707554408"><ele>403.6666666666667</ele><time>2026-03-26T09:12:28Z</time></trkpt><trkpt lat="39.066425357866294" lon="8.858691399526347"><ele>404.33333333333337</ele><time>2026-03-26T09:12:29Z</time></trkpt><trkpt lat="39.066376353820985" lon="8.85862697966033"><ele>405.0</ele><time>2026-03-26T09:12:30Z</time></trkpt><trkpt lat="39.066293290703065" lon="8.858527213608888"><ele>405.66666666666663</ele><time>2026-03-26T09:12:32Z</time></trkpt><trkpt lat="39.066206843872024" lon="8.858434188284019"><ele>406.3333333333333</ele><time>2026-03-26T09:12:34Z</time></trkpt><trkpt lat="39.06616755774948" lon="8.85836574519986"><ele>407.0</ele><time>2026-03-26T09:12:35Z</time></trkpt><trkpt lat="39.0661219143218" lon="8.85829423005767"><ele>406.99999999999994</ele><time>2026-03-26T09:12:36Z</time></trkpt><trkpt lat="39.06606525575086" lon="8.858225590396891"><ele>407.0</ele><time>2026-03-26T09:12:37Z</time></trkpt><trkpt lat="39.06601329114655" lon="8.85814715322563"><ele>407.0</ele><time>2026-03-26T09:12:38Z</time></trkpt><trkpt lat="39.065965960882316" lon="8.85806958890731"><ele>407.0</ele><time>2026-03-26T09:12:39Z</time></trkpt><trkpt lat="39.06592606893263" lon="8.85798531344828"><ele>406.99999999999994</ele><time>2026-03-26T09:12:40Z</time></trkpt><trkpt lat="39.06588549483573" lon="8.857912763148468"><ele>407.0</ele><time>2026-03-26T09:12:41Z</time></trkpt><trkpt lat="39.06583684162683" lon="8.857814704934425"><ele>406.99999999999994</ele><time>2026-03-26T09:12:43Z</time></trkpt><trkpt lat="39.06575855696215" lon="8.8578344930231"><ele>407.0</ele><time>2026-03-26T09:12:46Z</time></trkpt><trkpt lat="39.06569558187685" lon="8.857889487076806"><ele>407.0</ele><time>2026-03-26T09:12:48Z</time></trkpt><trkpt lat="39.065695468104735" lon="8.857970813546329"><ele>407.0</ele><time>2026-03-26T09:12:50Z</time></trkpt><trkpt lat="39.0657229222049" lon="8.858082968932123"><ele>406.99999999999994</ele><time>2026-03-26T09:12:52Z</time></trkpt><trkpt lat="39.06574839116364" lon="8.858166913193656"><ele>407.0</ele><time>2026-03-26T09:12:54Z</time></trkpt><trkpt lat="39.065798344947595" lon="8.858302952094608"><ele>407.0</ele><time>2026-03-26T09:12:56.999Z</time></trkpt><trkpt lat="39.065831287990605" lon="8.858447840047955"><ele>407.0</ele><time>2026-03-26T09:12:58.999Z</time></trkpt><trkpt lat="39.06589714494192" lon="8.858569332344697"><ele>407.0</ele><time>2026-03-26T09:13:00.999Z</time></trkpt><trkpt lat="39.06589208118274" lon="8.858686113863737"><ele>407.0</ele><time>2026-03-26T09:13:02.999Z</time></trkpt><trkpt lat="39.065818369584626" lon="8.85872992785954"><ele>407.0</ele><time>2026-03-26T09:13:04.999Z</time></trkpt><trkpt lat="39.065756497539084" lon="8.85867978732906"><ele>411.0</ele><time>2026-03-26T09:13:06.999Z</time></trkpt><trkpt lat="39.06572133622365" lon="8.858599732038497"><ele>415.0</ele><time>2026-03-26T09:13:08.999Z</time></trkpt><trkpt lat="39.06570189631198" lon="8.858477349875619"><ele>419.00000000000006</ele><time>2026-03-26T09:13:11.999Z</time></trkpt><trkpt lat="39.065651838987975" lon="8.858363531292548"><ele>423.0</ele><time>2026-03-26T09:13:13.999Z</time></trkpt><trkpt lat="39.065577329120316" lon="8.858279734822943"><ele>427.0</ele><time>2026-03-26T09:13:15.999Z</time></trkpt><trkpt lat="39.06552020749367" lon="8.858205988580428"><ele>427.50000000000006</ele><time>2026-03-26T09:13:17.999Z</time></trkpt><trkpt lat="39.065500224750124" lon="8.858102193383614"><ele>428.0</ele><time>2026-03-26T09:13:20Z</time></trkpt><trkpt lat="39.06545960998102" lon="8.85799896175549"><ele>428.5</ele><time>2026-03-26T09:13:22Z</time></trkpt><trkpt lat="39.065422664058026" lon="8.857875863181489"><ele>429.0</ele><time>2026-03-26T09:13:24Z</time></trkpt><trkpt lat="39.06538498145508" lon="8.857791920638293"><ele>429.50000000000006</ele><time>2026-03-26T09:13:25Z</time></trkpt><trkpt lat="39.06534691505724" lon="8.857726547527847"><ele>430.0</ele><time>2026-03-26T09:13:26Z</time></trkpt><trkpt lat="39.065299350058936" lon="8.857588894449938"><ele>430.0</ele><time>2026-03-26T09:13:28Z</time></trkpt><trkpt lat="39.065274642278325" lon="8.857438445965107"><ele>430.0</ele><time>2026-03-26T09:13:30Z</time></trkpt><trkpt lat="39.06524126617659" lon="8.857306032792316"><ele>430.0</ele><time>2026-03-26T09:13:32Z</time></trkpt><trkpt lat="39.06519564540781" lon="8.857238941561661"><ele>430.0</ele><time>2026-03-26T09:13:34Z</time></trkpt><trkpt lat="39.0651416155474" lon="8.857311152397173"><ele>430.0</ele><time>2026-03-26T09:13:36Z</time></trkpt><trkpt lat="39.065147319002826" lon="8.857424614650098"><ele>430.0</ele><time>2026-03-26T09:13:38Z</time></trkpt><trkpt lat="39.065170394041544" lon="8.857505261738751"><ele>430.0</ele><time>2026-03-26T09:13:40Z</time></trkpt><trkpt lat="39.06517697640079" lon="8.857629626480161"><ele>430.0</ele><time>2026-03-26T09:13:42Z</time></trkpt><trkpt lat="39.065160435620854" lon="8.857793856460502"><ele>430.0</ele><time>2026-03-26T09:13:44Z</time></trkpt><trkpt lat="39.06514580380488" lon="8.857896704505887"><ele>430.0</ele><time>2026-03-26T09:13:45Z</time></trkpt><trkpt lat="39.06513175129954" lon="8.85800221944342"><ele>430.50000000000006</ele><time>2026-03-26T09:13:46Z</time></trkpt><trkpt lat="39.06511692028123" lon="8.858115424922632"><ele>431.0</ele><time>2026-03-26T09:13:47Z</time></trkpt><trkpt lat="39.0651146052839" lon="8.858208955827632"><ele>431.5</ele><time>2026-03-26T09:13:48Z</time></trkpt><trkpt lat="39.06510013778788" lon="8.858287910961298"><ele>432.0</ele><time>2026-03-26T09:13:49Z</time></trkpt><trkpt lat="39.06507366418908" lon="8.858363928913368"><ele>432.50000000000006</ele><time>2026-03-26T09:13:50Z</time></trkpt><trkpt lat="39.0650504238659" lon="8.858447061008928"><ele>433.0</ele><time>2026-03-26T09:13:51Z</time></trkpt><trkpt lat="39.06500909226449" lon="8.858590600849048"><ele>437.79999999999995</ele><time>2026-03-26T09:13:53Z</time></trkpt><trkpt lat="39.06491504183758" lon="8.85869679139473"><ele>442.59999999999997</ele><time>2026-03-26T09:13:55Z</time></trkpt><trkpt lat="39.064858310037636" lon="8.858734165251201"><ele>447.40000000000003</ele><time>2026-03-26T09:13:56Z</time></trkpt><trkpt lat="39.06475267622713" lon="8.858825323537896"><ele>452.20000000000005</ele><time>2026-03-26T09:13:58Z</time></trkpt><trkpt lat="39.064649642028144" lon="8.858912894702666"><ele>457.0</ele><time>2026-03-26T09:14:00Z</time></trkpt><trkpt lat="39.06458975088422" lon="8.858959941693854"><ele>457.0</ele><time>2026-03-26T09:14:01Z</time></trkpt><trkpt lat="39.06451650389617" lon="8.859065044577692"><ele>457.00000000000006</ele><time>2026-03-26T09:14:03Z</time></trkpt><trkpt lat="39.06449291379207" lon="8.859218208232113"><ele>457.00000000000006</ele><time>2026-03-26T09:14:05Z</time></trkpt><trkpt lat="39.06446571818132" lon="8.859374803511809"><ele>457.0</ele><time>2026-03-26T09:14:07Z</time></trkpt><trkpt lat="39.06444266336543" lon="8.859450552620018"><ele>457.0</ele><time>2026-03-26T09:14:08Z</time></trkpt><trkpt lat="39.064402186007705" lon="8.859586105732665"><ele>457.33333333333337</ele><time>2026-03-26T09:14:10Z</time></trkpt><trkpt lat="39.06442216606075" lon="8.859669568574807"><ele>457.6666666666667</ele><time>2026-03-26T09:14:12Z</time></trkpt><trkpt lat="39.06446640109281" lon="8.859754838018867"><ele>458.0</ele><time>2026-03-26T09:14:14Z</time></trkpt><trkpt lat="39.06449537219329" lon="8.859871566802772"><ele>458.33333333333337</ele><time>2026-03-26T09:14:16Z</time></trkpt><trkpt lat="39.06449860009869" lon="8.85995299376991"><ele>458.6666666666667</ele><time>2026-03-26T09:14:17Z</time></trkpt><trkpt lat="39.06447273149234" lon="8.860104850365177"><ele>459.0</ele><time>2026-03-26T09:14:19Z</time></trkpt><trkpt lat="39.06443051736932" lon="8.860241289887902"><ele>460.0</ele><time>2026-03-26T09:14:21Z</time></trkpt><trkpt lat="39.064387830956306" lon="8.860370024963714"><ele>461.0</ele><time>2026-03-26T09:14:23Z</time></trkpt><trkpt lat="39.064332508699664" lon="8.860509687550316"><ele>462.0</ele><time>2026-03-26T09:14:25Z</time></trkpt><trkpt lat="39.064271186955445" lon="8.860624509651565"><ele>463.0</ele><time>2026-03-26T09:14:27Z</time></trkpt><trkpt lat="39.06430289038438" lon="8.860746397381703"><ele>464.0</ele><time>2026-03-26T09:14:29Z</time></trkpt><trkpt lat="39.06440459085656" lon="8.860822349405177"><ele>464.0</ele><time>2026-03-26T09:14:31Z</time></trkpt><trkpt lat="39.06448354006355" lon="8.860931926347751"><ele>464.0</ele><time>2026-03-26T09:14:33Z</time></trkpt><trkpt lat="39.06460465427249" lon="8.86094095819726"><ele>464.0</ele><time>2026-03-26T09:14:35Z</time></trkpt><trkpt lat="39.06470219418852" lon="8.860858631914093"><ele>464.0</ele><time>2026-03-26T09:14:37Z</time></trkpt><trkpt lat="39.06479349488707" lon="8.860786613927534"><ele>463.99999999999994</ele><time>2026-03-26T09:14:39Z</time></trkpt><trkpt lat="39.064851695569466" lon="8.860754332091682"><ele>464.0</ele><time>2026-03-26T09:14:40Z</time></trkpt><trkpt lat="39.064916082273385" lon="8.860733465076315"><ele>464.0</ele><time>2026-03-26T09:14:41Z</time></trkpt><trkpt lat="39.06503948551282" lon="8.860736978454359"><ele>464.0</ele><time>2026-03-26T09:14:43Z</time></trkpt><trkpt lat="39.065105628247615" lon="8.860760748833151"><ele>463.99999999999994</ele><time>2026-03-26T09:14:44Z</time></trkpt><trkpt lat="39.065170055532455" lon="8.860783418008554"><ele>464.0</ele><time>2026-03-26T09:14:45Z</time></trkpt><trkpt lat="39.06526276270826" lon="8.860875807701825"><ele>463.4</ele><time>2026-03-26T09:14:47Z</time></trkpt><trkpt lat="39.06528634004925" lon="8.860958810962654"><ele>462.79999999999995</ele><time>2026-03-26T09:14:48Z</time></trkpt><trkpt lat="39.06528410024077" lon="8.86104935324652"><ele>462.20000000000005</ele><time>2026-03-26T09:14:49Z</time></trkpt><trkpt lat="39.06525705265057" lon="8.861132417202398"><ele>461.6</ele><time>2026-03-26T09:14:50Z</time></trkpt><trkpt lat="39.06519156035212" lon="8.861262262786985"><ele>461.0</ele><time>2026-03-26T09:14:52Z</time></trkpt><trkpt lat="39.06511832729516" lon="8.861389057016936"><ele>460.99999999999994</ele><time>2026-03-26T09:14:54Z</time></trkpt><trkpt lat="39.06507773715687" lon="8.861453783554815"><ele>461.0</ele><time>2026-03-26T09:14:55Z</time></trkpt><trkpt lat="39.064962287925944" lon="8.861518866328295"><ele>461.0</ele><time>2026-03-26T09:14:57Z</time></trkpt><trkpt lat="39.064882402587294" lon="8.861527818064385"><ele>461.0</ele><time>2026-03-26T09:14:58Z</time></trkpt><trkpt lat="39.06480001536829" lon="8.861531371061554"><ele>460.99999999999994</ele><time>2026-03-26T09:14:59Z</time></trkpt><trkpt lat="39.0647282384052" lon="8.861538570559679"><ele>461.0</ele><time>2026-03-26T09:15:00Z</time></trkpt><trkpt lat="39.064662288037006" lon="8.861563535432488"><ele>463.3333333333333</ele><time>2026-03-26T09:15:00.999Z</time></trkpt><trkpt lat="39.0645920411674" lon="8.861600230804294"><ele>465.66666666666663</ele><time>2026-03-26T09:15:01.999Z</time></trkpt><trkpt lat="39.06453308189868" lon="8.861645792898283"><ele>468.0</ele><time>2026-03-26T09:15:02.999Z</time></trkpt><trkpt lat="39.06448240688925" lon="8.861699372447223"><ele>470.33333333333337</ele><time>2026-03-26T09:15:03.999Z</time></trkpt><trkpt lat="39.06437585366993" lon="8.861780612705472"><ele>472.6666666666667</ele><time>2026-03-26T09:15:05.999Z</time></trkpt><trkpt lat="39.06431198571017" lon="8.861818122695203"><ele>475.0</ele><time>2026-03-26T09:15:06.999Z</time></trkpt><trkpt lat="39.0642530504499" lon="8.861856842525961"><ele>475.2</ele><time>2026-03-26T09:15:07.999Z</time></trkpt><trkpt lat="39.0641856848049" lon="8.861973690874636"><ele>475.4</ele><time>2026-03-26T09:15:09.999Z</time></trkpt><trkpt lat="39.06415707289271" lon="8.862116675494985"><ele>475.6</ele><time>2026-03-26T09:15:11.999Z</time></trkpt><trkpt lat="39.064147421951226" lon="8.862214169146414"><ele>475.8</ele><time>2026-03-26T09:15:12.999Z</time></trkpt><trkpt lat="39.0641349648786" lon="8.862320678432331"><ele>476.0</ele><time>2026-03-26T09:15:13.999Z</time></trkpt><trkpt lat="39.06411711322577" lon="8.862410025020578"><ele>476.6</ele><time>2026-03-26T09:15:14.999Z</time></trkpt><trkpt lat="39.06408374592357" lon="8.862545768036718"><ele>477.20000000000005</ele><time>2026-03-26T09:15:16.999Z</time></trkpt><trkpt lat="39.06405890358836" lon="8.862627034192222"><ele>477.79999999999995</ele><time>2026-03-26T09:15:17.999Z</time></trkpt><trkpt lat="39.06401777451366" lon="8.862695912469933"><ele>478.4</ele><time>2026-03-26T09:15:18.999Z</time></trkpt><trkpt lat="39.06389574511567" lon="8.8627628908062"><ele>479.0</ele><time>2026-03-26T09:15:20.999Z</time></trkpt><trkpt lat="39.063824065223166" lon="8.862769388055524"><ele>478.99999999999994</ele><time>2026-03-26T09:15:21.999Z</time></trkpt><trkpt lat="39.063754563235406" lon="8.862775033147253"><ele>479.0</ele><time>2026-03-26T09:15:22.999Z</time></trkpt><trkpt lat="39.06368913863836" lon="8.8627912145295"><ele>479.0</ele><time>2026-03-26T09:15:23.999Z</time></trkpt><trkpt lat="39.063584860179695" lon="8.862845273696731"><ele>479.0</ele><time>2026-03-26T09:15:26Z</time></trkpt><trkpt lat="39.06352681027482" lon="8.862882866429528"><ele>478.99999999999994</ele><time>2026-03-26T09:15:27Z</time></trkpt><trkpt lat="39.06344001661049" lon="8.862969093598855"><ele>479.0</ele><time>2026-03-26T09:15:29Z</time></trkpt><trkpt lat="39.06338288338542" lon="8.863004248988176"><ele>479.0</ele><time>2026-03-26T09:15:30Z</time></trkpt><trkpt lat="39.06328935934379" lon="8.86294451771681"><ele>479.0</ele><time>2026-03-26T09:15:33Z</time></trkpt><trkpt lat="39.06329814295951" lon="8.862844607998692"><ele>479.0</ele><time>2026-03-26T09:15:35Z</time></trkpt><trkpt lat="39.063327051820366" lon="8.862716413998088"><ele>479.0</ele><time>2026-03-26T09:15:38Z</time></trkpt><trkpt lat="39.063329601385306" lon="8.862520513417365"><ele>479.0</ele><time>2026-03-26T09:15:40Z</time></trkpt><trkpt lat="39.063306477424234" lon="8.862375388007045"><ele>481.99999999999994</ele><time>2026-03-26T09:15:42Z</time></trkpt><trkpt lat="39.063289570800606" lon="8.862287158691418"><ele>485.0</ele><time>2026-03-26T09:15:43Z</time></trkpt><trkpt lat="39.0632506330396" lon="8.86219551589042"><ele>488.0</ele><time>2026-03-26T09:15:44Z</time></trkpt><trkpt lat="39.06321479823191" lon="8.862126002665546"><ele>491.0</ele><time>2026-03-26T09:15:45Z</time></trkpt><trkpt lat="39.0631617323504" lon="8.86200760935771"><ele>493.99999999999994</ele><time>2026-03-26T09:15:47Z</time></trkpt><trkpt lat="39.06310977466941" lon="8.861889533226485"><ele>497.0</ele><time>2026-03-26T09:15:49Z</time></trkpt><trkpt lat="39.0630412401796" lon="8.861798983848352"><ele>502.49999999999994</ele><time>2026-03-26T09:15:51Z</time></trkpt><trkpt lat="39.06298871817087" lon="8.861665348125108"><ele>508.0</ele><time>2026-03-26T09:15:53Z</time></trkpt><trkpt lat="39.06296665417973" lon="8.861585893951776"><ele>513.5</ele><time>2026-03-26T09:15:54Z</time></trkpt><trkpt lat="39.062932990342794" lon="8.861499952491181"><ele>519.0</ele><time>2026-03-26T09:15:55Z</time></trkpt><trkpt lat="39.06289147304023" lon="8.86142344783336"><ele>524.5</ele><time>2026-03-26T09:15:56Z</time></trkpt><trkpt lat="39.06284465042022" lon="8.861363115718074"><ele>530.0</ele><time>2026-03-26T09:15:57Z</time></trkpt><trkpt lat="39.06275327256191" lon="8.861281576982709"><ele>530.0</ele><time>2026-03-26T09:15:59Z</time></trkpt><trkpt lat="39.06269063327367" lon="8.861265813317612"><ele>530.0</ele><time>2026-03-26T09:16:00Z</time></trkpt><trkpt lat="39.062622182677444" lon="8.861152559496967"><ele>530.0</ele><time>2026-03-26T09:16:02Z</time></trkpt><trkpt lat="39.062608589243446" lon="8.861027987840384"><ele>530.0</ele><time>2026-03-26T09:16:04Z</time></trkpt><trkpt lat="39.06261243110015" lon="8.86088308117935"><ele>530.0</ele><time>2026-03-26T09:16:06Z</time></trkpt><trkpt lat="39.062624571385456" lon="8.860755644312734"><ele>530.2</ele><time>2026-03-26T09:16:08Z</time></trkpt><trkpt lat="39.06264534322356" lon="8.860607668580965"><ele>530.4</ele><time>2026-03-26T09:16:10Z</time></trkpt><trkpt lat="39.06268972721994" lon="8.860463291296835"><ele>530.6</ele><time>2026-03-26T09:16:12Z</time></trkpt><trkpt lat="39.06270157309098" lon="8.860312355519058"><ele>530.8</ele><time>2026-03-26T09:16:14Z</time></trkpt><trkpt lat="39.06267653633415" lon="8.860204819151502"><ele>531.0</ele><time>2026-03-26T09:16:15Z</time></trkpt><trkpt lat="39.06262749350659" lon="8.86010206586537"><ele>531.0</ele><time>2026-03-26T09:16:16Z</time></trkpt><trkpt lat="39.06257552513289" lon="8.86002447066326"><ele>531.0</ele><time>2026-03-26T09:16:17Z</time></trkpt><trkpt lat="39.062535755769126" lon="8.859960521050638"><ele>531.0</ele><time>2026-03-26T09:16:18Z</time></trkpt><trkpt lat="39.06249896933762" lon="8.85982733233018"><ele>531.0</ele><time>2026-03-26T09:16:20Z</time></trkpt><trkpt lat="39.06247057413701" lon="8.859688320017883"><ele>531.0</ele><time>2026-03-26T09:16:22Z</time></trkpt><trkpt lat="39.062435203414566" lon="8.859565928824427"><ele>540.8</ele><time>2026-03-26T09:16:24Z</time></trkpt><trkpt lat="39.06235304408713" lon="8.859459925351207"><ele>550.6</ele><time>2026-03-26T09:16:26Z</time></trkpt><trkpt lat="39.06231691884092" lon="8.859280039772791"><ele>560.4</ele><time>2026-03-26T09:16:28Z</time></trkpt><trkpt lat="39.06230017761689" lon="8.859165757737742"><ele>570.2</ele><time>2026-03-26T09:16:29Z</time></trkpt><trkpt lat="39.062274868957694" lon="8.85907974198757"><ele>580.0</ele><time>2026-03-26T09:16:30Z</time></trkpt><trkpt lat="39.0622541326743" lon="8.85895144256008"><ele>580.0</ele><time>2026-03-26T09:16:32Z</time></trkpt><trkpt lat="39.06224427400686" lon="8.85884546196987"><ele>580.0</ele><time>2026-03-26T09:16:35Z</time></trkpt><trkpt lat="39.06222431727075" lon="8.85872511115888"><ele>580.0</ele><time>2026-03-26T09:16:37Z</time></trkpt><trkpt lat="39.06221515003829" lon="8.858576363544723"><ele>580.0</ele><time>2026-03-26T09:16:39Z</time></trkpt><trkpt lat="39.06221594492429" lon="8.858440032200976"><ele>580.0</ele><time>2026-03-26T09:16:41Z</time></trkpt><trkpt lat="39.06223542248334" lon="8.858293400647089"><ele>580.2</ele><time>2026-03-26T09:16:43Z</time></trkpt><trkpt lat="39.0622291361863" lon="8.858199438578295"><ele>580.4</ele><time>2026-03-26T09:16:44Z</time></trkpt><trkpt lat="39.06220761614057" lon="8.858107398577028"><ele>580.6</ele><time>2026-03-26T09:16:45Z</time></trkpt><trkpt lat="39.062148674639396" lon="8.857982141604076"><ele>580.8</ele><time>2026-03-26T09:16:47Z</time></trkpt><trkpt lat="39.062062117378005" lon="8.857920764778909"><ele>581.0</ele><time>2026-03-26T09:16:49Z</time></trkpt><trkpt lat="39.06199792061213" lon="8.85783413861041"><ele>581.0</ele><time>2026-03-26T09:16:51Z</time></trkpt><trkpt lat="39.06191227067503" lon="8.85776006330454"><ele>581.0</ele><time>2026-03-26T09:16:53Z</time></trkpt><trkpt lat="39.06182897365164" lon="8.857694777113059"><ele>581.0</ele><time>2026-03-26T09:16:55Z</time></trkpt><trkpt lat="39.06174050640746" lon="8.85766776459776"><ele>581.0</ele><time>2026-03-26T09:16:57Z</time></trkpt><trkpt lat="39.061683377074594" lon="8.857624724495821"><ele>581.0</ele><time>2026-03-26T09:16:59Z</time></trkpt><trkpt lat="39.06162960073881" lon="8.85756430746976"><ele>581.0</ele><time>2026-03-26T09:17:01Z</time></trkpt><trkpt lat="39.061546622746604" lon="8.857509782188131"><ele>586.8</ele><time>2026-03-26T09:17:03Z</time></trkpt><trkpt lat="39.06147827006804" lon="8.857443219729884"><ele>592.6</ele><time>2026-03-26T09:17:05Z</time></trkpt><trkpt lat="39.06139872901282" lon="8.857381386361824"><ele>598.4</ele><time>2026-03-26T09:17:07Z</time></trkpt><trkpt lat="39.06133016016024" lon="8.857284872087877"><ele>604.2</ele><time>2026-03-26T09:17:09Z</time></trkpt><trkpt lat="39.06122135199815" lon="8.857215226479694"><ele>610.0</ele><time>2026-03-26T09:17:11Z</time></trkpt><trkpt lat="39.06113226413293" lon="8.857160099253077"><ele>610.0</ele><time>2026-03-26T09:17:13Z</time></trkpt><trkpt lat="39.06109318850502" lon="8.857089939004002"><ele>610.0</ele><time>2026-03-26T09:17:14Z</time></trkpt><trkpt lat="39.06104294720786" lon="8.856965422102308"><ele>610.0</ele><time>2026-03-26T09:17:15.999Z</time></trkpt><trkpt lat="39.06100884970697" lon="8.856873852304133"><ele>610.0</ele><time>2026-03-26T09:17:18.999Z</time></trkpt><trkpt lat="39.06101533687487" lon="8.856758176508938"><ele>610.0</ele><time>2026-03-26T09:17:20.999Z</time></trkpt><trkpt lat="39.06105442458144" lon="8.856608041584666"><ele>608.7142857142858</ele><time>2026-03-26T09:17:22.999Z</time></trkpt><trkpt lat="39.06108706654247" lon="8.856531996555857"><ele>607.4285714285713</ele><time>2026-03-26T09:17:23.999Z</time></trkpt><trkpt lat="39.06112141274703" lon="8.856461582427805"><ele>606.1428571428571</ele><time>2026-03-26T09:17:24.999Z</time></trkpt><trkpt lat="39.061149473008804" lon="8.85638007468061"><ele>604.8571428571429</ele><time>2026-03-26T09:17:25.999Z</time></trkpt><trkpt lat="39.0611863140756" lon="8.856301012300888"><ele>603.5714285714287</ele><time>2026-03-26T09:17:26.999Z</time></trkpt><trkpt lat="39.06122508012462" lon="8.856214642768386"><ele>602.2857142857142</ele><time>2026-03-26T09:17:27.999Z</time></trkpt><trkpt lat="39.06126166469216" lon="8.856128507265021"><ele>601.0</ele><time>2026-03-26T09:17:28.999Z</time></trkpt><trkpt lat="39.06129597879475" lon="8.856046935229168"><ele>599.8333333333334</ele><time>2026-03-26T09:17:30Z</time></trkpt><trkpt lat="39.06136353915873" lon="8.855939793574326"><ele>598.6666666666667</ele><time>2026-03-26T09:17:32Z</time></trkpt><trkpt lat="39.06143343980862" lon="8.855942687086834"><ele>597.5</ele><time>2026-03-26T09:17:33Z</time></trkpt><trkpt lat="39.061495021570565" lon="8.855911195687563"><ele>596.3333333333334</ele><time>2026-03-26T09:17:34Z</time></trkpt><trkpt lat="39.06155052453654" lon="8.855872410477687"><ele>595.1666666666666</ele><time>2026-03-26T09:17:35Z</time></trkpt><trkpt lat="39.06158603760615" lon="8.855765050464276"><ele>594.0</ele><time>2026-03-26T09:17:37Z</time></trkpt><trkpt lat="39.06155663103143" lon="8.855623114488997"><ele>594.0</ele><time>2026-03-26T09:17:39Z</time></trkpt><trkpt lat="39.061510109944294" lon="8.855559088304098"><ele>594.0</ele><time>2026-03-26T09:17:40Z</time></trkpt><trkpt lat="39.06140370644491" lon="8.855499383984037"><ele>594.0</ele><time>2026-03-26T09:17:42Z</time></trkpt><trkpt lat="39.06133640290537" lon="8.855503207916838"><ele>594.0</ele><time>2026-03-26T09:17:43Z</time></trkpt><trkpt lat="39.06125733070887" lon="8.855515126316169"><ele>594.0</ele><time>2026-03-26T09:17:44Z</time></trkpt><trkpt lat="39.06117890471216" lon="8.85552112226019"><ele>594.0</ele><time>2026-03-26T09:17:45Z</time></trkpt><trkpt lat="39.06109499086852" lon="8.855507532352682"><ele>594.0</ele><time>2026-03-26T09:17:46Z</time></trkpt><trkpt lat="39.06102430663978" lon="8.855509464742742"><ele>594.0</ele><time>2026-03-26T09:17:47Z</time></trkpt><trkpt lat="39.06092289876023" lon="8.85559043367491"><ele>594.0</ele><time>2026-03-26T09:17:49Z</time></trkpt><trkpt lat="39.060869622508605" lon="8.855665106607562"><ele>594.0</ele><time>2026-03-26T09:17:50Z</time></trkpt><trkpt lat="39.06081008225891" lon="8.855711773781794"><ele>594.0</ele><time>2026-03-26T09:17:51Z</time></trkpt><trkpt lat="39.06074188833922" lon="8.85574012365337"><ele>594.0</ele><time>2026-03-26T09:17:52Z</time></trkpt><trkpt lat="39.06067082022371" lon="8.855767214671674"><ele>594.1666666666666</ele><time>2026-03-26T09:17:53Z</time></trkpt><trkpt lat="39.06060165642582" lon="8.855788747443226"><ele>594.3333333333334</ele><time>2026-03-26T09:17:54Z</time></trkpt><trkpt lat="39.06053371789689" lon="8.855793826776573"><ele>594.5</ele><time>2026-03-26T09:17:55Z</time></trkpt><trkpt lat="39.06043414382712" lon="8.855801413394369"><ele>594.6666666666667</ele><time>2026-03-26T09:17:57Z</time></trkpt><trkpt lat="39.06031606793898" lon="8.855787195798516"><ele>594.8333333333334</ele><time>2026-03-26T09:17:59Z</time></trkpt><trkpt lat="39.06024513994864" lon="8.855826716021804"><ele>595.0</ele><time>2026-03-26T09:18:00Z</time></trkpt><trkpt lat="39.060168387707115" lon="8.855863964087106"><ele>595.0</ele><time>2026-03-26T09:18:01Z</time></trkpt><trkpt lat="39.06010006454307" lon="8.85590309022184"><ele>595.0</ele><time>2026-03-26T09:18:02Z</time></trkpt><trkpt lat="39.060038733073405" lon="8.855948401691915"><ele>595.0</ele><time>2026-03-26T09:18:03Z</time></trkpt><trkpt lat="39.059944254968656" lon="8.856064344414575"><ele>595.0</ele><time>2026-03-26T09:18:05Z</time></trkpt><trkpt lat="39.05988535472382" lon="8.856140210295163"><ele>595.0</ele><time>2026-03-26T09:18:07Z</time></trkpt><trkpt lat="39.059795795377546" lon="8.856182927400328"><ele>596.8</ele><time>2026-03-26T09:18:09Z</time></trkpt><trkpt lat="39.05969752054062" lon="8.856270389764136"><ele>598.6</ele><time>2026-03-26T09:18:11Z</time></trkpt><trkpt lat="39.05960510086964" lon="8.856381590401005"><ele>600.4</ele><time>2026-03-26T09:18:13Z</time></trkpt><trkpt lat="39.059548349505874" lon="8.85646008871987"><ele>602.2</ele><time>2026-03-26T09:18:14Z</time></trkpt><trkpt lat="39.05949545786993" lon="8.856546194987278"><ele>604.0</ele><time>2026-03-26T09:18:15Z</time></trkpt><trkpt lat="39.05944126576644" lon="8.856631038165922"><ele>604.0</ele><time>2026-03-26T09:18:16Z</time></trkpt><trkpt lat="39.05938613725157" lon="8.85671846738569"><ele>604.0</ele><time>2026-03-26T09:18:17Z</time></trkpt><trkpt lat="39.05933860120767" lon="8.856806692898497"><ele>604.0</ele><time>2026-03-26T09:18:18Z</time></trkpt><trkpt lat="39.05929181655243" lon="8.856880268449443"><ele>604.0</ele><time>2026-03-26T09:18:19Z</time></trkpt><trkpt lat="39.05923716647444" lon="8.856933163534256"><ele>604.0</ele><time>2026-03-26T09:18:20Z</time></trkpt><trkpt lat="39.05917337664235" lon="8.856989015627265"><ele>604.0</ele><time>2026-03-26T09:18:21Z</time></trkpt><trkpt lat="39.05911155771647" lon="8.857047473131585"><ele>605.0</ele><time>2026-03-26T09:18:22Z</time></trkpt><trkpt lat="39.059057848350484" lon="8.857111738001844"><ele>606.0</ele><time>2026-03-26T09:18:23Z</time></trkpt><trkpt lat="39.059007111430226" lon="8.857185818108675"><ele>607.0</ele><time>2026-03-26T09:18:24Z</time></trkpt><trkpt lat="39.05896039034868" lon="8.85726313883889"><ele>608.0</ele><time>2026-03-26T09:18:25Z</time></trkpt><trkpt lat="39.058913951212304" lon="8.857339225328511"><ele>609.0</ele><time>2026-03-26T09:18:26Z</time></trkpt><trkpt lat="39.05885627537132" lon="8.857410133586981"><ele>610.0</ele><time>2026-03-26T09:18:27Z</time></trkpt><trkpt lat="39.05879868930595" lon="8.857480206091925"><ele>610.0</ele><time>2026-03-26T09:18:28Z</time></trkpt><trkpt lat="39.05873799608846" lon="8.857548987282414"><ele>610.0</ele><time>2026-03-26T09:18:29Z</time></trkpt><trkpt lat="39.0586728676018" lon="8.8576065733517"><ele>610.0</ele><time>2026-03-26T09:18:30Z</time></trkpt><trkpt lat="39.05860742850651" lon="8.857667967482127"><ele>610.0</ele><time>2026-03-26T09:18:31Z</time></trkpt><trkpt lat="39.058541608036315" lon="8.857726091997057"><ele>610.0</ele><time>2026-03-26T09:18:32Z</time></trkpt><trkpt lat="39.058470361322065" lon="8.857784366416691"><ele>610.0</ele><time>2026-03-26T09:18:33Z</time></trkpt><trkpt lat="39.05839896554233" lon="8.857854333058187"><ele>610.6666666666667</ele><time>2026-03-26T09:18:34Z</time></trkpt><trkpt lat="39.058321132965006" lon="8.857922582584337"><ele>611.3333333333334</ele><time>2026-03-26T09:18:35Z</time></trkpt><trkpt lat="39.058238529782486" lon="8.857990404554112"><ele>612.0</ele><time>2026-03-26T09:18:36Z</time></trkpt><trkpt lat="39.05816610019238" lon="8.858057091018095"><ele>612.6666666666666</ele><time>2026-03-26T09:18:37Z</time></trkpt><trkpt lat="39.05810335599629" lon="8.858128700696762"><ele>613.3333333333333</ele><time>2026-03-26T09:18:38Z</time></trkpt><trkpt lat="39.05804005241864" lon="8.858200180552329"><ele>614.0</ele><time>2026-03-26T09:18:39Z</time></trkpt><trkpt lat="39.057974373410595" lon="8.858262531553171"><ele>614.0</ele><time>2026-03-26T09:18:40Z</time></trkpt><trkpt lat="39.05790773647009" lon="8.85831554752078"><ele>614.0</ele><time>2026-03-26T09:18:41Z</time></trkpt><trkpt lat="39.05784386657522" lon="8.85838369220042"><ele>614.0</ele><time>2026-03-26T09:18:42Z</time></trkpt><trkpt lat="39.05778106569558" lon="8.858463948335741"><ele>614.0</ele><time>2026-03-26T09:18:43Z</time></trkpt><trkpt lat="39.05772118482779" lon="8.858546796234666"><ele>614.0</ele><time>2026-03-26T09:18:44Z</time></trkpt><trkpt lat="39.057668383811674" lon="8.858633719609152"><ele>614.0</ele><time>2026-03-26T09:18:45Z</time></trkpt><trkpt lat="39.057618314397416" lon="8.858725424289892"><ele>617.0</ele><time>2026-03-26T09:18:46Z</time></trkpt><trkpt lat="39.05757503922115" lon="8.858822873698477"><ele>620.0</ele><time>2026-03-26T09:18:47Z</time></trkpt><trkpt lat="39.057547524921894" lon="8.858917101748471"><ele>623.0</ele><time>2026-03-26T09:18:48Z</time></trkpt><trkpt lat="39.05753068206123" lon="8.85901115412382"><ele>626.0</ele><time>2026-03-26T09:18:49Z</time></trkpt><trkpt lat="39.057524872594286" lon="8.859108748909366"><ele>629.0</ele><time>2026-03-26T09:18:50Z</time></trkpt><trkpt lat="39.057532742421465" lon="8.859217047310207"><ele>632.0</ele><time>2026-03-26T09:18:51Z</time></trkpt><trkpt lat="39.057550779256076" lon="8.859326153499415"><ele>633.2</ele><time>2026-03-26T09:18:52Z</time></trkpt><trkpt lat="39.05757952400099" lon="8.859417551182906"><ele>634.4000000000001</ele><time>2026-03-26T09:18:53Z</time></trkpt><trkpt lat="39.0576132841025" lon="8.859549262376506"><ele>635.5999999999999</ele><time>2026-03-26T09:18:55Z</time></trkpt><trkpt lat="39.05761123799924" lon="8.859661769863555"><ele>636.8</ele><time>2026-03-26T09:18:57Z</time></trkpt><trkpt lat="39.05754411791253" lon="8.85972993976329"><ele>638.0</ele><time>2026-03-26T09:18:59Z</time></trkpt><trkpt lat="39.05743532731063" lon="8.859762123614223"><ele>638.0</ele><time>2026-03-26T09:19:01Z</time></trkpt><trkpt lat="39.05735806379926" lon="8.8597915798148"><ele>638.0</ele><time>2026-03-26T09:19:02Z</time></trkpt><trkpt lat="39.057295198185166" lon="8.859836454441613"><ele>638.0</ele><time>2026-03-26T09:19:03Z</time></trkpt><trkpt lat="39.05723383589506" lon="8.859874234637065"><ele>638.0</ele><time>2026-03-26T09:19:04Z</time></trkpt><trkpt lat="39.05717214037959" lon="8.859910739836419"><ele>638.0</ele><time>2026-03-26T09:19:05Z</time></trkpt><trkpt lat="39.05711125416491" lon="8.859948679606074"><ele>638.0</ele><time>2026-03-26T09:19:06Z</time></trkpt><trkpt lat="39.05703812148779" lon="8.859974331930214"><ele>638.0</ele><time>2026-03-26T09:19:08Z</time></trkpt><trkpt lat="39.05693489075417" lon="8.85994684487717"><ele>638.0</ele><time>2026-03-26T09:19:10Z</time></trkpt><trkpt lat="39.05684386958825" lon="8.859967055497288"><ele>638.0</ele><time>2026-03-26T09:19:12Z</time></trkpt><trkpt lat="39.05680525110494" lon="8.860051505408626"><ele>638.0</ele><time>2026-03-26T09:19:27Z</time></trkpt><trkpt lat="39.05688440481378" lon="8.860096621076272"><ele>638.0</ele><time>2026-03-26T09:19:29Z</time></trkpt><trkpt lat="39.05697571774192" lon="8.860108577164867"><ele>638.0</ele><time>2026-03-26T09:19:31Z</time></trkpt><trkpt lat="39.057072612956404" lon="8.860144278912214"><ele>638.0</ele><time>2026-03-26T09:19:33Z</time></trkpt><trkpt lat="39.057148626175106" lon="8.860133889551943"><ele>638.0</ele><time>2026-03-26T09:19:34.999Z</time></trkpt><trkpt lat="39.057262892500695" lon="8.86009097047451"><ele>638.0</ele><time>2026-03-26T09:19:37.001Z</time></trkpt><trkpt lat="39.05738571148559" lon="8.860088730624275"><ele>638.0</ele><time>2026-03-26T09:19:39.001Z</time></trkpt><trkpt lat="39.057449618243716" lon="8.860100942855404"><ele>638.0</ele><time>2026-03-26T09:19:40.001Z</time></trkpt><trkpt lat="39.05751932325659" lon="8.860114913630316"><ele>638.0</ele><time>2026-03-26T09:19:41.001Z</time></trkpt><trkpt lat="39.05758479531121" lon="8.860115323418071"><ele>638.0</ele><time>2026-03-26T09:19:42.001Z</time></trkpt><trkpt lat="39.05770901320988" lon="8.86011459680641"><ele>642.5999999999999</ele><time>2026-03-26T09:19:44.001Z</time></trkpt><trkpt lat="39.057779241707166" lon="8.860122315690596"><ele>647.1999999999999</ele><time>2026-03-26T09:19:45.001Z</time></trkpt><trkpt lat="39.05785525259733" lon="8.860130638079953"><ele>651.8</ele><time>2026-03-26T09:19:46.001Z</time></trkpt><trkpt lat="39.057928568262604" lon="8.860131806475733"><ele>656.4</ele><time>2026-03-26T09:19:47.001Z</time></trkpt><trkpt lat="39.05804056651637" lon="8.860167611697054"><ele>661.0</ele><time>2026-03-26T09:19:49.001Z</time></trkpt><trkpt lat="39.05816398876745" lon="8.86026328475379"><ele>661.0</ele><time>2026-03-26T09:19:51Z</time></trkpt><trkpt lat="39.05823538681601" lon="8.860310739954025"><ele>661.0</ele><time>2026-03-26T09:19:52Z</time></trkpt><trkpt lat="39.05833390477812" lon="8.860363511804744"><ele>661.0</ele><time>2026-03-26T09:19:54Z</time></trkpt><trkpt lat="39.05842737338469" lon="8.860392184180151"><ele>661.0</ele><time>2026-03-26T09:19:56Z</time></trkpt><trkpt lat="39.05853741986705" lon="8.860459684582695"><ele>661.0</ele><time>2026-03-26T09:19:58Z</time></trkpt><trkpt lat="39.05864021911017" lon="8.860478374848316"><ele>660.6666666666667</ele><time>2026-03-26T09:20:00Z</time></trkpt><trkpt lat="39.05875171037564" lon="8.860441700421056"><ele>660.3333333333334</ele><time>2026-03-26T09:20:02Z</time></trkpt><trkpt lat="39.058849054937994" lon="8.860415863527933"><ele>660.0</ele><time>2026-03-26T09:20:04Z</time></trkpt><trkpt lat="39.05891175112244" lon="8.860453308032172"><ele>659.6666666666666</ele><time>2026-03-26T09:20:07Z</time></trkpt><trkpt lat="39.058959234655205" lon="8.860534946307977"><ele>659.3333333333333</ele><time>2026-03-26T09:20:59Z</time></trkpt><trkpt lat="39.058932518151366" lon="8.860622142514611"><ele>659.0</ele><time>2026-03-26T09:21:01Z</time></trkpt><trkpt lat="39.05888522970356" lon="8.860737350357969"><ele>659.0</ele><time>2026-03-26T09:21:03Z</time></trkpt><trkpt lat="39.05885598801568" lon="8.860854413866038"><ele>659.0</ele><time>2026-03-26T09:21:05Z</time></trkpt><trkpt lat="39.05881137521148" lon="8.860974155954674"><ele>659.0</ele><time>2026-03-26T09:21:07Z</time></trkpt><trkpt lat="39.05877202923584" lon="8.861071946892336"><ele>659.0</ele><time>2026-03-26T09:21:09Z</time></trkpt><trkpt lat="39.05873170354527" lon="8.86119137496168"><ele>659.0</ele><time>2026-03-26T09:21:11Z</time></trkpt><trkpt lat="39.05867936687793" lon="8.861315147093004"><ele>660.8000000000001</ele><time>2026-03-26T09:21:13Z</time></trkpt><trkpt lat="39.05861915424258" lon="8.861405158770221"><ele>662.6</ele><time>2026-03-26T09:21:15Z</time></trkpt><trkpt lat="39.058560176262326" lon="8.861525417061872"><ele>664.4</ele><time>2026-03-26T09:21:17Z</time></trkpt><trkpt lat="39.05852668673152" lon="8.861665862321557"><ele>666.2</ele><time>2026-03-26T09:21:19Z</time></trkpt><trkpt lat="39.05851591691238" lon="8.861797869347397"><ele>668.0</ele><time>2026-03-26T09:21:21Z</time></trkpt><trkpt lat="39.05853151032928" lon="8.861903717220802"><ele>668.6666666666666</ele><time>2026-03-26T09:21:23Z</time></trkpt><trkpt lat="39.05851338976267" lon="8.862051894830886"><ele>669.3333333333333</ele><time>2026-03-26T09:21:25Z</time></trkpt><trkpt lat="39.05850440708935" lon="8.862142346118706"><ele>670.0</ele><time>2026-03-26T09:21:26Z</time></trkpt><trkpt lat="39.0584887636917" lon="8.862222351600623"><ele>670.6666666666666</ele><time>2026-03-26T09:21:27Z</time></trkpt><trkpt lat="39.0584659100814" lon="8.86233345239368"><ele>671.3333333333334</ele><time>2026-03-26T09:21:29Z</time></trkpt><trkpt lat="39.05841675408161" lon="8.862442313040624"><ele>672.0</ele><time>2026-03-26T09:21:31Z</time></trkpt><trkpt lat="39.05835857253586" lon="8.862555767043691"><ele>671.4000000000001</ele><time>2026-03-26T09:21:33Z</time></trkpt><trkpt lat="39.05833127200962" lon="8.862665294499322"><ele>670.8000000000001</ele><time>2026-03-26T09:21:35Z</time></trkpt><trkpt lat="39.05832866806602" lon="8.862794974370326"><ele>670.2</ele><time>2026-03-26T09:21:36.999Z</time></trkpt><trkpt lat="39.05829189954397" lon="8.862970669775407"><ele>669.6</ele><time>2026-03-26T09:21:38.999Z</time></trkpt><trkpt lat="39.05827016819462" lon="8.863062552018887"><ele>669.0</ele><time>2026-03-26T09:21:39.999Z</time></trkpt><trkpt lat="39.0582526443676" lon="8.86314565285153"><ele>674.6</ele><time>2026-03-26T09:21:40.999Z</time></trkpt><trkpt lat="39.05821691979994" lon="8.863269738055223"><ele>680.2</ele><time>2026-03-26T09:21:43Z</time></trkpt><trkpt lat="39.058188698367246" lon="8.863390942657833"><ele>685.8000000000001</ele><time>2026-03-26T09:21:45Z</time></trkpt><trkpt lat="39.058180847873416" lon="8.863526420513562"><ele>691.4000000000001</ele><time>2026-03-26T09:21:47Z</time></trkpt><trkpt lat="39.05822672762443" lon="8.863636881750288"><ele>697.0</ele><time>2026-03-26T09:21:49Z</time></trkpt><trkpt lat="39.058229246618275" lon="8.863742883744905"><ele>697.0</ele><time>2026-03-26T09:21:51Z</time></trkpt><trkpt lat="39.0581743690979" lon="8.863870109168365"><ele>697.0</ele><time>2026-03-26T09:21:53Z</time></trkpt><trkpt lat="39.058117328054536" lon="8.863997898167288"><ele>697.0</ele><time>2026-03-26T09:21:55Z</time></trkpt><trkpt lat="39.058081677458745" lon="8.86407100814402"><ele>697.0</ele><time>2026-03-26T09:21:56Z</time></trkpt><trkpt lat="39.0580451499909" lon="8.864155276799409"><ele>697.0</ele><time>2026-03-26T09:21:57Z</time></trkpt><trkpt lat="39.05801164839991" lon="8.864233928260786"><ele>697.0</ele><time>2026-03-26T09:21:58Z</time></trkpt><trkpt lat="39.05796960452826" lon="8.864301831416586"><ele>693.8</ele><time>2026-03-26T09:21:59Z</time></trkpt><trkpt lat="39.057898718785076" lon="8.864393395010357"><ele>690.6</ele><time>2026-03-26T09:22:01Z</time></trkpt><trkpt lat="39.057787539267665" lon="8.864401283854978"><ele>687.4</ele><time>2026-03-26T09:22:03Z</time></trkpt><trkpt lat="39.05771900888471" lon="8.864377373504356"><ele>684.1999999999999</ele><time>2026-03-26T09:22:04Z</time></trkpt><trkpt lat="39.057633011836124" lon="8.864361658284807"><ele>681.0</ele><time>2026-03-26T09:22:04.999Z</time></trkpt><trkpt lat="39.05754032970902" lon="8.864355097680713"><ele>685.8</ele><time>2026-03-26T09:22:05.999Z</time></trkpt><trkpt lat="39.05741065169106" lon="8.864338102393956"><ele>690.5999999999999</ele><time>2026-03-26T09:22:07.999Z</time></trkpt><trkpt lat="39.057340211940335" lon="8.864321452528642"><ele>695.4</ele><time>2026-03-26T09:22:08.999Z</time></trkpt><trkpt lat="39.05722460656651" lon="8.864304738665034"><ele>700.2</ele><time>2026-03-26T09:22:10.999Z</time></trkpt><trkpt lat="39.057140726660904" lon="8.864295734539859"><ele>705.0</ele><time>2026-03-26T09:22:12.999Z</time></trkpt><trkpt lat="39.05707818490916" lon="8.864309536696215"><ele>705.0</ele><time>2026-03-26T09:22:13.999Z</time></trkpt><trkpt lat="39.057004965897974" lon="8.864356305535253"><ele>705.0</ele><time>2026-03-26T09:22:15.999Z</time></trkpt><trkpt lat="39.05695135403554" lon="8.864442947074389"><ele>705.0</ele><time>2026-03-26T09:22:17.999Z</time></trkpt><trkpt lat="39.05690971702505" lon="8.864513020059867"><ele>705.0</ele><time>2026-03-26T09:22:18.999Z</time></trkpt><trkpt lat="39.05686839431812" lon="8.864596594890816"><ele>705.0</ele><time>2026-03-26T09:22:19.999Z</time></trkpt><trkpt lat="39.056834159226085" lon="8.864682741334617"><ele>705.0</ele><time>2026-03-26T09:22:20.999Z</time></trkpt><trkpt lat="39.05679691048496" lon="8.864760242650359"><ele>705.0</ele><time>2026-03-26T09:22:21.999Z</time></trkpt><trkpt lat="39.05676432067937" lon="8.864838088564372"><ele>705.0</ele><time>2026-03-26T09:22:22.999Z</time></trkpt><trkpt lat="39.05673839058212" lon="8.864918005109425"><ele>705.0</ele><time>2026-03-26T09:22:23.999Z</time></trkpt><trkpt lat="39.05671348477603" lon="8.865000978995822"><ele>705.0</ele><time>2026-03-26T09:22:24.999Z</time></trkpt><trkpt lat="39.05667182483906" lon="8.865133072898853"><ele>705.0</ele><time>2026-03-26T09:22:26.999Z</time></trkpt><trkpt lat="39.05662337138526" lon="8.865259226355285"><ele>705.0</ele><time>2026-03-26T09:22:28.999Z</time></trkpt><trkpt lat="39.05654810804825" lon="8.865364068737533"><ele>704.8333333333334</ele><time>2026-03-26T09:22:30.999Z</time></trkpt><trkpt lat="39.056469593388265" lon="8.865496067677572"><ele>704.6666666666666</ele><time>2026-03-26T09:22:32.999Z</time></trkpt><trkpt lat="39.05641303816428" lon="8.865566087896857"><ele>704.5</ele><time>2026-03-26T09:22:33.999Z</time></trkpt><trkpt lat="39.0563621606936" lon="8.865618312124477"><ele>704.3333333333333</ele><time>2026-03-26T09:22:34.999Z</time></trkpt><trkpt lat="39.056296698283184" lon="8.865656630796273"><ele>704.1666666666666</ele><time>2026-03-26T09:22:35.999Z</time></trkpt><trkpt lat="39.05621828766806" lon="8.86569546753136"><ele>704.0</ele><time>2026-03-26T09:22:36.999Z</time></trkpt><trkpt lat="39.05614003818386" lon="8.865727417469452"><ele>704.0</ele><time>2026-03-26T09:22:37.999Z</time></trkpt><trkpt lat="39.0560728203423" lon="8.865742958651213"><ele>704.0</ele><time>2026-03-26T09:22:38.999Z</time></trkpt><trkpt lat="39.056004998744044" lon="8.865738750142052"><ele>704.0</ele><time>2026-03-26T09:22:39.999Z</time></trkpt><trkpt lat="39.05588968764752" lon="8.8657204788845"><ele>704.0</ele><time>2026-03-26T09:22:41.999Z</time></trkpt><trkpt lat="39.05576396528824" lon="8.865711976672406"><ele>704.0</ele><time>2026-03-26T09:22:43.999Z</time></trkpt><trkpt lat="39.05570127859408" lon="8.865703611616306"><ele>704.0</ele><time>2026-03-26T09:22:44.999Z</time></trkpt><trkpt lat="39.05560331583573" lon="8.865677188820818"><ele>703.6</ele><time>2026-03-26T09:22:46.999Z</time></trkpt><trkpt lat="39.05551509720645" lon="8.865654104198807"><ele>703.2</ele><time>2026-03-26T09:22:48.999Z</time></trkpt><trkpt lat="39.055426365409105" lon="8.865633147854506"><ele>702.8000000000001</ele><time>2026-03-26T09:22:50.999Z</time></trkpt><trkpt lat="39.05534383596035" lon="8.86561863470933"><ele>702.4000000000001</ele><time>2026-03-26T09:22:52.999Z</time></trkpt><trkpt lat="39.055233089722776" lon="8.865639803345601"><ele>702.0</ele><time>2026-03-26T09:22:54.999Z</time></trkpt><trkpt lat="39.05511777030107" lon="8.865694684867572"><ele>702.0</ele><time>2026-03-26T09:22:56.999Z</time></trkpt><trkpt lat="39.05505391452876" lon="8.865735374206116"><ele>702.0</ele><time>2026-03-26T09:22:57.999Z</time></trkpt><trkpt lat="39.05496036810339" lon="8.865812388242661"><ele>702.0</ele><time>2026-03-26T09:22:59.999Z</time></trkpt><trkpt lat="39.0548953801711" lon="8.865876152427129"><ele>702.0</ele><time>2026-03-26T09:23:01.999Z</time></trkpt><trkpt lat="39.05482554300702" lon="8.865980412787646"><ele>702.0</ele><time>2026-03-26T09:23:03.999Z</time></trkpt><trkpt lat="39.05475138059113" lon="8.8660727056069"><ele>701.6</ele><time>2026-03-26T09:23:05.999Z</time></trkpt><trkpt lat="39.054677828842934" lon="8.866182637044476"><ele>701.2</ele><time>2026-03-26T09:23:07.999Z</time></trkpt><trkpt lat="39.0546120822838" lon="8.866285675152833"><ele>700.8</ele><time>2026-03-26T09:23:09.999Z</time></trkpt><trkpt lat="39.05456291185615" lon="8.8664066094733"><ele>700.4</ele><time>2026-03-26T09:23:11.999Z</time></trkpt><trkpt lat="39.05452189086553" lon="8.866499480644883"><ele>700.0</ele><time>2026-03-26T09:23:12.999Z</time></trkpt><trkpt lat="39.054501980661804" lon="8.86659225717243"><ele>700.0</ele><time>2026-03-26T09:23:13.999Z</time></trkpt><trkpt lat="39.0544688574231" lon="8.866703778796875"><ele>700.0</ele><time>2026-03-26T09:23:15.999Z</time></trkpt><trkpt lat="39.054396946403585" lon="8.866822614972548"><ele>700.0</ele><time>2026-03-26T09:23:17.999Z</time></trkpt><trkpt lat="39.05434616982574" lon="8.866886287340897"><ele>700.0</ele><time>2026-03-26T09:23:19.999Z</time></trkpt><trkpt lat="39.054285639925574" lon="8.866917656584652"><ele>700.0</ele><time>2026-03-26T09:23:21.999Z</time></trkpt><trkpt lat="39.05420204775716" lon="8.866958853725766"><ele>700.0</ele><time>2026-03-26T09:24:35.999Z</time></trkpt><trkpt lat="39.054122103861985" lon="8.86698535321521"><ele>697.0</ele><time>2026-03-26T09:24:37.999Z</time></trkpt><trkpt lat="39.054033865705904" lon="8.867019498766945"><ele>694.0</ele><time>2026-03-26T09:24:39.999Z</time></trkpt><trkpt lat="39.0539472362893" lon="8.867045906598156"><ele>691.0</ele><time>2026-03-26T09:24:41.999Z</time></trkpt><trkpt lat="39.05384825608075" lon="8.867056109558158"><ele>688.0</ele><time>2026-03-26T09:24:43.999Z</time></trkpt><trkpt lat="39.05375716939412" lon="8.867059173848268"><ele>685.0</ele><time>2026-03-26T09:24:45.999Z</time></trkpt><trkpt lat="39.0536801303989" lon="8.867044648496272"><ele>682.0</ele><time>2026-03-26T09:24:47.999Z</time></trkpt><trkpt lat="39.05359996248898" lon="8.86703982217388"><ele>682.0</ele><time>2026-03-26T09:24:49.999Z</time></trkpt><trkpt lat="39.05355270406982" lon="8.866967098546118"><ele>682.0</ele><time>2026-03-26T09:24:51.999Z</time></trkpt><trkpt lat="39.05347321951639" lon="8.866830252308036"><ele>682.0</ele><time>2026-03-26T09:24:53.999Z</time></trkpt><trkpt lat="39.05341573842739" lon="8.866756707323331"><ele>682.0</ele><time>2026-03-26T09:24:54.999Z</time></trkpt><trkpt lat="39.053369267269545" lon="8.866694069371537"><ele>682.0</ele><time>2026-03-26T09:24:55.999Z</time></trkpt><trkpt lat="39.05331094118943" lon="8.866576609239901"><ele>681.0</ele><time>2026-03-26T09:24:57.999Z</time></trkpt><trkpt lat="39.05325501912411" lon="8.86649284064179"><ele>680.0</ele><time>2026-03-26T09:24:59.999Z</time></trkpt><trkpt lat="39.05320086115252" lon="8.86642472530719"><ele>679.0</ele><time>2026-03-26T09:25:15.999Z</time></trkpt><trkpt lat="39.05313283136178" lon="8.866310861155767"><ele>678.0</ele><time>2026-03-26T09:25:17.999Z</time></trkpt><trkpt lat="39.05308820034313" lon="8.866238742084006"><ele>677.0</ele><time>2026-03-26T09:25:18.999Z</time></trkpt><trkpt lat="39.053011142638866" lon="8.866130924480293"><ele>677.0</ele><time>2026-03-26T09:25:20.999Z</time></trkpt><trkpt lat="39.052934731695814" lon="8.866008095464194"><ele>677.0</ele><time>2026-03-26T09:25:22.999Z</time></trkpt><trkpt lat="39.05287887591266" lon="8.86593545447823"><ele>677.0</ele><time>2026-03-26T09:25:24.999Z</time></trkpt><trkpt lat="39.05280959856829" lon="8.865847019670813"><ele>677.0</ele><time>2026-03-26T09:25:26.999Z</time></trkpt><trkpt lat="39.05276679648021" lon="8.865785509666974"><ele>677.0</ele><time>2026-03-26T09:25:27.999Z</time></trkpt><trkpt lat="39.05270285555141" lon="8.865685235684293"><ele>676.4000000000001</ele><time>2026-03-26T09:25:29.999Z</time></trkpt><trkpt lat="39.05263147877685" lon="8.865563769460051"><ele>675.8000000000001</ele><time>2026-03-26T09:25:31.999Z</time></trkpt><trkpt lat="39.05255751579699" lon="8.865442283264745"><ele>675.2</ele><time>2026-03-26T09:25:33.999Z</time></trkpt><trkpt lat="39.05252690202486" lon="8.86536282239104"><ele>674.6</ele><time>2026-03-26T09:25:34.999Z</time></trkpt><trkpt lat="39.0524873694473" lon="8.865251606937598"><ele>674.0</ele><time>2026-03-26T09:25:36.999Z</time></trkpt><trkpt lat="39.05244523426605" lon="8.865132219223305"><ele>677.4000000000001</ele><time>2026-03-26T09:25:38.999Z</time></trkpt><trkpt lat="39.05241398533965" lon="8.865037980447449"><ele>680.8</ele><time>2026-03-26T09:25:40.999Z</time></trkpt><trkpt lat="39.05235398686041" lon="8.864957539734782"><ele>684.2</ele><time>2026-03-26T09:25:42.999Z</time></trkpt><trkpt lat="39.05227340263883" lon="8.864839106561625"><ele>687.5999999999999</ele><time>2026-03-26T09:25:44.999Z</time></trkpt><trkpt lat="39.052213192136755" lon="8.864763255301847"><ele>691.0</ele><time>2026-03-26T09:25:46.999Z</time></trkpt><trkpt lat="39.0521452353208" lon="8.864707679614021"><ele>691.0</ele><time>2026-03-26T09:25:48.999Z</time></trkpt><trkpt lat="39.05206630357426" lon="8.86462210207631"><ele>691.0</ele><time>2026-03-26T09:25:50.999Z</time></trkpt><trkpt lat="39.052016428971115" lon="8.864533559982078"><ele>691.0</ele><time>2026-03-26T09:25:52.999Z</time></trkpt><trkpt lat="39.05192587985964" lon="8.86443559602844"><ele>691.0</ele><time>2026-03-26T09:25:55Z</time></trkpt><trkpt lat="39.05187043004652" lon="8.864350360349432"><ele>691.0</ele><time>2026-03-26T09:25:56Z</time></trkpt><trkpt lat="39.05182233688286" lon="8.864265637491897"><ele>692.1666666666667</ele><time>2026-03-26T09:25:57Z</time></trkpt><trkpt lat="39.051788156500486" lon="8.864193532702618"><ele>693.3333333333334</ele><time>2026-03-26T09:25:58Z</time></trkpt><trkpt lat="39.05172507827645" lon="8.864101216052433"><ele>694.5</ele><time>2026-03-26T09:26:00Z</time></trkpt><trkpt lat="39.051677682710206" lon="8.863968427045515"><ele>695.6666666666666</ele><time>2026-03-26T09:26:02Z</time></trkpt><trkpt lat="39.051659996204165" lon="8.863860572990678"><ele>696.8333333333333</ele><time>2026-03-26T09:26:03Z</time></trkpt><trkpt lat="39.05163551194817" lon="8.863766500938052"><ele>698.0</ele><time>2026-03-26T09:26:04Z</time></trkpt><trkpt lat="39.05160514310349" lon="8.863678254924015"><ele>698.0</ele><time>2026-03-26T09:26:05Z</time></trkpt><trkpt lat="39.051582320343954" lon="8.863594328491015"><ele>698.0</ele><time>2026-03-26T09:26:06Z</time></trkpt><trkpt lat="39.05155952122302" lon="8.863506478919795"><ele>698.0</ele><time>2026-03-26T09:26:07Z</time></trkpt><trkpt lat="39.05153724915316" lon="8.863375890983715"><ele>698.0</ele><time>2026-03-26T09:26:09Z</time></trkpt><trkpt lat="39.051520200159935" lon="8.863188562343495"><ele>698.0</ele><time>2026-03-26T09:26:10.999Z</time></trkpt><trkpt lat="39.05151818174436" lon="8.863073746592011"><ele>697.8</ele><time>2026-03-26T09:26:11.999Z</time></trkpt><trkpt lat="39.051524073584005" lon="8.862928295748853"><ele>697.5999999999999</ele><time>2026-03-26T09:26:13.999Z</time></trkpt><trkpt lat="39.05149260070514" lon="8.86283292711045"><ele>697.4000000000001</ele><time>2026-03-26T09:26:15.999Z</time></trkpt><trkpt lat="39.051418879191296" lon="8.862718110382765"><ele>697.2</ele><time>2026-03-26T09:26:17.999Z</time></trkpt><trkpt lat="39.05136203896047" lon="8.862639409433658"><ele>697.0</ele><time>2026-03-26T09:26:18.999Z</time></trkpt><trkpt lat="39.05129235777721" lon="8.862542940611567"><ele>696.1666666666667</ele><time>2026-03-26T09:26:19.999Z</time></trkpt><trkpt lat="39.051240286140654" lon="8.862457685840692"><ele>695.3333333333334</ele><time>2026-03-26T09:26:20.999Z</time></trkpt><trkpt lat="39.05120451311899" lon="8.862388195417967"><ele>694.5</ele><time>2026-03-26T09:26:21.999Z</time></trkpt><trkpt lat="39.051184775916134" lon="8.86230813237328"><ele>693.6666666666666</ele><time>2026-03-26T09:26:22.999Z</time></trkpt><trkpt lat="39.05117545438271" lon="8.862210363535077"><ele>692.8333333333333</ele><time>2026-03-26T09:26:23.999Z</time></trkpt><trkpt lat="39.05119317566328" lon="8.86208689415248"><ele>692.0</ele><time>2026-03-26T09:26:25.999Z</time></trkpt><trkpt lat="39.05115673336636" lon="8.86201038622079"><ele>692.0</ele><time>2026-03-26T09:26:27.999Z</time></trkpt><trkpt lat="39.051079417419004" lon="8.861914644518167"><ele>692.0</ele><time>2026-03-26T09:26:29.999Z</time></trkpt><trkpt lat="39.05096308352599" lon="8.861826913205519"><ele>692.0</ele><time>2026-03-26T09:26:31.999Z</time></trkpt><trkpt lat="39.05089381470169" lon="8.861793785114484"><ele>692.0</ele><time>2026-03-26T09:26:32.999Z</time></trkpt><trkpt lat="39.05082545501018" lon="8.861767442387869"><ele>692.0</ele><time>2026-03-26T09:26:33.999Z</time></trkpt><trkpt lat="39.05077732023766" lon="8.86167055675847"><ele>692.8</ele><time>2026-03-26T09:26:36.999Z</time></trkpt><trkpt lat="39.05083501387133" lon="8.861589747370596"><ele>693.6</ele><time>2026-03-26T09:26:38.999Z</time></trkpt><trkpt lat="39.05093148457268" lon="8.861529746511827"><ele>694.4</ele><time>2026-03-26T09:26:40.999Z</time></trkpt><trkpt lat="39.050983929220166" lon="8.861384029168715"><ele>695.1999999999999</ele><time>2026-03-26T09:26:42.999Z</time></trkpt><trkpt lat="39.05100784113482" lon="8.861281616558898"><ele>696.0</ele><time>2026-03-26T09:26:43.999Z</time></trkpt><trkpt lat="39.051045303743635" lon="8.861182344979635"><ele>696.0</ele><time>2026-03-26T09:26:44.999Z</time></trkpt><trkpt lat="39.05108403222456" lon="8.861065626895858"><ele>696.0</ele><time>2026-03-26T09:26:45.999Z</time></trkpt><trkpt lat="39.05111481523923" lon="8.860952610797547"><ele>696.0</ele><time>2026-03-26T09:26:46.999Z</time></trkpt><trkpt lat="39.051129647907004" lon="8.860862081556"><ele>696.0</ele><time>2026-03-26T09:26:47.999Z</time></trkpt><trkpt lat="39.05115191716623" lon="8.860773352241369"><ele>696.0</ele><time>2026-03-26T09:26:48.999Z</time></trkpt><trkpt lat="39.0511870502669" lon="8.860650093871866"><ele>696.0</ele><time>2026-03-26T09:26:50.999Z</time></trkpt><trkpt lat="39.051121123302906" lon="8.860570981161795"><ele>699.0</ele><time>2026-03-26T09:26:53.999Z</time></trkpt><trkpt lat="39.0510228313653" lon="8.860645040194823"><ele>702.0</ele><time>2026-03-26T09:26:55.999Z</time></trkpt><trkpt lat="39.050943172225054" lon="8.860730769445057"><ele>705.0</ele><time>2026-03-26T09:26:57.999Z</time></trkpt><trkpt lat="39.050838217369154" lon="8.860766061023138"><ele>708.0</ele><time>2026-03-26T09:26:59.999Z</time></trkpt><trkpt lat="39.05074509633311" lon="8.86074082600406"><ele>711.0</ele><time>2026-03-26T09:27:01.999Z</time></trkpt><trkpt lat="39.05068070519649" lon="8.860704769438126"><ele>712.0</ele><time>2026-03-26T09:27:02.999Z</time></trkpt><trkpt lat="39.050612640703314" lon="8.860674589267425"><ele>713.0</ele><time>2026-03-26T09:27:03.999Z</time></trkpt><trkpt lat="39.05046174799191" lon="8.860621281765942"><ele>714.0</ele><time>2026-03-26T09:27:05.999Z</time></trkpt><trkpt lat="39.050374869141265" lon="8.860592713288991"><ele>715.0</ele><time>2026-03-26T09:27:06.999Z</time></trkpt><trkpt lat="39.05030069938283" lon="8.86057636233678"><ele>716.0</ele><time>2026-03-26T09:27:07.999Z</time></trkpt><trkpt lat="39.05022943174176" lon="8.860556713642383"><ele>716.0</ele><time>2026-03-26T09:27:08.999Z</time></trkpt><trkpt lat="39.0501658255138" lon="8.860536686100732"><ele>716.0</ele><time>2026-03-26T09:27:09.999Z</time></trkpt><trkpt lat="39.05010444429106" lon="8.860509863948646"><ele>716.0</ele><time>2026-03-26T09:27:10.999Z</time></trkpt><trkpt lat="39.050003850082625" lon="8.860421079531218"><ele>716.0</ele><time>2026-03-26T09:27:12.999Z</time></trkpt><trkpt lat="39.049968100062145" lon="8.860351186574357"><ele>716.0</ele><time>2026-03-26T09:27:13.999Z</time></trkpt><trkpt lat="39.04993718831953" lon="8.860256118380624"><ele>716.0</ele><time>2026-03-26T09:27:14.999Z</time></trkpt><trkpt lat="39.04990360455711" lon="8.860147834358674"><ele>719.4</ele><time>2026-03-26T09:27:15.999Z</time></trkpt><trkpt lat="39.04986551500724" lon="8.86004736599288"><ele>722.8</ele><time>2026-03-26T09:27:16.999Z</time></trkpt><trkpt lat="39.04982914709679" lon="8.859966616811299"><ele>726.1999999999999</ele><time>2026-03-26T09:27:17.999Z</time></trkpt><trkpt lat="39.04974956991392" lon="8.85990501341711"><ele>729.5999999999999</ele><time>2026-03-26T09:27:19.999Z</time></trkpt><trkpt lat="39.049682708583425" lon="8.85978962163474"><ele>733.0</ele><time>2026-03-26T09:27:21.999Z</time></trkpt><trkpt lat="39.04969232895234" lon="8.859666773045147"><ele>733.0</ele><time>2026-03-26T09:27:23.999Z</time></trkpt><trkpt lat="39.049786406974896" lon="8.859650827600493"><ele>733.0</ele><time>2026-03-26T09:27:25.999Z</time></trkpt><trkpt lat="39.049896543804934" lon="8.859629145802819"><ele>733.0</ele><time>2026-03-26T09:27:27.999Z</time></trkpt><trkpt lat="39.04997175129568" lon="8.859557799744175"><ele>733.0</ele><time>2026-03-26T09:27:29.999Z</time></trkpt><trkpt lat="39.05007114830235" lon="8.859499737265642"><ele>733.0</ele><time>2026-03-26T09:27:31.999Z</time></trkpt><trkpt lat="39.05011712477254" lon="8.8594098045137"><ele>733.0</ele><time>2026-03-26T09:27:32.999Z</time></trkpt><trkpt lat="39.05015204644029" lon="8.859300006053116"><ele>733.0</ele><time>2026-03-26T09:27:33.999Z</time></trkpt><trkpt lat="39.050190159798206" lon="8.85919343777864"><ele>733.0</ele><time>2026-03-26T09:27:34.999Z</time></trkpt><trkpt lat="39.05023087556385" lon="8.859085179853283"><ele>733.0</ele><time>2026-03-26T09:27:35.999Z</time></trkpt><trkpt lat="39.05026677435457" lon="8.858983672605852"><ele>733.0</ele><time>2026-03-26T09:27:36.999Z</time></trkpt><trkpt lat="39.05032902164828" lon="8.8588625900199"><ele>733.0</ele><time>2026-03-26T09:27:38.999Z</time></trkpt><trkpt lat="39.05040984440294" lon="8.858759880942664"><ele>733.0</ele><time>2026-03-26T09:27:40.999Z</time></trkpt><trkpt lat="39.05047413329874" lon="8.858681954811198"><ele>733.0</ele><time>2026-03-26T09:27:41.999Z</time></trkpt><trkpt lat="39.05055131017352" lon="8.858597489875052"><ele>733.0</ele><time>2026-03-26T09:27:42.999Z</time></trkpt><trkpt lat="39.050618808466886" lon="8.858527013019568"><ele>733.0</ele><time>2026-03-26T09:27:43.999Z</time></trkpt><trkpt lat="39.05067629783222" lon="8.858461549414042"><ele>733.0</ele><time>2026-03-26T09:27:44.999Z</time></trkpt><trkpt lat="39.0507255330572" lon="8.858374455074788"><ele>733.0</ele><time>2026-03-26T09:27:45.999Z</time></trkpt><trkpt lat="39.05077862198795" lon="8.858271479719445"><ele>733.0</ele><time>2026-03-26T09:27:46.999Z</time></trkpt><trkpt lat="39.0508254366603" lon="8.858167681446002"><ele>733.0</ele><time>2026-03-26T09:27:47.999Z</time></trkpt><trkpt lat="39.05086559462921" lon="8.8580734731724"><ele>733.0</ele><time>2026-03-26T09:27:48.999Z</time></trkpt><trkpt lat="39.050904634748036" lon="8.857986833688908"><ele>733.0</ele><time>2026-03-26T09:27:49.999Z</time></trkpt><trkpt lat="39.05092980246323" lon="8.857901230296687"><ele>733.0</ele><time>2026-03-26T09:27:50.999Z</time></trkpt><trkpt lat="39.05093017761646" lon="8.857798357995387"><ele>733.0</ele><time>2026-03-26T09:27:51.999Z</time></trkpt><trkpt lat="39.050917789869764" lon="8.85770081657226"><ele>733.0</ele><time>2026-03-26T09:27:52.999Z</time></trkpt><trkpt lat="39.05089929351734" lon="8.857607696546381"><ele>733.0</ele><time>2026-03-26T09:27:53.999Z</time></trkpt><trkpt lat="39.05085984055118" lon="8.857516247715765"><ele>733.0</ele><time>2026-03-26T09:27:54.999Z</time></trkpt><trkpt lat="39.050817908576214" lon="8.857430079036051"><ele>733.0</ele><time>2026-03-26T09:27:55.999Z</time></trkpt><trkpt lat="39.050795429640964" lon="8.857349169011792"><ele>737.5999999999999</ele><time>2026-03-26T09:27:56.999Z</time></trkpt><trkpt lat="39.05076210851695" lon="8.857180653331492"><ele>742.1999999999999</ele><time>2026-03-26T09:27:58.999Z</time></trkpt><trkpt lat="39.050754442416604" lon="8.857098356924148"><ele>746.8</ele><time>2026-03-26T09:28:00Z</time></trkpt><trkpt lat="39.05074973479824" lon="8.85694013774079"><ele>751.4</ele><time>2026-03-26T09:28:02Z</time></trkpt><trkpt lat="39.05073545093888" lon="8.856849930393805"><ele>756.0</ele><time>2026-03-26T09:28:03Z</time></trkpt><trkpt lat="39.05072299317604" lon="8.856754320295245"><ele>757.1999999999999</ele><time>2026-03-26T09:28:04Z</time></trkpt><trkpt lat="39.050707825862915" lon="8.856649883952377"><ele>758.4</ele><time>2026-03-26T09:28:05Z</time></trkpt><trkpt lat="39.05070018451484" lon="8.856538404218659"><ele>759.6</ele><time>2026-03-26T09:28:06Z</time></trkpt><trkpt lat="39.0506887945401" lon="8.856436679241554"><ele>760.8</ele><time>2026-03-26T09:28:07Z</time></trkpt><trkpt lat="39.05068224445105" lon="8.856338838035143"><ele>762.0</ele><time>2026-03-26T09:28:08Z</time></trkpt><trkpt lat="39.05068716486972" lon="8.856174710111128"><ele>762.0</ele><time>2026-03-26T09:28:10Z</time></trkpt><trkpt lat="39.05068003353309" lon="8.856065667741172"><ele>762.0</ele><time>2026-03-26T09:28:11Z</time></trkpt><trkpt lat="39.05066795240379" lon="8.8559766335272"><ele>762.0</ele><time>2026-03-26T09:28:12Z</time></trkpt><trkpt lat="39.050670433746774" lon="8.8558313875722"><ele>762.0</ele><time>2026-03-26T09:28:14Z</time></trkpt><trkpt lat="39.050681836652174" lon="8.8557502044082"><ele>762.0</ele><time>2026-03-26T09:28:15Z</time></trkpt><trkpt lat="39.050688620508076" lon="8.855663299645121"><ele>762.0</ele><time>2026-03-26T09:28:16Z</time></trkpt><trkpt lat="39.05071665492085" lon="8.85556724601716"><ele>763.3333333333334</ele><time>2026-03-26T09:28:17Z</time></trkpt><trkpt lat="39.05074134019122" lon="8.855474862491896"><ele>764.6666666666667</ele><time>2026-03-26T09:28:18Z</time></trkpt><trkpt lat="39.05075020486796" lon="8.855393604237099"><ele>766.0</ele><time>2026-03-26T09:28:19Z</time></trkpt><trkpt lat="39.05073819355106" lon="8.855295552484014"><ele>767.3333333333334</ele><time>2026-03-26T09:28:20Z</time></trkpt><trkpt lat="39.050708871381985" lon="8.855176874975198"><ele>768.6666666666667</ele><time>2026-03-26T09:28:21Z</time></trkpt><trkpt lat="39.050678636151716" lon="8.855057735701362"><ele>770.0</ele><time>2026-03-26T09:28:22Z</time></trkpt><trkpt lat="39.050658219014416" lon="8.854966079784429"><ele>770.3333333333334</ele><time>2026-03-26T09:28:22.999Z</time></trkpt><trkpt lat="39.050642595484376" lon="8.854867312286995"><ele>770.6666666666667</ele><time>2026-03-26T09:28:23.999Z</time></trkpt><trkpt lat="39.050632081379085" lon="8.854764065312196"><ele>771.0</ele><time>2026-03-26T09:28:24.999Z</time></trkpt><trkpt lat="39.050615126038714" lon="8.854658992638909"><ele>771.3333333333333</ele><time>2026-03-26T09:28:25.999Z</time></trkpt><trkpt lat="39.05059559260919" lon="8.854557261910706"><ele>771.6666666666666</ele><time>2026-03-26T09:28:26.999Z</time></trkpt><trkpt lat="39.05057711218857" lon="8.854462793664352"><ele>772.0</ele><time>2026-03-26T09:28:27.999Z</time></trkpt><trkpt lat="39.050553422176286" lon="8.854379026182128"><ele>772.0000000000001</ele><time>2026-03-26T09:28:28.999Z</time></trkpt><trkpt lat="39.05053548056256" lon="8.85429379938953"><ele>772.0</ele><time>2026-03-26T09:28:29.999Z</time></trkpt><trkpt lat="39.050520693171585" lon="8.854192132288308"><ele>772.0</ele><time>2026-03-26T09:28:30.999Z</time></trkpt><trkpt lat="39.05050581932332" lon="8.854096532398847"><ele>772.0</ele><time>2026-03-26T09:28:31.999Z</time></trkpt><trkpt lat="39.05049847112334" lon="8.854010101171848"><ele>772.0</ele><time>2026-03-26T09:28:32.999Z</time></trkpt><trkpt lat="39.05049688811147" lon="8.853921934737489"><ele>772.0000000000001</ele><time>2026-03-26T09:28:33.999Z</time></trkpt><trkpt lat="39.05048041672106" lon="8.853824499715968"><ele>772.0</ele><time>2026-03-26T09:28:34.999Z</time></trkpt><trkpt lat="39.05046677590044" lon="8.853733056437752"><ele>771.3333333333333</ele><time>2026-03-26T09:28:35.999Z</time></trkpt><trkpt lat="39.050467548647966" lon="8.85364065593342"><ele>770.6666666666666</ele><time>2026-03-26T09:28:36.999Z</time></trkpt><trkpt lat="39.050467262169455" lon="8.853539308378974"><ele>770.0</ele><time>2026-03-26T09:28:37.999Z</time></trkpt><trkpt lat="39.05046674058569" lon="8.853448742846322"><ele>769.3333333333333</ele><time>2026-03-26T09:28:38.999Z</time></trkpt><trkpt lat="39.050477874291126" lon="8.853363660777095"><ele>768.6666666666666</ele><time>2026-03-26T09:28:39.999Z</time></trkpt><trkpt lat="39.05047799184738" lon="8.853233885896099"><ele>768.0</ele><time>2026-03-26T09:28:41.999Z</time></trkpt><trkpt lat="39.05048801992441" lon="8.853131629286898"><ele>767.8571428571428</ele><time>2026-03-26T09:28:42.999Z</time></trkpt><trkpt lat="39.050481540899476" lon="8.853048911186143"><ele>767.7142857142857</ele><time>2026-03-26T09:28:43.999Z</time></trkpt><trkpt lat="39.050463310699115" lon="8.852960015950856"><ele>767.5714285714286</ele><time>2026-03-26T09:28:45.999Z</time></trkpt><trkpt lat="39.05048813303976" lon="8.852876160834523"><ele>767.4285714285713</ele><time>2026-03-26T09:28:47.999Z</time></trkpt><trkpt lat="39.05053986643372" lon="8.852829792992685"><ele>767.2857142857143</ele><time>2026-03-26T09:28:49.999Z</time></trkpt><trkpt lat="39.05063773621484" lon="8.852892978751882"><ele>767.1428571428571</ele><time>2026-03-26T09:28:51.999Z</time></trkpt><trkpt lat="39.05068810071176" lon="8.85294447889929"><ele>767.0</ele><time>2026-03-26T09:28:52.999Z</time></trkpt><trkpt lat="39.05076679373405" lon="8.85306946127273"><ele>765.0</ele><time>2026-03-26T09:28:54.999Z</time></trkpt><trkpt lat="39.05081135420859" lon="8.853171743158097"><ele>763.0</ele><time>2026-03-26T09:28:56.999Z</time></trkpt><trkpt lat="39.05081920844234" lon="8.853255566365322"><ele>761.0</ele><time>2026-03-26T09:28:57.999Z</time></trkpt><trkpt lat="39.05083536481463" lon="8.85334654788252"><ele>759.0</ele><time>2026-03-26T09:28:58.999Z</time></trkpt><trkpt lat="39.05085469473925" lon="8.853443048570984"><ele>757.0</ele><time>2026-03-26T09:28:59.999Z</time></trkpt><trkpt lat="39.050879101227196" lon="8.853595154540523"><ele>755.0</ele><time>2026-03-26T09:29:01.999Z</time></trkpt><trkpt lat="39.050926712332924" lon="8.853656163465768"><ele>755.0</ele><time>2026-03-26T09:29:03.999Z</time></trkpt><trkpt lat="39.05099008951127" lon="8.853632778097689"><ele>755.0</ele><time>2026-03-26T09:29:05.999Z</time></trkpt><trkpt lat="39.051011458714235" lon="8.853485590682947"><ele>755.0</ele><time>2026-03-26T09:29:07.999Z</time></trkpt><trkpt lat="39.050999123416425" lon="8.853402393006423"><ele>755.0</ele><time>2026-03-26T09:29:08.999Z</time></trkpt><trkpt lat="39.05100137430648" lon="8.853248242088233"><ele>755.0</ele><time>2026-03-26T09:29:10.999Z</time></trkpt><trkpt lat="39.05103460737721" lon="8.853167275845617"><ele>755.0</ele><time>2026-03-26T09:29:11.999Z</time></trkpt><trkpt lat="39.051057443998474" lon="8.85301539703473"><ele>755.0</ele><time>2026-03-26T09:29:13.999Z</time></trkpt><trkpt lat="39.05104653964374" lon="8.852876787218719"><ele>755.0</ele><time>2026-03-26T09:29:15.999Z</time></trkpt><trkpt lat="39.05110796711464" lon="8.852839071679526"><ele>755.0</ele><time>2026-03-26T09:29:17.999Z</time></trkpt><trkpt lat="39.05119744545255" lon="8.852882817396889"><ele>755.0</ele><time>2026-03-26T09:29:19.999Z</time></trkpt><trkpt lat="39.05124166756181" lon="8.852941128151496"><ele>755.0</ele><time>2026-03-26T09:29:20.999Z</time></trkpt><trkpt lat="39.05128743031775" lon="8.853022921280811"><ele>755.0</ele><time>2026-03-26T09:29:21.999Z</time></trkpt><trkpt lat="39.05134523630378" lon="8.853107243986885"><ele>755.0</ele><time>2026-03-26T09:29:22.999Z</time></trkpt><trkpt lat="39.051416870830266" lon="8.853177260039507"><ele>755.0</ele><time>2026-03-26T09:29:23.999Z</time></trkpt><trkpt lat="39.0514830274507" lon="8.853223000187942"><ele>755.0</ele><time>2026-03-26T09:29:24.999Z</time></trkpt><trkpt lat="39.051564182078955" lon="8.853242252171908"><ele>755.0</ele><time>2026-03-26T09:29:25.999Z</time></trkpt><trkpt lat="39.05165397741649" lon="8.85325210398347"><ele>755.0</ele><time>2026-03-26T09:29:26.999Z</time></trkpt><trkpt lat="39.05173981959913" lon="8.853253495693288"><ele>755.0</ele><time>2026-03-26T09:29:27.999Z</time></trkpt><trkpt lat="39.051808473767" lon="8.853239819603145"><ele>756.4</ele><time>2026-03-26T09:29:28.999Z</time></trkpt><trkpt lat="39.051914294220374" lon="8.853256715537377"><ele>757.8</ele><time>2026-03-26T09:29:30.999Z</time></trkpt><trkpt lat="39.05197699816655" lon="8.853178431318586"><ele>759.2</ele><time>2026-03-26T09:29:32.999Z</time></trkpt><trkpt lat="39.05194138940497" lon="8.853084836553265"><ele>760.6</ele><time>2026-03-26T09:29:34.999Z</time></trkpt><trkpt lat="39.05183957716172" lon="8.85303676373887"><ele>762.0</ele><time>2026-03-26T09:29:36.999Z</time></trkpt><trkpt lat="39.05186390257931" lon="8.852929346844624"><ele>762.0</ele><time>2026-03-26T09:29:39.999Z</time></trkpt><trkpt lat="39.05197751738204" lon="8.85292575137693"><ele>762.0</ele><time>2026-03-26T09:29:41.999Z</time></trkpt><trkpt lat="39.052125288299145" lon="8.852876329431872"><ele>762.0</ele><time>2026-03-26T09:29:43.999Z</time></trkpt><trkpt lat="39.05222324973492" lon="8.852823942317098"><ele>762.0</ele><time>2026-03-26T09:29:44.999Z</time></trkpt><trkpt lat="39.05231854615509" lon="8.852778362018888"><ele>762.0</ele><time>2026-03-26T09:29:45.999Z</time></trkpt><trkpt lat="39.052392804840565" lon="8.852734338789071"><ele>762.0</ele><time>2026-03-26T09:29:46.999Z</time></trkpt><trkpt lat="39.052497699139145" lon="8.852712220798248"><ele>762.0</ele><time>2026-03-26T09:29:48.999Z</time></trkpt><trkpt lat="39.05256508896199" lon="8.852697680439267"><ele>762.0</ele><time>2026-03-26T09:29:50.999Z</time></trkpt><trkpt lat="39.05256005474515" lon="8.852580644746322"><ele>762.0</ele><time>2026-03-26T09:30:20Z</time></trkpt><trkpt lat="39.052469633786316" lon="8.852496298475637"><ele>764.1666666666666</ele><time>2026-03-26T09:30:22Z</time></trkpt><trkpt lat="39.05240932517397" lon="8.852467021126603"><ele>766.3333333333333</ele><time>2026-03-26T09:30:23Z</time></trkpt><trkpt lat="39.05233550842267" lon="8.852463450092749"><ele>768.5</ele><time>2026-03-26T09:30:24Z</time></trkpt><trkpt lat="39.05225506779028" lon="8.852453672149949"><ele>770.6666666666666</ele><time>2026-03-26T09:30:25Z</time></trkpt><trkpt lat="39.05216349127601" lon="8.852440069413777"><ele>772.8333333333333</ele><time>2026-03-26T09:30:26Z</time></trkpt><trkpt lat="39.052093082724234" lon="8.852440743176453"><ele>775.0</ele><time>2026-03-26T09:30:27Z</time></trkpt><trkpt lat="39.051994176802175" lon="8.85244569408768"><ele>774.9999999999999</ele><time>2026-03-26T09:30:29Z</time></trkpt><trkpt lat="39.05195380493085" lon="8.852376494974708"><ele>775.0</ele><time>2026-03-26T09:30:31Z</time></trkpt><trkpt lat="39.052012940934155" lon="8.852253041245126"><ele>775.0</ele><time>2026-03-26T09:30:33Z</time></trkpt><trkpt lat="39.05208656395449" lon="8.852205167657957"><ele>775.0</ele><time>2026-03-26T09:30:34Z</time></trkpt><trkpt lat="39.052171380313474" lon="8.852165535014178"><ele>774.9999999999999</ele><time>2026-03-26T09:30:35Z</time></trkpt><trkpt lat="39.05224001881918" lon="8.852103870838128"><ele>775.0</ele><time>2026-03-26T09:30:35.999Z</time></trkpt><trkpt lat="39.0522892745663" lon="8.852019218745678"><ele>775.0</ele><time>2026-03-26T09:30:36.999Z</time></trkpt><trkpt lat="39.05230809935544" lon="8.851881004197407"><ele>775.0</ele><time>2026-03-26T09:30:38.999Z</time></trkpt><trkpt lat="39.05222205011008" lon="8.851809991179238"><ele>775.0</ele><time>2026-03-26T09:30:40.999Z</time></trkpt><trkpt lat="39.0521488097575" lon="8.851895819072732"><ele>775.0</ele><time>2026-03-26T09:30:42.999Z</time></trkpt><trkpt lat="39.052081955599455" lon="8.851917753065893"><ele>775.0</ele><time>2026-03-26T09:31:48.999Z</time></trkpt><trkpt lat="39.0520189957723" lon="8.851984769210116"><ele>774.9999999999999</ele><time>2026-03-26T09:31:50.999Z</time></trkpt><trkpt lat="39.051970456463046" lon="8.852040580942614"><ele>775.0</ele><time>2026-03-26T09:31:52.999Z</time></trkpt><trkpt lat="39.051879535383726" lon="8.852122315860814"><ele>775.0</ele><time>2026-03-26T09:31:54.999Z</time></trkpt><trkpt lat="39.05179008617184" lon="8.85216083024265"><ele>775.0</ele><time>2026-03-26T09:31:56.999Z</time></trkpt><trkpt lat="39.05173172613754" lon="8.852091045750733"><ele>774.9999999999999</ele><time>2026-03-26T09:31:58.999Z</time></trkpt><trkpt lat="39.051751174612484" lon="8.851991538145656"><ele>775.0</ele><time>2026-03-26T09:32:00.999Z</time></trkpt><trkpt lat="39.05180761068196" lon="8.851941608020784"><ele>774.9999999999999</ele><time>2026-03-26T09:32:01.999Z</time></trkpt><trkpt lat="39.05185828174514" lon="8.851886671586495"><ele>775.0</ele><time>2026-03-26T09:32:02.999Z</time></trkpt><trkpt lat="39.05189476836046" lon="8.851806827210817"><ele>775.0</ele><time>2026-03-26T09:32:03.999Z</time></trkpt><trkpt lat="39.05191555018919" lon="8.851705783572617"><ele>775.0</ele><time>2026-03-26T09:32:04.999Z</time></trkpt><trkpt lat="39.051922386905446" lon="8.851608576444757"><ele>774.9999999999999</ele><time>2026-03-26T09:32:05.999Z</time></trkpt><trkpt lat="39.05190705437129" lon="8.851490436049557"><ele>775.0</ele><time>2026-03-26T09:32:06.999Z</time></trkpt><trkpt lat="39.05188291038017" lon="8.851371376033578"><ele>777.6666666666666</ele><time>2026-03-26T09:32:07.999Z</time></trkpt><trkpt lat="39.0518688628191" lon="8.851254956962661"><ele>780.3333333333333</ele><time>2026-03-26T09:32:08.999Z</time></trkpt><trkpt lat="39.05185939233779" lon="8.851164071823819"><ele>783.0</ele><time>2026-03-26T09:32:09.999Z</time></trkpt><trkpt lat="39.051837507929264" lon="8.851065978362188"><ele>785.6666666666667</ele><time>2026-03-26T09:32:10.999Z</time></trkpt><trkpt lat="39.051820648493724" lon="8.85098674699283"><ele>788.3333333333334</ele><time>2026-03-26T09:32:12Z</time></trkpt><trkpt lat="39.05176532820402" lon="8.850864785390087"><ele>791.0</ele><time>2026-03-26T09:32:14Z</time></trkpt><trkpt lat="39.051673464780635" lon="8.850858804358666"><ele>791.0000000000001</ele><time>2026-03-26T09:32:16Z</time></trkpt><trkpt lat="39.05164007195951" lon="8.850981024555116"><ele>791.0</ele><time>2026-03-26T09:32:18Z</time></trkpt><trkpt lat="39.051645036405326" lon="8.851065726339646"><ele>791.0</ele><time>2026-03-26T09:32:19Z</time></trkpt><trkpt lat="39.05165813615437" lon="8.851161213596669"><ele>791.0</ele><time>2026-03-26T09:32:20Z</time></trkpt><trkpt lat="39.051672112087715" lon="8.851260790270185"><ele>791.0000000000001</ele><time>2026-03-26T09:32:21Z</time></trkpt><trkpt lat="39.05168291726723" lon="8.851365134550617"><ele>791.0</ele><time>2026-03-26T09:32:22Z</time></trkpt><trkpt lat="39.05165630405531" lon="8.851457399337184"><ele>789.8333333333334</ele><time>2026-03-26T09:32:23Z</time></trkpt><trkpt lat="39.05161865371406" lon="8.851530279653332"><ele>788.6666666666667</ele><time>2026-03-26T09:32:24Z</time></trkpt><trkpt lat="39.0515109593242" lon="8.85157698115912"><ele>787.5</ele><time>2026-03-26T09:32:26Z</time></trkpt><trkpt lat="39.051410220995066" lon="8.851527960650948"><ele>786.3333333333333</ele><time>2026-03-26T09:32:28Z</time></trkpt><trkpt lat="39.05136361947615" lon="8.851468456514562"><ele>785.1666666666666</ele><time>2026-03-26T09:32:29Z</time></trkpt><trkpt lat="39.05131884559783" lon="8.851393468223142"><ele>784.0</ele><time>2026-03-26T09:32:30Z</time></trkpt><trkpt lat="39.051262066342645" lon="8.851315746825216"><ele>784.0</ele><time>2026-03-26T09:32:31Z</time></trkpt><trkpt lat="39.0511887372194" lon="8.851241694996128"><ele>784.0</ele><time>2026-03-26T09:32:32Z</time></trkpt><trkpt lat="39.05111023191986" lon="8.851152511913533"><ele>784.0</ele><time>2026-03-26T09:32:33Z</time></trkpt><trkpt lat="39.05104250226791" lon="8.851069484468834"><ele>784.0</ele><time>2026-03-26T09:32:34Z</time></trkpt><trkpt lat="39.05095927214292" lon="8.850981056523429"><ele>784.0</ele><time>2026-03-26T09:32:36Z</time></trkpt><trkpt lat="39.05088597199094" lon="8.850863823590968"><ele>785.4285714285714</ele><time>2026-03-26T09:32:38Z</time></trkpt><trkpt lat="39.05083375202395" lon="8.850796802845746"><ele>786.8571428571429</ele><time>2026-03-26T09:32:39Z</time></trkpt><trkpt lat="39.050775396371314" lon="8.850729002538246"><ele>788.2857142857142</ele><time>2026-03-26T09:32:40Z</time></trkpt><trkpt lat="39.05071414332501" lon="8.850669826456405"><ele>789.7142857142858</ele><time>2026-03-26T09:32:41Z</time></trkpt><trkpt lat="39.05065460342538" lon="8.850629126601449"><ele>791.1428571428571</ele><time>2026-03-26T09:32:42Z</time></trkpt><trkpt lat="39.05058892407265" lon="8.85059397612416"><ele>792.5714285714286</ele><time>2026-03-26T09:32:43Z</time></trkpt><trkpt lat="39.050520566487016" lon="8.850576359738348"><ele>794.0</ele><time>2026-03-26T09:32:44Z</time></trkpt><trkpt lat="39.050453215373196" lon="8.850550742787895"><ele>794.0000000000001</ele><time>2026-03-26T09:32:45Z</time></trkpt><trkpt lat="39.050382497464064" lon="8.85051924552479"><ele>794.0</ele><time>2026-03-26T09:32:46Z</time></trkpt><trkpt lat="39.050311365714464" lon="8.850486336640508"><ele>794.0</ele><time>2026-03-26T09:32:47Z</time></trkpt><trkpt lat="39.05023847511104" lon="8.85044507773145"><ele>794.0</ele><time>2026-03-26T09:32:48Z</time></trkpt><trkpt lat="39.05017220129367" lon="8.85042155026861"><ele>794.0000000000001</ele><time>2026-03-26T09:32:49Z</time></trkpt><trkpt lat="39.05009311648031" lon="8.850390411617878"><ele>794.0</ele><time>2026-03-26T09:32:49.999Z</time></trkpt><trkpt lat="39.050024911977225" lon="8.850358410486455"><ele>795.8000000000001</ele><time>2026-03-26T09:32:50.999Z</time></trkpt><trkpt lat="39.049929163010916" lon="8.850288860855628"><ele>797.6</ele><time>2026-03-26T09:32:52.999Z</time></trkpt><trkpt lat="39.049845156323215" lon="8.850203395952747"><ele>799.4</ele><time>2026-03-26T09:32:54.999Z</time></trkpt><trkpt lat="39.04978783740961" lon="8.850135646740297"><ele>801.2</ele><time>2026-03-26T09:32:55.999Z</time></trkpt><trkpt lat="39.04972979886994" lon="8.850052262057089"><ele>803.0</ele><time>2026-03-26T09:32:56.999Z</time></trkpt><trkpt lat="39.049680566482095" lon="8.84998339241796"><ele>804.0000000000001</ele><time>2026-03-26T09:32:57.999Z</time></trkpt><trkpt lat="39.049593273675235" lon="8.849938408405764"><ele>805.0</ele><time>2026-03-26T09:32:59.999Z</time></trkpt><trkpt lat="39.04952786833809" lon="8.849921942748038"><ele>806.0</ele><time>2026-03-26T09:33:00.999Z</time></trkpt><trkpt lat="39.04946236899812" lon="8.849918104543212"><ele>807.0</ele><time>2026-03-26T09:33:01.999Z</time></trkpt><trkpt lat="39.049399730930496" lon="8.849932977327189"><ele>808.0000000000001</ele><time>2026-03-26T09:33:02.999Z</time></trkpt><trkpt lat="39.04928563706654" lon="8.850008865515546"><ele>809.0</ele><time>2026-03-26T09:33:04.999Z</time></trkpt><trkpt lat="39.049230897784774" lon="8.850056278999496"><ele>807.8000000000001</ele><time>2026-03-26T09:33:05.999Z</time></trkpt><trkpt lat="39.0492089298095" lon="8.850147172347326"><ele>806.6</ele><time>2026-03-26T09:33:06.999Z</time></trkpt><trkpt lat="39.04914963963882" lon="8.850267701417796"><ele>805.4</ele><time>2026-03-26T09:33:07.999Z</time></trkpt><trkpt lat="39.04907377496732" lon="8.850386520412613"><ele>804.2</ele><time>2026-03-26T09:33:08.999Z</time></trkpt><trkpt lat="39.04902144432016" lon="8.850494255378491"><ele>803.0</ele><time>2026-03-26T09:33:09.999Z</time></trkpt><trkpt lat="39.04898453182624" lon="8.850597685642125"><ele>804.4</ele><time>2026-03-26T09:33:10.999Z</time></trkpt><trkpt lat="39.04894388509395" lon="8.850699397492203"><ele>805.8</ele><time>2026-03-26T09:33:11.999Z</time></trkpt><trkpt lat="39.048904515909555" lon="8.850815506642949"><ele>807.2</ele><time>2026-03-26T09:33:12.999Z</time></trkpt><trkpt lat="39.048877395490344" lon="8.850909463848645"><ele>808.6</ele><time>2026-03-26T09:33:13.999Z</time></trkpt><trkpt lat="39.048823981638975" lon="8.851041352367506"><ele>810.0</ele><time>2026-03-26T09:33:15.999Z</time></trkpt><trkpt lat="39.04874693838364" lon="8.851106366139504"><ele>810.0</ele><time>2026-03-26T09:33:17.999Z</time></trkpt><trkpt lat="39.04866554682046" lon="8.85114027034828"><ele>810.0</ele><time>2026-03-26T09:33:18.999Z</time></trkpt><trkpt lat="39.048589855609244" lon="8.851150991150423"><ele>810.0</ele><time>2026-03-26T09:33:19.999Z</time></trkpt><trkpt lat="39.04851818952681" lon="8.851156921906682"><ele>810.0</ele><time>2026-03-26T09:33:20.999Z</time></trkpt><trkpt lat="39.04844394546913" lon="8.851169916572426"><ele>810.0</ele><time>2026-03-26T09:33:21.999Z</time></trkpt><trkpt lat="39.048347398680065" lon="8.851248519436112"><ele>810.0</ele><time>2026-03-26T09:33:23.999Z</time></trkpt><trkpt lat="39.04826321883891" lon="8.851364761030052"><ele>810.0</ele><time>2026-03-26T09:33:25.999Z</time></trkpt><trkpt lat="39.048200553987165" lon="8.85142227414372"><ele>810.0</ele><time>2026-03-26T09:33:27.999Z</time></trkpt><trkpt lat="39.04814669683969" lon="8.851376162597969"><ele>810.0</ele><time>2026-03-26T09:33:29.999Z</time></trkpt><trkpt lat="39.0481784752306" lon="8.851247003753231"><ele>810.0</ele><time>2026-03-26T09:33:31.999Z</time></trkpt><trkpt lat="39.04825121255255" lon="8.851145943695656"><ele>810.0</ele><time>2026-03-26T09:33:33.999Z</time></trkpt><trkpt lat="39.04831862841471" lon="8.850999498103901"><ele>810.9999999999999</ele><time>2026-03-26T09:33:35.999Z</time></trkpt><trkpt lat="39.04834123187914" lon="8.850916390708699"><ele>812.0</ele><time>2026-03-26T09:33:36.999Z</time></trkpt><trkpt lat="39.048351978333436" lon="8.85083143518316"><ele>813.0</ele><time>2026-03-26T09:33:37.999Z</time></trkpt><trkpt lat="39.048373629010115" lon="8.850751540276574"><ele>814.0</ele><time>2026-03-26T09:33:38.999Z</time></trkpt><trkpt lat="39.048396718924636" lon="8.850666045434972"><ele>815.0</ele><time>2026-03-26T09:33:39.999Z</time></trkpt><trkpt lat="39.0484155194998" lon="8.850585270838698"><ele>815.9999999999999</ele><time>2026-03-26T09:33:40.999Z</time></trkpt><trkpt lat="39.048436726732724" lon="8.850503472132178"><ele>817.0</ele><time>2026-03-26T09:33:41.999Z</time></trkpt><trkpt lat="39.0484707393313" lon="8.850341317349852"><ele>817.0</ele><time>2026-03-26T09:33:43.999Z</time></trkpt><trkpt lat="39.048498963015234" lon="8.850232050514128"><ele>817.0</ele><time>2026-03-26T09:33:44.999Z</time></trkpt><trkpt lat="39.04852209430423" lon="8.850115768377604"><ele>817.0</ele><time>2026-03-26T09:33:45.999Z</time></trkpt><trkpt lat="39.04852539608529" lon="8.850006808845006"><ele>817.0</ele><time>2026-03-26T09:33:46.999Z</time></trkpt><trkpt lat="39.048504622144804" lon="8.849880125126802"><ele>817.0</ele><time>2026-03-26T09:33:47.999Z</time></trkpt><trkpt lat="39.04847026801706" lon="8.849733480553564"><ele>817.2</ele><time>2026-03-26T09:33:48.999Z</time></trkpt><trkpt lat="39.048428453108635" lon="8.849590793038194"><ele>817.4000000000001</ele><time>2026-03-26T09:33:49.999Z</time></trkpt><trkpt lat="39.048377694709465" lon="8.849463379517484"><ele>817.5999999999999</ele><time>2026-03-26T09:33:50.999Z</time></trkpt><trkpt lat="39.048326270617494" lon="8.849372471172298"><ele>817.8</ele><time>2026-03-26T09:33:51.999Z</time></trkpt><trkpt lat="39.0482889904817" lon="8.849295983923824"><ele>818.0</ele><time>2026-03-26T09:33:52.999Z</time></trkpt><trkpt lat="39.048235526211684" lon="8.849143260837161"><ele>817.0000000000001</ele><time>2026-03-26T09:33:54.999Z</time></trkpt><trkpt lat="39.04819057267745" lon="8.849072603411706"><ele>816.0</ele><time>2026-03-26T09:33:55.999Z</time></trkpt><trkpt lat="39.04814506761482" lon="8.849013305499387"><ele>815.0</ele><time>2026-03-26T09:33:56.999Z</time></trkpt><trkpt lat="39.04811009048035" lon="8.848945727934328"><ele>814.0</ele><time>2026-03-26T09:33:57.999Z</time></trkpt><trkpt lat="39.04805067587712" lon="8.848790439414724"><ele>813.0000000000001</ele><time>2026-03-26T09:33:59.999Z</time></trkpt><trkpt lat="39.04801923320374" lon="8.848709349070866"><ele>812.0</ele><time>2026-03-26T09:34:00.999Z</time></trkpt><trkpt lat="39.04799183270233" lon="8.848629386148204"><ele>812.0</ele><time>2026-03-26T09:34:01.999Z</time></trkpt><trkpt lat="39.047973368543005" lon="8.84854572492127"><ele>812.0</ele><time>2026-03-26T09:34:02.999Z</time></trkpt><trkpt lat="39.0479759871363" lon="8.848454974743895"><ele>812.0</ele><time>2026-03-26T09:34:03.999Z</time></trkpt><trkpt lat="39.04799690971534" lon="8.848369841971184"><ele>812.0</ele><time>2026-03-26T09:34:04.999Z</time></trkpt><trkpt lat="39.04803369329521" lon="8.848296679316263"><ele>812.0</ele><time>2026-03-26T09:34:05.999Z</time></trkpt><trkpt lat="39.04808163528532" lon="8.848235966035844"><ele>812.0</ele><time>2026-03-26T09:34:06.999Z</time></trkpt><trkpt lat="39.04813853081564" lon="8.848184164152167"><ele>812.0</ele><time>2026-03-26T09:34:07.999Z</time></trkpt><trkpt lat="39.04823995883303" lon="8.848098890491713"><ele>813.1666666666667</ele><time>2026-03-26T09:34:09.999Z</time></trkpt><trkpt lat="39.04832088121599" lon="8.847983020494853"><ele>814.3333333333334</ele><time>2026-03-26T09:34:11.999Z</time></trkpt><trkpt lat="39.04834806417635" lon="8.84789928212789"><ele>815.5</ele><time>2026-03-26T09:34:12.999Z</time></trkpt><trkpt lat="39.04837949236913" lon="8.847808650335601"><ele>816.6666666666667</ele><time>2026-03-26T09:34:13.999Z</time></trkpt><trkpt lat="39.04840694144637" lon="8.847713226700883"><ele>817.8333333333334</ele><time>2026-03-26T09:34:14.999Z</time></trkpt><trkpt lat="39.04841747534141" lon="8.847617831538598"><ele>819.0</ele><time>2026-03-26T09:34:15.999Z</time></trkpt><trkpt lat="39.048426966184834" lon="8.8475358921371"><ele>819.0</ele><time>2026-03-26T09:34:17Z</time></trkpt><trkpt lat="39.04842770027118" lon="8.847387570170758"><ele>819.0</ele><time>2026-03-26T09:34:19Z</time></trkpt><trkpt lat="39.04844294709841" lon="8.847299918267844"><ele>819.0</ele><time>2026-03-26T09:34:20Z</time></trkpt><trkpt lat="39.04846140078915" lon="8.847209991942927"><ele>819.0</ele><time>2026-03-26T09:34:21Z</time></trkpt><trkpt lat="39.0484800588149" lon="8.847128023389937"><ele>819.0</ele><time>2026-03-26T09:34:22Z</time></trkpt><trkpt lat="39.048503868234754" lon="8.846988931985635"><ele>819.0</ele><time>2026-03-26T09:34:24Z</time></trkpt><trkpt lat="39.04855689031402" lon="8.846903945970922"><ele>818.6666666666666</ele><time>2026-03-26T09:34:26Z</time></trkpt><trkpt lat="39.04857831957162" lon="8.84677757881355"><ele>818.3333333333333</ele><time>2026-03-26T09:34:29Z</time></trkpt><trkpt lat="39.04859527554382" lon="8.846684879685164"><ele>818.0</ele><time>2026-03-26T09:34:32Z</time></trkpt><trkpt lat="39.04864724345603" lon="8.846611598792101"><ele>817.6666666666666</ele><time>2026-03-26T09:34:40Z</time></trkpt><trkpt lat="39.048733478738754" lon="8.846631065547855"><ele>817.3333333333333</ele><time>2026-03-26T09:34:43Z</time></trkpt><trkpt lat="39.04880369982409" lon="8.846603358485554"><ele>817.0</ele><time>2026-03-26T09:34:46Z</time></trkpt><trkpt lat="39.048845851767936" lon="8.846533295308035"><ele>816.9999999999999</ele><time>2026-03-26T09:34:48Z</time></trkpt><trkpt lat="39.04891133980793" lon="8.846484076739818"><ele>817.0</ele><time>2026-03-26T09:35:11.999Z</time></trkpt><trkpt lat="39.04900420663477" lon="8.846445646271597"><ele>817.0</ele><time>2026-03-26T09:35:20.999Z</time></trkpt><trkpt lat="39.0490845298881" lon="8.846432306536181"><ele>817.0</ele><time>2026-03-26T09:35:22.999Z</time></trkpt><trkpt lat="39.04915735603439" lon="8.846410811775126"><ele>816.9999999999999</ele><time>2026-03-26T09:35:24.999Z</time></trkpt><trkpt lat="39.04922829045833" lon="8.8463667163543"><ele>817.0</ele><time>2026-03-26T09:35:26.999Z</time></trkpt><trkpt lat="39.049333247002295" lon="8.84630235221027"><ele>819.6</ele><time>2026-03-26T09:35:28.999Z</time></trkpt><trkpt lat="39.04939639873438" lon="8.846265968270757"><ele>822.2</ele><time>2026-03-26T09:35:29.999Z</time></trkpt><trkpt lat="39.049493830586876" lon="8.846195407481893"><ele>824.8</ele><time>2026-03-26T09:35:31.999Z</time></trkpt><trkpt lat="39.04960455561529" lon="8.846125327784861"><ele>827.4</ele><time>2026-03-26T09:35:33.999Z</time></trkpt><trkpt lat="39.04966266757467" lon="8.846041176060544"><ele>830.0</ele><time>2026-03-26T09:35:35.999Z</time></trkpt><trkpt lat="39.04975979677462" lon="8.84602852012736"><ele>830.0</ele><time>2026-03-26T09:35:37.999Z</time></trkpt><trkpt lat="39.04989002644348" lon="8.845995057999247"><ele>830.0</ele><time>2026-03-26T09:35:39.999Z</time></trkpt><trkpt lat="39.04995371229421" lon="8.845983444856353"><ele>830.0</ele><time>2026-03-26T09:35:40.999Z</time></trkpt><trkpt lat="39.05006209546963" lon="8.845946765449561"><ele>830.0</ele><time>2026-03-26T09:35:42.999Z</time></trkpt><trkpt lat="39.05012603929223" lon="8.845942710651034"><ele>830.0</ele><time>2026-03-26T09:35:43.999Z</time></trkpt><trkpt lat="39.05025180506093" lon="8.845929290977997"><ele>831.6</ele><time>2026-03-26T09:35:45.999Z</time></trkpt><trkpt lat="39.05036456205327" lon="8.845898330296015"><ele>833.2</ele><time>2026-03-26T09:35:47.999Z</time></trkpt><trkpt lat="39.05045533442448" lon="8.845881267118788"><ele>834.8</ele><time>2026-03-26T09:35:49.999Z</time></trkpt><trkpt lat="39.05051852885037" lon="8.845887501834417"><ele>836.4</ele><time>2026-03-26T09:35:50.999Z</time></trkpt><trkpt lat="39.05063873218665" lon="8.845895662730669"><ele>838.0</ele><time>2026-03-26T09:35:52.999Z</time></trkpt><trkpt lat="39.050743914754534" lon="8.84589570448651"><ele>838.1666666666666</ele><time>2026-03-26T09:35:54.999Z</time></trkpt><trkpt lat="39.05085318277518" lon="8.845865805925417"><ele>838.3333333333333</ele><time>2026-03-26T09:35:56.999Z</time></trkpt><trkpt lat="39.05095286683023" lon="8.845801862704329"><ele>838.5</ele><time>2026-03-26T09:35:58.999Z</time></trkpt><trkpt lat="39.051016195558184" lon="8.845763984049261"><ele>838.6666666666667</ele><time>2026-03-26T09:35:59.999Z</time></trkpt><trkpt lat="39.05108690788575" lon="8.845729163631562"><ele>838.8333333333334</ele><time>2026-03-26T09:36:00.999Z</time></trkpt><trkpt lat="39.051154352513365" lon="8.845688852362454"><ele>839.0</ele><time>2026-03-26T09:36:01.999Z</time></trkpt><trkpt lat="39.05128844155496" lon="8.845611018782472"><ele>839.0</ele><time>2026-03-26T09:36:03.999Z</time></trkpt><trkpt lat="39.05139997969717" lon="8.845549730552442"><ele>839.0</ele><time>2026-03-26T09:36:05.999Z</time></trkpt><trkpt lat="39.05151700378084" lon="8.845496523844053"><ele>839.0</ele><time>2026-03-26T09:36:07.999Z</time></trkpt><trkpt lat="39.05158142457763" lon="8.845466330030517"><ele>839.0</ele><time>2026-03-26T09:36:08.999Z</time></trkpt><trkpt lat="39.05165219682618" lon="8.845407201237254"><ele>839.0</ele><time>2026-03-26T09:36:09.999Z</time></trkpt><trkpt lat="39.05177300727091" lon="8.845356704410193"><ele>840.8000000000001</ele><time>2026-03-26T09:36:11.999Z</time></trkpt><trkpt lat="39.05183564716816" lon="8.845328676315974"><ele>842.6</ele><time>2026-03-26T09:36:12.999Z</time></trkpt><trkpt lat="39.05194722321359" lon="8.845279515118701"><ele>844.4</ele><time>2026-03-26T09:36:14.999Z</time></trkpt><trkpt lat="39.052015863593056" lon="8.845198393753904"><ele>846.2</ele><time>2026-03-26T09:36:16.999Z</time></trkpt><trkpt lat="39.05209338028393" lon="8.845086672824703"><ele>848.0</ele><time>2026-03-26T09:36:18.999Z</time></trkpt><trkpt lat="39.05215526299069" lon="8.844965791689994"><ele>848.0</ele><time>2026-03-26T09:36:20.999Z</time></trkpt><trkpt lat="39.05222980310329" lon="8.844824576040416"><ele>848.0</ele><time>2026-03-26T09:36:23Z</time></trkpt><trkpt lat="39.05227545709902" lon="8.844698354319581"><ele>848.0</ele><time>2026-03-26T09:36:25Z</time></trkpt><trkpt lat="39.05231056502651" lon="8.84462108682136"><ele>848.0</ele><time>2026-03-26T09:36:26Z</time></trkpt><trkpt lat="39.05236800936031" lon="8.844484345633218"><ele>848.0</ele><time>2026-03-26T09:36:28Z</time></trkpt><trkpt lat="39.05243370425318" lon="8.844367728486437"><ele>848.4</ele><time>2026-03-26T09:36:30Z</time></trkpt><trkpt lat="39.05250497550449" lon="8.844326635557362"><ele>848.8</ele><time>2026-03-26T09:36:32Z</time></trkpt><trkpt lat="39.052613987108174" lon="8.844303305714718"><ele>849.2</ele><time>2026-03-26T09:36:34Z</time></trkpt><trkpt lat="39.05272086136342" lon="8.844293130450337"><ele>849.6</ele><time>2026-03-26T09:36:36Z</time></trkpt><trkpt lat="39.05280538190526" lon="8.844248420659309"><ele>850.0</ele><time>2026-03-26T09:36:38Z</time></trkpt><trkpt lat="39.05287459299981" lon="8.84413651302513"><ele>850.0</ele><time>2026-03-26T09:36:40Z</time></trkpt><trkpt lat="39.05292873739856" lon="8.844010860557159"><ele>850.0</ele><time>2026-03-26T09:36:42Z</time></trkpt><trkpt lat="39.05300594824585" lon="8.843938289369609"><ele>850.0</ele><time>2026-03-26T09:36:44Z</time></trkpt><trkpt lat="39.05309393049482" lon="8.843875900344633"><ele>850.0</ele><time>2026-03-26T09:36:46Z</time></trkpt><trkpt lat="39.05316003527324" lon="8.843786919540726"><ele>850.0</ele><time>2026-03-26T09:36:48Z</time></trkpt><trkpt lat="39.05320143990167" lon="8.843646351585912"><ele>850.0</ele><time>2026-03-26T09:36:50Z</time></trkpt><trkpt lat="39.05322416809329" lon="8.84351623897987"><ele>850.0</ele><time>2026-03-26T09:36:52Z</time></trkpt><trkpt lat="39.05328270005464" lon="8.84341225222623"><ele>850.0</ele><time>2026-03-26T09:36:54Z</time></trkpt><trkpt lat="39.0533301023681" lon="8.843262062644367"><ele>850.0</ele><time>2026-03-26T09:36:56Z</time></trkpt><trkpt lat="39.053345810064116" lon="8.843177072187967"><ele>850.0</ele><time>2026-03-26T09:36:57Z</time></trkpt><trkpt lat="39.05334861228236" lon="8.843095987291884"><ele>847.4</ele><time>2026-03-26T09:36:58Z</time></trkpt><trkpt lat="39.05334895081565" lon="8.842996453644114"><ele>844.8</ele><time>2026-03-26T09:36:59Z</time></trkpt><trkpt lat="39.05335204973786" lon="8.842908853034997"><ele>842.2</ele><time>2026-03-26T09:37:00Z</time></trkpt><trkpt lat="39.05335254260808" lon="8.84274743346253"><ele>839.6</ele><time>2026-03-26T09:37:02Z</time></trkpt><trkpt lat="39.053344509714655" lon="8.842655808407457"><ele>837.0</ele><time>2026-03-26T09:37:03Z</time></trkpt><trkpt lat="39.0533224322722" lon="8.842514280070422"><ele>837.0</ele><time>2026-03-26T09:37:05Z</time></trkpt><trkpt lat="39.05331670486987" lon="8.842400613220308"><ele>837.0</ele><time>2026-03-26T09:37:07Z</time></trkpt><trkpt lat="39.05326176365756" lon="8.842295718526067"><ele>837.0</ele><time>2026-03-26T09:37:09Z</time></trkpt><trkpt lat="39.05319347886306" lon="8.842224438577336"><ele>837.0</ele><time>2026-03-26T09:37:11Z</time></trkpt><trkpt lat="39.05312056115932" lon="8.8421459128534"><ele>837.0</ele><time>2026-03-26T09:37:13Z</time></trkpt><trkpt lat="39.05311661563782" lon="8.842019382904262"><ele>837.6</ele><time>2026-03-26T09:38:00.999Z</time></trkpt><trkpt lat="39.05313968935431" lon="8.841927775020546"><ele>838.2</ele><time>2026-03-26T09:38:03.999Z</time></trkpt><trkpt lat="39.05315773255215" lon="8.84178732298701"><ele>838.8</ele><time>2026-03-26T09:38:05.999Z</time></trkpt><trkpt lat="39.05320889488556" lon="8.841677872163887"><ele>839.4</ele><time>2026-03-26T09:38:07.999Z</time></trkpt><trkpt lat="39.053269527603746" lon="8.84158136308231"><ele>840.0</ele><time>2026-03-26T09:38:09.999Z</time></trkpt><trkpt lat="39.053323095599744" lon="8.841458131933532"><ele>840.0</ele><time>2026-03-26T09:38:11.999Z</time></trkpt><trkpt lat="39.05335722482182" lon="8.841357898965175"><ele>840.0</ele><time>2026-03-26T09:38:13.999Z</time></trkpt><trkpt lat="39.05339666559366" lon="8.841258592316983"><ele>840.0</ele><time>2026-03-26T09:38:15.999Z</time></trkpt><trkpt lat="39.05345610997732" lon="8.841128152269292"><ele>840.0</ele><time>2026-03-26T09:38:17.999Z</time></trkpt><trkpt lat="39.05350876210628" lon="8.840995064581193"><ele>840.0</ele><time>2026-03-26T09:38:19.999Z</time></trkpt><trkpt lat="39.05353332580187" lon="8.840847737341237"><ele>842.2</ele><time>2026-03-26T09:38:21.999Z</time></trkpt><trkpt lat="39.053531727305" lon="8.84075971037625"><ele>844.4</ele><time>2026-03-26T09:38:22.999Z</time></trkpt><trkpt lat="39.05350431777545" lon="8.840601455912282"><ele>846.5999999999999</ele><time>2026-03-26T09:38:24.999Z</time></trkpt><trkpt lat="39.05346321808618" lon="8.840460534134145"><ele>848.8</ele><time>2026-03-26T09:38:26.999Z</time></trkpt><trkpt lat="39.05344847235848" lon="8.840380464792135"><ele>851.0</ele><time>2026-03-26T09:38:27.999Z</time></trkpt><trkpt lat="39.05336990998613" lon="8.840283979810076"><ele>858.5999999999999</ele><time>2026-03-26T09:38:30Z</time></trkpt><trkpt lat="39.05328546104442" lon="8.84016768862686"><ele>866.2</ele><time>2026-03-26T09:38:32Z</time></trkpt><trkpt lat="39.05324167858785" lon="8.84010853945219"><ele>873.8000000000001</ele><time>2026-03-26T09:38:33Z</time></trkpt><trkpt lat="39.053167107319396" lon="8.839990454211401"><ele>881.4000000000001</ele><time>2026-03-26T09:38:35Z</time></trkpt><trkpt lat="39.05309041049014" lon="8.839889802739716"><ele>889.0</ele><time>2026-03-26T09:38:37Z</time></trkpt><trkpt lat="39.05301992512438" lon="8.839798854256028"><ele>888.9999999999999</ele><time>2026-03-26T09:38:40Z</time></trkpt><trkpt lat="39.05300603619857" lon="8.839687396573748"><ele>889.0</ele><time>2026-03-26T09:38:43Z</time></trkpt><trkpt lat="39.05299644718471" lon="8.839594421977786"><ele>889.0</ele><time>2026-03-26T09:38:45Z</time></trkpt><trkpt lat="39.052994990110946" lon="8.839502277051315"><ele>889.0</ele><time>2026-03-26T09:38:49Z</time></trkpt><trkpt lat="39.053002720762606" lon="8.83940555086048"><ele>888.9999999999999</ele><time>2026-03-26T09:38:54Z</time></trkpt><trkpt lat="39.053013850474606" lon="8.839295832082602"><ele>889.0</ele><time>2026-03-26T09:38:56Z</time></trkpt><trkpt lat="39.05302767614979" lon="8.83920855612928"><ele>888.6</ele><time>2026-03-26T09:38:57Z</time></trkpt><trkpt lat="39.05302947301803" lon="8.83907883123196"><ele>888.2</ele><time>2026-03-26T09:38:59Z</time></trkpt><trkpt lat="39.05301601351657" lon="8.838970171171766"><ele>887.8000000000001</ele><time>2026-03-26T09:39:01Z</time></trkpt><trkpt lat="39.052970603660675" lon="8.838855560674283"><ele>887.4000000000001</ele><time>2026-03-26T09:39:03Z</time></trkpt><trkpt lat="39.05293156271693" lon="8.838779489353145"><ele>887.0</ele><time>2026-03-26T09:39:04Z</time></trkpt><trkpt lat="39.05286081247916" lon="8.838668243492027"><ele>887.0</ele><time>2026-03-26T09:39:06Z</time></trkpt><trkpt lat="39.0528349593846" lon="8.838569541233202"><ele>887.0</ele><time>2026-03-26T09:39:08Z</time></trkpt><trkpt lat="39.05281391795512" lon="8.838444261312906"><ele>887.0</ele><time>2026-03-26T09:39:10Z</time></trkpt><trkpt lat="39.05280546191746" lon="8.838308767010622"><ele>887.0</ele><time>2026-03-26T09:39:12Z</time></trkpt><trkpt lat="39.05281212067626" lon="8.838168782325024"><ele>887.0</ele><time>2026-03-26T09:39:14Z</time></trkpt><trkpt lat="39.05283543781226" lon="8.83802523514186"><ele>886.2</ele><time>2026-03-26T09:39:16Z</time></trkpt><trkpt lat="39.05284238634339" lon="8.837862271284147"><ele>885.4000000000001</ele><time>2026-03-26T09:39:18Z</time></trkpt><trkpt lat="39.05283398191717" lon="8.83777280639219"><ele>884.5999999999999</ele><time>2026-03-26T09:39:19Z</time></trkpt><trkpt lat="39.05282595309665" lon="8.837682822830098"><ele>883.8</ele><time>2026-03-26T09:39:20Z</time></trkpt><trkpt lat="39.05284288755756" lon="8.837520574146827"><ele>883.0</ele><time>2026-03-26T09:39:22Z</time></trkpt><trkpt lat="39.052873175859766" lon="8.837395348967664"><ele>882.8333333333333</ele><time>2026-03-26T09:39:24Z</time></trkpt><trkpt lat="39.05284368903494" lon="8.837296554319865"><ele>882.6666666666666</ele><time>2026-03-26T09:39:27Z</time></trkpt><trkpt lat="39.05275329082269" lon="8.83733097533558"><ele>882.5</ele><time>2026-03-26T09:39:29Z</time></trkpt><trkpt lat="39.052657147792516" lon="8.837314592296655"><ele>882.3333333333333</ele><time>2026-03-26T09:39:31Z</time></trkpt><trkpt lat="39.052578960869454" lon="8.837284789001952"><ele>882.1666666666666</ele><time>2026-03-26T09:39:31.999Z</time></trkpt><trkpt lat="39.052509927907984" lon="8.837249386902155"><ele>882.0</ele><time>2026-03-26T09:39:32.999Z</time></trkpt><trkpt lat="39.0523935333373" lon="8.83719709734192"><ele>885.0</ele><time>2026-03-26T09:39:34.999Z</time></trkpt><trkpt lat="39.052314320511776" lon="8.837141992475406"><ele>888.0</ele><time>2026-03-26T09:39:36.999Z</time></trkpt><trkpt lat="39.05223684369021" lon="8.837017808548795"><ele>891.0</ele><time>2026-03-26T09:39:38.999Z</time></trkpt><trkpt lat="39.052199179169605" lon="8.836952562310913"><ele>894.0</ele><time>2026-03-26T09:39:39.999Z</time></trkpt><trkpt lat="39.05216331879647" lon="8.836877962392458"><ele>897.0</ele><time>2026-03-26T09:39:40.999Z</time></trkpt><trkpt lat="39.05209781992954" lon="8.836747378661732"><ele>897.0</ele><time>2026-03-26T09:39:42.999Z</time></trkpt><trkpt lat="39.05205406116866" lon="8.836683258778102"><ele>897.0</ele><time>2026-03-26T09:39:43.999Z</time></trkpt><trkpt lat="39.05200947742432" lon="8.836618617303555"><ele>897.0</ele><time>2026-03-26T09:39:44.999Z</time></trkpt><trkpt lat="39.05196095785525" lon="8.83654932115633"><ele>897.0</ele><time>2026-03-26T09:39:45.999Z</time></trkpt><trkpt lat="39.05192197483977" lon="8.836436186071126"><ele>897.0</ele><time>2026-03-26T09:39:47.999Z</time></trkpt><trkpt lat="39.05192363958018" lon="8.836297788399113"><ele>897.0</ele><time>2026-03-26T09:39:49.999Z</time></trkpt><trkpt lat="39.0519122240479" lon="8.836208472398406"><ele>897.0</ele><time>2026-03-26T09:39:50.999Z</time></trkpt><trkpt lat="39.05188795191412" lon="8.836048792613884"><ele>897.0</ele><time>2026-03-26T09:39:52.999Z</time></trkpt><trkpt lat="39.051863109612675" lon="8.835968448235215"><ele>897.0</ele><time>2026-03-26T09:39:53.999Z</time></trkpt><trkpt lat="39.051794930260975" lon="8.835819155912002"><ele>897.0</ele><time>2026-03-26T09:39:55.999Z</time></trkpt><trkpt lat="39.05174813681229" lon="8.83575274886926"><ele>897.0</ele><time>2026-03-26T09:39:56.999Z</time></trkpt><trkpt lat="39.05163418094495" lon="8.835689762783153"><ele>899.1666666666666</ele><time>2026-03-26T09:39:58.999Z</time></trkpt><trkpt lat="39.05154619188997" lon="8.835665059592863"><ele>901.3333333333333</ele><time>2026-03-26T09:39:59.999Z</time></trkpt><trkpt lat="39.05146392049459" lon="8.835643432449517"><ele>903.5</ele><time>2026-03-26T09:40:00.999Z</time></trkpt><trkpt lat="39.051385191497566" lon="8.835631116627358"><ele>905.6666666666666</ele><time>2026-03-26T09:40:01.999Z</time></trkpt><trkpt lat="39.05128671608265" lon="8.835635726962364"><ele>907.8333333333333</ele><time>2026-03-26T09:40:03.999Z</time></trkpt><trkpt lat="39.05121670005952" lon="8.835606396313308"><ele>910.0</ele><time>2026-03-26T09:40:08.999Z</time></trkpt><trkpt lat="39.05117621136989" lon="8.83552333140706"><ele>910.0</ele><time>2026-03-26T09:40:10.999Z</time></trkpt><trkpt lat="39.051112557258634" lon="8.835441203855959"><ele>910.0</ele><time>2026-03-26T09:40:12.999Z</time></trkpt><trkpt lat="39.051060686038674" lon="8.835349389755033"><ele>910.0</ele><time>2026-03-26T09:40:14.999Z</time></trkpt><trkpt lat="39.05098624151506" lon="8.835254420003368"><ele>910.0</ele><time>2026-03-26T09:40:28.999Z</time></trkpt><trkpt lat="39.05090481183945" lon="8.835133456728174"><ele>910.0</ele><time>2026-03-26T09:41:44.999Z</time></trkpt><trkpt lat="39.05084739756121" lon="8.835094505645733"><ele>911.1428571428571</ele><time>2026-03-26T09:44:05.999Z</time></trkpt><trkpt lat="39.05078904914643" lon="8.835059524724029"><ele>912.2857142857142</ele><time>2026-03-26T09:44:46Z</time></trkpt><trkpt lat="39.05071621540449" lon="8.835024670486506"><ele>913.4285714285714</ele><time>2026-03-26T09:45:20Z</time></trkpt><trkpt lat="39.05076199945689" lon="8.834952282843952"><ele>914.5714285714286</ele><time>2026-03-26T09:45:36Z</time></trkpt><trkpt lat="39.05071476048593" lon="8.835008222446866"><ele>915.7142857142857</ele><time>2026-03-26T09:46:03Z</time></trkpt><trkpt lat="39.05065734099544" lon="8.834967957930152"><ele>916.8571428571429</ele><time>2026-03-26T09:46:13.999Z</time></trkpt><trkpt lat="39.05059695172778" lon="8.83490033508387"><ele>918.0</ele><time>2026-03-26T09:46:15.999Z</time></trkpt><trkpt lat="39.050531327246325" lon="8.834792634696518"><ele>918.0</ele><time>2026-03-26T09:46:17.999Z</time></trkpt><trkpt lat="39.0504994944357" lon="8.834715640241889"><ele>918.0</ele><time>2026-03-26T09:46:18.999Z</time></trkpt><trkpt lat="39.05046381303191" lon="8.834635924422518"><ele>918.0</ele><time>2026-03-26T09:46:19.999Z</time></trkpt><trkpt lat="39.05043437358731" lon="8.834545814229992"><ele>918.0</ele><time>2026-03-26T09:46:20.999Z</time></trkpt><trkpt lat="39.05039316754488" lon="8.834452364484832"><ele>918.0</ele><time>2026-03-26T09:46:21.999Z</time></trkpt><trkpt lat="39.0503512966668" lon="8.834367923558409"><ele>918.0</ele><time>2026-03-26T09:46:22.999Z</time></trkpt><trkpt lat="39.05029855711868" lon="8.834261359279354"><ele>917.6666666666666</ele><time>2026-03-26T09:46:23.999Z</time></trkpt><trkpt lat="39.05027207428273" lon="8.83417428436026"><ele>917.3333333333333</ele><time>2026-03-26T09:46:24.999Z</time></trkpt><trkpt lat="39.05024549458924" lon="8.834034323701667"><ele>917.0</ele><time>2026-03-26T09:46:26.999Z</time></trkpt><trkpt lat="39.05024452054408" lon="8.833911497706286"><ele>916.6666666666666</ele><time>2026-03-26T09:46:28.999Z</time></trkpt><trkpt lat="39.05024422045777" lon="8.833805570629487"><ele>916.3333333333333</ele><time>2026-03-26T09:46:30.999Z</time></trkpt><trkpt lat="39.05022560339446" lon="8.833713150683273"><ele>916.0</ele><time>2026-03-26T09:46:33.999Z</time></trkpt><trkpt lat="39.05020194173268" lon="8.83361760635027"><ele>915.9999999999999</ele><time>2026-03-26T09:46:35.999Z</time></trkpt><trkpt lat="39.05017884825552" lon="8.833532184258472"><ele>916.0</ele><time>2026-03-26T09:46:37.999Z</time></trkpt><trkpt lat="39.05013495377501" lon="8.833463153342043"><ele>916.0</ele><time>2026-03-26T09:46:47.999Z</time></trkpt><trkpt lat="39.05006446509619" lon="8.833424766187203"><ele>916.0</ele><time>2026-03-26T09:46:54Z</time></trkpt><trkpt lat="39.049986242111764" lon="8.83340123776335"><ele>915.9999999999999</ele><time>2026-03-26T09:46:56Z</time></trkpt><trkpt lat="39.04988162735421" lon="8.83337292441041"><ele>916.0</ele><time>2026-03-26T09:46:58Z</time></trkpt><trkpt lat="39.04981411157759" lon="8.833350962467433"><ele>917.0</ele><time>2026-03-26T09:46:59Z</time></trkpt><trkpt lat="39.04969725980444" lon="8.833313271975229"><ele>917.9999999999999</ele><time>2026-03-26T09:47:01Z</time></trkpt><trkpt lat="39.04957853375639" lon="8.833253455489734"><ele>918.9999999999999</ele><time>2026-03-26T09:47:03Z</time></trkpt><trkpt lat="39.04951062808591" lon="8.833212339427678"><ele>920.0</ele><time>2026-03-26T09:47:04Z</time></trkpt><trkpt lat="39.049408675481764" lon="8.833170045941618"><ele>921.0</ele><time>2026-03-26T09:47:06Z</time></trkpt><trkpt lat="39.049317696444035" lon="8.833109576004594"><ele>921.0</ele><time>2026-03-26T09:47:08Z</time></trkpt><trkpt lat="39.0492344205511" lon="8.833062917793766"><ele>921.0</ele><time>2026-03-26T09:47:10Z</time></trkpt><trkpt lat="39.04917142686406" lon="8.833029497700199"><ele>921.0</ele><time>2026-03-26T09:47:11Z</time></trkpt><trkpt lat="39.04906722188361" lon="8.83296859855756"><ele>921.0</ele><time>2026-03-26T09:47:13Z</time></trkpt><trkpt lat="39.048999451239595" lon="8.832923254421727"><ele>921.0</ele><time>2026-03-26T09:47:14Z</time></trkpt><trkpt lat="39.048912508475425" lon="8.832877108111187"><ele>921.0</ele><time>2026-03-26T09:47:15Z</time></trkpt><trkpt lat="39.04884165387821" lon="8.83285326527631"><ele>923.1999999999999</ele><time>2026-03-26T09:47:16Z</time></trkpt><trkpt lat="39.04875368232349" lon="8.83277973950013"><ele>925.3999999999999</ele><time>2026-03-26T09:47:18Z</time></trkpt><trkpt lat="39.048713760144594" lon="8.832662938329825"><ele>927.6</ele><time>2026-03-26T09:47:20Z</time></trkpt><trkpt lat="39.048686316657765" lon="8.832537296709072"><ele>929.8</ele><time>2026-03-26T09:47:22Z</time></trkpt><trkpt lat="39.04860923814433" lon="8.832503301932913"><ele>932.0</ele><time>2026-03-26T09:47:24Z</time></trkpt><trkpt lat="39.04849961847126" lon="8.83257834648429"><ele>932.0000000000001</ele><time>2026-03-26T09:47:26Z</time></trkpt><trkpt lat="39.048440460934465" lon="8.83263841438828"><ele>932.0</ele><time>2026-03-26T09:47:27Z</time></trkpt><trkpt lat="39.0483868333531" lon="8.83268990513769"><ele>932.0</ele><time>2026-03-26T09:47:28Z</time></trkpt><trkpt lat="39.0483285954998" lon="8.832744377356677"><ele>932.0</ele><time>2026-03-26T09:47:29Z</time></trkpt><trkpt lat="39.048262011669685" lon="8.832804454456655"><ele>932.0000000000001</ele><time>2026-03-26T09:47:30Z</time></trkpt><trkpt lat="39.04817474641628" lon="8.83287413691927"><ele>932.0</ele><time>2026-03-26T09:47:31Z</time></trkpt><trkpt lat="39.04811251468107" lon="8.832951272554125"><ele>934.0000000000001</ele><time>2026-03-26T09:47:32Z</time></trkpt><trkpt lat="39.04806295988022" lon="8.833020301891638"><ele>936.0</ele><time>2026-03-26T09:47:33Z</time></trkpt><trkpt lat="39.04798232324723" lon="8.833113184549747"><ele>938.0</ele><time>2026-03-26T09:47:35Z</time></trkpt><trkpt lat="39.047907054272315" lon="8.83311698033966"><ele>940.0</ele><time>2026-03-26T09:47:38Z</time></trkpt><trkpt lat="39.04791049243144" lon="8.832992460395868"><ele>942.0000000000001</ele><time>2026-03-26T09:47:41Z</time></trkpt><trkpt lat="39.04791053799249" lon="8.8328873312304"><ele>944.0</ele><time>2026-03-26T09:47:42Z</time></trkpt><trkpt lat="39.04790908168342" lon="8.832774070257791"><ele>944.0000000000001</ele><time>2026-03-26T09:47:43Z</time></trkpt><trkpt lat="39.04791207143628" lon="8.832651858445516"><ele>944.0</ele><time>2026-03-26T09:47:44Z</time></trkpt><trkpt lat="39.047915758578945" lon="8.832537042778522"><ele>944.0</ele><time>2026-03-26T09:47:45Z</time></trkpt><trkpt lat="39.04792303097411" lon="8.832437397011734"><ele>944.0</ele><time>2026-03-26T09:47:46Z</time></trkpt><trkpt lat="39.047939730310276" lon="8.832342937425498"><ele>944.0000000000001</ele><time>2026-03-26T09:47:47Z</time></trkpt><trkpt lat="39.04794848318894" lon="8.832245867156953"><ele>944.0</ele><time>2026-03-26T09:47:48Z</time></trkpt><trkpt lat="39.04794979514602" lon="8.832156230925614"><ele>946.5000000000001</ele><time>2026-03-26T09:47:49Z</time></trkpt><trkpt lat="39.04792946828089" lon="8.832005348953658"><ele>949.0</ele><time>2026-03-26T09:47:51Z</time></trkpt><trkpt lat="39.04793115505839" lon="8.831923414469928"><ele>951.5</ele><time>2026-03-26T09:47:52Z</time></trkpt><trkpt lat="39.047916389037006" lon="8.83182421913006"><ele>954.0</ele><time>2026-03-26T09:47:53Z</time></trkpt><trkpt lat="39.04790188259183" lon="8.831705162257677"><ele>956.5000000000001</ele><time>2026-03-26T09:47:55Z</time></trkpt><trkpt lat="39.04784197050477" lon="8.831677392821321"><ele>959.0</ele><time>2026-03-26T09:47:57Z</time></trkpt><trkpt lat="39.047757229251324" lon="8.831751232770662"><ele>959.0000000000001</ele><time>2026-03-26T09:47:59Z</time></trkpt><trkpt lat="39.047666838911695" lon="8.831803258625065"><ele>959.0</ele><time>2026-03-26T09:48:01Z</time></trkpt><trkpt lat="39.04756931976747" lon="8.83187419032506"><ele>959.0</ele><time>2026-03-26T09:48:03Z</time></trkpt><trkpt lat="39.047513175836905" lon="8.831923744882243"><ele>959.0</ele><time>2026-03-26T09:48:04Z</time></trkpt><trkpt lat="39.047424654880466" lon="8.831995815517114"><ele>959.0000000000001</ele><time>2026-03-26T09:48:06Z</time></trkpt><trkpt lat="39.04737116400327" lon="8.832041968554162"><ele>959.0</ele><time>2026-03-26T09:48:08Z</time></trkpt><trkpt lat="39.047284904869706" lon="8.832080847773138"><ele>959.0000000000001</ele><time>2026-03-26T09:53:38Z</time></trkpt><trkpt lat="39.04734930285347" lon="8.832057269924002"><ele>959.0</ele><time>2026-03-26T09:54:42.999Z</time></trkpt><trkpt lat="39.04747382831297" lon="8.831947350945297"><ele>959.0</ele><time>2026-03-26T09:58:32Z</time></trkpt><trkpt lat="39.04752109144558" lon="8.831884526762023"><ele>959.0</ele><time>2026-03-26T09:58:35Z</time></trkpt><trkpt lat="39.0475881857894" lon="8.831823866604875"><ele>959.0000000000001</ele><time>2026-03-26T09:58:38Z</time></trkpt><trkpt lat="39.04765289962293" lon="8.831763177372226"><ele>959.0</ele><time>2026-03-26T09:58:41Z</time></trkpt><trkpt lat="39.04772179232871" lon="8.83170901415131"><ele>959.0000000000001</ele><time>2026-03-26T09:58:44Z</time></trkpt><trkpt lat="39.0477826672262" lon="8.831671507268416"><ele>959.0</ele><time>2026-03-26T09:58:47Z</time></trkpt><trkpt lat="39.047832510177706" lon="8.831602536462464"><ele>959.0</ele><time>2026-03-26T09:58:50Z</time></trkpt><trkpt lat="39.0479047538638" lon="8.831601495345206"><ele>959.0</ele><time>2026-03-26T09:58:54Z</time></trkpt><trkpt lat="39.0479063149168" lon="8.831732656136204"><ele>959.0000000000001</ele><time>2026-03-26T09:58:57Z</time></trkpt><trkpt lat="39.04790772475172" lon="8.831849304189177"><ele>959.0</ele><time>2026-03-26T09:58:59Z</time></trkpt><trkpt lat="39.047912651038416" lon="8.831968893523442"><ele>959.0</ele><time>2026-03-26T09:59:01Z</time></trkpt><trkpt lat="39.04792690382602" lon="8.832087685880767"><ele>959.0000000000001</ele><time>2026-03-26T09:59:03Z</time></trkpt><trkpt lat="39.047909618695726" lon="8.832210749295154"><ele>959.0000000000001</ele><time>2026-03-26T09:59:05Z</time></trkpt><trkpt lat="39.047879159507325" lon="8.832328080930553"><ele>959.0</ele><time>2026-03-26T09:59:07Z</time></trkpt><trkpt lat="39.04787525896954" lon="8.83244001514196"><ele>959.0</ele><time>2026-03-26T09:59:09Z</time></trkpt><trkpt lat="39.047869352469625" lon="8.83256234335125"><ele>956.0</ele><time>2026-03-26T09:59:11Z</time></trkpt><trkpt lat="39.04787224398742" lon="8.83267519763683"><ele>953.0000000000001</ele><time>2026-03-26T09:59:13Z</time></trkpt><trkpt lat="39.04786854128809" lon="8.832835223200721"><ele>950.0000000000001</ele><time>2026-03-26T09:59:14.999Z</time></trkpt><trkpt lat="39.0478640132499" lon="8.832955955651757"><ele>947.0</ele><time>2026-03-26T09:59:16.999Z</time></trkpt><trkpt lat="39.047878649064444" lon="8.833053097068673"><ele>944.0</ele><time>2026-03-26T09:59:19.999Z</time></trkpt><trkpt lat="39.047942763287196" lon="8.833025739789592"><ele>944.0000000000001</ele><time>2026-03-26T09:59:23.999Z</time></trkpt><trkpt lat="39.04801826089469" lon="8.83298778364567"><ele>944.0</ele><time>2026-03-26T09:59:25.999Z</time></trkpt><trkpt lat="39.04807247830189" lon="8.832934762902683"><ele>944.0</ele><time>2026-03-26T09:59:27Z</time></trkpt><trkpt lat="39.04811602772849" lon="8.832866962182509"><ele>944.0</ele><time>2026-03-26T09:59:28Z</time></trkpt><trkpt lat="39.04819328287708" lon="8.832779650193306"><ele>944.0000000000001</ele><time>2026-03-26T09:59:30Z</time></trkpt><trkpt lat="39.04826824982015" lon="8.832725751471534"><ele>944.0</ele><time>2026-03-26T09:59:32Z</time></trkpt><trkpt lat="39.04835044854413" lon="8.832648286286728"><ele>943.0000000000001</ele><time>2026-03-26T09:59:34Z</time></trkpt><trkpt lat="39.04842885236198" lon="8.832562421361862"><ele>942.0</ele><time>2026-03-26T09:59:36Z</time></trkpt><trkpt lat="39.04851547538265" lon="8.832511004677942"><ele>941.0</ele><time>2026-03-26T09:59:38Z</time></trkpt><trkpt lat="39.04859176921307" lon="8.832531725126103"><ele>940.0</ele><time>2026-03-26T09:59:40Z</time></trkpt><trkpt lat="39.04864607567918" lon="8.83262236893791"><ele>939.0000000000001</ele><time>2026-03-26T09:59:43Z</time></trkpt><trkpt lat="39.04872229494923" lon="8.832663911526884"><ele>938.0</ele><time>2026-03-26T09:59:46Z</time></trkpt><trkpt lat="39.04879759592217" lon="8.832697439849106"><ele>936.5</ele><time>2026-03-26T09:59:48Z</time></trkpt><trkpt lat="39.048997171979416" lon="8.832862533884896"><ele>935.0</ele><time>2026-03-26T09:59:50Z</time></trkpt><trkpt lat="39.04906758750356" lon="8.832891036042023"><ele>933.5</ele><time>2026-03-26T09:59:51Z</time></trkpt><trkpt lat="39.04917078252778" lon="8.832945943614066"><ele>932.0</ele><time>2026-03-26T09:59:53Z</time></trkpt><trkpt lat="39.04923186060176" lon="8.833005347109832"><ele>932.0</ele><time>2026-03-26T09:59:56Z</time></trkpt><trkpt lat="39.049241534280384" lon="8.833094647526085"><ele>932.0</ele><time>2026-03-26T10:00:00Z</time></trkpt><trkpt lat="39.04915062265362" lon="8.833191245318654"><ele>932.0</ele><time>2026-03-26T10:00:03Z</time></trkpt><trkpt lat="39.04903112860778" lon="8.8332992321937"><ele>932.0</ele><time>2026-03-26T10:00:05Z</time></trkpt><trkpt lat="39.048977224431056" lon="8.833372029587908"><ele>932.0</ele><time>2026-03-26T10:00:06Z</time></trkpt><trkpt lat="39.048924461160276" lon="8.833448159008721"><ele>930.3333333333334</ele><time>2026-03-26T10:00:07Z</time></trkpt><trkpt lat="39.048858528630056" lon="8.83353399141234"><ele>928.6666666666667</ele><time>2026-03-26T10:00:08Z</time></trkpt><trkpt lat="39.048826449972196" lon="8.83361340333087"><ele>927.0</ele><time>2026-03-26T10:00:09Z</time></trkpt><trkpt lat="39.04876377500867" lon="8.833707177147271"><ele>925.3333333333333</ele><time>2026-03-26T10:00:11Z</time></trkpt><trkpt lat="39.04870063910041" lon="8.83374904804604"><ele>923.6666666666666</ele><time>2026-03-26T10:00:13Z</time></trkpt><trkpt lat="39.048637025384885" lon="8.833818158558534"><ele>922.0</ele><time>2026-03-26T10:00:14Z</time></trkpt><trkpt lat="39.04857231283545" lon="8.83388817701541"><ele>921.9999999999999</ele><time>2026-03-26T10:00:15Z</time></trkpt><trkpt lat="39.04852638294256" lon="8.83394760859388"><ele>922.0</ele><time>2026-03-26T10:00:16Z</time></trkpt><trkpt lat="39.04847770699448" lon="8.834004046257103"><ele>922.0</ele><time>2026-03-26T10:00:17Z</time></trkpt><trkpt lat="39.048390390028246" lon="8.834066376655777"><ele>922.0</ele><time>2026-03-26T10:00:19Z</time></trkpt><trkpt lat="39.04828242401742" lon="8.834104960369169"><ele>921.9999999999999</ele><time>2026-03-26T10:00:21Z</time></trkpt><trkpt lat="39.04821908075318" lon="8.834148900046687"><ele>922.0</ele><time>2026-03-26T10:00:22Z</time></trkpt><trkpt lat="39.04815455543798" lon="8.83419010963687"><ele>922.8333333333333</ele><time>2026-03-26T10:00:23Z</time></trkpt><trkpt lat="39.048084287343016" lon="8.834233120310131"><ele>923.6666666666666</ele><time>2026-03-26T10:00:24Z</time></trkpt><trkpt lat="39.04802886711555" lon="8.834273193830928"><ele>924.5</ele><time>2026-03-26T10:00:25Z</time></trkpt><trkpt lat="39.04797811397548" lon="8.834322849443135"><ele>925.3333333333333</ele><time>2026-03-26T10:00:26Z</time></trkpt><trkpt lat="39.047912701902774" lon="8.834352783541926"><ele>926.1666666666666</ele><time>2026-03-26T10:00:27Z</time></trkpt><trkpt lat="39.047794267899505" lon="8.834432508498162"><ele>927.0</ele><time>2026-03-26T10:00:29Z</time></trkpt><trkpt lat="39.04773872075255" lon="8.834474538114105"><ele>925.0</ele><time>2026-03-26T10:00:30Z</time></trkpt><trkpt lat="39.04768117483486" lon="8.834544226611408"><ele>923.0</ele><time>2026-03-26T10:00:31Z</time></trkpt><trkpt lat="39.04760958871615" lon="8.834622914891925"><ele>921.0</ele><time>2026-03-26T10:00:32Z</time></trkpt><trkpt lat="39.0475438231475" lon="8.834698290227788"><ele>919.0</ele><time>2026-03-26T10:00:33Z</time></trkpt><trkpt lat="39.04747166833892" lon="8.8347763598466"><ele>917.0</ele><time>2026-03-26T10:00:34Z</time></trkpt><trkpt lat="39.04743018876303" lon="8.834845198730033"><ele>915.0</ele><time>2026-03-26T10:00:35Z</time></trkpt><trkpt lat="39.04737583293305" lon="8.834893872689127"><ele>915.0</ele><time>2026-03-26T10:00:36Z</time></trkpt><trkpt lat="39.04729282951612" lon="8.834986472436814"><ele>915.0</ele><time>2026-03-26T10:00:38Z</time></trkpt><trkpt lat="39.04720153650685" lon="8.835070841890593"><ele>915.0</ele><time>2026-03-26T10:00:40Z</time></trkpt><trkpt lat="39.04714536554609" lon="8.835109918932105"><ele>915.0</ele><time>2026-03-26T10:00:41Z</time></trkpt><trkpt lat="39.04708437948781" lon="8.835150396713285"><ele>915.0</ele><time>2026-03-26T10:00:42Z</time></trkpt><trkpt lat="39.047028025773876" lon="8.83519285035353"><ele>915.0</ele><time>2026-03-26T10:00:43Z</time></trkpt><trkpt lat="39.046923642213095" lon="8.835252792705"><ele>913.6666666666666</ele><time>2026-03-26T10:00:45Z</time></trkpt><trkpt lat="39.04681663306376" lon="8.835298506668456"><ele>912.3333333333333</ele><time>2026-03-26T10:00:47Z</time></trkpt><trkpt lat="39.04675697596035" lon="8.835325350744672"><ele>911.0</ele><time>2026-03-26T10:00:49Z</time></trkpt><trkpt lat="39.046693970499774" lon="8.835349698325981"><ele>909.6666666666666</ele><time>2026-03-26T10:00:51Z</time></trkpt><trkpt lat="39.04661381704676" lon="8.835296777964139"><ele>908.3333333333333</ele><time>2026-03-26T10:00:53Z</time></trkpt><trkpt lat="39.04655102678763" lon="8.835257574975962"><ele>907.0</ele><time>2026-03-26T10:00:55Z</time></trkpt><trkpt lat="39.04630410417108" lon="8.835145294174534"><ele>905.4999999999999</ele><time>2026-03-26T10:00:57Z</time></trkpt><trkpt lat="39.046199565936426" lon="8.835094072811536"><ele>904.0</ele><time>2026-03-26T10:00:59Z</time></trkpt><trkpt lat="39.04613416208723" lon="8.835075587538565"><ele>902.5</ele><time>2026-03-26T10:01:00Z</time></trkpt><trkpt lat="39.0460548164742" lon="8.835054380473185"><ele>901.0</ele><time>2026-03-26T10:01:01Z</time></trkpt><trkpt lat="39.04597145639645" lon="8.835032376362204"><ele>899.4999999999999</ele><time>2026-03-26T10:01:02Z</time></trkpt><trkpt lat="39.04588478757144" lon="8.835075566736224"><ele>898.0</ele><time>2026-03-26T10:01:03Z</time></trkpt><trkpt lat="39.04579598137475" lon="8.835069401903393"><ele>895.9999999999999</ele><time>2026-03-26T10:01:04Z</time></trkpt><trkpt lat="39.04572701055654" lon="8.835082021976625"><ele>894.0</ele><time>2026-03-26T10:01:05Z</time></trkpt><trkpt lat="39.045654678927626" lon="8.83509372270837"><ele>892.0</ele><time>2026-03-26T10:01:06Z</time></trkpt><trkpt lat="39.04558849222873" lon="8.83509909854891"><ele>890.0</ele><time>2026-03-26T10:01:07Z</time></trkpt><trkpt lat="39.045468818604085" lon="8.835086374574088"><ele>887.9999999999999</ele><time>2026-03-26T10:01:09Z</time></trkpt><trkpt lat="39.04536146372503" lon="8.835048694902717"><ele>886.0</ele><time>2026-03-26T10:01:11Z</time></trkpt><trkpt lat="39.04525506596492" lon="8.835013074353402"><ele>885.9999999999999</ele><time>2026-03-26T10:01:13Z</time></trkpt><trkpt lat="39.0451897261163" lon="8.834988481702082"><ele>886.0</ele><time>2026-03-26T10:01:14Z</time></trkpt><trkpt lat="39.045122932730976" lon="8.834963341803551"><ele>886.0</ele><time>2026-03-26T10:01:15Z</time></trkpt><trkpt lat="39.04505567317733" lon="8.83495124960294"><ele>886.0</ele><time>2026-03-26T10:01:16Z</time></trkpt><trkpt lat="39.04498115704397" lon="8.834949034708407"><ele>885.9999999999999</ele><time>2026-03-26T10:01:17Z</time></trkpt><trkpt lat="39.04491349638674" lon="8.834952945951432"><ele>886.0</ele><time>2026-03-26T10:01:18Z</time></trkpt><trkpt lat="39.044787386321055" lon="8.834955410684854"><ele>884.9999999999999</ele><time>2026-03-26T10:01:20Z</time></trkpt><trkpt lat="39.04472299258807" lon="8.834955432689435"><ele>884.0</ele><time>2026-03-26T10:01:21Z</time></trkpt><trkpt lat="39.04460427481943" lon="8.834955432687163"><ele>883.0</ele><time>2026-03-26T10:01:23Z</time></trkpt><trkpt lat="39.04449039344208" lon="8.834947865020158"><ele>882.0</ele><time>2026-03-26T10:01:25Z</time></trkpt><trkpt lat="39.04442441379907" lon="8.834939607216358"><ele>880.9999999999999</ele><time>2026-03-26T10:01:26Z</time></trkpt><trkpt lat="39.04435377019362" lon="8.834929413675171"><ele>880.0</ele><time>2026-03-26T10:01:27Z</time></trkpt><trkpt lat="39.04428583704702" lon="8.834920452094147"><ele>879.9999999999999</ele><time>2026-03-26T10:01:28Z</time></trkpt><trkpt lat="39.044161879329394" lon="8.834907067251075"><ele>880.0</ele><time>2026-03-26T10:01:30Z</time></trkpt><trkpt lat="39.044097126252204" lon="8.834900562811226"><ele>880.0</ele><time>2026-03-26T10:01:31Z</time></trkpt><trkpt lat="39.04396844812864" lon="8.834889440710715"><ele>880.0</ele><time>2026-03-26T10:01:33Z</time></trkpt><trkpt lat="39.04390192047276" lon="8.834886275512975"><ele>879.9999999999999</ele><time>2026-03-26T10:01:34Z</time></trkpt><trkpt lat="39.04383801282967" lon="8.834878499998979"><ele>880.0</ele><time>2026-03-26T10:01:35Z</time></trkpt><trkpt lat="39.043732706461086" lon="8.834826029754446"><ele>879.8333333333333</ele><time>2026-03-26T10:01:37Z</time></trkpt><trkpt lat="39.043670317143395" lon="8.834778473473307"><ele>879.6666666666666</ele><time>2026-03-26T10:01:38Z</time></trkpt><trkpt lat="39.04359953623296" lon="8.83473908933569"><ele>879.5</ele><time>2026-03-26T10:01:39Z</time></trkpt><trkpt lat="39.04349650954066" lon="8.834693211361357"><ele>879.3333333333333</ele><time>2026-03-26T10:01:41Z</time></trkpt><trkpt lat="39.04341578915658" lon="8.834660824747234"><ele>879.1666666666666</ele><time>2026-03-26T10:01:44Z</time></trkpt><trkpt lat="39.04333928271951" lon="8.834633748350521"><ele>879.0</ele><time>2026-03-26T10:01:46Z</time></trkpt><trkpt lat="39.04324799216928" lon="8.834616820214627"><ele>879.0</ele><time>2026-03-26T10:01:48Z</time></trkpt><trkpt lat="39.0431311203033" lon="8.834635510345548"><ele>879.0000000000001</ele><time>2026-03-26T10:01:50Z</time></trkpt><trkpt lat="39.043007591794606" lon="8.834651855319049"><ele>879.0000000000001</ele><time>2026-03-26T10:01:52Z</time></trkpt><trkpt lat="39.04293808679995" lon="8.834659719182472"><ele>879.0</ele><time>2026-03-26T10:01:53Z</time></trkpt><trkpt lat="39.04286828434416" lon="8.834666013273692"><ele>879.0</ele><time>2026-03-26T10:01:54Z</time></trkpt><trkpt lat="39.04279952810428" lon="8.834665461983636"><ele>879.0</ele><time>2026-03-26T10:01:55Z</time></trkpt><trkpt lat="39.04272863398666" lon="8.834660896485248"><ele>879.0</ele><time>2026-03-26T10:01:56Z</time></trkpt><trkpt lat="39.04265982035999" lon="8.834651917769778"><ele>879.0</ele><time>2026-03-26T10:01:57Z</time></trkpt><trkpt lat="39.042591472618845" lon="8.834640088229955"><ele>879.0</ele><time>2026-03-26T10:01:58Z</time></trkpt><trkpt lat="39.042522379609515" lon="8.834626902640608"><ele>879.0</ele><time>2026-03-26T10:01:59Z</time></trkpt><trkpt lat="39.042453366682544" lon="8.834610908373394"><ele>879.0</ele><time>2026-03-26T10:02:00Z</time></trkpt><trkpt lat="39.04238928718201" lon="8.83459332024624"><ele>879.0</ele><time>2026-03-26T10:02:01Z</time></trkpt><trkpt lat="39.042267065516185" lon="8.834556911119616"><ele>879.0</ele><time>2026-03-26T10:02:03Z</time></trkpt><trkpt lat="39.042199381414484" lon="8.834535248643155"><ele>879.0000000000001</ele><time>2026-03-26T10:02:04Z</time></trkpt><trkpt lat="39.04209268604573" lon="8.834494847008505"><ele>879.0000000000001</ele><time>2026-03-26T10:02:06Z</time></trkpt><trkpt lat="39.041989926224474" lon="8.834431359169301"><ele>879.0</ele><time>2026-03-26T10:02:08Z</time></trkpt><trkpt lat="39.04189325159347" lon="8.83434063374724"><ele>879.0</ele><time>2026-03-26T10:02:10Z</time></trkpt><trkpt lat="39.04180720418763" lon="8.834238965875915"><ele>878.8333333333334</ele><time>2026-03-26T10:02:12Z</time></trkpt><trkpt lat="39.0417227111542" lon="8.834124548873568"><ele>878.6666666666667</ele><time>2026-03-26T10:02:14Z</time></trkpt><trkpt lat="39.041673706723515" lon="8.834056913935115"><ele>878.5</ele><time>2026-03-26T10:02:15Z</time></trkpt><trkpt lat="39.04162212527043" lon="8.833985550701884"><ele>878.3333333333334</ele><time>2026-03-26T10:02:16Z</time></trkpt><trkpt lat="39.041575187923634" lon="8.833917001762039"><ele>878.1666666666667</ele><time>2026-03-26T10:02:17Z</time></trkpt><trkpt lat="39.04152821354523" lon="8.833845411167163"><ele>878.0</ele><time>2026-03-26T10:02:18Z</time></trkpt><trkpt lat="39.041482856488905" lon="8.833772178544082"><ele>878.0</ele><time>2026-03-26T10:02:19Z</time></trkpt><trkpt lat="39.041435712847196" lon="8.833696060406739"><ele>878.0</ele><time>2026-03-26T10:02:20Z</time></trkpt><trkpt lat="39.04139799035304" lon="8.833621324820296"><ele>878.0</ele><time>2026-03-26T10:02:21Z</time></trkpt><trkpt lat="39.041356764822446" lon="8.833545821872368"><ele>878.0</ele><time>2026-03-26T10:02:22Z</time></trkpt><trkpt lat="39.04131463086805" lon="8.833470474008198"><ele>878.0</ele><time>2026-03-26T10:02:23Z</time></trkpt><trkpt lat="39.04127525161768" lon="8.833402419142189"><ele>878.0</ele><time>2026-03-26T10:02:24Z</time></trkpt><trkpt lat="39.0412233355613" lon="8.833341955394216"><ele>878.0</ele><time>2026-03-26T10:02:25Z</time></trkpt><trkpt lat="39.04118494985302" lon="8.83326679910309"><ele>879.3333333333334</ele><time>2026-03-26T10:02:26Z</time></trkpt><trkpt lat="39.041137223000455" lon="8.833196456526606"><ele>880.6666666666667</ele><time>2026-03-26T10:02:27Z</time></trkpt><trkpt lat="39.04109513226707" lon="8.833131933461916"><ele>882.0</ele><time>2026-03-26T10:02:28Z</time></trkpt><trkpt lat="39.041007730695334" lon="8.833040201136068"><ele>883.3333333333333</ele><time>2026-03-26T10:02:30Z</time></trkpt><trkpt lat="39.04094961121773" lon="8.833004282673134"><ele>884.6666666666666</ele><time>2026-03-26T10:02:31Z</time></trkpt><trkpt lat="39.0408942028059" lon="8.83293764972385"><ele>886.0</ele><time>2026-03-26T10:02:32Z</time></trkpt><trkpt lat="39.0408405541422" lon="8.832882494488114"><ele>885.4999999999999</ele><time>2026-03-26T10:02:33Z</time></trkpt><trkpt lat="39.04077606779129" lon="8.832816197016196"><ele>885.0</ele><time>2026-03-26T10:02:34Z</time></trkpt><trkpt lat="39.04070673375102" lon="8.832744915912592"><ele>884.5</ele><time>2026-03-26T10:02:35Z</time></trkpt><trkpt lat="39.04064938618765" lon="8.83268630927272"><ele>884.0</ele><time>2026-03-26T10:02:36Z</time></trkpt><trkpt lat="39.04054676131807" lon="8.832581885622846"><ele>883.4999999999999</ele><time>2026-03-26T10:02:38Z</time></trkpt><trkpt lat="39.040490488723485" lon="8.832524626596218"><ele>883.0</ele><time>2026-03-26T10:02:39Z</time></trkpt><trkpt lat="39.04043559568225" lon="8.832468771346655"><ele>884.9999999999999</ele><time>2026-03-26T10:02:40Z</time></trkpt><trkpt lat="39.04038008408231" lon="8.832412286706997"><ele>887.0</ele><time>2026-03-26T10:02:41Z</time></trkpt><trkpt lat="39.040326629091645" lon="8.832358712951173"><ele>889.0</ele><time>2026-03-26T10:02:42Z</time></trkpt><trkpt lat="39.04026582962151" lon="8.832303998231716"><ele>891.0</ele><time>2026-03-26T10:02:43Z</time></trkpt><trkpt lat="39.040208981008476" lon="8.832253721691886"><ele>892.9999999999999</ele><time>2026-03-26T10:02:44Z</time></trkpt><trkpt lat="39.04013337996666" lon="8.83217009721312"><ele>895.0</ele><time>2026-03-26T10:02:46Z</time></trkpt><trkpt lat="39.0400913483812" lon="8.832032345793063"><ele>895.0</ele><time>2026-03-26T10:02:48Z</time></trkpt><trkpt lat="39.040090528995165" lon="8.831951166382465"><ele>895.0</ele><time>2026-03-26T10:02:49Z</time></trkpt><trkpt lat="39.040085476614976" lon="8.831853523362994"><ele>895.0</ele><time>2026-03-26T10:02:50Z</time></trkpt><trkpt lat="39.04010774272887" lon="8.831707223410781"><ele>895.0</ele><time>2026-03-26T10:02:52Z</time></trkpt><trkpt lat="39.04011765387661" lon="8.831557275210098"><ele>895.0</ele><time>2026-03-26T10:02:54Z</time></trkpt><trkpt lat="39.039828335823636" lon="8.831374817905768"><ele>895.0</ele><time>2026-03-26T10:02:56Z</time></trkpt><trkpt lat="39.03979344763404" lon="8.831259623437584"><ele>895.0</ele><time>2026-03-26T10:02:58Z</time></trkpt><trkpt lat="39.03983378297045" lon="8.831174990126739"><ele>895.0</ele><time>2026-03-26T10:03:00Z</time></trkpt><trkpt lat="39.03993755582477" lon="8.831149823261233"><ele>895.0</ele><time>2026-03-26T10:03:02Z</time></trkpt><trkpt lat="39.04001177000287" lon="8.831087701377161"><ele>895.0</ele><time>2026-03-26T10:03:04Z</time></trkpt><trkpt lat="39.040025850690746" lon="8.830978968238446"><ele>893.3333333333333</ele><time>2026-03-26T10:03:06Z</time></trkpt><trkpt lat="39.04000033942359" lon="8.830854018181254"><ele>891.6666666666666</ele><time>2026-03-26T10:03:08Z</time></trkpt><trkpt lat="39.03997608244361" lon="8.830717801263821"><ele>890.0</ele><time>2026-03-26T10:03:10Z</time></trkpt><trkpt lat="39.03994500993399" lon="8.83062714872172"><ele>888.3333333333333</ele><time>2026-03-26T10:03:11Z</time></trkpt><trkpt lat="39.03992401152669" lon="8.830540064788323"><ele>886.6666666666666</ele><time>2026-03-26T10:03:12Z</time></trkpt><trkpt lat="39.0399112966003" lon="8.830449400467945"><ele>885.0</ele><time>2026-03-26T10:03:13Z</time></trkpt><trkpt lat="39.03990369205739" lon="8.830358370015848"><ele>884.7142857142857</ele><time>2026-03-26T10:03:14Z</time></trkpt><trkpt lat="39.03989886119722" lon="8.830264234947858"><ele>884.4285714285713</ele><time>2026-03-26T10:03:15Z</time></trkpt><trkpt lat="39.03989355141452" lon="8.830180759346513"><ele>884.1428571428571</ele><time>2026-03-26T10:03:16Z</time></trkpt><trkpt lat="39.03990104958098" lon="8.830092547229174"><ele>883.8571428571429</ele><time>2026-03-26T10:03:17Z</time></trkpt><trkpt lat="39.03990640938074" lon="8.830004341912309"><ele>883.5714285714286</ele><time>2026-03-26T10:03:18Z</time></trkpt><trkpt lat="39.03990505256147" lon="8.82991437404726"><ele>883.2857142857143</ele><time>2026-03-26T10:03:19Z</time></trkpt><trkpt lat="39.039902330173824" lon="8.829825842700862"><ele>883.0</ele><time>2026-03-26T10:03:20Z</time></trkpt><trkpt lat="39.03990090039606" lon="8.82973422740099"><ele>880.6666666666666</ele><time>2026-03-26T10:03:21Z</time></trkpt><trkpt lat="39.0399008539605" lon="8.829643204481018"><ele>878.3333333333333</ele><time>2026-03-26T10:03:22Z</time></trkpt><trkpt lat="39.039898810000444" lon="8.829554527783838"><ele>876.0</ele><time>2026-03-26T10:03:23Z</time></trkpt><trkpt lat="39.03991546512375" lon="8.829408436168974"><ele>873.6666666666667</ele><time>2026-03-26T10:03:25Z</time></trkpt><trkpt lat="39.03991162027207" lon="8.829277827077318"><ele>871.3333333333334</ele><time>2026-03-26T10:03:27Z</time></trkpt><trkpt lat="39.039891981846374" lon="8.829198845963077"><ele>869.0</ele><time>2026-03-26T10:03:28Z</time></trkpt><trkpt lat="39.039860497882486" lon="8.829110694155137"><ele>865.0</ele><time>2026-03-26T10:03:29Z</time></trkpt><trkpt lat="39.03983113579729" lon="8.82902732061507"><ele>861.0000000000001</ele><time>2026-03-26T10:03:30Z</time></trkpt><trkpt lat="39.039805010424004" lon="8.828952026770462"><ele>857.0</ele><time>2026-03-26T10:03:31Z</time></trkpt><trkpt lat="39.03976023766754" lon="8.828816955732677"><ele>853.0</ele><time>2026-03-26T10:03:33Z</time></trkpt><trkpt lat="39.03973389388699" lon="8.828659732860162"><ele>849.0</ele><time>2026-03-26T10:03:35Z</time></trkpt><trkpt lat="39.03974424459037" lon="8.828553046261822"><ele>848.8333333333334</ele><time>2026-03-26T10:03:36Z</time></trkpt><trkpt lat="39.039760587591886" lon="8.828461516308158"><ele>848.6666666666667</ele><time>2026-03-26T10:03:37Z</time></trkpt><trkpt lat="39.039785983890866" lon="8.82838348446662"><ele>848.5</ele><time>2026-03-26T10:03:38Z</time></trkpt><trkpt lat="39.039815742625564" lon="8.828308552202863"><ele>848.3333333333334</ele><time>2026-03-26T10:03:39Z</time></trkpt><trkpt lat="39.03987532550141" lon="8.828189931540921"><ele>848.1666666666667</ele><time>2026-03-26T10:03:41Z</time></trkpt><trkpt lat="39.039968579194394" lon="8.82809699774841"><ele>848.0</ele><time>2026-03-26T10:03:43Z</time></trkpt><trkpt lat="39.040032665130695" lon="8.828057265670317"><ele>848.0</ele><time>2026-03-26T10:03:44Z</time></trkpt><trkpt lat="39.0401036620829" lon="8.82801818998195"><ele>848.0</ele><time>2026-03-26T10:03:45Z</time></trkpt><trkpt lat="39.040174619394115" lon="8.827974895180052"><ele>848.0</ele><time>2026-03-26T10:03:46Z</time></trkpt><trkpt lat="39.04023458827729" lon="8.827927523619309"><ele>848.0</ele><time>2026-03-26T10:03:47Z</time></trkpt><trkpt lat="39.04029018476765" lon="8.82787207595667"><ele>848.0</ele><time>2026-03-26T10:03:48Z</time></trkpt><trkpt lat="39.04034986708063" lon="8.827836403292746"><ele>848.0</ele><time>2026-03-26T10:03:49Z</time></trkpt><trkpt lat="39.040414399364586" lon="8.827809449154799"><ele>848.0</ele><time>2026-03-26T10:03:50Z</time></trkpt><trkpt lat="39.04048506010322" lon="8.827785993665376"><ele>848.0</ele><time>2026-03-26T10:03:51Z</time></trkpt><trkpt lat="39.04059595452005" lon="8.82775980632411"><ele>848.0</ele><time>2026-03-26T10:03:53Z</time></trkpt><trkpt lat="39.040665197254135" lon="8.827684532174406"><ele>848.0</ele><time>2026-03-26T10:03:55Z</time></trkpt><trkpt lat="39.04064270923263" lon="8.827550703273335"><ele>848.0</ele><time>2026-03-26T10:03:57Z</time></trkpt><trkpt lat="39.040574471487226" lon="8.827454134528091"><ele>848.0</ele><time>2026-03-26T10:03:59Z</time></trkpt><trkpt lat="39.040537084547765" lon="8.827364415604821"><ele>844.8333333333334</ele><time>2026-03-26T10:04:01Z</time></trkpt><trkpt lat="39.04047102572913" lon="8.82735109534404"><ele>841.6666666666667</ele><time>2026-03-26T10:04:03Z</time></trkpt><trkpt lat="39.04042041559421" lon="8.827407629059104"><ele>838.5</ele><time>2026-03-26T10:04:05Z</time></trkpt><trkpt lat="39.0403618282723" lon="8.827486962307857"><ele>835.3333333333333</ele><time>2026-03-26T10:04:08Z</time></trkpt><trkpt lat="39.04029588690584" lon="8.827500646381813"><ele>832.1666666666666</ele><time>2026-03-26T10:04:09Z</time></trkpt><trkpt lat="39.040214440168214" lon="8.827457051484688"><ele>829.0</ele><time>2026-03-26T10:04:11Z</time></trkpt><trkpt lat="39.04010114609294" lon="8.827383708339418"><ele>829.0</ele><time>2026-03-26T10:04:13Z</time></trkpt><trkpt lat="39.0400311562197" lon="8.827337503845687"><ele>829.0</ele><time>2026-03-26T10:04:14Z</time></trkpt><trkpt lat="39.039905529379375" lon="8.827299303953616"><ele>829.0</ele><time>2026-03-26T10:04:16Z</time></trkpt><trkpt lat="39.03983247058353" lon="8.827307266598938"><ele>829.0</ele><time>2026-03-26T10:04:17Z</time></trkpt><trkpt lat="39.0397169797134" lon="8.827329756257523"><ele>829.0</ele><time>2026-03-26T10:04:19Z</time></trkpt><trkpt lat="39.039604016157156" lon="8.827365191594128"><ele>825.8333333333333</ele><time>2026-03-26T10:04:21Z</time></trkpt><trkpt lat="39.03954858263704" lon="8.827409737206738"><ele>822.6666666666666</ele><time>2026-03-26T10:04:22Z</time></trkpt><trkpt lat="39.03945058526111" lon="8.827345542940838"><ele>819.5</ele><time>2026-03-26T10:04:23Z</time></trkpt><trkpt lat="39.03940191611576" lon="8.827398963827942"><ele>816.3333333333333</ele><time>2026-03-26T10:04:25Z</time></trkpt><trkpt lat="39.03935368383761" lon="8.827468743209657"><ele>813.1666666666666</ele><time>2026-03-26T10:04:28Z</time></trkpt><trkpt lat="39.03943688729038" lon="8.827353691539521"><ele>810.0</ele><time>2026-03-26T10:06:36.999Z</time></trkpt><trkpt lat="39.039504594165905" lon="8.827312485359332"><ele>810.0</ele><time>2026-03-26T10:06:37.999Z</time></trkpt><trkpt lat="39.039566603630355" lon="8.827282349572084"><ele>810.0</ele><time>2026-03-26T10:06:38.999Z</time></trkpt><trkpt lat="39.0396148956302" lon="8.827225153622086"><ele>810.0</ele><time>2026-03-26T10:06:39.999Z</time></trkpt><trkpt lat="39.039667559483604" lon="8.827163201886952"><ele>810.0</ele><time>2026-03-26T10:06:40.999Z</time></trkpt><trkpt lat="39.039746650194374" lon="8.827062134009292"><ele>810.0</ele><time>2026-03-26T10:06:42.999Z</time></trkpt><trkpt lat="39.039772360392014" lon="8.826936169949423"><ele>810.0</ele><time>2026-03-26T10:06:44.999Z</time></trkpt><trkpt lat="39.039688710019874" lon="8.826816519969"><ele>811.0</ele><time>2026-03-26T10:06:46.999Z</time></trkpt><trkpt lat="39.039602087169925" lon="8.826805035081167"><ele>812.0</ele><time>2026-03-26T10:06:47.999Z</time></trkpt><trkpt lat="39.03950241217627" lon="8.82679134793807"><ele>813.0</ele><time>2026-03-26T10:06:48.999Z</time></trkpt><trkpt lat="39.039379021846436" lon="8.82676132513496"><ele>814.0</ele><time>2026-03-26T10:06:49.999Z</time></trkpt><trkpt lat="39.039254858189956" lon="8.826735152951102"><ele>815.0</ele><time>2026-03-26T10:06:50.999Z</time></trkpt><trkpt lat="39.03913154954572" lon="8.826708204254865"><ele>812.2</ele><time>2026-03-26T10:06:51.999Z</time></trkpt><trkpt lat="39.03900544395051" lon="8.826673508825948"><ele>809.4</ele><time>2026-03-26T10:06:52.999Z</time></trkpt><trkpt lat="39.03889677240466" lon="8.82663087816798"><ele>806.5999999999999</ele><time>2026-03-26T10:06:53.999Z</time></trkpt><trkpt lat="39.03880180288696" lon="8.826580899584512"><ele>803.8</ele><time>2026-03-26T10:06:54.999Z</time></trkpt><trkpt lat="39.03871109427268" lon="8.826526404807467"><ele>801.0</ele><time>2026-03-26T10:06:55.999Z</time></trkpt><trkpt lat="39.038630681826405" lon="8.826472487696124"><ele>801.0</ele><time>2026-03-26T10:06:56.999Z</time></trkpt><trkpt lat="39.038553144392154" lon="8.826411971359695"><ele>801.0</ele><time>2026-03-26T10:06:57.999Z</time></trkpt><trkpt lat="39.03849563891088" lon="8.826348194960573"><ele>801.0</ele><time>2026-03-26T10:06:58.999Z</time></trkpt><trkpt lat="39.03844031769956" lon="8.826276088972575"><ele>801.0</ele><time>2026-03-26T10:06:59.999Z</time></trkpt><trkpt lat="39.038399293487615" lon="8.826190114099584"><ele>801.0</ele><time>2026-03-26T10:07:00.999Z</time></trkpt><trkpt lat="39.03835063169949" lon="8.826095040750896"><ele>801.0</ele><time>2026-03-26T10:07:01.999Z</time></trkpt><trkpt lat="39.038298148004" lon="8.826005242510972"><ele>801.1999999999999</ele><time>2026-03-26T10:07:02.999Z</time></trkpt><trkpt lat="39.03823918023697" lon="8.82591202368585"><ele>801.4</ele><time>2026-03-26T10:07:03.999Z</time></trkpt><trkpt lat="39.038166940627754" lon="8.825825021038668"><ele>801.6</ele><time>2026-03-26T10:07:04.999Z</time></trkpt><trkpt lat="39.03807678134454" lon="8.825743074823984"><ele>801.8</ele><time>2026-03-26T10:07:05.999Z</time></trkpt><trkpt lat="39.037960564870325" lon="8.825671523916267"><ele>802.0</ele><time>2026-03-26T10:07:06.999Z</time></trkpt><trkpt lat="39.03786004723697" lon="8.825570879707799"><ele>802.0</ele><time>2026-03-26T10:07:07.999Z</time></trkpt><trkpt lat="39.03775957461223" lon="8.825476978351924"><ele>802.0</ele><time>2026-03-26T10:07:08.999Z</time></trkpt><trkpt lat="39.03768772336228" lon="8.825369595440105"><ele>802.0</ele><time>2026-03-26T10:07:09.999Z</time></trkpt><trkpt lat="39.03761266064644" lon="8.825277688840638"><ele>802.0</ele><time>2026-03-26T10:07:10.999Z</time></trkpt><trkpt lat="39.037534463402956" lon="8.825181849729864"><ele>802.0</ele><time>2026-03-26T10:07:11.999Z</time></trkpt><trkpt lat="39.03745245475789" lon="8.82507984709252"><ele>803.0</ele><time>2026-03-26T10:07:12.999Z</time></trkpt><trkpt lat="39.037383043555074" lon="8.824991283328554"><ele>804.0</ele><time>2026-03-26T10:07:13.999Z</time></trkpt><trkpt lat="39.037305272474306" lon="8.824920095330938"><ele>805.0</ele><time>2026-03-26T10:07:14.999Z</time></trkpt><trkpt lat="39.0372560165308" lon="8.824823673093338"><ele>806.0</ele><time>2026-03-26T10:07:15.999Z</time></trkpt><trkpt lat="39.0371969350896" lon="8.824739931881584"><ele>807.0</ele><time>2026-03-26T10:07:16.999Z</time></trkpt><trkpt lat="39.0371447923705" lon="8.82466289079295"><ele>807.0</ele><time>2026-03-26T10:07:17.999Z</time></trkpt><trkpt lat="39.03708147885305" lon="8.824601094005034"><ele>807.0</ele><time>2026-03-26T10:07:18.999Z</time></trkpt><trkpt lat="39.03704770226061" lon="8.824520795922018"><ele>807.0</ele><time>2026-03-26T10:07:19.999Z</time></trkpt><trkpt lat="39.03700536764137" lon="8.82446034979283"><ele>807.0</ele><time>2026-03-26T10:07:20.999Z</time></trkpt><trkpt lat="39.03695222189908" lon="8.824388745276439"><ele>807.0</ele><time>2026-03-26T10:07:21.999Z</time></trkpt><trkpt lat="39.036884733062045" lon="8.824332310971576"><ele>807.0</ele><time>2026-03-26T10:07:22.999Z</time></trkpt><trkpt lat="39.03683195856991" lon="8.824244058705014"><ele>806.1666666666666</ele><time>2026-03-26T10:07:23.999Z</time></trkpt><trkpt lat="39.03676232939873" lon="8.824170459796969"><ele>805.3333333333333</ele><time>2026-03-26T10:07:24.999Z</time></trkpt><trkpt lat="39.0366957006693" lon="8.82410583115524"><ele>804.5</ele><time>2026-03-26T10:07:25.999Z</time></trkpt><trkpt lat="39.0366304019672" lon="8.824047860661132"><ele>803.6666666666666</ele><time>2026-03-26T10:07:26.999Z</time></trkpt><trkpt lat="39.03656470080318" lon="8.823994161443636"><ele>802.8333333333333</ele><time>2026-03-26T10:07:27.999Z</time></trkpt><trkpt lat="39.03649286617448" lon="8.823942009150846"><ele>802.0</ele><time>2026-03-26T10:07:28.999Z</time></trkpt><trkpt lat="39.036412146965276" lon="8.823905678640045"><ele>801.0</ele><time>2026-03-26T10:07:29.999Z</time></trkpt><trkpt lat="39.03634964041764" lon="8.823832255430155"><ele>800.0</ele><time>2026-03-26T10:07:30.999Z</time></trkpt><trkpt lat="39.0362847386828" lon="8.823781128005479"><ele>799.0</ele><time>2026-03-26T10:07:31.999Z</time></trkpt><trkpt lat="39.03622277349919" lon="8.823731929105456"><ele>798.0</ele><time>2026-03-26T10:07:32.999Z</time></trkpt><trkpt lat="39.03617091094552" lon="8.823673717112468"><ele>797.0</ele><time>2026-03-26T10:07:33.999Z</time></trkpt><trkpt lat="39.03611243987935" lon="8.823615246015482"><ele>796.0</ele><time>2026-03-26T10:07:34.999Z</time></trkpt><trkpt lat="39.036055240094576" lon="8.823557809784706"><ele>795.0</ele><time>2026-03-26T10:07:35.999Z</time></trkpt><trkpt lat="39.03598956402045" lon="8.8235123863487"><ele>794.7142857142858</ele><time>2026-03-26T10:07:36.999Z</time></trkpt><trkpt lat="39.03594180834098" lon="8.823454501415785"><ele>794.4285714285714</ele><time>2026-03-26T10:07:37.999Z</time></trkpt><trkpt lat="39.03591082950664" lon="8.823379678106964"><ele>794.1428571428571</ele><time>2026-03-26T10:07:38.999Z</time></trkpt><trkpt lat="39.03586827252274" lon="8.823314940522042"><ele>793.8571428571429</ele><time>2026-03-26T10:07:39.999Z</time></trkpt><trkpt lat="39.03582577066193" lon="8.823250285496249"><ele>793.5714285714286</ele><time>2026-03-26T10:07:40.999Z</time></trkpt><trkpt lat="39.03575986550143" lon="8.823202040832719"><ele>793.2857142857143</ele><time>2026-03-26T10:07:41.999Z</time></trkpt><trkpt lat="39.035680661989275" lon="8.823167142260761"><ele>793.0</ele><time>2026-03-26T10:07:42.999Z</time></trkpt><trkpt lat="39.035604953817696" lon="8.823120934662448"><ele>792.4</ele><time>2026-03-26T10:07:43.999Z</time></trkpt><trkpt lat="39.0355206505875" lon="8.823061343226405"><ele>791.8</ele><time>2026-03-26T10:07:44.999Z</time></trkpt><trkpt lat="39.03543117696648" lon="8.823020289378878"><ele>791.2</ele><time>2026-03-26T10:07:45.999Z</time></trkpt><trkpt lat="39.03534943743285" lon="8.822988901583196"><ele>790.6</ele><time>2026-03-26T10:07:46.999Z</time></trkpt><trkpt lat="39.03524750432666" lon="8.822966329457964"><ele>790.0</ele><time>2026-03-26T10:07:47.999Z</time></trkpt><trkpt lat="39.035137882625364" lon="8.822961769121822"><ele>790.0</ele><time>2026-03-26T10:07:48.999Z</time></trkpt><trkpt lat="39.03504659115694" lon="8.822908083191503"><ele>790.0</ele><time>2026-03-26T10:07:49.999Z</time></trkpt><trkpt lat="39.03496486323638" lon="8.822865054413002"><ele>790.0</ele><time>2026-03-26T10:07:51Z</time></trkpt><trkpt lat="39.03488885746762" lon="8.822812223898485"><ele>790.0</ele><time>2026-03-26T10:07:51.999Z</time></trkpt><trkpt lat="39.034812301927815" lon="8.822745350126922"><ele>790.0</ele><time>2026-03-26T10:07:53Z</time></trkpt><trkpt lat="39.03473361466903" lon="8.8226626257519"><ele>789.8</ele><time>2026-03-26T10:07:54Z</time></trkpt><trkpt lat="39.03464639751991" lon="8.82256985564804"><ele>789.6</ele><time>2026-03-26T10:07:55Z</time></trkpt><trkpt lat="39.03456819974786" lon="8.822494467201437"><ele>789.4000000000001</ele><time>2026-03-26T10:07:56Z</time></trkpt><trkpt lat="39.03449514072957" lon="8.822426564005205"><ele>789.2</ele><time>2026-03-26T10:07:57Z</time></trkpt><trkpt lat="39.03441332733495" lon="8.822355408730472"><ele>789.0</ele><time>2026-03-26T10:07:58Z</time></trkpt><trkpt lat="39.0343355763431" lon="8.822294962991885"><ele>789.0</ele><time>2026-03-26T10:07:59Z</time></trkpt><trkpt lat="39.03424809429138" lon="8.822237686332276"><ele>789.0</ele><time>2026-03-26T10:08:00Z</time></trkpt><trkpt lat="39.03416223607684" lon="8.822183633447374"><ele>789.0</ele><time>2026-03-26T10:08:01Z</time></trkpt><trkpt lat="39.03407020592943" lon="8.822127728818764"><ele>789.0</ele><time>2026-03-26T10:08:02Z</time></trkpt><trkpt lat="39.033978819069176" lon="8.822077017218907"><ele>789.0</ele><time>2026-03-26T10:08:03Z</time></trkpt><trkpt lat="39.03388075178248" lon="8.822054873571481"><ele>789.8000000000001</ele><time>2026-03-26T10:08:04Z</time></trkpt><trkpt lat="39.033782178192304" lon="8.822027492924633"><ele>790.6</ele><time>2026-03-26T10:08:05Z</time></trkpt><trkpt lat="39.03368803761932" lon="8.822014378983992"><ele>791.4</ele><time>2026-03-26T10:08:06Z</time></trkpt><trkpt lat="39.03359521973336" lon="8.82204707938211"><ele>792.2</ele><time>2026-03-26T10:08:07Z</time></trkpt><trkpt lat="39.033503726999676" lon="8.822107295671277"><ele>793.0</ele><time>2026-03-26T10:08:08Z</time></trkpt><trkpt lat="39.03342017062254" lon="8.822172972106943"><ele>793.0</ele><time>2026-03-26T10:08:09Z</time></trkpt><trkpt lat="39.033327797384416" lon="8.822246227346959"><ele>793.0</ele><time>2026-03-26T10:08:09.999Z</time></trkpt><trkpt lat="39.03323378199603" lon="8.822322323811976"><ele>793.0</ele><time>2026-03-26T10:08:10.999Z</time></trkpt><trkpt lat="39.03313550842213" lon="8.822403383075587"><ele>793.0</ele><time>2026-03-26T10:08:11.999Z</time></trkpt><trkpt lat="39.033041615262825" lon="8.822486566623333"><ele>795.0</ele><time>2026-03-26T10:08:12.999Z</time></trkpt><trkpt lat="39.03296320617229" lon="8.822569260360952"><ele>797.0</ele><time>2026-03-26T10:08:13.999Z</time></trkpt><trkpt lat="39.03287593375958" lon="8.822634014207436"><ele>799.0</ele><time>2026-03-26T10:08:14.999Z</time></trkpt><trkpt lat="39.032796936724196" lon="8.822689025843117"><ele>801.0</ele><time>2026-03-26T10:08:15.999Z</time></trkpt><trkpt lat="39.03270393242558" lon="8.822705048572422"><ele>803.0</ele><time>2026-03-26T10:08:16.999Z</time></trkpt><trkpt lat="39.032616023018846" lon="8.822723172141394"><ele>803.0</ele><time>2026-03-26T10:08:17.999Z</time></trkpt><trkpt lat="39.032517309939955" lon="8.822729120636746"><ele>803.0</ele><time>2026-03-26T10:08:18.999Z</time></trkpt><trkpt lat="39.032417680397685" lon="8.822731136809182"><ele>803.0</ele><time>2026-03-26T10:08:19.999Z</time></trkpt><trkpt lat="39.03232813870616" lon="8.822725673982172"><ele>803.0</ele><time>2026-03-26T10:08:20.999Z</time></trkpt><trkpt lat="39.03224735351142" lon="8.822706483609213"><ele>803.0</ele><time>2026-03-26T10:08:21.999Z</time></trkpt><trkpt lat="39.03217099042818" lon="8.822667604656155"><ele>802.5999999999999</ele><time>2026-03-26T10:08:22.999Z</time></trkpt><trkpt lat="39.03210449876595" lon="8.822624495742856"><ele>802.1999999999999</ele><time>2026-03-26T10:08:23.999Z</time></trkpt><trkpt lat="39.03207477560949" lon="8.822456074345531"><ele>801.8</ele><time>2026-03-26T10:08:25.999Z</time></trkpt><trkpt lat="39.032041213033416" lon="8.822339137114954"><ele>801.4</ele><time>2026-03-26T10:08:26.999Z</time></trkpt><trkpt lat="39.03198787408405" lon="8.822241347176444"><ele>801.0</ele><time>2026-03-26T10:08:27.999Z</time></trkpt><trkpt lat="39.03194234575219" lon="8.822130069586963"><ele>801.0</ele><time>2026-03-26T10:08:28.999Z</time></trkpt><trkpt lat="39.0318522440659" lon="8.822067001183221"><ele>801.0</ele><time>2026-03-26T10:08:29.999Z</time></trkpt><trkpt lat="39.0318028881207" lon="8.821978167974525"><ele>801.0</ele><time>2026-03-26T10:08:30.999Z</time></trkpt><trkpt lat="39.0317492759768" lon="8.821903922142662"><ele>801.0</ele><time>2026-03-26T10:08:31.999Z</time></trkpt><trkpt lat="39.03169742581931" lon="8.821807569526758"><ele>801.0</ele><time>2026-03-26T10:08:32.999Z</time></trkpt><trkpt lat="39.03164562518902" lon="8.82169664713267"><ele>797.8</ele><time>2026-03-26T10:08:33.999Z</time></trkpt><trkpt lat="39.03158806664442" lon="8.821587416430717"><ele>794.5999999999999</ele><time>2026-03-26T10:08:34.999Z</time></trkpt><trkpt lat="39.03152807214188" lon="8.821485690244849"><ele>791.4</ele><time>2026-03-26T10:08:35.999Z</time></trkpt><trkpt lat="39.031469724724026" lon="8.821383386081134"><ele>788.2</ele><time>2026-03-26T10:08:36.999Z</time></trkpt><trkpt lat="39.03139601318923" lon="8.821282816091209"><ele>785.0</ele><time>2026-03-26T10:08:37.999Z</time></trkpt><trkpt lat="39.0313616859217" lon="8.821165619618803"><ele>785.0000000000001</ele><time>2026-03-26T10:08:38.999Z</time></trkpt><trkpt lat="39.031300639807576" lon="8.821095621374777"><ele>785.0</ele><time>2026-03-26T10:08:39.999Z</time></trkpt><trkpt lat="39.03126156951741" lon="8.821016064812339"><ele>785.0</ele><time>2026-03-26T10:08:40.999Z</time></trkpt><trkpt lat="39.03117267211005" lon="8.820986013002658"><ele>785.0</ele><time>2026-03-26T10:08:41.999Z</time></trkpt><trkpt lat="39.031089055412764" lon="8.8210176831428"><ele>785.0000000000001</ele><time>2026-03-26T10:08:42.999Z</time></trkpt><trkpt lat="39.03099380044713" lon="8.821019683846279"><ele>785.0</ele><time>2026-03-26T10:08:43.999Z</time></trkpt><trkpt lat="39.03089757113794" lon="8.82104497806024"><ele>785.0</ele><time>2026-03-26T10:08:44.999Z</time></trkpt><trkpt lat="39.03082025176896" lon="8.821049136772515"><ele>785.0</ele><time>2026-03-26T10:08:45.999Z</time></trkpt><trkpt lat="39.030724438783544" lon="8.82100203851506"><ele>785.0</ele><time>2026-03-26T10:08:47.999Z</time></trkpt><trkpt lat="39.03071645514656" lon="8.82083422705352"><ele>785.0</ele><time>2026-03-26T10:08:49.999Z</time></trkpt><trkpt lat="39.03069401991209" lon="8.820740524153978"><ele>785.0</ele><time>2026-03-26T10:08:50.999Z</time></trkpt><trkpt lat="39.03065143495452" lon="8.820607415738262"><ele>786.1666666666667</ele><time>2026-03-26T10:08:52.999Z</time></trkpt><trkpt lat="39.03058766524238" lon="8.820577972851593"><ele>787.3333333333334</ele><time>2026-03-26T10:08:53.999Z</time></trkpt><trkpt lat="39.03051630404405" lon="8.82058124749212"><ele>788.5</ele><time>2026-03-26T10:08:54.999Z</time></trkpt><trkpt lat="39.03044577434634" lon="8.82062654705098"><ele>789.6666666666667</ele><time>2026-03-26T10:08:55.999Z</time></trkpt><trkpt lat="39.03037847170449" lon="8.820705710567598"><ele>790.8333333333334</ele><time>2026-03-26T10:08:56.999Z</time></trkpt><trkpt lat="39.030299415536646" lon="8.820756656625774"><ele>792.0</ele><time>2026-03-26T10:08:57.999Z</time></trkpt><trkpt lat="39.030221559885966" lon="8.82082973437544"><ele>792.0</ele><time>2026-03-26T10:08:58.999Z</time></trkpt><trkpt lat="39.03013551119308" lon="8.820913671393747"><ele>792.0</ele><time>2026-03-26T10:08:59.999Z</time></trkpt><trkpt lat="39.03004440809875" lon="8.821004730872358"><ele>792.0</ele><time>2026-03-26T10:09:00.999Z</time></trkpt><trkpt lat="39.02995501111023" lon="8.821093210836732"><ele>792.0</ele><time>2026-03-26T10:09:01.999Z</time></trkpt><trkpt lat="39.029880647080915" lon="8.821188512835105"><ele>792.0</ele><time>2026-03-26T10:09:02.999Z</time></trkpt><trkpt lat="39.029804704658524" lon="8.821226592983791"><ele>790.0</ele><time>2026-03-26T10:09:03.999Z</time></trkpt><trkpt lat="39.02971703645506" lon="8.821260373656175"><ele>788.0</ele><time>2026-03-26T10:09:05.999Z</time></trkpt><trkpt lat="39.02962339608639" lon="8.82115511430083"><ele>786.0</ele><time>2026-03-26T10:09:07.999Z</time></trkpt><trkpt lat="39.02956436737812" lon="8.82112194481014"><ele>784.0</ele><time>2026-03-26T10:09:08.999Z</time></trkpt><trkpt lat="39.02945379786237" lon="8.821100832776889"><ele>782.0</ele><time>2026-03-26T10:09:10.999Z</time></trkpt><trkpt lat="39.02939980627599" lon="8.821197619363408"><ele>782.0000000000001</ele><time>2026-03-26T10:09:11.999Z</time></trkpt><trkpt lat="39.02938545765661" lon="8.82132422988865"><ele>782.0</ele><time>2026-03-26T10:09:12.999Z</time></trkpt><trkpt lat="39.02936258626107" lon="8.821437869564901"><ele>782.0</ele><time>2026-03-26T10:09:13.999Z</time></trkpt><trkpt lat="39.02931845935881" lon="8.821516890958565"><ele>782.0</ele><time>2026-03-26T10:09:14.999Z</time></trkpt><trkpt lat="39.029278710549185" lon="8.821588078469944"><ele>782.0000000000001</ele><time>2026-03-26T10:09:15.999Z</time></trkpt><trkpt lat="39.02922331294384" lon="8.82163195329071"><ele>782.0</ele><time>2026-03-26T10:09:16.999Z</time></trkpt><trkpt lat="39.029154947894156" lon="8.821657142180836"><ele>782.6</ele><time>2026-03-26T10:09:17.999Z</time></trkpt><trkpt lat="39.02907021806515" lon="8.821657681011722"><ele>783.2</ele><time>2026-03-26T10:09:18.999Z</time></trkpt><trkpt lat="39.02897212250464" lon="8.821657584239244"><ele>783.8</ele><time>2026-03-26T10:09:19.999Z</time></trkpt><trkpt lat="39.02886849502146" lon="8.821661230467525"><ele>784.4</ele><time>2026-03-26T10:09:20.999Z</time></trkpt><trkpt lat="39.02877479611182" lon="8.821674221177796"><ele>785.0</ele><time>2026-03-26T10:09:21.999Z</time></trkpt><trkpt lat="39.028687751616324" lon="8.821701605689599"><ele>785.0</ele><time>2026-03-26T10:09:22.999Z</time></trkpt><trkpt lat="39.02860028121592" lon="8.821747440271992"><ele>785.0</ele><time>2026-03-26T10:09:23.999Z</time></trkpt><trkpt lat="39.02853004002927" lon="8.821841431883023"><ele>785.0</ele><time>2026-03-26T10:09:24.999Z</time></trkpt><trkpt lat="39.02845090774427" lon="8.821944868744646"><ele>785.0</ele><time>2026-03-26T10:09:25.999Z</time></trkpt><trkpt lat="39.02836631235019" lon="8.822042920779394"><ele>785.0</ele><time>2026-03-26T10:09:26.999Z</time></trkpt><trkpt lat="39.02830067758676" lon="8.82213826123724"><ele>783.8</ele><time>2026-03-26T10:09:27.999Z</time></trkpt><trkpt lat="39.02823383237563" lon="8.822214499673471"><ele>782.6</ele><time>2026-03-26T10:09:28.999Z</time></trkpt><trkpt lat="39.028160111847434" lon="8.822285891167072"><ele>781.4000000000001</ele><time>2026-03-26T10:09:29.999Z</time></trkpt><trkpt lat="39.02807186674066" lon="8.822353640999394"><ele>780.2</ele><time>2026-03-26T10:09:30.999Z</time></trkpt><trkpt lat="39.02796824061939" lon="8.822417754097815"><ele>779.0</ele><time>2026-03-26T10:09:31.999Z</time></trkpt><trkpt lat="39.027857621676745" lon="8.82250152132958"><ele>779.0</ele><time>2026-03-26T10:09:32.999Z</time></trkpt><trkpt lat="39.02775270393614" lon="8.822599697888116"><ele>779.0</ele><time>2026-03-26T10:09:33.999Z</time></trkpt><trkpt lat="39.02765628245821" lon="8.822692648055048"><ele>779.0</ele><time>2026-03-26T10:09:34.999Z</time></trkpt><trkpt lat="39.02756759756412" lon="8.822778999136052"><ele>779.0</ele><time>2026-03-26T10:09:35.999Z</time></trkpt><trkpt lat="39.02747725780675" lon="8.822865150188548"><ele>776.8000000000001</ele><time>2026-03-26T10:09:36.999Z</time></trkpt><trkpt lat="39.027386910996825" lon="8.822961099692913"><ele>774.6</ele><time>2026-03-26T10:09:37.999Z</time></trkpt><trkpt lat="39.02729613734766" lon="8.823028377132742"><ele>772.4</ele><time>2026-03-26T10:09:38.999Z</time></trkpt><trkpt lat="39.02721428154984" lon="8.823097818242758"><ele>770.2</ele><time>2026-03-26T10:09:39.999Z</time></trkpt><trkpt lat="39.02713437765004" lon="8.823140945059711"><ele>768.0</ele><time>2026-03-26T10:09:40.999Z</time></trkpt><trkpt lat="39.02706460355676" lon="8.823192467794835"><ele>768.0</ele><time>2026-03-26T10:09:41.999Z</time></trkpt><trkpt lat="39.026979260889576" lon="8.823255486654357"><ele>768.0</ele><time>2026-03-26T10:09:42.999Z</time></trkpt><trkpt lat="39.026880275133614" lon="8.823326108995232"><ele>768.0</ele><time>2026-03-26T10:09:43.999Z</time></trkpt><trkpt lat="39.02679279048672" lon="8.823386263838092"><ele>768.0</ele><time>2026-03-26T10:09:44.999Z</time></trkpt><trkpt lat="39.026725589300135" lon="8.823424558427126"><ele>768.0</ele><time>2026-03-26T10:09:45.999Z</time></trkpt><trkpt lat="39.0266133118171" lon="8.823454392162997"><ele>766.8</ele><time>2026-03-26T10:09:47.999Z</time></trkpt><trkpt lat="39.02648656799426" lon="8.823425104847308"><ele>765.5999999999999</ele><time>2026-03-26T10:09:49.999Z</time></trkpt><trkpt lat="39.02644556407744" lon="8.823351398384638"><ele>764.4000000000001</ele><time>2026-03-26T10:09:50.999Z</time></trkpt><trkpt lat="39.02643367020597" lon="8.823242281046857"><ele>763.2</ele><time>2026-03-26T10:09:51.999Z</time></trkpt><trkpt lat="39.02640117829381" lon="8.823115027656085"><ele>762.0</ele><time>2026-03-26T10:09:52.999Z</time></trkpt><trkpt lat="39.026356335762" lon="8.822974715557907"><ele>762.0</ele><time>2026-03-26T10:09:53.999Z</time></trkpt><trkpt lat="39.0263184909095" lon="8.822826177354232"><ele>762.0</ele><time>2026-03-26T10:09:54.999Z</time></trkpt><trkpt lat="39.02626992962548" lon="8.822692343752067"><ele>762.0</ele><time>2026-03-26T10:09:56Z</time></trkpt><trkpt lat="39.026239199761136" lon="8.822564168540309"><ele>762.0</ele><time>2026-03-26T10:09:57Z</time></trkpt><trkpt lat="39.02623859911936" lon="8.822443122240086"><ele>762.0</ele><time>2026-03-26T10:09:58Z</time></trkpt><trkpt lat="39.02622960373024" lon="8.822313903938987"><ele>761.5</ele><time>2026-03-26T10:09:59Z</time></trkpt><trkpt lat="39.02622286106277" lon="8.822182735931152"><ele>761.0</ele><time>2026-03-26T10:10:00Z</time></trkpt><trkpt lat="39.026218743253025" lon="8.82203480548917"><ele>760.5</ele><time>2026-03-26T10:10:01Z</time></trkpt><trkpt lat="39.0261950188067" lon="8.821882393152727"><ele>760.0</ele><time>2026-03-26T10:10:02Z</time></trkpt><trkpt lat="39.026197287774295" lon="8.821721778760374"><ele>759.25</ele><time>2026-03-26T10:10:03Z</time></trkpt><trkpt lat="39.026186037011456" lon="8.82157167307333"><ele>758.5</ele><time>2026-03-26T10:10:04Z</time></trkpt><trkpt lat="39.026179287314065" lon="8.821427803417325"><ele>757.75</ele><time>2026-03-26T10:10:05Z</time></trkpt><trkpt lat="39.026177762283695" lon="8.821285720365106"><ele>757.0</ele><time>2026-03-26T10:10:06Z</time></trkpt><trkpt lat="39.02618153787409" lon="8.821140676659873"><ele>757.0</ele><time>2026-03-26T10:10:07Z</time></trkpt><trkpt lat="39.026188178968496" lon="8.820989520623934"><ele>757.0</ele><time>2026-03-26T10:10:08Z</time></trkpt><trkpt lat="39.02618929274022" lon="8.820856375050171"><ele>757.0</ele><time>2026-03-26T10:10:09Z</time></trkpt><trkpt lat="39.026172127116816" lon="8.820747092883158"><ele>757.0</ele><time>2026-03-26T10:10:10Z</time></trkpt><trkpt lat="39.026164656851215" lon="8.820644459856602"><ele>757.0</ele><time>2026-03-26T10:10:11Z</time></trkpt><trkpt lat="39.02613711191506" lon="8.820539625812339"><ele>755.6</ele><time>2026-03-26T10:10:12Z</time></trkpt><trkpt lat="39.02608776863262" lon="8.82042416406771"><ele>754.2</ele><time>2026-03-26T10:10:13Z</time></trkpt><trkpt lat="39.0260209270574" lon="8.820302435319485"><ele>752.8</ele><time>2026-03-26T10:10:14Z</time></trkpt><trkpt lat="39.025975783027846" lon="8.820178038718971"><ele>751.4</ele><time>2026-03-26T10:10:15Z</time></trkpt><trkpt lat="39.02594707178659" lon="8.820064637519387"><ele>750.0</ele><time>2026-03-26T10:10:16Z</time></trkpt><trkpt lat="39.02592358115425" lon="8.819956730000163"><ele>749.4</ele><time>2026-03-26T10:10:17Z</time></trkpt><trkpt lat="39.02590968087799" lon="8.819858341292779"><ele>748.8</ele><time>2026-03-26T10:10:18Z</time></trkpt><trkpt lat="39.02590407559563" lon="8.819760045465516"><ele>748.2</ele><time>2026-03-26T10:10:19Z</time></trkpt><trkpt lat="39.02589963939099" lon="8.819630332204902"><ele>747.6</ele><time>2026-03-26T10:10:20Z</time></trkpt><trkpt lat="39.025905831465145" lon="8.819481336611089"><ele>747.0</ele><time>2026-03-26T10:10:21Z</time></trkpt><trkpt lat="39.02590554016734" lon="8.819324670790587"><ele>747.2</ele><time>2026-03-26T10:10:22Z</time></trkpt><trkpt lat="39.02592544383695" lon="8.819185192426449"><ele>747.4000000000001</ele><time>2026-03-26T10:10:23Z</time></trkpt><trkpt lat="39.02595096445772" lon="8.819060741237049"><ele>747.5999999999999</ele><time>2026-03-26T10:10:24Z</time></trkpt><trkpt lat="39.02596973968281" lon="8.81893658548127"><ele>747.8</ele><time>2026-03-26T10:10:25Z</time></trkpt><trkpt lat="39.02599400882536" lon="8.818828968555442"><ele>748.0</ele><time>2026-03-26T10:10:26Z</time></trkpt><trkpt lat="39.02600520805424" lon="8.818719233574832"><ele>748.0</ele><time>2026-03-26T10:10:27Z</time></trkpt><trkpt lat="39.026002665131045" lon="8.818610216140042"><ele>748.0</ele><time>2026-03-26T10:10:28Z</time></trkpt><trkpt lat="39.02601615248484" lon="8.818514379544533"><ele>748.0</ele><time>2026-03-26T10:10:29Z</time></trkpt><trkpt lat="39.026008493727254" lon="8.818411442468355"><ele>748.0</ele><time>2026-03-26T10:10:30Z</time></trkpt><trkpt lat="39.025988127226924" lon="8.818322350075873"><ele>748.0</ele><time>2026-03-26T10:10:30.999Z</time></trkpt><trkpt lat="39.02596448539601" lon="8.818243231968982"><ele>748.0</ele><time>2026-03-26T10:10:31.999Z</time></trkpt><trkpt lat="39.02593343753985" lon="8.818151756413458"><ele>747.2</ele><time>2026-03-26T10:10:32.999Z</time></trkpt><trkpt lat="39.02589528295964" lon="8.818050432218195"><ele>746.4</ele><time>2026-03-26T10:10:33.999Z</time></trkpt><trkpt lat="39.025857677315436" lon="8.817940763402484"><ele>745.6</ele><time>2026-03-26T10:10:34.999Z</time></trkpt><trkpt lat="39.02582348678209" lon="8.817830712373889"><ele>744.8000000000001</ele><time>2026-03-26T10:10:35.999Z</time></trkpt><trkpt lat="39.02581606206657" lon="8.817716909903462"><ele>744.0</ele><time>2026-03-26T10:10:36.999Z</time></trkpt><trkpt lat="39.02580607726453" lon="8.817601893053968"><ele>742.8000000000001</ele><time>2026-03-26T10:10:37.999Z</time></trkpt><trkpt lat="39.025782779737156" lon="8.817477044556917"><ele>741.6</ele><time>2026-03-26T10:10:38.999Z</time></trkpt><trkpt lat="39.025746473675156" lon="8.81733994540423"><ele>740.4</ele><time>2026-03-26T10:10:39.999Z</time></trkpt><trkpt lat="39.02569540001305" lon="8.817213089019578"><ele>739.2</ele><time>2026-03-26T10:10:40.999Z</time></trkpt><trkpt lat="39.02561865940467" lon="8.817106614296865"><ele>738.0</ele><time>2026-03-26T10:10:41.999Z</time></trkpt><trkpt lat="39.02553188342776" lon="8.816995632412599"><ele>738.0</ele><time>2026-03-26T10:10:42.999Z</time></trkpt><trkpt lat="39.02543527371634" lon="8.816894452228015"><ele>738.0</ele><time>2026-03-26T10:10:43.999Z</time></trkpt><trkpt lat="39.02536082628499" lon="8.816810915330102"><ele>738.0</ele><time>2026-03-26T10:10:44.999Z</time></trkpt><trkpt lat="39.025302381298395" lon="8.816735814475837"><ele>738.0</ele><time>2026-03-26T10:10:45.999Z</time></trkpt><trkpt lat="39.02524575588717" lon="8.816654342278849"><ele>738.0</ele><time>2026-03-26T10:10:46.999Z</time></trkpt><trkpt lat="39.02520496391398" lon="8.816543836204714"><ele>737.4</ele><time>2026-03-26T10:10:47.999Z</time></trkpt><trkpt lat="39.02515046525631" lon="8.816440384745587"><ele>736.8</ele><time>2026-03-26T10:10:48.999Z</time></trkpt><trkpt lat="39.02507729008989" lon="8.816349745192486"><ele>736.2</ele><time>2026-03-26T10:10:49.999Z</time></trkpt><trkpt lat="39.025006035974286" lon="8.816253813578601"><ele>735.6</ele><time>2026-03-26T10:10:50.999Z</time></trkpt><trkpt lat="39.02493325005564" lon="8.816157905476492"><ele>735.0</ele><time>2026-03-26T10:10:51.999Z</time></trkpt><trkpt lat="39.02486365007432" lon="8.81606167963793"><ele>734.2</ele><time>2026-03-26T10:10:52.999Z</time></trkpt><trkpt lat="39.024796407853735" lon="8.815970362800444"><ele>733.4</ele><time>2026-03-26T10:10:53.999Z</time></trkpt><trkpt lat="39.02472830413146" lon="8.81588965854921"><ele>732.5999999999999</ele><time>2026-03-26T10:10:54.999Z</time></trkpt><trkpt lat="39.0246608375999" lon="8.815818620144677"><ele>731.8</ele><time>2026-03-26T10:10:55.999Z</time></trkpt><trkpt lat="39.02457904371404" lon="8.815768366637796"><ele>731.0</ele><time>2026-03-26T10:10:56.999Z</time></trkpt><trkpt lat="39.02447925150379" lon="8.81574626446766"><ele>731.0</ele><time>2026-03-26T10:10:57.999Z</time></trkpt><trkpt lat="39.024367759970055" lon="8.815739979258138"><ele>731.0</ele><time>2026-03-26T10:10:58.999Z</time></trkpt><trkpt lat="39.02426776536026" lon="8.815735261767482"><ele>731.0</ele><time>2026-03-26T10:10:59.999Z</time></trkpt><trkpt lat="39.02417700433778" lon="8.81569657749036"><ele>731.0</ele><time>2026-03-26T10:11:00.999Z</time></trkpt><trkpt lat="39.02408349981591" lon="8.815659898207489"><ele>731.0</ele><time>2026-03-26T10:11:01.999Z</time></trkpt><trkpt lat="39.02398295287815" lon="8.815618730400123"><ele>729.0</ele><time>2026-03-26T10:11:02.999Z</time></trkpt><trkpt lat="39.02388708732599" lon="8.815592103646583"><ele>727.0</ele><time>2026-03-26T10:11:03.999Z</time></trkpt><trkpt lat="39.02378453097865" lon="8.815601389002259"><ele>725.0</ele><time>2026-03-26T10:11:04.999Z</time></trkpt><trkpt lat="39.02367583661771" lon="8.81560852245138"><ele>723.0</ele><time>2026-03-26T10:11:05.999Z</time></trkpt><trkpt lat="39.023567244682056" lon="8.815619317573585"><ele>721.0</ele><time>2026-03-26T10:11:06.999Z</time></trkpt><trkpt lat="39.02346532759466" lon="8.815637627889567"><ele>721.0</ele><time>2026-03-26T10:11:07.999Z</time></trkpt><trkpt lat="39.02335973458249" lon="8.815675530221409"><ele>721.0</ele><time>2026-03-26T10:11:08.999Z</time></trkpt><trkpt lat="39.02326022198171" lon="8.815734083011504"><ele>721.0</ele><time>2026-03-26T10:11:09.999Z</time></trkpt><trkpt lat="39.02317574754023" lon="8.815802678334945"><ele>721.0</ele><time>2026-03-26T10:11:10.999Z</time></trkpt><trkpt lat="39.0230991264758" lon="8.815882072830965"><ele>721.0</ele><time>2026-03-26T10:11:11.999Z</time></trkpt><trkpt lat="39.02303500216738" lon="8.81596116856787"><ele>718.5999999999999</ele><time>2026-03-26T10:11:12.999Z</time></trkpt><trkpt lat="39.022968449399556" lon="8.815996462950148"><ele>716.2</ele><time>2026-03-26T10:11:13.999Z</time></trkpt><trkpt lat="39.022870916682606" lon="8.816039208342588"><ele>713.8</ele><time>2026-03-26T10:11:15.999Z</time></trkpt><trkpt lat="39.02281131605498" lon="8.81592409324346"><ele>711.4000000000001</ele><time>2026-03-26T10:11:17.999Z</time></trkpt><trkpt lat="39.02282350887249" lon="8.815758867945053"><ele>709.0</ele><time>2026-03-26T10:11:19.999Z</time></trkpt><trkpt lat="39.022869686343526" lon="8.81565525872067"><ele>708.6</ele><time>2026-03-26T10:11:20.999Z</time></trkpt><trkpt lat="39.02290859169608" lon="8.815524138769499"><ele>708.2</ele><time>2026-03-26T10:11:21.999Z</time></trkpt><trkpt lat="39.02296981428594" lon="8.815402343914695"><ele>707.8000000000001</ele><time>2026-03-26T10:11:22.999Z</time></trkpt><trkpt lat="39.023030998131865" lon="8.815290250950902"><ele>707.4000000000001</ele><time>2026-03-26T10:11:23.999Z</time></trkpt><trkpt lat="39.023111601602096" lon="8.8151999349275"><ele>707.0</ele><time>2026-03-26T10:11:24.999Z</time></trkpt><trkpt lat="39.02318839530315" lon="8.81509845965256"><ele>708.0</ele><time>2026-03-26T10:11:25.999Z</time></trkpt><trkpt lat="39.023256356012304" lon="8.814990447487784"><ele>709.0</ele><time>2026-03-26T10:11:26.999Z</time></trkpt><trkpt lat="39.023340649233084" lon="8.8149047715024"><ele>710.0</ele><time>2026-03-26T10:11:27.999Z</time></trkpt><trkpt lat="39.02342532856718" lon="8.814824065971978"><ele>711.0</ele><time>2026-03-26T10:11:28.999Z</time></trkpt><trkpt lat="39.02351138981096" lon="8.814747872401195"><ele>712.0</ele><time>2026-03-26T10:11:29.999Z</time></trkpt><trkpt lat="39.02360355720186" lon="8.814679133172483"><ele>712.0</ele><time>2026-03-26T10:11:30.999Z</time></trkpt><trkpt lat="39.023701007817934" lon="8.814616993747393"><ele>712.0</ele><time>2026-03-26T10:11:31.999Z</time></trkpt><trkpt lat="39.02381089960449" lon="8.81458991433333"><ele>712.0</ele><time>2026-03-26T10:11:32.999Z</time></trkpt><trkpt lat="39.02391735965391" lon="8.81452914162796"><ele>712.0</ele><time>2026-03-26T10:11:33.999Z</time></trkpt><trkpt lat="39.024035898426376" lon="8.814492240066269"><ele>712.8</ele><time>2026-03-26T10:11:34.999Z</time></trkpt><trkpt lat="39.0241499860586" lon="8.81445467806619"><ele>713.6</ele><time>2026-03-26T10:11:35.999Z</time></trkpt><trkpt lat="39.024250178004884" lon="8.814420763577697"><ele>714.4</ele><time>2026-03-26T10:11:36.999Z</time></trkpt><trkpt lat="39.02434404030151" lon="8.814392280612426"><ele>715.1999999999999</ele><time>2026-03-26T10:11:37.999Z</time></trkpt><trkpt lat="39.02442945806988" lon="8.81435105196118"><ele>716.0</ele><time>2026-03-26T10:11:38.999Z</time></trkpt><trkpt lat="39.02451333440063" lon="8.814288238224174"><ele>711.4</ele><time>2026-03-26T10:11:39.999Z</time></trkpt><trkpt lat="39.02459666333447" lon="8.814222758912928"><ele>706.8</ele><time>2026-03-26T10:11:40.999Z</time></trkpt><trkpt lat="39.02468114166737" lon="8.814150539518762"><ele>702.1999999999999</ele><time>2026-03-26T10:11:41.999Z</time></trkpt><trkpt lat="39.0247665643456" lon="8.814074998985474"><ele>697.5999999999999</ele><time>2026-03-26T10:11:42.999Z</time></trkpt><trkpt lat="39.02485443605679" lon="8.814024275568105"><ele>693.0</ele><time>2026-03-26T10:11:43.999Z</time></trkpt><trkpt lat="39.02493434757784" lon="8.81396136957968"><ele>693.8333333333334</ele><time>2026-03-26T10:11:44.999Z</time></trkpt><trkpt lat="39.025008030578014" lon="8.813911598624651"><ele>694.6666666666666</ele><time>2026-03-26T10:11:45.999Z</time></trkpt><trkpt lat="39.025083748756856" lon="8.813879633895137"><ele>695.5</ele><time>2026-03-26T10:11:46.999Z</time></trkpt><trkpt lat="39.02516371509385" lon="8.813857805341202"><ele>696.3333333333333</ele><time>2026-03-26T10:11:47.999Z</time></trkpt><trkpt lat="39.02525617865232" lon="8.813855108324145"><ele>697.1666666666666</ele><time>2026-03-26T10:11:48.999Z</time></trkpt><trkpt lat="39.025358530090436" lon="8.81387482729144"><ele>698.0</ele><time>2026-03-26T10:11:49.999Z</time></trkpt><trkpt lat="39.0254740283409" lon="8.813889786981983"><ele>698.0</ele><time>2026-03-26T10:11:50.999Z</time></trkpt><trkpt lat="39.025582929178235" lon="8.813939392182357"><ele>698.0</ele><time>2026-03-26T10:11:51.999Z</time></trkpt><trkpt lat="39.02568294554867" lon="8.813988313153375"><ele>698.0</ele><time>2026-03-26T10:11:52.999Z</time></trkpt><trkpt lat="39.02577672514833" lon="8.81403304281742"><ele>698.0</ele><time>2026-03-26T10:11:53.999Z</time></trkpt><trkpt lat="39.02586479281914" lon="8.81406250606669"><ele>698.0</ele><time>2026-03-26T10:11:54.999Z</time></trkpt><trkpt lat="39.02595665022538" lon="8.81407096634336"><ele>696.5999999999999</ele><time>2026-03-26T10:11:55.999Z</time></trkpt><trkpt lat="39.02604243306819" lon="8.814055131868608"><ele>695.1999999999999</ele><time>2026-03-26T10:11:56.999Z</time></trkpt><trkpt lat="39.02612737070477" lon="8.814019805539152"><ele>693.8</ele><time>2026-03-26T10:11:57.999Z</time></trkpt><trkpt lat="39.02622031782464" lon="8.813962157026522"><ele>692.4</ele><time>2026-03-26T10:11:58.999Z</time></trkpt><trkpt lat="39.02631905942413" lon="8.813883187285246"><ele>691.0</ele><time>2026-03-26T10:11:59.999Z</time></trkpt><trkpt lat="39.02641034640974" lon="8.813807377872791"><ele>691.0</ele><time>2026-03-26T10:12:00.999Z</time></trkpt><trkpt lat="39.02649607041583" lon="8.81376403424209"><ele>691.0</ele><time>2026-03-26T10:12:02Z</time></trkpt><trkpt lat="39.026565517006865" lon="8.81372360662001"><ele>691.0</ele><time>2026-03-26T10:12:03Z</time></trkpt><trkpt lat="39.0266388466865" lon="8.813698382501407"><ele>691.0</ele><time>2026-03-26T10:12:04Z</time></trkpt><trkpt lat="39.0267243791741" lon="8.813689290416225"><ele>691.0</ele><time>2026-03-26T10:12:05Z</time></trkpt><trkpt lat="39.02680727544355" lon="8.813686167804457"><ele>691.0</ele><time>2026-03-26T10:12:06Z</time></trkpt><trkpt lat="39.02689034311217" lon="8.813698334524203"><ele>690.6666666666667</ele><time>2026-03-26T10:12:07Z</time></trkpt><trkpt lat="39.02698524446593" lon="8.813711857094125"><ele>690.3333333333334</ele><time>2026-03-26T10:12:08Z</time></trkpt><trkpt lat="39.0270817521407" lon="8.813705338459384"><ele>690.0</ele><time>2026-03-26T10:12:09Z</time></trkpt><trkpt lat="39.02717080866443" lon="8.813718460831574"><ele>689.6666666666666</ele><time>2026-03-26T10:12:10Z</time></trkpt><trkpt lat="39.02725116099487" lon="8.813724811760581"><ele>689.3333333333333</ele><time>2026-03-26T10:12:11Z</time></trkpt><trkpt lat="39.02732038327935" lon="8.813755579629216"><ele>689.0</ele><time>2026-03-26T10:12:12Z</time></trkpt><trkpt lat="39.02743707033962" lon="8.813783979702917"><ele>689.0</ele><time>2026-03-26T10:12:14Z</time></trkpt><trkpt lat="39.027535368950005" lon="8.813795514526252"><ele>689.0</ele><time>2026-03-26T10:12:16Z</time></trkpt><trkpt lat="39.02757897304551" lon="8.8136940899563"><ele>689.0</ele><time>2026-03-26T10:12:18Z</time></trkpt><trkpt lat="39.027513169659635" lon="8.81360560715573"><ele>689.0</ele><time>2026-03-26T10:12:20Z</time></trkpt><trkpt lat="39.027447264759466" lon="8.813586484415367"><ele>689.0</ele><time>2026-03-26T10:12:21Z</time></trkpt><trkpt lat="39.02737510297745" lon="8.813571395686063"><ele>689.0</ele><time>2026-03-26T10:12:22Z</time></trkpt><trkpt lat="39.027301413054154" lon="8.813540504206129"><ele>684.3333333333333</ele><time>2026-03-26T10:12:23Z</time></trkpt><trkpt lat="39.02723271794396" lon="8.813487901882535"><ele>679.6666666666666</ele><time>2026-03-26T10:12:24Z</time></trkpt><trkpt lat="39.02715847920304" lon="8.813447870364735"><ele>675.0</ele><time>2026-03-26T10:12:25Z</time></trkpt><trkpt lat="39.02708341891184" lon="8.813398145290051"><ele>670.3333333333334</ele><time>2026-03-26T10:12:26Z</time></trkpt><trkpt lat="39.02700936812099" lon="8.813326758385651"><ele>665.6666666666667</ele><time>2026-03-26T10:12:27Z</time></trkpt><trkpt lat="39.02692989927442" lon="8.8132531654452"><ele>661.0</ele><time>2026-03-26T10:12:28Z</time></trkpt><trkpt lat="39.02685351502221" lon="8.813191083225874"><ele>661.0</ele><time>2026-03-26T10:12:29Z</time></trkpt><trkpt lat="39.02676706124598" lon="8.813166132218571"><ele>661.0</ele><time>2026-03-26T10:12:30Z</time></trkpt><trkpt lat="39.02668190631281" lon="8.813146008617277"><ele>661.0</ele><time>2026-03-26T10:12:31Z</time></trkpt><trkpt lat="39.026583163990374" lon="8.813149847732483"><ele>661.0</ele><time>2026-03-26T10:12:32Z</time></trkpt><trkpt lat="39.026475436712346" lon="8.81314038179638"><ele>661.0</ele><time>2026-03-26T10:12:33Z</time></trkpt><trkpt lat="39.02636231254771" lon="8.81316130539083"><ele>662.0</ele><time>2026-03-26T10:12:34Z</time></trkpt><trkpt lat="39.02626514726842" lon="8.81318844829265"><ele>663.0</ele><time>2026-03-26T10:12:35Z</time></trkpt><trkpt lat="39.026180489805704" lon="8.813233639606342"><ele>664.0</ele><time>2026-03-26T10:12:36Z</time></trkpt><trkpt lat="39.026120161740394" lon="8.813285290894644"><ele>665.0</ele><time>2026-03-26T10:12:37Z</time></trkpt><trkpt lat="39.026051518422" lon="8.813300685409763"><ele>666.0</ele><time>2026-03-26T10:12:38.999Z</time></trkpt><trkpt lat="39.026007019307514" lon="8.813212397325652"><ele>667.0</ele><time>2026-03-26T10:12:40.999Z</time></trkpt><trkpt lat="39.02599631984625" lon="8.813131905925903"><ele>667.0</ele><time>2026-03-26T10:12:41.999Z</time></trkpt><trkpt lat="39.02597892462659" lon="8.813031622540024"><ele>667.0</ele><time>2026-03-26T10:12:42.999Z</time></trkpt><trkpt lat="39.025959136219754" lon="8.812909066516491"><ele>667.0</ele><time>2026-03-26T10:12:43.999Z</time></trkpt><trkpt lat="39.025939356859986" lon="8.812786566532967"><ele>667.0</ele><time>2026-03-26T10:12:44.999Z</time></trkpt><trkpt lat="39.0259198125117" lon="8.812665521930308"><ele>667.0</ele><time>2026-03-26T10:12:45.999Z</time></trkpt><trkpt lat="39.02590330129189" lon="8.812543054910847"><ele>662.6</ele><time>2026-03-26T10:12:46.999Z</time></trkpt><trkpt lat="39.0259044240798" lon="8.812423752934285"><ele>658.2</ele><time>2026-03-26T10:12:47.999Z</time></trkpt><trkpt lat="39.02591826661345" lon="8.812305980488338"><ele>653.8</ele><time>2026-03-26T10:12:48.999Z</time></trkpt><trkpt lat="39.02593761828202" lon="8.812183176382202"><ele>649.4</ele><time>2026-03-26T10:12:49.999Z</time></trkpt><trkpt lat="39.02596847623003" lon="8.81206152332394"><ele>645.0</ele><time>2026-03-26T10:12:50.999Z</time></trkpt><trkpt lat="39.02600801701637" lon="8.81194631306979"><ele>645.0</ele><time>2026-03-26T10:12:51.999Z</time></trkpt><trkpt lat="39.02604275393201" lon="8.811835224651265"><ele>645.0</ele><time>2026-03-26T10:12:52.999Z</time></trkpt><trkpt lat="39.02607116638324" lon="8.811724760630689"><ele>645.0</ele><time>2026-03-26T10:12:53.999Z</time></trkpt><trkpt lat="39.02609602013091" lon="8.811606725696636"><ele>645.0</ele><time>2026-03-26T10:12:54.999Z</time></trkpt><trkpt lat="39.02610891232818" lon="8.811481186449289"><ele>645.0</ele><time>2026-03-26T10:12:55.999Z</time></trkpt><trkpt lat="39.02608676554075" lon="8.811359451225256"><ele>642.8333333333334</ele><time>2026-03-26T10:12:56.999Z</time></trkpt><trkpt lat="39.02606849543803" lon="8.811250452213173"><ele>640.6666666666666</ele><time>2026-03-26T10:12:57.999Z</time></trkpt><trkpt lat="39.02605750192742" lon="8.811142748054724"><ele>638.5</ele><time>2026-03-26T10:12:58.999Z</time></trkpt><trkpt lat="39.02602739895166" lon="8.811060353906337"><ele>636.3333333333333</ele><time>2026-03-26T10:12:59.999Z</time></trkpt><trkpt lat="39.02597189724119" lon="8.811012502489843"><ele>634.1666666666666</ele><time>2026-03-26T10:13:02.999Z</time></trkpt><trkpt lat="39.025890526358474" lon="8.811001929185691"><ele>632.0</ele><time>2026-03-26T10:13:43.999Z</time></trkpt><trkpt lat="39.02583605872355" lon="8.811116743841223"><ele>629.5714285714287</ele><time>2026-03-26T10:13:45.999Z</time></trkpt><trkpt lat="39.02578559193084" lon="8.81117511294039"><ele>627.1428571428571</ele><time>2026-03-26T10:13:46.999Z</time></trkpt><trkpt lat="39.02573008124004" lon="8.811234943003337"><ele>624.7142857142858</ele><time>2026-03-26T10:13:47.999Z</time></trkpt><trkpt lat="39.02567836835744" lon="8.811296712381642"><ele>622.2857142857143</ele><time>2026-03-26T10:13:48.999Z</time></trkpt><trkpt lat="39.02561617291269" lon="8.811332736240372"><ele>619.8571428571429</ele><time>2026-03-26T10:13:49.999Z</time></trkpt><trkpt lat="39.0255584885864" lon="8.81137766764853"><ele>617.4285714285714</ele><time>2026-03-26T10:13:50.999Z</time></trkpt><trkpt lat="39.02549334895207" lon="8.811415900705283"><ele>615.0</ele><time>2026-03-26T10:13:51.999Z</time></trkpt><trkpt lat="39.02543184277169" lon="8.811447283657724"><ele>615.0</ele><time>2026-03-26T10:13:52.999Z</time></trkpt><trkpt lat="39.02536664929129" lon="8.811470751570958"><ele>615.0</ele><time>2026-03-26T10:13:53.999Z</time></trkpt><trkpt lat="39.02529914263821" lon="8.811514976611615"><ele>615.0</ele><time>2026-03-26T10:13:54.999Z</time></trkpt><trkpt lat="39.02522431307849" lon="8.811541976630865"><ele>615.0</ele><time>2026-03-26T10:13:55.999Z</time></trkpt><trkpt lat="39.02514725007272" lon="8.811583564431775"><ele>615.0</ele><time>2026-03-26T10:13:56.999Z</time></trkpt><trkpt lat="39.02506696006184" lon="8.811637672465487"><ele>615.0</ele><time>2026-03-26T10:13:57.999Z</time></trkpt><trkpt lat="39.02497397513098" lon="8.811684181603216"><ele>616.4</ele><time>2026-03-26T10:13:58.999Z</time></trkpt><trkpt lat="39.02488776351446" lon="8.811754115091874"><ele>617.8</ele><time>2026-03-26T10:13:59.999Z</time></trkpt><trkpt lat="39.024795942552124" lon="8.811834777136655"><ele>619.2</ele><time>2026-03-26T10:14:00.999Z</time></trkpt><trkpt lat="39.0247110157435" lon="8.811908212664932"><ele>620.6</ele><time>2026-03-26T10:14:01.999Z</time></trkpt><trkpt lat="39.02464016164459" lon="8.81199092163037"><ele>622.0</ele><time>2026-03-26T10:14:02.999Z</time></trkpt><trkpt lat="39.02455578883618" lon="8.812038579287751"><ele>622.0</ele><time>2026-03-26T10:14:03.999Z</time></trkpt><trkpt lat="39.02447912254129" lon="8.812095851323738"><ele>622.0</ele><time>2026-03-26T10:14:04.999Z</time></trkpt><trkpt lat="39.02439863996023" lon="8.81214490919573"><ele>622.0</ele><time>2026-03-26T10:14:05.999Z</time></trkpt><trkpt lat="39.02430880323232" lon="8.812179023083836"><ele>622.0</ele><time>2026-03-26T10:14:06.999Z</time></trkpt><trkpt lat="39.024217880228875" lon="8.81222057064756"><ele>622.0</ele><time>2026-03-26T10:14:08Z</time></trkpt><trkpt lat="39.02414155086943" lon="8.812273330150733"><ele>620.6666666666667</ele><time>2026-03-26T10:14:09Z</time></trkpt><trkpt lat="39.02405928474478" lon="8.812297113664387"><ele>619.3333333333334</ele><time>2026-03-26T10:14:10Z</time></trkpt><trkpt lat="39.02399173311812" lon="8.812329716458523"><ele>618.0</ele><time>2026-03-26T10:14:11Z</time></trkpt><trkpt lat="39.023925008704715" lon="8.812349436129507"><ele>616.6666666666666</ele><time>2026-03-26T10:14:12Z</time></trkpt><trkpt lat="39.02381720948805" lon="8.812316420685457"><ele>615.3333333333333</ele><time>2026-03-26T10:14:14Z</time></trkpt><trkpt lat="39.02375538938494" lon="8.812297420467047"><ele>614.0</ele><time>2026-03-26T10:14:15Z</time></trkpt><trkpt lat="39.02369152797287" lon="8.81225028536277"><ele>614.0</ele><time>2026-03-26T10:14:16Z</time></trkpt><trkpt lat="39.02361631121993" lon="8.812207894816813"><ele>614.0</ele><time>2026-03-26T10:14:17Z</time></trkpt><trkpt lat="39.0235390049689" lon="8.812166229308524"><ele>614.0</ele><time>2026-03-26T10:14:18Z</time></trkpt><trkpt lat="39.02346293133912" lon="8.812148451987422"><ele>614.0</ele><time>2026-03-26T10:14:19Z</time></trkpt><trkpt lat="39.0233925310148" lon="8.812147137603183"><ele>614.0</ele><time>2026-03-26T10:14:20Z</time></trkpt><trkpt lat="39.0233248893103" lon="8.812156837198502"><ele>614.0</ele><time>2026-03-26T10:14:21Z</time></trkpt><trkpt lat="39.023262042123484" lon="8.812202005445142"><ele>610.5</ele><time>2026-03-26T10:14:22Z</time></trkpt><trkpt lat="39.02319716565724" lon="8.812234497976185"><ele>607.0</ele><time>2026-03-26T10:14:23Z</time></trkpt><trkpt lat="39.023132635048725" lon="8.812282530081744"><ele>603.5</ele><time>2026-03-26T10:14:24Z</time></trkpt><trkpt lat="39.02307126598984" lon="8.812318881886275"><ele>600.0</ele><time>2026-03-26T10:14:25Z</time></trkpt><trkpt lat="39.02301241349464" lon="8.812366149261603"><ele>596.5</ele><time>2026-03-26T10:14:26Z</time></trkpt><trkpt lat="39.02291147556707" lon="8.812366496875292"><ele>593.0</ele><time>2026-03-26T10:14:28Z</time></trkpt><trkpt lat="39.02283075495091" lon="8.81230532739998"><ele>593.0</ele><time>2026-03-26T10:14:30Z</time></trkpt><trkpt lat="39.022730004008416" lon="8.81224147368441"><ele>593.0</ele><time>2026-03-26T10:14:32Z</time></trkpt><trkpt lat="39.022607677645674" lon="8.812220681409771"><ele>593.0</ele><time>2026-03-26T10:14:34Z</time></trkpt><trkpt lat="39.02253251834221" lon="8.81222498319212"><ele>593.0</ele><time>2026-03-26T10:14:35Z</time></trkpt><trkpt lat="39.02246232451934" lon="8.812233862996393"><ele>593.0</ele><time>2026-03-26T10:14:36Z</time></trkpt><trkpt lat="39.022400205508646" lon="8.812276736709913"><ele>588.3333333333333</ele><time>2026-03-26T10:14:37Z</time></trkpt><trkpt lat="39.02233654729329" lon="8.812288493557594"><ele>583.6666666666666</ele><time>2026-03-26T10:14:38Z</time></trkpt><trkpt lat="39.02228546027183" lon="8.81236193648677"><ele>579.0</ele><time>2026-03-26T10:14:39Z</time></trkpt><trkpt lat="39.0222350653176" lon="8.812427988962742"><ele>574.3333333333334</ele><time>2026-03-26T10:14:40Z</time></trkpt><trkpt lat="39.022185900687305" lon="8.81248794726877"><ele>569.6666666666667</ele><time>2026-03-26T10:14:41Z</time></trkpt><trkpt lat="39.02213782551529" lon="8.81254122375792"><ele>565.0</ele><time>2026-03-26T10:14:42Z</time></trkpt><trkpt lat="39.02204821468158" lon="8.812642604859521"><ele>571.1666666666667</ele><time>2026-03-26T10:14:44Z</time></trkpt><trkpt lat="39.021978939736975" lon="8.812742906503663"><ele>577.3333333333334</ele><time>2026-03-26T10:14:46Z</time></trkpt><trkpt lat="39.02192570187097" lon="8.812827862438914"><ele>583.5</ele><time>2026-03-26T10:14:48Z</time></trkpt><trkpt lat="39.02188158890619" lon="8.812895144218329"><ele>589.6666666666666</ele><time>2026-03-26T10:14:50Z</time></trkpt><trkpt lat="39.021825718263" lon="8.812967924252344"><ele>595.8333333333333</ele><time>2026-03-26T10:14:53.999Z</time></trkpt><trkpt lat="39.02178378028558" lon="8.813039329131463"><ele>602.0</ele><time>2026-03-26T10:14:59.999Z</time></trkpt><trkpt lat="39.02170501664189" lon="8.813071374898087"><ele>599.2</ele><time>2026-03-26T10:18:21Z</time></trkpt><trkpt lat="39.02161433773447" lon="8.813128147377281"><ele>596.4000000000001</ele><time>2026-03-26T10:18:23Z</time></trkpt><trkpt lat="39.02154179847278" lon="8.81318931504892"><ele>593.5999999999999</ele><time>2026-03-26T10:18:25Z</time></trkpt><trkpt lat="39.021454399458605" lon="8.813253965627538"><ele>590.8</ele><time>2026-03-26T10:18:27Z</time></trkpt><trkpt lat="39.021349886404266" lon="8.81330061227314"><ele>588.0</ele><time>2026-03-26T10:18:29Z</time></trkpt><trkpt lat="39.02126511004715" lon="8.81331647725889"><ele>588.0</ele><time>2026-03-26T10:18:31Z</time></trkpt><trkpt lat="39.02119125101329" lon="8.813293450332251"><ele>588.0</ele><time>2026-03-26T10:18:33Z</time></trkpt><trkpt lat="39.021119333484485" lon="8.813249684075782"><ele>588.0</ele><time>2026-03-26T10:18:35Z</time></trkpt><trkpt lat="39.02104602186513" lon="8.8132337672066"><ele>588.0</ele><time>2026-03-26T10:18:37Z</time></trkpt><trkpt lat="39.02097335861702" lon="8.813212955394182"><ele>588.0</ele><time>2026-03-26T10:18:39Z</time></trkpt><trkpt lat="39.020915264480394" lon="8.813268082921088"><ele>588.0</ele><time>2026-03-26T10:18:40Z</time></trkpt><trkpt lat="39.02084388841342" lon="8.81329256249637"><ele>591.4</ele><time>2026-03-26T10:18:41Z</time></trkpt><trkpt lat="39.02074352969466" lon="8.813363250458048"><ele>594.8</ele><time>2026-03-26T10:18:43Z</time></trkpt><trkpt lat="39.02064945253456" lon="8.813381715789662"><ele>598.2</ele><time>2026-03-26T10:18:45Z</time></trkpt><trkpt lat="39.02061862642459" lon="8.813309204282813"><ele>601.6</ele><time>2026-03-26T10:18:46Z</time></trkpt><trkpt lat="39.02053677085598" lon="8.813193700710848"><ele>605.0</ele><time>2026-03-26T10:18:48Z</time></trkpt><trkpt lat="39.02049973667891" lon="8.813118634562668"><ele>605.0</ele><time>2026-03-26T10:18:49Z</time></trkpt><trkpt lat="39.020459157673514" lon="8.813054708450172"><ele>605.0</ele><time>2026-03-26T10:18:50Z</time></trkpt><trkpt lat="39.02043216903024" lon="8.812976725875535"><ele>605.0</ele><time>2026-03-26T10:18:51Z</time></trkpt><trkpt lat="39.02035211432682" lon="8.812858886640852"><ele>605.0</ele><time>2026-03-26T10:18:53Z</time></trkpt><trkpt lat="39.020271168292794" lon="8.812759756724613"><ele>605.0</ele><time>2026-03-26T10:18:55Z</time></trkpt><trkpt lat="39.02019901323272" lon="8.81267306740071"><ele>599.8333333333333</ele><time>2026-03-26T10:18:57Z</time></trkpt><trkpt lat="39.02013909418889" lon="8.812561632289121"><ele>594.6666666666666</ele><time>2026-03-26T10:18:59Z</time></trkpt><trkpt lat="39.02008811121535" lon="8.812504554436622"><ele>589.5</ele><time>2026-03-26T10:19:00Z</time></trkpt><trkpt lat="39.02001921318375" lon="8.812446115964812"><ele>584.3333333333334</ele><time>2026-03-26T10:19:01Z</time></trkpt><trkpt lat="39.019937470336444" lon="8.812397365951536"><ele>579.1666666666667</ele><time>2026-03-26T10:19:02Z</time></trkpt><trkpt lat="39.019837588932106" lon="8.812384984966398"><ele>574.0</ele><time>2026-03-26T10:19:02.999Z</time></trkpt><trkpt lat="39.01974213932236" lon="8.812338858329195"><ele>574.0</ele><time>2026-03-26T10:19:03.999Z</time></trkpt><trkpt lat="39.01965307115325" lon="8.812309483862244"><ele>574.0</ele><time>2026-03-26T10:19:04.999Z</time></trkpt><trkpt lat="39.019572798752314" lon="8.812275792658767"><ele>574.0</ele><time>2026-03-26T10:19:05.999Z</time></trkpt><trkpt lat="39.01949737295723" lon="8.812244209756088"><ele>574.0</ele><time>2026-03-26T10:19:06.999Z</time></trkpt><trkpt lat="39.019421476111695" lon="8.812216839295685"><ele>574.0</ele><time>2026-03-26T10:19:07.999Z</time></trkpt><trkpt lat="39.01934710646413" lon="8.812217009517585"><ele>574.0</ele><time>2026-03-26T10:19:08.999Z</time></trkpt><trkpt lat="39.01927885107133" lon="8.812220380818598"><ele>574.0</ele><time>2026-03-26T10:19:09.999Z</time></trkpt><trkpt lat="39.01921530707688" lon="8.812256568920565"><ele>574.0</ele><time>2026-03-26T10:19:10.999Z</time></trkpt><trkpt lat="39.01915693538919" lon="8.812322950910959"><ele>574.0</ele><time>2026-03-26T10:19:11.999Z</time></trkpt><trkpt lat="39.01910315592736" lon="8.812410149052239"><ele>574.0</ele><time>2026-03-26T10:19:12.999Z</time></trkpt><trkpt lat="39.01905577288716" lon="8.812488964650258"><ele>574.0</ele><time>2026-03-26T10:19:13.999Z</time></trkpt><trkpt lat="39.01894724754515" lon="8.812515123706751"><ele>574.0</ele><time>2026-03-26T10:19:15.999Z</time></trkpt><trkpt lat="39.01888438526366" lon="8.8124116915088"><ele>573.8</ele><time>2026-03-26T10:19:17.999Z</time></trkpt><trkpt lat="39.01882201223589" lon="8.812273748379676"><ele>573.5999999999999</ele><time>2026-03-26T10:19:19.999Z</time></trkpt><trkpt lat="39.01877731989145" lon="8.812196818701791"><ele>573.4</ele><time>2026-03-26T10:19:20.999Z</time></trkpt><trkpt lat="39.01872727683093" lon="8.812110952281296"><ele>573.1999999999999</ele><time>2026-03-26T10:19:21.999Z</time></trkpt><trkpt lat="39.0186723026489" lon="8.812023675332343"><ele>573.0</ele><time>2026-03-26T10:19:22.999Z</time></trkpt><trkpt lat="39.01861635154853" lon="8.811941587810987"><ele>573.0</ele><time>2026-03-26T10:19:23.999Z</time></trkpt><trkpt lat="39.018552021027816" lon="8.811876107972015"><ele>573.0</ele><time>2026-03-26T10:19:24.999Z</time></trkpt><trkpt lat="39.01846870117146" lon="8.811850091860048"><ele>573.0</ele><time>2026-03-26T10:19:25.999Z</time></trkpt><trkpt lat="39.01840378091032" lon="8.811803755080533"><ele>573.0</ele><time>2026-03-26T10:19:26.999Z</time></trkpt><trkpt lat="39.018328229878634" lon="8.81181381476476"><ele>573.0</ele><time>2026-03-26T10:19:27.999Z</time></trkpt><trkpt lat="39.01826200750814" lon="8.811817136031516"><ele>573.0</ele><time>2026-03-26T10:19:28.999Z</time></trkpt><trkpt lat="39.018192237566474" lon="8.811836692600727"><ele>569.0</ele><time>2026-03-26T10:19:29.999Z</time></trkpt><trkpt lat="39.01812152174331" lon="8.81187350631077"><ele>565.0</ele><time>2026-03-26T10:19:30.999Z</time></trkpt><trkpt lat="39.018050952969645" lon="8.811920442496607"><ele>561.0</ele><time>2026-03-26T10:19:31.999Z</time></trkpt><trkpt lat="39.01798307374522" lon="8.811983997335942"><ele>557.0</ele><time>2026-03-26T10:19:32.999Z</time></trkpt><trkpt lat="39.01791804877412" lon="8.812046355739296"><ele>553.0</ele><time>2026-03-26T10:19:33.999Z</time></trkpt><trkpt lat="39.017850623791986" lon="8.812115106539903"><ele>549.0</ele><time>2026-03-26T10:19:34.999Z</time></trkpt><trkpt lat="39.017783678243305" lon="8.812193543847348"><ele>549.0</ele><time>2026-03-26T10:19:35.999Z</time></trkpt><trkpt lat="39.01772090908049" lon="8.812273202228186"><ele>549.0</ele><time>2026-03-26T10:19:36.999Z</time></trkpt><trkpt lat="39.017664646024826" lon="8.812354380012936"><ele>549.0</ele><time>2026-03-26T10:19:37.999Z</time></trkpt><trkpt lat="39.01761469830135" lon="8.812453007338735"><ele>549.0</ele><time>2026-03-26T10:19:38.999Z</time></trkpt><trkpt lat="39.01757358970455" lon="8.8125701803143"><ele>549.0</ele><time>2026-03-26T10:19:39.999Z</time></trkpt><trkpt lat="39.017548642143225" lon="8.812671240095943"><ele>549.0</ele><time>2026-03-26T10:19:40.999Z</time></trkpt><trkpt lat="39.017524863220466" lon="8.812752643936673"><ele>546.8333333333334</ele><time>2026-03-26T10:19:41.999Z</time></trkpt><trkpt lat="39.01745351163753" lon="8.812840612662475"><ele>544.6666666666666</ele><time>2026-03-26T10:19:43.999Z</time></trkpt><trkpt lat="39.01738911548106" lon="8.812801903795522"><ele>542.5</ele><time>2026-03-26T10:19:44.999Z</time></trkpt><trkpt lat="39.01732735050911" lon="8.81276284838218"><ele>540.3333333333333</ele><time>2026-03-26T10:19:45.999Z</time></trkpt><trkpt lat="39.01724608089665" lon="8.812721284799046"><ele>538.1666666666666</ele><time>2026-03-26T10:19:46.999Z</time></trkpt><trkpt lat="39.01715037905842" lon="8.812674077557828"><ele>536.0</ele><time>2026-03-26T10:19:47.999Z</time></trkpt><trkpt lat="39.01704642635455" lon="8.81262280038495"><ele>536.0</ele><time>2026-03-26T10:19:48.999Z</time></trkpt><trkpt lat="39.01693609956597" lon="8.812566250572626"><ele>536.0</ele><time>2026-03-26T10:19:49.999Z</time></trkpt><trkpt lat="39.01682755551534" lon="8.812500512381327"><ele>536.0</ele><time>2026-03-26T10:19:50.999Z</time></trkpt><trkpt lat="39.016731167959435" lon="8.812445483630468"><ele>536.0</ele><time>2026-03-26T10:19:51.999Z</time></trkpt><trkpt lat="39.016651486625044" lon="8.8124260231146"><ele>536.0</ele><time>2026-03-26T10:19:52.999Z</time></trkpt><trkpt lat="39.016582797531136" lon="8.812409320770083"><ele>537.0</ele><time>2026-03-26T10:19:53.999Z</time></trkpt><trkpt lat="39.016512005718226" lon="8.81243328181061"><ele>538.0</ele><time>2026-03-26T10:19:54.999Z</time></trkpt><trkpt lat="39.01643963547091" lon="8.812487698593841"><ele>539.0</ele><time>2026-03-26T10:19:55.999Z</time></trkpt><trkpt lat="39.016373090148434" lon="8.812560575363502"><ele>540.0</ele><time>2026-03-26T10:19:56.999Z</time></trkpt><trkpt lat="39.01631220803511" lon="8.812651512322732"><ele>541.0</ele><time>2026-03-26T10:19:57.999Z</time></trkpt><trkpt lat="39.01625818224275" lon="8.812772484983505"><ele>542.0</ele><time>2026-03-26T10:19:58.999Z</time></trkpt><trkpt lat="39.01620684402508" lon="8.812918173500176"><ele>542.0</ele><time>2026-03-26T10:19:59.999Z</time></trkpt><trkpt lat="39.01615205619269" lon="8.813067166791026"><ele>542.0</ele><time>2026-03-26T10:20:00.999Z</time></trkpt><trkpt lat="39.01610212946706" lon="8.813200206904849"><ele>542.0</ele><time>2026-03-26T10:20:01.999Z</time></trkpt><trkpt lat="39.01605923570064" lon="8.813305999316809"><ele>542.0</ele><time>2026-03-26T10:20:02.999Z</time></trkpt><trkpt lat="39.01601878969315" lon="8.813381811634144"><ele>542.0</ele><time>2026-03-26T10:20:03.999Z</time></trkpt><trkpt lat="39.015896134279345" lon="8.813406787277335"><ele>542.0</ele><time>2026-03-26T10:20:05.999Z</time></trkpt><trkpt lat="39.01582360476687" lon="8.813341883560454"><ele>542.0</ele><time>2026-03-26T10:20:06.999Z</time></trkpt><trkpt lat="39.01574375762439" lon="8.813317957990684"><ele>542.0</ele><time>2026-03-26T10:20:07.999Z</time></trkpt><trkpt lat="39.015654997312545" lon="8.81331830252074"><ele>542.0</ele><time>2026-03-26T10:20:08.999Z</time></trkpt><trkpt lat="39.01556531069834" lon="8.813303263683398"><ele>542.0</ele><time>2026-03-26T10:20:09.999Z</time></trkpt><trkpt lat="39.015476614851046" lon="8.813301271369768"><ele>542.0</ele><time>2026-03-26T10:20:10.999Z</time></trkpt><trkpt lat="39.01539505187843" lon="8.813310302828839"><ele>542.4</ele><time>2026-03-26T10:20:11.999Z</time></trkpt><trkpt lat="39.015310798860966" lon="8.813342843730268"><ele>542.8000000000001</ele><time>2026-03-26T10:20:12.999Z</time></trkpt><trkpt lat="39.015222168869904" lon="8.813406140764206"><ele>543.2</ele><time>2026-03-26T10:20:13.999Z</time></trkpt><trkpt lat="39.01513493888676" lon="8.813472897716364"><ele>543.6</ele><time>2026-03-26T10:20:14.999Z</time></trkpt><trkpt lat="39.015057368282925" lon="8.81353030977323"><ele>544.0</ele><time>2026-03-26T10:20:15.999Z</time></trkpt><trkpt lat="39.01497956532459" lon="8.813582759256462"><ele>544.0</ele><time>2026-03-26T10:20:16.999Z</time></trkpt><trkpt lat="39.01490701026056" lon="8.813623344323323"><ele>544.0</ele><time>2026-03-26T10:20:17.999Z</time></trkpt><trkpt lat="39.01483145780961" lon="8.813633220300073"><ele>544.0</ele><time>2026-03-26T10:20:18.999Z</time></trkpt><trkpt lat="39.01477104710773" lon="8.813568377184605"><ele>544.0</ele><time>2026-03-26T10:20:19.999Z</time></trkpt><trkpt lat="39.01470584498445" lon="8.813504585449358"><ele>544.0</ele><time>2026-03-26T10:20:20.999Z</time></trkpt><trkpt lat="39.01462173435319" lon="8.813435324395563"><ele>544.0</ele><time>2026-03-26T10:20:21.999Z</time></trkpt><trkpt lat="39.014527381227694" lon="8.813361513793824"><ele>539.8</ele><time>2026-03-26T10:20:22.999Z</time></trkpt><trkpt lat="39.01443069980192" lon="8.813287911190937"><ele>535.5999999999999</ele><time>2026-03-26T10:20:23.999Z</time></trkpt><trkpt lat="39.014349880486385" lon="8.813215947765189"><ele>531.4</ele><time>2026-03-26T10:20:24.999Z</time></trkpt><trkpt lat="39.01427708435804" lon="8.813133871034925"><ele>527.1999999999999</ele><time>2026-03-26T10:20:26Z</time></trkpt><trkpt lat="39.014213024048665" lon="8.813046979830025"><ele>523.0</ele><time>2026-03-26T10:20:27Z</time></trkpt><trkpt lat="39.014159341637125" lon="8.812971538821044"><ele>516.1999999999999</ele><time>2026-03-26T10:20:28Z</time></trkpt><trkpt lat="39.014059617474096" lon="8.812918510645337"><ele>509.4</ele><time>2026-03-26T10:20:30Z</time></trkpt><trkpt lat="39.01395457248078" lon="8.812962360377576"><ele>502.59999999999997</ele><time>2026-03-26T10:20:32Z</time></trkpt><trkpt lat="39.01393346621279" lon="8.813062209767866"><ele>495.79999999999995</ele><time>2026-03-26T10:20:33Z</time></trkpt><trkpt lat="39.01391698541245" lon="8.813161463352209"><ele>489.0</ele><time>2026-03-26T10:20:34Z</time></trkpt><trkpt lat="39.013894438364424" lon="8.813268770061132"><ele>489.0</ele><time>2026-03-26T10:20:35Z</time></trkpt><trkpt lat="39.01386236915739" lon="8.813384954068255"><ele>489.0</ele><time>2026-03-26T10:20:36Z</time></trkpt><trkpt lat="39.01382186419339" lon="8.813509654870948"><ele>489.0</ele><time>2026-03-26T10:20:37Z</time></trkpt><trkpt lat="39.013780379142766" lon="8.813641321659023"><ele>489.0</ele><time>2026-03-26T10:20:38Z</time></trkpt><trkpt lat="39.013742021692835" lon="8.813762466273115"><ele>489.0</ele><time>2026-03-26T10:20:39Z</time></trkpt><trkpt lat="39.01370056043406" lon="8.813871496420505"><ele>492.4</ele><time>2026-03-26T10:20:40Z</time></trkpt><trkpt lat="39.01365585951616" lon="8.813973854150703"><ele>495.79999999999995</ele><time>2026-03-26T10:20:41Z</time></trkpt><trkpt lat="39.0136066011267" lon="8.814089029828544"><ele>499.20000000000005</ele><time>2026-03-26T10:20:42Z</time></trkpt><trkpt lat="39.013555428988006" lon="8.814202178683647"><ele>502.6</ele><time>2026-03-26T10:20:43Z</time></trkpt><trkpt lat="39.01350745305967" lon="8.814307492892937"><ele>506.0</ele><time>2026-03-26T10:20:44Z</time></trkpt><trkpt lat="39.01347035855142" lon="8.81441379970424"><ele>504.99999999999994</ele><time>2026-03-26T10:20:45Z</time></trkpt><trkpt lat="39.01344560789852" lon="8.814509661123147"><ele>504.0</ele><time>2026-03-26T10:20:46Z</time></trkpt><trkpt lat="39.01342223662634" lon="8.814585490734387"><ele>503.0</ele><time>2026-03-26T10:20:47Z</time></trkpt><trkpt lat="39.01332747474981" lon="8.814644794265877"><ele>502.0</ele><time>2026-03-26T10:20:49Z</time></trkpt><trkpt lat="39.01325297692661" lon="8.814613870927847"><ele>500.99999999999994</ele><time>2026-03-26T10:20:50Z</time></trkpt><trkpt lat="39.01316774135759" lon="8.814625490113682"><ele>500.0</ele><time>2026-03-26T10:20:51Z</time></trkpt><trkpt lat="39.013080613616715" lon="8.814618555252933"><ele>500.0</ele><time>2026-03-26T10:20:52Z</time></trkpt><trkpt lat="39.01298969971598" lon="8.814632251028398"><ele>500.0</ele><time>2026-03-26T10:20:53Z</time></trkpt><trkpt lat="39.01289371022618" lon="8.814662950281233"><ele>500.0</ele><time>2026-03-26T10:20:54Z</time></trkpt><trkpt lat="39.01280371984822" lon="8.814713032078531"><ele>500.0</ele><time>2026-03-26T10:20:55Z</time></trkpt><trkpt lat="39.0127283365112" lon="8.814778809096289"><ele>500.0</ele><time>2026-03-26T10:20:56Z</time></trkpt><trkpt lat="39.01266306986739" lon="8.814873978765801"><ele>500.0</ele><time>2026-03-26T10:20:57Z</time></trkpt><trkpt lat="39.012608405198634" lon="8.815005286826771"><ele>500.0</ele><time>2026-03-26T10:20:58Z</time></trkpt><trkpt lat="39.0125619440552" lon="8.815151767988656"><ele>500.0</ele><time>2026-03-26T10:20:59Z</time></trkpt><trkpt lat="39.01252666335734" lon="8.815277732429129"><ele>500.0</ele><time>2026-03-26T10:21:00Z</time></trkpt><trkpt lat="39.01249051293993" lon="8.815373038969604"><ele>500.0</ele><time>2026-03-26T10:21:01Z</time></trkpt><trkpt lat="39.01244145332595" lon="8.815445954328528"><ele>501.2</ele><time>2026-03-26T10:21:02Z</time></trkpt><trkpt lat="39.01235914826506" lon="8.815475191643348"><ele>502.4</ele><time>2026-03-26T10:21:03Z</time></trkpt><trkpt lat="39.0122765408872" lon="8.8154768072124"><ele>503.6</ele><time>2026-03-26T10:21:04Z</time></trkpt><trkpt lat="39.01217838950772" lon="8.815489436572904"><ele>504.8</ele><time>2026-03-26T10:21:05Z</time></trkpt><trkpt lat="39.01206119034465" lon="8.815504547538035"><ele>506.0</ele><time>2026-03-26T10:21:06Z</time></trkpt><trkpt lat="39.011923781096726" lon="8.81554244192905"><ele>506.0</ele><time>2026-03-26T10:21:07Z</time></trkpt><trkpt lat="39.01177445629719" lon="8.81555282021646"><ele>506.0</ele><time>2026-03-26T10:21:08Z</time></trkpt><trkpt lat="39.01163092029067" lon="8.81556139075789"><ele>506.0</ele><time>2026-03-26T10:21:09Z</time></trkpt><trkpt lat="39.01150314459157" lon="8.815577917301324"><ele>506.0</ele><time>2026-03-26T10:21:10Z</time></trkpt><trkpt lat="39.011386674520736" lon="8.815588690240494"><ele>504.20000000000005</ele><time>2026-03-26T10:21:11Z</time></trkpt><trkpt lat="39.01127519400406" lon="8.815587767252559"><ele>502.40000000000003</ele><time>2026-03-26T10:21:12Z</time></trkpt><trkpt lat="39.01117017710944" lon="8.815577669409365"><ele>500.6</ele><time>2026-03-26T10:21:13Z</time></trkpt><trkpt lat="39.011077463623714" lon="8.81553427409226"><ele>498.8</ele><time>2026-03-26T10:21:14Z</time></trkpt><trkpt lat="39.010993486257355" lon="8.815503566081961"><ele>497.0</ele><time>2026-03-26T10:21:15Z</time></trkpt><trkpt lat="39.01091871261389" lon="8.81545509626618"><ele>497.0</ele><time>2026-03-26T10:21:16Z</time></trkpt><trkpt lat="39.01084739809986" lon="8.81539287657822"><ele>497.00000000000006</ele><time>2026-03-26T10:21:17Z</time></trkpt><trkpt lat="39.01077317041878" lon="8.815325509162271"><ele>497.00000000000006</ele><time>2026-03-26T10:21:17.999Z</time></trkpt><trkpt lat="39.01068846365769" lon="8.815265188911166"><ele>497.0</ele><time>2026-03-26T10:21:18.999Z</time></trkpt><trkpt lat="39.01061123293816" lon="8.815191835797203"><ele>497.0</ele><time>2026-03-26T10:21:19.999Z</time></trkpt><trkpt lat="39.010530436278074" lon="8.815127682311413"><ele>494.66666666666663</ele><time>2026-03-26T10:21:20.999Z</time></trkpt><trkpt lat="39.01045456594204" lon="8.815069660374782"><ele>492.3333333333333</ele><time>2026-03-26T10:21:21.999Z</time></trkpt><trkpt lat="39.01037793104838" lon="8.815018860528099"><ele>490.0</ele><time>2026-03-26T10:21:22.999Z</time></trkpt><trkpt lat="39.010294779525736" lon="8.814978968958464"><ele>487.66666666666663</ele><time>2026-03-26T10:21:23.999Z</time></trkpt><trkpt lat="39.01020955358849" lon="8.814956424723743"><ele>485.3333333333333</ele><time>2026-03-26T10:21:24.999Z</time></trkpt><trkpt lat="39.010123588816235" lon="8.814946273769529"><ele>483.0</ele><time>2026-03-26T10:21:25.999Z</time></trkpt><trkpt lat="39.01003901706385" lon="8.814948247521025"><ele>482.8333333333333</ele><time>2026-03-26T10:21:26.999Z</time></trkpt><trkpt lat="39.00995862865371" lon="8.814956230353056"><ele>482.66666666666663</ele><time>2026-03-26T10:21:27.999Z</time></trkpt><trkpt lat="39.009880666929774" lon="8.814970387729884"><ele>482.5</ele><time>2026-03-26T10:21:28.999Z</time></trkpt><trkpt lat="39.00980604804138" lon="8.814994803956724"><ele>482.3333333333333</ele><time>2026-03-26T10:21:29.999Z</time></trkpt><trkpt lat="39.00973762901972" lon="8.815033370825828"><ele>482.16666666666663</ele><time>2026-03-26T10:21:30.999Z</time></trkpt><trkpt lat="39.009671138364695" lon="8.815088518935074"><ele>482.0</ele><time>2026-03-26T10:21:31.999Z</time></trkpt><trkpt lat="39.009608677122635" lon="8.815147460218663"><ele>481.16666666666663</ele><time>2026-03-26T10:21:32.999Z</time></trkpt><trkpt lat="39.00954675966888" lon="8.815204802914046"><ele>480.3333333333333</ele><time>2026-03-26T10:21:33.999Z</time></trkpt><trkpt lat="39.00948303089251" lon="8.815252966830883"><ele>479.5</ele><time>2026-03-26T10:21:34.999Z</time></trkpt><trkpt lat="39.009420607432105" lon="8.815289888949682"><ele>478.66666666666663</ele><time>2026-03-26T10:21:35.999Z</time></trkpt><trkpt lat="39.00934720612975" lon="8.8152742290999"><ele>477.8333333333333</ele><time>2026-03-26T10:21:37.999Z</time></trkpt><trkpt lat="39.00923999313748" lon="8.81530964410453"><ele>477.0</ele><time>2026-03-26T10:21:40.999Z</time></trkpt><trkpt lat="39.00940750011881" lon="8.815446175324308"><ele>477.0</ele><time>2026-03-26T10:21:41.999Z</time></trkpt><trkpt lat="39.00945517405222" lon="8.815508976060267"><ele>476.99999999999994</ele><time>2026-03-26T10:21:42.999Z</time></trkpt><trkpt lat="39.00950545957622" lon="8.815584242054626"><ele>477.0</ele><time>2026-03-26T10:21:43.999Z</time></trkpt><trkpt lat="39.00956057227269" lon="8.815660140515742"><ele>477.0</ele><time>2026-03-26T10:21:44.999Z</time></trkpt><trkpt lat="39.009614253286834" lon="8.81573494388827"><ele>476.99999999999994</ele><time>2026-03-26T10:21:45.999Z</time></trkpt><trkpt lat="39.00965580472851" lon="8.815796275601864"><ele>477.0</ele><time>2026-03-26T10:21:46.999Z</time></trkpt><trkpt lat="39.009702336893525" lon="8.815853832721809"><ele>477.0</ele><time>2026-03-26T10:21:47.999Z</time></trkpt><trkpt lat="39.00975181044857" lon="8.8159052074452"><ele>477.0</ele><time>2026-03-26T10:21:48.999Z</time></trkpt><trkpt lat="39.009805288529606" lon="8.815952147102786"><ele>476.99999999999994</ele><time>2026-03-26T10:21:49.999Z</time></trkpt><trkpt lat="39.009854278245" lon="8.816009804055904"><ele>477.0</ele><time>2026-03-26T10:21:50.999Z</time></trkpt><trkpt lat="39.00990365295199" lon="8.81607333584375"><ele>477.0</ele><time>2026-03-26T10:21:51.999Z</time></trkpt><trkpt lat="39.00995477633473" lon="8.816134342466874"><ele>476.99999999999994</ele><time>2026-03-26T10:21:52.999Z</time></trkpt><trkpt lat="39.01000495629694" lon="8.81619123001387"><ele>477.0</ele><time>2026-03-26T10:21:53.999Z</time></trkpt><trkpt lat="39.010064257021966" lon="8.816234964902813"><ele>477.0</ele><time>2026-03-26T10:21:54.999Z</time></trkpt><trkpt lat="39.01012560923299" lon="8.81626658572697"><ele>476.0</ele><time>2026-03-26T10:21:55.999Z</time></trkpt><trkpt lat="39.01021278137004" lon="8.816306569299433"><ele>475.0</ele><time>2026-03-26T10:21:57.999Z</time></trkpt><trkpt lat="39.010279351922186" lon="8.816330560390433"><ele>474.0</ele><time>2026-03-26T10:21:59.999Z</time></trkpt><trkpt lat="39.010353345898594" lon="8.816362897763932"><ele>473.0</ele><time>2026-03-26T10:22:03.999Z</time></trkpt><trkpt lat="39.01043860283221" lon="8.816394630233509"><ele>472.0</ele><time>2026-03-26T10:22:05.999Z</time></trkpt><trkpt lat="39.010510572435706" lon="8.816455159130143"><ele>471.0</ele><time>2026-03-26T10:22:07.999Z</time></trkpt><trkpt lat="39.010548314371015" lon="8.816547409409877"><ele>471.0</ele><time>2026-03-26T10:22:09.999Z</time></trkpt><trkpt lat="39.010551982293364" lon="8.816675021455515"><ele>471.0</ele><time>2026-03-26T10:22:11.999Z</time></trkpt><trkpt lat="39.01056301648296" lon="8.816839057933576"><ele>471.0</ele><time>2026-03-26T10:22:13.999Z</time></trkpt><trkpt lat="39.0105775269329" lon="8.816933369805469"><ele>471.0</ele><time>2026-03-26T10:22:14.999Z</time></trkpt><trkpt lat="39.010598059540975" lon="8.81701061607173"><ele>471.0</ele><time>2026-03-26T10:22:15.999Z</time></trkpt><trkpt lat="39.010643725671486" lon="8.817124343348901"><ele>471.20000000000005</ele><time>2026-03-26T10:22:17.999Z</time></trkpt><trkpt lat="39.01074590932046" lon="8.817199796763186"><ele>471.40000000000003</ele><time>2026-03-26T10:22:19.999Z</time></trkpt><trkpt lat="39.01084333262655" lon="8.817256169428697"><ele>471.6</ele><time>2026-03-26T10:22:21.999Z</time></trkpt><trkpt lat="39.010964145082106" lon="8.81727721395321"><ele>471.8</ele><time>2026-03-26T10:22:23.999Z</time></trkpt><trkpt lat="39.01103635716371" lon="8.817269061517358"><ele>472.0</ele><time>2026-03-26T10:22:24.999Z</time></trkpt><trkpt lat="39.01115282205386" lon="8.817297258796282"><ele>472.00000000000006</ele><time>2026-03-26T10:22:26.999Z</time></trkpt><trkpt lat="39.011212945070454" lon="8.817343767041583"><ele>472.0</ele><time>2026-03-26T10:22:27.999Z</time></trkpt><trkpt lat="39.011263337793565" lon="8.817417026225208"><ele>472.0</ele><time>2026-03-26T10:22:28.999Z</time></trkpt><trkpt lat="39.01130735284025" lon="8.81750477932679"><ele>472.0</ele><time>2026-03-26T10:22:29.999Z</time></trkpt><trkpt lat="39.0113528383867" lon="8.817577803055034"><ele>472.00000000000006</ele><time>2026-03-26T10:22:31Z</time></trkpt><trkpt lat="39.011414134769474" lon="8.817633344067978"><ele>472.0</ele><time>2026-03-26T10:22:32Z</time></trkpt><trkpt lat="39.01148785729327" lon="8.8176848765038"><ele>472.33333333333337</ele><time>2026-03-26T10:22:33Z</time></trkpt><trkpt lat="39.01156272897028" lon="8.81772513467883"><ele>472.6666666666667</ele><time>2026-03-26T10:22:34Z</time></trkpt><trkpt lat="39.01161995704629" lon="8.817772639260642"><ele>473.0</ele><time>2026-03-26T10:22:35Z</time></trkpt><trkpt lat="39.01166747612464" lon="8.817841808042605"><ele>473.33333333333337</ele><time>2026-03-26T10:22:36Z</time></trkpt><trkpt lat="39.011687971512664" lon="8.81793214972781"><ele>473.6666666666667</ele><time>2026-03-26T10:22:37Z</time></trkpt><trkpt lat="39.0116869798885" lon="8.818031026033658"><ele>474.0</ele><time>2026-03-26T10:22:38Z</time></trkpt><trkpt lat="39.01166247520886" lon="8.818127248573271"><ele>474.0</ele><time>2026-03-26T10:22:39Z</time></trkpt><trkpt lat="39.01163036560877" lon="8.818221523753659"><ele>474.0</ele><time>2026-03-26T10:22:40Z</time></trkpt><trkpt lat="39.01161873999906" lon="8.818302334018247"><ele>474.0</ele><time>2026-03-26T10:22:41Z</time></trkpt><trkpt lat="39.011633202970756" lon="8.818382589595121"><ele>474.0</ele><time>2026-03-26T10:22:42Z</time></trkpt><trkpt lat="39.011680315742325" lon="8.818468570314938"><ele>474.0</ele><time>2026-03-26T10:22:43Z</time></trkpt><trkpt lat="39.011741007592306" lon="8.81856154038454"><ele>474.0</ele><time>2026-03-26T10:22:44Z</time></trkpt><trkpt lat="39.011794685255126" lon="8.818663186341201"><ele>472.0</ele><time>2026-03-26T10:22:45Z</time></trkpt><trkpt lat="39.01184265683391" lon="8.818760209009454"><ele>470.0</ele><time>2026-03-26T10:22:46Z</time></trkpt><trkpt lat="39.01189398733219" lon="8.818836641506474"><ele>468.0</ele><time>2026-03-26T10:22:47Z</time></trkpt><trkpt lat="39.01196086617208" lon="8.818887913419298"><ele>466.0</ele><time>2026-03-26T10:22:48Z</time></trkpt><trkpt lat="39.01202632538077" lon="8.818899407351946"><ele>464.0</ele><time>2026-03-26T10:22:49Z</time></trkpt><trkpt lat="39.01209145389874" lon="8.81888196563612"><ele>462.0</ele><time>2026-03-26T10:22:50Z</time></trkpt><trkpt lat="39.012159064661375" lon="8.818830584810058"><ele>462.0</ele><time>2026-03-26T10:22:51Z</time></trkpt><trkpt lat="39.01222498518086" lon="8.81875648991739"><ele>462.00000000000006</ele><time>2026-03-26T10:22:52Z</time></trkpt><trkpt lat="39.01230187220823" lon="8.818669945089766"><ele>462.00000000000006</ele><time>2026-03-26T10:22:53Z</time></trkpt><trkpt lat="39.012380874356666" lon="8.818610269987026"><ele>462.0</ele><time>2026-03-26T10:22:54Z</time></trkpt><trkpt lat="39.01247110045654" lon="8.818554982482766"><ele>462.0</ele><time>2026-03-26T10:22:55Z</time></trkpt><trkpt lat="39.012563080975205" lon="8.818503805846376"><ele>466.0</ele><time>2026-03-26T10:22:56Z</time></trkpt><trkpt lat="39.01262860032886" lon="8.81844903535053"><ele>470.0</ele><time>2026-03-26T10:22:57Z</time></trkpt><trkpt lat="39.01268765478736" lon="8.818370541446694"><ele>474.0</ele><time>2026-03-26T10:22:58Z</time></trkpt><trkpt lat="39.012738314365855" lon="8.818271239850992"><ele>478.0</ele><time>2026-03-26T10:22:59Z</time></trkpt><trkpt lat="39.01279516161265" lon="8.818178865745123"><ele>482.0</ele><time>2026-03-26T10:23:00Z</time></trkpt><trkpt lat="39.01285797828271" lon="8.81809855752218"><ele>486.0</ele><time>2026-03-26T10:23:01Z</time></trkpt><trkpt lat="39.01291062964246" lon="8.818032144500949"><ele>486.0</ele><time>2026-03-26T10:23:02Z</time></trkpt><trkpt lat="39.012974214380776" lon="8.817917346787192"><ele>486.0</ele><time>2026-03-26T10:23:04Z</time></trkpt><trkpt lat="39.013042797942404" lon="8.817862058713441"><ele>486.0</ele><time>2026-03-26T10:23:06Z</time></trkpt><trkpt lat="39.01314261726748" lon="8.817909028715471"><ele>486.0</ele><time>2026-03-26T10:23:08Z</time></trkpt><trkpt lat="39.01319236989018" lon="8.817974638515087"><ele>486.0</ele><time>2026-03-26T10:23:09Z</time></trkpt><trkpt lat="39.01324264282435" lon="8.818039127427381"><ele>486.0</ele><time>2026-03-26T10:23:10Z</time></trkpt><trkpt lat="39.01329325712594" lon="8.818101457941454"><ele>484.85714285714283</ele><time>2026-03-26T10:23:11Z</time></trkpt><trkpt lat="39.01334380432817" lon="8.81816515059605"><ele>483.7142857142858</ele><time>2026-03-26T10:23:12Z</time></trkpt><trkpt lat="39.01340396507392" lon="8.818221633646576"><ele>482.5714285714286</ele><time>2026-03-26T10:23:13Z</time></trkpt><trkpt lat="39.013466992680804" lon="8.818269814098551"><ele>481.42857142857144</ele><time>2026-03-26T10:23:14Z</time></trkpt><trkpt lat="39.013538693992416" lon="8.818301229785297"><ele>480.28571428571433</ele><time>2026-03-26T10:23:15Z</time></trkpt><trkpt lat="39.01360956476153" lon="8.818319723435236"><ele>479.1428571428572</ele><time>2026-03-26T10:23:16Z</time></trkpt><trkpt lat="39.013683715300246" lon="8.818328281811745"><ele>478.00000000000006</ele><time>2026-03-26T10:23:17Z</time></trkpt><trkpt lat="39.01376080649527" lon="8.81833359491483"><ele>478.00000000000006</ele><time>2026-03-26T10:23:18Z</time></trkpt><trkpt lat="39.0138399059204" lon="8.818341813218442"><ele>478.0</ele><time>2026-03-26T10:23:19Z</time></trkpt><trkpt lat="39.01391845385723" lon="8.818352999960194"><ele>478.00000000000006</ele><time>2026-03-26T10:23:20Z</time></trkpt><trkpt lat="39.01398969552716" lon="8.818358446284511"><ele>478.00000000000006</ele><time>2026-03-26T10:23:21Z</time></trkpt><trkpt lat="39.014053264880864" lon="8.818357635518982"><ele>478.0</ele><time>2026-03-26T10:23:22Z</time></trkpt><trkpt lat="39.01411774598119" lon="8.818350005318644"><ele>478.00000000000006</ele><time>2026-03-26T10:23:23Z</time></trkpt><trkpt lat="39.0141838206719" lon="8.818327736817904"><ele>478.00000000000006</ele><time>2026-03-26T10:23:24Z</time></trkpt><trkpt lat="39.01424875485904" lon="8.818285948079241"><ele>478.83333333333337</ele><time>2026-03-26T10:23:25Z</time></trkpt><trkpt lat="39.01430755954364" lon="8.818229496366094"><ele>479.6666666666667</ele><time>2026-03-26T10:23:26Z</time></trkpt><trkpt lat="39.01436679950831" lon="8.818145787173261"><ele>480.5</ele><time>2026-03-26T10:23:27Z</time></trkpt><trkpt lat="39.014413596626156" lon="8.81807236513365"><ele>481.33333333333337</ele><time>2026-03-26T10:23:28Z</time></trkpt><trkpt lat="39.01449504930906" lon="8.81799047950054"><ele>482.1666666666667</ele><time>2026-03-26T10:23:30Z</time></trkpt><trkpt lat="39.014586644454255" lon="8.817981478764821"><ele>483.0</ele><time>2026-03-26T10:23:32Z</time></trkpt><trkpt lat="39.01467708622398" lon="8.818066562927443"><ele>483.0</ele><time>2026-03-26T10:23:34Z</time></trkpt><trkpt lat="39.01471404868913" lon="8.818143707785186"><ele>482.99999999999994</ele><time>2026-03-26T10:23:35Z</time></trkpt><trkpt lat="39.01478851807125" lon="8.818259998353609"><ele>482.99999999999994</ele><time>2026-03-26T10:23:37Z</time></trkpt><trkpt lat="39.0148534584736" lon="8.818336402287118"><ele>483.0</ele><time>2026-03-26T10:23:38.999Z</time></trkpt><trkpt lat="39.014935286868486" lon="8.818431548061572"><ele>483.0</ele><time>2026-03-26T10:24:20.999Z</time></trkpt><trkpt lat="39.01500066086939" lon="8.818497029816074"><ele>480.0</ele><time>2026-03-26T10:24:21.999Z</time></trkpt><trkpt lat="39.01507559120927" lon="8.818565334498752"><ele>477.0</ele><time>2026-03-26T10:24:22.999Z</time></trkpt><trkpt lat="39.015150810510164" lon="8.818619683821984"><ele>474.0</ele><time>2026-03-26T10:24:23.999Z</time></trkpt><trkpt lat="39.01523163756596" lon="8.818654897251102"><ele>471.0</ele><time>2026-03-26T10:24:24.999Z</time></trkpt><trkpt lat="39.01530910344669" lon="8.818680355036225"><ele>468.0</ele><time>2026-03-26T10:24:25.999Z</time></trkpt><trkpt lat="39.01537399188857" lon="8.818708801414608"><ele>465.0</ele><time>2026-03-26T10:24:26.999Z</time></trkpt><trkpt lat="39.01542895557753" lon="8.818757631505234"><ele>465.0</ele><time>2026-03-26T10:24:27.999Z</time></trkpt><trkpt lat="39.01546826668811" lon="8.818836574993597"><ele>465.0</ele><time>2026-03-26T10:24:28.999Z</time></trkpt><trkpt lat="39.015489404293845" lon="8.818942795062405"><ele>465.0</ele><time>2026-03-26T10:24:29.999Z</time></trkpt><trkpt lat="39.0155115350934" lon="8.819049671152028"><ele>465.0</ele><time>2026-03-26T10:24:30.999Z</time></trkpt><trkpt lat="39.015547311963275" lon="8.819151490865819"><ele>465.0</ele><time>2026-03-26T10:24:31.999Z</time></trkpt><trkpt lat="39.01558517675002" lon="8.8192557355261"><ele>465.0</ele><time>2026-03-26T10:24:32.999Z</time></trkpt><trkpt lat="39.01561590194915" lon="8.819363070852988"><ele>462.6</ele><time>2026-03-26T10:24:33.999Z</time></trkpt><trkpt lat="39.015628392610736" lon="8.819471876682828"><ele>460.2</ele><time>2026-03-26T10:24:34.999Z</time></trkpt><trkpt lat="39.015636993687394" lon="8.819575146275044"><ele>457.79999999999995</ele><time>2026-03-26T10:24:36Z</time></trkpt><trkpt lat="39.01564553002332" lon="8.819656149731662"><ele>455.4</ele><time>2026-03-26T10:24:37Z</time></trkpt><trkpt lat="39.01571917832014" lon="8.819776259199916"><ele>453.0</ele><time>2026-03-26T10:24:39Z</time></trkpt><trkpt lat="39.015833468972694" lon="8.819770391479256"><ele>458.5</ele><time>2026-03-26T10:24:41Z</time></trkpt><trkpt lat="39.01589839523217" lon="8.819731133325028"><ele>464.0</ele><time>2026-03-26T10:24:42Z</time></trkpt><trkpt lat="39.01599730681409" lon="8.819699607367099"><ele>469.5</ele><time>2026-03-26T10:24:44Z</time></trkpt><trkpt lat="39.01606629708207" lon="8.8197493526403"><ele>475.0</ele><time>2026-03-26T10:24:46Z</time></trkpt><trkpt lat="39.01609492317092" lon="8.819833161956803"><ele>480.5</ele><time>2026-03-26T10:24:48Z</time></trkpt><trkpt lat="39.01606041454981" lon="8.81995805654352"><ele>486.0</ele><time>2026-03-26T10:24:50Z</time></trkpt><trkpt lat="39.01605477793486" lon="8.82005852806504"><ele>485.6666666666667</ele><time>2026-03-26T10:24:51Z</time></trkpt><trkpt lat="39.01604324824106" lon="8.820158455697824"><ele>485.33333333333337</ele><time>2026-03-26T10:24:52Z</time></trkpt><trkpt lat="39.01602026500296" lon="8.820267897842946"><ele>485.0</ele><time>2026-03-26T10:24:53Z</time></trkpt><trkpt lat="39.015991657016514" lon="8.820384588257001"><ele>484.6666666666667</ele><time>2026-03-26T10:24:54Z</time></trkpt><trkpt lat="39.01595398456287" lon="8.820494042531342"><ele>484.33333333333337</ele><time>2026-03-26T10:24:55Z</time></trkpt><trkpt lat="39.01591757396983" lon="8.820590908077936"><ele>484.0</ele><time>2026-03-26T10:24:56Z</time></trkpt><trkpt lat="39.01589433996788" lon="8.820674588951885"><ele>484.0</ele><time>2026-03-26T10:24:57Z</time></trkpt><trkpt lat="39.01593328244411" lon="8.820833319502709"><ele>484.0</ele><time>2026-03-26T10:24:59Z</time></trkpt><trkpt lat="39.01597942130681" lon="8.820924610244075"><ele>484.0</ele><time>2026-03-26T10:25:00Z</time></trkpt><trkpt lat="39.01602035250935" lon="8.821025700824434"><ele>484.0</ele><time>2026-03-26T10:25:01Z</time></trkpt><trkpt lat="39.01605473297048" lon="8.821129577094467"><ele>484.0</ele><time>2026-03-26T10:25:02Z</time></trkpt><trkpt lat="39.01607837386517" lon="8.821236169403823"><ele>483.2</ele><time>2026-03-26T10:25:03Z</time></trkpt><trkpt lat="39.01610318307068" lon="8.821340383146536"><ele>482.4</ele><time>2026-03-26T10:25:04Z</time></trkpt><trkpt lat="39.01613252898605" lon="8.821448151797329"><ele>481.6</ele><time>2026-03-26T10:25:05Z</time></trkpt><trkpt lat="39.01615021924486" lon="8.821545127637096"><ele>480.8</ele><time>2026-03-26T10:25:06Z</time></trkpt><trkpt lat="39.01621033406622" lon="8.821636566597846"><ele>480.0</ele><time>2026-03-26T10:25:08Z</time></trkpt><trkpt lat="39.01630421920345" lon="8.821762297596628"><ele>479.1666666666667</ele><time>2026-03-26T10:25:10Z</time></trkpt><trkpt lat="39.016367370075486" lon="8.821889952891036"><ele>478.33333333333337</ele><time>2026-03-26T10:25:12Z</time></trkpt><trkpt lat="39.01640813222237" lon="8.822036098969658"><ele>477.5</ele><time>2026-03-26T10:25:14Z</time></trkpt><trkpt lat="39.01643903455342" lon="8.822118067376476"><ele>476.6666666666667</ele><time>2026-03-26T10:25:15Z</time></trkpt><trkpt lat="39.01647724004887" lon="8.822191212971784"><ele>475.83333333333337</ele><time>2026-03-26T10:25:16Z</time></trkpt><trkpt lat="39.01651942750315" lon="8.822258064107299"><ele>475.0</ele><time>2026-03-26T10:25:17Z</time></trkpt><trkpt lat="39.016570362531475" lon="8.822318697638137"><ele>475.00000000000006</ele><time>2026-03-26T10:25:18Z</time></trkpt><trkpt lat="39.016629604026" lon="8.822369120433287"><ele>475.0</ele><time>2026-03-26T10:25:19Z</time></trkpt><trkpt lat="39.016692808924056" lon="8.822406763561084"><ele>475.0</ele><time>2026-03-26T10:25:20Z</time></trkpt><trkpt lat="39.01676312902209" lon="8.822423118900389"><ele>475.0</ele><time>2026-03-26T10:25:21Z</time></trkpt><trkpt lat="39.01685225901529" lon="8.822406961941008"><ele>475.00000000000006</ele><time>2026-03-26T10:25:22Z</time></trkpt><trkpt lat="39.01694189573976" lon="8.82238630272499"><ele>475.0</ele><time>2026-03-26T10:25:23Z</time></trkpt><trkpt lat="39.017029104115956" lon="8.822367803708161"><ele>478.28571428571433</ele><time>2026-03-26T10:25:24Z</time></trkpt><trkpt lat="39.017101382186915" lon="8.822355600689084"><ele>481.5714285714286</ele><time>2026-03-26T10:25:25Z</time></trkpt><trkpt lat="39.01716625751371" lon="8.822333874525823"><ele>484.8571428571429</ele><time>2026-03-26T10:25:26Z</time></trkpt><trkpt lat="39.01722809890176" lon="8.822315969900203"><ele>488.1428571428571</ele><time>2026-03-26T10:25:27Z</time></trkpt><trkpt lat="39.017294470007315" lon="8.822312517304177"><ele>491.4285714285714</ele><time>2026-03-26T10:25:28Z</time></trkpt><trkpt lat="39.01736579302339" lon="8.82231769724348"><ele>494.71428571428567</ele><time>2026-03-26T10:25:29Z</time></trkpt><trkpt lat="39.01746901589265" lon="8.822308972935508"><ele>498.0</ele><time>2026-03-26T10:25:31Z</time></trkpt><trkpt lat="39.017503158356625" lon="8.822391108609418"><ele>498.0</ele><time>2026-03-26T10:25:33Z</time></trkpt><trkpt lat="39.0174729962649" lon="8.82250412543893"><ele>497.99999999999994</ele><time>2026-03-26T10:25:35Z</time></trkpt><trkpt lat="39.01736925667828" lon="8.822603095399545"><ele>497.99999999999994</ele><time>2026-03-26T10:25:37Z</time></trkpt><trkpt lat="39.017290700670586" lon="8.822644634628764"><ele>498.0</ele><time>2026-03-26T10:25:38Z</time></trkpt><trkpt lat="39.01721086790183" lon="8.822690408307333"><ele>498.0</ele><time>2026-03-26T10:25:39Z</time></trkpt><trkpt lat="39.017129875130806" lon="8.822742522452636"><ele>499.1666666666667</ele><time>2026-03-26T10:25:40Z</time></trkpt><trkpt lat="39.017057864934856" lon="8.822798132177835"><ele>500.33333333333337</ele><time>2026-03-26T10:25:41Z</time></trkpt><trkpt lat="39.01698954350413" lon="8.822851223250398"><ele>501.5</ele><time>2026-03-26T10:25:42Z</time></trkpt><trkpt lat="39.01692589014845" lon="8.822896580819291"><ele>502.6666666666667</ele><time>2026-03-26T10:25:43Z</time></trkpt><trkpt lat="39.01685828026128" lon="8.822946747888922"><ele>503.83333333333337</ele><time>2026-03-26T10:25:44Z</time></trkpt><trkpt lat="39.01679325269994" lon="8.82298929867282"><ele>505.0</ele><time>2026-03-26T10:25:45Z</time></trkpt><trkpt lat="39.016734395423" lon="8.823028151109893"><ele>501.33333333333337</ele><time>2026-03-26T10:25:46Z</time></trkpt><trkpt lat="39.0166144334025" lon="8.823066183681872"><ele>497.6666666666667</ele><time>2026-03-26T10:25:48Z</time></trkpt><trkpt lat="39.016550335732795" lon="8.823059435768954"><ele>494.0</ele><time>2026-03-26T10:25:49Z</time></trkpt><trkpt lat="39.01647755580246" lon="8.823040063416885"><ele>490.33333333333337</ele><time>2026-03-26T10:25:49.999Z</time></trkpt><trkpt lat="39.01639245902823" lon="8.823013442980345"><ele>486.6666666666667</ele><time>2026-03-26T10:25:50.999Z</time></trkpt><trkpt lat="39.016306933345035" lon="8.82298696466586"><ele>483.0</ele><time>2026-03-26T10:25:51.999Z</time></trkpt><trkpt lat="39.01624059700921" lon="8.82295969091576"><ele>483.0</ele><time>2026-03-26T10:25:52.999Z</time></trkpt><trkpt lat="39.01617524903318" lon="8.822938238335357"><ele>483.0</ele><time>2026-03-26T10:25:53.999Z</time></trkpt><trkpt lat="39.01607173898862" lon="8.82295910121591"><ele>483.0</ele><time>2026-03-26T10:25:55.999Z</time></trkpt><trkpt lat="39.01604040491441" lon="8.823093080681614"><ele>483.0</ele><time>2026-03-26T10:25:57.999Z</time></trkpt><trkpt lat="39.016050476920235" lon="8.823178175515347"><ele>483.0</ele><time>2026-03-26T10:25:58.999Z</time></trkpt><trkpt lat="39.01607691664865" lon="8.823271975930725"><ele>483.0</ele><time>2026-03-26T10:25:59.999Z</time></trkpt><trkpt lat="39.01610364650743" lon="8.823378403917562"><ele>483.0</ele><time>2026-03-26T10:26:00.999Z</time></trkpt><trkpt lat="39.01613053301942" lon="8.8234794165613"><ele>483.0</ele><time>2026-03-26T10:26:01.999Z</time></trkpt><trkpt lat="39.016151489492245" lon="8.823566675029163"><ele>483.0</ele><time>2026-03-26T10:26:02.999Z</time></trkpt><trkpt lat="39.01618203793158" lon="8.823701095595112"><ele>483.0</ele><time>2026-03-26T10:26:04.999Z</time></trkpt><trkpt lat="39.01617981104023" lon="8.823852411893972"><ele>483.0</ele><time>2026-03-26T10:26:06.999Z</time></trkpt><trkpt lat="39.01615927172573" lon="8.823933696245858"><ele>483.0</ele><time>2026-03-26T10:26:07.999Z</time></trkpt><trkpt lat="39.01613610874803" lon="8.82401634539962"><ele>483.0</ele><time>2026-03-26T10:26:08.999Z</time></trkpt><trkpt lat="39.01611614306879" lon="8.82409410132651"><ele>482.99999999999994</ele><time>2026-03-26T10:26:09.999Z</time></trkpt><trkpt lat="39.016091237006876" lon="8.824215662509525"><ele>482.99999999999994</ele><time>2026-03-26T10:26:11.999Z</time></trkpt><trkpt lat="39.016066631917816" lon="8.824341380144677"><ele>483.0</ele><time>2026-03-26T10:26:13.999Z</time></trkpt><trkpt lat="39.016071544712524" lon="8.824471752033805"><ele>483.0</ele><time>2026-03-26T10:26:15.999Z</time></trkpt><trkpt lat="39.016081149957536" lon="8.824600269347798"><ele>483.79999999999995</ele><time>2026-03-26T10:26:17.999Z</time></trkpt><trkpt lat="39.01609859536125" lon="8.824718039993552"><ele>484.59999999999997</ele><time>2026-03-26T10:26:19.999Z</time></trkpt><trkpt lat="39.01612174250022" lon="8.824846702270781"><ele>485.40000000000003</ele><time>2026-03-26T10:26:21.999Z</time></trkpt><trkpt lat="39.01616686924529" lon="8.82496180459573"><ele>486.20000000000005</ele><time>2026-03-26T10:26:23.999Z</time></trkpt><trkpt lat="39.01623298457873" lon="8.825071042627636"><ele>487.0</ele><time>2026-03-26T10:26:25.999Z</time></trkpt><trkpt lat="39.016298809721626" lon="8.825193564665792"><ele>488.0</ele><time>2026-03-26T10:26:27.999Z</time></trkpt><trkpt lat="39.01635560374191" lon="8.825323981509172"><ele>489.00000000000006</ele><time>2026-03-26T10:26:29.999Z</time></trkpt><trkpt lat="39.01639453414787" lon="8.82547930846008"><ele>490.00000000000006</ele><time>2026-03-26T10:26:31.999Z</time></trkpt><trkpt lat="39.016394747731354" lon="8.825566608561125"><ele>491.0</ele><time>2026-03-26T10:26:32.999Z</time></trkpt><trkpt lat="39.01638853035308" lon="8.82572719992882"><ele>492.0</ele><time>2026-03-26T10:26:34.999Z</time></trkpt><trkpt lat="39.01640123000517" lon="8.825871332929847"><ele>495.1666666666667</ele><time>2026-03-26T10:26:36.999Z</time></trkpt><trkpt lat="39.01642094817625" lon="8.826017190039599"><ele>498.33333333333337</ele><time>2026-03-26T10:26:38.999Z</time></trkpt><trkpt lat="39.016451398132695" lon="8.826138437350123"><ele>501.5</ele><time>2026-03-26T10:26:40.999Z</time></trkpt><trkpt lat="39.01648635968419" lon="8.82620981126419"><ele>504.6666666666667</ele><time>2026-03-26T10:26:43Z</time></trkpt><trkpt lat="39.016532262229504" lon="8.826266507623057"><ele>507.83333333333337</ele><time>2026-03-26T10:27:22Z</time></trkpt><trkpt lat="39.016607331540655" lon="8.826345832915367"><ele>511.0</ele><time>2026-03-26T10:27:24Z</time></trkpt><trkpt lat="39.016651122516606" lon="8.826406960297469"><ele>507.6</ele><time>2026-03-26T10:27:26Z</time></trkpt><trkpt lat="39.01670126900726" lon="8.826482037212568"><ele>504.20000000000005</ele><time>2026-03-26T10:27:28Z</time></trkpt><trkpt lat="39.016769561748305" lon="8.826572145896721"><ele>500.79999999999995</ele><time>2026-03-26T10:27:30Z</time></trkpt><trkpt lat="39.01684996248476" lon="8.82662240737573"><ele>497.4</ele><time>2026-03-26T10:27:32Z</time></trkpt><trkpt lat="39.01694931285778" lon="8.82665026773393"><ele>494.0</ele><time>2026-03-26T10:27:34Z</time></trkpt><trkpt lat="39.01706739776851" lon="8.826702154835502"><ele>494.0</ele><time>2026-03-26T10:27:36Z</time></trkpt><trkpt lat="39.01717473648377" lon="8.826773899580175"><ele>494.0</ele><time>2026-03-26T10:27:38Z</time></trkpt><trkpt lat="39.017260421699156" lon="8.826879306411623"><ele>494.0</ele><time>2026-03-26T10:27:40Z</time></trkpt><trkpt lat="39.01732828693426" lon="8.826973528227064"><ele>494.0</ele><time>2026-03-26T10:27:42Z</time></trkpt><trkpt lat="39.01738189078257" lon="8.827091022088704"><ele>494.0</ele><time>2026-03-26T10:27:44Z</time></trkpt><trkpt lat="39.017409266597845" lon="8.827179152885922"><ele>493.99999999999994</ele><time>2026-03-26T10:27:46Z</time></trkpt><trkpt lat="39.01737675216007" lon="8.827109056395729"><ele>494.0</ele><time>2026-03-26T10:35:23Z</time></trkpt><trkpt lat="39.01734091462961" lon="8.82699208091664"><ele>494.0</ele><time>2026-03-26T10:35:26Z</time></trkpt><trkpt lat="39.01729507536992" lon="8.826903567083"><ele>494.0</ele><time>2026-03-26T10:35:29Z</time></trkpt><trkpt lat="39.017231358967756" lon="8.82681602382312"><ele>493.99999999999994</ele><time>2026-03-26T10:35:31Z</time></trkpt><trkpt lat="39.017150974127574" lon="8.826746690040451"><ele>494.0</ele><time>2026-03-26T10:35:33Z</time></trkpt><trkpt lat="39.01705297773061" lon="8.826688517842163"><ele>493.99999999999994</ele><time>2026-03-26T10:35:35Z</time></trkpt><trkpt lat="39.01695490619979" lon="8.826640255032265"><ele>494.0</ele><time>2026-03-26T10:35:37Z</time></trkpt><trkpt lat="39.01687193366796" lon="8.826620197188511"><ele>494.0</ele><time>2026-03-26T10:35:39Z</time></trkpt><trkpt lat="39.016809469893204" lon="8.826569471351101"><ele>494.0</ele><time>2026-03-26T10:35:42Z</time></trkpt><trkpt lat="39.01673540812929" lon="8.826494339358074"><ele>493.99999999999994</ele><time>2026-03-26T10:35:45Z</time></trkpt><trkpt lat="39.016678792107896" lon="8.826410331086437"><ele>494.0</ele><time>2026-03-26T10:35:47Z</time></trkpt><trkpt lat="39.016620838904174" lon="8.826338752331537"><ele>493.6</ele><time>2026-03-26T10:35:49Z</time></trkpt><trkpt lat="39.016573594398686" lon="8.826267023301536"><ele>493.2</ele><time>2026-03-26T10:35:51Z</time></trkpt><trkpt lat="39.0165085689863" lon="8.826189334209708"><ele>492.80000000000007</ele><time>2026-03-26T10:35:53Z</time></trkpt><trkpt lat="39.016452888431594" lon="8.826062941342395"><ele>492.40000000000003</ele><time>2026-03-26T10:35:55Z</time></trkpt><trkpt lat="39.01642093720376" lon="8.825894825810058"><ele>492.0</ele><time>2026-03-26T10:35:57Z</time></trkpt><trkpt lat="39.01641115972442" lon="8.825794904768001"><ele>492.00000000000006</ele><time>2026-03-26T10:35:58Z</time></trkpt><trkpt lat="39.01640378752219" lon="8.825697640574834"><ele>492.0</ele><time>2026-03-26T10:35:59Z</time></trkpt><trkpt lat="39.01639315816623" lon="8.825608009726729"><ele>492.00000000000006</ele><time>2026-03-26T10:36:00Z</time></trkpt><trkpt lat="39.01639751336763" lon="8.825511512629195"><ele>492.00000000000006</ele><time>2026-03-26T10:36:01Z</time></trkpt><trkpt lat="39.016389028602" lon="8.825424269978337"><ele>492.0</ele><time>2026-03-26T10:36:02Z</time></trkpt><trkpt lat="39.016359955784424" lon="8.825340337284446"><ele>492.00000000000006</ele><time>2026-03-26T10:36:03Z</time></trkpt><trkpt lat="39.01631897779704" lon="8.825263881671436"><ele>492.00000000000006</ele><time>2026-03-26T10:36:04Z</time></trkpt><trkpt lat="39.01626829203259" lon="8.825185016012796"><ele>491.1666666666667</ele><time>2026-03-26T10:36:05Z</time></trkpt><trkpt lat="39.01622105831885" lon="8.825100493840063"><ele>490.33333333333337</ele><time>2026-03-26T10:36:06Z</time></trkpt><trkpt lat="39.01618060287616" lon="8.825024605702781"><ele>489.5</ele><time>2026-03-26T10:36:07Z</time></trkpt><trkpt lat="39.01614315965925" lon="8.824937060590337"><ele>488.6666666666667</ele><time>2026-03-26T10:36:08Z</time></trkpt><trkpt lat="39.016113731191595" lon="8.82485453995312"><ele>487.83333333333337</ele><time>2026-03-26T10:36:09Z</time></trkpt><trkpt lat="39.01610077265156" lon="8.82477324132614"><ele>487.0</ele><time>2026-03-26T10:36:10Z</time></trkpt><trkpt lat="39.01608970073414" lon="8.824601353956139"><ele>487.00000000000006</ele><time>2026-03-26T10:36:12Z</time></trkpt><trkpt lat="39.016081956095405" lon="8.824518048927919"><ele>487.0</ele><time>2026-03-26T10:36:13Z</time></trkpt><trkpt lat="39.01607334124154" lon="8.82438304893858"><ele>487.0</ele><time>2026-03-26T10:36:15Z</time></trkpt><trkpt lat="39.01608905692929" lon="8.824256355831565"><ele>487.0</ele><time>2026-03-26T10:36:17Z</time></trkpt><trkpt lat="39.01610202855015" lon="8.824176220188859"><ele>487.00000000000006</ele><time>2026-03-26T10:36:18Z</time></trkpt><trkpt lat="39.016123352352956" lon="8.824085978131992"><ele>487.0</ele><time>2026-03-26T10:36:19Z</time></trkpt><trkpt lat="39.01614359751534" lon="8.823988847529634"><ele>486.33333333333337</ele><time>2026-03-26T10:36:20Z</time></trkpt><trkpt lat="39.01616699605524" lon="8.823892636294"><ele>485.6666666666667</ele><time>2026-03-26T10:36:21Z</time></trkpt><trkpt lat="39.016181398257764" lon="8.823796445872382"><ele>485.0</ele><time>2026-03-26T10:36:22Z</time></trkpt><trkpt lat="39.01615961395873" lon="8.8237172958808"><ele>484.33333333333337</ele><time>2026-03-26T10:36:23Z</time></trkpt><trkpt lat="39.01615438466426" lon="8.823628866095952"><ele>483.6666666666667</ele><time>2026-03-26T10:36:24Z</time></trkpt><trkpt lat="39.0161138330108" lon="8.823479008037543"><ele>483.0</ele><time>2026-03-26T10:36:26Z</time></trkpt><trkpt lat="39.016100807525" lon="8.823399460373148"><ele>483.0</ele><time>2026-03-26T10:36:27Z</time></trkpt><trkpt lat="39.01608606248879" lon="8.823315818483833"><ele>483.0</ele><time>2026-03-26T10:36:28Z</time></trkpt><trkpt lat="39.016069204982685" lon="8.823228200539445"><ele>483.0</ele><time>2026-03-26T10:36:29Z</time></trkpt><trkpt lat="39.01605631942572" lon="8.823140549403199"><ele>483.0</ele><time>2026-03-26T10:36:30Z</time></trkpt><trkpt lat="39.01605911292783" lon="8.82301366623141"><ele>483.0</ele><time>2026-03-26T10:36:32Z</time></trkpt><trkpt lat="39.016130178619974" lon="8.822951047669077"><ele>483.0</ele><time>2026-03-26T10:36:34Z</time></trkpt><trkpt lat="39.01619780777565" lon="8.822963336232549"><ele>483.0</ele><time>2026-03-26T10:36:35Z</time></trkpt><trkpt lat="39.016276249767486" lon="8.822993885226058"><ele>483.0</ele><time>2026-03-26T10:36:36Z</time></trkpt><trkpt lat="39.01636173196027" lon="8.823020459908909"><ele>483.0</ele><time>2026-03-26T10:36:37Z</time></trkpt><trkpt lat="39.01645505238081" lon="8.82305042256903"><ele>483.0</ele><time>2026-03-26T10:36:38Z</time></trkpt><trkpt lat="39.01654694903557" lon="8.823076577057426"><ele>483.0</ele><time>2026-03-26T10:36:39Z</time></trkpt><trkpt lat="39.016614381548585" lon="8.82307962929026"><ele>483.0</ele><time>2026-03-26T10:36:40Z</time></trkpt><trkpt lat="39.0166796144727" lon="8.823067479082246"><ele>487.4</ele><time>2026-03-26T10:36:41Z</time></trkpt><trkpt lat="39.01674688074169" lon="8.823037258102438"><ele>491.79999999999995</ele><time>2026-03-26T10:36:42Z</time></trkpt><trkpt lat="39.01682053196532" lon="8.822986826756505"><ele>496.2</ele><time>2026-03-26T10:36:42.999Z</time></trkpt><trkpt lat="39.016903161602876" lon="8.8229209313752"><ele>500.6</ele><time>2026-03-26T10:36:43.999Z</time></trkpt><trkpt lat="39.016993969475934" lon="8.822861071142759"><ele>505.0</ele><time>2026-03-26T10:36:44.999Z</time></trkpt><trkpt lat="39.017087446645746" lon="8.822789039889582"><ele>505.0</ele><time>2026-03-26T10:36:45.999Z</time></trkpt><trkpt lat="39.01718039782433" lon="8.822714232599841"><ele>505.0</ele><time>2026-03-26T10:36:46.999Z</time></trkpt><trkpt lat="39.01726342404904" lon="8.82265431045247"><ele>505.0</ele><time>2026-03-26T10:36:47.999Z</time></trkpt><trkpt lat="39.017331099058715" lon="8.82261865563015"><ele>505.0</ele><time>2026-03-26T10:36:48.999Z</time></trkpt><trkpt lat="39.017390315743555" lon="8.822588901042236"><ele>505.0</ele><time>2026-03-26T10:36:49.999Z</time></trkpt><trkpt lat="39.01747834563446" lon="8.822495968826185"><ele>503.83333333333337</ele><time>2026-03-26T10:36:51.999Z</time></trkpt><trkpt lat="39.01750389536882" lon="8.822391490705574"><ele>502.6666666666667</ele><time>2026-03-26T10:36:53.999Z</time></trkpt><trkpt lat="39.01746367819115" lon="8.822303944278737"><ele>501.5</ele><time>2026-03-26T10:36:55.999Z</time></trkpt><trkpt lat="39.017368654046145" lon="8.822322110156819"><ele>500.33333333333337</ele><time>2026-03-26T10:36:57.999Z</time></trkpt><trkpt lat="39.01729278722137" lon="8.822338307947154"><ele>499.1666666666667</ele><time>2026-03-26T10:36:58.999Z</time></trkpt><trkpt lat="39.017202672446864" lon="8.822333297345297"><ele>498.0</ele><time>2026-03-26T10:36:59.999Z</time></trkpt><trkpt lat="39.017113733574085" lon="8.82234361263714"><ele>498.0</ele><time>2026-03-26T10:37:00.999Z</time></trkpt><trkpt lat="39.01701948366489" lon="8.822373808923246"><ele>498.0</ele><time>2026-03-26T10:37:01.999Z</time></trkpt><trkpt lat="39.0169327037795" lon="8.822388433919196"><ele>498.0</ele><time>2026-03-26T10:37:02.999Z</time></trkpt><trkpt lat="39.01684554240396" lon="8.822391120288037"><ele>498.0</ele><time>2026-03-26T10:37:03.999Z</time></trkpt><trkpt lat="39.01676918279335" lon="8.822393387268328"><ele>498.0</ele><time>2026-03-26T10:37:04.999Z</time></trkpt><trkpt lat="39.01670372666512" lon="8.822394137477682"><ele>498.0</ele><time>2026-03-26T10:37:05.999Z</time></trkpt><trkpt lat="39.016598379484265" lon="8.822344753343874"><ele>494.71428571428567</ele><time>2026-03-26T10:37:07.999Z</time></trkpt><trkpt lat="39.01654614006423" lon="8.822286859608177"><ele>491.4285714285714</ele><time>2026-03-26T10:37:08.999Z</time></trkpt><trkpt lat="39.01649520031695" lon="8.822221010629951"><ele>488.1428571428571</ele><time>2026-03-26T10:37:09.999Z</time></trkpt><trkpt lat="39.01645132834898" lon="8.822147069871612"><ele>484.8571428571429</ele><time>2026-03-26T10:37:11Z</time></trkpt><trkpt lat="39.01641953794019" lon="8.822068718103342"><ele>481.5714285714286</ele><time>2026-03-26T10:37:12Z</time></trkpt><trkpt lat="39.01638903471431" lon="8.821996446392472"><ele>478.28571428571433</ele><time>2026-03-26T10:37:13Z</time></trkpt><trkpt lat="39.01635768433586" lon="8.821922407863196"><ele>475.0</ele><time>2026-03-26T10:37:14Z</time></trkpt><trkpt lat="39.01632725061393" lon="8.821838192078292"><ele>475.83333333333337</ele><time>2026-03-26T10:37:15Z</time></trkpt><trkpt lat="39.01628139936444" lon="8.821763526927125"><ele>476.6666666666667</ele><time>2026-03-26T10:37:16Z</time></trkpt><trkpt lat="39.016238213992935" lon="8.821691557399594"><ele>477.5</ele><time>2026-03-26T10:37:17Z</time></trkpt><trkpt lat="39.01618668935656" lon="8.821614357133923"><ele>478.33333333333337</ele><time>2026-03-26T10:37:18Z</time></trkpt><trkpt lat="39.01612016777904" lon="8.821491343388075"><ele>479.1666666666667</ele><time>2026-03-26T10:37:20Z</time></trkpt><trkpt lat="39.016099951541634" lon="8.821412862988183"><ele>480.0</ele><time>2026-03-26T10:37:21Z</time></trkpt><trkpt lat="39.0160870411498" lon="8.821333215717202"><ele>480.0</ele><time>2026-03-26T10:37:22Z</time></trkpt><trkpt lat="39.01604727460062" lon="8.821183750927666"><ele>480.0</ele><time>2026-03-26T10:37:24Z</time></trkpt><trkpt lat="39.01602804019913" lon="8.821103477190373"><ele>480.0</ele><time>2026-03-26T10:37:25Z</time></trkpt><trkpt lat="39.016006872351696" lon="8.821018261328685"><ele>480.0</ele><time>2026-03-26T10:37:26Z</time></trkpt><trkpt lat="39.01598081473306" lon="8.820936221174602"><ele>480.0</ele><time>2026-03-26T10:37:27Z</time></trkpt><trkpt lat="39.015925791435436" lon="8.820806988864792"><ele>480.0</ele><time>2026-03-26T10:37:29Z</time></trkpt><trkpt lat="39.015905017214145" lon="8.820683973025474"><ele>480.6666666666667</ele><time>2026-03-26T10:37:31Z</time></trkpt><trkpt lat="39.0159357022466" lon="8.820539567328037"><ele>481.33333333333337</ele><time>2026-03-26T10:37:33Z</time></trkpt><trkpt lat="39.01596970452475" lon="8.820444050420692"><ele>482.0</ele><time>2026-03-26T10:37:34Z</time></trkpt><trkpt lat="39.01600026152912" lon="8.820343470384184"><ele>482.6666666666667</ele><time>2026-03-26T10:37:35Z</time></trkpt><trkpt lat="39.01602638458498" lon="8.8202362622522"><ele>483.33333333333337</ele><time>2026-03-26T10:37:36Z</time></trkpt><trkpt lat="39.01604525750103" lon="8.82014217623123"><ele>484.0</ele><time>2026-03-26T10:37:37Z</time></trkpt><trkpt lat="39.0160574265136" lon="8.820049366335748"><ele>484.33333333333337</ele><time>2026-03-26T10:37:38Z</time></trkpt><trkpt lat="39.01606457020488" lon="8.81996166903037"><ele>484.6666666666667</ele><time>2026-03-26T10:37:39Z</time></trkpt><trkpt lat="39.01607330804749" lon="8.819833917037514"><ele>485.0</ele><time>2026-03-26T10:37:41Z</time></trkpt><trkpt lat="39.016036044188745" lon="8.819736704862024"><ele>485.33333333333337</ele><time>2026-03-26T10:37:44Z</time></trkpt><trkpt lat="39.01594686072742" lon="8.81972070293319"><ele>485.6666666666667</ele><time>2026-03-26T10:37:46Z</time></trkpt><trkpt lat="39.015877866507424" lon="8.819734037017634"><ele>486.0</ele><time>2026-03-26T10:37:47Z</time></trkpt><trkpt lat="39.015801101837376" lon="8.819764605102241"><ele>481.8</ele><time>2026-03-26T10:37:48Z</time></trkpt><trkpt lat="39.01570158983785" lon="8.81975931832447"><ele>477.6</ele><time>2026-03-26T10:37:50Z</time></trkpt><trkpt lat="39.01564822440418" lon="8.819655564636578"><ele>473.4</ele><time>2026-03-26T10:37:52Z</time></trkpt><trkpt lat="39.01562943612909" lon="8.819513530059357"><ele>469.2</ele><time>2026-03-26T10:37:54Z</time></trkpt><trkpt lat="39.01562284209388" lon="8.819416686165496"><ele>465.0</ele><time>2026-03-26T10:37:55Z</time></trkpt><trkpt lat="39.01560889321521" lon="8.819315637105595"><ele>465.0</ele><time>2026-03-26T10:37:56Z</time></trkpt><trkpt lat="39.01558753612171" lon="8.81923206196983"><ele>465.0</ele><time>2026-03-26T10:37:57Z</time></trkpt><trkpt lat="39.015558792524125" lon="8.819148101600002"><ele>465.0</ele><time>2026-03-26T10:37:58Z</time></trkpt><trkpt lat="39.01552079695241" lon="8.819057019742708"><ele>465.0</ele><time>2026-03-26T10:37:59Z</time></trkpt><trkpt lat="39.01548539029312" lon="8.8189635288612"><ele>465.0</ele><time>2026-03-26T10:38:00Z</time></trkpt><trkpt lat="39.01546132380548" lon="8.818879188674604"><ele>465.0</ele><time>2026-03-26T10:38:01Z</time></trkpt><trkpt lat="39.01543807952911" lon="8.818796755172235"><ele>465.0</ele><time>2026-03-26T10:38:02Z</time></trkpt><trkpt lat="39.01535845856064" lon="8.818692593312122"><ele>465.0</ele><time>2026-03-26T10:38:04Z</time></trkpt><trkpt lat="39.01528169913249" lon="8.818673492515883"><ele>465.0</ele><time>2026-03-26T10:38:05Z</time></trkpt><trkpt lat="39.015195246487124" lon="8.818646390657813"><ele>465.0</ele><time>2026-03-26T10:38:06Z</time></trkpt><trkpt lat="39.015122678962065" lon="8.818611835621438"><ele>465.0</ele><time>2026-03-26T10:38:07Z</time></trkpt><trkpt lat="39.01504645566164" lon="8.81856129133911"><ele>465.0</ele><time>2026-03-26T10:38:08Z</time></trkpt><trkpt lat="39.01496630579323" lon="8.818484855173537"><ele>465.0</ele><time>2026-03-26T10:38:09Z</time></trkpt><trkpt lat="39.014894631234974" lon="8.818408024346388"><ele>468.0</ele><time>2026-03-26T10:38:10Z</time></trkpt><trkpt lat="39.01483239926953" lon="8.818330094994154"><ele>471.0</ele><time>2026-03-26T10:38:11Z</time></trkpt><trkpt lat="39.01477706284631" lon="8.81825226146431"><ele>474.0</ele><time>2026-03-26T10:38:12Z</time></trkpt><trkpt lat="39.01472543696118" lon="8.818177486619554"><ele>477.0</ele><time>2026-03-26T10:38:13Z</time></trkpt><trkpt lat="39.014682740177776" lon="8.818114131289219"><ele>480.0</ele><time>2026-03-26T10:38:14Z</time></trkpt><trkpt lat="39.01461028662088" lon="8.818001598014124"><ele>483.0</ele><time>2026-03-26T10:38:16Z</time></trkpt><trkpt lat="39.0145097745725" lon="8.817966228581268"><ele>483.0</ele><time>2026-03-26T10:38:18Z</time></trkpt><trkpt lat="39.01441870949404" lon="8.818034745077467"><ele>483.0</ele><time>2026-03-26T10:38:20Z</time></trkpt><trkpt lat="39.01437043885242" lon="8.818112289322945"><ele>483.0</ele><time>2026-03-26T10:38:21Z</time></trkpt><trkpt lat="39.01430866351175" lon="8.818205933977211"><ele>483.0</ele><time>2026-03-26T10:38:22Z</time></trkpt><trkpt lat="39.014246359490684" lon="8.818281991568215"><ele>483.0</ele><time>2026-03-26T10:38:23Z</time></trkpt><trkpt lat="39.01418139418329" lon="8.818327827683305"><ele>483.0</ele><time>2026-03-26T10:38:24Z</time></trkpt><trkpt lat="39.01411232114545" lon="8.818342650440577"><ele>482.0</ele><time>2026-03-26T10:38:25Z</time></trkpt><trkpt lat="39.014021825349225" lon="8.818360314497601"><ele>480.99999999999994</ele><time>2026-03-26T10:38:26Z</time></trkpt><trkpt lat="39.01392747162433" lon="8.818357344168112"><ele>479.99999999999994</ele><time>2026-03-26T10:38:27Z</time></trkpt><trkpt lat="39.01381423756435" lon="8.818344723946964"><ele>479.0</ele><time>2026-03-26T10:38:28Z</time></trkpt><trkpt lat="39.01369829536911" lon="8.81832307015329"><ele>478.0</ele><time>2026-03-26T10:38:29Z</time></trkpt><trkpt lat="39.01360029273096" lon="8.818300627790768"><ele>478.00000000000006</ele><time>2026-03-26T10:38:30Z</time></trkpt><trkpt lat="39.013523024851956" lon="8.818275806801024"><ele>478.0</ele><time>2026-03-26T10:38:31Z</time></trkpt><trkpt lat="39.01346060635378" lon="8.818242736575163"><ele>478.0</ele><time>2026-03-26T10:38:32Z</time></trkpt><trkpt lat="39.0133915201621" lon="8.818190635517393"><ele>478.0</ele><time>2026-03-26T10:38:33Z</time></trkpt><trkpt lat="39.013319848547475" lon="8.818111576500124"><ele>478.00000000000006</ele><time>2026-03-26T10:38:34Z</time></trkpt><trkpt lat="39.01324589803128" lon="8.818021186415715"><ele>478.0</ele><time>2026-03-26T10:38:35Z</time></trkpt><trkpt lat="39.01318242076909" lon="8.81794383865457"><ele>479.33333333333337</ele><time>2026-03-26T10:38:36Z</time></trkpt><trkpt lat="39.013129613221494" lon="8.8178858390815"><ele>480.6666666666667</ele><time>2026-03-26T10:38:37Z</time></trkpt><trkpt lat="39.01304112533769" lon="8.817871899196135"><ele>482.0</ele><time>2026-03-26T10:38:39Z</time></trkpt><trkpt lat="39.01295750439237" lon="8.81792753815088"><ele>483.33333333333337</ele><time>2026-03-26T10:38:41Z</time></trkpt><trkpt lat="39.012920986434196" lon="8.817994988652549"><ele>484.6666666666667</ele><time>2026-03-26T10:38:42Z</time></trkpt><trkpt lat="39.01288930622178" lon="8.818066304350895"><ele>486.0</ele><time>2026-03-26T10:38:43Z</time></trkpt><trkpt lat="39.01282768983374" lon="8.81814904539449"><ele>486.0</ele><time>2026-03-26T10:38:44Z</time></trkpt><trkpt lat="39.01275834250358" lon="8.818250354876698"><ele>486.0</ele><time>2026-03-26T10:38:45Z</time></trkpt><trkpt lat="39.012705431948135" lon="8.818333620207236"><ele>486.0</ele><time>2026-03-26T10:38:46Z</time></trkpt><trkpt lat="39.012658244078864" lon="8.81840201531115"><ele>486.0</ele><time>2026-03-26T10:38:47Z</time></trkpt><trkpt lat="39.01260747188009" lon="8.818465394689767"><ele>486.0</ele><time>2026-03-26T10:38:48Z</time></trkpt><trkpt lat="39.01254095818016" lon="8.818521185728665"><ele>486.0</ele><time>2026-03-26T10:38:49Z</time></trkpt><trkpt lat="39.012453053644215" lon="8.818572540141096"><ele>482.0</ele><time>2026-03-26T10:38:50Z</time></trkpt><trkpt lat="39.01237449891535" lon="8.818624297791526"><ele>478.0</ele><time>2026-03-26T10:38:51Z</time></trkpt><trkpt lat="39.01230011113765" lon="8.818682020099125"><ele>474.0</ele><time>2026-03-26T10:38:52Z</time></trkpt><trkpt lat="39.012237992563655" lon="8.818750511037017"><ele>470.0</ele><time>2026-03-26T10:38:53Z</time></trkpt><trkpt lat="39.01218473961492" lon="8.8188087083504"><ele>466.0</ele><time>2026-03-26T10:38:53.999Z</time></trkpt><trkpt lat="39.01212806024839" lon="8.818857684338408"><ele>462.0</ele><time>2026-03-26T10:38:54.999Z</time></trkpt><trkpt lat="39.01206025754758" lon="8.818878721050014"><ele>462.0</ele><time>2026-03-26T10:38:55.999Z</time></trkpt><trkpt lat="39.01199208267519" lon="8.818862062758045"><ele>462.0</ele><time>2026-03-26T10:38:56.999Z</time></trkpt><trkpt lat="39.01192703051225" lon="8.818824331154621"><ele>462.0</ele><time>2026-03-26T10:38:57.999Z</time></trkpt><trkpt lat="39.01186951733108" lon="8.818767052202503"><ele>462.0</ele><time>2026-03-26T10:38:58.999Z</time></trkpt><trkpt lat="39.01182461381456" lon="8.818698628648015"><ele>462.0</ele><time>2026-03-26T10:38:59.999Z</time></trkpt><trkpt lat="39.01178846321504" lon="8.818629553831578"><ele>462.0</ele><time>2026-03-26T10:39:00.999Z</time></trkpt><trkpt lat="39.01175525472729" lon="8.818556901474512"><ele>462.0</ele><time>2026-03-26T10:39:01.999Z</time></trkpt><trkpt lat="39.01169889121855" lon="8.818432260492301"><ele>459.6</ele><time>2026-03-26T10:39:03.999Z</time></trkpt><trkpt lat="39.01164196458507" lon="8.818316564310305"><ele>457.20000000000005</ele><time>2026-03-26T10:39:05.999Z</time></trkpt><trkpt lat="39.01165438296691" lon="8.818149446213898"><ele>454.8</ele><time>2026-03-26T10:39:07.999Z</time></trkpt><trkpt lat="39.01167945400115" lon="8.81803579601189"><ele>452.4</ele><time>2026-03-26T10:39:08.999Z</time></trkpt><trkpt lat="39.011693378815515" lon="8.817935262313052"><ele>450.0</ele><time>2026-03-26T10:39:09.999Z</time></trkpt><trkpt lat="39.01168524405085" lon="8.817851210738214"><ele>450.0</ele><time>2026-03-26T10:39:10.999Z</time></trkpt><trkpt lat="39.01159417757851" lon="8.817737218290233"><ele>450.0</ele><time>2026-03-26T10:39:12.999Z</time></trkpt><trkpt lat="39.01152055826701" lon="8.817685295385322"><ele>450.0</ele><time>2026-03-26T10:39:13.999Z</time></trkpt><trkpt lat="39.0114272773617" lon="8.817636960957078"><ele>450.0</ele><time>2026-03-26T10:39:14.999Z</time></trkpt><trkpt lat="39.01136497691257" lon="8.817590501219257"><ele>450.0</ele><time>2026-03-26T10:39:15.999Z</time></trkpt><trkpt lat="39.01131477735764" lon="8.817531723865567"><ele>453.6666666666667</ele><time>2026-03-26T10:39:17Z</time></trkpt><trkpt lat="39.01126728031194" lon="8.817441645721372"><ele>457.33333333333337</ele><time>2026-03-26T10:39:18Z</time></trkpt><trkpt lat="39.01122594904736" lon="8.81736263178771"><ele>461.0</ele><time>2026-03-26T10:39:19Z</time></trkpt><trkpt lat="39.01117505164675" lon="8.81730653934251"><ele>464.6666666666667</ele><time>2026-03-26T10:39:20Z</time></trkpt><trkpt lat="39.01111345840542" lon="8.817266565268273"><ele>468.33333333333337</ele><time>2026-03-26T10:39:21Z</time></trkpt><trkpt lat="39.01103457027283" lon="8.817253172801877"><ele>472.0</ele><time>2026-03-26T10:39:22Z</time></trkpt><trkpt lat="39.01093108756439" lon="8.817258166801766"><ele>472.0</ele><time>2026-03-26T10:39:23Z</time></trkpt><trkpt lat="39.01085357498867" lon="8.817258030722606"><ele>472.00000000000006</ele><time>2026-03-26T10:39:24Z</time></trkpt><trkpt lat="39.010758336404066" lon="8.81720716568643"><ele>472.00000000000006</ele><time>2026-03-26T10:39:26Z</time></trkpt><trkpt lat="39.01066054299286" lon="8.817134637588072"><ele>472.0</ele><time>2026-03-26T10:39:28Z</time></trkpt><trkpt lat="39.010593827721316" lon="8.817025201133331"><ele>472.0</ele><time>2026-03-26T10:39:30Z</time></trkpt><trkpt lat="39.01057952290811" lon="8.816937644014125"><ele>471.85714285714283</ele><time>2026-03-26T10:39:31Z</time></trkpt><trkpt lat="39.01057406876618" lon="8.816845093925101"><ele>471.7142857142858</ele><time>2026-03-26T10:39:32Z</time></trkpt><trkpt lat="39.010566799467874" lon="8.816761558395456"><ele>471.5714285714286</ele><time>2026-03-26T10:39:33Z</time></trkpt><trkpt lat="39.01056065655459" lon="8.816676734905093"><ele>471.42857142857144</ele><time>2026-03-26T10:39:34Z</time></trkpt><trkpt lat="39.0105542016433" lon="8.816592068765415"><ele>471.28571428571433</ele><time>2026-03-26T10:39:35Z</time></trkpt><trkpt lat="39.01054311913135" lon="8.816508514596858"><ele>471.1428571428572</ele><time>2026-03-26T10:39:36Z</time></trkpt><trkpt lat="39.01050697533813" lon="8.816432176165705"><ele>471.00000000000006</ele><time>2026-03-26T10:39:37Z</time></trkpt><trkpt lat="39.01043460944377" lon="8.816375192863283"><ele>471.0</ele><time>2026-03-26T10:39:38Z</time></trkpt><trkpt lat="39.01034784725255" lon="8.816338102148077"><ele>471.0</ele><time>2026-03-26T10:39:39Z</time></trkpt><trkpt lat="39.01025077497749" lon="8.81630982473442"><ele>471.0</ele><time>2026-03-26T10:39:40Z</time></trkpt><trkpt lat="39.01016647913635" lon="8.816281888023454"><ele>471.0</ele><time>2026-03-26T10:39:41Z</time></trkpt><trkpt lat="39.01009318683806" lon="8.816246701692894"><ele>471.0</ele><time>2026-03-26T10:39:42Z</time></trkpt><trkpt lat="39.01002379892096" lon="8.816193586747518"><ele>471.0</ele><time>2026-03-26T10:39:43Z</time></trkpt><trkpt lat="39.009961986166545" lon="8.816135064086701"><ele>470.6</ele><time>2026-03-26T10:39:44Z</time></trkpt><trkpt lat="39.00989471961921" lon="8.816083856526479"><ele>470.20000000000005</ele><time>2026-03-26T10:39:45Z</time></trkpt><trkpt lat="39.0098279530382" lon="8.816006303461839"><ele>469.79999999999995</ele><time>2026-03-26T10:39:46Z</time></trkpt><trkpt lat="39.00974938124614" lon="8.815889977576303"><ele>469.4</ele><time>2026-03-26T10:39:47Z</time></trkpt><trkpt lat="39.00966036310724" lon="8.815794299297664"><ele>469.0</ele><time>2026-03-26T10:39:48Z</time></trkpt><trkpt lat="39.00958724365765" lon="8.815712508503376"><ele>470.33333333333337</ele><time>2026-03-26T10:39:49Z</time></trkpt><trkpt lat="39.00952235213913" lon="8.815619687797708"><ele>471.6666666666667</ele><time>2026-03-26T10:39:50Z</time></trkpt><trkpt lat="39.009468444314656" lon="8.81554268414593"><ele>473.0</ele><time>2026-03-26T10:39:51Z</time></trkpt><trkpt lat="39.009423083941826" lon="8.815483063935392"><ele>474.33333333333337</ele><time>2026-03-26T10:39:52Z</time></trkpt><trkpt lat="39.00937929207" lon="8.815387487922969"><ele>475.6666666666667</ele><time>2026-03-26T10:39:54Z</time></trkpt><trkpt lat="39.00942806790237" lon="8.815334531807705"><ele>477.0</ele><time>2026-03-26T10:40:35Z</time></trkpt><trkpt lat="39.00935448700182" lon="8.815285898897645"><ele>477.0</ele><time>2026-03-26T10:40:41Z</time></trkpt><trkpt lat="39.00929239999123" lon="8.815261654278606"><ele>477.0</ele><time>2026-03-26T10:40:44Z</time></trkpt><trkpt lat="39.00922564391132" lon="8.815290483870942"><ele>477.0</ele><time>2026-03-26T10:43:06Z</time></trkpt><trkpt lat="39.00918359233095" lon="8.815402486815046"><ele>477.0</ele><time>2026-03-26T10:43:08Z</time></trkpt><trkpt lat="39.0091373656473" lon="8.815500285141605"><ele>477.0</ele><time>2026-03-26T10:43:10Z</time></trkpt><trkpt lat="39.00905146189355" lon="8.815596930784189"><ele>477.0</ele><time>2026-03-26T10:43:12Z</time></trkpt><trkpt lat="39.008977901533434" lon="8.81569413700024"><ele>477.8333333333333</ele><time>2026-03-26T10:43:14Z</time></trkpt><trkpt lat="39.00892617317285" lon="8.815761222728804"><ele>478.66666666666663</ele><time>2026-03-26T10:43:16Z</time></trkpt><trkpt lat="39.00890333148087" lon="8.81585637290075"><ele>479.5</ele><time>2026-03-26T10:43:19Z</time></trkpt><trkpt lat="39.00896504419557" lon="8.815953059533577"><ele>480.3333333333333</ele><time>2026-03-26T10:43:21Z</time></trkpt><trkpt lat="39.00902748484766" lon="8.815990254273789"><ele>481.16666666666663</ele><time>2026-03-26T10:43:22Z</time></trkpt><trkpt lat="39.009094760755296" lon="8.81601559531231"><ele>482.0</ele><time>2026-03-26T10:43:23Z</time></trkpt><trkpt lat="39.00915638581834" lon="8.81604527724774"><ele>479.40000000000003</ele><time>2026-03-26T10:43:24Z</time></trkpt><trkpt lat="39.009218616761586" lon="8.816074245146327"><ele>476.80000000000007</ele><time>2026-03-26T10:43:25Z</time></trkpt><trkpt lat="39.00927868910385" lon="8.816108532106481"><ele>474.2</ele><time>2026-03-26T10:43:25.999Z</time></trkpt><trkpt lat="39.00938440700241" lon="8.81619010280823"><ele>471.6</ele><time>2026-03-26T10:43:28Z</time></trkpt><trkpt lat="39.0094733867447" lon="8.8163161134679"><ele>469.0</ele><time>2026-03-26T10:43:30Z</time></trkpt><trkpt lat="39.00951137755079" lon="8.816390208885341"><ele>469.0</ele><time>2026-03-26T10:43:31Z</time></trkpt><trkpt lat="39.009548550244354" lon="8.816465623678802"><ele>469.0</ele><time>2026-03-26T10:43:32Z</time></trkpt><trkpt lat="39.009589763103364" lon="8.81654215871808"><ele>469.0</ele><time>2026-03-26T10:43:33Z</time></trkpt><trkpt lat="39.009630625352145" lon="8.8166146927093"><ele>469.0</ele><time>2026-03-26T10:43:34Z</time></trkpt><trkpt lat="39.0096758440564" lon="8.816688432541124"><ele>469.0</ele><time>2026-03-26T10:43:35Z</time></trkpt><trkpt lat="39.00972358147785" lon="8.816759445726426"><ele>469.0</ele><time>2026-03-26T10:43:36Z</time></trkpt><trkpt lat="39.009777089833115" lon="8.816834619967857"><ele>469.0</ele><time>2026-03-26T10:43:37Z</time></trkpt><trkpt lat="39.00982797851477" lon="8.816907142702636"><ele>467.1666666666667</ele><time>2026-03-26T10:43:38Z</time></trkpt><trkpt lat="39.009873141602824" lon="8.816996990627663"><ele>465.33333333333337</ele><time>2026-03-26T10:43:39Z</time></trkpt><trkpt lat="39.0099157931059" lon="8.817081234341424"><ele>463.5</ele><time>2026-03-26T10:43:40Z</time></trkpt><trkpt lat="39.00996112557939" lon="8.817166058259916"><ele>461.66666666666663</ele><time>2026-03-26T10:43:41Z</time></trkpt><trkpt lat="39.010010590129994" lon="8.817247867273972"><ele>459.8333333333333</ele><time>2026-03-26T10:43:42Z</time></trkpt><trkpt lat="39.01005254694223" lon="8.81732590607095"><ele>458.0</ele><time>2026-03-26T10:43:43Z</time></trkpt><trkpt lat="39.01008794108247" lon="8.817402437551628"><ele>457.85714285714283</ele><time>2026-03-26T10:43:44Z</time></trkpt><trkpt lat="39.01012564992657" lon="8.817487427650818"><ele>457.7142857142858</ele><time>2026-03-26T10:43:45Z</time></trkpt><trkpt lat="39.01016576460033" lon="8.817557335820041"><ele>457.5714285714286</ele><time>2026-03-26T10:43:46Z</time></trkpt><trkpt lat="39.01020653542714" lon="8.817627094811023"><ele>457.42857142857144</ele><time>2026-03-26T10:43:47Z</time></trkpt><trkpt lat="39.01025508507311" lon="8.817692303185783"><ele>457.28571428571433</ele><time>2026-03-26T10:43:48Z</time></trkpt><trkpt lat="39.01031667183982" lon="8.817754324763994"><ele>457.1428571428572</ele><time>2026-03-26T10:43:49Z</time></trkpt><trkpt lat="39.010374268122845" lon="8.81781118065539"><ele>457.00000000000006</ele><time>2026-03-26T10:43:50Z</time></trkpt><trkpt lat="39.01047808639202" lon="8.817873929479214"><ele>455.6</ele><time>2026-03-26T10:43:52Z</time></trkpt><trkpt lat="39.01060025706445" lon="8.81782857337205"><ele>454.20000000000005</ele><time>2026-03-26T10:43:54Z</time></trkpt><trkpt lat="39.010709439804955" lon="8.817792785521364"><ele>452.8</ele><time>2026-03-26T10:43:56Z</time></trkpt><trkpt lat="39.01080714106825" lon="8.817817557560227"><ele>451.4</ele><time>2026-03-26T10:43:58Z</time></trkpt><trkpt lat="39.01087077337472" lon="8.817818339574576"><ele>450.0</ele><time>2026-03-26T10:43:59Z</time></trkpt><trkpt lat="39.01097721266959" lon="8.817881901043544"><ele>450.0</ele><time>2026-03-26T10:44:01Z</time></trkpt><trkpt lat="39.01102702530853" lon="8.817939321875858"><ele>450.0</ele><time>2026-03-26T10:44:02Z</time></trkpt><trkpt lat="39.01106766186057" lon="8.818006597714804"><ele>450.0</ele><time>2026-03-26T10:44:03Z</time></trkpt><trkpt lat="39.01112050733601" lon="8.81814682311852"><ele>450.0</ele><time>2026-03-26T10:44:05Z</time></trkpt><trkpt lat="39.011107337243935" lon="8.818310778810243"><ele>450.0</ele><time>2026-03-26T10:44:07Z</time></trkpt><trkpt lat="39.01106802884687" lon="8.818477301287762"><ele>447.6666666666667</ele><time>2026-03-26T10:44:09Z</time></trkpt><trkpt lat="39.01106201030965" lon="8.818574383281167"><ele>445.33333333333337</ele><time>2026-03-26T10:44:10Z</time></trkpt><trkpt lat="39.01106965266342" lon="8.818673282350499"><ele>443.0</ele><time>2026-03-26T10:44:11Z</time></trkpt><trkpt lat="39.01108376439465" lon="8.818760556011906"><ele>440.6666666666667</ele><time>2026-03-26T10:44:12Z</time></trkpt><trkpt lat="39.01110284030214" lon="8.818838046523583"><ele>438.33333333333337</ele><time>2026-03-26T10:44:13Z</time></trkpt><trkpt lat="39.011148452057725" lon="8.81897705845453"><ele>436.0</ele><time>2026-03-26T10:44:15Z</time></trkpt><trkpt lat="39.01122132264478" lon="8.819090967260648"><ele>436.0</ele><time>2026-03-26T10:44:17Z</time></trkpt><trkpt lat="39.01123445099187" lon="8.819230564332827"><ele>436.0</ele><time>2026-03-26T10:44:19Z</time></trkpt><trkpt lat="39.011202370212594" lon="8.819383831350255"><ele>436.0</ele><time>2026-03-26T10:44:21Z</time></trkpt><trkpt lat="39.01120641641826" lon="8.8195300584606"><ele>436.0</ele><time>2026-03-26T10:44:23Z</time></trkpt><trkpt lat="39.011268043750185" lon="8.819652676408682"><ele>433.0</ele><time>2026-03-26T10:44:25Z</time></trkpt><trkpt lat="39.0113525963451" lon="8.819728594728712"><ele>430.0</ele><time>2026-03-26T10:44:27Z</time></trkpt><trkpt lat="39.01140111097067" lon="8.819807882050478"><ele>427.0</ele><time>2026-03-26T10:44:29Z</time></trkpt><trkpt lat="39.01132452320433" lon="8.819868727382849"><ele>424.0</ele><time>2026-03-26T10:44:32Z</time></trkpt><trkpt lat="39.011229564507175" lon="8.819787419461184"><ele>421.0</ele><time>2026-03-26T10:44:34Z</time></trkpt><trkpt lat="39.01117605777239" lon="8.819724894189223"><ele>421.00000000000006</ele><time>2026-03-26T10:44:35Z</time></trkpt><trkpt lat="39.011130128253406" lon="8.819664528176201"><ele>421.0</ele><time>2026-03-26T10:44:36Z</time></trkpt><trkpt lat="39.0110870337701" lon="8.819595437607447"><ele>421.0</ele><time>2026-03-26T10:44:37Z</time></trkpt><trkpt lat="39.01105700764931" lon="8.819516333904707"><ele>421.0</ele><time>2026-03-26T10:44:38Z</time></trkpt><trkpt lat="39.01103833310325" lon="8.819436440480887"><ele>421.0</ele><time>2026-03-26T10:44:39Z</time></trkpt><trkpt lat="39.01102047202374" lon="8.819356414051244"><ele>421.00000000000006</ele><time>2026-03-26T10:44:40Z</time></trkpt><trkpt lat="39.010947444839886" lon="8.819243748806825"><ele>421.0</ele><time>2026-03-26T10:44:42Z</time></trkpt><trkpt lat="39.01084572884882" lon="8.819184659088913"><ele>422.1666666666667</ele><time>2026-03-26T10:44:44Z</time></trkpt><trkpt lat="39.01075269898469" lon="8.819135323195365"><ele>423.33333333333337</ele><time>2026-03-26T10:44:46Z</time></trkpt><trkpt lat="39.01073199448364" lon="8.819034977635349"><ele>424.5</ele><time>2026-03-26T10:44:48Z</time></trkpt><trkpt lat="39.01073264132007" lon="8.818902825106164"><ele>425.66666666666663</ele><time>2026-03-26T10:44:50Z</time></trkpt><trkpt lat="39.01070137147322" lon="8.818818318613133"><ele>426.8333333333333</ele><time>2026-03-26T10:44:52Z</time></trkpt><trkpt lat="39.01062776556842" lon="8.818877821675127"><ele>428.0</ele><time>2026-03-26T10:44:55Z</time></trkpt><trkpt lat="39.010616051667704" lon="8.818991967048127"><ele>428.0</ele><time>2026-03-26T10:44:57Z</time></trkpt><trkpt lat="39.01061275204013" lon="8.819143815122397"><ele>427.99999999999994</ele><time>2026-03-26T10:44:59Z</time></trkpt><trkpt lat="39.01060957413031" lon="8.81928771510675"><ele>427.99999999999994</ele><time>2026-03-26T10:45:01Z</time></trkpt><trkpt lat="39.01063553042572" lon="8.819417261964107"><ele>428.0</ele><time>2026-03-26T10:45:03Z</time></trkpt><trkpt lat="39.010696922696006" lon="8.819543247346013"><ele>428.0</ele><time>2026-03-26T10:45:05Z</time></trkpt><trkpt lat="39.01074045976286" lon="8.819610759911253"><ele>425.0</ele><time>2026-03-26T10:45:06Z</time></trkpt><trkpt lat="39.01081285813748" lon="8.819691466751532"><ele>421.99999999999994</ele><time>2026-03-26T10:45:08Z</time></trkpt><trkpt lat="39.010768515437654" lon="8.819768349526285"><ele>419.0</ele><time>2026-03-26T10:45:11Z</time></trkpt><trkpt lat="39.010684877388385" lon="8.819735458801294"><ele>416.0</ele><time>2026-03-26T10:45:13Z</time></trkpt><trkpt lat="39.010565242301965" lon="8.81967520810481"><ele>413.0</ele><time>2026-03-26T10:45:15Z</time></trkpt><trkpt lat="39.01045247728057" lon="8.819635735620022"><ele>413.0</ele><time>2026-03-26T10:45:17Z</time></trkpt><trkpt lat="39.010375302803844" lon="8.819630776477592"><ele>413.0</ele><time>2026-03-26T10:45:19Z</time></trkpt><trkpt lat="39.01045928999733" lon="8.819644268143591"><ele>413.0</ele><time>2026-03-26T10:45:57Z</time></trkpt><trkpt lat="39.01056609813404" lon="8.819661283130262"><ele>413.0</ele><time>2026-03-26T10:45:59Z</time></trkpt><trkpt lat="39.01067098153765" lon="8.819733672904409"><ele>413.0</ele><time>2026-03-26T10:46:01Z</time></trkpt><trkpt lat="39.010766787333615" lon="8.819778397841048"><ele>413.0</ele><time>2026-03-26T10:46:03Z</time></trkpt><trkpt lat="39.010818223614066" lon="8.819688742490305"><ele>413.0</ele><time>2026-03-26T10:46:06Z</time></trkpt><trkpt lat="39.01073902884729" lon="8.81959302161645"><ele>413.0</ele><time>2026-03-26T10:46:08Z</time></trkpt><trkpt lat="39.01065421694633" lon="8.819480250758009"><ele>413.0</ele><time>2026-03-26T10:46:10Z</time></trkpt><trkpt lat="39.01063460149153" lon="8.819403080431341"><ele>413.0</ele><time>2026-03-26T10:46:11Z</time></trkpt><trkpt lat="39.01061236188437" lon="8.819283786587686"><ele>416.0</ele><time>2026-03-26T10:46:13Z</time></trkpt><trkpt lat="39.0106112355974" lon="8.819129578848555"><ele>419.0</ele><time>2026-03-26T10:46:15Z</time></trkpt><trkpt lat="39.01062175189382" lon="8.819031979908832"><ele>421.99999999999994</ele><time>2026-03-26T10:46:16Z</time></trkpt><trkpt lat="39.010632435090756" lon="8.818941308953729"><ele>425.0</ele><time>2026-03-26T10:46:17Z</time></trkpt><trkpt lat="39.01065387736761" lon="8.818822147212726"><ele>428.0</ele><time>2026-03-26T10:46:19Z</time></trkpt><trkpt lat="39.01056670449658" lon="8.818763719080264"><ele>428.00000000000006</ele><time>2026-03-26T10:46:22Z</time></trkpt><trkpt lat="39.010497605860174" lon="8.818774755436026"><ele>428.0</ele><time>2026-03-26T10:46:23Z</time></trkpt><trkpt lat="39.01043228390648" lon="8.818804567431147"><ele>428.0</ele><time>2026-03-26T10:46:24Z</time></trkpt><trkpt lat="39.010365333059774" lon="8.81884050300836"><ele>428.0</ele><time>2026-03-26T10:46:25Z</time></trkpt><trkpt lat="39.0103031237449" lon="8.818866448838902"><ele>428.0</ele><time>2026-03-26T10:46:26Z</time></trkpt><trkpt lat="39.01021190841665" lon="8.818871464599336"><ele>428.00000000000006</ele><time>2026-03-26T10:46:28Z</time></trkpt><trkpt lat="39.01015355553123" lon="8.818936241406226"><ele>428.0</ele><time>2026-03-26T10:46:31Z</time></trkpt><trkpt lat="39.0102184054899" lon="8.818915682241604"><ele>427.99999999999994</ele><time>2026-03-26T10:46:36Z</time></trkpt><trkpt lat="39.01027493748933" lon="8.818842825040164"><ele>428.0</ele><time>2026-03-26T10:46:39Z</time></trkpt><trkpt lat="39.01038124084368" lon="8.818831915102917"><ele>428.0</ele><time>2026-03-26T10:46:41Z</time></trkpt><trkpt lat="39.0104429711631" lon="8.818802692265272"><ele>428.0</ele><time>2026-03-26T10:46:42Z</time></trkpt><trkpt lat="39.01053058916652" lon="8.818768774937093"><ele>427.99999999999994</ele><time>2026-03-26T10:46:44Z</time></trkpt><trkpt lat="39.01062943635317" lon="8.818774678256094"><ele>428.0</ele><time>2026-03-26T10:46:46Z</time></trkpt><trkpt lat="39.01070732258609" lon="8.81886685256937"><ele>427.99999999999994</ele><time>2026-03-26T10:46:48Z</time></trkpt><trkpt lat="39.01073722071243" lon="8.81901413634669"><ele>428.0</ele><time>2026-03-26T10:46:50Z</time></trkpt><trkpt lat="39.0107542286152" lon="8.81909740149413"><ele>428.0</ele><time>2026-03-26T10:46:51Z</time></trkpt><trkpt lat="39.01080932927092" lon="8.819181463207384"><ele>428.0</ele><time>2026-03-26T10:46:53Z</time></trkpt><trkpt lat="39.010877810753236" lon="8.819226542131116"><ele>427.99999999999994</ele><time>2026-03-26T10:46:54Z</time></trkpt><trkpt lat="39.010942992062034" lon="8.819268048957264"><ele>428.0</ele><time>2026-03-26T10:46:55Z</time></trkpt><trkpt lat="39.01101821557915" lon="8.819374411583818"><ele>426.8333333333333</ele><time>2026-03-26T10:46:57Z</time></trkpt><trkpt lat="39.011055263816864" lon="8.819538463317157"><ele>425.66666666666663</ele><time>2026-03-26T10:46:59Z</time></trkpt><trkpt lat="39.01108855822546" lon="8.819626368935317"><ele>424.5</ele><time>2026-03-26T10:47:00Z</time></trkpt><trkpt lat="39.01113758737063" lon="8.819703371954505"><ele>423.33333333333337</ele><time>2026-03-26T10:47:01Z</time></trkpt><trkpt lat="39.011196588027964" lon="8.819766397751838"><ele>422.1666666666667</ele><time>2026-03-26T10:47:02Z</time></trkpt><trkpt lat="39.01126348988569" lon="8.81982861838213"><ele>421.0</ele><time>2026-03-26T10:47:03Z</time></trkpt><trkpt lat="39.011322567910064" lon="8.819875982127652"><ele>421.00000000000006</ele><time>2026-03-26T10:47:04Z</time></trkpt><trkpt lat="39.011392050995106" lon="8.81986970909727"><ele>421.0</ele><time>2026-03-26T10:47:06Z</time></trkpt><trkpt lat="39.011393403898374" lon="8.81974966017663"><ele>421.0</ele><time>2026-03-26T10:47:08Z</time></trkpt><trkpt lat="39.011332033668886" lon="8.819691712470204"><ele>421.0</ele><time>2026-03-26T10:47:09Z</time></trkpt><trkpt lat="39.011261449082845" lon="8.819637010317894"><ele>421.00000000000006</ele><time>2026-03-26T10:47:10Z</time></trkpt><trkpt lat="39.01121375702876" lon="8.81956414889638"><ele>421.0</ele><time>2026-03-26T10:47:11Z</time></trkpt><trkpt lat="39.011190404828014" lon="8.819483600834015"><ele>421.0</ele><time>2026-03-26T10:47:12Z</time></trkpt><trkpt lat="39.01119376356556" lon="8.819331651956347"><ele>421.0</ele><time>2026-03-26T10:47:14Z</time></trkpt><trkpt lat="39.01123920133907" lon="8.81917867974918"><ele>421.0</ele><time>2026-03-26T10:47:16Z</time></trkpt><trkpt lat="39.01120406288437" lon="8.819030891610936"><ele>421.0</ele><time>2026-03-26T10:47:18Z</time></trkpt><trkpt lat="39.01115206829383" lon="8.818948823932036"><ele>421.0</ele><time>2026-03-26T10:47:19Z</time></trkpt><trkpt lat="39.0111064445821" lon="8.818879331786885"><ele>423.50000000000006</ele><time>2026-03-26T10:47:20Z</time></trkpt><trkpt lat="39.011080388245006" lon="8.818720270459156"><ele>426.0</ele><time>2026-03-26T10:47:22Z</time></trkpt><trkpt lat="39.011069073732756" lon="8.818617255655063"><ele>428.5</ele><time>2026-03-26T10:47:23Z</time></trkpt><trkpt lat="39.011066996054645" lon="8.818526820182813"><ele>431.0</ele><time>2026-03-26T10:47:24Z</time></trkpt><trkpt lat="39.01107183784614" lon="8.818442918325252"><ele>433.50000000000006</ele><time>2026-03-26T10:47:25Z</time></trkpt><trkpt lat="39.01108095897101" lon="8.818358806175723"><ele>436.0</ele><time>2026-03-26T10:47:26Z</time></trkpt><trkpt lat="39.01109447737161" lon="8.81827935175827"><ele>438.33333333333337</ele><time>2026-03-26T10:47:27Z</time></trkpt><trkpt lat="39.01110685524115" lon="8.818194352889627"><ele>440.6666666666667</ele><time>2026-03-26T10:47:28Z</time></trkpt><trkpt lat="39.01106216746278" lon="8.818037051972379"><ele>443.0</ele><time>2026-03-26T10:47:30Z</time></trkpt><trkpt lat="39.011019726255086" lon="8.817954666878"><ele>445.33333333333337</ele><time>2026-03-26T10:47:31Z</time></trkpt><trkpt lat="39.01096526509063" lon="8.81788994688256"><ele>447.6666666666667</ele><time>2026-03-26T10:47:32Z</time></trkpt><trkpt lat="39.01090936342025" lon="8.817839949095706"><ele>450.0</ele><time>2026-03-26T10:47:33Z</time></trkpt><trkpt lat="39.01083735042381" lon="8.817817253493807"><ele>448.8333333333333</ele><time>2026-03-26T10:47:34Z</time></trkpt><trkpt lat="39.01076291839307" lon="8.817803542423679"><ele>447.66666666666663</ele><time>2026-03-26T10:47:35Z</time></trkpt><trkpt lat="39.01067745008027" lon="8.817805070950005"><ele>446.5</ele><time>2026-03-26T10:47:36Z</time></trkpt><trkpt lat="39.010609284765025" lon="8.81782017760779"><ele>445.3333333333333</ele><time>2026-03-26T10:47:37Z</time></trkpt><trkpt lat="39.01054609876305" lon="8.817828678167372"><ele>444.16666666666663</ele><time>2026-03-26T10:47:38Z</time></trkpt><trkpt lat="39.01045966043773" lon="8.817864175478704"><ele>443.0</ele><time>2026-03-26T10:47:40Z</time></trkpt><trkpt lat="39.01035768321972" lon="8.817800418587717"><ele>442.99999999999994</ele><time>2026-03-26T10:47:42Z</time></trkpt><trkpt lat="39.01030041613627" lon="8.81774308411759"><ele>443.0</ele><time>2026-03-26T10:47:43Z</time></trkpt><trkpt lat="39.010250099168005" lon="8.817679324145606"><ele>443.0</ele><time>2026-03-26T10:47:44Z</time></trkpt><trkpt lat="39.01016530741391" lon="8.817565599439542"><ele>443.0</ele><time>2026-03-26T10:47:46Z</time></trkpt><trkpt lat="39.01013064714716" lon="8.81749511314582"><ele>442.99999999999994</ele><time>2026-03-26T10:47:47Z</time></trkpt><trkpt lat="39.01009120694261" lon="8.817410581076707"><ele>443.0</ele><time>2026-03-26T10:47:48Z</time></trkpt><trkpt lat="39.01004901913889" lon="8.817322813821322"><ele>445.79999999999995</ele><time>2026-03-26T10:47:49Z</time></trkpt><trkpt lat="39.01000307229907" lon="8.817225016138796"><ele>448.59999999999997</ele><time>2026-03-26T10:47:50Z</time></trkpt><trkpt lat="39.00994431898227" lon="8.81711737215654"><ele>451.40000000000003</ele><time>2026-03-26T10:47:51Z</time></trkpt><trkpt lat="39.0098771284452" lon="8.816997564803467"><ele>454.20000000000005</ele><time>2026-03-26T10:47:52Z</time></trkpt><trkpt lat="39.00980239648001" lon="8.816868406772322"><ele>457.0</ele><time>2026-03-26T10:47:53Z</time></trkpt><trkpt lat="39.0097327372753" lon="8.816748923199533"><ele>459.40000000000003</ele><time>2026-03-26T10:47:54Z</time></trkpt><trkpt lat="39.00966187000736" lon="8.816643403234087"><ele>461.80000000000007</ele><time>2026-03-26T10:47:55Z</time></trkpt><trkpt lat="39.00960230062654" lon="8.816551438237978"><ele>464.2</ele><time>2026-03-26T10:47:56Z</time></trkpt><trkpt lat="39.00955533792626" lon="8.816463318545507"><ele>466.6</ele><time>2026-03-26T10:47:57Z</time></trkpt><trkpt lat="39.00950565436487" lon="8.816379448628384"><ele>469.0</ele><time>2026-03-26T10:47:58Z</time></trkpt><trkpt lat="39.00946051085489" lon="8.816280773220278"><ele>469.00000000000006</ele><time>2026-03-26T10:47:59Z</time></trkpt><trkpt lat="39.009415639684065" lon="8.816196196246922"><ele>469.0</ele><time>2026-03-26T10:48:00Z</time></trkpt><trkpt lat="39.00934917500124" lon="8.816140867782867"><ele>469.0</ele><time>2026-03-26T10:48:01Z</time></trkpt><trkpt lat="39.009270067117285" lon="8.816101733313287"><ele>469.0</ele><time>2026-03-26T10:48:02Z</time></trkpt><trkpt lat="39.00918430438114" lon="8.816063804813536"><ele>469.00000000000006</ele><time>2026-03-26T10:48:03Z</time></trkpt><trkpt lat="39.0091015583524" lon="8.81602421274602"><ele>469.0</ele><time>2026-03-26T10:48:04Z</time></trkpt><trkpt lat="39.009023146179736" lon="8.815990740543915"><ele>471.6</ele><time>2026-03-26T10:48:05Z</time></trkpt><trkpt lat="39.00895967838208" lon="8.815952596520471"><ele>474.2</ele><time>2026-03-26T10:48:06Z</time></trkpt><trkpt lat="39.00887861364432" lon="8.81586143116143"><ele>476.80000000000007</ele><time>2026-03-26T10:48:08Z</time></trkpt><trkpt lat="39.00891742767009" lon="8.815750929925583"><ele>479.40000000000003</ele><time>2026-03-26T10:48:10Z</time></trkpt><trkpt lat="39.00898353196252" lon="8.815681155714174"><ele>482.0</ele><time>2026-03-26T10:48:11Z</time></trkpt><trkpt lat="39.00905856572545" lon="8.815595336568812"><ele>482.0</ele><time>2026-03-26T10:48:12Z</time></trkpt><trkpt lat="39.009127620796086" lon="8.815510446197957"><ele>482.00000000000006</ele><time>2026-03-26T10:48:13Z</time></trkpt><trkpt lat="39.00918205418009" lon="8.815440565336157"><ele>482.00000000000006</ele><time>2026-03-26T10:48:14Z</time></trkpt><trkpt lat="39.009233467828466" lon="8.815323756505876"><ele>482.0</ele><time>2026-03-26T10:48:16Z</time></trkpt><trkpt lat="39.009223949285904" lon="8.81518290941633"><ele>482.0</ele><time>2026-03-26T10:48:18Z</time></trkpt><trkpt lat="39.009190727582094" lon="8.815089244294702"><ele>484.25</ele><time>2026-03-26T10:48:19Z</time></trkpt><trkpt lat="39.00914702466693" lon="8.81497364217242"><ele>486.5</ele><time>2026-03-26T10:48:20Z</time></trkpt><trkpt lat="39.00910604928118" lon="8.81483834592525"><ele>488.75</ele><time>2026-03-26T10:48:21Z</time></trkpt><trkpt lat="39.009057589181104" lon="8.814683012982158"><ele>491.0</ele><time>2026-03-26T10:48:22Z</time></trkpt><trkpt lat="39.0090091684222" lon="8.814535963055539"><ele>491.0</ele><time>2026-03-26T10:48:23Z</time></trkpt><trkpt lat="39.0089699662707" lon="8.814408035059934"><ele>491.0</ele><time>2026-03-26T10:48:24Z</time></trkpt><trkpt lat="39.008938157050984" lon="8.814291321437095"><ele>491.0</ele><time>2026-03-26T10:48:25Z</time></trkpt><trkpt lat="39.008917549631555" lon="8.814191928346649"><ele>491.0</ele><time>2026-03-26T10:48:26Z</time></trkpt><trkpt lat="39.008860187370914" lon="8.814066435652247"><ele>491.0</ele><time>2026-03-26T10:48:28Z</time></trkpt><trkpt lat="39.00872521368771" lon="8.814033665440519"><ele>491.16666666666663</ele><time>2026-03-26T10:48:30Z</time></trkpt><trkpt lat="39.00863000582681" lon="8.814041352271683"><ele>491.3333333333333</ele><time>2026-03-26T10:48:31Z</time></trkpt><trkpt lat="39.00853224997118" lon="8.81405550095253"><ele>491.5</ele><time>2026-03-26T10:48:32Z</time></trkpt><trkpt lat="39.00844117702099" lon="8.814069999221008"><ele>491.66666666666663</ele><time>2026-03-26T10:48:33Z</time></trkpt><trkpt lat="39.00836763451467" lon="8.81407962192338"><ele>491.8333333333333</ele><time>2026-03-26T10:48:34Z</time></trkpt><trkpt lat="39.008302857524775" lon="8.814063683328923"><ele>492.0</ele><time>2026-03-26T10:48:35Z</time></trkpt><trkpt lat="39.00824570417829" lon="8.814024469060248"><ele>495.6666666666667</ele><time>2026-03-26T10:48:36Z</time></trkpt><trkpt lat="39.008199691682" lon="8.81396619614575"><ele>499.33333333333337</ele><time>2026-03-26T10:48:37Z</time></trkpt><trkpt lat="39.00816767257698" lon="8.813892321184595"><ele>503.0</ele><time>2026-03-26T10:48:38Z</time></trkpt><trkpt lat="39.00814478628917" lon="8.813806501947273"><ele>506.6666666666667</ele><time>2026-03-26T10:48:39Z</time></trkpt><trkpt lat="39.008130192467085" lon="8.813704587786123"><ele>510.33333333333337</ele><time>2026-03-26T10:48:40Z</time></trkpt><trkpt lat="39.00812539966179" lon="8.813593319942962"><ele>514.0</ele><time>2026-03-26T10:48:41Z</time></trkpt><trkpt lat="39.00812946662634" lon="8.81347879080585"><ele>516.8</ele><time>2026-03-26T10:48:42Z</time></trkpt><trkpt lat="39.00813782123038" lon="8.813359595860362"><ele>519.5999999999999</ele><time>2026-03-26T10:48:43Z</time></trkpt><trkpt lat="39.00814826457104" lon="8.813237755513363"><ele>522.4</ele><time>2026-03-26T10:48:44Z</time></trkpt><trkpt lat="39.00816799312" lon="8.813118013022056"><ele>525.1999999999999</ele><time>2026-03-26T10:48:45Z</time></trkpt><trkpt lat="39.00819773952527" lon="8.812991673077269"><ele>528.0</ele><time>2026-03-26T10:48:46Z</time></trkpt><trkpt lat="39.00822513102102" lon="8.812862368214741"><ele>528.0</ele><time>2026-03-26T10:48:47Z</time></trkpt><trkpt lat="39.008249293698846" lon="8.812730029504088"><ele>528.0</ele><time>2026-03-26T10:48:48Z</time></trkpt><trkpt lat="39.00827792218429" lon="8.812609278834783"><ele>528.0</ele><time>2026-03-26T10:48:49Z</time></trkpt><trkpt lat="39.00832299870523" lon="8.812494325462172"><ele>528.0</ele><time>2026-03-26T10:48:50Z</time></trkpt><trkpt lat="39.00837843636382" lon="8.812377074396014"><ele>528.0</ele><time>2026-03-26T10:48:51Z</time></trkpt><trkpt lat="39.00842480170916" lon="8.812255774159437"><ele>522.4</ele><time>2026-03-26T10:48:52Z</time></trkpt><trkpt lat="39.008465461862365" lon="8.812141092261417"><ele>516.8</ele><time>2026-03-26T10:48:53Z</time></trkpt><trkpt lat="39.00850677701008" lon="8.812044386283809"><ele>511.2</ele><time>2026-03-26T10:48:54Z</time></trkpt><trkpt lat="39.00855668862498" lon="8.8119568327329"><ele>505.6</ele><time>2026-03-26T10:48:55Z</time></trkpt><trkpt lat="39.008621915395786" lon="8.811877213109423"><ele>500.0</ele><time>2026-03-26T10:48:56Z</time></trkpt><trkpt lat="39.00869635051033" lon="8.811804165917414"><ele>499.99999999999994</ele><time>2026-03-26T10:48:57Z</time></trkpt><trkpt lat="39.008753387202596" lon="8.811745082744366"><ele>500.0</ele><time>2026-03-26T10:48:58Z</time></trkpt><trkpt lat="39.00879437122027" lon="8.811599175503838"><ele>500.0</ele><time>2026-03-26T10:49:00Z</time></trkpt><trkpt lat="39.008776758836795" lon="8.811508213882112"><ele>500.0</ele><time>2026-03-26T10:49:01Z</time></trkpt><trkpt lat="39.00872566171966" lon="8.811427894203907"><ele>499.99999999999994</ele><time>2026-03-26T10:49:02Z</time></trkpt><trkpt lat="39.0086615109861" lon="8.811369421972623"><ele>500.0</ele><time>2026-03-26T10:49:03Z</time></trkpt><trkpt lat="39.008546636155714" lon="8.811348382180434"><ele>499.99999999999994</ele><time>2026-03-26T10:49:05Z</time></trkpt><trkpt lat="39.008494060428085" lon="8.81139305995765"><ele>500.0</ele><time>2026-03-26T10:49:06Z</time></trkpt><trkpt lat="39.008445957109444" lon="8.811474219311897"><ele>500.0</ele><time>2026-03-26T10:49:07Z</time></trkpt><trkpt lat="39.008401452011256" lon="8.811587129190713"><ele>500.0</ele><time>2026-03-26T10:49:08Z</time></trkpt><trkpt lat="39.00835577629623" lon="8.811718737959877"><ele>499.99999999999994</ele><time>2026-03-26T10:49:09Z</time></trkpt><trkpt lat="39.00831211027083" lon="8.81182625914365"><ele>500.0</ele><time>2026-03-26T10:49:10Z</time></trkpt><trkpt lat="39.008268778185034" lon="8.811910019397429"><ele>501.99999999999994</ele><time>2026-03-26T10:49:11Z</time></trkpt><trkpt lat="39.008224668614965" lon="8.81196826500587"><ele>504.0</ele><time>2026-03-26T10:49:12Z</time></trkpt><trkpt lat="39.008112885118855" lon="8.812018454771422"><ele>506.0</ele><time>2026-03-26T10:49:14Z</time></trkpt><trkpt lat="39.00804667198781" lon="8.811992692095163"><ele>508.0</ele><time>2026-03-26T10:49:15Z</time></trkpt><trkpt lat="39.007987474038956" lon="8.811940387710617"><ele>509.99999999999994</ele><time>2026-03-26T10:49:16Z</time></trkpt><trkpt lat="39.00793292208876" lon="8.81188101328795"><ele>512.0</ele><time>2026-03-26T10:49:17Z</time></trkpt><trkpt lat="39.00787499174304" lon="8.811794787972804"><ele>512.0</ele><time>2026-03-26T10:49:18Z</time></trkpt><trkpt lat="39.00780897837713" lon="8.811691408404426"><ele>512.0</ele><time>2026-03-26T10:49:19Z</time></trkpt><trkpt lat="39.00773244736087" lon="8.811608360934022"><ele>512.0</ele><time>2026-03-26T10:49:20Z</time></trkpt><trkpt lat="39.00763183879489" lon="8.811565810520156"><ele>512.0</ele><time>2026-03-26T10:49:21Z</time></trkpt><trkpt lat="39.007513779381306" lon="8.811541358806586"><ele>512.0</ele><time>2026-03-26T10:49:22Z</time></trkpt><trkpt lat="39.007389961985915" lon="8.811521011635008"><ele>512.75</ele><time>2026-03-26T10:49:23Z</time></trkpt><trkpt lat="39.00725772098879" lon="8.811512805448142"><ele>513.5</ele><time>2026-03-26T10:49:24Z</time></trkpt><trkpt lat="39.00713074818603" lon="8.811516174797523"><ele>514.25</ele><time>2026-03-26T10:49:25Z</time></trkpt><trkpt lat="39.00702431652704" lon="8.811529527684277"><ele>515.0</ele><time>2026-03-26T10:49:26Z</time></trkpt><trkpt lat="39.00692012935764" lon="8.811564795888987"><ele>515.0</ele><time>2026-03-26T10:49:27Z</time></trkpt><trkpt lat="39.00681484795728" lon="8.81164014329799"><ele>515.0</ele><time>2026-03-26T10:49:28Z</time></trkpt><trkpt lat="39.00671047417872" lon="8.811714334591878"><ele>515.0</ele><time>2026-03-26T10:49:29Z</time></trkpt><trkpt lat="39.006607821786226" lon="8.811769913976491"><ele>515.0</ele><time>2026-03-26T10:49:30Z</time></trkpt><trkpt lat="39.00650681714959" lon="8.811814084133811"><ele>522.0</ele><time>2026-03-26T10:49:31Z</time></trkpt><trkpt lat="39.006409183633195" lon="8.811835121588388"><ele>529.0</ele><time>2026-03-26T10:49:32Z</time></trkpt><trkpt lat="39.00630289052051" lon="8.81184278789052"><ele>536.0</ele><time>2026-03-26T10:49:33Z</time></trkpt><trkpt lat="39.006192930123746" lon="8.81184286087902"><ele>543.0</ele><time>2026-03-26T10:49:34Z</time></trkpt><trkpt lat="39.00608057709083" lon="8.811862859692297"><ele>550.0</ele><time>2026-03-26T10:49:35Z</time></trkpt><trkpt lat="39.005977616039495" lon="8.811893584514879"><ele>550.0</ele><time>2026-03-26T10:49:36Z</time></trkpt><trkpt lat="39.005884359682206" lon="8.81191654429683"><ele>550.0</ele><time>2026-03-26T10:49:37Z</time></trkpt><trkpt lat="39.00580159141884" lon="8.811923747120447"><ele>550.0</ele><time>2026-03-26T10:49:38Z</time></trkpt><trkpt lat="39.005725365104496" lon="8.811918683039957"><ele>550.0</ele><time>2026-03-26T10:49:39Z</time></trkpt><trkpt lat="39.005652408887265" lon="8.811881098810293"><ele>550.0</ele><time>2026-03-26T10:49:40Z</time></trkpt><trkpt lat="39.00558115718763" lon="8.811817483074023"><ele>550.0</ele><time>2026-03-26T10:49:41Z</time></trkpt><trkpt lat="39.00549722762762" lon="8.811762365353076"><ele>546.0</ele><time>2026-03-26T10:49:42Z</time></trkpt><trkpt lat="39.0053947103152" lon="8.811732594323873"><ele>542.0</ele><time>2026-03-26T10:49:43Z</time></trkpt><trkpt lat="39.00529596070818" lon="8.811724382035973"><ele>538.0</ele><time>2026-03-26T10:49:44Z</time></trkpt><trkpt lat="39.0052119767726" lon="8.81172118340041"><ele>534.0</ele><time>2026-03-26T10:49:45Z</time></trkpt><trkpt lat="39.005138643140015" lon="8.811700191585265"><ele>530.0</ele><time>2026-03-26T10:49:46Z</time></trkpt><trkpt lat="39.0050674058142" lon="8.811634535512765"><ele>531.0</ele><time>2026-03-26T10:49:47Z</time></trkpt><trkpt lat="39.004994428082114" lon="8.811532940956672"><ele>532.0</ele><time>2026-03-26T10:49:48Z</time></trkpt><trkpt lat="39.00491456313463" lon="8.81143763934688"><ele>533.0</ele><time>2026-03-26T10:49:49Z</time></trkpt><trkpt lat="39.00482410005678" lon="8.811355237186028"><ele>534.0</ele><time>2026-03-26T10:49:50Z</time></trkpt><trkpt lat="39.00474045409994" lon="8.811292807823598"><ele>535.0</ele><time>2026-03-26T10:49:51Z</time></trkpt><trkpt lat="39.00465211663132" lon="8.811260572658666"><ele>535.0</ele><time>2026-03-26T10:49:52Z</time></trkpt><trkpt lat="39.004550249343396" lon="8.811251993522848"><ele>535.0</ele><time>2026-03-26T10:49:53Z</time></trkpt><trkpt lat="39.00444553529727" lon="8.81125153599831"><ele>535.0</ele><time>2026-03-26T10:49:54Z</time></trkpt><trkpt lat="39.00434367910994" lon="8.811244473512499"><ele>535.0</ele><time>2026-03-26T10:49:55Z</time></trkpt><trkpt lat="39.00425693678327" lon="8.811227403805862"><ele>535.0</ele><time>2026-03-26T10:49:56Z</time></trkpt><trkpt lat="39.004183540481435" lon="8.811192713519175"><ele>533.0</ele><time>2026-03-26T10:49:57Z</time></trkpt><trkpt lat="39.00412532617712" lon="8.811126040860263"><ele>531.0</ele><time>2026-03-26T10:49:58Z</time></trkpt><trkpt lat="39.004081666953766" lon="8.81103714354"><ele>529.0</ele><time>2026-03-26T10:49:59Z</time></trkpt><trkpt lat="39.00405118698567" lon="8.810944415277426"><ele>527.0</ele><time>2026-03-26T10:50:00Z</time></trkpt><trkpt lat="39.00395535474648" lon="8.810856284362842"><ele>525.0</ele><time>2026-03-26T10:50:02Z</time></trkpt><trkpt lat="39.00389006245983" lon="8.810843525639596"><ele>523.0</ele><time>2026-03-26T10:50:03Z</time></trkpt><trkpt lat="39.00381762430354" lon="8.810850529581892"><ele>522.5</ele><time>2026-03-26T10:50:04Z</time></trkpt><trkpt lat="39.00374385796259" lon="8.810864752738683"><ele>522.0</ele><time>2026-03-26T10:50:05Z</time></trkpt><trkpt lat="39.0036740583922" lon="8.810876948964482"><ele>521.5</ele><time>2026-03-26T10:50:06Z</time></trkpt><trkpt lat="39.00360084128778" lon="8.810871048158596"><ele>521.0</ele><time>2026-03-26T10:50:07Z</time></trkpt><trkpt lat="39.003521992760966" lon="8.810836610000331"><ele>520.5</ele><time>2026-03-26T10:50:08Z</time></trkpt><trkpt lat="39.00344625120938" lon="8.810779736867135"><ele>520.0</ele><time>2026-03-26T10:50:09Z</time></trkpt><trkpt lat="39.00336421757767" lon="8.81071494766688"><ele>518.1666666666667</ele><time>2026-03-26T10:50:10Z</time></trkpt><trkpt lat="39.00327041503663" lon="8.810660067486944"><ele>516.3333333333334</ele><time>2026-03-26T10:50:11Z</time></trkpt><trkpt lat="39.00318190887469" lon="8.810616380458784"><ele>514.5</ele><time>2026-03-26T10:50:12Z</time></trkpt><trkpt lat="39.00310263687154" lon="8.81056629369117"><ele>512.6666666666666</ele><time>2026-03-26T10:50:13Z</time></trkpt><trkpt lat="39.00303555753785" lon="8.81050890763764"><ele>510.8333333333333</ele><time>2026-03-26T10:50:14Z</time></trkpt><trkpt lat="39.002968672500835" lon="8.810456610977747"><ele>509.0</ele><time>2026-03-26T10:50:15Z</time></trkpt><trkpt lat="39.002899630637536" lon="8.810435088016535"><ele>508.99999999999994</ele><time>2026-03-26T10:50:16Z</time></trkpt><trkpt lat="39.00281340426496" lon="8.810456588448096"><ele>509.0</ele><time>2026-03-26T10:50:17Z</time></trkpt><trkpt lat="39.00272619812903" lon="8.810496665018224"><ele>509.0</ele><time>2026-03-26T10:50:18Z</time></trkpt><trkpt lat="39.00264328594055" lon="8.810544822029271"><ele>509.0</ele><time>2026-03-26T10:50:19Z</time></trkpt><trkpt lat="39.00256101687857" lon="8.810565104091397"><ele>508.99999999999994</ele><time>2026-03-26T10:50:20Z</time></trkpt><trkpt lat="39.00247591136337" lon="8.810568067622398"><ele>509.0</ele><time>2026-03-26T10:50:21Z</time></trkpt><trkpt lat="39.00238484360087" lon="8.810550039956766"><ele>506.99999999999994</ele><time>2026-03-26T10:50:22Z</time></trkpt><trkpt lat="39.00229472282044" lon="8.810511013222811"><ele>505.0</ele><time>2026-03-26T10:50:23Z</time></trkpt><trkpt lat="39.00220856897395" lon="8.810469015096245"><ele>503.0</ele><time>2026-03-26T10:50:24Z</time></trkpt><trkpt lat="39.00213054085723" lon="8.810437690372568"><ele>501.0</ele><time>2026-03-26T10:50:25Z</time></trkpt><trkpt lat="39.00206428547121" lon="8.81040414037719"><ele>498.99999999999994</ele><time>2026-03-26T10:50:26Z</time></trkpt><trkpt lat="39.00200296936864" lon="8.810349442994314"><ele>497.0</ele><time>2026-03-26T10:50:27Z</time></trkpt><trkpt lat="39.00194088874289" lon="8.810274097501496"><ele>497.0</ele><time>2026-03-26T10:50:28Z</time></trkpt><trkpt lat="39.001867451305" lon="8.810198194800474"><ele>497.00000000000006</ele><time>2026-03-26T10:50:29Z</time></trkpt><trkpt lat="39.00178076006662" lon="8.810137899928561"><ele>497.00000000000006</ele><time>2026-03-26T10:50:30Z</time></trkpt><trkpt lat="39.001685685132934" lon="8.810093436990323"><ele>497.0</ele><time>2026-03-26T10:50:31Z</time></trkpt><trkpt lat="39.00159149293229" lon="8.810058758133003"><ele>497.0</ele><time>2026-03-26T10:50:32Z</time></trkpt><trkpt lat="39.00151125006493" lon="8.810029142736225"><ele>499.3333333333333</ele><time>2026-03-26T10:50:33Z</time></trkpt><trkpt lat="39.001438349696905" lon="8.809991994520168"><ele>501.66666666666663</ele><time>2026-03-26T10:50:34Z</time></trkpt><trkpt lat="39.0013784064609" lon="8.809937632602306"><ele>504.0</ele><time>2026-03-26T10:50:35Z</time></trkpt><trkpt lat="39.001329984967754" lon="8.809863115856109"><ele>506.33333333333337</ele><time>2026-03-26T10:50:36Z</time></trkpt><trkpt lat="39.001288123881245" lon="8.809759265368898"><ele>508.6666666666667</ele><time>2026-03-26T10:50:37Z</time></trkpt><trkpt lat="39.001253007434514" lon="8.809656844369814"><ele>511.0</ele><time>2026-03-26T10:50:38Z</time></trkpt><trkpt lat="39.00121417437618" lon="8.809570535640573"><ele>511.00000000000006</ele><time>2026-03-26T10:50:39Z</time></trkpt><trkpt lat="39.001163883991225" lon="8.809501704059436"><ele>511.0</ele><time>2026-03-26T10:50:40Z</time></trkpt><trkpt lat="39.001099628443995" lon="8.809453499315659"><ele>511.0</ele><time>2026-03-26T10:50:41Z</time></trkpt><trkpt lat="39.00100761016447" lon="8.809441941076232"><ele>511.0</ele><time>2026-03-26T10:50:41.999Z</time></trkpt><trkpt lat="39.00090431733112" lon="8.809454908721658"><ele>511.00000000000006</ele><time>2026-03-26T10:50:42.999Z</time></trkpt><trkpt lat="39.00081413545765" lon="8.809479289609246"><ele>511.0</ele><time>2026-03-26T10:50:43.999Z</time></trkpt><trkpt lat="39.000747882445545" lon="8.809470553398985"><ele>510.6</ele><time>2026-03-26T10:50:44.999Z</time></trkpt><trkpt lat="39.000638016306276" lon="8.809378358936485"><ele>510.20000000000005</ele><time>2026-03-26T10:50:46.999Z</time></trkpt><trkpt lat="39.000584930472634" lon="8.809306840738321"><ele>509.79999999999995</ele><time>2026-03-26T10:50:47.999Z</time></trkpt><trkpt lat="39.00051156318082" lon="8.809265078881818"><ele>509.4</ele><time>2026-03-26T10:50:48.999Z</time></trkpt><trkpt lat="39.000418135173426" lon="8.809263944107164"><ele>509.0</ele><time>2026-03-26T10:50:49.999Z</time></trkpt><trkpt lat="39.00033303343989" lon="8.809269332013413"><ele>508.8333333333333</ele><time>2026-03-26T10:50:50.999Z</time></trkpt><trkpt lat="39.00026399808165" lon="8.809248467356122"><ele>508.66666666666663</ele><time>2026-03-26T10:50:51.999Z</time></trkpt><trkpt lat="39.00019660965987" lon="8.809192126094999"><ele>508.5</ele><time>2026-03-26T10:50:52.999Z</time></trkpt><trkpt lat="39.00013230696341" lon="8.809128386846915"><ele>508.33333333333337</ele><time>2026-03-26T10:50:53.999Z</time></trkpt><trkpt lat="39.000079013489135" lon="8.809063033412613"><ele>508.1666666666667</ele><time>2026-03-26T10:50:54.999Z</time></trkpt><trkpt lat="39.00004240807935" lon="8.808987104572314"><ele>508.0</ele><time>2026-03-26T10:50:55.999Z</time></trkpt><trkpt lat="39.00001333913465" lon="8.808897941368409"><ele>508.00000000000006</ele><time>2026-03-26T10:50:56.999Z</time></trkpt><trkpt lat="38.99999568016924" lon="8.808802349225012"><ele>508.0</ele><time>2026-03-26T10:50:57.999Z</time></trkpt><trkpt lat="38.99997446600658" lon="8.80871642296448"><ele>508.0</ele><time>2026-03-26T10:50:58.999Z</time></trkpt><trkpt lat="38.999931718481434" lon="8.808653639932523"><ele>508.0</ele><time>2026-03-26T10:50:59.999Z</time></trkpt><trkpt lat="38.99986596242474" lon="8.808622030559023"><ele>508.00000000000006</ele><time>2026-03-26T10:51:00.999Z</time></trkpt><trkpt lat="38.999782292482564" lon="8.808616860725516"><ele>508.0</ele><time>2026-03-26T10:51:01.999Z</time></trkpt><trkpt lat="38.99969507870713" lon="8.808617538262398"><ele>508.0</ele><time>2026-03-26T10:51:02.999Z</time></trkpt><trkpt lat="38.99960415452228" lon="8.808616806055337"><ele>507.99999999999994</ele><time>2026-03-26T10:51:03.999Z</time></trkpt><trkpt lat="38.99951034048046" lon="8.80861136054107"><ele>507.99999999999994</ele><time>2026-03-26T10:51:04.999Z</time></trkpt><trkpt lat="38.999414954374956" lon="8.808603810272498"><ele>508.0</ele><time>2026-03-26T10:51:05.999Z</time></trkpt><trkpt lat="38.99932858551233" lon="8.80859864311414"><ele>508.0</ele><time>2026-03-26T10:51:06.999Z</time></trkpt><trkpt lat="38.99924208141377" lon="8.808595392229263"><ele>508.33333333333337</ele><time>2026-03-26T10:51:07.999Z</time></trkpt><trkpt lat="38.99915882196772" lon="8.808599433561168"><ele>508.6666666666667</ele><time>2026-03-26T10:51:08.999Z</time></trkpt><trkpt lat="38.999080873984184" lon="8.808616007477443"><ele>509.0</ele><time>2026-03-26T10:51:09.999Z</time></trkpt><trkpt lat="38.999001130689365" lon="8.808642827361536"><ele>509.33333333333337</ele><time>2026-03-26T10:51:10.999Z</time></trkpt><trkpt lat="38.99891568355789" lon="8.808680809861528"><ele>509.6666666666667</ele><time>2026-03-26T10:51:11.999Z</time></trkpt><trkpt lat="38.998833173445504" lon="8.80872524076205"><ele>510.0</ele><time>2026-03-26T10:51:12.999Z</time></trkpt><trkpt lat="38.9987614266882" lon="8.808746354725347"><ele>510.0</ele><time>2026-03-26T10:51:13.999Z</time></trkpt><trkpt lat="38.99869162737927" lon="8.808732799970505"><ele>510.0</ele><time>2026-03-26T10:51:14.999Z</time></trkpt><trkpt lat="38.998613463731324" lon="8.808703081674166"><ele>510.0</ele><time>2026-03-26T10:51:15.999Z</time></trkpt><trkpt lat="38.99853269541732" lon="8.80867679846962"><ele>510.0</ele><time>2026-03-26T10:51:16.999Z</time></trkpt><trkpt lat="38.998453203764896" lon="8.808655532790025"><ele>510.0</ele><time>2026-03-26T10:51:17.999Z</time></trkpt><trkpt lat="38.99837843611289" lon="8.80863863396679"><ele>510.0</ele><time>2026-03-26T10:51:18.999Z</time></trkpt><trkpt lat="38.99831650980372" lon="8.808614049975528"><ele>508.5</ele><time>2026-03-26T10:51:19.999Z</time></trkpt><trkpt lat="38.9982595053533" lon="8.808571527968185"><ele>507.0</ele><time>2026-03-26T10:51:20.999Z</time></trkpt><trkpt lat="38.99821075225403" lon="8.808500889389743"><ele>505.5</ele><time>2026-03-26T10:51:21.999Z</time></trkpt><trkpt lat="38.998161602000835" lon="8.808405766460979"><ele>504.0</ele><time>2026-03-26T10:51:22.999Z</time></trkpt><trkpt lat="38.99811173787129" lon="8.80831121028531"><ele>502.5</ele><time>2026-03-26T10:51:23.999Z</time></trkpt><trkpt lat="38.99805275022425" lon="8.808216125881971"><ele>501.0</ele><time>2026-03-26T10:51:24.999Z</time></trkpt><trkpt lat="38.99798106869746" lon="8.808107765834894"><ele>496.8</ele><time>2026-03-26T10:51:25.999Z</time></trkpt><trkpt lat="38.99790521251905" lon="8.808007864861196"><ele>492.6</ele><time>2026-03-26T10:51:26.999Z</time></trkpt><trkpt lat="38.99783630879909" lon="8.807923115932622"><ele>488.4</ele><time>2026-03-26T10:51:27.999Z</time></trkpt><trkpt lat="38.99777830894077" lon="8.807847894778646"><ele>484.2</ele><time>2026-03-26T10:51:28.999Z</time></trkpt><trkpt lat="38.9977186108303" lon="8.807785177172159"><ele>480.0</ele><time>2026-03-26T10:51:29.999Z</time></trkpt><trkpt lat="38.997636779320935" lon="8.807744124385135"><ele>480.0</ele><time>2026-03-26T10:51:30.999Z</time></trkpt><trkpt lat="38.997548428814326" lon="8.807714128684422"><ele>480.0</ele><time>2026-03-26T10:51:31.999Z</time></trkpt><trkpt lat="38.997468635832625" lon="8.807677850647273"><ele>480.0</ele><time>2026-03-26T10:51:32.999Z</time></trkpt><trkpt lat="38.99739233232771" lon="8.807626078323144"><ele>480.0</ele><time>2026-03-26T10:51:33.999Z</time></trkpt><trkpt lat="38.99732680475425" lon="8.807558997651356"><ele>480.0</ele><time>2026-03-26T10:51:34.999Z</time></trkpt><trkpt lat="38.9972652431197" lon="8.80750134157571"><ele>480.0</ele><time>2026-03-26T10:51:35.999Z</time></trkpt><trkpt lat="38.99719546505125" lon="8.807464382016022"><ele>479.0</ele><time>2026-03-26T10:51:36.999Z</time></trkpt><trkpt lat="38.99713066638872" lon="8.807442571714994"><ele>478.0</ele><time>2026-03-26T10:51:37.999Z</time></trkpt><trkpt lat="38.997033774486816" lon="8.807361615000525"><ele>477.0</ele><time>2026-03-26T10:51:39.999Z</time></trkpt><trkpt lat="38.99700569671991" lon="8.807280351523556"><ele>476.0</ele><time>2026-03-26T10:51:40.999Z</time></trkpt><trkpt lat="38.99699276582528" lon="8.807183634123188"><ele>475.0</ele><time>2026-03-26T10:51:41.999Z</time></trkpt><trkpt lat="38.99698765252868" lon="8.80709224169706"><ele>474.0</ele><time>2026-03-26T10:51:42.999Z</time></trkpt><trkpt lat="38.99698484650311" lon="8.807004980416481"><ele>474.0</ele><time>2026-03-26T10:51:43.999Z</time></trkpt><trkpt lat="38.996964997987284" lon="8.806857129456908"><ele>474.0</ele><time>2026-03-26T10:51:45.999Z</time></trkpt><trkpt lat="38.996928231694646" lon="8.80673402417452"><ele>474.0</ele><time>2026-03-26T10:51:47.999Z</time></trkpt><trkpt lat="38.99688450222971" lon="8.806652797075628"><ele>474.0</ele><time>2026-03-26T10:51:49.999Z</time></trkpt><trkpt lat="38.99681200586779" lon="8.806638303352893"><ele>474.0</ele><time>2026-03-26T10:51:53.999Z</time></trkpt><trkpt lat="38.996744359379335" lon="8.80666559534231"><ele>474.0</ele><time>2026-03-26T10:52:12.999Z</time></trkpt><trkpt lat="38.99669580948651" lon="8.806721353816497"><ele>472.79999999999995</ele><time>2026-03-26T10:52:13.999Z</time></trkpt><trkpt lat="38.996635947283735" lon="8.806801185531796"><ele>471.59999999999997</ele><time>2026-03-26T10:52:14.999Z</time></trkpt><trkpt lat="38.9965792191206" lon="8.80688665090459"><ele>470.4</ele><time>2026-03-26T10:52:15.999Z</time></trkpt><trkpt lat="38.99653692777898" lon="8.80697280796956"><ele>469.2</ele><time>2026-03-26T10:52:16.999Z</time></trkpt><trkpt lat="38.996505426355576" lon="8.807044059579493"><ele>468.0</ele><time>2026-03-26T10:52:17.999Z</time></trkpt><trkpt lat="38.9964419348077" lon="8.807197506697465"><ele>467.3333333333333</ele><time>2026-03-26T10:52:19.999Z</time></trkpt><trkpt lat="38.99640195983928" lon="8.807287429576917"><ele>466.66666666666663</ele><time>2026-03-26T10:52:20.999Z</time></trkpt><trkpt lat="38.99635586408312" lon="8.80737195160285"><ele>466.0</ele><time>2026-03-26T10:52:21.999Z</time></trkpt><trkpt lat="38.99631042972064" lon="8.807448325910961"><ele>465.3333333333333</ele><time>2026-03-26T10:52:22.999Z</time></trkpt><trkpt lat="38.996253252879065" lon="8.807520383655364"><ele>464.66666666666663</ele><time>2026-03-26T10:52:23.999Z</time></trkpt><trkpt lat="38.99618980620187" lon="8.807579785075049"><ele>464.0</ele><time>2026-03-26T10:52:24.999Z</time></trkpt><trkpt lat="38.99612788656529" lon="8.807623647919737"><ele>463.99999999999994</ele><time>2026-03-26T10:52:25.999Z</time></trkpt><trkpt lat="38.99605757953582" lon="8.80764847281401"><ele>464.0</ele><time>2026-03-26T10:52:26.999Z</time></trkpt><trkpt lat="38.99597557861098" lon="8.807657310441826"><ele>464.0</ele><time>2026-03-26T10:52:27.999Z</time></trkpt><trkpt lat="38.99589534772362" lon="8.80766569375982"><ele>464.0</ele><time>2026-03-26T10:52:28.999Z</time></trkpt><trkpt lat="38.99582887139186" lon="8.807692725377724"><ele>463.99999999999994</ele><time>2026-03-26T10:52:29.999Z</time></trkpt><trkpt lat="38.995761130815595" lon="8.80781636665438"><ele>464.0</ele><time>2026-03-26T10:52:31.999Z</time></trkpt><trkpt lat="38.995764727040864" lon="8.807900331636736"><ele>462.3333333333333</ele><time>2026-03-26T10:52:32.999Z</time></trkpt><trkpt lat="38.99578374034484" lon="8.808000339183437"><ele>460.66666666666663</ele><time>2026-03-26T10:52:33.999Z</time></trkpt><trkpt lat="38.99578175083933" lon="8.808107670028157"><ele>459.0</ele><time>2026-03-26T10:52:34.999Z</time></trkpt><trkpt lat="38.99576742543585" lon="8.808208974397898"><ele>457.33333333333337</ele><time>2026-03-26T10:52:35.999Z</time></trkpt><trkpt lat="38.995748114286364" lon="8.808301569396926"><ele>455.6666666666667</ele><time>2026-03-26T10:52:36.999Z</time></trkpt><trkpt lat="38.99571922626413" lon="8.808390607691802"><ele>454.0</ele><time>2026-03-26T10:52:37.999Z</time></trkpt><trkpt lat="38.99567500095181" lon="8.808457344687072"><ele>453.83333333333337</ele><time>2026-03-26T10:52:38.999Z</time></trkpt><trkpt lat="38.995611421767244" lon="8.808495643547975"><ele>453.6666666666667</ele><time>2026-03-26T10:52:39.999Z</time></trkpt><trkpt lat="38.99553702841751" lon="8.808522699368392"><ele>453.5</ele><time>2026-03-26T10:52:40.999Z</time></trkpt><trkpt lat="38.99546402548343" lon="8.808564034231715"><ele>453.33333333333337</ele><time>2026-03-26T10:52:41.999Z</time></trkpt><trkpt lat="38.99541184395161" lon="8.808630772735132"><ele>453.1666666666667</ele><time>2026-03-26T10:52:42.999Z</time></trkpt><trkpt lat="38.995370470846524" lon="8.808726722498838"><ele>453.0</ele><time>2026-03-26T10:52:43.999Z</time></trkpt><trkpt lat="38.99533197927686" lon="8.808814670278046"><ele>453.0</ele><time>2026-03-26T10:52:44.999Z</time></trkpt><trkpt lat="38.995291174459645" lon="8.80888059993635"><ele>452.99999999999994</ele><time>2026-03-26T10:52:45.999Z</time></trkpt><trkpt lat="38.99517754704396" lon="8.808957357387328"><ele>452.99999999999994</ele><time>2026-03-26T10:52:47.999Z</time></trkpt><trkpt lat="38.99509431060449" lon="8.808967136903096"><ele>453.0</ele><time>2026-03-26T10:52:48.999Z</time></trkpt><trkpt lat="38.99499947932468" lon="8.808979187497428"><ele>453.0</ele><time>2026-03-26T10:52:49.999Z</time></trkpt><trkpt lat="38.994905065011054" lon="8.809020243127028"><ele>452.0</ele><time>2026-03-26T10:52:50.999Z</time></trkpt><trkpt lat="38.99482036627246" lon="8.80906807862557"><ele>451.0</ele><time>2026-03-26T10:52:51.999Z</time></trkpt><trkpt lat="38.99474737503075" lon="8.809115641440771"><ele>450.0</ele><time>2026-03-26T10:52:52.999Z</time></trkpt><trkpt lat="38.99468026749896" lon="8.809177870856582"><ele>449.0</ele><time>2026-03-26T10:52:53.999Z</time></trkpt><trkpt lat="38.99462147388196" lon="8.809255264271284"><ele>448.0</ele><time>2026-03-26T10:52:54.999Z</time></trkpt><trkpt lat="38.994572303638705" lon="8.809333346711696"><ele>447.0</ele><time>2026-03-26T10:52:55.999Z</time></trkpt><trkpt lat="38.99451884666466" lon="8.809390418898188"><ele>446.99999999999994</ele><time>2026-03-26T10:52:56.999Z</time></trkpt><trkpt lat="38.994447087348135" lon="8.809421343949033"><ele>447.0</ele><time>2026-03-26T10:52:57.999Z</time></trkpt><trkpt lat="38.994366665306096" lon="8.809436250951663"><ele>447.0</ele><time>2026-03-26T10:52:58.999Z</time></trkpt><trkpt lat="38.994293338991504" lon="8.809432713203384"><ele>447.0</ele><time>2026-03-26T10:52:59.999Z</time></trkpt><trkpt lat="38.99423012287336" lon="8.809413930686294"><ele>447.0</ele><time>2026-03-26T10:53:00.999Z</time></trkpt><trkpt lat="38.994168857859286" lon="8.809368486813042"><ele>446.99999999999994</ele><time>2026-03-26T10:53:01.999Z</time></trkpt><trkpt lat="38.99411244436854" lon="8.809298291784586"><ele>447.0</ele><time>2026-03-26T10:53:02.999Z</time></trkpt><trkpt lat="38.99406091427208" lon="8.80921622953067"><ele>447.8</ele><time>2026-03-26T10:53:03.999Z</time></trkpt><trkpt lat="38.99401068246924" lon="8.809163464223523"><ele>448.6</ele><time>2026-03-26T10:53:04.999Z</time></trkpt><trkpt lat="38.993895442252125" lon="8.809178681834025"><ele>449.40000000000003</ele><time>2026-03-26T10:53:06.999Z</time></trkpt><trkpt lat="38.993826459872196" lon="8.809314540587263"><ele>450.20000000000005</ele><time>2026-03-26T10:53:08.999Z</time></trkpt><trkpt lat="38.99382702932917" lon="8.809412561922585"><ele>451.0</ele><time>2026-03-26T10:53:09.999Z</time></trkpt><trkpt lat="38.993833127279146" lon="8.809525758611693"><ele>448.8</ele><time>2026-03-26T10:53:10.999Z</time></trkpt><trkpt lat="38.99383425929012" lon="8.809632865082644"><ele>446.6</ele><time>2026-03-26T10:53:11.999Z</time></trkpt><trkpt lat="38.9938408986453" lon="8.80972220779816"><ele>444.4</ele><time>2026-03-26T10:53:12.999Z</time></trkpt><trkpt lat="38.99381228182814" lon="8.809859822689267"><ele>442.2</ele><time>2026-03-26T10:53:14.999Z</time></trkpt><trkpt lat="38.9937159055311" lon="8.809921753273716"><ele>440.0</ele><time>2026-03-26T10:53:16.999Z</time></trkpt><trkpt lat="38.99359415719425" lon="8.80986047432986"><ele>440.0</ele><time>2026-03-26T10:53:18.999Z</time></trkpt><trkpt lat="38.99352700432751" lon="8.809793509986365"><ele>440.0</ele><time>2026-03-26T10:53:19.999Z</time></trkpt><trkpt lat="38.99345209448905" lon="8.809723096240837"><ele>440.0</ele><time>2026-03-26T10:53:20.999Z</time></trkpt><trkpt lat="38.993360270505235" lon="8.809658822223364"><ele>440.0</ele><time>2026-03-26T10:53:21.999Z</time></trkpt><trkpt lat="38.99326864562228" lon="8.809606607263635"><ele>440.0</ele><time>2026-03-26T10:53:22.999Z</time></trkpt><trkpt lat="38.99318633366406" lon="8.809565498862334"><ele>438.99999999999994</ele><time>2026-03-26T10:53:23.999Z</time></trkpt><trkpt lat="38.99311538354832" lon="8.809519392332678"><ele>438.0</ele><time>2026-03-26T10:53:24.999Z</time></trkpt><trkpt lat="38.99304425037429" lon="8.809465067525807"><ele>437.0</ele><time>2026-03-26T10:53:25.999Z</time></trkpt><trkpt lat="38.99298035058354" lon="8.809407332095137"><ele>436.0</ele><time>2026-03-26T10:53:26.999Z</time></trkpt><trkpt lat="38.99292671161965" lon="8.80934147591642"><ele>434.99999999999994</ele><time>2026-03-26T10:53:27.999Z</time></trkpt><trkpt lat="38.99288358436433" lon="8.809258346883794"><ele>434.0</ele><time>2026-03-26T10:53:28.999Z</time></trkpt><trkpt lat="38.99284942089097" lon="8.809188870917662"><ele>434.66666666666663</ele><time>2026-03-26T10:53:29.999Z</time></trkpt><trkpt lat="38.99272570379663" lon="8.809131589012871"><ele>435.3333333333333</ele><time>2026-03-26T10:53:31.999Z</time></trkpt><trkpt lat="38.992639655551336" lon="8.809137914718912"><ele>436.0</ele><time>2026-03-26T10:53:32.999Z</time></trkpt><trkpt lat="38.99255873274284" lon="8.809154930341228"><ele>436.66666666666663</ele><time>2026-03-26T10:53:33.999Z</time></trkpt><trkpt lat="38.99248725865913" lon="8.809194356281079"><ele>437.3333333333333</ele><time>2026-03-26T10:53:34.999Z</time></trkpt><trkpt lat="38.99243258658346" lon="8.809242311851763"><ele>438.0</ele><time>2026-03-26T10:53:35.999Z</time></trkpt><trkpt lat="38.99238501714579" lon="8.809299645966611"><ele>436.3333333333333</ele><time>2026-03-26T10:53:36.999Z</time></trkpt><trkpt lat="38.99234104697128" lon="8.809366340571392"><ele>434.66666666666663</ele><time>2026-03-26T10:53:37.999Z</time></trkpt><trkpt lat="38.992299902509686" lon="8.809442636812618"><ele>433.0</ele><time>2026-03-26T10:53:38.999Z</time></trkpt><trkpt lat="38.992263146857574" lon="8.809520969915097"><ele>431.3333333333333</ele><time>2026-03-26T10:53:39.999Z</time></trkpt><trkpt lat="38.992186859936936" lon="8.809619452140389"><ele>429.66666666666663</ele><time>2026-03-26T10:53:41.999Z</time></trkpt><trkpt lat="38.99207518425536" lon="8.809661916314555"><ele>428.0</ele><time>2026-03-26T10:53:43.999Z</time></trkpt><trkpt lat="38.99199300200405" lon="8.80976925149242"><ele>427.99999999999994</ele><time>2026-03-26T10:53:45.999Z</time></trkpt><trkpt lat="38.99193725006138" lon="8.809881888366814"><ele>428.0</ele><time>2026-03-26T10:53:47.999Z</time></trkpt><trkpt lat="38.9918752560267" lon="8.8099533457833"><ele>428.0</ele><time>2026-03-26T10:53:49.999Z</time></trkpt><trkpt lat="38.99182211353286" lon="8.810002055278808"><ele>428.0</ele><time>2026-03-26T10:53:51.999Z</time></trkpt><trkpt lat="38.99178475323226" lon="8.810078699405189"><ele>427.99999999999994</ele><time>2026-03-26T10:53:54.999Z</time></trkpt><trkpt lat="38.99178508794655" lon="8.810194413281412"><ele>428.0</ele><time>2026-03-26T10:54:17Z</time></trkpt><trkpt lat="38.99179876414387" lon="8.810354126383036"><ele>427.99999999999994</ele><time>2026-03-26T10:54:19Z</time></trkpt><trkpt lat="38.991796423843965" lon="8.810440816193616"><ele>428.0</ele><time>2026-03-26T10:54:19.999Z</time></trkpt><trkpt lat="38.99179039470454" lon="8.810601065395327"><ele>428.0</ele><time>2026-03-26T10:54:21.999Z</time></trkpt><trkpt lat="38.99177070924378" lon="8.81070077316456"><ele>428.0</ele><time>2026-03-26T10:54:22.999Z</time></trkpt><trkpt lat="38.99174910137287" lon="8.810805112779397"><ele>427.99999999999994</ele><time>2026-03-26T10:54:23.999Z</time></trkpt><trkpt lat="38.99172838420086" lon="8.810905508626456"><ele>428.0</ele><time>2026-03-26T10:54:24.999Z</time></trkpt><trkpt lat="38.991697172088394" lon="8.81101553569592"><ele>427.49999999999994</ele><time>2026-03-26T10:54:25.999Z</time></trkpt><trkpt lat="38.991669416863346" lon="8.811120250499794"><ele>427.0</ele><time>2026-03-26T10:54:26.999Z</time></trkpt><trkpt lat="38.99164112529862" lon="8.81122949131714"><ele>426.5</ele><time>2026-03-26T10:54:27.999Z</time></trkpt><trkpt lat="38.99161928504313" lon="8.811340910104917"><ele>426.0</ele><time>2026-03-26T10:54:28.999Z</time></trkpt><trkpt lat="38.991603009614764" lon="8.811456381955143"><ele>425.49999999999994</ele><time>2026-03-26T10:54:29.999Z</time></trkpt><trkpt lat="38.99159931967048" lon="8.811574205236546"><ele>425.0</ele><time>2026-03-26T10:54:30.999Z</time></trkpt><trkpt lat="38.99159955532119" lon="8.81168980211171"><ele>425.0</ele><time>2026-03-26T10:54:31.999Z</time></trkpt><trkpt lat="38.99160074092053" lon="8.811811387074094"><ele>425.0</ele><time>2026-03-26T10:54:32.999Z</time></trkpt><trkpt lat="38.991602138213125" lon="8.811940370408836"><ele>425.0</ele><time>2026-03-26T10:54:33.999Z</time></trkpt><trkpt lat="38.99159889005491" lon="8.812052027432191"><ele>425.0</ele><time>2026-03-26T10:54:34.999Z</time></trkpt><trkpt lat="38.991595838315135" lon="8.8121670381195"><ele>425.0</ele><time>2026-03-26T10:54:35.999Z</time></trkpt><trkpt lat="38.991588186551375" lon="8.812277599588379"><ele>424.2857142857143</ele><time>2026-03-26T10:54:36.999Z</time></trkpt><trkpt lat="38.9915808480869" lon="8.81237022444653"><ele>423.57142857142856</ele><time>2026-03-26T10:54:37.999Z</time></trkpt><trkpt lat="38.99156690361905" lon="8.81245678737488"><ele>422.8571428571429</ele><time>2026-03-26T10:54:38.999Z</time></trkpt><trkpt lat="38.99154054529805" lon="8.812530653341735"><ele>422.1428571428571</ele><time>2026-03-26T10:54:39.999Z</time></trkpt><trkpt lat="38.991499097524745" lon="8.812599121081927"><ele>421.42857142857144</ele><time>2026-03-26T10:54:40.999Z</time></trkpt><trkpt lat="38.99144526416786" lon="8.812663556532915"><ele>420.7142857142857</ele><time>2026-03-26T10:54:41.999Z</time></trkpt><trkpt lat="38.99137590712395" lon="8.81271454416118"><ele>420.0</ele><time>2026-03-26T10:54:42.999Z</time></trkpt><trkpt lat="38.99130935203156" lon="8.812749671376558"><ele>420.0</ele><time>2026-03-26T10:54:43.999Z</time></trkpt><trkpt lat="38.99124587902747" lon="8.81275815283974"><ele>420.0</ele><time>2026-03-26T10:54:44.999Z</time></trkpt><trkpt lat="38.991125629108005" lon="8.812723463434756"><ele>420.0</ele><time>2026-03-26T10:54:46.999Z</time></trkpt><trkpt lat="38.991065167990904" lon="8.812664664235006"><ele>420.0</ele><time>2026-03-26T10:54:47.999Z</time></trkpt><trkpt lat="38.991014504116734" lon="8.812599924322425"><ele>420.0</ele><time>2026-03-26T10:54:48.999Z</time></trkpt><trkpt lat="38.99093466237871" lon="8.812520636521544"><ele>420.0</ele><time>2026-03-26T10:54:50.999Z</time></trkpt><trkpt lat="38.99086289059768" lon="8.812561838200379"><ele>419.1666666666667</ele><time>2026-03-26T10:54:52.999Z</time></trkpt><trkpt lat="38.990876079588105" lon="8.812687310257978"><ele>418.33333333333337</ele><time>2026-03-26T10:54:54.999Z</time></trkpt><trkpt lat="38.990925250765436" lon="8.812738012899564"><ele>417.5</ele><time>2026-03-26T10:54:55.999Z</time></trkpt><trkpt lat="38.99099050022164" lon="8.81278169074671"><ele>416.6666666666667</ele><time>2026-03-26T10:54:56.999Z</time></trkpt><trkpt lat="38.99105361247877" lon="8.81283115185192"><ele>415.83333333333337</ele><time>2026-03-26T10:54:57.999Z</time></trkpt><trkpt lat="38.9911179178067" lon="8.812896115240486"><ele>415.0</ele><time>2026-03-26T10:54:58.999Z</time></trkpt><trkpt lat="38.99118356189548" lon="8.812938820361216"><ele>415.00000000000006</ele><time>2026-03-26T10:54:59.999Z</time></trkpt><trkpt lat="38.991258347258096" lon="8.812950656932204"><ele>415.0</ele><time>2026-03-26T10:55:00.999Z</time></trkpt><trkpt lat="38.99134322598377" lon="8.812939441007043"><ele>415.0</ele><time>2026-03-26T10:55:01.999Z</time></trkpt><trkpt lat="38.99143830570148" lon="8.812915046461008"><ele>415.0</ele><time>2026-03-26T10:55:02.999Z</time></trkpt><trkpt lat="38.99153761331185" lon="8.812889146283542"><ele>415.00000000000006</ele><time>2026-03-26T10:55:03.999Z</time></trkpt><trkpt lat="38.991625103236586" lon="8.812859787481681"><ele>415.0</ele><time>2026-03-26T10:55:04.999Z</time></trkpt><trkpt lat="38.991695505406184" lon="8.812831780064613"><ele>415.0</ele><time>2026-03-26T10:55:05.999Z</time></trkpt><trkpt lat="38.99178899682318" lon="8.812836531234492"><ele>415.0</ele><time>2026-03-26T10:55:07.999Z</time></trkpt><trkpt lat="38.99184431963256" lon="8.812933338484552"><ele>415.0</ele><time>2026-03-26T10:55:09.999Z</time></trkpt><trkpt lat="38.991788594815226" lon="8.813071018685086"><ele>415.0</ele><time>2026-03-26T10:55:11.999Z</time></trkpt><trkpt lat="38.991721074050105" lon="8.813132810127637"><ele>415.0</ele><time>2026-03-26T10:55:12.999Z</time></trkpt><trkpt lat="38.99165509360643" lon="8.813196599448045"><ele>415.0</ele><time>2026-03-26T10:55:13.999Z</time></trkpt><trkpt lat="38.99156929756814" lon="8.813302017418657"><ele>415.0</ele><time>2026-03-26T10:55:15.999Z</time></trkpt><trkpt lat="38.991502962120286" lon="8.813370465017245"><ele>415.0</ele><time>2026-03-26T10:55:17.999Z</time></trkpt><trkpt lat="38.99140477607227" lon="8.813455783361707"><ele>415.0</ele><time>2026-03-26T10:55:19.999Z</time></trkpt><trkpt lat="38.99134151483036" lon="8.813514794796072"><ele>415.0</ele><time>2026-03-26T10:55:20.999Z</time></trkpt><trkpt lat="38.9912729746617" lon="8.813585008075785"><ele>414.00000000000006</ele><time>2026-03-26T10:55:21.999Z</time></trkpt><trkpt lat="38.99120397538423" lon="8.813670839795892"><ele>413.0</ele><time>2026-03-26T10:55:22.999Z</time></trkpt><trkpt lat="38.9911535199938" lon="8.813742740556512"><ele>412.0</ele><time>2026-03-26T10:55:23.999Z</time></trkpt><trkpt lat="38.991131890814216" lon="8.813881467248015"><ele>411.0</ele><time>2026-03-26T10:55:25.999Z</time></trkpt><trkpt lat="38.9911629029152" lon="8.813963224602674"><ele>410.00000000000006</ele><time>2026-03-26T10:55:26.999Z</time></trkpt><trkpt lat="38.99121342684243" lon="8.814018436989594"><ele>409.0</ele><time>2026-03-26T10:55:27.999Z</time></trkpt><trkpt lat="38.991278244496435" lon="8.814049759534637"><ele>409.0</ele><time>2026-03-26T10:55:28.999Z</time></trkpt><trkpt lat="38.99136167030617" lon="8.814050780344264"><ele>409.0</ele><time>2026-03-26T10:55:29.999Z</time></trkpt><trkpt lat="38.991471742115905" lon="8.814026388217817"><ele>409.0</ele><time>2026-03-26T10:55:30.999Z</time></trkpt><trkpt lat="38.99158764604752" lon="8.814018203623327"><ele>409.0</ele><time>2026-03-26T10:55:31.999Z</time></trkpt><trkpt lat="38.991697156466046" lon="8.814032618556295"><ele>409.0</ele><time>2026-03-26T10:55:32.999Z</time></trkpt><trkpt lat="38.99179811461559" lon="8.814057834978058"><ele>407.83333333333337</ele><time>2026-03-26T10:55:33.999Z</time></trkpt><trkpt lat="38.991890629392124" lon="8.81409142062107"><ele>406.6666666666667</ele><time>2026-03-26T10:55:34.999Z</time></trkpt><trkpt lat="38.991962990305765" lon="8.814144508162006"><ele>405.5</ele><time>2026-03-26T10:55:35.999Z</time></trkpt><trkpt lat="38.99201996343354" lon="8.814222928977859"><ele>404.33333333333337</ele><time>2026-03-26T10:55:36.999Z</time></trkpt><trkpt lat="38.99207507813679" lon="8.81431391478124"><ele>403.1666666666667</ele><time>2026-03-26T10:55:37.999Z</time></trkpt><trkpt lat="38.9921276487686" lon="8.814400118881776"><ele>402.0</ele><time>2026-03-26T10:55:38.999Z</time></trkpt><trkpt lat="38.9921870801823" lon="8.81445917878681"><ele>402.0</ele><time>2026-03-26T10:55:39.999Z</time></trkpt><trkpt lat="38.99226356271847" lon="8.814480155935021"><ele>402.0</ele><time>2026-03-26T10:55:40.999Z</time></trkpt><trkpt lat="38.99235761875746" lon="8.814473180866377"><ele>402.0</ele><time>2026-03-26T10:55:41.999Z</time></trkpt><trkpt lat="38.99245007336373" lon="8.81446249489471"><ele>402.0</ele><time>2026-03-26T10:55:42.999Z</time></trkpt><trkpt lat="38.992529940287426" lon="8.814471725364898"><ele>402.0</ele><time>2026-03-26T10:55:43.999Z</time></trkpt><trkpt lat="38.99260273219894" lon="8.814501266351497"><ele>402.0</ele><time>2026-03-26T10:55:44.999Z</time></trkpt><trkpt lat="38.992677404169605" lon="8.814559623448345"><ele>404.5</ele><time>2026-03-26T10:55:45.999Z</time></trkpt><trkpt lat="38.99274775910847" lon="8.814622379650883"><ele>407.0</ele><time>2026-03-26T10:55:46.999Z</time></trkpt><trkpt lat="38.99280315866802" lon="8.814696153370315"><ele>409.5</ele><time>2026-03-26T10:55:47.999Z</time></trkpt><trkpt lat="38.99283588203337" lon="8.814788491512704"><ele>412.0</ele><time>2026-03-26T10:55:48.999Z</time></trkpt><trkpt lat="38.99285031565949" lon="8.81488862092754"><ele>414.5</ele><time>2026-03-26T10:55:49.999Z</time></trkpt><trkpt lat="38.99288950235738" lon="8.814977928515548"><ele>417.0</ele><time>2026-03-26T10:55:50.999Z</time></trkpt><trkpt lat="38.992961759697224" lon="8.815059885892516"><ele>417.0</ele><time>2026-03-26T10:55:51.999Z</time></trkpt><trkpt lat="38.99304535173867" lon="8.815147949483286"><ele>417.0</ele><time>2026-03-26T10:55:52.999Z</time></trkpt><trkpt lat="38.993130749244564" lon="8.815243804570612"><ele>417.0</ele><time>2026-03-26T10:55:53.999Z</time></trkpt><trkpt lat="38.993232364035336" lon="8.815324013479529"><ele>417.0</ele><time>2026-03-26T10:55:54.999Z</time></trkpt><trkpt lat="38.99332386188933" lon="8.815393479966017"><ele>417.0</ele><time>2026-03-26T10:55:55.999Z</time></trkpt><trkpt lat="38.993401701740034" lon="8.815469759642296"><ele>412.0</ele><time>2026-03-26T10:55:56.999Z</time></trkpt><trkpt lat="38.993475188136834" lon="8.815556575936554"><ele>407.0</ele><time>2026-03-26T10:55:57.999Z</time></trkpt><trkpt lat="38.99354980353381" lon="8.815646022635173"><ele>402.0</ele><time>2026-03-26T10:55:58.999Z</time></trkpt><trkpt lat="38.99362715396963" lon="8.815726934388548"><ele>397.0</ele><time>2026-03-26T10:55:59.999Z</time></trkpt><trkpt lat="38.99369836838706" lon="8.815791152442495"><ele>392.0</ele><time>2026-03-26T10:56:00.999Z</time></trkpt><trkpt lat="38.993754826947736" lon="8.815833574588039"><ele>391.99999999999994</ele><time>2026-03-26T10:56:01.999Z</time></trkpt><trkpt lat="38.993878630650656" lon="8.815837738357766"><ele>392.0</ele><time>2026-03-26T10:56:04Z</time></trkpt><trkpt lat="38.99393630195567" lon="8.815791276147026"><ele>392.0</ele><time>2026-03-26T10:56:05Z</time></trkpt><trkpt lat="38.99396689804531" lon="8.815715566450574"><ele>392.0</ele><time>2026-03-26T10:56:06Z</time></trkpt><trkpt lat="38.993974579503266" lon="8.81563017255515"><ele>391.99999999999994</ele><time>2026-03-26T10:56:07Z</time></trkpt><trkpt lat="38.99395365982935" lon="8.81553290281131"><ele>392.0</ele><time>2026-03-26T10:56:08Z</time></trkpt><trkpt lat="38.99391585516993" lon="8.815448691412413"><ele>391.99999999999994</ele><time>2026-03-26T10:56:09Z</time></trkpt><trkpt lat="38.99387296215964" lon="8.815388956376294"><ele>392.0</ele><time>2026-03-26T10:56:10Z</time></trkpt><trkpt lat="38.99384528975634" lon="8.815261534743314"><ele>392.0</ele><time>2026-03-26T10:56:12Z</time></trkpt><trkpt lat="38.993921916158385" lon="8.81517729489404"><ele>392.0</ele><time>2026-03-26T10:56:14Z</time></trkpt><trkpt lat="38.99399278949902" lon="8.815172206698923"><ele>391.99999999999994</ele><time>2026-03-26T10:56:15Z</time></trkpt><trkpt lat="38.99408636100958" lon="8.815184210052225"><ele>392.0</ele><time>2026-03-26T10:56:16Z</time></trkpt><trkpt lat="38.994204043039865" lon="8.815200256791792"><ele>392.8</ele><time>2026-03-26T10:56:17Z</time></trkpt><trkpt lat="38.9943085712232" lon="8.815208458371503"><ele>393.6</ele><time>2026-03-26T10:56:18Z</time></trkpt><trkpt lat="38.99440792775992" lon="8.815190658852572"><ele>394.40000000000003</ele><time>2026-03-26T10:56:19Z</time></trkpt><trkpt lat="38.994481790462004" lon="8.81516129320782"><ele>395.20000000000005</ele><time>2026-03-26T10:56:20Z</time></trkpt><trkpt lat="38.99457592280523" lon="8.815153985391198"><ele>396.0</ele><time>2026-03-26T10:56:22Z</time></trkpt><trkpt lat="38.99465339980864" lon="8.81527272028071"><ele>396.0</ele><time>2026-03-26T10:56:24Z</time></trkpt><trkpt lat="38.994681776458094" lon="8.815369335183139"><ele>396.0</ele><time>2026-03-26T10:56:25Z</time></trkpt><trkpt lat="38.994704100904094" lon="8.815473240051201"><ele>396.0</ele><time>2026-03-26T10:56:26Z</time></trkpt><trkpt lat="38.99473698762892" lon="8.81555924917368"><ele>396.0</ele><time>2026-03-26T10:56:27Z</time></trkpt><trkpt lat="38.994785639139494" lon="8.81561929427004"><ele>396.0</ele><time>2026-03-26T10:56:27.999Z</time></trkpt><trkpt lat="38.99485633778439" lon="8.815653576108932"><ele>396.0</ele><time>2026-03-26T10:56:28.999Z</time></trkpt><trkpt lat="38.99492524556071" lon="8.815674819234657"><ele>396.6</ele><time>2026-03-26T10:56:29.999Z</time></trkpt><trkpt lat="38.99503271674868" lon="8.815728206283968"><ele>397.20000000000005</ele><time>2026-03-26T10:56:31.999Z</time></trkpt><trkpt lat="38.99509097449109" lon="8.815872595287516"><ele>397.79999999999995</ele><time>2026-03-26T10:56:33.999Z</time></trkpt><trkpt lat="38.9951163916205" lon="8.815955892147349"><ele>398.4</ele><time>2026-03-26T10:56:34.999Z</time></trkpt><trkpt lat="38.99514789262801" lon="8.816033502288741"><ele>399.0</ele><time>2026-03-26T10:56:35.999Z</time></trkpt><trkpt lat="38.99519254047602" lon="8.816105066673995"><ele>396.3333333333333</ele><time>2026-03-26T10:56:36.999Z</time></trkpt><trkpt lat="38.995249225335314" lon="8.816162903341667"><ele>393.6666666666667</ele><time>2026-03-26T10:56:37.999Z</time></trkpt><trkpt lat="38.99531062397487" lon="8.81620895968201"><ele>391.0</ele><time>2026-03-26T10:56:38.999Z</time></trkpt><trkpt lat="38.995371312990024" lon="8.816239827227742"><ele>388.33333333333337</ele><time>2026-03-26T10:56:39.999Z</time></trkpt><trkpt lat="38.99550084312947" lon="8.816239623776562"><ele>385.6666666666667</ele><time>2026-03-26T10:56:41.999Z</time></trkpt><trkpt lat="38.99557366369313" lon="8.816226881912701"><ele>383.0</ele><time>2026-03-26T10:56:42.999Z</time></trkpt><trkpt lat="38.99564798938737" lon="8.816220874274315"><ele>383.0</ele><time>2026-03-26T10:56:43.999Z</time></trkpt><trkpt lat="38.99572561715443" lon="8.816220288151362"><ele>383.0</ele><time>2026-03-26T10:56:44.999Z</time></trkpt><trkpt lat="38.995803493422486" lon="8.816216825211502"><ele>383.0</ele><time>2026-03-26T10:56:45.999Z</time></trkpt><trkpt lat="38.995883069321685" lon="8.816200335485922"><ele>383.0</ele><time>2026-03-26T10:56:46.999Z</time></trkpt><trkpt lat="38.99596010730966" lon="8.816167833071514"><ele>383.0</ele><time>2026-03-26T10:56:47.999Z</time></trkpt><trkpt lat="38.99602544822494" lon="8.816123216232624"><ele>383.0</ele><time>2026-03-26T10:56:48.999Z</time></trkpt><trkpt lat="38.99607886835234" lon="8.816071501629963"><ele>386.2</ele><time>2026-03-26T10:56:49.999Z</time></trkpt><trkpt lat="38.9961525605467" lon="8.815945610990573"><ele>389.4</ele><time>2026-03-26T10:56:51.999Z</time></trkpt><trkpt lat="38.99623207339169" lon="8.815906730127823"><ele>392.59999999999997</ele><time>2026-03-26T10:56:53.999Z</time></trkpt><trkpt lat="38.99630562576567" lon="8.816001277779133"><ele>395.79999999999995</ele><time>2026-03-26T10:56:55.999Z</time></trkpt><trkpt lat="38.99632018453537" lon="8.816090952604387"><ele>399.0</ele><time>2026-03-26T10:56:56.999Z</time></trkpt><trkpt lat="38.99633570521088" lon="8.816204204193864"><ele>399.0</ele><time>2026-03-26T10:56:57.999Z</time></trkpt><trkpt lat="38.99636467242533" lon="8.816335893934864"><ele>399.0</ele><time>2026-03-26T10:56:58.999Z</time></trkpt><trkpt lat="38.996387991927506" lon="8.816460369022694"><ele>399.0</ele><time>2026-03-26T10:56:59.999Z</time></trkpt><trkpt lat="38.996405321322044" lon="8.816569941882136"><ele>399.0</ele><time>2026-03-26T10:57:00.999Z</time></trkpt><trkpt lat="38.99641700291174" lon="8.816675539923324"><ele>399.0</ele><time>2026-03-26T10:57:01.999Z</time></trkpt><trkpt lat="38.99641800169931" lon="8.816773546205459"><ele>398.3333333333333</ele><time>2026-03-26T10:57:02.999Z</time></trkpt><trkpt lat="38.996404882021174" lon="8.816874726487136"><ele>397.66666666666663</ele><time>2026-03-26T10:57:03.999Z</time></trkpt><trkpt lat="38.996378873371484" lon="8.816980645959205"><ele>397.0</ele><time>2026-03-26T10:57:04.999Z</time></trkpt><trkpt lat="38.99634455189887" lon="8.817091390895412"><ele>396.3333333333333</ele><time>2026-03-26T10:57:05.999Z</time></trkpt><trkpt lat="38.99631988290812" lon="8.817178796207239"><ele>395.66666666666663</ele><time>2026-03-26T10:57:06.999Z</time></trkpt><trkpt lat="38.996304140763954" lon="8.81725952619086"><ele>395.0</ele><time>2026-03-26T10:57:07.999Z</time></trkpt><trkpt lat="38.996304107986454" lon="8.817350715416831"><ele>394.99999999999994</ele><time>2026-03-26T10:57:08.999Z</time></trkpt><trkpt lat="38.99631451403954" lon="8.817451001325528"><ele>395.0</ele><time>2026-03-26T10:57:09.999Z</time></trkpt><trkpt lat="38.99632123092896" lon="8.817558950237554"><ele>395.0</ele><time>2026-03-26T10:57:10.999Z</time></trkpt><trkpt lat="38.99632004107352" lon="8.817659272042722"><ele>395.0</ele><time>2026-03-26T10:57:11.999Z</time></trkpt><trkpt lat="38.996311836025235" lon="8.817753821517377"><ele>394.99999999999994</ele><time>2026-03-26T10:57:12.999Z</time></trkpt><trkpt lat="38.99628296351536" lon="8.817840890378458"><ele>395.0</ele><time>2026-03-26T10:57:13.999Z</time></trkpt><trkpt lat="38.99624045346311" lon="8.817937140806443"><ele>394.16666666666663</ele><time>2026-03-26T10:57:14.999Z</time></trkpt><trkpt lat="38.99621516788656" lon="8.81803552560158"><ele>393.3333333333333</ele><time>2026-03-26T10:57:15.999Z</time></trkpt><trkpt lat="38.99620443559115" lon="8.818147162813416"><ele>392.5</ele><time>2026-03-26T10:57:16.999Z</time></trkpt><trkpt lat="38.99619994240581" lon="8.818269955263045"><ele>391.66666666666663</ele><time>2026-03-26T10:57:17.999Z</time></trkpt><trkpt lat="38.9961998210542" lon="8.818388027952823"><ele>390.8333333333333</ele><time>2026-03-26T10:57:18.999Z</time></trkpt><trkpt lat="38.99621457950804" lon="8.818483113389291"><ele>390.0</ele><time>2026-03-26T10:57:19.999Z</time></trkpt><trkpt lat="38.9962399391948" lon="8.81856966820722"><ele>387.7142857142857</ele><time>2026-03-26T10:57:20.999Z</time></trkpt><trkpt lat="38.99628059382093" lon="8.81864509695735"><ele>385.42857142857144</ele><time>2026-03-26T10:57:21.999Z</time></trkpt><trkpt lat="38.99632997523166" lon="8.818716911420806"><ele>383.1428571428571</ele><time>2026-03-26T10:57:22.999Z</time></trkpt><trkpt lat="38.99638980839985" lon="8.818782495157146"><ele>380.8571428571429</ele><time>2026-03-26T10:57:23.999Z</time></trkpt><trkpt lat="38.99644710390259" lon="8.818839028789883"><ele>378.5714285714286</ele><time>2026-03-26T10:57:24.999Z</time></trkpt><trkpt lat="38.99650346558096" lon="8.818885191030471"><ele>376.2857142857143</ele><time>2026-03-26T10:57:25.999Z</time></trkpt><trkpt lat="38.99656509776128" lon="8.818914266056481"><ele>374.0</ele><time>2026-03-26T10:57:26.999Z</time></trkpt><trkpt lat="38.99663445640391" lon="8.818934016670282"><ele>375.33333333333337</ele><time>2026-03-26T10:57:27.999Z</time></trkpt><trkpt lat="38.99672647907845" lon="8.818931537329668"><ele>376.6666666666667</ele><time>2026-03-26T10:57:28.999Z</time></trkpt><trkpt lat="38.996825663099585" lon="8.818927714225024"><ele>378.0</ele><time>2026-03-26T10:57:29.999Z</time></trkpt><trkpt lat="38.99690454648545" lon="8.818927502553088"><ele>379.3333333333333</ele><time>2026-03-26T10:57:30.999Z</time></trkpt><trkpt lat="38.99697841291642" lon="8.818943724114545"><ele>380.66666666666663</ele><time>2026-03-26T10:57:31.999Z</time></trkpt><trkpt lat="38.9970470085228" lon="8.818964115556922"><ele>382.0</ele><time>2026-03-26T10:57:32.999Z</time></trkpt><trkpt lat="38.997108421112166" lon="8.818992152182712"><ele>382.0</ele><time>2026-03-26T10:57:33.999Z</time></trkpt><trkpt lat="38.99716299290617" lon="8.81903963982538"><ele>382.0</ele><time>2026-03-26T10:57:34.999Z</time></trkpt><trkpt lat="38.99721083390141" lon="8.81911834963624"><ele>382.0</ele><time>2026-03-26T10:57:35.999Z</time></trkpt><trkpt lat="38.997243405435206" lon="8.81922492345607"><ele>382.0</ele><time>2026-03-26T10:57:36.999Z</time></trkpt><trkpt lat="38.99726263319804" lon="8.819341402280335"><ele>382.0</ele><time>2026-03-26T10:57:37.999Z</time></trkpt><trkpt lat="38.99728473427477" lon="8.819435001319494"><ele>382.0</ele><time>2026-03-26T10:57:38.999Z</time></trkpt><trkpt lat="38.997308465458865" lon="8.819514549121363"><ele>381.16666666666663</ele><time>2026-03-26T10:57:39.999Z</time></trkpt><trkpt lat="38.9973021230185" lon="8.819678827401548"><ele>380.3333333333333</ele><time>2026-03-26T10:57:41.999Z</time></trkpt><trkpt lat="38.99727483045736" lon="8.81977009129856"><ele>379.5</ele><time>2026-03-26T10:57:42.999Z</time></trkpt><trkpt lat="38.99723491553028" lon="8.819855722699533"><ele>378.6666666666667</ele><time>2026-03-26T10:57:43.999Z</time></trkpt><trkpt lat="38.99718428271612" lon="8.819938626186735"><ele>377.83333333333337</ele><time>2026-03-26T10:57:44.999Z</time></trkpt><trkpt lat="38.99712559249845" lon="8.820011460609768"><ele>377.0</ele><time>2026-03-26T10:57:45.999Z</time></trkpt><trkpt lat="38.99706035076167" lon="8.820079649176709"><ele>376.5</ele><time>2026-03-26T10:57:46.999Z</time></trkpt><trkpt lat="38.99698990797782" lon="8.820151945773686"><ele>376.0</ele><time>2026-03-26T10:57:47.999Z</time></trkpt><trkpt lat="38.99692640729394" lon="8.820227509638842"><ele>375.5</ele><time>2026-03-26T10:57:48.999Z</time></trkpt><trkpt lat="38.99686573686136" lon="8.82029216050268"><ele>375.0</ele><time>2026-03-26T10:57:49.999Z</time></trkpt><trkpt lat="38.99680362052546" lon="8.820341915379137"><ele>374.5</ele><time>2026-03-26T10:57:50.999Z</time></trkpt><trkpt lat="38.9967364468713" lon="8.820375907651512"><ele>374.0</ele><time>2026-03-26T10:57:51.999Z</time></trkpt><trkpt lat="38.99666641719594" lon="8.82039606093355"><ele>373.0</ele><time>2026-03-26T10:57:52.999Z</time></trkpt><trkpt lat="38.9965904321424" lon="8.820386784862247"><ele>372.0</ele><time>2026-03-26T10:57:53.999Z</time></trkpt><trkpt lat="38.99650782092238" lon="8.820360144744441"><ele>371.0</ele><time>2026-03-26T10:57:54.999Z</time></trkpt><trkpt lat="38.996417355543606" lon="8.820345799168452"><ele>370.0</ele><time>2026-03-26T10:57:55.999Z</time></trkpt><trkpt lat="38.99633088102048" lon="8.820342206438548"><ele>369.0</ele><time>2026-03-26T10:57:56.999Z</time></trkpt><trkpt lat="38.99625904720747" lon="8.820367455883689"><ele>368.0</ele><time>2026-03-26T10:57:57.999Z</time></trkpt><trkpt lat="38.99620120305955" lon="8.820416912922619"><ele>368.0</ele><time>2026-03-26T10:57:58.999Z</time></trkpt><trkpt lat="38.996151946941524" lon="8.820497603063007"><ele>368.0</ele><time>2026-03-26T10:57:59.999Z</time></trkpt><trkpt lat="38.996114371502976" lon="8.820592971360565"><ele>368.0</ele><time>2026-03-26T10:58:00.999Z</time></trkpt><trkpt lat="38.99608179849514" lon="8.820698263620065"><ele>368.0</ele><time>2026-03-26T10:58:01.999Z</time></trkpt><trkpt lat="38.996041077526655" lon="8.820804586234273"><ele>368.0</ele><time>2026-03-26T10:58:02.999Z</time></trkpt><trkpt lat="38.995998697949524" lon="8.820905380114851"><ele>368.0</ele><time>2026-03-26T10:58:03.999Z</time></trkpt><trkpt lat="38.99596254036608" lon="8.821001391666472"><ele>368.33333333333337</ele><time>2026-03-26T10:58:04.999Z</time></trkpt><trkpt lat="38.9959328644286" lon="8.821106074623337"><ele>368.6666666666667</ele><time>2026-03-26T10:58:05.999Z</time></trkpt><trkpt lat="38.9959085359947" lon="8.82121390980219"><ele>369.0</ele><time>2026-03-26T10:58:06.999Z</time></trkpt><trkpt lat="38.995891260711396" lon="8.821324569093374"><ele>369.3333333333333</ele><time>2026-03-26T10:58:07.999Z</time></trkpt><trkpt lat="38.995880637508364" lon="8.821430771195278"><ele>369.66666666666663</ele><time>2026-03-26T10:58:09Z</time></trkpt><trkpt lat="38.99587330749528" lon="8.821532251543136"><ele>370.0</ele><time>2026-03-26T10:58:10Z</time></trkpt><trkpt lat="38.99586529669685" lon="8.821629059373306"><ele>370.0</ele><time>2026-03-26T10:58:11Z</time></trkpt><trkpt lat="38.99585679951052" lon="8.821723618769287"><ele>370.0</ele><time>2026-03-26T10:58:12Z</time></trkpt><trkpt lat="38.995840043991166" lon="8.82181492107293"><ele>370.0</ele><time>2026-03-26T10:58:13Z</time></trkpt><trkpt lat="38.99581161596012" lon="8.821903693513399"><ele>370.0</ele><time>2026-03-26T10:58:14Z</time></trkpt><trkpt lat="38.995772488284274" lon="8.821993849591541"><ele>370.0</ele><time>2026-03-26T10:58:15Z</time></trkpt><trkpt lat="38.995731172043214" lon="8.822092364488281"><ele>370.0</ele><time>2026-03-26T10:58:16Z</time></trkpt><trkpt lat="38.99569443149469" lon="8.822194410118193"><ele>368.3333333333333</ele><time>2026-03-26T10:58:17Z</time></trkpt><trkpt lat="38.99565914294175" lon="8.822296686548766"><ele>366.66666666666663</ele><time>2026-03-26T10:58:18Z</time></trkpt><trkpt lat="38.995634757147684" lon="8.82239359399322"><ele>365.0</ele><time>2026-03-26T10:58:19Z</time></trkpt><trkpt lat="38.99561743118835" lon="8.822492317319016"><ele>363.3333333333333</ele><time>2026-03-26T10:58:20Z</time></trkpt><trkpt lat="38.99560412466149" lon="8.822582773069565"><ele>361.6666666666667</ele><time>2026-03-26T10:58:21Z</time></trkpt><trkpt lat="38.995582208721636" lon="8.82266970522718"><ele>360.0</ele><time>2026-03-26T10:58:22Z</time></trkpt><trkpt lat="38.99555619096679" lon="8.822762663011105"><ele>359.5</ele><time>2026-03-26T10:58:23Z</time></trkpt><trkpt lat="38.995523853914136" lon="8.822857321236272"><ele>359.0</ele><time>2026-03-26T10:58:24Z</time></trkpt><trkpt lat="38.99548467834889" lon="8.8229440903339"><ele>358.5</ele><time>2026-03-26T10:58:25Z</time></trkpt><trkpt lat="38.99544675395231" lon="8.823030105393865"><ele>358.0</ele><time>2026-03-26T10:58:26Z</time></trkpt><trkpt lat="38.99541992813441" lon="8.82311270025094"><ele>357.5</ele><time>2026-03-26T10:58:27Z</time></trkpt><trkpt lat="38.99540738186933" lon="8.823192445585793"><ele>357.0</ele><time>2026-03-26T10:58:28Z</time></trkpt><trkpt lat="38.99539327830699" lon="8.8233443617029"><ele>356.3333333333333</ele><time>2026-03-26T10:58:30Z</time></trkpt><trkpt lat="38.99536760214451" lon="8.823483240920556"><ele>355.6666666666667</ele><time>2026-03-26T10:58:32Z</time></trkpt><trkpt lat="38.99535400414573" lon="8.823587520309085"><ele>355.0</ele><time>2026-03-26T10:58:34Z</time></trkpt><trkpt lat="38.99534550118142" lon="8.823674621134455"><ele>354.33333333333337</ele><time>2026-03-26T10:58:36Z</time></trkpt><trkpt lat="38.99529957551884" lon="8.823737288940894"><ele>353.6666666666667</ele><time>2026-03-26T10:58:53.999Z</time></trkpt><trkpt lat="38.9952432631361" lon="8.823801996491248"><ele>353.0</ele><time>2026-03-26T10:58:55.999Z</time></trkpt><trkpt lat="38.995143401737515" lon="8.82381083762042"><ele>353.0</ele><time>2026-03-26T10:58:57.999Z</time></trkpt><trkpt lat="38.995051241384786" lon="8.82387346288525"><ele>353.0</ele><time>2026-03-26T10:58:59.999Z</time></trkpt><trkpt lat="38.994996493245495" lon="8.823935021309069"><ele>353.0</ele><time>2026-03-26T10:59:00.999Z</time></trkpt><trkpt lat="38.994951462550404" lon="8.82400992180659"><ele>353.0</ele><time>2026-03-26T10:59:01.999Z</time></trkpt><trkpt lat="38.994917701749586" lon="8.824099408095302"><ele>353.0</ele><time>2026-03-26T10:59:02.999Z</time></trkpt><trkpt lat="38.99489502936421" lon="8.8241814815978"><ele>353.0</ele><time>2026-03-26T10:59:03.999Z</time></trkpt><trkpt lat="38.994880976971956" lon="8.824271154380277"><ele>350.0</ele><time>2026-03-26T10:59:04.999Z</time></trkpt><trkpt lat="38.994875315470026" lon="8.824372206625748"><ele>347.0</ele><time>2026-03-26T10:59:05.999Z</time></trkpt><trkpt lat="38.99486529888994" lon="8.824459220569326"><ele>344.0</ele><time>2026-03-26T10:59:06.999Z</time></trkpt><trkpt lat="38.994836788548966" lon="8.82453166461086"><ele>341.0</ele><time>2026-03-26T10:59:07.999Z</time></trkpt><trkpt lat="38.99474720609426" lon="8.82464808079251"><ele>338.0</ele><time>2026-03-26T10:59:09.999Z</time></trkpt><trkpt lat="38.9946872357918" lon="8.8247003459496"><ele>335.0</ele><time>2026-03-26T10:59:10.999Z</time></trkpt><trkpt lat="38.99462277774193" lon="8.824739469559889"><ele>335.0</ele><time>2026-03-26T10:59:11.999Z</time></trkpt><trkpt lat="38.99455093651298" lon="8.824768287861708"><ele>335.0</ele><time>2026-03-26T10:59:12.999Z</time></trkpt><trkpt lat="38.99447818807776" lon="8.824786487034794"><ele>335.0</ele><time>2026-03-26T10:59:13.999Z</time></trkpt><trkpt lat="38.99441347577132" lon="8.824792097781497"><ele>335.0</ele><time>2026-03-26T10:59:14.999Z</time></trkpt><trkpt lat="38.99433586515078" lon="8.824734247099435"><ele>335.0</ele><time>2026-03-26T10:59:16.999Z</time></trkpt><trkpt lat="38.99430987264224" lon="8.824571435295256"><ele>335.0</ele><time>2026-03-26T10:59:18.999Z</time></trkpt><trkpt lat="38.99430546969176" lon="8.824466701107468"><ele>335.0</ele><time>2026-03-26T10:59:19.999Z</time></trkpt><trkpt lat="38.99430136746986" lon="8.824348714405613"><ele>335.0</ele><time>2026-03-26T10:59:20.999Z</time></trkpt><trkpt lat="38.99429565063007" lon="8.824210492193046"><ele>335.0</ele><time>2026-03-26T10:59:21.999Z</time></trkpt><trkpt lat="38.99428918254508" lon="8.824069970522444"><ele>335.0</ele><time>2026-03-26T10:59:22.999Z</time></trkpt><trkpt lat="38.994282575022346" lon="8.823929988884837"><ele>335.0</ele><time>2026-03-26T10:59:23.999Z</time></trkpt><trkpt lat="38.99427682895698" lon="8.823806228991785"><ele>337.0</ele><time>2026-03-26T10:59:24.999Z</time></trkpt><trkpt lat="38.994269550681786" lon="8.823693932508501"><ele>339.0</ele><time>2026-03-26T10:59:25.999Z</time></trkpt><trkpt lat="38.99427144733036" lon="8.823591458577738"><ele>341.0</ele><time>2026-03-26T10:59:26.999Z</time></trkpt><trkpt lat="38.9942906084249" lon="8.823494787044341"><ele>343.0</ele><time>2026-03-26T10:59:27.999Z</time></trkpt><trkpt lat="38.99431702451248" lon="8.823408063864397"><ele>345.0</ele><time>2026-03-26T10:59:28.999Z</time></trkpt><trkpt lat="38.99433558920788" lon="8.823326981297404"><ele>347.0</ele><time>2026-03-26T10:59:29.999Z</time></trkpt><trkpt lat="38.994325467660495" lon="8.823212362154441"><ele>346.0</ele><time>2026-03-26T10:59:31.999Z</time></trkpt><trkpt lat="38.994245391930065" lon="8.823158632581574"><ele>345.0</ele><time>2026-03-26T10:59:33.999Z</time></trkpt><trkpt lat="38.994145861464666" lon="8.823209231829237"><ele>344.0</ele><time>2026-03-26T10:59:35.999Z</time></trkpt><trkpt lat="38.994108436204016" lon="8.823301613110576"><ele>343.0</ele><time>2026-03-26T10:59:36.999Z</time></trkpt><trkpt lat="38.994070073168665" lon="8.823419390163815"><ele>342.0</ele><time>2026-03-26T10:59:37.999Z</time></trkpt><trkpt lat="38.99400955927096" lon="8.823527319695334"><ele>341.20000000000005</ele><time>2026-03-26T10:59:38.999Z</time></trkpt><trkpt lat="38.99394478440146" lon="8.823635016211332"><ele>340.4</ele><time>2026-03-26T10:59:39.999Z</time></trkpt><trkpt lat="38.99389072486006" lon="8.823753764954375"><ele>339.6</ele><time>2026-03-26T10:59:40.999Z</time></trkpt><trkpt lat="38.99385623742558" lon="8.82388665885175"><ele>338.79999999999995</ele><time>2026-03-26T10:59:41.999Z</time></trkpt><trkpt lat="38.99383325915695" lon="8.824018275271277"><ele>338.0</ele><time>2026-03-26T10:59:42.999Z</time></trkpt><trkpt lat="38.99382890316071" lon="8.82415155179346"><ele>338.0</ele><time>2026-03-26T10:59:43.999Z</time></trkpt><trkpt lat="38.99383362379633" lon="8.82428045044365"><ele>338.0</ele><time>2026-03-26T10:59:44.999Z</time></trkpt><trkpt lat="38.99382201076057" lon="8.82441484938975"><ele>338.0</ele><time>2026-03-26T10:59:45.999Z</time></trkpt><trkpt lat="38.99378712561669" lon="8.824545236429364"><ele>338.0</ele><time>2026-03-26T10:59:46.999Z</time></trkpt><trkpt lat="38.99374864504202" lon="8.824672717243793"><ele>338.0</ele><time>2026-03-26T10:59:47.999Z</time></trkpt><trkpt lat="38.99370680103978" lon="8.824798129430516"><ele>337.0</ele><time>2026-03-26T10:59:48.999Z</time></trkpt><trkpt lat="38.993650713359585" lon="8.824913813070546"><ele>336.0</ele><time>2026-03-26T10:59:49.999Z</time></trkpt><trkpt lat="38.99359142793228" lon="8.825028133197563"><ele>335.0</ele><time>2026-03-26T10:59:50.999Z</time></trkpt><trkpt lat="38.99353160314655" lon="8.825129529374646"><ele>334.0</ele><time>2026-03-26T10:59:51.999Z</time></trkpt><trkpt lat="38.99347420873184" lon="8.825212642855433"><ele>333.0</ele><time>2026-03-26T10:59:52.999Z</time></trkpt><trkpt lat="38.99342740572034" lon="8.825275762805486"><ele>331.79999999999995</ele><time>2026-03-26T10:59:53.999Z</time></trkpt><trkpt lat="38.99331495496127" lon="8.825326821715905"><ele>330.6</ele><time>2026-03-26T10:59:55.999Z</time></trkpt><trkpt lat="38.99324574884997" lon="8.825296202639134"><ele>329.4</ele><time>2026-03-26T10:59:56.999Z</time></trkpt><trkpt lat="38.993174118701766" lon="8.825234874641422"><ele>328.20000000000005</ele><time>2026-03-26T10:59:57.999Z</time></trkpt><trkpt lat="38.99310094179053" lon="8.825151399980808"><ele>327.0</ele><time>2026-03-26T10:59:58.999Z</time></trkpt><trkpt lat="38.993018199620074" lon="8.825073508006243"><ele>329.8</ele><time>2026-03-26T10:59:59.999Z</time></trkpt><trkpt lat="38.99292647064956" lon="8.825007496029974"><ele>332.6</ele><time>2026-03-26T11:00:00.999Z</time></trkpt><trkpt lat="38.99284973012798" lon="8.824948862845808"><ele>335.40000000000003</ele><time>2026-03-26T11:00:01.999Z</time></trkpt><trkpt lat="38.99278700362451" lon="8.824898049821634"><ele>338.20000000000005</ele><time>2026-03-26T11:00:02.999Z</time></trkpt><trkpt lat="38.99268994252698" lon="8.824851467726267"><ele>341.0</ele><time>2026-03-26T11:00:04.999Z</time></trkpt><trkpt lat="38.99262077464964" lon="8.824936168493544"><ele>341.0</ele><time>2026-03-26T11:00:06.999Z</time></trkpt><trkpt lat="38.99262873374621" lon="8.825026872614098"><ele>341.0</ele><time>2026-03-26T11:00:07.999Z</time></trkpt><trkpt lat="38.99266335566853" lon="8.825127342648347"><ele>341.0</ele><time>2026-03-26T11:00:08.999Z</time></trkpt><trkpt lat="38.99273564341832" lon="8.825237697002237"><ele>341.0</ele><time>2026-03-26T11:00:09.999Z</time></trkpt><trkpt lat="38.99279422622843" lon="8.825338702166013"><ele>341.0</ele><time>2026-03-26T11:00:10.999Z</time></trkpt><trkpt lat="38.99282026318872" lon="8.825440750485322"><ele>338.20000000000005</ele><time>2026-03-26T11:00:11.999Z</time></trkpt><trkpt lat="38.99282045471018" lon="8.825560102096706"><ele>335.40000000000003</ele><time>2026-03-26T11:00:12.999Z</time></trkpt><trkpt lat="38.99280775154281" lon="8.82566238730847"><ele>332.6</ele><time>2026-03-26T11:00:13.999Z</time></trkpt><trkpt lat="38.99278852210053" lon="8.825747304587589"><ele>329.8</ele><time>2026-03-26T11:00:15Z</time></trkpt><trkpt lat="38.992707412895854" lon="8.825813975306597"><ele>327.0</ele><time>2026-03-26T11:00:17Z</time></trkpt><trkpt lat="38.992564644546924" lon="8.825761196258389"><ele>330.0</ele><time>2026-03-26T11:00:19Z</time></trkpt><trkpt lat="38.99246416786478" lon="8.825720429583058"><ele>333.0</ele><time>2026-03-26T11:00:20Z</time></trkpt><trkpt lat="38.99236024945231" lon="8.825692851503492"><ele>336.0</ele><time>2026-03-26T11:00:21Z</time></trkpt><trkpt lat="38.992257969834874" lon="8.825669299037152"><ele>339.0</ele><time>2026-03-26T11:00:22Z</time></trkpt><trkpt lat="38.992174569344655" lon="8.825656587382076"><ele>342.0</ele><time>2026-03-26T11:00:23Z</time></trkpt><trkpt lat="38.99210804463126" lon="8.825656856925693"><ele>342.0</ele><time>2026-03-26T11:00:24Z</time></trkpt><trkpt lat="38.99200697179478" lon="8.82573621177051"><ele>342.0</ele><time>2026-03-26T11:00:26Z</time></trkpt><trkpt lat="38.99198762053851" lon="8.825875144509814"><ele>342.0</ele><time>2026-03-26T11:00:28Z</time></trkpt><trkpt lat="38.992028796922426" lon="8.825954579924504"><ele>342.0</ele><time>2026-03-26T11:00:29Z</time></trkpt><trkpt lat="38.99210095257844" lon="8.82604539970646"><ele>342.0</ele><time>2026-03-26T11:00:30Z</time></trkpt><trkpt lat="38.99214596307178" lon="8.826121279163203"><ele>341.8</ele><time>2026-03-26T11:00:31Z</time></trkpt><trkpt lat="38.9921651974645" lon="8.826205107151981"><ele>341.6</ele><time>2026-03-26T11:00:32Z</time></trkpt><trkpt lat="38.992169268042915" lon="8.826317000289437"><ele>341.40000000000003</ele><time>2026-03-26T11:00:33Z</time></trkpt><trkpt lat="38.99215940463763" lon="8.826460563339646"><ele>341.20000000000005</ele><time>2026-03-26T11:00:34Z</time></trkpt><trkpt lat="38.992179076643126" lon="8.826599001315573"><ele>341.0</ele><time>2026-03-26T11:00:35Z</time></trkpt><trkpt lat="38.992213440135494" lon="8.826725446571816"><ele>340.33333333333337</ele><time>2026-03-26T11:00:36Z</time></trkpt><trkpt lat="38.992233764180355" lon="8.826840095147096"><ele>339.6666666666667</ele><time>2026-03-26T11:00:37Z</time></trkpt><trkpt lat="38.99223430752614" lon="8.826948569173288"><ele>339.0</ele><time>2026-03-26T11:00:38Z</time></trkpt><trkpt lat="38.99221630970518" lon="8.827066014368846"><ele>338.3333333333333</ele><time>2026-03-26T11:00:39Z</time></trkpt><trkpt lat="38.99218358230885" lon="8.827170473306278"><ele>337.66666666666663</ele><time>2026-03-26T11:00:40Z</time></trkpt><trkpt lat="38.99214023028733" lon="8.827271577238866"><ele>337.0</ele><time>2026-03-26T11:00:41Z</time></trkpt><trkpt lat="38.99207056756414" lon="8.827381920973417"><ele>337.0</ele><time>2026-03-26T11:00:42Z</time></trkpt><trkpt lat="38.991990872051595" lon="8.82748663565227"><ele>337.0</ele><time>2026-03-26T11:00:43Z</time></trkpt><trkpt lat="38.991923314731785" lon="8.827599355957744"><ele>337.0</ele><time>2026-03-26T11:00:44Z</time></trkpt><trkpt lat="38.99186735736356" lon="8.827702069928392"><ele>337.0</ele><time>2026-03-26T11:00:45Z</time></trkpt><trkpt lat="38.991816268836175" lon="8.827809279564367"><ele>337.0</ele><time>2026-03-26T11:00:46Z</time></trkpt><trkpt lat="38.99178079997655" lon="8.827939656206258"><ele>335.5</ele><time>2026-03-26T11:00:47Z</time></trkpt><trkpt lat="38.99176147678742" lon="8.828087623969356"><ele>334.0</ele><time>2026-03-26T11:00:48Z</time></trkpt><trkpt lat="38.99174985137614" lon="8.828238139060996"><ele>332.5</ele><time>2026-03-26T11:00:49Z</time></trkpt><trkpt lat="38.99173140676141" lon="8.828382157241565"><ele>331.0</ele><time>2026-03-26T11:00:50Z</time></trkpt><trkpt lat="38.99171332242654" lon="8.828533854728404"><ele>330.20000000000005</ele><time>2026-03-26T11:00:51Z</time></trkpt><trkpt lat="38.991691505635266" lon="8.828682273295863"><ele>329.40000000000003</ele><time>2026-03-26T11:00:52Z</time></trkpt><trkpt lat="38.991679407949434" lon="8.82883084474923"><ele>328.6</ele><time>2026-03-26T11:00:53Z</time></trkpt><trkpt lat="38.991674980307785" lon="8.828977326976133"><ele>327.8</ele><time>2026-03-26T11:00:54Z</time></trkpt><trkpt lat="38.99167905715268" lon="8.829107779830458"><ele>327.0</ele><time>2026-03-26T11:00:55Z</time></trkpt><trkpt lat="38.99166807562859" lon="8.829263907837126"><ele>335.0</ele><time>2026-03-26T11:00:56Z</time></trkpt><trkpt lat="38.99165251273094" lon="8.829395430221988"><ele>343.0</ele><time>2026-03-26T11:00:56.999Z</time></trkpt><trkpt lat="38.99163712066417" lon="8.82952150341675"><ele>351.0</ele><time>2026-03-26T11:00:57.999Z</time></trkpt><trkpt lat="38.99162152629583" lon="8.829642916776312"><ele>359.0</ele><time>2026-03-26T11:00:58.999Z</time></trkpt><trkpt lat="38.99159588770597" lon="8.82975356679163"><ele>367.0</ele><time>2026-03-26T11:00:59.999Z</time></trkpt><trkpt lat="38.99157387605463" lon="8.829848543567792"><ele>367.0</ele><time>2026-03-26T11:01:00.999Z</time></trkpt><trkpt lat="38.991549091245666" lon="8.829931947694298"><ele>367.0</ele><time>2026-03-26T11:01:01.999Z</time></trkpt><trkpt lat="38.991515007432206" lon="8.830005489830471"><ele>367.0</ele><time>2026-03-26T11:01:02.999Z</time></trkpt><trkpt lat="38.991427674205866" lon="8.830115218488382"><ele>367.0</ele><time>2026-03-26T11:01:04.999Z</time></trkpt><trkpt lat="38.991364479791734" lon="8.830181693129893"><ele>367.0</ele><time>2026-03-26T11:01:06.999Z</time></trkpt><trkpt lat="38.99130736570258" lon="8.830217366660008"><ele>367.0</ele><time>2026-03-26T11:01:09.999Z</time></trkpt><trkpt lat="38.99123296621738" lon="8.830264263062688"><ele>368.3333333333333</ele><time>2026-03-26T11:05:58.999Z</time></trkpt><trkpt lat="38.991137198361" lon="8.83034571790369"><ele>369.66666666666663</ele><time>2026-03-26T11:06:00.999Z</time></trkpt><trkpt lat="38.99107117039873" lon="8.830393836362905"><ele>371.0</ele><time>2026-03-26T11:06:02.999Z</time></trkpt><trkpt lat="38.99097871163549" lon="8.830397203272527"><ele>372.3333333333333</ele><time>2026-03-26T11:06:04.999Z</time></trkpt><trkpt lat="38.99089912916311" lon="8.830404563917085"><ele>373.6666666666667</ele><time>2026-03-26T11:06:05.999Z</time></trkpt><trkpt lat="38.990833224845204" lon="8.830408820610575"><ele>375.0</ele><time>2026-03-26T11:06:06.999Z</time></trkpt><trkpt lat="38.99070703133012" lon="8.830432152703544"><ele>375.2</ele><time>2026-03-26T11:06:08.999Z</time></trkpt><trkpt lat="38.99063308522958" lon="8.830448972703296"><ele>375.4</ele><time>2026-03-26T11:06:09.999Z</time></trkpt><trkpt lat="38.99056497009842" lon="8.830473938845953"><ele>375.6</ele><time>2026-03-26T11:06:10.999Z</time></trkpt><trkpt lat="38.99047117475831" lon="8.830560383151544"><ele>375.8</ele><time>2026-03-26T11:06:12.999Z</time></trkpt><trkpt lat="38.990385270834025" lon="8.830682724716686"><ele>376.0</ele><time>2026-03-26T11:06:14.999Z</time></trkpt><trkpt lat="38.99033618437583" lon="8.830735194968364"><ele>376.0</ele><time>2026-03-26T11:06:15.999Z</time></trkpt><trkpt lat="38.99023507094032" lon="8.83075432610111"><ele>376.0</ele><time>2026-03-26T11:06:17.999Z</time></trkpt><trkpt lat="38.99015707936976" lon="8.830639789812908"><ele>376.0</ele><time>2026-03-26T11:06:19.999Z</time></trkpt><trkpt lat="38.990122516400724" lon="8.8305569712132"><ele>376.0</ele><time>2026-03-26T11:06:20.999Z</time></trkpt><trkpt lat="38.99001877480705" lon="8.830487033742573"><ele>376.0</ele><time>2026-03-26T11:06:22.999Z</time></trkpt><trkpt lat="38.98991096673501" lon="8.830516523961002"><ele>377.20000000000005</ele><time>2026-03-26T11:06:24.999Z</time></trkpt><trkpt lat="38.989855877182634" lon="8.830624939841183"><ele>378.40000000000003</ele><time>2026-03-26T11:06:26.999Z</time></trkpt><trkpt lat="38.98981598827508" lon="8.830745896045695"><ele>379.6</ele><time>2026-03-26T11:06:28.999Z</time></trkpt><trkpt lat="38.98977962390292" lon="8.830878157199324"><ele>380.8</ele><time>2026-03-26T11:06:31Z</time></trkpt><trkpt lat="38.989729050258916" lon="8.83097797204548"><ele>382.0</ele><time>2026-03-26T11:06:33Z</time></trkpt><trkpt lat="38.98965462129281" lon="8.83102401679342"><ele>379.0</ele><time>2026-03-26T11:06:35Z</time></trkpt><trkpt lat="38.98958775004963" lon="8.830958024115223"><ele>376.0</ele><time>2026-03-26T11:06:37Z</time></trkpt><trkpt lat="38.98955512115931" lon="8.830878287041848"><ele>373.0</ele><time>2026-03-26T11:06:38Z</time></trkpt><trkpt lat="38.98951768239263" lon="8.830782958404619"><ele>370.0</ele><time>2026-03-26T11:06:39Z</time></trkpt><trkpt lat="38.98947452459515" lon="8.830667870210739"><ele>367.0</ele><time>2026-03-26T11:06:40Z</time></trkpt><trkpt lat="38.989427146734606" lon="8.830558063392784"><ele>364.0</ele><time>2026-03-26T11:06:41Z</time></trkpt><trkpt lat="38.98938474981016" lon="8.830449514382916"><ele>364.0</ele><time>2026-03-26T11:06:42Z</time></trkpt><trkpt lat="38.989348153854415" lon="8.830346487826928"><ele>364.0</ele><time>2026-03-26T11:06:43Z</time></trkpt><trkpt lat="38.98930642245162" lon="8.83025266972867"><ele>364.0</ele><time>2026-03-26T11:06:44Z</time></trkpt><trkpt lat="38.98926521172248" lon="8.83017420842109"><ele>364.0</ele><time>2026-03-26T11:06:45Z</time></trkpt><trkpt lat="38.989218182789884" lon="8.830113140109754"><ele>364.0</ele><time>2026-03-26T11:06:46Z</time></trkpt><trkpt lat="38.98915741837072" lon="8.830062910494911"><ele>364.0</ele><time>2026-03-26T11:06:47Z</time></trkpt><trkpt lat="38.989082572215295" lon="8.830030938565686"><ele>364.66666666666663</ele><time>2026-03-26T11:06:48Z</time></trkpt><trkpt lat="38.98899848372837" lon="8.83002540147355"><ele>365.3333333333333</ele><time>2026-03-26T11:06:49Z</time></trkpt><trkpt lat="38.9889105466893" lon="8.830037759725862"><ele>366.0</ele><time>2026-03-26T11:06:50Z</time></trkpt><trkpt lat="38.988822052868024" lon="8.830066108996922"><ele>366.6666666666667</ele><time>2026-03-26T11:06:51Z</time></trkpt><trkpt lat="38.98875246592335" lon="8.830103590285654"><ele>367.33333333333337</ele><time>2026-03-26T11:06:52Z</time></trkpt><trkpt lat="38.988664964834776" lon="8.830142267340895"><ele>368.0</ele><time>2026-03-26T11:06:54Z</time></trkpt><trkpt lat="38.988599463664144" lon="8.830090490657314"><ele>363.79999999999995</ele><time>2026-03-26T11:06:56Z</time></trkpt><trkpt lat="38.988574929127324" lon="8.82992489575012"><ele>359.6</ele><time>2026-03-26T11:06:58Z</time></trkpt><trkpt lat="38.98858135130163" lon="8.829810143788674"><ele>355.4</ele><time>2026-03-26T11:06:59Z</time></trkpt><trkpt lat="38.98857815968656" lon="8.829689968394085"><ele>351.20000000000005</ele><time>2026-03-26T11:07:00Z</time></trkpt><trkpt lat="38.98855853978121" lon="8.829578023644128"><ele>347.0</ele><time>2026-03-26T11:07:01Z</time></trkpt><trkpt lat="38.988532165349945" lon="8.829480651170487"><ele>347.0</ele><time>2026-03-26T11:07:02Z</time></trkpt><trkpt lat="38.98849715202486" lon="8.82938796688557"><ele>347.0</ele><time>2026-03-26T11:07:03Z</time></trkpt><trkpt lat="38.98845348807799" lon="8.829316938474234"><ele>347.0</ele><time>2026-03-26T11:07:04Z</time></trkpt><trkpt lat="38.988404010096" lon="8.82926077028817"><ele>347.0</ele><time>2026-03-26T11:07:05Z</time></trkpt><trkpt lat="38.98834735750481" lon="8.829218512760077"><ele>347.0</ele><time>2026-03-26T11:07:06Z</time></trkpt><trkpt lat="38.988291980405975" lon="8.829179383251962"><ele>347.0</ele><time>2026-03-26T11:07:07Z</time></trkpt><trkpt lat="38.988226838414185" lon="8.829155679398593"><ele>347.0</ele><time>2026-03-26T11:07:08Z</time></trkpt><trkpt lat="38.98815880509317" lon="8.829168237278607"><ele>345.20000000000005</ele><time>2026-03-26T11:07:09Z</time></trkpt><trkpt lat="38.98808757108276" lon="8.829220302667872"><ele>343.4</ele><time>2026-03-26T11:07:10Z</time></trkpt><trkpt lat="38.98801720293529" lon="8.829294599516514"><ele>341.6</ele><time>2026-03-26T11:07:11Z</time></trkpt><trkpt lat="38.98795257389453" lon="8.82940480336174"><ele>339.79999999999995</ele><time>2026-03-26T11:07:12Z</time></trkpt><trkpt lat="38.98789696293288" lon="8.82951362361652"><ele>338.0</ele><time>2026-03-26T11:07:13Z</time></trkpt><trkpt lat="38.98783153927056" lon="8.829598650346133"><ele>340.2</ele><time>2026-03-26T11:07:14Z</time></trkpt><trkpt lat="38.98775009076159" lon="8.829668824232094"><ele>342.4</ele><time>2026-03-26T11:07:15Z</time></trkpt><trkpt lat="38.98766081375216" lon="8.82972940925616"><ele>344.59999999999997</ele><time>2026-03-26T11:07:16Z</time></trkpt><trkpt lat="38.98756958850426" lon="8.829781856820977"><ele>346.79999999999995</ele><time>2026-03-26T11:07:17Z</time></trkpt><trkpt lat="38.98747720654058" lon="8.82982310875728"><ele>349.0</ele><time>2026-03-26T11:07:18Z</time></trkpt><trkpt lat="38.98738308576135" lon="8.829848364324626"><ele>349.0</ele><time>2026-03-26T11:07:19Z</time></trkpt><trkpt lat="38.98728641282309" lon="8.82986089418716"><ele>349.0</ele><time>2026-03-26T11:07:20Z</time></trkpt><trkpt lat="38.987188486052766" lon="8.829881469748806"><ele>349.0</ele><time>2026-03-26T11:07:21Z</time></trkpt><trkpt lat="38.98709495275542" lon="8.829937539958834"><ele>349.0</ele><time>2026-03-26T11:07:22Z</time></trkpt><trkpt lat="38.987012518435805" lon="8.830011346474812"><ele>349.0</ele><time>2026-03-26T11:07:23Z</time></trkpt><trkpt lat="38.98693427740605" lon="8.83009123255111"><ele>352.2</ele><time>2026-03-26T11:07:23.999Z</time></trkpt><trkpt lat="38.98685881750334" lon="8.830171204954288"><ele>355.4</ele><time>2026-03-26T11:07:24.999Z</time></trkpt><trkpt lat="38.98678557589065" lon="8.830247661950024"><ele>358.6</ele><time>2026-03-26T11:07:25.999Z</time></trkpt><trkpt lat="38.986720200163106" lon="8.830340118581905"><ele>361.8</ele><time>2026-03-26T11:07:26.999Z</time></trkpt><trkpt lat="38.9866687082823" lon="8.830439587295778"><ele>365.0</ele><time>2026-03-26T11:07:27.999Z</time></trkpt><trkpt lat="38.986623950397956" lon="8.830519390013588"><ele>365.0</ele><time>2026-03-26T11:07:28.999Z</time></trkpt><trkpt lat="38.98651667266067" lon="8.830567121592502"><ele>365.0</ele><time>2026-03-26T11:07:30.999Z</time></trkpt><trkpt lat="38.98640712507083" lon="8.830480977015764"><ele>365.0</ele><time>2026-03-26T11:07:32.999Z</time></trkpt><trkpt lat="38.986361458456805" lon="8.83039960292888"><ele>365.0</ele><time>2026-03-26T11:07:33.999Z</time></trkpt><trkpt lat="38.98631126857681" lon="8.83033833002269"><ele>365.0</ele><time>2026-03-26T11:07:34.999Z</time></trkpt><trkpt lat="38.98623606412385" lon="8.830304779228152"><ele>365.0</ele><time>2026-03-26T11:07:35.999Z</time></trkpt><trkpt lat="38.98615100264419" lon="8.830288618907762"><ele>365.0</ele><time>2026-03-26T11:07:36.999Z</time></trkpt><trkpt lat="38.98606478050628" lon="8.83029591274305"><ele>365.0</ele><time>2026-03-26T11:07:37.999Z</time></trkpt><trkpt lat="38.98598041484702" lon="8.830323390436778"><ele>365.0</ele><time>2026-03-26T11:07:38.999Z</time></trkpt><trkpt lat="38.98589774121012" lon="8.830386650108807"><ele>365.0</ele><time>2026-03-26T11:07:39.999Z</time></trkpt><trkpt lat="38.98582260281656" lon="8.830455737290546"><ele>365.0</ele><time>2026-03-26T11:07:40.999Z</time></trkpt><trkpt lat="38.98574859973579" lon="8.83051624946048"><ele>363.2</ele><time>2026-03-26T11:07:41.999Z</time></trkpt><trkpt lat="38.98566684213399" lon="8.830566156913942"><ele>361.4</ele><time>2026-03-26T11:07:42.999Z</time></trkpt><trkpt lat="38.9855819084933" lon="8.830610615334864"><ele>359.6</ele><time>2026-03-26T11:07:43.999Z</time></trkpt><trkpt lat="38.98549561311673" lon="8.830651266731307"><ele>357.8</ele><time>2026-03-26T11:07:44.999Z</time></trkpt><trkpt lat="38.985408719979425" lon="8.830694701834203"><ele>356.0</ele><time>2026-03-26T11:07:45.999Z</time></trkpt><trkpt lat="38.985327419863076" lon="8.830736041454442"><ele>356.0</ele><time>2026-03-26T11:07:46.999Z</time></trkpt><trkpt lat="38.98524945744794" lon="8.830776555784462"><ele>356.0</ele><time>2026-03-26T11:07:47.999Z</time></trkpt><trkpt lat="38.98518512567845" lon="8.830822355394895"><ele>356.0</ele><time>2026-03-26T11:07:48.999Z</time></trkpt><trkpt lat="38.985137293793976" lon="8.830893579763085"><ele>356.0</ele><time>2026-03-26T11:07:49.999Z</time></trkpt><trkpt lat="38.98509470794025" lon="8.830981210078091"><ele>356.0</ele><time>2026-03-26T11:07:50.999Z</time></trkpt><trkpt lat="38.985046752171925" lon="8.831053893671731"><ele>356.0</ele><time>2026-03-26T11:07:51.999Z</time></trkpt><trkpt lat="38.98498874353631" lon="8.831101642130173"><ele>355.33333333333337</ele><time>2026-03-26T11:07:52.999Z</time></trkpt><trkpt lat="38.984919865425795" lon="8.831123045288978"><ele>354.6666666666667</ele><time>2026-03-26T11:07:53.999Z</time></trkpt><trkpt lat="38.984840512482165" lon="8.83114673280123"><ele>354.0</ele><time>2026-03-26T11:07:54.999Z</time></trkpt><trkpt lat="38.98476041462717" lon="8.831189980482074"><ele>353.3333333333333</ele><time>2026-03-26T11:07:55.999Z</time></trkpt><trkpt lat="38.984680310274676" lon="8.831258774508132"><ele>352.66666666666663</ele><time>2026-03-26T11:07:56.999Z</time></trkpt><trkpt lat="38.98460724829381" lon="8.831332319165732"><ele>352.0</ele><time>2026-03-26T11:07:57.999Z</time></trkpt><trkpt lat="38.9845361564716" lon="8.831397634840352"><ele>352.0</ele><time>2026-03-26T11:07:58.999Z</time></trkpt><trkpt lat="38.9844602425007" lon="8.831451756363252"><ele>352.0</ele><time>2026-03-26T11:07:59.999Z</time></trkpt><trkpt lat="38.98437724168984" lon="8.831506695559789"><ele>352.0</ele><time>2026-03-26T11:08:00.999Z</time></trkpt><trkpt lat="38.984293828847136" lon="8.831558944207128"><ele>352.0</ele><time>2026-03-26T11:08:01.999Z</time></trkpt><trkpt lat="38.98421409269904" lon="8.831630470265956"><ele>352.0</ele><time>2026-03-26T11:08:02.999Z</time></trkpt><trkpt lat="38.984134730353965" lon="8.831718055017772"><ele>351.40000000000003</ele><time>2026-03-26T11:08:03.999Z</time></trkpt><trkpt lat="38.9840514269723" lon="8.831800859429611"><ele>350.8</ele><time>2026-03-26T11:08:04.999Z</time></trkpt><trkpt lat="38.983976291221744" lon="8.831871850657874"><ele>350.2</ele><time>2026-03-26T11:08:05.999Z</time></trkpt><trkpt lat="38.983896720741924" lon="8.831925727071582"><ele>349.6</ele><time>2026-03-26T11:08:06.999Z</time></trkpt><trkpt lat="38.98383156215901" lon="8.832017131581724"><ele>349.0</ele><time>2026-03-26T11:08:07.999Z</time></trkpt><trkpt lat="38.983768663471" lon="8.832091857833221"><ele>349.0</ele><time>2026-03-26T11:08:08.999Z</time></trkpt><trkpt lat="38.983713019286164" lon="8.83215972720199"><ele>349.0</ele><time>2026-03-26T11:08:09.999Z</time></trkpt><trkpt lat="38.98363108275967" lon="8.83224552271005"><ele>349.0</ele><time>2026-03-26T11:08:11.999Z</time></trkpt><trkpt lat="38.98355217126582" lon="8.832218194326241"><ele>349.0</ele><time>2026-03-26T11:08:13.999Z</time></trkpt><trkpt lat="38.98350983459041" lon="8.832151072627962"><ele>349.0</ele><time>2026-03-26T11:08:14.999Z</time></trkpt><trkpt lat="38.983470933552894" lon="8.832048195748621"><ele>349.0</ele><time>2026-03-26T11:08:15.999Z</time></trkpt><trkpt lat="38.983441597059574" lon="8.831930700567543"><ele>348.99999999999994</ele><time>2026-03-26T11:08:16.999Z</time></trkpt><trkpt lat="38.983405183477096" lon="8.831831938677732"><ele>349.0</ele><time>2026-03-26T11:08:17.999Z</time></trkpt><trkpt lat="38.983351201216514" lon="8.831754461321571"><ele>349.0</ele><time>2026-03-26T11:08:18.999Z</time></trkpt><trkpt lat="38.983282675932394" lon="8.831705760150491"><ele>349.0</ele><time>2026-03-26T11:08:19.999Z</time></trkpt><trkpt lat="38.98321809820854" lon="8.831669301629786"><ele>349.0</ele><time>2026-03-26T11:08:20.999Z</time></trkpt><trkpt lat="38.983155177062756" lon="8.831654901580116"><ele>348.99999999999994</ele><time>2026-03-26T11:08:21.999Z</time></trkpt><trkpt lat="38.98308892418459" lon="8.83167151914617"><ele>349.0</ele><time>2026-03-26T11:08:22.999Z</time></trkpt><trkpt lat="38.98302612618545" lon="8.831729998417703"><ele>347.4</ele><time>2026-03-26T11:08:23.999Z</time></trkpt><trkpt lat="38.98295978321594" lon="8.831819720952323"><ele>345.79999999999995</ele><time>2026-03-26T11:08:24.999Z</time></trkpt><trkpt lat="38.98289253837994" lon="8.831928063481762"><ele>344.20000000000005</ele><time>2026-03-26T11:08:25.999Z</time></trkpt><trkpt lat="38.982835132356556" lon="8.832033460687455"><ele>342.6</ele><time>2026-03-26T11:08:26.999Z</time></trkpt><trkpt lat="38.98277669691672" lon="8.832126527241874"><ele>341.0</ele><time>2026-03-26T11:08:27.999Z</time></trkpt><trkpt lat="38.98271129906065" lon="8.83220699882429"><ele>341.0</ele><time>2026-03-26T11:08:28.999Z</time></trkpt><trkpt lat="38.98263975645852" lon="8.832268480296264"><ele>341.0</ele><time>2026-03-26T11:08:29.999Z</time></trkpt><trkpt lat="38.982551345172965" lon="8.832317440663555"><ele>341.0</ele><time>2026-03-26T11:08:30.999Z</time></trkpt><trkpt lat="38.98247505538077" lon="8.832378980817243"><ele>341.0</ele><time>2026-03-26T11:08:31.999Z</time></trkpt><trkpt lat="38.98241837335793" lon="8.832456307788293"><ele>341.0</ele><time>2026-03-26T11:08:32.999Z</time></trkpt><trkpt lat="38.982367230280815" lon="8.83253311138512"><ele>341.0</ele><time>2026-03-26T11:08:33.999Z</time></trkpt><trkpt lat="38.982312018407185" lon="8.832596969766067"><ele>341.4</ele><time>2026-03-26T11:08:34.999Z</time></trkpt><trkpt lat="38.98224804955223" lon="8.8326521144564"><ele>341.8</ele><time>2026-03-26T11:08:35.999Z</time></trkpt><trkpt lat="38.98218347569595" lon="8.832680865989495"><ele>342.2</ele><time>2026-03-26T11:08:37Z</time></trkpt><trkpt lat="38.9820889218814" lon="8.832683818163575"><ele>342.59999999999997</ele><time>2026-03-26T11:08:38Z</time></trkpt><trkpt lat="38.98197950674599" lon="8.832697603072672"><ele>343.0</ele><time>2026-03-26T11:08:39Z</time></trkpt><trkpt lat="38.98187771891958" lon="8.832724871054678"><ele>343.0</ele><time>2026-03-26T11:08:40Z</time></trkpt><trkpt lat="38.9817794817391" lon="8.832744016008023"><ele>343.0</ele><time>2026-03-26T11:08:41Z</time></trkpt><trkpt lat="38.98168601291607" lon="8.832750239005984"><ele>343.0</ele><time>2026-03-26T11:08:42Z</time></trkpt><trkpt lat="38.98159836043915" lon="8.832772226829421"><ele>343.0</ele><time>2026-03-26T11:08:43Z</time></trkpt><trkpt lat="38.98151937359318" lon="8.832792609309887"><ele>343.0</ele><time>2026-03-26T11:08:44Z</time></trkpt><trkpt lat="38.98144080061207" lon="8.832790413874552"><ele>343.0</ele><time>2026-03-26T11:08:45Z</time></trkpt><trkpt lat="38.98135505676353" lon="8.832766512477711"><ele>340.66666666666663</ele><time>2026-03-26T11:08:46Z</time></trkpt><trkpt lat="38.981273495667295" lon="8.832729630244874"><ele>338.3333333333333</ele><time>2026-03-26T11:08:47Z</time></trkpt><trkpt lat="38.9811993822128" lon="8.83270513570725"><ele>336.0</ele><time>2026-03-26T11:08:48Z</time></trkpt><trkpt lat="38.98112146790615" lon="8.832706882458098"><ele>333.6666666666667</ele><time>2026-03-26T11:08:49Z</time></trkpt><trkpt lat="38.98104885010255" lon="8.832733291603699"><ele>331.33333333333337</ele><time>2026-03-26T11:08:50Z</time></trkpt><trkpt lat="38.980974399249945" lon="8.832775435859638"><ele>329.0</ele><time>2026-03-26T11:08:51Z</time></trkpt><trkpt lat="38.98090289971992" lon="8.832816814690116"><ele>327.6666666666667</ele><time>2026-03-26T11:08:52Z</time></trkpt><trkpt lat="38.980833525106604" lon="8.832855486302337"><ele>326.33333333333337</ele><time>2026-03-26T11:08:53Z</time></trkpt><trkpt lat="38.9807697918719" lon="8.832901009737721"><ele>325.0</ele><time>2026-03-26T11:08:54Z</time></trkpt><trkpt lat="38.980708071522855" lon="8.832944950053971"><ele>323.6666666666667</ele><time>2026-03-26T11:08:55Z</time></trkpt><trkpt lat="38.98065263965158" lon="8.83299099509095"><ele>322.3333333333333</ele><time>2026-03-26T11:08:56Z</time></trkpt><trkpt lat="38.980562874697334" lon="8.83301661285755"><ele>321.0</ele><time>2026-03-26T11:08:58Z</time></trkpt><trkpt lat="38.98046847523189" lon="8.832894666216422"><ele>321.0</ele><time>2026-03-26T11:09:00Z</time></trkpt><trkpt lat="38.98042869252516" lon="8.832793795249442"><ele>321.0</ele><time>2026-03-26T11:09:01Z</time></trkpt><trkpt lat="38.98039716968316" lon="8.832675171083961"><ele>321.0</ele><time>2026-03-26T11:09:02Z</time></trkpt><trkpt lat="38.980375558689374" lon="8.832573576184862"><ele>321.0</ele><time>2026-03-26T11:09:03Z</time></trkpt><trkpt lat="38.98034576806006" lon="8.832476490199566"><ele>321.0</ele><time>2026-03-26T11:09:04Z</time></trkpt><trkpt lat="38.98030988933462" lon="8.832394772072186"><ele>321.0</ele><time>2026-03-26T11:09:05Z</time></trkpt><trkpt lat="38.98027442889034" lon="8.832314199940523"><ele>318.3333333333333</ele><time>2026-03-26T11:09:06Z</time></trkpt><trkpt lat="38.980221161861145" lon="8.832249318586708"><ele>315.6666666666667</ele><time>2026-03-26T11:09:07Z</time></trkpt><trkpt lat="38.980152885405005" lon="8.832196723618841"><ele>313.0</ele><time>2026-03-26T11:09:08Z</time></trkpt><trkpt lat="38.98008282122032" lon="8.832162584649902"><ele>310.33333333333337</ele><time>2026-03-26T11:09:09Z</time></trkpt><trkpt lat="38.980016250494536" lon="8.832142343823556"><ele>307.6666666666667</ele><time>2026-03-26T11:09:10Z</time></trkpt><trkpt lat="38.979940777408515" lon="8.832142658713757"><ele>305.0</ele><time>2026-03-26T11:09:11Z</time></trkpt><trkpt lat="38.97985282974326" lon="8.832159507715843"><ele>305.0</ele><time>2026-03-26T11:09:12Z</time></trkpt><trkpt lat="38.97975927906272" lon="8.83218867475399"><ele>305.0</ele><time>2026-03-26T11:09:13Z</time></trkpt><trkpt lat="38.97966548727527" lon="8.832234435112326"><ele>305.0</ele><time>2026-03-26T11:09:14Z</time></trkpt><trkpt lat="38.979586870317064" lon="8.83227836174223"><ele>305.0</ele><time>2026-03-26T11:09:15Z</time></trkpt><trkpt lat="38.979518164553795" lon="8.832322041471054"><ele>305.0</ele><time>2026-03-26T11:09:16Z</time></trkpt><trkpt lat="38.979460412720094" lon="8.832368805040714"><ele>305.0</ele><time>2026-03-26T11:09:17Z</time></trkpt><trkpt lat="38.97937865315909" lon="8.832481648317605"><ele>305.0</ele><time>2026-03-26T11:09:19Z</time></trkpt><trkpt lat="38.97936145422771" lon="8.832566489520715"><ele>305.0</ele><time>2026-03-26T11:09:20Z</time></trkpt><trkpt lat="38.97934234348793" lon="8.832657196924922"><ele>305.0</ele><time>2026-03-26T11:09:21Z</time></trkpt><trkpt lat="38.979317913435786" lon="8.83274881688537"><ele>305.0</ele><time>2026-03-26T11:09:22Z</time></trkpt><trkpt lat="38.979276677731775" lon="8.832829339813582"><ele>305.0</ele><time>2026-03-26T11:09:23Z</time></trkpt><trkpt lat="38.97920736183683" lon="8.832889414893517"><ele>305.0</ele><time>2026-03-26T11:09:24Z</time></trkpt><trkpt lat="38.979111843291086" lon="8.832927274639962"><ele>305.83333333333337</ele><time>2026-03-26T11:09:25Z</time></trkpt><trkpt lat="38.97901715239774" lon="8.832948119609652"><ele>306.6666666666667</ele><time>2026-03-26T11:09:26Z</time></trkpt><trkpt lat="38.978932320053346" lon="8.832958264613639"><ele>307.5</ele><time>2026-03-26T11:09:27Z</time></trkpt><trkpt lat="38.978854513563306" lon="8.832960787523513"><ele>308.3333333333333</ele><time>2026-03-26T11:09:28Z</time></trkpt><trkpt lat="38.97878219937821" lon="8.832964947764365"><ele>309.16666666666663</ele><time>2026-03-26T11:09:29Z</time></trkpt><trkpt lat="38.97871566768744" lon="8.83294774741181"><ele>310.0</ele><time>2026-03-26T11:09:30Z</time></trkpt><trkpt lat="38.97865653229205" lon="8.832893094005009"><ele>310.0</ele><time>2026-03-26T11:09:31Z</time></trkpt><trkpt lat="38.978601536342815" lon="8.832809616383411"><ele>310.0</ele><time>2026-03-26T11:09:32Z</time></trkpt><trkpt lat="38.97855237481133" lon="8.832720986765255"><ele>310.0</ele><time>2026-03-26T11:09:33Z</time></trkpt><trkpt lat="38.97849211989295" lon="8.832657109813288"><ele>310.0</ele><time>2026-03-26T11:09:34Z</time></trkpt><trkpt lat="38.97840570482758" lon="8.832622094965632"><ele>310.0</ele><time>2026-03-26T11:09:35Z</time></trkpt><trkpt lat="38.97832640533711" lon="8.832583811378298"><ele>310.0</ele><time>2026-03-26T11:09:36Z</time></trkpt><trkpt lat="38.97827024087782" lon="8.832532749154117"><ele>306.5</ele><time>2026-03-26T11:09:37Z</time></trkpt><trkpt lat="38.97822665669752" lon="8.83236836889417"><ele>303.0</ele><time>2026-03-26T11:09:39Z</time></trkpt><trkpt lat="38.97819733169589" lon="8.832281090626834"><ele>299.5</ele><time>2026-03-26T11:09:40Z</time></trkpt><trkpt lat="38.9781563693004" lon="8.8322181315026"><ele>296.0</ele><time>2026-03-26T11:09:41Z</time></trkpt><trkpt lat="38.978101619954806" lon="8.832169783120271"><ele>292.5</ele><time>2026-03-26T11:09:42Z</time></trkpt><trkpt lat="38.97803134399263" lon="8.832139195770024"><ele>289.0</ele><time>2026-03-26T11:09:43Z</time></trkpt><trkpt lat="38.97794108230803" lon="8.832124711782438"><ele>289.0</ele><time>2026-03-26T11:09:44Z</time></trkpt><trkpt lat="38.977836215203325" lon="8.832116216519376"><ele>289.0</ele><time>2026-03-26T11:09:45Z</time></trkpt><trkpt lat="38.977736454035366" lon="8.832112881206747"><ele>289.0</ele><time>2026-03-26T11:09:46Z</time></trkpt><trkpt lat="38.97765405987878" lon="8.832104861640218"><ele>289.0</ele><time>2026-03-26T11:09:47Z</time></trkpt><trkpt lat="38.97758084675119" lon="8.832087804263839"><ele>289.0</ele><time>2026-03-26T11:09:48Z</time></trkpt><trkpt lat="38.97751645588838" lon="8.832061043974857"><ele>289.0</ele><time>2026-03-26T11:09:49Z</time></trkpt><trkpt lat="38.97745259878066" lon="8.83204924060644"><ele>288.66666666666663</ele><time>2026-03-26T11:09:50Z</time></trkpt><trkpt lat="38.97738157981935" lon="8.832069067558253"><ele>288.3333333333333</ele><time>2026-03-26T11:09:51Z</time></trkpt><trkpt lat="38.97730965504984" lon="8.832122940646908"><ele>288.0</ele><time>2026-03-26T11:09:52Z</time></trkpt><trkpt lat="38.97724608141497" lon="8.832186936012976"><ele>287.6666666666667</ele><time>2026-03-26T11:09:52.999Z</time></trkpt><trkpt lat="38.97718668204632" lon="8.83224927844325"><ele>287.33333333333337</ele><time>2026-03-26T11:09:53.999Z</time></trkpt><trkpt lat="38.97712905654213" lon="8.832302137662147"><ele>287.0</ele><time>2026-03-26T11:09:54.999Z</time></trkpt><trkpt lat="38.97706481135043" lon="8.832337546548297"><ele>287.0</ele><time>2026-03-26T11:09:55.999Z</time></trkpt><trkpt lat="38.97698852763084" lon="8.832357073656214"><ele>287.0</ele><time>2026-03-26T11:09:56.999Z</time></trkpt><trkpt lat="38.976907525538856" lon="8.832362965789603"><ele>287.0</ele><time>2026-03-26T11:09:57.999Z</time></trkpt><trkpt lat="38.976820395966286" lon="8.832355524877125"><ele>287.0</ele><time>2026-03-26T11:09:58.999Z</time></trkpt><trkpt lat="38.97673056024783" lon="8.83233020755766"><ele>287.0</ele><time>2026-03-26T11:09:59.999Z</time></trkpt><trkpt lat="38.976640464834446" lon="8.832288927095366"><ele>287.0</ele><time>2026-03-26T11:10:00.999Z</time></trkpt><trkpt lat="38.976558286793235" lon="8.832235572419467"><ele>285.83333333333337</ele><time>2026-03-26T11:10:01.999Z</time></trkpt><trkpt lat="38.97648923528242" lon="8.832180804338062"><ele>284.6666666666667</ele><time>2026-03-26T11:10:02.999Z</time></trkpt><trkpt lat="38.97643128524984" lon="8.832128760523098"><ele>283.5</ele><time>2026-03-26T11:10:03.999Z</time></trkpt><trkpt lat="38.97636668311402" lon="8.8321059269103"><ele>282.3333333333333</ele><time>2026-03-26T11:10:04.999Z</time></trkpt><trkpt lat="38.976294811213144" lon="8.832104447628486"><ele>281.16666666666663</ele><time>2026-03-26T11:10:05.999Z</time></trkpt><trkpt lat="38.97621624498985" lon="8.832129329472915"><ele>280.0</ele><time>2026-03-26T11:10:06.999Z</time></trkpt><trkpt lat="38.97612286652805" lon="8.83218686471829"><ele>280.0</ele><time>2026-03-26T11:10:07.999Z</time></trkpt><trkpt lat="38.9760211842649" lon="8.832249272342112"><ele>280.0</ele><time>2026-03-26T11:10:08.999Z</time></trkpt><trkpt lat="38.97592335418382" lon="8.832296871116762"><ele>280.0</ele><time>2026-03-26T11:10:09.999Z</time></trkpt><trkpt lat="38.97583326224817" lon="8.832334811453286"><ele>280.0</ele><time>2026-03-26T11:10:10.999Z</time></trkpt><trkpt lat="38.97574381260992" lon="8.832364111721716"><ele>280.0</ele><time>2026-03-26T11:10:11.999Z</time></trkpt><trkpt lat="38.97565534119453" lon="8.832381930381493"><ele>277.5</ele><time>2026-03-26T11:10:12.999Z</time></trkpt><trkpt lat="38.97556275773403" lon="8.832401464751099"><ele>275.0</ele><time>2026-03-26T11:10:13.999Z</time></trkpt><trkpt lat="38.97547050591989" lon="8.832423704541931"><ele>272.5</ele><time>2026-03-26T11:10:14.999Z</time></trkpt><trkpt lat="38.97538167286617" lon="8.832438131767015"><ele>270.0</ele><time>2026-03-26T11:10:15.999Z</time></trkpt><trkpt lat="38.97530019481064" lon="8.8324459669868"><ele>267.5</ele><time>2026-03-26T11:10:16.999Z</time></trkpt><trkpt lat="38.97521466417709" lon="8.832479856406867"><ele>265.0</ele><time>2026-03-26T11:10:17.999Z</time></trkpt><trkpt lat="38.97512192766543" lon="8.832535620774932"><ele>265.0</ele><time>2026-03-26T11:10:18.999Z</time></trkpt><trkpt lat="38.97503394911612" lon="8.832589973485288"><ele>265.0</ele><time>2026-03-26T11:10:19.999Z</time></trkpt><trkpt lat="38.97495377616125" lon="8.832635532164645"><ele>265.0</ele><time>2026-03-26T11:10:20.999Z</time></trkpt><trkpt lat="38.974877042069046" lon="8.8326656050933"><ele>265.0</ele><time>2026-03-26T11:10:21.999Z</time></trkpt><trkpt lat="38.974812782059786" lon="8.832695719404068"><ele>265.0</ele><time>2026-03-26T11:10:22.999Z</time></trkpt><trkpt lat="38.97477218076215" lon="8.832792639953544"><ele>265.0</ele><time>2026-03-26T11:10:24.999Z</time></trkpt><trkpt lat="38.974826100444815" lon="8.832905709034298"><ele>262.3333333333333</ele><time>2026-03-26T11:10:26.999Z</time></trkpt><trkpt lat="38.97488511860665" lon="8.832952049663007"><ele>259.66666666666663</ele><time>2026-03-26T11:10:27.999Z</time></trkpt><trkpt lat="38.97495022413472" lon="8.8330056262528"><ele>257.0</ele><time>2026-03-26T11:10:28.999Z</time></trkpt><trkpt lat="38.975012761573446" lon="8.833069170267823"><ele>254.33333333333331</ele><time>2026-03-26T11:10:29.999Z</time></trkpt><trkpt lat="38.975070809799384" lon="8.833152405128844"><ele>251.66666666666666</ele><time>2026-03-26T11:10:30.999Z</time></trkpt><trkpt lat="38.9751210794945" lon="8.833242471540396"><ele>249.0</ele><time>2026-03-26T11:10:31.999Z</time></trkpt><trkpt lat="38.97515851144998" lon="8.833323324188564"><ele>252.57142857142856</ele><time>2026-03-26T11:10:32.999Z</time></trkpt><trkpt lat="38.975193768447305" lon="8.833398282897791"><ele>256.1428571428571</ele><time>2026-03-26T11:10:33.999Z</time></trkpt><trkpt lat="38.9752303939439" lon="8.833470217639347"><ele>259.7142857142857</ele><time>2026-03-26T11:10:34.999Z</time></trkpt><trkpt lat="38.97526658613645" lon="8.833541893335516"><ele>263.2857142857143</ele><time>2026-03-26T11:10:35.999Z</time></trkpt><trkpt lat="38.97530147597159" lon="8.83362567811106"><ele>266.8571428571429</ele><time>2026-03-26T11:10:36.999Z</time></trkpt><trkpt lat="38.97531863497669" lon="8.833726345333673"><ele>270.42857142857144</ele><time>2026-03-26T11:10:37.999Z</time></trkpt><trkpt lat="38.97532189385162" lon="8.833821992542022"><ele>274.0</ele><time>2026-03-26T11:10:38.999Z</time></trkpt><trkpt lat="38.97531969995935" lon="8.83391787152639"><ele>274.0</ele><time>2026-03-26T11:10:39.999Z</time></trkpt><trkpt lat="38.97532599613001" lon="8.834010795892123"><ele>274.0</ele><time>2026-03-26T11:10:40.999Z</time></trkpt><trkpt lat="38.97533736244553" lon="8.83411154386373"><ele>274.0</ele><time>2026-03-26T11:10:42Z</time></trkpt><trkpt lat="38.97535084769105" lon="8.834225726491846"><ele>274.0</ele><time>2026-03-26T11:10:43Z</time></trkpt><trkpt lat="38.97536317563816" lon="8.834334850618795"><ele>274.0</ele><time>2026-03-26T11:10:44Z</time></trkpt><trkpt lat="38.97536812158371" lon="8.834433484575204"><ele>274.0</ele><time>2026-03-26T11:10:45Z</time></trkpt><trkpt lat="38.97537294491858" lon="8.834515928446697"><ele>269.66666666666663</ele><time>2026-03-26T11:10:46Z</time></trkpt><trkpt lat="38.97542615690215" lon="8.834629543924336"><ele>265.3333333333333</ele><time>2026-03-26T11:10:48Z</time></trkpt><trkpt lat="38.97548587357823" lon="8.834676028113593"><ele>261.0</ele><time>2026-03-26T11:10:49Z</time></trkpt><trkpt lat="38.97556632821749" lon="8.834727581834416"><ele>256.6666666666667</ele><time>2026-03-26T11:10:50Z</time></trkpt><trkpt lat="38.97563511090944" lon="8.834788006207756"><ele>252.33333333333334</ele><time>2026-03-26T11:10:51Z</time></trkpt><trkpt lat="38.975684805843265" lon="8.834853285933228"><ele>248.0</ele><time>2026-03-26T11:10:52Z</time></trkpt><trkpt lat="38.975721881702476" lon="8.834931659281729"><ele>248.0</ele><time>2026-03-26T11:10:53Z</time></trkpt><trkpt lat="38.975743175681465" lon="8.835010885570826"><ele>248.0</ele><time>2026-03-26T11:10:54Z</time></trkpt><trkpt lat="38.975723331468366" lon="8.835171715110597"><ele>248.0</ele><time>2026-03-26T11:10:56Z</time></trkpt><trkpt lat="38.975670895667314" lon="8.835259803314537"><ele>248.0</ele><time>2026-03-26T11:10:57Z</time></trkpt><trkpt lat="38.9756367004303" lon="8.835339251751535"><ele>248.0</ele><time>2026-03-26T11:10:58Z</time></trkpt><trkpt lat="38.97566423374851" lon="8.835502007956661"><ele>246.0</ele><time>2026-03-26T11:11:00Z</time></trkpt><trkpt lat="38.97571293296158" lon="8.835605865759204"><ele>244.0</ele><time>2026-03-26T11:11:01Z</time></trkpt><trkpt lat="38.97576444101508" lon="8.835698060738425"><ele>242.0</ele><time>2026-03-26T11:11:02Z</time></trkpt><trkpt lat="38.975794837179365" lon="8.835770443348794"><ele>240.0</ele><time>2026-03-26T11:11:03Z</time></trkpt><trkpt lat="38.975790690075556" lon="8.83593523611269"><ele>238.0</ele><time>2026-03-26T11:11:05Z</time></trkpt><trkpt lat="38.97575327084706" lon="8.836038789486027"><ele>237.0</ele><time>2026-03-26T11:11:06Z</time></trkpt><trkpt lat="38.97571235600873" lon="8.836143989636724"><ele>236.0</ele><time>2026-03-26T11:11:07Z</time></trkpt><trkpt lat="38.97566471163844" lon="8.836252488847592"><ele>235.0</ele><time>2026-03-26T11:11:08Z</time></trkpt><trkpt lat="38.97562044355458" lon="8.836351958840584"><ele>234.0</ele><time>2026-03-26T11:11:09Z</time></trkpt><trkpt lat="38.975588738497656" lon="8.836453535195739"><ele>233.0</ele><time>2026-03-26T11:11:10Z</time></trkpt><trkpt lat="38.97556586286399" lon="8.836563608405882"><ele>233.0</ele><time>2026-03-26T11:11:11Z</time></trkpt><trkpt lat="38.97555240883867" lon="8.836683746107527"><ele>233.0</ele><time>2026-03-26T11:11:12Z</time></trkpt><trkpt lat="38.97555123462934" lon="8.836813422553263"><ele>233.0</ele><time>2026-03-26T11:11:13Z</time></trkpt><trkpt lat="38.97556574537264" lon="8.836963136322296"><ele>233.0</ele><time>2026-03-26T11:11:14Z</time></trkpt><trkpt lat="38.97558488030873" lon="8.837122064591926"><ele>233.0</ele><time>2026-03-26T11:11:15Z</time></trkpt><trkpt lat="38.97559324767536" lon="8.837268343935598"><ele>230.8</ele><time>2026-03-26T11:11:16Z</time></trkpt><trkpt lat="38.97559267305029" lon="8.837410210258996"><ele>228.60000000000002</ele><time>2026-03-26T11:11:17Z</time></trkpt><trkpt lat="38.975586354153464" lon="8.837543142868185"><ele>226.39999999999998</ele><time>2026-03-26T11:11:18Z</time></trkpt><trkpt lat="38.97557960041788" lon="8.837661890022654"><ele>224.2</ele><time>2026-03-26T11:11:19Z</time></trkpt><trkpt lat="38.975571666726296" lon="8.837772481116449"><ele>222.0</ele><time>2026-03-26T11:11:20Z</time></trkpt><trkpt lat="38.97556276919334" lon="8.837876994858151"><ele>219.66666666666666</ele><time>2026-03-26T11:11:21Z</time></trkpt><trkpt lat="38.975550862788204" lon="8.837977457610233"><ele>217.33333333333331</ele><time>2026-03-26T11:11:22Z</time></trkpt><trkpt lat="38.9755403461509" lon="8.838073992947267"><ele>215.0</ele><time>2026-03-26T11:11:23Z</time></trkpt><trkpt lat="38.975535715403744" lon="8.838184267194164"><ele>212.66666666666666</ele><time>2026-03-26T11:11:24Z</time></trkpt><trkpt lat="38.97552343600135" lon="8.838299376635725"><ele>210.33333333333331</ele><time>2026-03-26T11:11:25Z</time></trkpt><trkpt lat="38.975505038928574" lon="8.838401258039605"><ele>208.0</ele><time>2026-03-26T11:11:26Z</time></trkpt><trkpt lat="38.975479246215286" lon="8.838501256241619"><ele>207.16666666666666</ele><time>2026-03-26T11:11:27Z</time></trkpt><trkpt lat="38.97544991032005" lon="8.838600231548696"><ele>206.33333333333331</ele><time>2026-03-26T11:11:28Z</time></trkpt><trkpt lat="38.975424355566176" lon="8.838688205578574"><ele>205.5</ele><time>2026-03-26T11:11:29Z</time></trkpt><trkpt lat="38.97540769207653" lon="8.83876782239475"><ele>204.66666666666669</ele><time>2026-03-26T11:11:30Z</time></trkpt><trkpt lat="38.97539858410103" lon="8.838907786185912"><ele>203.83333333333334</ele><time>2026-03-26T11:11:32Z</time></trkpt><trkpt lat="38.97544320775502" lon="8.839027225042141"><ele>203.0</ele><time>2026-03-26T11:11:34Z</time></trkpt><trkpt lat="38.97555323369683" lon="8.839088467168233"><ele>203.00000000000003</ele><time>2026-03-26T11:11:36Z</time></trkpt><trkpt lat="38.975618931166736" lon="8.839087400525822"><ele>203.0</ele><time>2026-03-26T11:11:37Z</time></trkpt><trkpt lat="38.97568025957515" lon="8.839060807042776"><ele>203.0</ele><time>2026-03-26T11:11:38Z</time></trkpt><trkpt lat="38.9757753860215" lon="8.838968741115771"><ele>203.0</ele><time>2026-03-26T11:11:40Z</time></trkpt><trkpt lat="38.97581834153882" lon="8.838891377663655"><ele>203.00000000000003</ele><time>2026-03-26T11:11:41Z</time></trkpt><trkpt lat="38.975858479653" lon="8.838787404563401"><ele>203.0</ele><time>2026-03-26T11:11:42Z</time></trkpt><trkpt lat="38.975896666146035" lon="8.838666481171643"><ele>204.00000000000003</ele><time>2026-03-26T11:11:43Z</time></trkpt><trkpt lat="38.97593821400213" lon="8.838573752738725"><ele>205.0</ele><time>2026-03-26T11:11:44Z</time></trkpt><trkpt lat="38.975986799911276" lon="8.838495384501313"><ele>206.0</ele><time>2026-03-26T11:11:45Z</time></trkpt><trkpt lat="38.976034312175265" lon="8.838428678265506"><ele>207.0</ele><time>2026-03-26T11:11:46Z</time></trkpt><trkpt lat="38.97609654362531" lon="8.838367976443227"><ele>208.00000000000003</ele><time>2026-03-26T11:11:48Z</time></trkpt><trkpt lat="38.97614326671298" lon="8.838460188625293"><ele>209.0</ele><time>2026-03-26T11:11:51Z</time></trkpt><trkpt lat="38.97609890520873" lon="8.838588063360671"><ele>209.0</ele><time>2026-03-26T11:11:54Z</time></trkpt><trkpt lat="38.97604887258113" lon="8.838712434206947"><ele>209.0</ele><time>2026-03-26T11:11:56Z</time></trkpt><trkpt lat="38.976041487274195" lon="8.838879184199236"><ele>209.0</ele><time>2026-03-26T11:11:58Z</time></trkpt><trkpt lat="38.97604592775703" lon="8.838988935501916"><ele>209.0</ele><time>2026-03-26T11:11:59Z</time></trkpt><trkpt lat="38.97605033099354" lon="8.839093825940363"><ele>209.0</ele><time>2026-03-26T11:12:00Z</time></trkpt><trkpt lat="38.9760613840911" lon="8.839177869206754"><ele>207.39999999999998</ele><time>2026-03-26T11:12:01Z</time></trkpt><trkpt lat="38.976043103103734" lon="8.839325470029516"><ele>205.8</ele><time>2026-03-26T11:12:03Z</time></trkpt><trkpt lat="38.97594035541218" lon="8.839455116911177"><ele>204.2</ele><time>2026-03-26T11:12:05Z</time></trkpt><trkpt lat="38.975863478621" lon="8.839523716781148"><ele>202.60000000000002</ele><time>2026-03-26T11:12:06Z</time></trkpt><trkpt lat="38.97579483740758" lon="8.839588991279813"><ele>201.0</ele><time>2026-03-26T11:12:07Z</time></trkpt><trkpt lat="38.97572161767199" lon="8.839648807742481"><ele>199.83333333333334</ele><time>2026-03-26T11:12:07.999Z</time></trkpt><trkpt lat="38.975650486796845" lon="8.839695253771696"><ele>198.66666666666669</ele><time>2026-03-26T11:12:08.999Z</time></trkpt><trkpt lat="38.975584374313364" lon="8.839726381147766"><ele>197.5</ele><time>2026-03-26T11:12:09.999Z</time></trkpt><trkpt lat="38.97551629106095" lon="8.839762224379974"><ele>196.33333333333334</ele><time>2026-03-26T11:12:10.999Z</time></trkpt><trkpt lat="38.97545233299129" lon="8.839792700000281"><ele>195.16666666666669</ele><time>2026-03-26T11:12:11.999Z</time></trkpt><trkpt lat="38.975336121428995" lon="8.839870225129102"><ele>194.0</ele><time>2026-03-26T11:12:13.999Z</time></trkpt><trkpt lat="38.975282124854736" lon="8.83994454066482"><ele>194.0</ele><time>2026-03-26T11:12:14.999Z</time></trkpt><trkpt lat="38.97523072378646" lon="8.840063636514756"><ele>194.0</ele><time>2026-03-26T11:12:16.999Z</time></trkpt><trkpt lat="38.97526115569953" lon="8.84020500266097"><ele>194.0</ele><time>2026-03-26T11:12:18.999Z</time></trkpt><trkpt lat="38.9752996075152" lon="8.840291383030472"><ele>194.0</ele><time>2026-03-26T11:12:19.999Z</time></trkpt><trkpt lat="38.97535731788399" lon="8.840381877567042"><ele>194.0</ele><time>2026-03-26T11:12:20.999Z</time></trkpt><trkpt lat="38.97542141014776" lon="8.840452042366417"><ele>193.16666666666669</ele><time>2026-03-26T11:12:21.999Z</time></trkpt><trkpt lat="38.97547924284234" lon="8.840521593050845"><ele>192.33333333333334</ele><time>2026-03-26T11:12:22.999Z</time></trkpt><trkpt lat="38.9755256878273" lon="8.840590081934023"><ele>191.5</ele><time>2026-03-26T11:12:23.999Z</time></trkpt><trkpt lat="38.975568195829275" lon="8.840654260643309"><ele>190.66666666666669</ele><time>2026-03-26T11:12:24.999Z</time></trkpt><trkpt lat="38.97559818759472" lon="8.840757464906662"><ele>189.83333333333334</ele><time>2026-03-26T11:12:26.999Z</time></trkpt><trkpt lat="38.97555720205372" lon="8.840891894843297"><ele>189.0</ele><time>2026-03-26T11:12:28.999Z</time></trkpt><trkpt lat="38.97550326546783" lon="8.840984991929185"><ele>189.0</ele><time>2026-03-26T11:12:30.999Z</time></trkpt><trkpt lat="38.97539823514662" lon="8.840981018022816"><ele>189.0</ele><time>2026-03-26T11:12:32.999Z</time></trkpt><trkpt lat="38.97531990304323" lon="8.84092580806473"><ele>189.0</ele><time>2026-03-26T11:12:33.999Z</time></trkpt><trkpt lat="38.9752314544984" lon="8.84084403863883"><ele>189.0</ele><time>2026-03-26T11:12:34.999Z</time></trkpt><trkpt lat="38.9751511237063" lon="8.840761725382961"><ele>189.0</ele><time>2026-03-26T11:12:35.999Z</time></trkpt><trkpt lat="38.975080488584" lon="8.840692312945691"><ele>190.5</ele><time>2026-03-26T11:12:36.999Z</time></trkpt><trkpt lat="38.97501236375665" lon="8.840630442327745"><ele>192.0</ele><time>2026-03-26T11:12:37.999Z</time></trkpt><trkpt lat="38.97494654680947" lon="8.840572008213154"><ele>193.5</ele><time>2026-03-26T11:12:38.999Z</time></trkpt><trkpt lat="38.974884913912106" lon="8.840509105990265"><ele>195.0</ele><time>2026-03-26T11:12:39.999Z</time></trkpt><trkpt lat="38.974824523042045" lon="8.840440127917375"><ele>196.5</ele><time>2026-03-26T11:12:40.999Z</time></trkpt><trkpt lat="38.97476516559053" lon="8.840378024880586"><ele>198.0</ele><time>2026-03-26T11:12:41.999Z</time></trkpt><trkpt lat="38.9747045267802" lon="8.840314019073721"><ele>198.0</ele><time>2026-03-26T11:12:42.999Z</time></trkpt><trkpt lat="38.974642053070916" lon="8.840245480005033"><ele>198.0</ele><time>2026-03-26T11:12:43.999Z</time></trkpt><trkpt lat="38.97457865456092" lon="8.840179537990652"><ele>198.0</ele><time>2026-03-26T11:12:44.999Z</time></trkpt><trkpt lat="38.974517781861266" lon="8.84011677778033"><ele>198.0</ele><time>2026-03-26T11:12:45.999Z</time></trkpt><trkpt lat="38.97445444215637" lon="8.840055634063331"><ele>198.0</ele><time>2026-03-26T11:12:46.999Z</time></trkpt><trkpt lat="38.97439071829834" lon="8.839993775539947"><ele>198.0</ele><time>2026-03-26T11:12:48Z</time></trkpt><trkpt lat="38.974331029181336" lon="8.839924190141753"><ele>199.16666666666666</ele><time>2026-03-26T11:12:49Z</time></trkpt><trkpt lat="38.97427374262641" lon="8.839856384319365"><ele>200.33333333333331</ele><time>2026-03-26T11:12:50Z</time></trkpt><trkpt lat="38.97421843283477" lon="8.83978179664169"><ele>201.5</ele><time>2026-03-26T11:12:51Z</time></trkpt><trkpt lat="38.974168366978866" lon="8.839702601777134"><ele>202.66666666666666</ele><time>2026-03-26T11:12:52Z</time></trkpt><trkpt lat="38.97412605800433" lon="8.839609139436206"><ele>203.83333333333331</ele><time>2026-03-26T11:12:53Z</time></trkpt><trkpt lat="38.97408332944319" lon="8.839511885444562"><ele>205.0</ele><time>2026-03-26T11:12:54Z</time></trkpt><trkpt lat="38.97404479710486" lon="8.839411364400094"><ele>204.99999999999997</ele><time>2026-03-26T11:12:55Z</time></trkpt><trkpt lat="38.974003700342436" lon="8.839312583402753"><ele>205.0</ele><time>2026-03-26T11:12:56Z</time></trkpt><trkpt lat="38.97395907957912" lon="8.839222686896942"><ele>205.0</ele><time>2026-03-26T11:12:57Z</time></trkpt><trkpt lat="38.973929907971375" lon="8.839135695385727"><ele>205.0</ele><time>2026-03-26T11:12:58Z</time></trkpt><trkpt lat="38.97391294959201" lon="8.839045698572235"><ele>204.99999999999997</ele><time>2026-03-26T11:12:59Z</time></trkpt><trkpt lat="38.97391894909008" lon="8.83894606654273"><ele>205.0</ele><time>2026-03-26T11:13:00Z</time></trkpt><trkpt lat="38.973952562554956" lon="8.838853043939517"><ele>203.8</ele><time>2026-03-26T11:13:01Z</time></trkpt><trkpt lat="38.973996987628574" lon="8.838768318588526"><ele>202.6</ele><time>2026-03-26T11:13:02Z</time></trkpt><trkpt lat="38.97405550787487" lon="8.838677160047428"><ele>201.39999999999998</ele><time>2026-03-26T11:13:03Z</time></trkpt><trkpt lat="38.97410937429469" lon="8.838563933285876"><ele>200.2</ele><time>2026-03-26T11:13:04Z</time></trkpt><trkpt lat="38.974158289454536" lon="8.838453388757717"><ele>199.0</ele><time>2026-03-26T11:13:05Z</time></trkpt><trkpt lat="38.97420521632154" lon="8.838354940668868"><ele>197.16666666666666</ele><time>2026-03-26T11:13:06Z</time></trkpt><trkpt lat="38.974248167057674" lon="8.838255500013918"><ele>195.33333333333331</ele><time>2026-03-26T11:13:07Z</time></trkpt><trkpt lat="38.97428663539127" lon="8.838140940377935"><ele>193.5</ele><time>2026-03-26T11:13:08Z</time></trkpt><trkpt lat="38.97431994770563" lon="8.838037783043633"><ele>191.66666666666666</ele><time>2026-03-26T11:13:09Z</time></trkpt><trkpt lat="38.97433050378288" lon="8.83794810130599"><ele>189.83333333333331</ele><time>2026-03-26T11:13:10Z</time></trkpt><trkpt lat="38.97432102403842" lon="8.837848218798364"><ele>188.0</ele><time>2026-03-26T11:13:11Z</time></trkpt><trkpt lat="38.974299971351336" lon="8.837750293396969"><ele>188.0</ele><time>2026-03-26T11:13:12Z</time></trkpt><trkpt lat="38.974270277446315" lon="8.83765336566408"><ele>188.0</ele><time>2026-03-26T11:13:13Z</time></trkpt><trkpt lat="38.97422797679989" lon="8.837564119634312"><ele>188.0</ele><time>2026-03-26T11:13:14Z</time></trkpt><trkpt lat="38.97415906598834" lon="8.837498957136468"><ele>188.0</ele><time>2026-03-26T11:13:15Z</time></trkpt><trkpt lat="38.9740779810642" lon="8.837464720714804"><ele>188.0</ele><time>2026-03-26T11:13:16Z</time></trkpt><trkpt lat="38.973987726014236" lon="8.837462357727754"><ele>188.0</ele><time>2026-03-26T11:13:17Z</time></trkpt><trkpt lat="38.97389545285755" lon="8.837477911367145"><ele>188.5</ele><time>2026-03-26T11:13:18Z</time></trkpt><trkpt lat="38.97381129492376" lon="8.837487800970402"><ele>189.0</ele><time>2026-03-26T11:13:19Z</time></trkpt><trkpt lat="38.973738333078" lon="8.837460234210669"><ele>189.5</ele><time>2026-03-26T11:13:20Z</time></trkpt><trkpt lat="38.973683892927674" lon="8.837392028014362"><ele>190.0</ele><time>2026-03-26T11:13:21Z</time></trkpt><trkpt lat="38.97364816423943" lon="8.837297550790913"><ele>190.5</ele><time>2026-03-26T11:13:22Z</time></trkpt><trkpt lat="38.97362217709431" lon="8.837198896925578"><ele>191.0</ele><time>2026-03-26T11:13:23Z</time></trkpt><trkpt lat="38.97357505099161" lon="8.837113625512005"><ele>191.0</ele><time>2026-03-26T11:13:24Z</time></trkpt><trkpt lat="38.97351125708819" lon="8.83703718786525"><ele>191.0</ele><time>2026-03-26T11:13:25Z</time></trkpt><trkpt lat="38.973455261020234" lon="8.83697152066586"><ele>191.0</ele><time>2026-03-26T11:13:26Z</time></trkpt><trkpt lat="38.97338097201215" lon="8.836922724950961"><ele>191.0</ele><time>2026-03-26T11:13:27Z</time></trkpt><trkpt lat="38.97328364690607" lon="8.836894871689552"><ele>191.0</ele><time>2026-03-26T11:13:28Z</time></trkpt><trkpt lat="38.973190831823004" lon="8.836871809970722"><ele>191.0</ele><time>2026-03-26T11:13:29Z</time></trkpt><trkpt lat="38.973101279321156" lon="8.836850133562084"><ele>191.16666666666666</ele><time>2026-03-26T11:13:30Z</time></trkpt><trkpt lat="38.97301483000174" lon="8.836819270250903"><ele>191.33333333333331</ele><time>2026-03-26T11:13:31Z</time></trkpt><trkpt lat="38.972926055006084" lon="8.836789033534863"><ele>191.5</ele><time>2026-03-26T11:13:32Z</time></trkpt><trkpt lat="38.972836351662025" lon="8.836770896184067"><ele>191.66666666666666</ele><time>2026-03-26T11:13:33Z</time></trkpt><trkpt lat="38.97275844879262" lon="8.836752154030401"><ele>191.83333333333334</ele><time>2026-03-26T11:13:34Z</time></trkpt><trkpt lat="38.972682787408935" lon="8.83672399039709"><ele>192.0</ele><time>2026-03-26T11:13:35Z</time></trkpt><trkpt lat="38.97261253255033" lon="8.83668907162302"><ele>192.0</ele><time>2026-03-26T11:13:36Z</time></trkpt><trkpt lat="38.97254192507518" lon="8.836653890278388"><ele>192.0</ele><time>2026-03-26T11:13:37Z</time></trkpt><trkpt lat="38.972467582220304" lon="8.836602342596303"><ele>192.0</ele><time>2026-03-26T11:13:38Z</time></trkpt><trkpt lat="38.97240275958679" lon="8.836555099175433"><ele>192.0</ele><time>2026-03-26T11:13:39Z</time></trkpt><trkpt lat="38.972342958036684" lon="8.836503671785781"><ele>192.0</ele><time>2026-03-26T11:13:40Z</time></trkpt><trkpt lat="38.97228041725661" lon="8.836477288232063"><ele>192.0</ele><time>2026-03-26T11:13:41Z</time></trkpt><trkpt lat="38.97220133048795" lon="8.836483312185875"><ele>193.2</ele><time>2026-03-26T11:13:42Z</time></trkpt><trkpt lat="38.97211164534817" lon="8.83650783502306"><ele>194.39999999999998</ele><time>2026-03-26T11:13:43Z</time></trkpt><trkpt lat="38.9720188100031" lon="8.836554982825415"><ele>195.60000000000002</ele><time>2026-03-26T11:13:44Z</time></trkpt><trkpt lat="38.971942508797056" lon="8.836600176201436"><ele>196.8</ele><time>2026-03-26T11:13:45Z</time></trkpt><trkpt lat="38.97187062357561" lon="8.836628025478435"><ele>198.0</ele><time>2026-03-26T11:13:46Z</time></trkpt><trkpt lat="38.97176304705003" lon="8.836629436594064"><ele>197.2</ele><time>2026-03-26T11:13:48Z</time></trkpt><trkpt lat="38.9716658754233" lon="8.83655275661482"><ele>196.4</ele><time>2026-03-26T11:13:50Z</time></trkpt><trkpt lat="38.97156482084629" lon="8.83648389330965"><ele>195.6</ele><time>2026-03-26T11:13:52Z</time></trkpt><trkpt lat="38.9714341382415" lon="8.836494486935184"><ele>194.79999999999998</ele><time>2026-03-26T11:13:54Z</time></trkpt><trkpt lat="38.97136190903556" lon="8.836537918354773"><ele>194.0</ele><time>2026-03-26T11:13:55Z</time></trkpt><trkpt lat="38.971303547336575" lon="8.836585325217081"><ele>194.00000000000003</ele><time>2026-03-26T11:13:56Z</time></trkpt><trkpt lat="38.971251435305824" lon="8.836638444917144"><ele>194.0</ele><time>2026-03-26T11:13:57Z</time></trkpt><trkpt lat="38.97119870481191" lon="8.836693700361469"><ele>194.0</ele><time>2026-03-26T11:13:58Z</time></trkpt><trkpt lat="38.971149218024955" lon="8.836776599456188"><ele>194.0</ele><time>2026-03-26T11:13:59Z</time></trkpt><trkpt lat="38.971105806938525" lon="8.836883899487253"><ele>194.00000000000003</ele><time>2026-03-26T11:14:00Z</time></trkpt><trkpt lat="38.97107165903355" lon="8.836977886829557"><ele>194.0</ele><time>2026-03-26T11:14:01Z</time></trkpt><trkpt lat="38.971026265425635" lon="8.837052508479207"><ele>194.00000000000003</ele><time>2026-03-26T11:14:02Z</time></trkpt><trkpt lat="38.970969486385115" lon="8.837106558095222"><ele>194.0</ele><time>2026-03-26T11:14:03Z</time></trkpt><trkpt lat="38.9708952448395" lon="8.83715718422854"><ele>194.0</ele><time>2026-03-26T11:14:04Z</time></trkpt><trkpt lat="38.970811938935654" lon="8.837203337007468"><ele>194.0</ele><time>2026-03-26T11:14:05Z</time></trkpt><trkpt lat="38.97074161732369" lon="8.837246288243886"><ele>194.00000000000003</ele><time>2026-03-26T11:14:06Z</time></trkpt><trkpt lat="38.9706793787216" lon="8.837299619257024"><ele>194.0</ele><time>2026-03-26T11:14:07Z</time></trkpt><trkpt lat="38.97057154283216" lon="8.837345174868021"><ele>194.00000000000003</ele><time>2026-03-26T11:14:09Z</time></trkpt><trkpt lat="38.9705045288808" lon="8.837338070384178"><ele>194.0</ele><time>2026-03-26T11:14:10Z</time></trkpt><trkpt lat="38.97042641027673" lon="8.83732281162443"><ele>194.0</ele><time>2026-03-26T11:14:11Z</time></trkpt><trkpt lat="38.97034781754992" lon="8.837330642484792"><ele>194.0</ele><time>2026-03-26T11:14:12Z</time></trkpt><trkpt lat="38.970267004853014" lon="8.837356176860155"><ele>194.00000000000003</ele><time>2026-03-26T11:14:13Z</time></trkpt><trkpt lat="38.9701930616991" lon="8.83740723709828"><ele>194.0</ele><time>2026-03-26T11:14:14Z</time></trkpt><trkpt lat="38.97011335488039" lon="8.837488471017194"><ele>194.00000000000003</ele><time>2026-03-26T11:14:15Z</time></trkpt><trkpt lat="38.97004592144839" lon="8.837564697315178"><ele>194.0</ele><time>2026-03-26T11:14:16Z</time></trkpt><trkpt lat="38.96998388001566" lon="8.837616799507249"><ele>194.0</ele><time>2026-03-26T11:14:17Z</time></trkpt><trkpt lat="38.96991295481594" lon="8.837654982705498"><ele>194.0</ele><time>2026-03-26T11:14:18Z</time></trkpt><trkpt lat="38.96982726553831" lon="8.837683373959917"><ele>194.00000000000003</ele><time>2026-03-26T11:14:19Z</time></trkpt><trkpt lat="38.96974544999195" lon="8.837724101582129"><ele>194.0</ele><time>2026-03-26T11:14:19.999Z</time></trkpt><trkpt lat="38.96966858380732" lon="8.837773081179948"><ele>192.83333333333334</ele><time>2026-03-26T11:14:20.999Z</time></trkpt><trkpt lat="38.96959185687176" lon="8.837811334101168"><ele>191.66666666666669</ele><time>2026-03-26T11:14:21.999Z</time></trkpt><trkpt lat="38.96951685713421" lon="8.837833176078957"><ele>190.5</ele><time>2026-03-26T11:14:22.999Z</time></trkpt><trkpt lat="38.96943603615997" lon="8.837848035594497"><ele>189.33333333333334</ele><time>2026-03-26T11:14:23.999Z</time></trkpt><trkpt lat="38.96935441935454" lon="8.83785352419304"><ele>188.16666666666669</ele><time>2026-03-26T11:14:24.999Z</time></trkpt><trkpt lat="38.96927780036916" lon="8.837852640299182"><ele>187.0</ele><time>2026-03-26T11:14:25.999Z</time></trkpt><trkpt lat="38.969200316057574" lon="8.837863948638722"><ele>183.66666666666669</ele><time>2026-03-26T11:14:26.999Z</time></trkpt><trkpt lat="38.96912268214341" lon="8.837895224351458"><ele>180.33333333333334</ele><time>2026-03-26T11:14:27.999Z</time></trkpt><trkpt lat="38.96904654489608" lon="8.837946633520213"><ele>177.0</ele><time>2026-03-26T11:14:28.999Z</time></trkpt><trkpt lat="38.968982832374685" lon="8.838006524772034"><ele>173.66666666666666</ele><time>2026-03-26T11:14:29.999Z</time></trkpt><trkpt lat="38.968934260762374" lon="8.838079422307949"><ele>170.33333333333331</ele><time>2026-03-26T11:14:30.999Z</time></trkpt><trkpt lat="38.968899841861" lon="8.83815176902531"><ele>167.0</ele><time>2026-03-26T11:14:31.999Z</time></trkpt><trkpt lat="38.96888330468874" lon="8.838295163723382"><ele>167.0</ele><time>2026-03-26T11:14:33.999Z</time></trkpt><trkpt lat="38.96890422607327" lon="8.838373579360043"><ele>167.0</ele><time>2026-03-26T11:14:34.999Z</time></trkpt><trkpt lat="38.96895158404558" lon="8.83844853169737"><ele>167.0</ele><time>2026-03-26T11:14:35.999Z</time></trkpt><trkpt lat="38.9690200169037" lon="8.838526721035537"><ele>167.0</ele><time>2026-03-26T11:14:36.999Z</time></trkpt><trkpt lat="38.969083873395405" lon="8.83858778230704"><ele>167.0</ele><time>2026-03-26T11:14:37.999Z</time></trkpt><trkpt lat="38.969145055129275" lon="8.83863179183376"><ele>167.0</ele><time>2026-03-26T11:14:38.999Z</time></trkpt><trkpt lat="38.969208393952236" lon="8.838660237786199"><ele>167.0</ele><time>2026-03-26T11:14:39.999Z</time></trkpt><trkpt lat="38.96927160945298" lon="8.838683123750654"><ele>169.66666666666666</ele><time>2026-03-26T11:14:40.999Z</time></trkpt><trkpt lat="38.96934082235564" lon="8.83870432446521"><ele>172.33333333333331</ele><time>2026-03-26T11:14:41.999Z</time></trkpt><trkpt lat="38.96945530782232" lon="8.838725123078376"><ele>175.0</ele><time>2026-03-26T11:14:43.999Z</time></trkpt><trkpt lat="38.9695273817161" lon="8.838762417532795"><ele>177.66666666666666</ele><time>2026-03-26T11:14:45.999Z</time></trkpt><trkpt lat="38.96952471459959" lon="8.838860212247132"><ele>180.33333333333334</ele><time>2026-03-26T11:14:47.999Z</time></trkpt><trkpt lat="38.96945647080189" lon="8.83894444209049"><ele>183.0</ele><time>2026-03-26T11:14:49.999Z</time></trkpt><trkpt lat="38.969376734773974" lon="8.839000271758861"><ele>183.0</ele><time>2026-03-26T11:14:51.999Z</time></trkpt><trkpt lat="38.96927567787092" lon="8.83909533820953"><ele>183.0</ele><time>2026-03-26T11:14:54Z</time></trkpt><trkpt lat="38.969186345224415" lon="8.839187076381444"><ele>183.0</ele><time>2026-03-26T11:14:56Z</time></trkpt><trkpt lat="38.96911881757339" lon="8.839212598781426"><ele>183.0</ele><time>2026-03-26T11:14:57Z</time></trkpt><trkpt lat="38.96903904926976" lon="8.839235807932651"><ele>183.0</ele><time>2026-03-26T11:14:58Z</time></trkpt><trkpt lat="38.9689679767454" lon="8.839275997472816"><ele>179.66666666666666</ele><time>2026-03-26T11:14:59Z</time></trkpt><trkpt lat="38.96890857914315" lon="8.839322368979165"><ele>176.33333333333334</ele><time>2026-03-26T11:15:00Z</time></trkpt><trkpt lat="38.968867811671096" lon="8.839391677819906"><ele>173.0</ele><time>2026-03-26T11:15:01Z</time></trkpt><trkpt lat="38.96883540348683" lon="8.83948346490996"><ele>169.66666666666669</ele><time>2026-03-26T11:15:02Z</time></trkpt><trkpt lat="38.96879995964846" lon="8.839593179787144"><ele>166.33333333333334</ele><time>2026-03-26T11:15:03Z</time></trkpt><trkpt lat="38.96876133024465" lon="8.83970898292406"><ele>163.0</ele><time>2026-03-26T11:15:04Z</time></trkpt><trkpt lat="38.968734341543595" lon="8.83980356779895"><ele>163.0</ele><time>2026-03-26T11:15:05Z</time></trkpt><trkpt lat="38.96872024486113" lon="8.839888308852327"><ele>163.0</ele><time>2026-03-26T11:15:06Z</time></trkpt><trkpt lat="38.96873820199196" lon="8.84001887821411"><ele>163.0</ele><time>2026-03-26T11:15:08Z</time></trkpt><trkpt lat="38.968797358055575" lon="8.84012499669053"><ele>163.0</ele><time>2026-03-26T11:15:10Z</time></trkpt><trkpt lat="38.96881849102721" lon="8.840221392868541"><ele>163.0</ele><time>2026-03-26T11:15:12Z</time></trkpt><trkpt lat="38.96874846698466" lon="8.840306786830952"><ele>163.0</ele><time>2026-03-26T11:15:14Z</time></trkpt><trkpt lat="38.96868578646824" lon="8.840335010758462"><ele>163.66666666666669</ele><time>2026-03-26T11:15:15Z</time></trkpt><trkpt lat="38.96862085007532" lon="8.840356748041325"><ele>164.33333333333334</ele><time>2026-03-26T11:15:16Z</time></trkpt><trkpt lat="38.96853205767188" lon="8.840430907068635"><ele>165.0</ele><time>2026-03-26T11:15:18Z</time></trkpt><trkpt lat="38.96849055228504" lon="8.84052535186638"><ele>165.66666666666666</ele><time>2026-03-26T11:15:20Z</time></trkpt><trkpt lat="38.968403183669274" lon="8.840510096482754"><ele>166.33333333333331</ele><time>2026-03-26T11:15:23Z</time></trkpt><trkpt lat="38.968401266193666" lon="8.840399523466953"><ele>167.0</ele><time>2026-03-26T11:15:25Z</time></trkpt><trkpt lat="38.96846461190937" lon="8.84027405936808"><ele>167.0</ele><time>2026-03-26T11:15:27Z</time></trkpt><trkpt lat="38.9685080325305" lon="8.84020326554578"><ele>167.0</ele><time>2026-03-26T11:15:28Z</time></trkpt><trkpt lat="38.9685179683666" lon="8.840063298366186"><ele>167.0</ele><time>2026-03-26T11:15:30Z</time></trkpt><trkpt lat="38.96845235363801" lon="8.839955966111413"><ele>167.0</ele><time>2026-03-26T11:15:32Z</time></trkpt><trkpt lat="38.96837977059964" lon="8.839900698270021"><ele>167.0</ele><time>2026-03-26T11:15:33Z</time></trkpt><trkpt lat="38.96830357737121" lon="8.839843135827676"><ele>162.16666666666666</ele><time>2026-03-26T11:15:34Z</time></trkpt><trkpt lat="38.968225493905884" lon="8.839805014369954"><ele>157.33333333333331</ele><time>2026-03-26T11:15:35Z</time></trkpt><trkpt lat="38.9681366088762" lon="8.839800192762734"><ele>152.5</ele><time>2026-03-26T11:15:36Z</time></trkpt><trkpt lat="38.96805631252236" lon="8.839808797664846"><ele>147.66666666666666</ele><time>2026-03-26T11:15:37Z</time></trkpt><trkpt lat="38.96799155437528" lon="8.839814496024566"><ele>142.83333333333334</ele><time>2026-03-26T11:15:38Z</time></trkpt><trkpt lat="38.967928947377274" lon="8.839853838623352"><ele>138.0</ele><time>2026-03-26T11:15:39Z</time></trkpt><trkpt lat="38.9678513304235" lon="8.839942325320777"><ele>138.0</ele><time>2026-03-26T11:15:40Z</time></trkpt><trkpt lat="38.96776287975391" lon="8.840050692366406"><ele>138.0</ele><time>2026-03-26T11:15:41Z</time></trkpt><trkpt lat="38.96768426269678" lon="8.840157531034158"><ele>138.0</ele><time>2026-03-26T11:15:42Z</time></trkpt><trkpt lat="38.96760985166577" lon="8.840254793300783"><ele>138.0</ele><time>2026-03-26T11:15:43Z</time></trkpt><trkpt lat="38.96752860338214" lon="8.840343221298033"><ele>138.0</ele><time>2026-03-26T11:15:44Z</time></trkpt><trkpt lat="38.967450045196145" lon="8.840424158143177"><ele>137.5</ele><time>2026-03-26T11:15:45Z</time></trkpt><trkpt lat="38.967388278847395" lon="8.840503255618502"><ele>137.0</ele><time>2026-03-26T11:15:46Z</time></trkpt><trkpt lat="38.96733616226199" lon="8.840583796700711"><ele>136.5</ele><time>2026-03-26T11:15:47Z</time></trkpt><trkpt lat="38.96729186867083" lon="8.840677851296551"><ele>136.0</ele><time>2026-03-26T11:15:48Z</time></trkpt><trkpt lat="38.96725471315667" lon="8.840781409867846"><ele>135.5</ele><time>2026-03-26T11:15:49Z</time></trkpt><trkpt lat="38.96722040762409" lon="8.840897181617013"><ele>135.0</ele><time>2026-03-26T11:15:50Z</time></trkpt><trkpt lat="38.96718308066802" lon="8.841003238341639"><ele>134.83333333333334</ele><time>2026-03-26T11:15:51Z</time></trkpt><trkpt lat="38.967138281661384" lon="8.841087357219111"><ele>134.66666666666666</ele><time>2026-03-26T11:15:52Z</time></trkpt><trkpt lat="38.96708368872652" lon="8.841153941133525"><ele>134.5</ele><time>2026-03-26T11:15:53Z</time></trkpt><trkpt lat="38.96702010607136" lon="8.84120361508101"><ele>134.33333333333331</ele><time>2026-03-26T11:15:54Z</time></trkpt><trkpt lat="38.96694719737043" lon="8.841229218895553"><ele>134.16666666666666</ele><time>2026-03-26T11:15:55Z</time></trkpt><trkpt lat="38.966870536609264" lon="8.841244074013032"><ele>134.0</ele><time>2026-03-26T11:15:56Z</time></trkpt><trkpt lat="38.96679435269078" lon="8.841250599873167"><ele>134.0</ele><time>2026-03-26T11:15:57Z</time></trkpt><trkpt lat="38.966726518344664" lon="8.841265792542254"><ele>134.0</ele><time>2026-03-26T11:15:58Z</time></trkpt><trkpt lat="38.96665917053925" lon="8.841289730956944"><ele>134.0</ele><time>2026-03-26T11:15:59Z</time></trkpt><trkpt lat="38.96659618063429" lon="8.841324204545906"><ele>134.0</ele><time>2026-03-26T11:16:00Z</time></trkpt><trkpt lat="38.96653517790839" lon="8.841364469701693"><ele>134.0</ele><time>2026-03-26T11:16:01Z</time></trkpt><trkpt lat="38.96646461681896" lon="8.841407750590692"><ele>134.0</ele><time>2026-03-26T11:16:02Z</time></trkpt><trkpt lat="38.96639233006139" lon="8.841440355476156"><ele>134.0</ele><time>2026-03-26T11:16:03Z</time></trkpt><trkpt lat="38.96631582312394" lon="8.841469623578098"><ele>134.33333333333331</ele><time>2026-03-26T11:16:04Z</time></trkpt><trkpt lat="38.966238436734514" lon="8.841480375525201"><ele>134.66666666666666</ele><time>2026-03-26T11:16:05Z</time></trkpt><trkpt lat="38.96615802825769" lon="8.841472051560803"><ele>135.0</ele><time>2026-03-26T11:16:06Z</time></trkpt><trkpt lat="38.966080198831044" lon="8.841451254051758"><ele>135.33333333333334</ele><time>2026-03-26T11:16:07Z</time></trkpt><trkpt lat="38.96600136512928" lon="8.841415090793019"><ele>135.66666666666669</ele><time>2026-03-26T11:16:08Z</time></trkpt><trkpt lat="38.96592256653678" lon="8.84136137501373"><ele>136.0</ele><time>2026-03-26T11:16:09Z</time></trkpt><trkpt lat="38.96584399131872" lon="8.841293831935523"><ele>137.0</ele><time>2026-03-26T11:16:10Z</time></trkpt><trkpt lat="38.965755749837" lon="8.841240597525287"><ele>138.0</ele><time>2026-03-26T11:16:11Z</time></trkpt><trkpt lat="38.96566390403491" lon="8.841195246157113"><ele>139.0</ele><time>2026-03-26T11:16:12Z</time></trkpt><trkpt lat="38.96557232039358" lon="8.841157900805237"><ele>140.0</ele><time>2026-03-26T11:16:13Z</time></trkpt><trkpt lat="38.965489348702775" lon="8.841123198208598"><ele>141.0</ele><time>2026-03-26T11:16:14Z</time></trkpt><trkpt lat="38.965404992125045" lon="8.84107707159437"><ele>141.0</ele><time>2026-03-26T11:16:15Z</time></trkpt><trkpt lat="38.965330122922765" lon="8.841010238054789"><ele>141.0</ele><time>2026-03-26T11:16:16Z</time></trkpt><trkpt lat="38.965275266638145" lon="8.840928535412367"><ele>141.0</ele><time>2026-03-26T11:16:17Z</time></trkpt><trkpt lat="38.96523630521376" lon="8.840838267553595"><ele>141.0</ele><time>2026-03-26T11:16:18Z</time></trkpt><trkpt lat="38.96520181077226" lon="8.840748008060409"><ele>141.0</ele><time>2026-03-26T11:16:19Z</time></trkpt><trkpt lat="38.96518536901702" lon="8.840651749433412"><ele>141.0</ele><time>2026-03-26T11:16:20Z</time></trkpt><trkpt lat="38.96518179761258" lon="8.84055925100051"><ele>143.33333333333334</ele><time>2026-03-26T11:16:21Z</time></trkpt><trkpt lat="38.96516018038403" lon="8.840430187109856"><ele>145.66666666666666</ele><time>2026-03-26T11:16:23Z</time></trkpt><trkpt lat="38.96506600455215" lon="8.840364198356372"><ele>148.0</ele><time>2026-03-26T11:16:25Z</time></trkpt><trkpt lat="38.96500090112103" lon="8.840369179757353"><ele>150.33333333333331</ele><time>2026-03-26T11:16:26Z</time></trkpt><trkpt lat="38.96492541055678" lon="8.840393581295695"><ele>152.66666666666666</ele><time>2026-03-26T11:16:26.999Z</time></trkpt><trkpt lat="38.96484865094225" lon="8.840427020274225"><ele>155.0</ele><time>2026-03-26T11:16:27.999Z</time></trkpt><trkpt lat="38.964772929836826" lon="8.840441843631595"><ele>155.0</ele><time>2026-03-26T11:16:28.999Z</time></trkpt><trkpt lat="38.96469316448585" lon="8.840434782063848"><ele>155.0</ele><time>2026-03-26T11:16:29.999Z</time></trkpt><trkpt lat="38.96461595286519" lon="8.84041988118575"><ele>155.0</ele><time>2026-03-26T11:16:30.999Z</time></trkpt><trkpt lat="38.964529440045524" lon="8.840405401471449"><ele>155.0</ele><time>2026-03-26T11:16:31.999Z</time></trkpt><trkpt lat="38.96445338562475" lon="8.840384802769135"><ele>155.0</ele><time>2026-03-26T11:16:32.999Z</time></trkpt><trkpt lat="38.9643896022217" lon="8.840351393514478"><ele>155.0</ele><time>2026-03-26T11:16:33.999Z</time></trkpt><trkpt lat="38.96430448145274" lon="8.840349778489658"><ele>155.0</ele><time>2026-03-26T11:16:35.999Z</time></trkpt><trkpt lat="38.96428077107572" lon="8.84045130027966"><ele>155.0</ele><time>2026-03-26T11:16:37.999Z</time></trkpt><trkpt lat="38.96433637361651" lon="8.840530629919341"><ele>155.0</ele><time>2026-03-26T11:16:39.999Z</time></trkpt><trkpt lat="38.964430454279935" lon="8.840605965383883"><ele>155.0</ele><time>2026-03-26T11:16:41.999Z</time></trkpt><trkpt lat="38.96450563681053" lon="8.840726723863456"><ele>155.0</ele><time>2026-03-26T11:16:43.999Z</time></trkpt><trkpt lat="38.964542877697454" lon="8.840800093222134"><ele>155.0</ele><time>2026-03-26T11:16:44.999Z</time></trkpt><trkpt lat="38.96458317848851" lon="8.840875538893954"><ele>155.0</ele><time>2026-03-26T11:16:45.999Z</time></trkpt><trkpt lat="38.96462317998351" lon="8.840953367171622"><ele>155.0</ele><time>2026-03-26T11:16:46.999Z</time></trkpt><trkpt lat="38.96466208094627" lon="8.841050230254542"><ele>155.0</ele><time>2026-03-26T11:16:47.999Z</time></trkpt><trkpt lat="38.964693762589654" lon="8.8411733568309"><ele>155.0</ele><time>2026-03-26T11:16:48.999Z</time></trkpt><trkpt lat="38.964722553637486" lon="8.84130894385533"><ele>155.0</ele><time>2026-03-26T11:16:49.999Z</time></trkpt><trkpt lat="38.96474963639778" lon="8.841441835904899"><ele>156.2</ele><time>2026-03-26T11:16:50.999Z</time></trkpt><trkpt lat="38.96478042957083" lon="8.841565154872448"><ele>157.4</ele><time>2026-03-26T11:16:51.999Z</time></trkpt><trkpt lat="38.964822436454035" lon="8.84166462187162"><ele>158.60000000000002</ele><time>2026-03-26T11:16:52.999Z</time></trkpt><trkpt lat="38.96488266226801" lon="8.841764346712424"><ele>159.8</ele><time>2026-03-26T11:16:53.999Z</time></trkpt><trkpt lat="38.96494653501088" lon="8.84186206696015"><ele>161.0</ele><time>2026-03-26T11:16:54.999Z</time></trkpt><trkpt lat="38.96499169859172" lon="8.841945087616255"><ele>162.5</ele><time>2026-03-26T11:16:55.999Z</time></trkpt><trkpt lat="38.96502351639608" lon="8.842023382836121"><ele>164.0</ele><time>2026-03-26T11:16:56.999Z</time></trkpt><trkpt lat="38.96504499028977" lon="8.842111447956173"><ele>165.5</ele><time>2026-03-26T11:16:57.999Z</time></trkpt><trkpt lat="38.965047243135075" lon="8.842214911376606"><ele>167.0</ele><time>2026-03-26T11:16:58.999Z</time></trkpt><trkpt lat="38.96503254536652" lon="8.842321925923171"><ele>168.5</ele><time>2026-03-26T11:17:00Z</time></trkpt><trkpt lat="38.96500451674887" lon="8.842442490828816"><ele>170.0</ele><time>2026-03-26T11:17:01Z</time></trkpt><trkpt lat="38.964972212016434" lon="8.842554042959994"><ele>167.0</ele><time>2026-03-26T11:17:02Z</time></trkpt><trkpt lat="38.964961276977085" lon="8.842656358855368"><ele>164.0</ele><time>2026-03-26T11:17:03Z</time></trkpt><trkpt lat="38.96496813845609" lon="8.842749067147196"><ele>161.0</ele><time>2026-03-26T11:17:04Z</time></trkpt><trkpt lat="38.96493511137986" lon="8.84284848278643"><ele>158.0</ele><time>2026-03-26T11:17:06Z</time></trkpt><trkpt lat="38.96480926095328" lon="8.842857920278052"><ele>155.0</ele><time>2026-03-26T11:17:08Z</time></trkpt><trkpt lat="38.96471510779405" lon="8.842818966071134"><ele>155.0</ele><time>2026-03-26T11:17:09Z</time></trkpt><trkpt lat="38.96460363405777" lon="8.842781722753122"><ele>155.0</ele><time>2026-03-26T11:17:10Z</time></trkpt><trkpt lat="38.96447716348641" lon="8.842757458078331"><ele>155.0</ele><time>2026-03-26T11:17:11Z</time></trkpt><trkpt lat="38.964343890965935" lon="8.842732344665647"><ele>155.0</ele><time>2026-03-26T11:17:12Z</time></trkpt><trkpt lat="38.964220236957544" lon="8.842707793791874"><ele>154.16666666666666</ele><time>2026-03-26T11:17:13Z</time></trkpt><trkpt lat="38.964114734249804" lon="8.842684146000288"><ele>153.33333333333331</ele><time>2026-03-26T11:17:14Z</time></trkpt><trkpt lat="38.96403209224179" lon="8.842661267146063"><ele>152.5</ele><time>2026-03-26T11:17:15Z</time></trkpt><trkpt lat="38.963954585252175" lon="8.84261786763457"><ele>151.66666666666666</ele><time>2026-03-26T11:17:16Z</time></trkpt><trkpt lat="38.96388016385174" lon="8.842565636675491"><ele>150.83333333333334</ele><time>2026-03-26T11:17:17Z</time></trkpt><trkpt lat="38.96380499340389" lon="8.842532857605146"><ele>150.0</ele><time>2026-03-26T11:17:18Z</time></trkpt><trkpt lat="38.9637202306676" lon="8.842526429178301"><ele>157.6</ele><time>2026-03-26T11:17:19Z</time></trkpt><trkpt lat="38.963608527421684" lon="8.842549100103746"><ele>165.2</ele><time>2026-03-26T11:17:20Z</time></trkpt><trkpt lat="38.96350371822297" lon="8.842573671111586"><ele>172.8</ele><time>2026-03-26T11:17:21Z</time></trkpt><trkpt lat="38.963422358570725" lon="8.842569213579742"><ele>180.4</ele><time>2026-03-26T11:17:22Z</time></trkpt><trkpt lat="38.963342549672625" lon="8.842576021436235"><ele>188.0</ele><time>2026-03-26T11:17:23Z</time></trkpt><trkpt lat="38.963251922175694" lon="8.842616223927584"><ele>181.8</ele><time>2026-03-26T11:17:24Z</time></trkpt><trkpt lat="38.963161729233114" lon="8.842679023622111"><ele>175.60000000000002</ele><time>2026-03-26T11:17:25Z</time></trkpt><trkpt lat="38.963078692586315" lon="8.842759561033997"><ele>169.39999999999998</ele><time>2026-03-26T11:17:26Z</time></trkpt><trkpt lat="38.9630020887148" lon="8.842842307171564"><ele>163.2</ele><time>2026-03-26T11:17:27Z</time></trkpt><trkpt lat="38.96292287493394" lon="8.842921062015545"><ele>157.0</ele><time>2026-03-26T11:17:28Z</time></trkpt><trkpt lat="38.962867982895276" lon="8.842966062015309"><ele>157.0</ele><time>2026-03-26T11:17:29Z</time></trkpt><trkpt lat="38.962773128594044" lon="8.843000174013307"><ele>157.0</ele><time>2026-03-26T11:17:31Z</time></trkpt><trkpt lat="38.962705681741355" lon="8.842990230340645"><ele>157.0</ele><time>2026-03-26T11:17:32Z</time></trkpt><trkpt lat="38.96263032583978" lon="8.842965213338646"><ele>157.0</ele><time>2026-03-26T11:17:33Z</time></trkpt><trkpt lat="38.96256579942998" lon="8.842922186472652"><ele>157.0</ele><time>2026-03-26T11:17:34Z</time></trkpt><trkpt lat="38.96244932325096" lon="8.842870062747181"><ele>157.0</ele><time>2026-03-26T11:17:36Z</time></trkpt><trkpt lat="38.96237713099708" lon="8.842905572932967"><ele>160.39999999999998</ele><time>2026-03-26T11:17:37Z</time></trkpt><trkpt lat="38.962304750634146" lon="8.842982390188473"><ele>163.79999999999998</ele><time>2026-03-26T11:17:38Z</time></trkpt><trkpt lat="38.96223674428025" lon="8.843044510776073"><ele>167.2</ele><time>2026-03-26T11:17:39Z</time></trkpt><trkpt lat="38.96212888498362" lon="8.84301825332386"><ele>170.6</ele><time>2026-03-26T11:17:41Z</time></trkpt><trkpt lat="38.96206454514135" lon="8.842952659400382"><ele>174.0</ele><time>2026-03-26T11:17:42Z</time></trkpt><trkpt lat="38.96199230029758" lon="8.842875774888789"><ele>174.0</ele><time>2026-03-26T11:17:43Z</time></trkpt><trkpt lat="38.96192382437066" lon="8.842803028430492"><ele>174.0</ele><time>2026-03-26T11:17:44Z</time></trkpt><trkpt lat="38.961875939983564" lon="8.8427244313142"><ele>174.0</ele><time>2026-03-26T11:17:45Z</time></trkpt><trkpt lat="38.96185177759395" lon="8.842638329623846"><ele>174.0</ele><time>2026-03-26T11:17:46Z</time></trkpt><trkpt lat="38.96183664552859" lon="8.842545787230174"><ele>174.0</ele><time>2026-03-26T11:17:47Z</time></trkpt><trkpt lat="38.96182073427385" lon="8.84246225756961"><ele>174.0</ele><time>2026-03-26T11:17:48Z</time></trkpt><trkpt lat="38.9617147867156" lon="8.842361343785797"><ele>177.0</ele><time>2026-03-26T11:17:50Z</time></trkpt><trkpt lat="38.96162290387771" lon="8.842325249612646"><ele>180.0</ele><time>2026-03-26T11:17:51Z</time></trkpt><trkpt lat="38.96153021097009" lon="8.842292836575831"><ele>183.0</ele><time>2026-03-26T11:17:52Z</time></trkpt><trkpt lat="38.9614509276228" lon="8.842234840314116"><ele>186.0</ele><time>2026-03-26T11:17:53Z</time></trkpt><trkpt lat="38.961377451442445" lon="8.84216042391636"><ele>189.0</ele><time>2026-03-26T11:17:54Z</time></trkpt><trkpt lat="38.96129790242666" lon="8.842106768620129"><ele>189.0</ele><time>2026-03-26T11:17:55Z</time></trkpt><trkpt lat="38.961203380096705" lon="8.842071769051552"><ele>189.0</ele><time>2026-03-26T11:17:56Z</time></trkpt><trkpt lat="38.96111576998109" lon="8.84201197752039"><ele>189.0</ele><time>2026-03-26T11:17:57Z</time></trkpt><trkpt lat="38.961029045393104" lon="8.841926313252372"><ele>189.0</ele><time>2026-03-26T11:17:58Z</time></trkpt><trkpt lat="38.960947053666295" lon="8.841835996916531"><ele>189.0</ele><time>2026-03-26T11:17:59Z</time></trkpt><trkpt lat="38.96087679606324" lon="8.841762257211418"><ele>190.5</ele><time>2026-03-26T11:18:00Z</time></trkpt><trkpt lat="38.96081368700509" lon="8.841686704107769"><ele>192.0</ele><time>2026-03-26T11:18:01Z</time></trkpt><trkpt lat="38.96076132256345" lon="8.841595295682438"><ele>193.5</ele><time>2026-03-26T11:18:02Z</time></trkpt><trkpt lat="38.96072100056986" lon="8.841500243310128"><ele>195.0</ele><time>2026-03-26T11:18:03Z</time></trkpt><trkpt lat="38.96067987862195" lon="8.841419692105914"><ele>196.5</ele><time>2026-03-26T11:18:04Z</time></trkpt><trkpt lat="38.96062736573181" lon="8.841351858897372"><ele>198.0</ele><time>2026-03-26T11:18:05Z</time></trkpt><trkpt lat="38.96056381118668" lon="8.84131258867194"><ele>198.0</ele><time>2026-03-26T11:18:06Z</time></trkpt><trkpt lat="38.96048553428962" lon="8.84130260149283"><ele>198.0</ele><time>2026-03-26T11:18:07Z</time></trkpt><trkpt lat="38.960397635454214" lon="8.841300372847922"><ele>198.0</ele><time>2026-03-26T11:18:08Z</time></trkpt><trkpt lat="38.96030258902847" lon="8.841288142871402"><ele>198.0</ele><time>2026-03-26T11:18:09Z</time></trkpt><trkpt lat="38.96021612374631" lon="8.841226599839683"><ele>198.0</ele><time>2026-03-26T11:18:10Z</time></trkpt><trkpt lat="38.96013519867549" lon="8.841136238353918"><ele>198.0</ele><time>2026-03-26T11:18:11Z</time></trkpt><trkpt lat="38.96007383488961" lon="8.841043987104676"><ele>198.0</ele><time>2026-03-26T11:18:12Z</time></trkpt><trkpt lat="38.9600306112499" lon="8.8409595211784"><ele>198.0</ele><time>2026-03-26T11:18:13Z</time></trkpt><trkpt lat="38.960000605559436" lon="8.840886380385525"><ele>198.0</ele><time>2026-03-26T11:18:14Z</time></trkpt><trkpt lat="38.95994405184431" lon="8.840836663223785"><ele>198.0</ele><time>2026-03-26T11:18:15Z</time></trkpt><trkpt lat="38.95986540340881" lon="8.840818914176886"><ele>198.0</ele><time>2026-03-26T11:18:16Z</time></trkpt><trkpt lat="38.95978136783244" lon="8.840845108460496"><ele>199.8</ele><time>2026-03-26T11:18:17Z</time></trkpt><trkpt lat="38.959703157923485" lon="8.840903438324837"><ele>201.60000000000002</ele><time>2026-03-26T11:18:18Z</time></trkpt><trkpt lat="38.95961798793156" lon="8.840984573983594"><ele>203.39999999999998</ele><time>2026-03-26T11:18:19Z</time></trkpt><trkpt lat="38.95952533401826" lon="8.841060381957567"><ele>205.2</ele><time>2026-03-26T11:18:20Z</time></trkpt><trkpt lat="38.95944539110069" lon="8.841123534917415"><ele>207.0</ele><time>2026-03-26T11:18:21Z</time></trkpt><trkpt lat="38.95939215698549" lon="8.84119281392943"><ele>203.33333333333334</ele><time>2026-03-26T11:18:22Z</time></trkpt><trkpt lat="38.95934073095127" lon="8.84124661268922"><ele>199.66666666666666</ele><time>2026-03-26T11:18:23Z</time></trkpt><trkpt lat="38.959275488121385" lon="8.841284517118252"><ele>196.0</ele><time>2026-03-26T11:18:24Z</time></trkpt><trkpt lat="38.95920259022085" lon="8.841292258099795"><ele>192.33333333333331</ele><time>2026-03-26T11:18:25Z</time></trkpt><trkpt lat="38.959122083711875" lon="8.841280539734948"><ele>188.66666666666666</ele><time>2026-03-26T11:18:26Z</time></trkpt><trkpt lat="38.95903123596333" lon="8.841253690522496"><ele>185.0</ele><time>2026-03-26T11:18:27Z</time></trkpt><trkpt lat="38.95893270386998" lon="8.841242234418313"><ele>184.99999999999997</ele><time>2026-03-26T11:18:28Z</time></trkpt><trkpt lat="38.9588520537303" lon="8.841250656609219"><ele>185.0</ele><time>2026-03-26T11:18:29Z</time></trkpt><trkpt lat="38.958782568279574" lon="8.841261466025474"><ele>185.0</ele><time>2026-03-26T11:18:30Z</time></trkpt><trkpt lat="38.95870977077837" lon="8.841258791821225"><ele>185.0</ele><time>2026-03-26T11:18:31Z</time></trkpt><trkpt lat="38.95863739049255" lon="8.841237883987963"><ele>185.0</ele><time>2026-03-26T11:18:32Z</time></trkpt><trkpt lat="38.95856905180372" lon="8.841200948464014"><ele>184.99999999999997</ele><time>2026-03-26T11:18:33Z</time></trkpt><trkpt lat="38.958510382906155" lon="8.84114832307425"><ele>185.0</ele><time>2026-03-26T11:18:34Z</time></trkpt><trkpt lat="38.958451337060595" lon="8.841074045201022"><ele>185.0</ele><time>2026-03-26T11:18:35Z</time></trkpt><trkpt lat="38.95839587072792" lon="8.840988269441448"><ele>185.0</ele><time>2026-03-26T11:18:36Z</time></trkpt><trkpt lat="38.9583494744717" lon="8.840912604678154"><ele>185.0</ele><time>2026-03-26T11:18:37Z</time></trkpt><trkpt lat="38.95824987579783" lon="8.840845532115146"><ele>185.0</ele><time>2026-03-26T11:18:38.999Z</time></trkpt><trkpt lat="38.95814869808023" lon="8.840929659616412"><ele>185.0</ele><time>2026-03-26T11:18:40.999Z</time></trkpt><trkpt lat="38.958131365538726" lon="8.841026470621028"><ele>186.7142857142857</ele><time>2026-03-26T11:18:41.999Z</time></trkpt><trkpt lat="38.958132798514846" lon="8.841125026824649"><ele>188.42857142857142</ele><time>2026-03-26T11:18:42.999Z</time></trkpt><trkpt lat="38.95813912783197" lon="8.841224438576337"><ele>190.14285714285714</ele><time>2026-03-26T11:18:43.999Z</time></trkpt><trkpt lat="38.95813450799804" lon="8.841320212898385"><ele>191.85714285714283</ele><time>2026-03-26T11:18:44.999Z</time></trkpt><trkpt lat="38.95811745581085" lon="8.841403620359051"><ele>193.57142857142858</ele><time>2026-03-26T11:18:45.999Z</time></trkpt><trkpt lat="38.958100628475655" lon="8.84149148469314"><ele>195.28571428571428</ele><time>2026-03-26T11:18:46.999Z</time></trkpt><trkpt lat="38.958104634791084" lon="8.84159342571152"><ele>197.0</ele><time>2026-03-26T11:18:47.999Z</time></trkpt><trkpt lat="38.958125550857645" lon="8.841693767874578"><ele>197.00000000000003</ele><time>2026-03-26T11:18:48.999Z</time></trkpt><trkpt lat="38.958161524161085" lon="8.841785169467126"><ele>197.0</ele><time>2026-03-26T11:18:49.999Z</time></trkpt><trkpt lat="38.95821221124429" lon="8.841859996239092"><ele>197.0</ele><time>2026-03-26T11:18:50.999Z</time></trkpt><trkpt lat="38.958270091985845" lon="8.84193100462892"><ele>197.0</ele><time>2026-03-26T11:18:51.999Z</time></trkpt><trkpt lat="38.95832634169408" lon="8.842009207340896"><ele>197.00000000000003</ele><time>2026-03-26T11:18:52.999Z</time></trkpt><trkpt lat="38.958388372395476" lon="8.8420902074378"><ele>197.0</ele><time>2026-03-26T11:18:53.999Z</time></trkpt><trkpt lat="38.95845801954447" lon="8.842178126077656"><ele>196.8</ele><time>2026-03-26T11:18:54.999Z</time></trkpt><trkpt lat="38.95853095739281" lon="8.84224899494493"><ele>196.6</ele><time>2026-03-26T11:18:55.999Z</time></trkpt><trkpt lat="38.95860723526404" lon="8.842299213465605"><ele>196.4</ele><time>2026-03-26T11:18:56.999Z</time></trkpt><trkpt lat="38.95868885594317" lon="8.842356135033702"><ele>196.20000000000002</ele><time>2026-03-26T11:18:57.999Z</time></trkpt><trkpt lat="38.95875835254647" lon="8.842428513731726"><ele>196.0</ele><time>2026-03-26T11:18:58.999Z</time></trkpt><trkpt lat="38.958820768668" lon="8.842513840685365"><ele>195.99999999999997</ele><time>2026-03-26T11:18:59.999Z</time></trkpt><trkpt lat="38.9588753909147" lon="8.842604486020841"><ele>196.0</ele><time>2026-03-26T11:19:00.999Z</time></trkpt><trkpt lat="38.95893074286717" lon="8.842706070148186"><ele>196.0</ele><time>2026-03-26T11:19:01.999Z</time></trkpt><trkpt lat="38.95898465205035" lon="8.842800156955782"><ele>196.0</ele><time>2026-03-26T11:19:02.999Z</time></trkpt><trkpt lat="38.95902905092711" lon="8.842874119908414"><ele>195.99999999999997</ele><time>2026-03-26T11:19:03.999Z</time></trkpt><trkpt lat="38.959075183514535" lon="8.84293670402479"><ele>196.0</ele><time>2026-03-26T11:19:04.999Z</time></trkpt><trkpt lat="38.959135885466715" lon="8.842981908431415"><ele>196.85714285714286</ele><time>2026-03-26T11:19:06Z</time></trkpt><trkpt lat="38.959211096478064" lon="8.843001524859488"><ele>197.71428571428572</ele><time>2026-03-26T11:19:07Z</time></trkpt><trkpt lat="38.95928707057045" lon="8.843015403705458"><ele>198.57142857142856</ele><time>2026-03-26T11:19:08Z</time></trkpt><trkpt lat="38.95935783217621" lon="8.843031933014425"><ele>199.42857142857144</ele><time>2026-03-26T11:19:09Z</time></trkpt><trkpt lat="38.9594244481865" lon="8.843067658031075"><ele>200.28571428571428</ele><time>2026-03-26T11:19:10Z</time></trkpt><trkpt lat="38.95948457735485" lon="8.843115903431036"><ele>201.14285714285714</ele><time>2026-03-26T11:19:11Z</time></trkpt><trkpt lat="38.959536077099344" lon="8.84317520021851"><ele>202.0</ele><time>2026-03-26T11:19:12Z</time></trkpt><trkpt lat="38.959588291956656" lon="8.843249783016256"><ele>201.99999999999997</ele><time>2026-03-26T11:19:13Z</time></trkpt><trkpt lat="38.959640081577966" lon="8.843326469521365"><ele>202.0</ele><time>2026-03-26T11:19:14Z</time></trkpt><trkpt lat="38.959701193615054" lon="8.843413387936518"><ele>202.0</ele><time>2026-03-26T11:19:15Z</time></trkpt><trkpt lat="38.95974517705092" lon="8.843488988663452"><ele>202.0</ele><time>2026-03-26T11:19:16Z</time></trkpt><trkpt lat="38.95978737384276" lon="8.843575465154263"><ele>201.99999999999997</ele><time>2026-03-26T11:19:17Z</time></trkpt><trkpt lat="38.95982128103505" lon="8.843679838309788"><ele>202.0</ele><time>2026-03-26T11:19:18Z</time></trkpt><trkpt lat="38.95984564440265" lon="8.843786664353479"><ele>205.16666666666666</ele><time>2026-03-26T11:19:19Z</time></trkpt><trkpt lat="38.959858466142705" lon="8.843889978485388"><ele>208.33333333333331</ele><time>2026-03-26T11:19:20Z</time></trkpt><trkpt lat="38.95986642804628" lon="8.843992505097807"><ele>211.5</ele><time>2026-03-26T11:19:21Z</time></trkpt><trkpt lat="38.959877442522206" lon="8.844094835665082"><ele>214.66666666666669</ele><time>2026-03-26T11:19:22Z</time></trkpt><trkpt lat="38.95988532416708" lon="8.844202885269082"><ele>217.83333333333334</ele><time>2026-03-26T11:19:23Z</time></trkpt><trkpt lat="38.95989985317559" lon="8.844310844189042"><ele>221.0</ele><time>2026-03-26T11:19:24Z</time></trkpt><trkpt lat="38.959930213427974" lon="8.844395606278232"><ele>219.8</ele><time>2026-03-26T11:19:25Z</time></trkpt><trkpt lat="38.95998115094918" lon="8.844447822058314"><ele>218.60000000000002</ele><time>2026-03-26T11:19:26Z</time></trkpt><trkpt lat="38.96008130500017" lon="8.844523126575481"><ele>217.4</ele><time>2026-03-26T11:19:28Z</time></trkpt><trkpt lat="38.96007512706423" lon="8.84464373054603"><ele>216.2</ele><time>2026-03-26T11:19:30Z</time></trkpt><trkpt lat="38.95996986250709" lon="8.844665006734857"><ele>215.0</ele><time>2026-03-26T11:19:32Z</time></trkpt><trkpt lat="38.959908363348156" lon="8.844627439397208"><ele>218.50000000000003</ele><time>2026-03-26T11:19:33Z</time></trkpt><trkpt lat="38.95984862518941" lon="8.84457340387862"><ele>222.0</ele><time>2026-03-26T11:19:34Z</time></trkpt><trkpt lat="38.959782638765205" lon="8.844512228557113"><ele>225.5</ele><time>2026-03-26T11:19:35Z</time></trkpt><trkpt lat="38.95970492786061" lon="8.844463043299216"><ele>229.0</ele><time>2026-03-26T11:19:36Z</time></trkpt><trkpt lat="38.959638029015295" lon="8.844454605074775"><ele>232.50000000000003</ele><time>2026-03-26T11:19:37Z</time></trkpt><trkpt lat="38.95952981957144" lon="8.844536458882088"><ele>236.0</ele><time>2026-03-26T11:19:39Z</time></trkpt><trkpt lat="38.95948685959138" lon="8.844615994500458"><ele>236.0</ele><time>2026-03-26T11:19:40Z</time></trkpt><trkpt lat="38.95944966459646" lon="8.844711628455448"><ele>236.0</ele><time>2026-03-26T11:19:41Z</time></trkpt><trkpt lat="38.95941870228904" lon="8.84479379138464"><ele>236.0</ele><time>2026-03-26T11:19:42Z</time></trkpt><trkpt lat="38.95939051453903" lon="8.844872769780043"><ele>236.0</ele><time>2026-03-26T11:19:43Z</time></trkpt><trkpt lat="38.95936078101995" lon="8.84495084370497"><ele>236.0</ele><time>2026-03-26T11:19:44Z</time></trkpt><trkpt lat="38.959330254249295" lon="8.845033682869966"><ele>236.0</ele><time>2026-03-26T11:19:45Z</time></trkpt><trkpt lat="38.95930312825425" lon="8.845114386673927"><ele>236.0</ele><time>2026-03-26T11:19:46Z</time></trkpt><trkpt lat="38.95927484288089" lon="8.845196669429763"><ele>235.00000000000003</ele><time>2026-03-26T11:19:47Z</time></trkpt><trkpt lat="38.95923883730084" lon="8.845287196015901"><ele>234.0</ele><time>2026-03-26T11:19:48Z</time></trkpt><trkpt lat="38.959201381830766" lon="8.845379967860248"><ele>233.0</ele><time>2026-03-26T11:19:49Z</time></trkpt><trkpt lat="38.959167377347306" lon="8.845469452658863"><ele>232.0</ele><time>2026-03-26T11:19:50Z</time></trkpt><trkpt lat="38.9591303435567" lon="8.845558718555788"><ele>231.00000000000003</ele><time>2026-03-26T11:19:51Z</time></trkpt><trkpt lat="38.95909903266267" lon="8.845644031488249"><ele>230.0</ele><time>2026-03-26T11:19:52Z</time></trkpt><trkpt lat="38.959071777067614" lon="8.84573183492726"><ele>229.99999999999997</ele><time>2026-03-26T11:19:53Z</time></trkpt><trkpt lat="38.95904072477726" lon="8.845818749524383"><ele>230.0</ele><time>2026-03-26T11:19:54Z</time></trkpt><trkpt lat="38.95900684983455" lon="8.84589852646606"><ele>229.99999999999997</ele><time>2026-03-26T11:19:55Z</time></trkpt><trkpt lat="38.95897513004425" lon="8.84597723071781"><ele>229.99999999999997</ele><time>2026-03-26T11:19:56Z</time></trkpt><trkpt lat="38.958947348494426" lon="8.84605745113252"><ele>230.0</ele><time>2026-03-26T11:19:57Z</time></trkpt><trkpt lat="38.95891483692577" lon="8.846133242607882"><ele>229.99999999999997</ele><time>2026-03-26T11:19:58Z</time></trkpt><trkpt lat="38.958882933537566" lon="8.846211841008314"><ele>229.99999999999997</ele><time>2026-03-26T11:19:59Z</time></trkpt><trkpt lat="38.95885338556545" lon="8.846291502614065"><ele>229.16666666666669</ele><time>2026-03-26T11:20:00Z</time></trkpt><trkpt lat="38.95882499182426" lon="8.84637228792725"><ele>228.33333333333334</ele><time>2026-03-26T11:20:01Z</time></trkpt><trkpt lat="38.95878781906895" lon="8.846445861216145"><ele>227.5</ele><time>2026-03-26T11:20:02Z</time></trkpt><trkpt lat="38.95874238081193" lon="8.846514773256116"><ele>226.66666666666669</ele><time>2026-03-26T11:20:03Z</time></trkpt><trkpt lat="38.95869716700088" lon="8.846576615380568"><ele>225.83333333333334</ele><time>2026-03-26T11:20:04Z</time></trkpt><trkpt lat="38.95863056744459" lon="8.846690854194112"><ele>225.0</ele><time>2026-03-26T11:20:06Z</time></trkpt><trkpt lat="38.95857743367437" lon="8.846803191818479"><ele>225.0</ele><time>2026-03-26T11:20:08Z</time></trkpt><trkpt lat="38.95849404975813" lon="8.846829398164859"><ele>225.0</ele><time>2026-03-26T11:20:11Z</time></trkpt><trkpt lat="38.95846361399188" lon="8.846747882114435"><ele>225.0</ele><time>2026-03-26T11:20:13Z</time></trkpt><trkpt lat="38.958492423192936" lon="8.846630071184965"><ele>225.0</ele><time>2026-03-26T11:20:15Z</time></trkpt><trkpt lat="38.958559653036026" lon="8.84649538334368"><ele>225.0</ele><time>2026-03-26T11:20:17Z</time></trkpt><trkpt lat="38.95858979419206" lon="8.8464112435161"><ele>225.0</ele><time>2026-03-26T11:20:18Z</time></trkpt><trkpt lat="38.958618952854316" lon="8.846299896460907"><ele>225.0</ele><time>2026-03-26T11:20:19Z</time></trkpt><trkpt lat="38.95863981018066" lon="8.846175370894212"><ele>225.0</ele><time>2026-03-26T11:20:20Z</time></trkpt><trkpt lat="38.95865293650951" lon="8.846046461977167"><ele>225.0</ele><time>2026-03-26T11:20:21Z</time></trkpt><trkpt lat="38.95866851823547" lon="8.845918881316761"><ele>225.0</ele><time>2026-03-26T11:20:22Z</time></trkpt><trkpt lat="38.95868798268837" lon="8.845802959485681"><ele>225.0</ele><time>2026-03-26T11:20:23Z</time></trkpt><trkpt lat="38.95870443738602" lon="8.845690233244309"><ele>226.0</ele><time>2026-03-26T11:20:24Z</time></trkpt><trkpt lat="38.95871260709135" lon="8.845582270739676"><ele>227.0</ele><time>2026-03-26T11:20:25Z</time></trkpt><trkpt lat="38.95872529799637" lon="8.845473605162283"><ele>228.0</ele><time>2026-03-26T11:20:26Z</time></trkpt><trkpt lat="38.95873721911348" lon="8.84538037659405"><ele>229.0</ele><time>2026-03-26T11:20:27Z</time></trkpt><trkpt lat="38.958676048572016" lon="8.845290056972022"><ele>230.0</ele><time>2026-03-26T11:20:29Z</time></trkpt><trkpt lat="38.958558094953275" lon="8.845290908237702"><ele>230.00000000000003</ele><time>2026-03-26T11:20:31Z</time></trkpt><trkpt lat="38.95846909555295" lon="8.845329347519804"><ele>230.0</ele><time>2026-03-26T11:20:32Z</time></trkpt><trkpt lat="38.958389286719175" lon="8.845381333105522"><ele>230.0</ele><time>2026-03-26T11:20:33Z</time></trkpt><trkpt lat="38.95833012884093" lon="8.845430366863656"><ele>230.0</ele><time>2026-03-26T11:20:34Z</time></trkpt><trkpt lat="38.95827439655445" lon="8.845474444071643"><ele>230.00000000000003</ele><time>2026-03-26T11:20:35Z</time></trkpt><trkpt lat="38.958216892036944" lon="8.84551266790712"><ele>230.0</ele><time>2026-03-26T11:20:36Z</time></trkpt><trkpt lat="38.95813648531548" lon="8.845549392809582"><ele>224.0</ele><time>2026-03-26T11:20:37Z</time></trkpt><trkpt lat="38.95804089751438" lon="8.845580723095146"><ele>218.0</ele><time>2026-03-26T11:20:38Z</time></trkpt><trkpt lat="38.95794174574402" lon="8.845614875832887"><ele>212.0</ele><time>2026-03-26T11:20:39Z</time></trkpt><trkpt lat="38.95784106457356" lon="8.84567527413888"><ele>206.0</ele><time>2026-03-26T11:20:40Z</time></trkpt><trkpt lat="38.95775274490883" lon="8.845749983124215"><ele>200.0</ele><time>2026-03-26T11:20:41Z</time></trkpt><trkpt lat="38.957667966571" lon="8.845829298420133"><ele>200.0</ele><time>2026-03-26T11:20:42Z</time></trkpt><trkpt lat="38.95758082527539" lon="8.84590454371632"><ele>200.0</ele><time>2026-03-26T11:20:43Z</time></trkpt><trkpt lat="38.957502347510356" lon="8.845969157151318"><ele>200.0</ele><time>2026-03-26T11:20:44Z</time></trkpt><trkpt lat="38.95742845147435" lon="8.846031857241174"><ele>200.0</ele><time>2026-03-26T11:20:45Z</time></trkpt><trkpt lat="38.95735775858368" lon="8.846084567675723"><ele>200.0</ele><time>2026-03-26T11:20:46Z</time></trkpt><trkpt lat="38.95727130787151" lon="8.846139920648119"><ele>196.4</ele><time>2026-03-26T11:20:47Z</time></trkpt><trkpt lat="38.9571816457973" lon="8.846210417094598"><ele>192.8</ele><time>2026-03-26T11:20:47.999Z</time></trkpt><trkpt lat="38.95709745106402" lon="8.846280436158517"><ele>189.2</ele><time>2026-03-26T11:20:48.999Z</time></trkpt><trkpt lat="38.95701024499885" lon="8.846344338858094"><ele>185.6</ele><time>2026-03-26T11:20:49.999Z</time></trkpt><trkpt lat="38.95692191314754" lon="8.846396785485375"><ele>182.0</ele><time>2026-03-26T11:20:50.999Z</time></trkpt><trkpt lat="38.95683238210007" lon="8.846445314857286"><ele>182.0</ele><time>2026-03-26T11:20:51.999Z</time></trkpt><trkpt lat="38.95675136402845" lon="8.846497200406393"><ele>182.0</ele><time>2026-03-26T11:20:52.999Z</time></trkpt><trkpt lat="38.956685154996826" lon="8.846551557344343"><ele>182.0</ele><time>2026-03-26T11:20:53.999Z</time></trkpt><trkpt lat="38.95663347364561" lon="8.846619832950331"><ele>182.0</ele><time>2026-03-26T11:20:54.999Z</time></trkpt><trkpt lat="38.956590579037645" lon="8.846706807268994"><ele>182.0</ele><time>2026-03-26T11:20:55.999Z</time></trkpt><trkpt lat="38.95654865145743" lon="8.846778103638698"><ele>182.0</ele><time>2026-03-26T11:20:56.999Z</time></trkpt><trkpt lat="38.95648896670358" lon="8.846818339101468"><ele>182.39999999999998</ele><time>2026-03-26T11:20:57.999Z</time></trkpt><trkpt lat="38.95641815410252" lon="8.846831833343652"><ele>182.79999999999998</ele><time>2026-03-26T11:20:58.999Z</time></trkpt><trkpt lat="38.95634352373064" lon="8.846827406743067"><ele>183.2</ele><time>2026-03-26T11:20:59.999Z</time></trkpt><trkpt lat="38.95625796953521" lon="8.846811130679365"><ele>183.6</ele><time>2026-03-26T11:21:00.999Z</time></trkpt><trkpt lat="38.95614380728515" lon="8.846786998685419"><ele>184.0</ele><time>2026-03-26T11:21:01.999Z</time></trkpt><trkpt lat="38.95604270815701" lon="8.846776177831577"><ele>184.0</ele><time>2026-03-26T11:21:02.999Z</time></trkpt><trkpt lat="38.955955347227814" lon="8.846762584193538"><ele>184.0</ele><time>2026-03-26T11:21:03.999Z</time></trkpt><trkpt lat="38.9558811887373" lon="8.846742509873652"><ele>184.0</ele><time>2026-03-26T11:21:04.999Z</time></trkpt><trkpt lat="38.95581337936812" lon="8.846731489349546"><ele>184.0</ele><time>2026-03-26T11:21:05.999Z</time></trkpt><trkpt lat="38.95574553244458" lon="8.846713064095447"><ele>184.0</ele><time>2026-03-26T11:21:06.999Z</time></trkpt><trkpt lat="38.955677952671" lon="8.84668766986783"><ele>184.0</ele><time>2026-03-26T11:21:07.999Z</time></trkpt><trkpt lat="38.95562115771306" lon="8.846646351184967"><ele>184.0</ele><time>2026-03-26T11:21:08.999Z</time></trkpt><trkpt lat="38.95557676291425" lon="8.846584976722713"><ele>182.79999999999998</ele><time>2026-03-26T11:21:09.999Z</time></trkpt><trkpt lat="38.95553535655675" lon="8.846499896436955"><ele>181.6</ele><time>2026-03-26T11:21:10.999Z</time></trkpt><trkpt lat="38.955495117612855" lon="8.846397343681307"><ele>180.4</ele><time>2026-03-26T11:21:12Z</time></trkpt><trkpt lat="38.95544659939924" lon="8.846271837214434"><ele>179.2</ele><time>2026-03-26T11:21:13Z</time></trkpt><trkpt lat="38.95539880440251" lon="8.84615577882436"><ele>178.0</ele><time>2026-03-26T11:21:14Z</time></trkpt><trkpt lat="38.95537160194151" lon="8.84605280401514"><ele>178.0</ele><time>2026-03-26T11:21:15Z</time></trkpt><trkpt lat="38.95535904428338" lon="8.84596846165055"><ele>178.0</ele><time>2026-03-26T11:21:16Z</time></trkpt><trkpt lat="38.955331066589075" lon="8.8458950145184"><ele>178.0</ele><time>2026-03-26T11:21:17Z</time></trkpt><trkpt lat="38.955253142916355" lon="8.845823719748532"><ele>178.0</ele><time>2026-03-26T11:21:19Z</time></trkpt><trkpt lat="38.95513025126599" lon="8.845873329335761"><ele>178.0</ele><time>2026-03-26T11:21:21Z</time></trkpt><trkpt lat="38.95506097363013" lon="8.845928000102928"><ele>178.0</ele><time>2026-03-26T11:21:22Z</time></trkpt><trkpt lat="38.9549960319148" lon="8.845994309766564"><ele>175.16666666666669</ele><time>2026-03-26T11:21:23Z</time></trkpt><trkpt lat="38.954927233193395" lon="8.846059199318711"><ele>172.33333333333334</ele><time>2026-03-26T11:21:24Z</time></trkpt><trkpt lat="38.95483748028724" lon="8.846096190321417"><ele>169.5</ele><time>2026-03-26T11:21:25Z</time></trkpt><trkpt lat="38.95473772287101" lon="8.846117935946737"><ele>166.66666666666666</ele><time>2026-03-26T11:21:26Z</time></trkpt><trkpt lat="38.9546496220908" lon="8.846124101213785"><ele>163.83333333333331</ele><time>2026-03-26T11:21:27Z</time></trkpt><trkpt lat="38.95457101942433" lon="8.846121606818864"><ele>161.0</ele><time>2026-03-26T11:21:28Z</time></trkpt><trkpt lat="38.95448543659038" lon="8.846099341708435"><ele>161.0</ele><time>2026-03-26T11:21:29Z</time></trkpt><trkpt lat="38.95439710994338" lon="8.84605722688971"><ele>161.0</ele><time>2026-03-26T11:21:30Z</time></trkpt><trkpt lat="38.95432938653623" lon="8.846024815078486"><ele>161.0</ele><time>2026-03-26T11:21:31Z</time></trkpt><trkpt lat="38.95420481006985" lon="8.846022783896856"><ele>161.0</ele><time>2026-03-26T11:21:33Z</time></trkpt><trkpt lat="38.954135553853575" lon="8.84605760561394"><ele>161.0</ele><time>2026-03-26T11:21:34Z</time></trkpt><trkpt lat="38.95406817140663" lon="8.846106522533779"><ele>161.0</ele><time>2026-03-26T11:21:35Z</time></trkpt><trkpt lat="38.953991624207376" lon="8.846182186247693"><ele>161.0</ele><time>2026-03-26T11:21:36Z</time></trkpt><trkpt lat="38.95391779973278" lon="8.846271131105953"><ele>161.0</ele><time>2026-03-26T11:21:37Z</time></trkpt><trkpt lat="38.9538678334863" lon="8.846366124319408"><ele>161.0</ele><time>2026-03-26T11:21:38Z</time></trkpt><trkpt lat="38.953816641193946" lon="8.846477591363387"><ele>161.0</ele><time>2026-03-26T11:21:39Z</time></trkpt><trkpt lat="38.953782167629264" lon="8.846582710918923"><ele>161.0</ele><time>2026-03-26T11:21:40Z</time></trkpt><trkpt lat="38.95376723775203" lon="8.846688015552607"><ele>159.4</ele><time>2026-03-26T11:21:41Z</time></trkpt><trkpt lat="38.953774490106305" lon="8.846813752571364"><ele>157.8</ele><time>2026-03-26T11:21:42Z</time></trkpt><trkpt lat="38.953768904908344" lon="8.84694755661554"><ele>156.20000000000002</ele><time>2026-03-26T11:21:43Z</time></trkpt><trkpt lat="38.95372891099318" lon="8.847098250156973"><ele>154.60000000000002</ele><time>2026-03-26T11:21:44Z</time></trkpt><trkpt lat="38.95367957193025" lon="8.847234493298492"><ele>153.0</ele><time>2026-03-26T11:21:45Z</time></trkpt><trkpt lat="38.95361801910733" lon="8.847372316518435"><ele>153.0</ele><time>2026-03-26T11:21:46Z</time></trkpt><trkpt lat="38.95356183777711" lon="8.847489342425385"><ele>153.0</ele><time>2026-03-26T11:21:47Z</time></trkpt><trkpt lat="38.95351968609783" lon="8.847582048173612"><ele>153.0</ele><time>2026-03-26T11:21:48Z</time></trkpt><trkpt lat="38.95347825165908" lon="8.847665545909402"><ele>153.0</ele><time>2026-03-26T11:21:49Z</time></trkpt><trkpt lat="38.95342602743436" lon="8.847741740464583"><ele>153.0</ele><time>2026-03-26T11:21:50Z</time></trkpt><trkpt lat="38.953372469997674" lon="8.847805761915613"><ele>153.0</ele><time>2026-03-26T11:21:51Z</time></trkpt><trkpt lat="38.95332748993948" lon="8.84787362707462"><ele>154.83333333333334</ele><time>2026-03-26T11:21:52Z</time></trkpt><trkpt lat="38.953299739841675" lon="8.847951517004182"><ele>156.66666666666666</ele><time>2026-03-26T11:21:53Z</time></trkpt><trkpt lat="38.953263957381665" lon="8.848069204837275"><ele>158.5</ele><time>2026-03-26T11:21:55Z</time></trkpt><trkpt lat="38.95318763852286" lon="8.84808338368677"><ele>160.33333333333331</ele><time>2026-03-26T11:21:57Z</time></trkpt><trkpt lat="38.953133896685685" lon="8.84798096583741"><ele>162.16666666666666</ele><time>2026-03-26T11:21:59Z</time></trkpt><trkpt lat="38.95314058758877" lon="8.84789719287666"><ele>164.0</ele><time>2026-03-26T11:22:00Z</time></trkpt><trkpt lat="38.95316752506244" lon="8.8478007979763"><ele>164.0</ele><time>2026-03-26T11:22:01Z</time></trkpt><trkpt lat="38.95318752574032" lon="8.847712542446788"><ele>164.0</ele><time>2026-03-26T11:22:02Z</time></trkpt><trkpt lat="38.95316881380044" lon="8.847621234772765"><ele>164.0</ele><time>2026-03-26T11:22:03Z</time></trkpt><trkpt lat="38.95311929198981" lon="8.847534741079151"><ele>164.0</ele><time>2026-03-26T11:22:04Z</time></trkpt><trkpt lat="38.95306305908803" lon="8.847464308874926"><ele>164.0</ele><time>2026-03-26T11:22:05Z</time></trkpt><trkpt lat="38.953019065759" lon="8.847389924634971"><ele>164.0</ele><time>2026-03-26T11:22:06Z</time></trkpt><trkpt lat="38.9529746937605" lon="8.847240319022946"><ele>163.6</ele><time>2026-03-26T11:22:08Z</time></trkpt><trkpt lat="38.9529626692686" lon="8.847136156295019"><ele>163.2</ele><time>2026-03-26T11:22:09Z</time></trkpt><trkpt lat="38.952949915048876" lon="8.847043628692777"><ele>162.79999999999998</ele><time>2026-03-26T11:22:10Z</time></trkpt><trkpt lat="38.95289961773366" lon="8.84689538766429"><ele>162.39999999999998</ele><time>2026-03-26T11:22:12Z</time></trkpt><trkpt lat="38.95280312957603" lon="8.846785124862418"><ele>162.0</ele><time>2026-03-26T11:22:14Z</time></trkpt><trkpt lat="38.95274280999136" lon="8.846748937644648"><ele>161.8</ele><time>2026-03-26T11:22:15Z</time></trkpt><trkpt lat="38.95267418809342" lon="8.846720984762326"><ele>161.6</ele><time>2026-03-26T11:22:16Z</time></trkpt><trkpt lat="38.95260698021462" lon="8.846714659408434"><ele>161.4</ele><time>2026-03-26T11:22:17Z</time></trkpt><trkpt lat="38.952501728275905" lon="8.846781204533237"><ele>161.20000000000002</ele><time>2026-03-26T11:22:19Z</time></trkpt><trkpt lat="38.95241751416181" lon="8.846908250086967"><ele>161.0</ele><time>2026-03-26T11:22:21Z</time></trkpt><trkpt lat="38.95236947503533" lon="8.846996707467635"><ele>158.20000000000002</ele><time>2026-03-26T11:22:22Z</time></trkpt><trkpt lat="38.952324816956356" lon="8.847103859647856"><ele>155.4</ele><time>2026-03-26T11:22:23Z</time></trkpt><trkpt lat="38.952284092061674" lon="8.847209861624949"><ele>152.6</ele><time>2026-03-26T11:22:24Z</time></trkpt><trkpt lat="38.95223543175257" lon="8.84731275449419"><ele>149.8</ele><time>2026-03-26T11:22:25Z</time></trkpt><trkpt lat="38.95217764814389" lon="8.84740807963494"><ele>147.0</ele><time>2026-03-26T11:22:26Z</time></trkpt><trkpt lat="38.95212528852437" lon="8.847500175515616"><ele>147.0</ele><time>2026-03-26T11:22:27Z</time></trkpt><trkpt lat="38.952069248670774" lon="8.847584666487768"><ele>147.0</ele><time>2026-03-26T11:22:28Z</time></trkpt><trkpt lat="38.952011897000155" lon="8.847659084937488"><ele>147.0</ele><time>2026-03-26T11:22:29Z</time></trkpt><trkpt lat="38.95195717715975" lon="8.84772556283605"><ele>147.0</ele><time>2026-03-26T11:22:30Z</time></trkpt><trkpt lat="38.95190688027184" lon="8.847788189876663"><ele>147.0</ele><time>2026-03-26T11:22:31Z</time></trkpt><trkpt lat="38.951858441501784" lon="8.847856571506389"><ele>147.0</ele><time>2026-03-26T11:22:32Z</time></trkpt><trkpt lat="38.95180834924598" lon="8.84792992474408"><ele>146.66666666666666</ele><time>2026-03-26T11:22:33Z</time></trkpt><trkpt lat="38.95175323470716" lon="8.848002933162997"><ele>146.33333333333334</ele><time>2026-03-26T11:22:34Z</time></trkpt><trkpt lat="38.951687358935644" lon="8.8480754911846"><ele>146.0</ele><time>2026-03-26T11:22:35Z</time></trkpt><trkpt lat="38.95162103358286" lon="8.848135849863002"><ele>145.66666666666669</ele><time>2026-03-26T11:22:36Z</time></trkpt><trkpt lat="38.951564133882954" lon="8.848186045049705"><ele>145.33333333333334</ele><time>2026-03-26T11:22:37Z</time></trkpt><trkpt lat="38.95150873538691" lon="8.848227436549085"><ele>145.0</ele><time>2026-03-26T11:22:38Z</time></trkpt><trkpt lat="38.95144906063608" lon="8.848282515247808"><ele>145.0</ele><time>2026-03-26T11:22:39Z</time></trkpt><trkpt lat="38.951390774145615" lon="8.848338871675288"><ele>145.0</ele><time>2026-03-26T11:22:40Z</time></trkpt><trkpt lat="38.951339846728956" lon="8.848389007086029"><ele>145.0</ele><time>2026-03-26T11:22:41Z</time></trkpt><trkpt lat="38.951252332187494" lon="8.848460497694804"><ele>145.0</ele><time>2026-03-26T11:22:43Z</time></trkpt><trkpt lat="38.951185984402684" lon="8.848500755912156"><ele>145.0</ele><time>2026-03-26T11:22:44Z</time></trkpt><trkpt lat="38.95109648688419" lon="8.84854423681173"><ele>145.0</ele><time>2026-03-26T11:22:45Z</time></trkpt><trkpt lat="38.951003170928736" lon="8.848584471444303"><ele>146.2</ele><time>2026-03-26T11:22:46Z</time></trkpt><trkpt lat="38.95091621530036" lon="8.848626918044946"><ele>147.4</ele><time>2026-03-26T11:22:47Z</time></trkpt><trkpt lat="38.950837539961256" lon="8.848686281336068"><ele>148.6</ele><time>2026-03-26T11:22:48Z</time></trkpt><trkpt lat="38.95077556142714" lon="8.848775722081383"><ele>149.8</ele><time>2026-03-26T11:22:49Z</time></trkpt><trkpt lat="38.950737585264896" lon="8.848902098286471"><ele>151.0</ele><time>2026-03-26T11:22:50Z</time></trkpt><trkpt lat="38.95073977415786" lon="8.849072986790603"><ele>148.0</ele><time>2026-03-26T11:22:51Z</time></trkpt><trkpt lat="38.950753719109514" lon="8.849253317504932"><ele>145.0</ele><time>2026-03-26T11:22:52Z</time></trkpt><trkpt lat="38.950760204261435" lon="8.849422102376646"><ele>142.0</ele><time>2026-03-26T11:22:53Z</time></trkpt><trkpt lat="38.95073034185127" lon="8.84957520967706"><ele>139.0</ele><time>2026-03-26T11:22:54Z</time></trkpt><trkpt lat="38.9506755472726" lon="8.849711320783621"><ele>138.25</ele><time>2026-03-26T11:22:55Z</time></trkpt><trkpt lat="38.950604194279876" lon="8.849825226380531"><ele>137.5</ele><time>2026-03-26T11:22:56Z</time></trkpt><trkpt lat="38.95051873242538" lon="8.84992300485192"><ele>136.75</ele><time>2026-03-26T11:22:57Z</time></trkpt><trkpt lat="38.95041926747552" lon="8.85001974276572"><ele>136.0</ele><time>2026-03-26T11:22:58Z</time></trkpt><trkpt lat="38.95029726053583" lon="8.850110303499578"><ele>133.33333333333334</ele><time>2026-03-26T11:22:59Z</time></trkpt><trkpt lat="38.95015364374577" lon="8.850213752831147"><ele>130.66666666666666</ele><time>2026-03-26T11:23:00Z</time></trkpt><trkpt lat="38.94999843300158" lon="8.850324695017221"><ele>128.0</ele><time>2026-03-26T11:23:01Z</time></trkpt><trkpt lat="38.94984178347226" lon="8.850439228501182"><ele>128.0</ele><time>2026-03-26T11:23:01.999Z</time></trkpt><trkpt lat="38.949696664378116" lon="8.8505488861904"><ele>128.0</ele><time>2026-03-26T11:23:02.999Z</time></trkpt><trkpt lat="38.949566562140504" lon="8.850654068740988"><ele>128.0</ele><time>2026-03-26T11:23:03.999Z</time></trkpt><trkpt lat="38.94945091956603" lon="8.850760190019026"><ele>128.0</ele><time>2026-03-26T11:23:04.999Z</time></trkpt><trkpt lat="38.94934609741126" lon="8.850878662923831"><ele>128.0</ele><time>2026-03-26T11:23:05.999Z</time></trkpt><trkpt lat="38.94924932943516" lon="8.85100681018579"><ele>128.0</ele><time>2026-03-26T11:23:06.999Z</time></trkpt><trkpt lat="38.94916875635692" lon="8.851161647654706"><ele>128.0</ele><time>2026-03-26T11:23:07.999Z</time></trkpt><trkpt lat="38.94910414619942" lon="8.851336137901937"><ele>128.4</ele><time>2026-03-26T11:23:08.999Z</time></trkpt><trkpt lat="38.94905113678822" lon="8.851465158582002"><ele>128.8</ele><time>2026-03-26T11:23:09.999Z</time></trkpt><trkpt lat="38.949008924044065" lon="8.851571577404549"><ele>129.2</ele><time>2026-03-26T11:23:10.999Z</time></trkpt><trkpt lat="38.949001977906086" lon="8.851691625275572"><ele>129.6</ele><time>2026-03-26T11:23:11.999Z</time></trkpt><trkpt lat="38.94902864469374" lon="8.851820393157972"><ele>130.0</ele><time>2026-03-26T11:23:12.999Z</time></trkpt><trkpt lat="38.94905639229587" lon="8.851939480065722"><ele>128.0</ele><time>2026-03-26T11:23:13.999Z</time></trkpt><trkpt lat="38.94905488604109" lon="8.852056172014468"><ele>126.0</ele><time>2026-03-26T11:23:14.999Z</time></trkpt><trkpt lat="38.94900940615954" lon="8.852179094987841"><ele>124.0</ele><time>2026-03-26T11:23:15.999Z</time></trkpt><trkpt lat="38.94893688121311" lon="8.852304606994894"><ele>122.0</ele><time>2026-03-26T11:23:16.999Z</time></trkpt><trkpt lat="38.94889210245756" lon="8.852469573524473"><ele>118.0</ele><time>2026-03-26T11:23:18Z</time></trkpt><trkpt lat="38.948858127774734" lon="8.852662284689746"><ele>114.0</ele><time>2026-03-26T11:23:19Z</time></trkpt><trkpt lat="38.94877372483227" lon="8.852860431327592"><ele>110.0</ele><time>2026-03-26T11:23:20Z</time></trkpt><trkpt lat="38.948684782543594" lon="8.85305202920832"><ele>110.0</ele><time>2026-03-26T11:23:21Z</time></trkpt><trkpt lat="38.94860733550985" lon="8.853237521199489"><ele>110.0</ele><time>2026-03-26T11:23:22Z</time></trkpt><trkpt lat="38.94853951693061" lon="8.853398590076818"><ele>110.0</ele><time>2026-03-26T11:23:23Z</time></trkpt><trkpt lat="38.94849183711833" lon="8.85354965236541"><ele>110.0</ele><time>2026-03-26T11:23:24Z</time></trkpt><trkpt lat="38.94847356825873" lon="8.853685744180964"><ele>107.25</ele><time>2026-03-26T11:23:25Z</time></trkpt><trkpt lat="38.948498547239375" lon="8.853833429366123"><ele>104.5</ele><time>2026-03-26T11:23:26Z</time></trkpt><trkpt lat="38.9485329503845" lon="8.853987201080251"><ele>101.75</ele><time>2026-03-26T11:23:27Z</time></trkpt><trkpt lat="38.94854010066336" lon="8.854137798249532"><ele>99.0</ele><time>2026-03-26T11:23:28Z</time></trkpt><trkpt lat="38.94852891373138" lon="8.854283874491248"><ele>101.25</ele><time>2026-03-26T11:23:29Z</time></trkpt><trkpt lat="38.94849316278632" lon="8.854428826695404"><ele>103.5</ele><time>2026-03-26T11:23:30Z</time></trkpt><trkpt lat="38.94844594925573" lon="8.854575339697716"><ele>105.75</ele><time>2026-03-26T11:23:31Z</time></trkpt><trkpt lat="38.9484012187125" lon="8.85472817196882"><ele>108.0</ele><time>2026-03-26T11:23:32Z</time></trkpt><trkpt lat="38.94836317189011" lon="8.854878730440896"><ele>108.0</ele><time>2026-03-26T11:23:33Z</time></trkpt><trkpt lat="38.94831138041163" lon="8.855022762639884"><ele>108.0</ele><time>2026-03-26T11:23:34Z</time></trkpt><trkpt lat="38.94824338438875" lon="8.855170137289727"><ele>108.0</ele><time>2026-03-26T11:23:35Z</time></trkpt><trkpt lat="38.948166046367575" lon="8.855324613974341"><ele>108.0</ele><time>2026-03-26T11:23:36Z</time></trkpt><trkpt lat="38.9480907651844" lon="8.855487626437535"><ele>108.0</ele><time>2026-03-26T11:23:37Z</time></trkpt><trkpt lat="38.94801640180571" lon="8.855650433776775"><ele>108.0</ele><time>2026-03-26T11:23:38Z</time></trkpt><trkpt lat="38.9479408787523" lon="8.855803780181072"><ele>108.0</ele><time>2026-03-26T11:23:39Z</time></trkpt><trkpt lat="38.94786971311721" lon="8.855948427882563"><ele>108.0</ele><time>2026-03-26T11:23:40Z</time></trkpt><trkpt lat="38.94780110237882" lon="8.856079622612743"><ele>108.0</ele><time>2026-03-26T11:23:41Z</time></trkpt><trkpt lat="38.9477385468263" lon="8.856197034826153"><ele>108.00000000000001</ele><time>2026-03-26T11:23:42Z</time></trkpt><trkpt lat="38.94769069642718" lon="8.856320362934234"><ele>108.00000000000001</ele><time>2026-03-26T11:23:43Z</time></trkpt><trkpt lat="38.94766238699302" lon="8.856447793313928"><ele>108.0</ele><time>2026-03-26T11:23:44Z</time></trkpt><trkpt lat="38.94764879082901" lon="8.856582978288083"><ele>108.0</ele><time>2026-03-26T11:23:45Z</time></trkpt><trkpt lat="38.947638724942756" lon="8.856726198290149"><ele>109.5</ele><time>2026-03-26T11:23:46Z</time></trkpt><trkpt lat="38.94761889895493" lon="8.856867138406892"><ele>111.0</ele><time>2026-03-26T11:23:47Z</time></trkpt><trkpt lat="38.94759434141373" lon="8.857015645118722"><ele>112.5</ele><time>2026-03-26T11:23:48Z</time></trkpt><trkpt lat="38.947563838097636" lon="8.857168683202861"><ele>114.0</ele><time>2026-03-26T11:23:49Z</time></trkpt><trkpt lat="38.947529207962226" lon="8.85731940056548"><ele>112.5</ele><time>2026-03-26T11:23:50Z</time></trkpt><trkpt lat="38.947473024828675" lon="8.85745586893901"><ele>111.0</ele><time>2026-03-26T11:23:51Z</time></trkpt><trkpt lat="38.94740277559666" lon="8.8575772338125"><ele>109.5</ele><time>2026-03-26T11:23:52Z</time></trkpt><trkpt lat="38.94732227458048" lon="8.857685710726953"><ele>108.0</ele><time>2026-03-26T11:23:53Z</time></trkpt><trkpt lat="38.94723787476047" lon="8.857786438106249"><ele>108.0</ele><time>2026-03-26T11:23:54Z</time></trkpt><trkpt lat="38.94715299413817" lon="8.857890175683137"><ele>108.0</ele><time>2026-03-26T11:23:55Z</time></trkpt><trkpt lat="38.94706360116552" lon="8.857987932849763"><ele>108.0</ele><time>2026-03-26T11:23:56Z</time></trkpt><trkpt lat="38.94696783194266" lon="8.85807717701406"><ele>108.0</ele><time>2026-03-26T11:23:57Z</time></trkpt><trkpt lat="38.94687180382968" lon="8.858165498974557"><ele>108.0</ele><time>2026-03-26T11:23:58Z</time></trkpt><trkpt lat="38.94677955128005" lon="8.85826042560707"><ele>108.00000000000001</ele><time>2026-03-26T11:23:59Z</time></trkpt><trkpt lat="38.946691574741095" lon="8.858345015428984"><ele>108.00000000000001</ele><time>2026-03-26T11:24:00Z</time></trkpt><trkpt lat="38.946608133915184" lon="8.858423348461745"><ele>108.0</ele><time>2026-03-26T11:24:01Z</time></trkpt><trkpt lat="38.94653128209575" lon="8.858500408685911"><ele>108.0</ele><time>2026-03-26T11:24:02Z</time></trkpt><trkpt lat="38.94645927362795" lon="8.858574500219772"><ele>107.0</ele><time>2026-03-26T11:24:03Z</time></trkpt><trkpt lat="38.946392226795226" lon="8.858620109050271"><ele>106.0</ele><time>2026-03-26T11:24:04Z</time></trkpt><trkpt lat="38.94632722484996" lon="8.858627256465205"><ele>105.0</ele><time>2026-03-26T11:24:05Z</time></trkpt><trkpt lat="38.94622993645025" lon="8.858549041595053"><ele>104.0</ele><time>2026-03-26T11:24:07Z</time></trkpt><trkpt lat="38.946189420363666" lon="8.858467522799177"><ele>103.0</ele><time>2026-03-26T11:24:08Z</time></trkpt><trkpt lat="38.9461522872878" lon="8.858349399176184"><ele>102.0</ele><time>2026-03-26T11:24:09Z</time></trkpt><trkpt lat="38.94610656855452" lon="8.858220289341693"><ele>101.0</ele><time>2026-03-26T11:24:10Z</time></trkpt><trkpt lat="38.946050499168" lon="8.858100024593899"><ele>100.0</ele><time>2026-03-26T11:24:11Z</time></trkpt><trkpt lat="38.94600789206072" lon="8.857970936181747"><ele>99.0</ele><time>2026-03-26T11:24:12Z</time></trkpt><trkpt lat="38.94598123872649" lon="8.857850054223306"><ele>98.0</ele><time>2026-03-26T11:24:13Z</time></trkpt><trkpt lat="38.94596091153185" lon="8.857719867174092"><ele>97.0</ele><time>2026-03-26T11:24:14Z</time></trkpt><trkpt lat="38.94596275814215" lon="8.857582672009196"><ele>97.0</ele><time>2026-03-26T11:24:15Z</time></trkpt><trkpt lat="38.94598363924154" lon="8.85744399313127"><ele>97.0</ele><time>2026-03-26T11:24:16Z</time></trkpt><trkpt lat="38.94601505200842" lon="8.85730122965981"><ele>97.0</ele><time>2026-03-26T11:24:17Z</time></trkpt><trkpt lat="38.94604358071414" lon="8.857153910414057"><ele>97.0</ele><time>2026-03-26T11:24:18Z</time></trkpt><trkpt lat="38.946075945441855" lon="8.857006996283175"><ele>97.0</ele><time>2026-03-26T11:24:19Z</time></trkpt><trkpt lat="38.94611355703146" lon="8.85685895501866"><ele>97.0</ele><time>2026-03-26T11:24:20Z</time></trkpt><trkpt lat="38.946153690385856" lon="8.856700225146716"><ele>97.0</ele><time>2026-03-26T11:24:21Z</time></trkpt><trkpt lat="38.94619703089145" lon="8.85654463019288"><ele>97.0</ele><time>2026-03-26T11:24:22Z</time></trkpt><trkpt lat="38.94623195936381" lon="8.85637891692135"><ele>96.5</ele><time>2026-03-26T11:24:23Z</time></trkpt><trkpt lat="38.946256868893386" lon="8.856213871475088"><ele>96.0</ele><time>2026-03-26T11:24:24Z</time></trkpt><trkpt lat="38.94627259815335" lon="8.856060328344947"><ele>95.5</ele><time>2026-03-26T11:24:25Z</time></trkpt><trkpt lat="38.946284335880655" lon="8.85591840290539"><ele>95.0</ele><time>2026-03-26T11:24:26Z</time></trkpt><trkpt lat="38.94629396469848" lon="8.855787321222035"><ele>95.0</ele><time>2026-03-26T11:24:27Z</time></trkpt><trkpt lat="38.94630735274106" lon="8.855666739540393"><ele>95.0</ele><time>2026-03-26T11:24:28Z</time></trkpt><trkpt lat="38.94632086702412" lon="8.855557010342322"><ele>95.0</ele><time>2026-03-26T11:24:29Z</time></trkpt><trkpt lat="38.946327351258944" lon="8.85545859484198"><ele>95.0</ele><time>2026-03-26T11:24:30Z</time></trkpt><trkpt lat="38.94630520852404" lon="8.85531534525419"><ele>95.0</ele><time>2026-03-26T11:24:32Z</time></trkpt><trkpt lat="38.946181621704206" lon="8.855285152962342"><ele>95.0</ele><time>2026-03-26T11:24:34Z</time></trkpt><trkpt lat="38.94608442545571" lon="8.855353361359711"><ele>95.0</ele><time>2026-03-26T11:24:35Z</time></trkpt><trkpt lat="38.94598006304414" lon="8.855419961036437"><ele>95.0</ele><time>2026-03-26T11:24:36Z</time></trkpt><trkpt lat="38.94585446572837" lon="8.855480268645454"><ele>95.0</ele><time>2026-03-26T11:24:37Z</time></trkpt><trkpt lat="38.945712459251105" lon="8.855520926185683"><ele>93.5</ele><time>2026-03-26T11:24:38Z</time></trkpt><trkpt lat="38.94557887854276" lon="8.855546082074731"><ele>92.0</ele><time>2026-03-26T11:24:39Z</time></trkpt><trkpt lat="38.945454439891265" lon="8.855569038780402"><ele>90.5</ele><time>2026-03-26T11:24:40Z</time></trkpt><trkpt lat="38.9453365264466" lon="8.855593559634878"><ele>89.0</ele><time>2026-03-26T11:24:41Z</time></trkpt><trkpt lat="38.94522433482657" lon="8.85561833270504"><ele>89.0</ele><time>2026-03-26T11:24:42Z</time></trkpt><trkpt lat="38.945114232550985" lon="8.855678400806635"><ele>89.0</ele><time>2026-03-26T11:24:43Z</time></trkpt><trkpt lat="38.94500766705114" lon="8.855773679663344"><ele>89.0</ele><time>2026-03-26T11:24:44Z</time></trkpt><trkpt lat="38.94490516542748" lon="8.855903758014625"><ele>89.0</ele><time>2026-03-26T11:24:45Z</time></trkpt><trkpt lat="38.94482030090138" lon="8.85603812325875"><ele>88.25</ele><time>2026-03-26T11:24:46Z</time></trkpt><trkpt lat="38.94474324645279" lon="8.856162143395768"><ele>87.5</ele><time>2026-03-26T11:24:47Z</time></trkpt><trkpt lat="38.94465807811971" lon="8.856264086583671"><ele>86.75</ele><time>2026-03-26T11:24:48Z</time></trkpt><trkpt lat="38.944566650189635" lon="8.85634276815037"><ele>86.0</ele><time>2026-03-26T11:24:49Z</time></trkpt><trkpt lat="38.944470698399805" lon="8.85638891557548"><ele>86.0</ele><time>2026-03-26T11:24:50Z</time></trkpt><trkpt lat="38.94437333670341" lon="8.856384707437455"><ele>86.0</ele><time>2026-03-26T11:24:51Z</time></trkpt><trkpt lat="38.94427407476469" lon="8.856345651298984"><ele>86.0</ele><time>2026-03-26T11:24:52Z</time></trkpt><trkpt lat="38.94418616825553" lon="8.856316284794639"><ele>86.0</ele><time>2026-03-26T11:24:53Z</time></trkpt><trkpt lat="38.94409864136917" lon="8.856327374477605"><ele>86.0</ele><time>2026-03-26T11:24:54Z</time></trkpt><trkpt lat="38.94400972715111" lon="8.856393177171368"><ele>85.25</ele><time>2026-03-26T11:24:55Z</time></trkpt><trkpt lat="38.943918014732816" lon="8.856502307836768"><ele>84.5</ele><time>2026-03-26T11:24:56Z</time></trkpt><trkpt lat="38.943825918790544" lon="8.856598240759691"><ele>83.75</ele><time>2026-03-26T11:24:57Z</time></trkpt><trkpt lat="38.943735360017456" lon="8.85668275741946"><ele>83.0</ele><time>2026-03-26T11:24:58Z</time></trkpt><trkpt lat="38.94364955894769" lon="8.85676445470622"><ele>83.0</ele><time>2026-03-26T11:24:59Z</time></trkpt><trkpt lat="38.94356125604914" lon="8.85682928138681"><ele>83.0</ele><time>2026-03-26T11:25:00Z</time></trkpt><trkpt lat="38.943469239912204" lon="8.856874375262526"><ele>83.0</ele><time>2026-03-26T11:25:01Z</time></trkpt><trkpt lat="38.94337799724292" lon="8.856908591599392"><ele>83.0</ele><time>2026-03-26T11:25:02Z</time></trkpt><trkpt lat="38.943295096575" lon="8.85693977529986"><ele>83.0</ele><time>2026-03-26T11:25:03Z</time></trkpt><trkpt lat="38.943217956405576" lon="8.85697158183274"><ele>83.0</ele><time>2026-03-26T11:25:04Z</time></trkpt><trkpt lat="38.943116107703084" lon="8.856999228307096"><ele>83.0</ele><time>2026-03-26T11:25:06Z</time></trkpt><trkpt lat="38.943047563103356" lon="8.857045487921038"><ele>83.0</ele><time>2026-03-26T11:25:08Z</time></trkpt><trkpt lat="38.943017438200314" lon="8.857124606055429"><ele>83.0</ele><time>2026-03-26T11:25:09Z</time></trkpt><trkpt lat="38.94300644827775" lon="8.857249570993545"><ele>83.0</ele><time>2026-03-26T11:25:10Z</time></trkpt><trkpt lat="38.942983252584504" lon="8.857377567015659"><ele>83.0</ele><time>2026-03-26T11:25:10.999Z</time></trkpt><trkpt lat="38.94294055759221" lon="8.857520707078233"><ele>83.0</ele><time>2026-03-26T11:25:11.999Z</time></trkpt><trkpt lat="38.94285843681975" lon="8.857633635469051"><ele>83.0</ele><time>2026-03-26T11:25:12.999Z</time></trkpt><trkpt lat="38.94277043243404" lon="8.8577343086076"><ele>83.0</ele><time>2026-03-26T11:25:13.999Z</time></trkpt><trkpt lat="38.942690403769674" lon="8.857837731024228"><ele>83.60000000000001</ele><time>2026-03-26T11:25:14.999Z</time></trkpt><trkpt lat="38.94261359701364" lon="8.857938792208412"><ele>84.2</ele><time>2026-03-26T11:25:15.999Z</time></trkpt><trkpt lat="38.9425395983549" lon="8.858035404345403"><ele>84.8</ele><time>2026-03-26T11:25:16.999Z</time></trkpt><trkpt lat="38.94246688769959" lon="8.858132442268348"><ele>85.4</ele><time>2026-03-26T11:25:17.999Z</time></trkpt><trkpt lat="38.94240071543587" lon="8.858227562659076"><ele>86.0</ele><time>2026-03-26T11:25:18.999Z</time></trkpt><trkpt lat="38.94234845130196" lon="8.85833141273169"><ele>84.2</ele><time>2026-03-26T11:25:19.999Z</time></trkpt><trkpt lat="38.94231737825727" lon="8.858458643518022"><ele>82.39999999999999</ele><time>2026-03-26T11:25:20.999Z</time></trkpt><trkpt lat="38.942303059620265" lon="8.858596901982821"><ele>80.6</ele><time>2026-03-26T11:25:21.999Z</time></trkpt><trkpt lat="38.94230804101094" lon="8.858727042333648"><ele>78.8</ele><time>2026-03-26T11:25:22.999Z</time></trkpt><trkpt lat="38.94233740736592" lon="8.858848517747546"><ele>77.0</ele><time>2026-03-26T11:25:24Z</time></trkpt><trkpt lat="38.94238124205146" lon="8.858964023235732"><ele>77.0</ele><time>2026-03-26T11:25:25Z</time></trkpt><trkpt lat="38.94244490669615" lon="8.859063024666689"><ele>77.0</ele><time>2026-03-26T11:25:26Z</time></trkpt><trkpt lat="38.942529660399316" lon="8.859153001755965"><ele>77.0</ele><time>2026-03-26T11:25:27Z</time></trkpt><trkpt lat="38.94261945185438" lon="8.85924254120238"><ele>77.0</ele><time>2026-03-26T11:25:28Z</time></trkpt><trkpt lat="38.94270508518101" lon="8.859348213352423"><ele>77.0</ele><time>2026-03-26T11:25:29Z</time></trkpt><trkpt lat="38.94279396121591" lon="8.859456420698402"><ele>76.4</ele><time>2026-03-26T11:25:30Z</time></trkpt><trkpt lat="38.94287695490083" lon="8.859543606687504"><ele>75.80000000000001</ele><time>2026-03-26T11:25:31Z</time></trkpt><trkpt lat="38.94295346213473" lon="8.85962826843486"><ele>75.2</ele><time>2026-03-26T11:25:32Z</time></trkpt><trkpt lat="38.94301781675721" lon="8.859714090963054"><ele>74.60000000000001</ele><time>2026-03-26T11:25:33Z</time></trkpt><trkpt lat="38.94307198824046" lon="8.85980189615898"><ele>74.0</ele><time>2026-03-26T11:25:34Z</time></trkpt><trkpt lat="38.94310241133087" lon="8.859901693242769"><ele>74.0</ele><time>2026-03-26T11:25:35Z</time></trkpt><trkpt lat="38.94310760066823" lon="8.86000463337016"><ele>74.0</ele><time>2026-03-26T11:25:36Z</time></trkpt><trkpt lat="38.94310539216528" lon="8.860101430556206"><ele>74.0</ele><time>2026-03-26T11:25:37Z</time></trkpt><trkpt lat="38.94311007774556" lon="8.860190347946743"><ele>74.0</ele><time>2026-03-26T11:25:38Z</time></trkpt><trkpt lat="38.94309796025849" lon="8.860338170113977"><ele>74.0</ele><time>2026-03-26T11:25:40Z</time></trkpt><trkpt lat="38.94308391026701" lon="8.860440605108861"><ele>74.0</ele><time>2026-03-26T11:25:42Z</time></trkpt><trkpt lat="38.94316468270273" lon="8.86045955504016"><ele>73.5</ele><time>2026-03-26T11:27:12Z</time></trkpt><trkpt lat="38.94321311409494" lon="8.860525369324746"><ele>73.0</ele><time>2026-03-26T11:27:42Z</time></trkpt><trkpt lat="38.943160238909684" lon="8.86045063960157"><ele>72.5</ele><time>2026-03-26T11:29:06Z</time></trkpt><trkpt lat="38.943089725980954" lon="8.860458780527734"><ele>72.0</ele><time>2026-03-26T11:30:38Z</time></trkpt><trkpt lat="38.94303988863343" lon="8.860583577195996"><ele>71.5</ele><time>2026-03-26T11:30:54Z</time></trkpt><trkpt lat="38.943017817944316" lon="8.860678568173567"><ele>71.0</ele><time>2026-03-26T11:30:55Z</time></trkpt><trkpt lat="38.94299137335994" lon="8.860804069644859"><ele>70.5</ele><time>2026-03-26T11:30:56Z</time></trkpt><trkpt lat="38.9429767638414" lon="8.860956080902085"><ele>70.0</ele><time>2026-03-26T11:30:57Z</time></trkpt><trkpt lat="38.94296891680366" lon="8.86111244963539"><ele>69.5</ele><time>2026-03-26T11:30:58Z</time></trkpt><trkpt lat="38.94296329230828" lon="8.861274563396256"><ele>69.0</ele><time>2026-03-26T11:30:59Z</time></trkpt><trkpt lat="38.94294538738007" lon="8.861422352833486"><ele>69.0</ele><time>2026-03-26T11:31:00Z</time></trkpt><trkpt lat="38.942917599218525" lon="8.861550179776051"><ele>69.0</ele><time>2026-03-26T11:31:01Z</time></trkpt><trkpt lat="38.94289750955744" lon="8.861668928723583"><ele>69.0</ele><time>2026-03-26T11:31:02Z</time></trkpt><trkpt lat="38.94288977962881" lon="8.861776570137126"><ele>69.0</ele><time>2026-03-26T11:31:03Z</time></trkpt><trkpt lat="38.94288078015584" lon="8.861862748912204"><ele>69.0</ele><time>2026-03-26T11:31:04Z</time></trkpt><trkpt lat="38.94286579040832" lon="8.862009151206328"><ele>69.0</ele><time>2026-03-26T11:31:06Z</time></trkpt><trkpt lat="38.94285534885806" lon="8.862156643426225"><ele>69.0</ele><time>2026-03-26T11:31:08Z</time></trkpt><trkpt lat="38.942827645051096" lon="8.862324412848801"><ele>69.0</ele><time>2026-03-26T11:31:10Z</time></trkpt><trkpt lat="38.94281076380347" lon="8.86243794702812"><ele>69.0</ele><time>2026-03-26T11:31:11Z</time></trkpt><trkpt lat="38.94279318803306" lon="8.86253912917187"><ele>69.0</ele><time>2026-03-26T11:31:12Z</time></trkpt><trkpt lat="38.94278588628555" lon="8.862634695315366"><ele>69.0</ele><time>2026-03-26T11:31:13Z</time></trkpt><trkpt lat="38.94277579097429" lon="8.86274325779868"><ele>69.0</ele><time>2026-03-26T11:31:14Z</time></trkpt><trkpt lat="38.94275366014061" lon="8.862866030003286"><ele>69.0</ele><time>2026-03-26T11:31:15Z</time></trkpt><trkpt lat="38.94272610773563" lon="8.862990003386155"><ele>69.0</ele><time>2026-03-26T11:31:16Z</time></trkpt><trkpt lat="38.94269909862269" lon="8.863096363212916"><ele>69.0</ele><time>2026-03-26T11:31:17Z</time></trkpt><trkpt lat="38.94267556552094" lon="8.863190312406036"><ele>69.0</ele><time>2026-03-26T11:31:18Z</time></trkpt><trkpt lat="38.94265858001653" lon="8.863285534360562"><ele>69.0</ele><time>2026-03-26T11:31:19Z</time></trkpt><trkpt lat="38.94264257423329" lon="8.863371880595464"><ele>69.0</ele><time>2026-03-26T11:31:20Z</time></trkpt><trkpt lat="38.94261769536171" lon="8.863499630694063"><ele>69.0</ele><time>2026-03-26T11:31:22Z</time></trkpt><trkpt lat="38.942594051320036" lon="8.863586770781595"><ele>69.0</ele><time>2026-03-26T11:31:24Z</time></trkpt><trkpt lat="38.942552640767104" lon="8.86365408817346"><ele>69.0</ele><time>2026-03-26T11:31:29Z</time></trkpt><trkpt lat="38.94264223769212" lon="8.863692159272308"><ele>69.0</ele><time>2026-03-26T11:33:28Z</time></trkpt><trkpt lat="38.94256545155108" lon="8.863803831340183"><ele>68.85714285714286</ele><time>2026-03-26T11:35:02Z</time></trkpt><trkpt lat="38.9425890293725" lon="8.863717650150305"><ele>68.71428571428572</ele><time>2026-03-26T11:35:10Z</time></trkpt><trkpt lat="38.942607919945544" lon="8.863632383428923"><ele>68.57142857142857</ele><time>2026-03-26T11:37:08.999Z</time></trkpt><trkpt lat="38.942589868864694" lon="8.863552010936521"><ele>68.42857142857143</ele><time>2026-03-26T11:37:13.999Z</time></trkpt><trkpt lat="38.94260557971572" lon="8.863640935884868"><ele>68.28571428571428</ele><time>2026-03-26T11:46:03.02Z</time></trkpt><trkpt lat="38.94266297941024" lon="8.86368784323741"><ele>68.14285714285714</ele><time>2026-03-26T11:47:50.999Z</time></trkpt><trkpt lat="38.942627817812415" lon="8.863796731650098"><ele>68.0</ele><time>2026-03-26T11:47:52.999Z</time></trkpt><trkpt lat="38.94258687872326" lon="8.863874734913576"><ele>68.0</ele><time>2026-03-26T11:47:53.999Z</time></trkpt><trkpt lat="38.94255841509727" lon="8.863976553398611"><ele>68.0</ele><time>2026-03-26T11:47:54.999Z</time></trkpt><trkpt lat="38.942528949818936" lon="8.864091351910737"><ele>68.0</ele><time>2026-03-26T11:47:55.999Z</time></trkpt><trkpt lat="38.942453288102946" lon="8.864178116139838"><ele>68.0</ele><time>2026-03-26T11:47:56.999Z</time></trkpt><trkpt lat="38.942436929029036" lon="8.864268126756379"><ele>68.0</ele><time>2026-03-26T11:47:57.999Z</time></trkpt><trkpt lat="38.94242159334487" lon="8.864350798880169"><ele>68.0</ele><time>2026-03-26T11:47:58.999Z</time></trkpt><trkpt lat="38.94240543289469" lon="8.864437314402885"><ele>65.8</ele><time>2026-03-26T11:47:59.999Z</time></trkpt><trkpt lat="38.94240030757753" lon="8.864529098819405"><ele>63.599999999999994</ele><time>2026-03-26T11:48:00.999Z</time></trkpt><trkpt lat="38.94234317847695" lon="8.864596338633378"><ele>61.400000000000006</ele><time>2026-03-26T11:48:01.999Z</time></trkpt><trkpt lat="38.942252878395934" lon="8.864649347957233"><ele>59.2</ele><time>2026-03-26T11:48:02.999Z</time></trkpt><trkpt lat="38.942151194083706" lon="8.864700983137265"><ele>57.0</ele><time>2026-03-26T11:48:03.999Z</time></trkpt><trkpt lat="38.94205519316648" lon="8.864753535424452"><ele>57.0</ele><time>2026-03-26T11:48:04.999Z</time></trkpt><trkpt lat="38.94196343818332" lon="8.864807828168777"><ele>57.0</ele><time>2026-03-26T11:48:05.999Z</time></trkpt><trkpt lat="38.941865580470974" lon="8.86485598554635"><ele>57.0</ele><time>2026-03-26T11:48:06.999Z</time></trkpt><trkpt lat="38.941766581653305" lon="8.864895832518949"><ele>57.0</ele><time>2026-03-26T11:48:07.999Z</time></trkpt><trkpt lat="38.941668489120445" lon="8.86494475580427"><ele>57.0</ele><time>2026-03-26T11:48:08.999Z</time></trkpt><trkpt lat="38.941572504437595" lon="8.865003170710319"><ele>56.25</ele><time>2026-03-26T11:48:09.999Z</time></trkpt><trkpt lat="38.941477210754044" lon="8.865062266626328"><ele>55.5</ele><time>2026-03-26T11:48:10.999Z</time></trkpt><trkpt lat="38.941374794635415" lon="8.865125799964762"><ele>54.75</ele><time>2026-03-26T11:48:11.999Z</time></trkpt><trkpt lat="38.94127421919836" lon="8.865188201156817"><ele>54.0</ele><time>2026-03-26T11:48:12.999Z</time></trkpt><trkpt lat="38.94116666648653" lon="8.865263367147191"><ele>53.66666666666667</ele><time>2026-03-26T11:48:13.999Z</time></trkpt><trkpt lat="38.94105129991676" lon="8.865352170494786"><ele>53.333333333333336</ele><time>2026-03-26T11:48:14.999Z</time></trkpt><trkpt lat="38.94091528580873" lon="8.865462626498836"><ele>53.0</ele><time>2026-03-26T11:48:15.999Z</time></trkpt><trkpt lat="38.94077378342216" lon="8.865582521872536"><ele>52.333333333333336</ele><time>2026-03-26T11:48:17Z</time></trkpt><trkpt lat="38.94062569395547" lon="8.865696093218192"><ele>51.66666666666667</ele><time>2026-03-26T11:48:18Z</time></trkpt><trkpt lat="38.94049028150228" lon="8.86579115630411"><ele>51.0</ele><time>2026-03-26T11:48:19Z</time></trkpt><trkpt lat="38.940371181002995" lon="8.865878420796765"><ele>51.75</ele><time>2026-03-26T11:48:20Z</time></trkpt><trkpt lat="38.94026662052971" lon="8.865961407643177"><ele>52.5</ele><time>2026-03-26T11:48:21Z</time></trkpt><trkpt lat="38.94016237434611" lon="8.866078617136775"><ele>53.25</ele><time>2026-03-26T11:48:22Z</time></trkpt><trkpt lat="38.94008678436572" lon="8.866214249695329"><ele>54.0</ele><time>2026-03-26T11:48:23Z</time></trkpt><trkpt lat="38.940051363850344" lon="8.866404319207714"><ele>54.33333333333333</ele><time>2026-03-26T11:48:24Z</time></trkpt><trkpt lat="38.94002654479296" lon="8.866602203764616"><ele>54.666666666666664</ele><time>2026-03-26T11:48:25Z</time></trkpt><trkpt lat="38.94000315878702" lon="8.866820498430336"><ele>55.0</ele><time>2026-03-26T11:48:26Z</time></trkpt><trkpt lat="38.93997610828355" lon="8.867031285322238"><ele>55.33333333333333</ele><time>2026-03-26T11:48:27Z</time></trkpt><trkpt lat="38.939964602541345" lon="8.86723905120856"><ele>55.66666666666667</ele><time>2026-03-26T11:48:28Z</time></trkpt><trkpt lat="38.93992201223302" lon="8.867434819853703"><ele>56.0</ele><time>2026-03-26T11:48:29Z</time></trkpt><trkpt lat="38.939859385482286" lon="8.867627911642577"><ele>55.0</ele><time>2026-03-26T11:48:30Z</time></trkpt><trkpt lat="38.93978155368572" lon="8.86781544278607"><ele>54.0</ele><time>2026-03-26T11:48:31Z</time></trkpt><trkpt lat="38.93969192742867" lon="8.867995432685902"><ele>53.0</ele><time>2026-03-26T11:48:32Z</time></trkpt><trkpt lat="38.93959002429148" lon="8.868173708383315"><ele>53.0</ele><time>2026-03-26T11:48:33Z</time></trkpt><trkpt lat="38.939481807204665" lon="8.868344184898204"><ele>53.0</ele><time>2026-03-26T11:48:34Z</time></trkpt><trkpt lat="38.93937371002537" lon="8.868513808957928"><ele>53.0</ele><time>2026-03-26T11:48:35Z</time></trkpt><trkpt lat="38.939264692217876" lon="8.868680253791913"><ele>52.333333333333336</ele><time>2026-03-26T11:48:36Z</time></trkpt><trkpt lat="38.939153806083525" lon="8.868847638256012"><ele>51.66666666666667</ele><time>2026-03-26T11:48:37Z</time></trkpt><trkpt lat="38.93904393192513" lon="8.869013260536914"><ele>51.0</ele><time>2026-03-26T11:48:38Z</time></trkpt><trkpt lat="38.93893806693789" lon="8.869173672096561"><ele>50.66666666666667</ele><time>2026-03-26T11:48:39Z</time></trkpt><trkpt lat="38.938837169704314" lon="8.869330912896112"><ele>50.333333333333336</ele><time>2026-03-26T11:48:40Z</time></trkpt><trkpt lat="38.93873896829402" lon="8.869483790402281"><ele>50.0</ele><time>2026-03-26T11:48:41Z</time></trkpt><trkpt lat="38.93863540788447" lon="8.869631134944433"><ele>50.0</ele><time>2026-03-26T11:48:42Z</time></trkpt><trkpt lat="38.93852117141978" lon="8.869769933842809"><ele>50.0</ele><time>2026-03-26T11:48:43Z</time></trkpt><trkpt lat="38.93839702395777" lon="8.869900454497563"><ele>50.0</ele><time>2026-03-26T11:48:44Z</time></trkpt><trkpt lat="38.93826432400546" lon="8.870018737821173"><ele>51.0</ele><time>2026-03-26T11:48:45Z</time></trkpt><trkpt lat="38.93812106818152" lon="8.870117841663214"><ele>52.0</ele><time>2026-03-26T11:48:46Z</time></trkpt><trkpt lat="38.93796890806382" lon="8.87019378078193"><ele>53.0</ele><time>2026-03-26T11:48:47Z</time></trkpt><trkpt lat="38.93780715253289" lon="8.870247102654453"><ele>53.0</ele><time>2026-03-26T11:48:48Z</time></trkpt><trkpt lat="38.93764076947448" lon="8.870281011404046"><ele>53.0</ele><time>2026-03-26T11:48:49Z</time></trkpt><trkpt lat="38.937473931450214" lon="8.870303540054675"><ele>53.0</ele><time>2026-03-26T11:48:50Z</time></trkpt><trkpt lat="38.937309176858776" lon="8.870327413058842"><ele>52.333333333333336</ele><time>2026-03-26T11:48:51Z</time></trkpt><trkpt lat="38.93714849660614" lon="8.870357037770459"><ele>51.66666666666667</ele><time>2026-03-26T11:48:52Z</time></trkpt><trkpt lat="38.936988201301425" lon="8.870385637640588"><ele>51.0</ele><time>2026-03-26T11:48:53Z</time></trkpt><trkpt lat="38.936830024372966" lon="8.870425920588186"><ele>51.0</ele><time>2026-03-26T11:48:54Z</time></trkpt><trkpt lat="38.936669758005955" lon="8.870484223417513"><ele>51.0</ele><time>2026-03-26T11:48:55Z</time></trkpt><trkpt lat="38.93650872570719" lon="8.870548869779975"><ele>51.0</ele><time>2026-03-26T11:48:56Z</time></trkpt><trkpt lat="38.93634521623887" lon="8.870634947100505"><ele>51.0</ele><time>2026-03-26T11:48:57Z</time></trkpt><trkpt lat="38.93618277536517" lon="8.870744892473859"><ele>51.0</ele><time>2026-03-26T11:48:58Z</time></trkpt><trkpt lat="38.93601889817116" lon="8.870868971911163"><ele>51.0</ele><time>2026-03-26T11:48:59Z</time></trkpt><trkpt lat="38.935861646427746" lon="8.870995997744014"><ele>51.0</ele><time>2026-03-26T11:49:00Z</time></trkpt><trkpt lat="38.93570812351643" lon="8.87112444874909"><ele>51.0</ele><time>2026-03-26T11:49:01Z</time></trkpt><trkpt lat="38.93556603751699" lon="8.871264838219266"><ele>51.0</ele><time>2026-03-26T11:49:02Z</time></trkpt><trkpt lat="38.93543400944969" lon="8.871414197480032"><ele>51.0</ele><time>2026-03-26T11:49:03Z</time></trkpt><trkpt lat="38.93531666959145" lon="8.871556067265804"><ele>51.0</ele><time>2026-03-26T11:49:04Z</time></trkpt><trkpt lat="38.9352128574778" lon="8.87168988920957"><ele>51.0</ele><time>2026-03-26T11:49:04.999Z</time></trkpt><trkpt lat="38.93512263756464" lon="8.871815282940972"><ele>51.0</ele><time>2026-03-26T11:49:05.999Z</time></trkpt><trkpt lat="38.93503737630051" lon="8.871933555397899"><ele>49.75</ele><time>2026-03-26T11:49:06.999Z</time></trkpt><trkpt lat="38.93494571578821" lon="8.872033605002542"><ele>48.5</ele><time>2026-03-26T11:49:07.999Z</time></trkpt><trkpt lat="38.934847291083805" lon="8.872096289513841"><ele>47.25</ele><time>2026-03-26T11:49:08.999Z</time></trkpt><trkpt lat="38.934742240980874" lon="8.872113910402092"><ele>46.0</ele><time>2026-03-26T11:49:09.999Z</time></trkpt><trkpt lat="38.934630346389724" lon="8.872076498092527"><ele>46.0</ele><time>2026-03-26T11:49:10.999Z</time></trkpt><trkpt lat="38.93453353157813" lon="8.871991442858468"><ele>46.0</ele><time>2026-03-26T11:49:11.999Z</time></trkpt><trkpt lat="38.93445347005214" lon="8.871865246244015"><ele>46.0</ele><time>2026-03-26T11:49:12.999Z</time></trkpt><trkpt lat="38.93439433272771" lon="8.871703710003645"><ele>46.0</ele><time>2026-03-26T11:49:13.999Z</time></trkpt><trkpt lat="38.9343483363821" lon="8.871510162509091"><ele>47.333333333333336</ele><time>2026-03-26T11:49:14.999Z</time></trkpt><trkpt lat="38.93429407265859" lon="8.871314272482962"><ele>48.66666666666667</ele><time>2026-03-26T11:49:15.999Z</time></trkpt><trkpt lat="38.934224520681965" lon="8.871138101530628"><ele>50.0</ele><time>2026-03-26T11:49:16.999Z</time></trkpt><trkpt lat="38.93414850995373" lon="8.870985884673624"><ele>52.75</ele><time>2026-03-26T11:49:17.999Z</time></trkpt><trkpt lat="38.934059701258434" lon="8.87086822428207"><ele>55.5</ele><time>2026-03-26T11:49:18.999Z</time></trkpt><trkpt lat="38.93395528850076" lon="8.870786606396464"><ele>58.25</ele><time>2026-03-26T11:49:19.999Z</time></trkpt><trkpt lat="38.933836669302586" lon="8.87074145945831"><ele>61.0</ele><time>2026-03-26T11:49:20.999Z</time></trkpt><trkpt lat="38.93371606868138" lon="8.870744852039437"><ele>61.0</ele><time>2026-03-26T11:49:21.999Z</time></trkpt><trkpt lat="38.93359802993334" lon="8.870775123734377"><ele>61.0</ele><time>2026-03-26T11:49:22.999Z</time></trkpt><trkpt lat="38.93348592010195" lon="8.870852180472754"><ele>61.0</ele><time>2026-03-26T11:49:23.999Z</time></trkpt><trkpt lat="38.9333778924094" lon="8.870955050254622"><ele>61.0</ele><time>2026-03-26T11:49:24.999Z</time></trkpt><trkpt lat="38.933271614553654" lon="8.871049757859408"><ele>58.5</ele><time>2026-03-26T11:49:25.999Z</time></trkpt><trkpt lat="38.93314965373512" lon="8.871107290380595"><ele>56.0</ele><time>2026-03-26T11:49:26.999Z</time></trkpt><trkpt lat="38.933009919616154" lon="8.871117563471351"><ele>53.5</ele><time>2026-03-26T11:49:27.999Z</time></trkpt><trkpt lat="38.932869115308144" lon="8.871101444937581"><ele>51.0</ele><time>2026-03-26T11:49:28.999Z</time></trkpt><trkpt lat="38.93273189017478" lon="8.871077523352945"><ele>51.0</ele><time>2026-03-26T11:49:29.999Z</time></trkpt><trkpt lat="38.9325948037865" lon="8.871092522342064"><ele>51.0</ele><time>2026-03-26T11:49:30.999Z</time></trkpt><trkpt lat="38.93246341600488" lon="8.871165895594316"><ele>51.0</ele><time>2026-03-26T11:49:31.999Z</time></trkpt><trkpt lat="38.93233807783342" lon="8.871287789019027"><ele>51.0</ele><time>2026-03-26T11:49:32.999Z</time></trkpt><trkpt lat="38.93222103613529" lon="8.871434484093855"><ele>49.0</ele><time>2026-03-26T11:49:33.999Z</time></trkpt><trkpt lat="38.93210963390087" lon="8.871579579520606"><ele>47.0</ele><time>2026-03-26T11:49:34.999Z</time></trkpt><trkpt lat="38.932010501771174" lon="8.871729735951662"><ele>45.0</ele><time>2026-03-26T11:49:35.999Z</time></trkpt><trkpt lat="38.93192909216524" lon="8.87189292758039"><ele>46.5</ele><time>2026-03-26T11:49:36.999Z</time></trkpt><trkpt lat="38.93184396740838" lon="8.872046156250837"><ele>48.0</ele><time>2026-03-26T11:49:37.999Z</time></trkpt><trkpt lat="38.93174444397218" lon="8.872153942522678"><ele>49.5</ele><time>2026-03-26T11:49:38.999Z</time></trkpt><trkpt lat="38.93162570298849" lon="8.872234802838685"><ele>51.0</ele><time>2026-03-26T11:49:39.999Z</time></trkpt><trkpt lat="38.93149780038069" lon="8.872272959927182"><ele>51.0</ele><time>2026-03-26T11:49:40.999Z</time></trkpt><trkpt lat="38.93136551007999" lon="8.872295087345975"><ele>51.0</ele><time>2026-03-26T11:49:41.999Z</time></trkpt><trkpt lat="38.931233509908814" lon="8.872322948161921"><ele>51.0</ele><time>2026-03-26T11:49:42.999Z</time></trkpt><trkpt lat="38.93109894265008" lon="8.872348092853342"><ele>51.0</ele><time>2026-03-26T11:49:43.999Z</time></trkpt><trkpt lat="38.930960212604646" lon="8.872352998217286"><ele>50.0</ele><time>2026-03-26T11:49:44.999Z</time></trkpt><trkpt lat="38.930819596839804" lon="8.872323260099408"><ele>49.0</ele><time>2026-03-26T11:49:45.999Z</time></trkpt><trkpt lat="38.93068132122159" lon="8.872254203562537"><ele>48.0</ele><time>2026-03-26T11:49:46.999Z</time></trkpt><trkpt lat="38.930544906341964" lon="8.87218296703737"><ele>47.0</ele><time>2026-03-26T11:49:47.999Z</time></trkpt><trkpt lat="38.93041049795669" lon="8.872126912090062"><ele>47.0</ele><time>2026-03-26T11:49:48.999Z</time></trkpt><trkpt lat="38.930280041326306" lon="8.872101956272603"><ele>47.0</ele><time>2026-03-26T11:49:49.999Z</time></trkpt><trkpt lat="38.93014775728502" lon="8.872123462904234"><ele>47.0</ele><time>2026-03-26T11:49:50.999Z</time></trkpt><trkpt lat="38.93001986163651" lon="8.872183907235401"><ele>47.0</ele><time>2026-03-26T11:49:51.999Z</time></trkpt><trkpt lat="38.92989900159429" lon="8.872281359320226"><ele>46.0</ele><time>2026-03-26T11:49:52.999Z</time></trkpt><trkpt lat="38.92978488462482" lon="8.872413338084776"><ele>45.0</ele><time>2026-03-26T11:49:53.999Z</time></trkpt><trkpt lat="38.92967370829728" lon="8.872569240787977"><ele>44.0</ele><time>2026-03-26T11:49:54.999Z</time></trkpt><trkpt lat="38.92956160919163" lon="8.872735683548408"><ele>51.666666666666664</ele><time>2026-03-26T11:49:55.999Z</time></trkpt><trkpt lat="38.92944421946854" lon="8.872913102531635"><ele>59.33333333333333</ele><time>2026-03-26T11:49:56.999Z</time></trkpt><trkpt lat="38.929330022904566" lon="8.873100262857747"><ele>67.0</ele><time>2026-03-26T11:49:57.999Z</time></trkpt><trkpt lat="38.92922827987581" lon="8.87329545555643"><ele>61.666666666666664</ele><time>2026-03-26T11:49:58.999Z</time></trkpt><trkpt lat="38.929132968007856" lon="8.873489287429887"><ele>56.33333333333333</ele><time>2026-03-26T11:49:59.999Z</time></trkpt><trkpt lat="38.92904649989072" lon="8.873681842078406"><ele>51.0</ele><time>2026-03-26T11:50:00.999Z</time></trkpt><trkpt lat="38.92896525265342" lon="8.873863847803866"><ele>51.0</ele><time>2026-03-26T11:50:01.999Z</time></trkpt><trkpt lat="38.928892568742015" lon="8.874034433500004"><ele>51.0</ele><time>2026-03-26T11:50:02.999Z</time></trkpt><trkpt lat="38.928837218664526" lon="8.874198541613486"><ele>51.0</ele><time>2026-03-26T11:50:03.999Z</time></trkpt><trkpt lat="38.92881512290085" lon="8.874387568486778"><ele>51.0</ele><time>2026-03-26T11:50:04.999Z</time></trkpt><trkpt lat="38.92882565574498" lon="8.874597175219224"><ele>50.33333333333333</ele><time>2026-03-26T11:50:05.999Z</time></trkpt><trkpt lat="38.92883457057317" lon="8.874813443433307"><ele>49.666666666666664</ele><time>2026-03-26T11:50:06.999Z</time></trkpt><trkpt lat="38.9288661222591" lon="8.875027264908635"><ele>49.0</ele><time>2026-03-26T11:50:07.999Z</time></trkpt><trkpt lat="38.92888010898075" lon="8.875244063929587"><ele>47.33333333333333</ele><time>2026-03-26T11:50:08.999Z</time></trkpt><trkpt lat="38.92889311553119" lon="8.875456793392061"><ele>45.666666666666664</ele><time>2026-03-26T11:50:09.999Z</time></trkpt><trkpt lat="38.928903122213924" lon="8.875664959959629"><ele>44.0</ele><time>2026-03-26T11:50:10.999Z</time></trkpt><trkpt lat="38.92890413201609" lon="8.875874364492647"><ele>43.0</ele><time>2026-03-26T11:50:11.999Z</time></trkpt><trkpt lat="38.92889231331556" lon="8.876094916524385"><ele>42.0</ele><time>2026-03-26T11:50:12.999Z</time></trkpt><trkpt lat="38.928868884449464" lon="8.876321039854691"><ele>41.0</ele><time>2026-03-26T11:50:13.999Z</time></trkpt><trkpt lat="38.92883578731109" lon="8.876552684269656"><ele>40.0</ele><time>2026-03-26T11:50:14.999Z</time></trkpt><trkpt lat="38.92879586418271" lon="8.876786625186755"><ele>39.0</ele><time>2026-03-26T11:50:15.999Z</time></trkpt><trkpt lat="38.9287542235063" lon="8.877030368683252"><ele>38.0</ele><time>2026-03-26T11:50:16.999Z</time></trkpt><trkpt lat="38.92871220959733" lon="8.877278112526053"><ele>38.0</ele><time>2026-03-26T11:50:17.999Z</time></trkpt><trkpt lat="38.92866804356684" lon="8.87752818401832"><ele>38.0</ele><time>2026-03-26T11:50:18.999Z</time></trkpt><trkpt lat="38.92862490484569" lon="8.877777405567551"><ele>38.0</ele><time>2026-03-26T11:50:19.999Z</time></trkpt><trkpt lat="38.928581544620066" lon="8.878023806491957"><ele>40.0</ele><time>2026-03-26T11:50:20.999Z</time></trkpt><trkpt lat="38.92853846319146" lon="8.878266874700753"><ele>42.0</ele><time>2026-03-26T11:50:21.999Z</time></trkpt><trkpt lat="38.92849583476909" lon="8.878508856662053"><ele>44.0</ele><time>2026-03-26T11:50:23Z</time></trkpt><trkpt lat="38.928454366404615" lon="8.878753358945545"><ele>44.0</ele><time>2026-03-26T11:50:24Z</time></trkpt><trkpt lat="38.9284114078341" lon="8.878995451841552"><ele>44.0</ele><time>2026-03-26T11:50:25Z</time></trkpt><trkpt lat="38.928367304265265" lon="8.87923687737102"><ele>44.0</ele><time>2026-03-26T11:50:26Z</time></trkpt><trkpt lat="38.928320768756386" lon="8.879477664299364"><ele>44.0</ele><time>2026-03-26T11:50:27Z</time></trkpt><trkpt lat="38.928258309078196" lon="8.87970720482124"><ele>44.0</ele><time>2026-03-26T11:50:28Z</time></trkpt><trkpt lat="38.928172484722694" lon="8.87992407879475"><ele>44.0</ele><time>2026-03-26T11:50:29Z</time></trkpt><trkpt lat="38.92807207240354" lon="8.880130677063223"><ele>47.666666666666664</ele><time>2026-03-26T11:50:30Z</time></trkpt><trkpt lat="38.92797234318221" lon="8.880344833026566"><ele>51.33333333333333</ele><time>2026-03-26T11:50:31Z</time></trkpt><trkpt lat="38.92787268563947" lon="8.8805607477926"><ele>55.0</ele><time>2026-03-26T11:50:32Z</time></trkpt><trkpt lat="38.927773307223994" lon="8.880771647180865"><ele>57.33333333333333</ele><time>2026-03-26T11:50:33Z</time></trkpt><trkpt lat="38.92767389028947" lon="8.880982897739852"><ele>59.66666666666667</ele><time>2026-03-26T11:50:34Z</time></trkpt><trkpt lat="38.92757520926294" lon="8.881189617484072"><ele>62.0</ele><time>2026-03-26T11:50:35Z</time></trkpt><trkpt lat="38.92747653182549" lon="8.881388993736575"><ele>56.66666666666667</ele><time>2026-03-26T11:50:36Z</time></trkpt><trkpt lat="38.927365775881334" lon="8.881573984837624"><ele>51.333333333333336</ele><time>2026-03-26T11:50:37Z</time></trkpt><trkpt lat="38.92723688779491" lon="8.881742438375959"><ele>46.0</ele><time>2026-03-26T11:50:38Z</time></trkpt><trkpt lat="38.9271051067613" lon="8.881906680541576"><ele>46.0</ele><time>2026-03-26T11:50:39Z</time></trkpt><trkpt lat="38.926978389166806" lon="8.882066481092608"><ele>46.0</ele><time>2026-03-26T11:50:40Z</time></trkpt><trkpt lat="38.926858773950144" lon="8.882217500082039"><ele>46.0</ele><time>2026-03-26T11:50:41Z</time></trkpt><trkpt lat="38.926746699606404" lon="8.8823580720836"><ele>47.25</ele><time>2026-03-26T11:50:42Z</time></trkpt><trkpt lat="38.92663476965911" lon="8.882477747920015"><ele>48.5</ele><time>2026-03-26T11:50:43Z</time></trkpt><trkpt lat="38.92651402640077" lon="8.882568701006901"><ele>49.75</ele><time>2026-03-26T11:50:44Z</time></trkpt><trkpt lat="38.92637893149523" lon="8.882646127704733"><ele>51.0</ele><time>2026-03-26T11:50:45Z</time></trkpt><trkpt lat="38.92623383123107" lon="8.88271694358562"><ele>51.0</ele><time>2026-03-26T11:50:46Z</time></trkpt><trkpt lat="38.926082977140304" lon="8.882790472803196"><ele>51.0</ele><time>2026-03-26T11:50:47Z</time></trkpt><trkpt lat="38.925935346766366" lon="8.882875362196987"><ele>51.0</ele><time>2026-03-26T11:50:48Z</time></trkpt><trkpt lat="38.925798231649" lon="8.882971207129332"><ele>48.0</ele><time>2026-03-26T11:50:49Z</time></trkpt><trkpt lat="38.92566282569303" lon="8.883056795205333"><ele>45.0</ele><time>2026-03-26T11:50:50Z</time></trkpt><trkpt lat="38.92552022937861" lon="8.883113028163356"><ele>42.0</ele><time>2026-03-26T11:50:51Z</time></trkpt><trkpt lat="38.92536689586861" lon="8.883126432283367"><ele>42.0</ele><time>2026-03-26T11:50:52Z</time></trkpt><trkpt lat="38.9252178269725" lon="8.883111303237106"><ele>42.0</ele><time>2026-03-26T11:50:53Z</time></trkpt><trkpt lat="38.92505803357032" lon="8.883088315599268"><ele>42.0</ele><time>2026-03-26T11:50:54Z</time></trkpt><trkpt lat="38.92489252631404" lon="8.883070141587798"><ele>41.0</ele><time>2026-03-26T11:50:55Z</time></trkpt><trkpt lat="38.92472979082928" lon="8.88305648410002"><ele>40.0</ele><time>2026-03-26T11:50:56Z</time></trkpt><trkpt lat="38.92457066994477" lon="8.883046398862922"><ele>39.0</ele><time>2026-03-26T11:50:57Z</time></trkpt><trkpt lat="38.924414132112936" lon="8.883039876124476"><ele>39.0</ele><time>2026-03-26T11:50:58Z</time></trkpt><trkpt lat="38.924259616002765" lon="8.8830515399647"><ele>39.0</ele><time>2026-03-26T11:50:59Z</time></trkpt><trkpt lat="38.924107022773796" lon="8.883084983864233"><ele>39.0</ele><time>2026-03-26T11:51:00Z</time></trkpt><trkpt lat="38.92395736586826" lon="8.883135023157376"><ele>38.0</ele><time>2026-03-26T11:51:01Z</time></trkpt><trkpt lat="38.92381031454918" lon="8.883196936384534"><ele>37.0</ele><time>2026-03-26T11:51:02Z</time></trkpt><trkpt lat="38.92367251983102" lon="8.883278556115352"><ele>36.0</ele><time>2026-03-26T11:51:03Z</time></trkpt><trkpt lat="38.923546169822885" lon="8.883372401715901"><ele>33.666666666666664</ele><time>2026-03-26T11:51:04Z</time></trkpt><trkpt lat="38.923436102426265" lon="8.883484253629783"><ele>31.333333333333332</ele><time>2026-03-26T11:51:05Z</time></trkpt><trkpt lat="38.92334376558466" lon="8.883635559360092"><ele>29.0</ele><time>2026-03-26T11:51:06Z</time></trkpt><trkpt lat="38.92326088912862" lon="8.883821801269027"><ele>29.0</ele><time>2026-03-26T11:51:07Z</time></trkpt><trkpt lat="38.923194488910674" lon="8.884011593200494"><ele>29.0</ele><time>2026-03-26T11:51:08Z</time></trkpt><trkpt lat="38.92312203043957" lon="8.884200933189536"><ele>29.0</ele><time>2026-03-26T11:51:09Z</time></trkpt><trkpt lat="38.92304757281425" lon="8.884388923035056"><ele>29.666666666666664</ele><time>2026-03-26T11:51:10Z</time></trkpt><trkpt lat="38.92297434134803" lon="8.884582630440818"><ele>30.333333333333336</ele><time>2026-03-26T11:51:11Z</time></trkpt><trkpt lat="38.92290026523215" lon="8.88477600226823"><ele>31.0</ele><time>2026-03-26T11:51:12Z</time></trkpt><trkpt lat="38.92282412177905" lon="8.884972757180252"><ele>36.0</ele><time>2026-03-26T11:51:13Z</time></trkpt><trkpt lat="38.92274812158281" lon="8.885172706310039"><ele>41.0</ele><time>2026-03-26T11:51:14Z</time></trkpt><trkpt lat="38.922670177169685" lon="8.88537267612208"><ele>46.0</ele><time>2026-03-26T11:51:15Z</time></trkpt><trkpt lat="38.92259091434692" lon="8.885571371752288"><ele>44.66666666666667</ele><time>2026-03-26T11:51:16Z</time></trkpt><trkpt lat="38.92251600457642" lon="8.885766030692952"><ele>43.333333333333336</ele><time>2026-03-26T11:51:17Z</time></trkpt><trkpt lat="38.92244502260339" lon="8.885954532143101"><ele>42.0</ele><time>2026-03-26T11:51:18Z</time></trkpt><trkpt lat="38.92237761989983" lon="8.886139378098944"><ele>42.0</ele><time>2026-03-26T11:51:19Z</time></trkpt><trkpt lat="38.922317225364104" lon="8.886314947406651"><ele>42.0</ele><time>2026-03-26T11:51:19.999Z</time></trkpt><trkpt lat="38.92224668455754" lon="8.886473534423397"><ele>42.0</ele><time>2026-03-26T11:51:20.999Z</time></trkpt><trkpt lat="38.92215545584089" lon="8.886600106169908"><ele>42.0</ele><time>2026-03-26T11:51:21.999Z</time></trkpt><trkpt lat="38.92204764345964" lon="8.88671125278184"><ele>46.75</ele><time>2026-03-26T11:51:22.999Z</time></trkpt><trkpt lat="38.92194373086814" lon="8.886828419344711"><ele>51.5</ele><time>2026-03-26T11:51:23.999Z</time></trkpt><trkpt lat="38.921855423526374" lon="8.886951176004336"><ele>56.25</ele><time>2026-03-26T11:51:24.999Z</time></trkpt><trkpt lat="38.92180004887006" lon="8.887100201554572"><ele>61.0</ele><time>2026-03-26T11:51:25.999Z</time></trkpt><trkpt lat="38.92178019150493" lon="8.887280036659936"><ele>61.0</ele><time>2026-03-26T11:51:26.999Z</time></trkpt><trkpt lat="38.92176571226918" lon="8.887468837400938"><ele>61.0</ele><time>2026-03-26T11:51:27.999Z</time></trkpt><trkpt lat="38.92177555764446" lon="8.887657105913704"><ele>61.0</ele><time>2026-03-26T11:51:28.999Z</time></trkpt><trkpt lat="38.92178542797089" lon="8.887835605001834"><ele>61.0</ele><time>2026-03-26T11:51:29.999Z</time></trkpt><trkpt lat="38.921791084379535" lon="8.888000950142818"><ele>61.5</ele><time>2026-03-26T11:51:30.999Z</time></trkpt><trkpt lat="38.92180097303071" lon="8.888158916926994"><ele>62.0</ele><time>2026-03-26T11:51:31.999Z</time></trkpt><trkpt lat="38.921770568488114" lon="8.888315317760863"><ele>62.5</ele><time>2026-03-26T11:51:32.999Z</time></trkpt><trkpt lat="38.92177442746568" lon="8.888487629376971"><ele>63.0</ele><time>2026-03-26T11:51:33.999Z</time></trkpt><trkpt lat="38.92180221755479" lon="8.888666433184635"><ele>62.0</ele><time>2026-03-26T11:51:34.999Z</time></trkpt><trkpt lat="38.92182876299812" lon="8.888835552472097"><ele>61.0</ele><time>2026-03-26T11:51:35.999Z</time></trkpt><trkpt lat="38.92185225952031" lon="8.889004010237766"><ele>60.0</ele><time>2026-03-26T11:51:36.999Z</time></trkpt><trkpt lat="38.92188562027935" lon="8.889164390928606"><ele>59.0</ele><time>2026-03-26T11:51:37.999Z</time></trkpt><trkpt lat="38.92188723894695" lon="8.889323537030714"><ele>61.5</ele><time>2026-03-26T11:51:38.999Z</time></trkpt><trkpt lat="38.92186401485764" lon="8.88948724920785"><ele>64.0</ele><time>2026-03-26T11:51:39.999Z</time></trkpt><trkpt lat="38.92180776252986" lon="8.88965014968603"><ele>66.5</ele><time>2026-03-26T11:51:40.999Z</time></trkpt><trkpt lat="38.921724931028635" lon="8.889800988245302"><ele>69.0</ele><time>2026-03-26T11:51:41.999Z</time></trkpt><trkpt lat="38.92163183081839" lon="8.889920100537681"><ele>63.5</ele><time>2026-03-26T11:51:42.999Z</time></trkpt><trkpt lat="38.92152507186819" lon="8.890005294016424"><ele>58.0</ele><time>2026-03-26T11:51:43.999Z</time></trkpt><trkpt lat="38.92140702522834" lon="8.890055612424153"><ele>52.5</ele><time>2026-03-26T11:51:44.999Z</time></trkpt><trkpt lat="38.92129783396368" lon="8.890090369040385"><ele>47.0</ele><time>2026-03-26T11:51:45.999Z</time></trkpt><trkpt lat="38.92119805164369" lon="8.890133780435955"><ele>47.0</ele><time>2026-03-26T11:51:46.999Z</time></trkpt><trkpt lat="38.92110637491978" lon="8.890182949094939"><ele>47.0</ele><time>2026-03-26T11:51:47.999Z</time></trkpt><trkpt lat="38.92101733435647" lon="8.890241796049166"><ele>47.0</ele><time>2026-03-26T11:51:48.999Z</time></trkpt><trkpt lat="38.920942182141786" lon="8.890329817543353"><ele>47.0</ele><time>2026-03-26T11:51:49.999Z</time></trkpt><trkpt lat="38.92089465743333" lon="8.890449639451838"><ele>47.0</ele><time>2026-03-26T11:51:50.999Z</time></trkpt><trkpt lat="38.92088235427714" lon="8.890593822296804"><ele>47.0</ele><time>2026-03-26T11:51:51.999Z</time></trkpt><trkpt lat="38.92090474506371" lon="8.890757614224572"><ele>47.0</ele><time>2026-03-26T11:51:52.999Z</time></trkpt><trkpt lat="38.92093697020125" lon="8.890940196605548"><ele>47.0</ele><time>2026-03-26T11:51:53.999Z</time></trkpt><trkpt lat="38.92102616238093" lon="8.891095030296409"><ele>47.0</ele><time>2026-03-26T11:51:54.999Z</time></trkpt><trkpt lat="38.92111126047025" lon="8.89124866541172"><ele>42.33333333333333</ele><time>2026-03-26T11:51:55.999Z</time></trkpt><trkpt lat="38.92121092971395" lon="8.891393936332227"><ele>37.666666666666664</ele><time>2026-03-26T11:51:56.999Z</time></trkpt><trkpt lat="38.921321745354994" lon="8.891541219789525"><ele>33.0</ele><time>2026-03-26T11:51:57.999Z</time></trkpt><trkpt lat="38.92143687205436" lon="8.891686637362657"><ele>30.0</ele><time>2026-03-26T11:51:58.999Z</time></trkpt><trkpt lat="38.92155540038123" lon="8.89182842415254"><ele>27.0</ele><time>2026-03-26T11:51:59.999Z</time></trkpt><trkpt lat="38.921686815107485" lon="8.891970718373187"><ele>24.0</ele><time>2026-03-26T11:52:00.999Z</time></trkpt><trkpt lat="38.92183206154684" lon="8.892127063457957"><ele>24.0</ele><time>2026-03-26T11:52:01.999Z</time></trkpt><trkpt lat="38.92197174696002" lon="8.89227753836605"><ele>24.0</ele><time>2026-03-26T11:52:02.999Z</time></trkpt><trkpt lat="38.922104946952" lon="8.892415143013048"><ele>24.0</ele><time>2026-03-26T11:52:03.999Z</time></trkpt><trkpt lat="38.92223560833647" lon="8.892540528542408"><ele>23.75</ele><time>2026-03-26T11:52:04.999Z</time></trkpt><trkpt lat="38.922360637928996" lon="8.892670297207472"><ele>23.5</ele><time>2026-03-26T11:52:05.999Z</time></trkpt><trkpt lat="38.92247631941831" lon="8.892795556491008"><ele>23.25</ele><time>2026-03-26T11:52:06.999Z</time></trkpt><trkpt lat="38.92258569725715" lon="8.892898501470995"><ele>23.0</ele><time>2026-03-26T11:52:07.999Z</time></trkpt><trkpt lat="38.922682599953724" lon="8.89298807185373"><ele>23.0</ele><time>2026-03-26T11:52:08.999Z</time></trkpt><trkpt lat="38.922762086419766" lon="8.893063781141825"><ele>23.0</ele><time>2026-03-26T11:52:09.999Z</time></trkpt><trkpt lat="38.92282952414677" lon="8.893129132564214"><ele>23.0</ele><time>2026-03-26T11:52:10.999Z</time></trkpt><trkpt lat="38.92288696378025" lon="8.89317742231358"><ele>23.0</ele><time>2026-03-26T11:52:11.999Z</time></trkpt><trkpt lat="38.92298004909024" lon="8.893251718995245"><ele>23.0</ele><time>2026-03-26T11:52:13.999Z</time></trkpt><trkpt lat="38.923072592972844" lon="8.893326680323115"><ele>23.0</ele><time>2026-03-26T11:52:15.999Z</time></trkpt><trkpt lat="38.923129835795244" lon="8.8933717883926"><ele>23.0</ele><time>2026-03-26T11:52:16.999Z</time></trkpt><trkpt lat="38.923270047380974" lon="8.893274304555407"><ele>23.0</ele><time>2026-03-26T11:52:17.999Z</time></trkpt><trkpt lat="38.923374124036556" lon="8.893305792885233"><ele>23.0</ele><time>2026-03-26T11:52:18.999Z</time></trkpt><trkpt lat="38.92348612121249" lon="8.893319544841136"><ele>23.0</ele><time>2026-03-26T11:52:19.999Z</time></trkpt><trkpt lat="38.923595735987895" lon="8.893334011420215"><ele>22.4</ele><time>2026-03-26T11:52:20.999Z</time></trkpt><trkpt lat="38.923712264461344" lon="8.89335340266782"><ele>21.799999999999997</ele><time>2026-03-26T11:52:21.999Z</time></trkpt><trkpt lat="38.92382611734018" lon="8.893372293564376"><ele>21.2</ele><time>2026-03-26T11:52:22.999Z</time></trkpt><trkpt lat="38.923922410969546" lon="8.893388270949892"><ele>20.6</ele><time>2026-03-26T11:52:23.999Z</time></trkpt><trkpt lat="38.92399912752626" lon="8.893401000079445"><ele>20.0</ele><time>2026-03-26T11:52:24.999Z</time></trkpt><trkpt lat="38.92406624299825" lon="8.893387940942743"><ele>20.0</ele><time>2026-03-26T11:52:25.999Z</time></trkpt><trkpt lat="38.924179033184224" lon="8.893340019288093"><ele>20.0</ele><time>2026-03-26T11:52:27.999Z</time></trkpt><trkpt lat="38.92424921987956" lon="8.893288262167834"><ele>20.0</ele><time>2026-03-26T11:52:29Z</time></trkpt><trkpt lat="38.92432934879531" lon="8.89327865687589"><ele>20.0</ele><time>2026-03-26T11:52:30Z</time></trkpt><trkpt lat="38.924411119673714" lon="8.893272177788994"><ele>20.0</ele><time>2026-03-26T11:52:31Z</time></trkpt><trkpt lat="38.92450295522371" lon="8.893264246092214"><ele>20.8</ele><time>2026-03-26T11:52:32Z</time></trkpt><trkpt lat="38.924604941954684" lon="8.893255439232806"><ele>21.6</ele><time>2026-03-26T11:52:33Z</time></trkpt><trkpt lat="38.92471486255374" lon="8.893225987158996"><ele>22.4</ele><time>2026-03-26T11:52:34Z</time></trkpt><trkpt lat="38.92480831730383" lon="8.893232924376191"><ele>23.2</ele><time>2026-03-26T11:52:35Z</time></trkpt><trkpt lat="38.924893489462114" lon="8.893238677962694"><ele>24.0</ele><time>2026-03-26T11:52:36Z</time></trkpt><trkpt lat="38.924958893395285" lon="8.893267964132196"><ele>24.6</ele><time>2026-03-26T11:52:37Z</time></trkpt><trkpt lat="38.92506992526493" lon="8.89335808147619"><ele>25.2</ele><time>2026-03-26T11:52:39Z</time></trkpt><trkpt lat="38.925139486521594" lon="8.893413836036983"><ele>25.800000000000004</ele><time>2026-03-26T11:52:40Z</time></trkpt><trkpt lat="38.925220856968714" lon="8.893466676215303"><ele>26.400000000000002</ele><time>2026-03-26T11:52:41Z</time></trkpt><trkpt lat="38.92530439930016" lon="8.893516956554866"><ele>27.0</ele><time>2026-03-26T11:52:42Z</time></trkpt><trkpt lat="38.925383640871146" lon="8.893566174247058"><ele>27.0</ele><time>2026-03-26T11:52:43Z</time></trkpt><trkpt lat="38.92546927158648" lon="8.89361175023269"><ele>27.000000000000004</ele><time>2026-03-26T11:52:44Z</time></trkpt><trkpt lat="38.92555524942268" lon="8.893693130388561"><ele>27.000000000000004</ele><time>2026-03-26T11:52:45Z</time></trkpt><trkpt lat="38.92566313960994" lon="8.893730310159038"><ele>27.0</ele><time>2026-03-26T11:52:46Z</time></trkpt><trkpt lat="38.92574427072037" lon="8.893800223611205"><ele>27.0</ele><time>2026-03-26T11:52:47Z</time></trkpt><trkpt lat="38.92582125595088" lon="8.893874006523474"><ele>27.400000000000002</ele><time>2026-03-26T11:52:48Z</time></trkpt><trkpt lat="38.92590064498092" lon="8.893949098959054"><ele>27.800000000000004</ele><time>2026-03-26T11:52:49Z</time></trkpt><trkpt lat="38.92599453494513" lon="8.894003824156087"><ele>28.2</ele><time>2026-03-26T11:52:50Z</time></trkpt><trkpt lat="38.92608313043995" lon="8.894030377403862"><ele>28.6</ele><time>2026-03-26T11:52:51Z</time></trkpt><trkpt lat="38.926173595257" lon="8.89405627782393"><ele>29.0</ele><time>2026-03-26T11:52:52Z</time></trkpt><trkpt lat="38.92625891274071" lon="8.894086126161891"><ele>29.0</ele><time>2026-03-26T11:52:53Z</time></trkpt><trkpt lat="38.926339107324864" lon="8.894123582501464"><ele>29.0</ele><time>2026-03-26T11:52:54Z</time></trkpt><trkpt lat="38.926432738417624" lon="8.894161178783197"><ele>29.0</ele><time>2026-03-26T11:52:55Z</time></trkpt><trkpt lat="38.92655396728039" lon="8.894181524004786"><ele>29.0</ele><time>2026-03-26T11:52:56Z</time></trkpt><trkpt lat="38.92667117928521" lon="8.89419673956509"><ele>29.0</ele><time>2026-03-26T11:52:57Z</time></trkpt><trkpt lat="38.9267693146293" lon="8.894215535111009"><ele>28.499999999999996</ele><time>2026-03-26T11:52:58Z</time></trkpt><trkpt lat="38.92685101507856" lon="8.894238977913515"><ele>28.0</ele><time>2026-03-26T11:52:59Z</time></trkpt><trkpt lat="38.92692417440564" lon="8.894278573868936"><ele>27.5</ele><time>2026-03-26T11:53:00Z</time></trkpt><trkpt lat="38.926992703411216" lon="8.894342718440763"><ele>27.0</ele><time>2026-03-26T11:53:01Z</time></trkpt><trkpt lat="38.92704672610786" lon="8.894417070275319"><ele>26.499999999999996</ele><time>2026-03-26T11:53:02Z</time></trkpt><trkpt lat="38.927097929270104" lon="8.894507408826943"><ele>26.0</ele><time>2026-03-26T11:53:03Z</time></trkpt><trkpt lat="38.9271562843404" lon="8.89461402690696"><ele>26.0</ele><time>2026-03-26T11:53:04Z</time></trkpt><trkpt lat="38.927218953627225" lon="8.894698792496618"><ele>26.0</ele><time>2026-03-26T11:53:05Z</time></trkpt><trkpt lat="38.92728324729929" lon="8.89476947111645"><ele>26.0</ele><time>2026-03-26T11:53:06Z</time></trkpt><trkpt lat="38.92735831890506" lon="8.894832222807315"><ele>26.0</ele><time>2026-03-26T11:53:07Z</time></trkpt><trkpt lat="38.92744538528742" lon="8.894876798586028"><ele>26.0</ele><time>2026-03-26T11:53:08Z</time></trkpt><trkpt lat="38.927538506272334" lon="8.894904343365168"><ele>27.200000000000003</ele><time>2026-03-26T11:53:09Z</time></trkpt><trkpt lat="38.92762693062534" lon="8.89492787512869"><ele>28.400000000000002</ele><time>2026-03-26T11:53:10Z</time></trkpt><trkpt lat="38.92771943428361" lon="8.894944796615706"><ele>29.6</ele><time>2026-03-26T11:53:11Z</time></trkpt><trkpt lat="38.927823721444334" lon="8.894963310503755"><ele>30.8</ele><time>2026-03-26T11:53:12Z</time></trkpt><trkpt lat="38.927936401132364" lon="8.894992374293233"><ele>32.0</ele><time>2026-03-26T11:53:13Z</time></trkpt><trkpt lat="38.92802514754683" lon="8.895017783710784"><ele>32.0</ele><time>2026-03-26T11:53:14Z</time></trkpt><trkpt lat="38.92810799172939" lon="8.895049601245093"><ele>32.0</ele><time>2026-03-26T11:53:15Z</time></trkpt><trkpt lat="38.92819672104239" lon="8.89508437762119"><ele>32.0</ele><time>2026-03-26T11:53:16Z</time></trkpt><trkpt lat="38.92829480688047" lon="8.895137121217855"><ele>32.0</ele><time>2026-03-26T11:53:17Z</time></trkpt><trkpt lat="38.92838727097436" lon="8.895198078467208"><ele>32.0</ele><time>2026-03-26T11:53:18Z</time></trkpt><trkpt lat="38.92847188509135" lon="8.895249176341764"><ele>31.999999999999996</ele><time>2026-03-26T11:53:19Z</time></trkpt><trkpt lat="38.92854857459262" lon="8.895299673197748"><ele>32.0</ele><time>2026-03-26T11:53:20Z</time></trkpt><trkpt lat="38.9286226705581" lon="8.895343533246008"><ele>32.0</ele><time>2026-03-26T11:53:21Z</time></trkpt><trkpt lat="38.92870400083246" lon="8.895371171267406"><ele>32.0</ele><time>2026-03-26T11:53:22Z</time></trkpt><trkpt lat="38.92879371282413" lon="8.89537799555714"><ele>31.999999999999996</ele><time>2026-03-26T11:53:23Z</time></trkpt><trkpt lat="38.928897135196436" lon="8.895361458811653"><ele>32.0</ele><time>2026-03-26T11:53:24Z</time></trkpt><trkpt lat="38.92900277794099" lon="8.895332525144182"><ele>32.0</ele><time>2026-03-26T11:53:25Z</time></trkpt><trkpt lat="38.92909088063898" lon="8.895308196920274"><ele>32.0</ele><time>2026-03-26T11:53:26Z</time></trkpt><trkpt lat="38.92916411780485" lon="8.895307365210064"><ele>32.0</ele><time>2026-03-26T11:53:27Z</time></trkpt><trkpt lat="38.92924481621829" lon="8.895325710686855"><ele>32.0</ele><time>2026-03-26T11:53:27.999Z</time></trkpt><trkpt lat="38.92933936642026" lon="8.895355831407379"><ele>32.0</ele><time>2026-03-26T11:53:28.999Z</time></trkpt><trkpt lat="38.929450318705044" lon="8.895393382075817"><ele>32.25</ele><time>2026-03-26T11:53:29.999Z</time></trkpt><trkpt lat="38.92957499134229" lon="8.89541461298578"><ele>32.5</ele><time>2026-03-26T11:53:30.999Z</time></trkpt><trkpt lat="38.92970979398053" lon="8.895418854877393"><ele>32.75</ele><time>2026-03-26T11:53:31.999Z</time></trkpt><trkpt lat="38.9298255077186" lon="8.895421973385954"><ele>33.0</ele><time>2026-03-26T11:53:32.999Z</time></trkpt><trkpt lat="38.92992052904051" lon="8.895421869903805"><ele>33.0</ele><time>2026-03-26T11:53:33.999Z</time></trkpt><trkpt lat="38.93000505305679" lon="8.895405154723681"><ele>33.0</ele><time>2026-03-26T11:53:34.999Z</time></trkpt><trkpt lat="38.93008995285202" lon="8.895371300238477"><ele>33.0</ele><time>2026-03-26T11:53:35.999Z</time></trkpt><trkpt lat="38.93016752551709" lon="8.895345744562677"><ele>33.0</ele><time>2026-03-26T11:53:36.999Z</time></trkpt><trkpt lat="38.930248129802656" lon="8.895354083064673"><ele>33.0</ele><time>2026-03-26T11:53:37.999Z</time></trkpt><trkpt lat="38.93032835966776" lon="8.895385757204751"><ele>33.0</ele><time>2026-03-26T11:53:38.999Z</time></trkpt><trkpt lat="38.93041807499911" lon="8.89544812149371"><ele>33.8</ele><time>2026-03-26T11:53:39.999Z</time></trkpt><trkpt lat="38.93051619445931" lon="8.895516079382796"><ele>34.599999999999994</ele><time>2026-03-26T11:53:40.999Z</time></trkpt><trkpt lat="38.93061406122206" lon="8.895563247471127"><ele>35.400000000000006</ele><time>2026-03-26T11:53:41.999Z</time></trkpt><trkpt lat="38.93069651536443" lon="8.895603565073227"><ele>36.2</ele><time>2026-03-26T11:53:42.999Z</time></trkpt><trkpt lat="38.930763898159256" lon="8.895650779296798"><ele>37.0</ele><time>2026-03-26T11:53:43.999Z</time></trkpt><trkpt lat="38.9308240224666" lon="8.895712038464941"><ele>37.0</ele><time>2026-03-26T11:53:44.999Z</time></trkpt><trkpt lat="38.93088376832375" lon="8.895786924184222"><ele>37.0</ele><time>2026-03-26T11:53:45.999Z</time></trkpt><trkpt lat="38.93095130518431" lon="8.895863308973269"><ele>37.0</ele><time>2026-03-26T11:53:46.999Z</time></trkpt><trkpt lat="38.93101814559542" lon="8.8959381856048"><ele>37.0</ele><time>2026-03-26T11:53:47.999Z</time></trkpt><trkpt lat="38.93107618715068" lon="8.896024655882265"><ele>37.0</ele><time>2026-03-26T11:53:48.999Z</time></trkpt><trkpt lat="38.93112370795641" lon="8.896114956242265"><ele>37.0</ele><time>2026-03-26T11:53:49.999Z</time></trkpt><trkpt lat="38.93116154605443" lon="8.896200812115849"><ele>37.5</ele><time>2026-03-26T11:53:50.999Z</time></trkpt><trkpt lat="38.93119782794308" lon="8.896274763548496"><ele>38.0</ele><time>2026-03-26T11:53:51.999Z</time></trkpt><trkpt lat="38.93125377364802" lon="8.89634493827868"><ele>38.5</ele><time>2026-03-26T11:53:52.999Z</time></trkpt><trkpt lat="38.93132547617811" lon="8.896414348009936"><ele>39.0</ele><time>2026-03-26T11:53:53.999Z</time></trkpt><trkpt lat="38.93139670057865" lon="8.896489780250542"><ele>39.5</ele><time>2026-03-26T11:53:54.999Z</time></trkpt><trkpt lat="38.93146566032091" lon="8.896569583097476"><ele>40.0</ele><time>2026-03-26T11:53:55.999Z</time></trkpt><trkpt lat="38.93153595461166" lon="8.896651809960728"><ele>40.0</ele><time>2026-03-26T11:53:56.999Z</time></trkpt><trkpt lat="38.931604983636774" lon="8.896734208455499"><ele>40.0</ele><time>2026-03-26T11:53:57.999Z</time></trkpt><trkpt lat="38.93166836177692" lon="8.896818987673415"><ele>40.0</ele><time>2026-03-26T11:53:58.999Z</time></trkpt><trkpt lat="38.93172900898731" lon="8.896900376764014"><ele>40.0</ele><time>2026-03-26T11:53:59.999Z</time></trkpt><trkpt lat="38.931791361810326" lon="8.896978490371035"><ele>40.0</ele><time>2026-03-26T11:54:00.999Z</time></trkpt><trkpt lat="38.931853521809515" lon="8.897045557532701"><ele>40.0</ele><time>2026-03-26T11:54:01.999Z</time></trkpt><trkpt lat="38.93191818745485" lon="8.89710724333302"><ele>41.16666666666667</ele><time>2026-03-26T11:54:02.999Z</time></trkpt><trkpt lat="38.93197996098742" lon="8.897161770191703"><ele>42.333333333333336</ele><time>2026-03-26T11:54:03.999Z</time></trkpt><trkpt lat="38.93204258611889" lon="8.897220491166587"><ele>43.5</ele><time>2026-03-26T11:54:04.999Z</time></trkpt><trkpt lat="38.93210411787146" lon="8.897284223504556"><ele>44.666666666666664</ele><time>2026-03-26T11:54:05.999Z</time></trkpt><trkpt lat="38.93217118230922" lon="8.897361889252151"><ele>45.83333333333333</ele><time>2026-03-26T11:54:06.999Z</time></trkpt><trkpt lat="38.93224481064791" lon="8.897443462217373"><ele>47.0</ele><time>2026-03-26T11:54:07.999Z</time></trkpt><trkpt lat="38.932329461489815" lon="8.897526280879395"><ele>46.666666666666664</ele><time>2026-03-26T11:54:08.999Z</time></trkpt><trkpt lat="38.932410834439594" lon="8.897606087634776"><ele>46.33333333333333</ele><time>2026-03-26T11:54:09.999Z</time></trkpt><trkpt lat="38.93248603353636" lon="8.897673008483496"><ele>46.0</ele><time>2026-03-26T11:54:10.999Z</time></trkpt><trkpt lat="38.93255741640777" lon="8.897734652806292"><ele>45.666666666666664</ele><time>2026-03-26T11:54:11.999Z</time></trkpt><trkpt lat="38.932600377432124" lon="8.897824165810071"><ele>45.333333333333336</ele><time>2026-03-26T11:54:12.999Z</time></trkpt><trkpt lat="38.93265222344821" lon="8.897904376297204"><ele>45.0</ele><time>2026-03-26T11:54:13.999Z</time></trkpt><trkpt lat="38.93271079233378" lon="8.897985517130346"><ele>46.8</ele><time>2026-03-26T11:54:14.999Z</time></trkpt><trkpt lat="38.93279782095723" lon="8.898050662065426"><ele>48.6</ele><time>2026-03-26T11:54:15.999Z</time></trkpt><trkpt lat="38.93288146703777" lon="8.89813680852175"><ele>50.400000000000006</ele><time>2026-03-26T11:54:16.999Z</time></trkpt><trkpt lat="38.93296356363805" lon="8.898229977295358"><ele>52.2</ele><time>2026-03-26T11:54:17.999Z</time></trkpt><trkpt lat="38.93302838700563" lon="8.898326900796983"><ele>54.0</ele><time>2026-03-26T11:54:18.999Z</time></trkpt><trkpt lat="38.93309449765861" lon="8.89839841265288"><ele>53.5</ele><time>2026-03-26T11:54:19.999Z</time></trkpt><trkpt lat="38.933156530935435" lon="8.89845496333655"><ele>53.0</ele><time>2026-03-26T11:54:20.999Z</time></trkpt><trkpt lat="38.933218414668715" lon="8.898497503660451"><ele>52.5</ele><time>2026-03-26T11:54:21.999Z</time></trkpt><trkpt lat="38.933305651164126" lon="8.89851805827351"><ele>52.0</ele><time>2026-03-26T11:54:22.999Z</time></trkpt><trkpt lat="38.93340255802516" lon="8.8985582798344"><ele>51.5</ele><time>2026-03-26T11:54:23.999Z</time></trkpt><trkpt lat="38.93349033952651" lon="8.898600312286916"><ele>51.0</ele><time>2026-03-26T11:54:24.999Z</time></trkpt><trkpt lat="38.933555750803116" lon="8.898648993261414"><ele>51.0</ele><time>2026-03-26T11:54:25.999Z</time></trkpt><trkpt lat="38.93360542652008" lon="8.89871534645745"><ele>51.0</ele><time>2026-03-26T11:54:26.999Z</time></trkpt><trkpt lat="38.93365172966053" lon="8.898803098719476"><ele>51.0</ele><time>2026-03-26T11:54:27.999Z</time></trkpt><trkpt lat="38.933699932057074" lon="8.898920680749058"><ele>51.0</ele><time>2026-03-26T11:54:28.999Z</time></trkpt><trkpt lat="38.933774022608546" lon="8.89905261593332"><ele>51.0</ele><time>2026-03-26T11:54:29.999Z</time></trkpt><trkpt lat="38.93385290024211" lon="8.899168986440682"><ele>50.8</ele><time>2026-03-26T11:54:30.999Z</time></trkpt><trkpt lat="38.93392286207299" lon="8.899297120738499"><ele>50.599999999999994</ele><time>2026-03-26T11:54:31.999Z</time></trkpt><trkpt lat="38.93399374838827" lon="8.89943183348142"><ele>50.4</ele><time>2026-03-26T11:54:32.999Z</time></trkpt><trkpt lat="38.93404989438466" lon="8.899532154593752"><ele>50.2</ele><time>2026-03-26T11:54:33.999Z</time></trkpt><trkpt lat="38.9340961911581" lon="8.899608282313576"><ele>50.0</ele><time>2026-03-26T11:54:35Z</time></trkpt><trkpt lat="38.93414854935154" lon="8.899662452726453"><ele>50.00000000000001</ele><time>2026-03-26T11:54:36Z</time></trkpt><trkpt lat="38.93421540587285" lon="8.899700788999825"><ele>50.0</ele><time>2026-03-26T11:54:37Z</time></trkpt><trkpt lat="38.9342985805193" lon="8.899737844095117"><ele>50.0</ele><time>2026-03-26T11:54:38Z</time></trkpt><trkpt lat="38.934380690612876" lon="8.899788485683091"><ele>50.0</ele><time>2026-03-26T11:54:39Z</time></trkpt><trkpt lat="38.9344556360975" lon="8.899851775296867"><ele>50.00000000000001</ele><time>2026-03-26T11:54:40Z</time></trkpt><trkpt lat="38.934526404596404" lon="8.89993431879639"><ele>50.0</ele><time>2026-03-26T11:54:41Z</time></trkpt><trkpt lat="38.93459862538671" lon="8.900043147776914"><ele>52.0</ele><time>2026-03-26T11:54:42Z</time></trkpt><trkpt lat="38.93467775134727" lon="8.900174309822125"><ele>54.0</ele><time>2026-03-26T11:54:43Z</time></trkpt><trkpt lat="38.93476201312195" lon="8.900325641150301"><ele>56.0</ele><time>2026-03-26T11:54:44Z</time></trkpt><trkpt lat="38.93484850349472" lon="8.900477467861013"><ele>58.0</ele><time>2026-03-26T11:54:45Z</time></trkpt><trkpt lat="38.93491922426888" lon="8.900592964060904"><ele>57.99999999999999</ele><time>2026-03-26T11:54:46Z</time></trkpt><trkpt lat="38.934969110312814" lon="8.90068729489933"><ele>58.0</ele><time>2026-03-26T11:54:47Z</time></trkpt><trkpt lat="38.93499991698346" lon="8.900775091645228"><ele>58.0</ele><time>2026-03-26T11:54:48Z</time></trkpt><trkpt lat="38.93501253697297" lon="8.900877654874689"><ele>58.0</ele><time>2026-03-26T11:54:49Z</time></trkpt><trkpt lat="38.93501262794884" lon="8.90099317563521"><ele>57.99999999999999</ele><time>2026-03-26T11:54:50Z</time></trkpt><trkpt lat="38.93501667561469" lon="8.901108419610736"><ele>58.0</ele><time>2026-03-26T11:54:51Z</time></trkpt><trkpt lat="38.93501543438003" lon="8.901211673295595"><ele>58.0</ele><time>2026-03-26T11:54:52Z</time></trkpt><trkpt lat="38.935021900427785" lon="8.901303705684136"><ele>58.0</ele><time>2026-03-26T11:54:53Z</time></trkpt><trkpt lat="38.935061080150454" lon="8.901389583650982"><ele>58.0</ele><time>2026-03-26T11:54:54Z</time></trkpt><trkpt lat="38.93512802849875" lon="8.901464295588633"><ele>58.0</ele><time>2026-03-26T11:54:55Z</time></trkpt><trkpt lat="38.935207598577925" lon="8.901554882692745"><ele>58.0</ele><time>2026-03-26T11:54:56Z</time></trkpt><trkpt lat="38.93528562907065" lon="8.901646226311684"><ele>58.33333333333333</ele><time>2026-03-26T11:54:57Z</time></trkpt><trkpt lat="38.93536024752643" lon="8.901711012830397"><ele>58.666666666666664</ele><time>2026-03-26T11:54:58Z</time></trkpt><trkpt lat="38.935443250557604" lon="8.901754636378284"><ele>59.0</ele><time>2026-03-26T11:54:59Z</time></trkpt><trkpt lat="38.935517311356136" lon="8.901792742822842"><ele>59.33333333333333</ele><time>2026-03-26T11:55:00Z</time></trkpt><trkpt lat="38.93558040460718" lon="8.901857825638075"><ele>59.666666666666664</ele><time>2026-03-26T11:55:01Z</time></trkpt><trkpt lat="38.93565016162396" lon="8.90193495022488"><ele>60.0</ele><time>2026-03-26T11:55:02Z</time></trkpt><trkpt lat="38.93572884518355" lon="8.901999677605678"><ele>60.0</ele><time>2026-03-26T11:55:03Z</time></trkpt><trkpt lat="38.935802328239085" lon="8.902062991638664"><ele>60.0</ele><time>2026-03-26T11:55:04Z</time></trkpt><trkpt lat="38.935874018600664" lon="8.90212395622281"><ele>60.0</ele><time>2026-03-26T11:55:05Z</time></trkpt><trkpt lat="38.93594143006067" lon="8.902174967267268"><ele>60.0</ele><time>2026-03-26T11:55:06Z</time></trkpt><trkpt lat="38.936007249432606" lon="8.902216068190663"><ele>60.0</ele><time>2026-03-26T11:55:07Z</time></trkpt><trkpt lat="38.93607744329547" lon="8.90223327366317"><ele>60.0</ele><time>2026-03-26T11:55:08Z</time></trkpt><trkpt lat="38.93614253115829" lon="8.902218065073138"><ele>61.333333333333336</ele><time>2026-03-26T11:55:09Z</time></trkpt><trkpt lat="38.93624359396327" lon="8.902184990424137"><ele>62.66666666666667</ele><time>2026-03-26T11:55:11Z</time></trkpt><trkpt lat="38.936321757098945" lon="8.902257767404604"><ele>64.0</ele><time>2026-03-26T11:55:13Z</time></trkpt><trkpt lat="38.93635262381162" lon="8.902340943575673"><ele>65.33333333333334</ele><time>2026-03-26T11:55:14Z</time></trkpt><trkpt lat="38.93638437400675" lon="8.902432562869873"><ele>66.66666666666667</ele><time>2026-03-26T11:55:15Z</time></trkpt><trkpt lat="38.9364366846327" lon="8.90251438786429"><ele>68.0</ele><time>2026-03-26T11:55:16Z</time></trkpt><trkpt lat="38.936514637953024" lon="8.902585361330663"><ele>68.0</ele><time>2026-03-26T11:55:17Z</time></trkpt><trkpt lat="38.936591802306154" lon="8.902644790824324"><ele>68.0</ele><time>2026-03-26T11:55:18Z</time></trkpt><trkpt lat="38.936656718795234" lon="8.902682638237307"><ele>68.0</ele><time>2026-03-26T11:55:19Z</time></trkpt><trkpt lat="38.9367285134516" lon="8.902691010572463"><ele>68.0</ele><time>2026-03-26T11:55:20Z</time></trkpt><trkpt lat="38.936816802895194" lon="8.902695332613893"><ele>68.0</ele><time>2026-03-26T11:55:21Z</time></trkpt><trkpt lat="38.9369078053076" lon="8.9027271058305"><ele>68.0</ele><time>2026-03-26T11:55:22Z</time></trkpt><trkpt lat="38.93699998409542" lon="8.902769992214777"><ele>68.83333333333334</ele><time>2026-03-26T11:55:23Z</time></trkpt><trkpt lat="38.93708235825826" lon="8.902802656139185"><ele>69.66666666666667</ele><time>2026-03-26T11:55:24Z</time></trkpt><trkpt lat="38.937147200701574" lon="8.902841282321337"><ele>70.5</ele><time>2026-03-26T11:55:25Z</time></trkpt><trkpt lat="38.93721834497914" lon="8.902885000262176"><ele>71.33333333333333</ele><time>2026-03-26T11:55:26Z</time></trkpt><trkpt lat="38.93731327618316" lon="8.902913564535954"><ele>72.16666666666666</ele><time>2026-03-26T11:55:27Z</time></trkpt><trkpt lat="38.93740209264849" lon="8.902928167054542"><ele>73.0</ele><time>2026-03-26T11:55:28Z</time></trkpt><trkpt lat="38.937493298067324" lon="8.902935201396735"><ele>73.8</ele><time>2026-03-26T11:55:30Z</time></trkpt><trkpt lat="38.93756604226668" lon="8.902913376044925"><ele>74.6</ele><time>2026-03-26T11:55:33Z</time></trkpt><trkpt lat="38.937637529471886" lon="8.902921665808318"><ele>75.4</ele><time>2026-03-26T11:55:35Z</time></trkpt><trkpt lat="38.93772895547143" lon="8.902909825926717"><ele>76.2</ele><time>2026-03-26T11:55:37Z</time></trkpt><trkpt lat="38.93784166179746" lon="8.902914966604826"><ele>77.0</ele><time>2026-03-26T11:55:38.999Z</time></trkpt><trkpt lat="38.937960566916" lon="8.902917961481842"><ele>77.0</ele><time>2026-03-26T11:55:40.999Z</time></trkpt><trkpt lat="38.9380207668737" lon="8.902871170260463"><ele>77.0</ele><time>2026-03-26T11:55:41.999Z</time></trkpt><trkpt lat="38.93813960778412" lon="8.902850259711537"><ele>77.0</ele><time>2026-03-26T11:55:43.999Z</time></trkpt><trkpt lat="38.938245181721754" lon="8.902888360411216"><ele>77.0</ele><time>2026-03-26T11:55:45.999Z</time></trkpt><trkpt lat="38.938326887522194" lon="8.90292672717896"><ele>77.0</ele><time>2026-03-26T11:55:47.999Z</time></trkpt><trkpt lat="38.93839888018331" lon="8.9029064387855"><ele>78.83333333333334</ele><time>2026-03-26T11:55:49.999Z</time></trkpt><trkpt lat="38.93848221582513" lon="8.90292289083196"><ele>80.66666666666667</ele><time>2026-03-26T11:55:51.999Z</time></trkpt><trkpt lat="38.938585720301226" lon="8.902996380793565"><ele>82.5</ele><time>2026-03-26T11:55:53.999Z</time></trkpt><trkpt lat="38.93863568921421" lon="8.903054280535462"><ele>84.33333333333333</ele><time>2026-03-26T11:55:54.999Z</time></trkpt><trkpt lat="38.93869947866388" lon="8.903099831732613"><ele>86.16666666666666</ele><time>2026-03-26T11:55:55.999Z</time></trkpt><trkpt lat="38.93877173286379" lon="8.90314666327014"><ele>88.0</ele><time>2026-03-26T11:55:56.999Z</time></trkpt><trkpt lat="38.93884957266173" lon="8.903204123439552"><ele>88.0</ele><time>2026-03-26T11:55:57.999Z</time></trkpt><trkpt lat="38.938924739763834" lon="8.903256160140732"><ele>88.0</ele><time>2026-03-26T11:55:58.999Z</time></trkpt><trkpt lat="38.938986138948465" lon="8.903289635933604"><ele>88.0</ele><time>2026-03-26T11:55:59.999Z</time></trkpt><trkpt lat="38.939048422015006" lon="8.903310199527127"><ele>88.0</ele><time>2026-03-26T11:56:00.999Z</time></trkpt><trkpt lat="38.93915741165921" lon="8.903356808796463"><ele>88.0</ele><time>2026-03-26T11:56:02.999Z</time></trkpt><trkpt lat="38.93921518669671" lon="8.9034926655981"><ele>87.85714285714286</ele><time>2026-03-26T11:56:04.999Z</time></trkpt><trkpt lat="38.93921787304116" lon="8.903582588335109"><ele>87.71428571428571</ele><time>2026-03-26T11:56:05.999Z</time></trkpt><trkpt lat="38.93920884971072" lon="8.903669046417836"><ele>87.57142857142857</ele><time>2026-03-26T11:56:06.999Z</time></trkpt><trkpt lat="38.93920696158465" lon="8.903759573373545"><ele>87.42857142857143</ele><time>2026-03-26T11:56:07.999Z</time></trkpt><trkpt lat="38.939212046493225" lon="8.90385752308226"><ele>87.28571428571429</ele><time>2026-03-26T11:56:08.999Z</time></trkpt><trkpt lat="38.939225815415014" lon="8.903947822393999"><ele>87.14285714285714</ele><time>2026-03-26T11:56:09.999Z</time></trkpt><trkpt lat="38.939257495879" lon="8.904021749913593"><ele>87.0</ele><time>2026-03-26T11:56:10.999Z</time></trkpt><trkpt lat="38.9393424147915" lon="8.90409317833411"><ele>89.66666666666667</ele><time>2026-03-26T11:56:11.999Z</time></trkpt><trkpt lat="38.93939811547066" lon="8.90414252509701"><ele>92.33333333333334</ele><time>2026-03-26T11:56:12.999Z</time></trkpt><trkpt lat="38.9394665078394" lon="8.90426016140372"><ele>95.0</ele><time>2026-03-26T11:56:14.999Z</time></trkpt><trkpt lat="38.93943862262594" lon="8.904391151313979"><ele>97.66666666666667</ele><time>2026-03-26T11:56:16.999Z</time></trkpt><trkpt lat="38.93939944819358" lon="8.904456168880156"><ele>100.33333333333334</ele><time>2026-03-26T11:56:17.999Z</time></trkpt><trkpt lat="38.939353034792205" lon="8.904518030363745"><ele>103.0</ele><time>2026-03-26T11:56:18.999Z</time></trkpt><trkpt lat="38.93931200626269" lon="8.904617793965183"><ele>103.00000000000001</ele><time>2026-03-26T11:56:20.999Z</time></trkpt><trkpt lat="38.939363153782026" lon="8.904723305142417"><ele>103.0</ele><time>2026-03-26T11:56:22.999Z</time></trkpt><trkpt lat="38.939412627729496" lon="8.904779000564693"><ele>103.0</ele><time>2026-03-26T11:56:23.999Z</time></trkpt><trkpt lat="38.939470860188884" lon="8.904837835529174"><ele>103.0</ele><time>2026-03-26T11:56:24.999Z</time></trkpt><trkpt lat="38.93957537808977" lon="8.904911341473598"><ele>103.00000000000001</ele><time>2026-03-26T11:56:26.999Z</time></trkpt><trkpt lat="38.93964952949346" lon="8.904967056375618"><ele>103.0</ele><time>2026-03-26T11:56:27.999Z</time></trkpt><trkpt lat="38.93972695469485" lon="8.90497565933605"><ele>102.99999999999999</ele><time>2026-03-26T11:56:28.999Z</time></trkpt><trkpt lat="38.93979722373973" lon="8.904984333328551"><ele>103.0</ele><time>2026-03-26T11:56:29.999Z</time></trkpt><trkpt lat="38.93986288862263" lon="8.904942850082875"><ele>103.0</ele><time>2026-03-26T11:56:30.999Z</time></trkpt><trkpt lat="38.93993217040026" lon="8.904994766979582"><ele>103.0</ele><time>2026-03-26T11:56:31.999Z</time></trkpt><trkpt lat="38.94000188190551" lon="8.90505312735862"><ele>103.0</ele><time>2026-03-26T11:56:32.999Z</time></trkpt><trkpt lat="38.94005085487085" lon="8.905116963643435"><ele>102.99999999999999</ele><time>2026-03-26T11:56:33.999Z</time></trkpt><trkpt lat="38.940100909172806" lon="8.905171115648361"><ele>103.0</ele><time>2026-03-26T11:56:34.999Z</time></trkpt><trkpt lat="38.94014358620903" lon="8.905240069315683"><ele>103.83333333333334</ele><time>2026-03-26T11:56:35.999Z</time></trkpt><trkpt lat="38.9401857237318" lon="8.905316935753458"><ele>104.66666666666667</ele><time>2026-03-26T11:56:36.999Z</time></trkpt><trkpt lat="38.940221634781416" lon="8.905399246566935"><ele>105.5</ele><time>2026-03-26T11:56:37.999Z</time></trkpt><trkpt lat="38.940279158255876" lon="8.905474344882098"><ele>106.33333333333334</ele><time>2026-03-26T11:56:38.999Z</time></trkpt><trkpt lat="38.94031736633895" lon="8.905556071512791"><ele>107.16666666666667</ele><time>2026-03-26T11:56:39.999Z</time></trkpt><trkpt lat="38.94037592896408" lon="8.905688451874765"><ele>108.0</ele><time>2026-03-26T11:56:42Z</time></trkpt><trkpt lat="38.94040233773381" lon="8.905768899102096"><ele>108.0</ele><time>2026-03-26T11:56:43Z</time></trkpt><trkpt lat="38.94043489967606" lon="8.90583928413374"><ele>108.0</ele><time>2026-03-26T11:56:44Z</time></trkpt><trkpt lat="38.940544525959744" lon="8.905880041998271"><ele>108.0</ele><time>2026-03-26T11:56:46Z</time></trkpt><trkpt lat="38.94061470592384" lon="8.905857566253626"><ele>108.0</ele><time>2026-03-26T11:56:47Z</time></trkpt><trkpt lat="38.940703585278015" lon="8.905834365887461"><ele>108.0</ele><time>2026-03-26T11:56:48Z</time></trkpt><trkpt lat="38.94079467599166" lon="8.905825418716974"><ele>108.0</ele><time>2026-03-26T11:56:49Z</time></trkpt><trkpt lat="38.94087000418794" lon="8.905826708283787"><ele>108.66666666666667</ele><time>2026-03-26T11:56:50Z</time></trkpt><trkpt lat="38.94099006774936" lon="8.905805007879412"><ele>109.33333333333334</ele><time>2026-03-26T11:56:52Z</time></trkpt><trkpt lat="38.941050783732955" lon="8.905759842334195"><ele>110.0</ele><time>2026-03-26T11:56:53Z</time></trkpt><trkpt lat="38.941107619646246" lon="8.905709904609955"><ele>110.66666666666667</ele><time>2026-03-26T11:56:54Z</time></trkpt><trkpt lat="38.94116472062735" lon="8.905659464497944"><ele>111.33333333333334</ele><time>2026-03-26T11:56:55Z</time></trkpt><trkpt lat="38.94124524273349" lon="8.905549645878832"><ele>112.0</ele><time>2026-03-26T11:56:57Z</time></trkpt><trkpt lat="38.941284358602005" lon="8.90545137359264"><ele>112.0</ele><time>2026-03-26T11:56:59Z</time></trkpt><trkpt lat="38.9413644703333" lon="8.905387974746697"><ele>111.99999999999999</ele><time>2026-03-26T11:57:01Z</time></trkpt><trkpt lat="38.941446812435785" lon="8.90532631864209"><ele>111.99999999999999</ele><time>2026-03-26T11:57:03Z</time></trkpt><trkpt lat="38.94156412570584" lon="8.905310328098684"><ele>112.0</ele><time>2026-03-26T11:57:05Z</time></trkpt><trkpt lat="38.941626139215" lon="8.905292237123792"><ele>112.0</ele><time>2026-03-26T11:57:06Z</time></trkpt><trkpt lat="38.94169508411687" lon="8.905209940256448"><ele>114.19999999999999</ele><time>2026-03-26T11:57:08Z</time></trkpt><trkpt lat="38.94178365076738" lon="8.905182854325918"><ele>116.39999999999999</ele><time>2026-03-26T11:57:10Z</time></trkpt><trkpt lat="38.9419015990044" lon="8.905243749405791"><ele>118.60000000000001</ele><time>2026-03-26T11:57:12Z</time></trkpt><trkpt lat="38.9419689069671" lon="8.90529794564756"><ele>120.80000000000001</ele><time>2026-03-26T11:57:13Z</time></trkpt><trkpt lat="38.942037632618614" lon="8.905344697351154"><ele>123.0</ele><time>2026-03-26T11:57:14Z</time></trkpt><trkpt lat="38.94211247783862" lon="8.905379772138703"><ele>123.00000000000001</ele><time>2026-03-26T11:57:15Z</time></trkpt><trkpt lat="38.94218742557806" lon="8.905423543963344"><ele>123.0</ele><time>2026-03-26T11:57:16Z</time></trkpt><trkpt lat="38.94224983467634" lon="8.90547738803989"><ele>123.00000000000001</ele><time>2026-03-26T11:57:17Z</time></trkpt><trkpt lat="38.942311303975536" lon="8.90552567489322"><ele>123.00000000000001</ele><time>2026-03-26T11:57:18Z</time></trkpt><trkpt lat="38.94237510482137" lon="8.90556061461719"><ele>123.0</ele><time>2026-03-26T11:57:19Z</time></trkpt><trkpt lat="38.94243487700693" lon="8.905603546669052"><ele>123.00000000000001</ele><time>2026-03-26T11:57:20Z</time></trkpt><trkpt lat="38.94248177242204" lon="8.905670010104524"><ele>123.00000000000001</ele><time>2026-03-26T11:57:21Z</time></trkpt><trkpt lat="38.94252300524089" lon="8.90575464322467"><ele>124.2857142857143</ele><time>2026-03-26T11:57:22Z</time></trkpt><trkpt lat="38.94255948541569" lon="8.905842763249254"><ele>125.57142857142858</ele><time>2026-03-26T11:57:23Z</time></trkpt><trkpt lat="38.942593436902584" lon="8.905927452115009"><ele>126.85714285714286</ele><time>2026-03-26T11:57:24Z</time></trkpt><trkpt lat="38.94263270170866" lon="8.906014091227982"><ele>128.14285714285717</ele><time>2026-03-26T11:57:25Z</time></trkpt><trkpt lat="38.94267277251968" lon="8.906087782171246"><ele>129.42857142857144</ele><time>2026-03-26T11:57:26Z</time></trkpt><trkpt lat="38.94272755348639" lon="8.906150898061545"><ele>130.71428571428572</ele><time>2026-03-26T11:57:27Z</time></trkpt><trkpt lat="38.94278021418358" lon="8.906205143115283"><ele>132.0</ele><time>2026-03-26T11:57:28Z</time></trkpt><trkpt lat="38.94283218630286" lon="8.906258024587315"><ele>132.0</ele><time>2026-03-26T11:57:29Z</time></trkpt><trkpt lat="38.942890393919264" lon="8.906299691037193"><ele>132.0</ele><time>2026-03-26T11:57:30Z</time></trkpt><trkpt lat="38.94295123281542" lon="8.90632706871686"><ele>132.0</ele><time>2026-03-26T11:57:31Z</time></trkpt><trkpt lat="38.94301491576642" lon="8.90634678707944"><ele>132.0</ele><time>2026-03-26T11:57:32Z</time></trkpt><trkpt lat="38.94307724084763" lon="8.906375207090365"><ele>132.0</ele><time>2026-03-26T11:57:33Z</time></trkpt><trkpt lat="38.9431600885194" lon="8.906451181370075"><ele>132.0</ele><time>2026-03-26T11:57:35Z</time></trkpt><trkpt lat="38.9431881919365" lon="8.906566590300198"><ele>132.0</ele><time>2026-03-26T11:57:37Z</time></trkpt><trkpt lat="38.94320523401136" lon="8.90667813811824"><ele>132.0</ele><time>2026-03-26T11:57:39Z</time></trkpt><trkpt lat="38.9432312934751" lon="8.906779830657477"><ele>132.0</ele><time>2026-03-26T11:57:41Z</time></trkpt><trkpt lat="38.94326881304393" lon="8.90685601339332"><ele>132.0</ele><time>2026-03-26T11:57:43Z</time></trkpt><trkpt lat="38.943330146184984" lon="8.906790034547182"><ele>132.0</ele><time>2026-03-26T11:58:12.999Z</time></trkpt><trkpt lat="38.94335975688982" lon="8.906690688592176"><ele>132.0</ele><time>2026-03-26T11:58:15.999Z</time></trkpt><trkpt lat="38.9433836408971" lon="8.90661486792428"><ele>136.0</ele><time>2026-03-26T11:59:05Z</time></trkpt><trkpt lat="38.94344559109991" lon="8.906545616734267"><ele>140.0</ele><time>2026-03-26T12:00:26.999Z</time></trkpt><trkpt lat="38.943508869918695" lon="8.906505017143369"><ele>144.0</ele><time>2026-03-26T12:00:27.999Z</time></trkpt><trkpt lat="38.94357181660696" lon="8.906487531284911"><ele>148.0</ele><time>2026-03-26T12:00:28.999Z</time></trkpt><trkpt lat="38.94368723122659" lon="8.90650465015152"><ele>152.0</ele><time>2026-03-26T12:00:30.999Z</time></trkpt><trkpt lat="38.94381597666334" lon="8.906460621976395"><ele>152.0</ele><time>2026-03-26T12:00:32.999Z</time></trkpt><trkpt lat="38.94388440865891" lon="8.906447101004973"><ele>152.0</ele><time>2026-03-26T12:00:33.999Z</time></trkpt><trkpt lat="38.943989273688224" lon="8.9064783907733"><ele>152.0</ele><time>2026-03-26T12:00:35.999Z</time></trkpt><trkpt lat="38.94404130017063" lon="8.906554465304056"><ele>152.0</ele><time>2026-03-26T12:00:37.999Z</time></trkpt><trkpt lat="38.94407493857993" lon="8.90663965396151"><ele>152.0</ele><time>2026-03-26T12:00:39.999Z</time></trkpt><trkpt lat="38.94407790202102" lon="8.906729197719972"><ele>152.0</ele><time>2026-03-26T12:00:41.999Z</time></trkpt><trkpt lat="38.943981250532275" lon="8.9068136009534"><ele>152.5</ele><time>2026-03-26T12:00:43.999Z</time></trkpt><trkpt lat="38.943935362551336" lon="8.906869104710939"><ele>153.0</ele><time>2026-03-26T12:00:44.999Z</time></trkpt><trkpt lat="38.9439388285974" lon="8.906980208098773"><ele>153.5</ele><time>2026-03-26T12:00:46.999Z</time></trkpt><trkpt lat="38.94399438320435" lon="8.907085794396053"><ele>154.0</ele><time>2026-03-26T12:00:48.999Z</time></trkpt><trkpt lat="38.94403106338523" lon="8.907158364726717"><ele>154.5</ele><time>2026-03-26T12:00:49.999Z</time></trkpt><trkpt lat="38.94407034968552" lon="8.90723979471506"><ele>155.0</ele><time>2026-03-26T12:00:50.999Z</time></trkpt><trkpt lat="38.94410350993186" lon="8.90733495522507"><ele>155.0</ele><time>2026-03-26T12:00:51.999Z</time></trkpt><trkpt lat="38.94412914882367" lon="8.907432479069238"><ele>155.0</ele><time>2026-03-26T12:00:53Z</time></trkpt><trkpt lat="38.944147275144545" lon="8.907520261998673"><ele>155.0</ele><time>2026-03-26T12:00:54Z</time></trkpt><trkpt lat="38.944164284465565" lon="8.907599528811115"><ele>155.0</ele><time>2026-03-26T12:00:55Z</time></trkpt><trkpt lat="38.9441846298436" lon="8.907729440859569"><ele>155.0</ele><time>2026-03-26T12:00:57Z</time></trkpt><trkpt lat="38.94425277949718" lon="8.907751735901535"><ele>155.0</ele><time>2026-03-26T12:01:00Z</time></trkpt><trkpt lat="38.94431048721496" lon="8.907619454248115"><ele>160.66666666666666</ele><time>2026-03-26T12:01:02Z</time></trkpt><trkpt lat="38.944314196663186" lon="8.90753621021958"><ele>166.33333333333331</ele><time>2026-03-26T12:01:03Z</time></trkpt><trkpt lat="38.944359179150844" lon="8.90738453087052"><ele>172.0</ele><time>2026-03-26T12:01:05Z</time></trkpt><trkpt lat="38.94441160625268" lon="8.907316079932311"><ele>177.66666666666666</ele><time>2026-03-26T12:01:06Z</time></trkpt><trkpt lat="38.944471928804774" lon="8.907251502158132"><ele>183.33333333333334</ele><time>2026-03-26T12:01:07Z</time></trkpt><trkpt lat="38.944535563801686" lon="8.907215140705107"><ele>189.0</ele><time>2026-03-26T12:01:08Z</time></trkpt><trkpt lat="38.94460421358938" lon="8.907194792541075"><ele>189.0</ele><time>2026-03-26T12:01:09Z</time></trkpt><trkpt lat="38.94466508367324" lon="8.907165055622636"><ele>189.0</ele><time>2026-03-26T12:01:10Z</time></trkpt><trkpt lat="38.94476208343882" lon="8.907106440445562"><ele>189.0</ele><time>2026-03-26T12:01:12Z</time></trkpt><trkpt lat="38.94485706661065" lon="8.907029204938256"><ele>189.0</ele><time>2026-03-26T12:01:14Z</time></trkpt><trkpt lat="38.94491925716802" lon="8.906980945610613"><ele>189.0</ele><time>2026-03-26T12:01:15Z</time></trkpt><trkpt lat="38.94498117656724" lon="8.906919979002016"><ele>189.0</ele><time>2026-03-26T12:01:16Z</time></trkpt><trkpt lat="38.945037247045995" lon="8.90684501528148"><ele>191.33333333333334</ele><time>2026-03-26T12:01:17Z</time></trkpt><trkpt lat="38.945084538516106" lon="8.906755846121195"><ele>193.66666666666669</ele><time>2026-03-26T12:01:18Z</time></trkpt><trkpt lat="38.94512652990675" lon="8.906651048634846"><ele>196.0</ele><time>2026-03-26T12:01:19Z</time></trkpt><trkpt lat="38.94516129651486" lon="8.906555793405598"><ele>198.33333333333334</ele><time>2026-03-26T12:01:20Z</time></trkpt><trkpt lat="38.94522021480095" lon="8.906442500600342"><ele>200.66666666666669</ele><time>2026-03-26T12:01:22Z</time></trkpt><trkpt lat="38.94529536465186" lon="8.906455409263154"><ele>203.0</ele><time>2026-03-26T12:01:24Z</time></trkpt><trkpt lat="38.94533290889382" lon="8.906588750770474"><ele>207.2</ele><time>2026-03-26T12:01:26Z</time></trkpt><trkpt lat="38.94531293055103" lon="8.906757309156422"><ele>211.4</ele><time>2026-03-26T12:01:28Z</time></trkpt><trkpt lat="38.94529921071881" lon="8.906871751508794"><ele>215.59999999999997</ele><time>2026-03-26T12:01:29Z</time></trkpt><trkpt lat="38.945285132966774" lon="8.906984505890899"><ele>219.79999999999998</ele><time>2026-03-26T12:01:30Z</time></trkpt><trkpt lat="38.94527514831514" lon="8.907084427820468"><ele>224.0</ele><time>2026-03-26T12:01:31Z</time></trkpt><trkpt lat="38.945231703190935" lon="8.90716187600754"><ele>224.0</ele><time>2026-03-26T12:01:32Z</time></trkpt><trkpt lat="38.94525790242549" lon="8.907270551738398"><ele>223.99999999999997</ele><time>2026-03-26T12:01:33Z</time></trkpt><trkpt lat="38.945232138090184" lon="8.907379115584705"><ele>223.99999999999997</ele><time>2026-03-26T12:01:34Z</time></trkpt><trkpt lat="38.945199763741776" lon="8.907510021495076"><ele>224.0</ele><time>2026-03-26T12:01:35Z</time></trkpt><trkpt lat="38.94516604645196" lon="8.907630513277002"><ele>224.0</ele><time>2026-03-26T12:01:36Z</time></trkpt><trkpt lat="38.94513720551828" lon="8.907716426439787"><ele>226.33333333333334</ele><time>2026-03-26T12:01:37Z</time></trkpt><trkpt lat="38.94511232619616" lon="8.907801651793884"><ele>228.66666666666669</ele><time>2026-03-26T12:01:38Z</time></trkpt><trkpt lat="38.94508435371606" lon="8.907877627136973"><ele>231.0</ele><time>2026-03-26T12:01:39Z</time></trkpt><trkpt lat="38.945023051073576" lon="8.907919195891838"><ele>233.33333333333331</ele><time>2026-03-26T12:01:40Z</time></trkpt><trkpt lat="38.945064600471625" lon="8.908019442891678"><ele>235.66666666666666</ele><time>2026-03-26T12:01:42Z</time></trkpt><trkpt lat="38.94515092841157" lon="8.90801505367741"><ele>238.0</ele><time>2026-03-26T12:01:44Z</time></trkpt><trkpt lat="38.945236793095" lon="8.907909625357062"><ele>237.99999999999997</ele><time>2026-03-26T12:01:46Z</time></trkpt><trkpt lat="38.94528330805927" lon="8.907844477936328"><ele>238.0</ele><time>2026-03-26T12:01:47Z</time></trkpt><trkpt lat="38.94533927182899" lon="8.907769925478739"><ele>238.0</ele><time>2026-03-26T12:01:48Z</time></trkpt><trkpt lat="38.94540807953341" lon="8.907685061379558"><ele>238.0</ele><time>2026-03-26T12:01:49Z</time></trkpt><trkpt lat="38.945481784014945" lon="8.907601236801758"><ele>237.99999999999997</ele><time>2026-03-26T12:01:50Z</time></trkpt><trkpt lat="38.9455537621051" lon="8.9075354591131"><ele>238.0</ele><time>2026-03-26T12:01:51Z</time></trkpt><trkpt lat="38.94561547333463" lon="8.907472370593577"><ele>235.66666666666666</ele><time>2026-03-26T12:01:52Z</time></trkpt><trkpt lat="38.94567158521217" lon="8.907406047701322"><ele>233.33333333333331</ele><time>2026-03-26T12:01:53Z</time></trkpt><trkpt lat="38.94573241934186" lon="8.907335812524007"><ele>231.0</ele><time>2026-03-26T12:01:54Z</time></trkpt><trkpt lat="38.94580619660912" lon="8.907253179583972"><ele>228.66666666666669</ele><time>2026-03-26T12:01:55Z</time></trkpt><trkpt lat="38.94587667791973" lon="8.90719079934574"><ele>226.33333333333334</ele><time>2026-03-26T12:01:56Z</time></trkpt><trkpt lat="38.9459352801737" lon="8.907120146256046"><ele>224.0</ele><time>2026-03-26T12:01:57Z</time></trkpt><trkpt lat="38.945978067379464" lon="8.907059482235425"><ele>230.00000000000003</ele><time>2026-03-26T12:01:58Z</time></trkpt><trkpt lat="38.946040659246755" lon="8.90697547761915"><ele>236.0</ele><time>2026-03-26T12:02:00Z</time></trkpt><trkpt lat="38.946100720860635" lon="8.906923001006419"><ele>242.0</ele><time>2026-03-26T12:02:01Z</time></trkpt><trkpt lat="38.94616694434365" lon="8.906874654858196"><ele>248.0</ele><time>2026-03-26T12:02:02Z</time></trkpt><trkpt lat="38.94623807632147" lon="8.906837121215219"><ele>254.00000000000003</ele><time>2026-03-26T12:02:03Z</time></trkpt><trkpt lat="38.94630775726813" lon="8.906805911612807"><ele>260.0</ele><time>2026-03-26T12:02:04Z</time></trkpt><trkpt lat="38.946379867979495" lon="8.90677112225725"><ele>260.0</ele><time>2026-03-26T12:02:05Z</time></trkpt><trkpt lat="38.946443548044186" lon="8.9067337840663"><ele>260.0</ele><time>2026-03-26T12:02:06Z</time></trkpt><trkpt lat="38.946530996492754" lon="8.906637099726312"><ele>260.0</ele><time>2026-03-26T12:02:08Z</time></trkpt><trkpt lat="38.946572013638125" lon="8.906548601410293"><ele>260.0</ele><time>2026-03-26T12:02:10Z</time></trkpt><trkpt lat="38.946642345986355" lon="8.906599284225846"><ele>260.0</ele><time>2026-03-26T12:02:13Z</time></trkpt><trkpt lat="38.94663519746152" lon="8.906727572930082"><ele>260.0</ele><time>2026-03-26T12:02:14.999Z</time></trkpt><trkpt lat="38.94659372031816" lon="8.906875851317546"><ele>260.0</ele><time>2026-03-26T12:02:16.999Z</time></trkpt><trkpt lat="38.94655852547191" lon="8.906949837970767"><ele>260.0</ele><time>2026-03-26T12:02:17.999Z</time></trkpt><trkpt lat="38.94652681872755" lon="8.90703040953696"><ele>260.0</ele><time>2026-03-26T12:02:18.999Z</time></trkpt><trkpt lat="38.946497735654965" lon="8.907124647294687"><ele>260.0</ele><time>2026-03-26T12:02:19.999Z</time></trkpt><trkpt lat="38.94646941705516" lon="8.907214111007784"><ele>260.0</ele><time>2026-03-26T12:02:20.999Z</time></trkpt><trkpt lat="38.94642990649052" lon="8.907306294650674"><ele>260.0</ele><time>2026-03-26T12:02:21.999Z</time></trkpt><trkpt lat="38.946386369377926" lon="8.907399898305584"><ele>260.0</ele><time>2026-03-26T12:02:22.999Z</time></trkpt><trkpt lat="38.946342448682756" lon="8.907495545667151"><ele>260.0</ele><time>2026-03-26T12:02:23.999Z</time></trkpt><trkpt lat="38.946304150612896" lon="8.907592063917253"><ele>260.0</ele><time>2026-03-26T12:02:24.999Z</time></trkpt><trkpt lat="38.94627476689619" lon="8.90770336507632"><ele>260.0</ele><time>2026-03-26T12:02:25.999Z</time></trkpt><trkpt lat="38.946252432867304" lon="8.907826155131389"><ele>260.0</ele><time>2026-03-26T12:02:26.999Z</time></trkpt><trkpt lat="38.94623615835938" lon="8.907922421737544"><ele>260.0</ele><time>2026-03-26T12:02:27.999Z</time></trkpt><trkpt lat="38.946192380007155" lon="8.90805172867081"><ele>262.5</ele><time>2026-03-26T12:02:29.999Z</time></trkpt><trkpt lat="38.94615662213696" lon="8.90813640413009"><ele>265.0</ele><time>2026-03-26T12:02:31.999Z</time></trkpt><trkpt lat="38.94621571122766" lon="8.908227938234635"><ele>267.5</ele><time>2026-03-26T12:02:33.999Z</time></trkpt><trkpt lat="38.946305349316155" lon="8.908232092385674"><ele>270.0</ele><time>2026-03-26T12:02:35.999Z</time></trkpt><trkpt lat="38.94639225392908" lon="8.908123430805833"><ele>272.5</ele><time>2026-03-26T12:02:37.999Z</time></trkpt><trkpt lat="38.94643481641953" lon="8.908055064907304"><ele>275.0</ele><time>2026-03-26T12:02:38.999Z</time></trkpt><trkpt lat="38.94648383787145" lon="8.907987532821572"><ele>275.0</ele><time>2026-03-26T12:02:39.999Z</time></trkpt><trkpt lat="38.946545253430095" lon="8.90792545624211"><ele>275.0</ele><time>2026-03-26T12:02:40.999Z</time></trkpt><trkpt lat="38.94661909774021" lon="8.907851708343944"><ele>275.0</ele><time>2026-03-26T12:02:41.999Z</time></trkpt><trkpt lat="38.94668851935523" lon="8.907782156044483"><ele>275.0</ele><time>2026-03-26T12:02:42.999Z</time></trkpt><trkpt lat="38.946763069852004" lon="8.90772153815333"><ele>275.0</ele><time>2026-03-26T12:02:43.999Z</time></trkpt><trkpt lat="38.946850675079915" lon="8.907657856189575"><ele>275.0</ele><time>2026-03-26T12:02:44.999Z</time></trkpt><trkpt lat="38.94694376865072" lon="8.907614831713513"><ele>278.1666666666667</ele><time>2026-03-26T12:02:45.999Z</time></trkpt><trkpt lat="38.947026262107535" lon="8.907527544518457"><ele>281.33333333333337</ele><time>2026-03-26T12:02:46.999Z</time></trkpt><trkpt lat="38.9471020214164" lon="8.907465420510167"><ele>284.5</ele><time>2026-03-26T12:02:47.999Z</time></trkpt><trkpt lat="38.947161287592166" lon="8.907396823560596"><ele>287.6666666666667</ele><time>2026-03-26T12:02:48.999Z</time></trkpt><trkpt lat="38.94721447186011" lon="8.907317406890702"><ele>290.8333333333333</ele><time>2026-03-26T12:02:49.999Z</time></trkpt><trkpt lat="38.947268761558725" lon="8.907234981562748"><ele>294.0</ele><time>2026-03-26T12:02:50.999Z</time></trkpt><trkpt lat="38.94732417608842" lon="8.907166662661853"><ele>294.0</ele><time>2026-03-26T12:02:51.999Z</time></trkpt><trkpt lat="38.94737879116979" lon="8.907114743557392"><ele>294.0</ele><time>2026-03-26T12:02:52.999Z</time></trkpt><trkpt lat="38.9474343847623" lon="8.907061189177494"><ele>294.0</ele><time>2026-03-26T12:02:53.999Z</time></trkpt><trkpt lat="38.9474901480555" lon="8.907003650479782"><ele>294.0</ele><time>2026-03-26T12:02:54.999Z</time></trkpt><trkpt lat="38.94755213797562" lon="8.90693925576019"><ele>294.0</ele><time>2026-03-26T12:02:55.999Z</time></trkpt><trkpt lat="38.947625579461686" lon="8.906921890894777"><ele>294.0</ele><time>2026-03-26T12:02:56.999Z</time></trkpt><trkpt lat="38.947688948742204" lon="8.906930006050231"><ele>294.0</ele><time>2026-03-26T12:02:57.999Z</time></trkpt><trkpt lat="38.94776226968124" lon="8.906930976864125"><ele>294.8333333333333</ele><time>2026-03-26T12:02:59Z</time></trkpt><trkpt lat="38.947845003081795" lon="8.906898401846924"><ele>295.6666666666667</ele><time>2026-03-26T12:03:00Z</time></trkpt><trkpt lat="38.94791935963184" lon="8.90690383833778"><ele>296.5</ele><time>2026-03-26T12:03:01Z</time></trkpt><trkpt lat="38.94799406343487" lon="8.90688758363832"><ele>297.33333333333337</ele><time>2026-03-26T12:03:02Z</time></trkpt><trkpt lat="38.948052165293646" lon="8.906844525604141"><ele>298.1666666666667</ele><time>2026-03-26T12:03:03Z</time></trkpt><trkpt lat="38.948115357985024" lon="8.906785681985477"><ele>299.0</ele><time>2026-03-26T12:03:04Z</time></trkpt><trkpt lat="38.948194397316016" lon="8.906713121184252"><ele>299.0</ele><time>2026-03-26T12:03:05Z</time></trkpt><trkpt lat="38.948273305617846" lon="8.9066451826231"><ele>299.0</ele><time>2026-03-26T12:03:06Z</time></trkpt><trkpt lat="38.9483476868378" lon="8.906584780507245"><ele>299.0</ele><time>2026-03-26T12:03:07Z</time></trkpt><trkpt lat="38.9484440244566" lon="8.906515724460268"><ele>299.0</ele><time>2026-03-26T12:03:09Z</time></trkpt><trkpt lat="38.94856076361253" lon="8.906488741978908"><ele>299.0</ele><time>2026-03-26T12:03:11Z</time></trkpt><trkpt lat="38.948635045516184" lon="8.906463908080802"><ele>300.8</ele><time>2026-03-26T12:03:12Z</time></trkpt><trkpt lat="38.948737345237674" lon="8.906487605663525"><ele>302.59999999999997</ele><time>2026-03-26T12:03:14Z</time></trkpt><trkpt lat="38.94880782034713" lon="8.906511906186461"><ele>304.4</ele><time>2026-03-26T12:03:15Z</time></trkpt><trkpt lat="38.94888488316845" lon="8.906585289810417"><ele>306.2</ele><time>2026-03-26T12:03:17Z</time></trkpt><trkpt lat="38.94891624513787" lon="8.906704419530067"><ele>308.0</ele><time>2026-03-26T12:03:19Z</time></trkpt><trkpt lat="38.94895855160233" lon="8.90685483732232"><ele>310.83333333333337</ele><time>2026-03-26T12:03:21Z</time></trkpt><trkpt lat="38.94899315195345" lon="8.906926004831046"><ele>313.6666666666667</ele><time>2026-03-26T12:03:22Z</time></trkpt><trkpt lat="38.949052373368765" lon="8.90702579948214"><ele>316.5</ele><time>2026-03-26T12:03:24Z</time></trkpt><trkpt lat="38.94905769009679" lon="8.907117544239421"><ele>319.3333333333333</ele><time>2026-03-26T12:03:25Z</time></trkpt><trkpt lat="38.949138719435304" lon="8.907156197864946"><ele>322.16666666666663</ele><time>2026-03-26T12:03:26Z</time></trkpt><trkpt lat="38.94918788049753" lon="8.907221931807547"><ele>325.0</ele><time>2026-03-26T12:03:27Z</time></trkpt><trkpt lat="38.949268552067544" lon="8.907301262018224"><ele>327.16666666666663</ele><time>2026-03-26T12:03:29Z</time></trkpt><trkpt lat="38.94938220409322" lon="8.907357513951702"><ele>329.3333333333333</ele><time>2026-03-26T12:03:31Z</time></trkpt><trkpt lat="38.94950430036979" lon="8.907366704645236"><ele>331.5</ele><time>2026-03-26T12:03:33Z</time></trkpt><trkpt lat="38.94956842534479" lon="8.907350869510331"><ele>333.6666666666667</ele><time>2026-03-26T12:03:34Z</time></trkpt><trkpt lat="38.94962966834636" lon="8.907319883468466"><ele>335.83333333333337</ele><time>2026-03-26T12:03:35Z</time></trkpt><trkpt lat="38.949689348852914" lon="8.907273425242066"><ele>338.0</ele><time>2026-03-26T12:03:36Z</time></trkpt><trkpt lat="38.94980828054809" lon="8.907244940515898"><ele>338.0</ele><time>2026-03-26T12:03:38Z</time></trkpt><trkpt lat="38.949920726813204" lon="8.907298541760118"><ele>338.0</ele><time>2026-03-26T12:03:40Z</time></trkpt><trkpt lat="38.949992547623616" lon="8.907309280693921"><ele>338.0</ele><time>2026-03-26T12:03:42Z</time></trkpt><trkpt lat="38.95005414596126" lon="8.907211622373215"><ele>338.0</ele><time>2026-03-26T12:03:44Z</time></trkpt><trkpt lat="38.950056687115065" lon="8.90705153652562"><ele>338.0</ele><time>2026-03-26T12:03:46Z</time></trkpt><trkpt lat="38.950039970715515" lon="8.906964626922932"><ele>338.0</ele><time>2026-03-26T12:03:47Z</time></trkpt><trkpt lat="38.95002684676125" lon="8.906873236959148"><ele>338.0</ele><time>2026-03-26T12:03:48Z</time></trkpt><trkpt lat="38.950019530192826" lon="8.906778860544351"><ele>338.0</ele><time>2026-03-26T12:03:49Z</time></trkpt><trkpt lat="38.95001117735176" lon="8.906685723606861"><ele>338.0</ele><time>2026-03-26T12:03:50Z</time></trkpt><trkpt lat="38.95000408744495" lon="8.906595692447722"><ele>338.0</ele><time>2026-03-26T12:03:51Z</time></trkpt><trkpt lat="38.950040282009596" lon="8.906486150683655"><ele>338.0</ele><time>2026-03-26T12:03:53Z</time></trkpt><trkpt lat="38.9501328393533" lon="8.906450190321737"><ele>340.0</ele><time>2026-03-26T12:03:55Z</time></trkpt><trkpt lat="38.95025286883784" lon="8.906428247634015"><ele>342.0</ele><time>2026-03-26T12:03:57Z</time></trkpt><trkpt lat="38.950320831415475" lon="8.90640803395069"><ele>344.0</ele><time>2026-03-26T12:03:58Z</time></trkpt><trkpt lat="38.95039646048823" lon="8.906388192397046"><ele>346.0</ele><time>2026-03-26T12:03:59Z</time></trkpt><trkpt lat="38.95047451710267" lon="8.906381254472633"><ele>348.0</ele><time>2026-03-26T12:04:00Z</time></trkpt><trkpt lat="38.950555533692324" lon="8.906382385060098"><ele>350.0</ele><time>2026-03-26T12:04:01Z</time></trkpt><trkpt lat="38.950631561796335" lon="8.90637033753303"><ele>350.0</ele><time>2026-03-26T12:04:02Z</time></trkpt><trkpt lat="38.950708122168656" lon="8.906343809503104"><ele>350.0</ele><time>2026-03-26T12:04:03Z</time></trkpt><trkpt lat="38.95078207960964" lon="8.906311181244295"><ele>350.0</ele><time>2026-03-26T12:04:04Z</time></trkpt><trkpt lat="38.950844591830574" lon="8.906273505709793"><ele>350.0</ele><time>2026-03-26T12:04:05Z</time></trkpt><trkpt lat="38.95090894017855" lon="8.906224278295483"><ele>350.0</ele><time>2026-03-26T12:04:06Z</time></trkpt><trkpt lat="38.95097795599282" lon="8.906200011329542"><ele>350.0</ele><time>2026-03-26T12:04:07Z</time></trkpt><trkpt lat="38.951037377932174" lon="8.906170630041839"><ele>350.0</ele><time>2026-03-26T12:04:08Z</time></trkpt><trkpt lat="38.951112692243626" lon="8.906166954655596"><ele>350.0</ele><time>2026-03-26T12:04:09Z</time></trkpt><trkpt lat="38.95118641800078" lon="8.906179496467852"><ele>350.0</ele><time>2026-03-26T12:04:10Z</time></trkpt><trkpt lat="38.95126571801607" lon="8.906189904921003"><ele>350.0</ele><time>2026-03-26T12:04:10.999Z</time></trkpt><trkpt lat="38.95134687778658" lon="8.906188216362128"><ele>350.0</ele><time>2026-03-26T12:04:11.999Z</time></trkpt><trkpt lat="38.95141401793296" lon="8.906242793269174"><ele>350.0</ele><time>2026-03-26T12:04:12.999Z</time></trkpt><trkpt lat="38.951492028642306" lon="8.906253692925146"><ele>350.0</ele><time>2026-03-26T12:04:13.999Z</time></trkpt><trkpt lat="38.951560258579484" lon="8.906316576327784"><ele>350.0</ele><time>2026-03-26T12:04:14.999Z</time></trkpt><trkpt lat="38.951630343172695" lon="8.90638898716568"><ele>350.0</ele><time>2026-03-26T12:04:15.999Z</time></trkpt><trkpt lat="38.95169556731715" lon="8.906457481264242"><ele>350.0</ele><time>2026-03-26T12:04:16.999Z</time></trkpt><trkpt lat="38.95176351474459" lon="8.906524644882836"><ele>350.0</ele><time>2026-03-26T12:04:17.999Z</time></trkpt><trkpt lat="38.95183555513023" lon="8.906591453663953"><ele>350.0</ele><time>2026-03-26T12:04:18.999Z</time></trkpt><trkpt lat="38.95190401770868" lon="8.90666028750263"><ele>350.0</ele><time>2026-03-26T12:04:19.999Z</time></trkpt><trkpt lat="38.951946401820464" lon="8.906772047359613"><ele>351.6</ele><time>2026-03-26T12:04:20.999Z</time></trkpt><trkpt lat="38.9520128391284" lon="8.906845180237296"><ele>353.2</ele><time>2026-03-26T12:04:21.999Z</time></trkpt><trkpt lat="38.95208136605948" lon="8.906921506603025"><ele>354.79999999999995</ele><time>2026-03-26T12:04:22.999Z</time></trkpt><trkpt lat="38.95215431331187" lon="8.906999590276788"><ele>356.4</ele><time>2026-03-26T12:04:23.999Z</time></trkpt><trkpt lat="38.9522320787224" lon="8.907055809400797"><ele>358.0</ele><time>2026-03-26T12:04:24.999Z</time></trkpt><trkpt lat="38.95231343988514" lon="8.90709769886609"><ele>358.0</ele><time>2026-03-26T12:04:25.999Z</time></trkpt><trkpt lat="38.952396104961586" lon="8.907134999573078"><ele>358.0</ele><time>2026-03-26T12:04:26.999Z</time></trkpt><trkpt lat="38.952468985755466" lon="8.907173160474663"><ele>358.0</ele><time>2026-03-26T12:04:27.999Z</time></trkpt><trkpt lat="38.95255939399913" lon="8.907266793543833"><ele>358.0</ele><time>2026-03-26T12:04:29.999Z</time></trkpt><trkpt lat="38.95261523171" lon="8.907432026025718"><ele>358.0</ele><time>2026-03-26T12:04:31.999Z</time></trkpt><trkpt lat="38.95264598232975" lon="8.907552854000645"><ele>359.2</ele><time>2026-03-26T12:04:32.999Z</time></trkpt><trkpt lat="38.952674555306174" lon="8.90767307454941"><ele>360.4</ele><time>2026-03-26T12:04:33.999Z</time></trkpt><trkpt lat="38.952691985726645" lon="8.90778921998889"><ele>361.59999999999997</ele><time>2026-03-26T12:04:34.999Z</time></trkpt><trkpt lat="38.95270272042245" lon="8.907905907231324"><ele>362.79999999999995</ele><time>2026-03-26T12:04:35.999Z</time></trkpt><trkpt lat="38.95270833460828" lon="8.90802038348619"><ele>364.0</ele><time>2026-03-26T12:04:36.999Z</time></trkpt><trkpt lat="38.9527098840401" lon="8.90812829380959"><ele>364.0</ele><time>2026-03-26T12:04:37.999Z</time></trkpt><trkpt lat="38.95271261495942" lon="8.908216498856511"><ele>364.0</ele><time>2026-03-26T12:04:38.999Z</time></trkpt><trkpt lat="38.95273152843023" lon="8.908371081270646"><ele>364.0</ele><time>2026-03-26T12:04:40.999Z</time></trkpt><trkpt lat="38.95278115134268" lon="8.908446536704897"><ele>364.0</ele><time>2026-03-26T12:04:41.999Z</time></trkpt><trkpt lat="38.952890324162716" lon="8.908449623827826"><ele>364.0</ele><time>2026-03-26T12:04:42.999Z</time></trkpt><trkpt lat="38.95296945386185" lon="8.908469269433755"><ele>368.0</ele><time>2026-03-26T12:04:43.999Z</time></trkpt><trkpt lat="38.95304240911436" lon="8.908490465445276"><ele>372.0</ele><time>2026-03-26T12:04:44.999Z</time></trkpt><trkpt lat="38.953114953431694" lon="8.90852361944578"><ele>376.0</ele><time>2026-03-26T12:04:45.999Z</time></trkpt><trkpt lat="38.95320771110423" lon="8.908526722326535"><ele>380.0</ele><time>2026-03-26T12:04:46.999Z</time></trkpt><trkpt lat="38.95327259393898" lon="8.908538560303219"><ele>384.0</ele><time>2026-03-26T12:04:47.999Z</time></trkpt><trkpt lat="38.953336353984575" lon="8.908533574445997"><ele>388.0</ele><time>2026-03-26T12:04:48.999Z</time></trkpt><trkpt lat="38.953410010259546" lon="8.908541090381927"><ele>392.0</ele><time>2026-03-26T12:04:49.999Z</time></trkpt><trkpt lat="38.95348401465824" lon="8.908535229576897"><ele>393.6</ele><time>2026-03-26T12:04:50.999Z</time></trkpt><trkpt lat="38.95355063600004" lon="8.908540480882923"><ele>395.20000000000005</ele><time>2026-03-26T12:04:51.999Z</time></trkpt><trkpt lat="38.95363238538359" lon="8.908560270561589"><ele>396.8</ele><time>2026-03-26T12:04:52.999Z</time></trkpt><trkpt lat="38.95373411920012" lon="8.908583811842833"><ele>398.4</ele><time>2026-03-26T12:04:53.999Z</time></trkpt><trkpt lat="38.9538467502313" lon="8.908593736326688"><ele>400.0</ele><time>2026-03-26T12:04:54.999Z</time></trkpt><trkpt lat="38.953948597852516" lon="8.908646866396918"><ele>400.00000000000006</ele><time>2026-03-26T12:04:55.999Z</time></trkpt><trkpt lat="38.954036471228676" lon="8.908674266898547"><ele>400.0</ele><time>2026-03-26T12:04:56.999Z</time></trkpt><trkpt lat="38.95411594663211" lon="8.908697284749385"><ele>400.0</ele><time>2026-03-26T12:04:57.999Z</time></trkpt><trkpt lat="38.95420031469679" lon="8.90869733087264"><ele>400.0</ele><time>2026-03-26T12:04:58.999Z</time></trkpt><trkpt lat="38.954285891391145" lon="8.90871302592678"><ele>400.00000000000006</ele><time>2026-03-26T12:04:59.999Z</time></trkpt><trkpt lat="38.95436024553622" lon="8.90870818108902"><ele>400.0</ele><time>2026-03-26T12:05:00.999Z</time></trkpt><trkpt lat="38.95442347644315" lon="8.908691835757114"><ele>403.6666666666667</ele><time>2026-03-26T12:05:01.999Z</time></trkpt><trkpt lat="38.95449706751932" lon="8.90866345216107"><ele>407.33333333333337</ele><time>2026-03-26T12:05:02.999Z</time></trkpt><trkpt lat="38.95456958503316" lon="8.908653393732653"><ele>411.0</ele><time>2026-03-26T12:05:03.999Z</time></trkpt><trkpt lat="38.95463835265753" lon="8.908643673237536"><ele>414.66666666666663</ele><time>2026-03-26T12:05:05Z</time></trkpt><trkpt lat="38.95472390491274" lon="8.908626161126488"><ele>418.3333333333333</ele><time>2026-03-26T12:05:07Z</time></trkpt><trkpt lat="38.954801396512636" lon="8.908595651514837"><ele>422.0</ele><time>2026-03-26T12:05:09Z</time></trkpt><trkpt lat="38.954846179864056" lon="8.908527955001697"><ele>417.8</ele><time>2026-03-26T12:05:11Z</time></trkpt><trkpt lat="38.95479279846899" lon="8.908351634836276"><ele>413.6</ele><time>2026-03-26T12:05:12Z</time></trkpt><trkpt lat="38.954802868365846" lon="8.90822859326522"><ele>409.40000000000003</ele><time>2026-03-26T12:05:13Z</time></trkpt><trkpt lat="38.95480489795278" lon="8.908142378587575"><ele>405.20000000000005</ele><time>2026-03-26T12:05:14Z</time></trkpt><trkpt lat="38.95482263262802" lon="8.908028990047187"><ele>401.0</ele><time>2026-03-26T12:05:16Z</time></trkpt><trkpt lat="38.95495706951537" lon="8.90790717325408"><ele>400.99999999999994</ele><time>2026-03-26T12:05:19Z</time></trkpt><trkpt lat="38.95505017056741" lon="8.907805685134147"><ele>401.0</ele><time>2026-03-26T12:05:21Z</time></trkpt><trkpt lat="38.95506619362002" lon="8.907725740723086"><ele>401.0</ele><time>2026-03-26T12:05:22Z</time></trkpt><trkpt lat="38.955037106306854" lon="8.907594468144008"><ele>401.0</ele><time>2026-03-26T12:05:24Z</time></trkpt><trkpt lat="38.95500616267889" lon="8.907514681977926"><ele>400.99999999999994</ele><time>2026-03-26T12:05:25Z</time></trkpt><trkpt lat="38.95499059056036" lon="8.907434682219884"><ele>401.0</ele><time>2026-03-26T12:05:26Z</time></trkpt><trkpt lat="38.95498504441713" lon="8.907333459951072"><ele>400.6</ele><time>2026-03-26T12:05:27Z</time></trkpt><trkpt lat="38.955001361926016" lon="8.907212761806608"><ele>400.20000000000005</ele><time>2026-03-26T12:05:28Z</time></trkpt><trkpt lat="38.95501821420111" lon="8.90710216506863"><ele>399.79999999999995</ele><time>2026-03-26T12:05:29Z</time></trkpt><trkpt lat="38.955057797730966" lon="8.906996096846264"><ele>399.4</ele><time>2026-03-26T12:05:30Z</time></trkpt><trkpt lat="38.95507806737175" lon="8.906886791101318"><ele>399.0</ele><time>2026-03-26T12:05:31Z</time></trkpt><trkpt lat="38.9551245052801" lon="8.906776534026326"><ele>405.5</ele><time>2026-03-26T12:05:32Z</time></trkpt><trkpt lat="38.95517400917911" lon="8.906679980930509"><ele>412.0</ele><time>2026-03-26T12:05:33Z</time></trkpt><trkpt lat="38.95522392761629" lon="8.906605846346238"><ele>418.5</ele><time>2026-03-26T12:05:34Z</time></trkpt><trkpt lat="38.95525310512773" lon="8.90651888631278"><ele>425.0</ele><time>2026-03-26T12:05:35Z</time></trkpt><trkpt lat="38.955257476228184" lon="8.906432882147817"><ele>431.5</ele><time>2026-03-26T12:05:36Z</time></trkpt><trkpt lat="38.955245107039026" lon="8.906342247977525"><ele>438.0</ele><time>2026-03-26T12:05:37Z</time></trkpt><trkpt lat="38.95522383090928" lon="8.906254271586327"><ele>438.0</ele><time>2026-03-26T12:05:38Z</time></trkpt><trkpt lat="38.95519304497765" lon="8.906153831635892"><ele>438.0</ele><time>2026-03-26T12:05:39Z</time></trkpt><trkpt lat="38.955177433295496" lon="8.906037741245717"><ele>438.0</ele><time>2026-03-26T12:05:40Z</time></trkpt><trkpt lat="38.95514880095583" lon="8.905936809503139"><ele>438.0</ele><time>2026-03-26T12:05:41Z</time></trkpt><trkpt lat="38.95513260964598" lon="8.905842618206279"><ele>438.0</ele><time>2026-03-26T12:05:42Z</time></trkpt><trkpt lat="38.955127710991356" lon="8.90573840256959"><ele>438.0</ele><time>2026-03-26T12:05:43Z</time></trkpt><trkpt lat="38.95513367523401" lon="8.905647003038125"><ele>437.5</ele><time>2026-03-26T12:05:44Z</time></trkpt><trkpt lat="38.95514996576223" lon="8.905561986619384"><ele>437.0</ele><time>2026-03-26T12:05:45Z</time></trkpt><trkpt lat="38.955162473468775" lon="8.905401586520547"><ele>436.5</ele><time>2026-03-26T12:05:47Z</time></trkpt><trkpt lat="38.95520184595255" lon="8.905264647679756"><ele>436.0</ele><time>2026-03-26T12:05:49Z</time></trkpt><trkpt lat="38.95525242674232" lon="8.905200883171693"><ele>435.5</ele><time>2026-03-26T12:05:50Z</time></trkpt><trkpt lat="38.95529649591023" lon="8.905134382626626"><ele>435.0</ele><time>2026-03-26T12:05:51Z</time></trkpt><trkpt lat="38.95534228715236" lon="8.905062968380033"><ele>432.8333333333333</ele><time>2026-03-26T12:05:52Z</time></trkpt><trkpt lat="38.95539773571538" lon="8.904975245189581"><ele>430.66666666666663</ele><time>2026-03-26T12:05:53Z</time></trkpt><trkpt lat="38.95544634019785" lon="8.904883141473638"><ele>428.5</ele><time>2026-03-26T12:05:54Z</time></trkpt><trkpt lat="38.955486674564185" lon="8.904806102197298"><ele>426.3333333333333</ele><time>2026-03-26T12:05:55Z</time></trkpt><trkpt lat="38.95553841231765" lon="8.904742440645144"><ele>424.16666666666663</ele><time>2026-03-26T12:05:56Z</time></trkpt><trkpt lat="38.95560861944346" lon="8.904690838946578"><ele>422.0</ele><time>2026-03-26T12:05:57Z</time></trkpt><trkpt lat="38.95568651858557" lon="8.904638829741499"><ele>421.99999999999994</ele><time>2026-03-26T12:05:58Z</time></trkpt><trkpt lat="38.95576355581288" lon="8.904583542444001"><ele>422.0</ele><time>2026-03-26T12:05:59Z</time></trkpt><trkpt lat="38.95582498348068" lon="8.904517502759589"><ele>422.0</ele><time>2026-03-26T12:06:00Z</time></trkpt><trkpt lat="38.95587092986388" lon="8.904448401474024"><ele>422.0</ele><time>2026-03-26T12:06:01Z</time></trkpt><trkpt lat="38.95591062770246" lon="8.904362820464346"><ele>421.99999999999994</ele><time>2026-03-26T12:06:02Z</time></trkpt><trkpt lat="38.95595026915482" lon="8.904273427340533"><ele>422.0</ele><time>2026-03-26T12:06:03Z</time></trkpt><trkpt lat="38.95600096564699" lon="8.904178987375033"><ele>422.3333333333333</ele><time>2026-03-26T12:06:04Z</time></trkpt><trkpt lat="38.956066553086096" lon="8.904083277683478"><ele>422.66666666666663</ele><time>2026-03-26T12:06:05Z</time></trkpt><trkpt lat="38.95613167702888" lon="8.903998907553135"><ele>423.0</ele><time>2026-03-26T12:06:06Z</time></trkpt><trkpt lat="38.95619582427238" lon="8.903928372143119"><ele>423.33333333333337</ele><time>2026-03-26T12:06:07Z</time></trkpt><trkpt lat="38.95625667313358" lon="8.903876935369276"><ele>423.6666666666667</ele><time>2026-03-26T12:06:08Z</time></trkpt><trkpt lat="38.95633053677409" lon="8.903852060618467"><ele>424.0</ele><time>2026-03-26T12:06:09Z</time></trkpt><trkpt lat="38.9564065335467" lon="8.903816804564892"><ele>424.00000000000006</ele><time>2026-03-26T12:06:10Z</time></trkpt><trkpt lat="38.95647921569096" lon="8.90379324715822"><ele>424.0</ele><time>2026-03-26T12:06:11Z</time></trkpt><trkpt lat="38.95654472785287" lon="8.903782246276007"><ele>424.0</ele><time>2026-03-26T12:06:12Z</time></trkpt><trkpt lat="38.95666997528262" lon="8.90378370920347"><ele>424.0</ele><time>2026-03-26T12:06:14Z</time></trkpt><trkpt lat="38.95673987021966" lon="8.903787174900897"><ele>424.00000000000006</ele><time>2026-03-26T12:06:15Z</time></trkpt><trkpt lat="38.95680643847466" lon="8.903785418855577"><ele>424.0</ele><time>2026-03-26T12:06:16Z</time></trkpt><trkpt lat="38.9568760473908" lon="8.903782546870866"><ele>427.2</ele><time>2026-03-26T12:06:17Z</time></trkpt><trkpt lat="38.95694671235633" lon="8.90377673339355"><ele>430.4</ele><time>2026-03-26T12:06:18Z</time></trkpt><trkpt lat="38.95705446204928" lon="8.903811876927785"><ele>433.6</ele><time>2026-03-26T12:06:20Z</time></trkpt><trkpt lat="38.95716793588892" lon="8.903804376557003"><ele>436.8</ele><time>2026-03-26T12:06:22Z</time></trkpt><trkpt lat="38.95727849859901" lon="8.903719516311302"><ele>440.0</ele><time>2026-03-26T12:06:24Z</time></trkpt><trkpt lat="38.957332049029255" lon="8.903659258147224"><ele>440.0</ele><time>2026-03-26T12:06:25Z</time></trkpt><trkpt lat="38.95737689856298" lon="8.903596491096861"><ele>440.0</ele><time>2026-03-26T12:06:26Z</time></trkpt><trkpt lat="38.957450679575416" lon="8.903491818814176"><ele>440.0</ele><time>2026-03-26T12:06:28Z</time></trkpt><trkpt lat="38.957562423630286" lon="8.903398659053105"><ele>440.0</ele><time>2026-03-26T12:06:30Z</time></trkpt><trkpt lat="38.957638237575836" lon="8.903354966063802"><ele>440.0</ele><time>2026-03-26T12:06:31Z</time></trkpt><trkpt lat="38.95771586761466" lon="8.903312724601305"><ele>441.57142857142856</ele><time>2026-03-26T12:06:32Z</time></trkpt><trkpt lat="38.95778490405752" lon="8.90326884420239"><ele>443.1428571428571</ele><time>2026-03-26T12:06:33Z</time></trkpt><trkpt lat="38.957849163027284" lon="8.903232636507141"><ele>444.71428571428567</ele><time>2026-03-26T12:06:34Z</time></trkpt><trkpt lat="38.957906911116076" lon="8.903180833389962"><ele>446.2857142857143</ele><time>2026-03-26T12:06:35Z</time></trkpt><trkpt lat="38.95794684025075" lon="8.903113130653265"><ele>447.8571428571429</ele><time>2026-03-26T12:06:36Z</time></trkpt><trkpt lat="38.95798729430115" lon="8.903037687453653"><ele>449.4285714285714</ele><time>2026-03-26T12:06:37Z</time></trkpt><trkpt lat="38.958008734156586" lon="8.902948900495641"><ele>451.0</ele><time>2026-03-26T12:06:38Z</time></trkpt><trkpt lat="38.95805866497486" lon="8.90287478838253"><ele>451.00000000000006</ele><time>2026-03-26T12:06:39Z</time></trkpt><trkpt lat="38.958073185995886" lon="8.90277851066601"><ele>451.0</ele><time>2026-03-26T12:06:40Z</time></trkpt><trkpt lat="38.958069170374436" lon="8.902677882911389"><ele>451.0</ele><time>2026-03-26T12:06:41Z</time></trkpt><trkpt lat="38.95805460255817" lon="8.902593493635077"><ele>451.0</ele><time>2026-03-26T12:06:42Z</time></trkpt><trkpt lat="38.958052717932325" lon="8.902462519114072"><ele>451.00000000000006</ele><time>2026-03-26T12:06:43.999Z</time></trkpt><trkpt lat="38.95810252424308" lon="8.902405690264809"><ele>451.0</ele><time>2026-03-26T12:06:45.999Z</time></trkpt><trkpt lat="38.958152825615485" lon="8.902356382947906"><ele>449.6</ele><time>2026-03-26T12:06:47.999Z</time></trkpt><trkpt lat="38.95822200338678" lon="8.902357406211085"><ele>448.20000000000005</ele><time>2026-03-26T12:06:49.999Z</time></trkpt><trkpt lat="38.958316643496495" lon="8.902421086328882"><ele>446.79999999999995</ele><time>2026-03-26T12:06:51.999Z</time></trkpt><trkpt lat="38.95841163120314" lon="8.90246368306004"><ele>445.4</ele><time>2026-03-26T12:06:53.999Z</time></trkpt><trkpt lat="38.958510101580636" lon="8.902433127550047"><ele>444.0</ele><time>2026-03-26T12:06:55.999Z</time></trkpt><trkpt lat="38.958635683837585" lon="8.902406606058168"><ele>444.0</ele><time>2026-03-26T12:06:57.999Z</time></trkpt><trkpt lat="38.95870304564901" lon="8.90239549784652"><ele>444.0</ele><time>2026-03-26T12:06:58.999Z</time></trkpt><trkpt lat="38.95877360824902" lon="8.902383070163948"><ele>444.0</ele><time>2026-03-26T12:06:59.999Z</time></trkpt><trkpt lat="38.95883956697255" lon="8.902381527420927"><ele>444.0</ele><time>2026-03-26T12:07:00.999Z</time></trkpt><trkpt lat="38.95894877849526" lon="8.902421208400668"><ele>444.0</ele><time>2026-03-26T12:07:02.999Z</time></trkpt><trkpt lat="38.95901893410225" lon="8.902508915177782"><ele>444.0</ele><time>2026-03-26T12:07:04.999Z</time></trkpt><trkpt lat="38.959085686700206" lon="8.90262164066577"><ele>447.4</ele><time>2026-03-26T12:07:06.999Z</time></trkpt><trkpt lat="38.959158039473095" lon="8.902708570533083"><ele>450.79999999999995</ele><time>2026-03-26T12:07:08.999Z</time></trkpt><trkpt lat="38.959231293501226" lon="8.902802620113375"><ele>454.20000000000005</ele><time>2026-03-26T12:07:11Z</time></trkpt><trkpt lat="38.95928314727386" lon="8.902932592579612"><ele>457.6</ele><time>2026-03-26T12:07:13Z</time></trkpt><trkpt lat="38.95929946490941" lon="8.90307567719272"><ele>461.0</ele><time>2026-03-26T12:07:15Z</time></trkpt><trkpt lat="38.959285368633175" lon="8.9032334610658"><ele>460.99999999999994</ele><time>2026-03-26T12:07:17Z</time></trkpt><trkpt lat="38.95926791126622" lon="8.903315567180869"><ele>461.0</ele><time>2026-03-26T12:07:18Z</time></trkpt><trkpt lat="38.959241969929" lon="8.9034327564091"><ele>461.0</ele><time>2026-03-26T12:07:20Z</time></trkpt><trkpt lat="38.9592684378371" lon="8.90351610621917"><ele>461.0</ele><time>2026-03-26T12:07:22Z</time></trkpt><trkpt lat="38.95934440707675" lon="8.903568669655254"><ele>460.99999999999994</ele><time>2026-03-26T12:07:24Z</time></trkpt><trkpt lat="38.9594664108805" lon="8.90362207030425"><ele>461.0</ele><time>2026-03-26T12:07:26Z</time></trkpt><trkpt lat="38.95954170923534" lon="8.90363276011788"><ele>464.8333333333333</ele><time>2026-03-26T12:07:27Z</time></trkpt><trkpt lat="38.95961507245959" lon="8.903640480743407"><ele>468.66666666666663</ele><time>2026-03-26T12:07:28Z</time></trkpt><trkpt lat="38.959729718169086" lon="8.90364065217665"><ele>472.5</ele><time>2026-03-26T12:07:30Z</time></trkpt><trkpt lat="38.95985195768254" lon="8.90363198262369"><ele>476.33333333333337</ele><time>2026-03-26T12:07:32Z</time></trkpt><trkpt lat="38.95991513002526" lon="8.903634680352434"><ele>480.1666666666667</ele><time>2026-03-26T12:07:33Z</time></trkpt><trkpt lat="38.95998087564513" lon="8.903636286949421"><ele>484.0</ele><time>2026-03-26T12:07:34Z</time></trkpt><trkpt lat="38.96004543516435" lon="8.903640323673846"><ele>484.0</ele><time>2026-03-26T12:07:35Z</time></trkpt><trkpt lat="38.960170431594136" lon="8.903667186882265"><ele>484.0</ele><time>2026-03-26T12:07:37Z</time></trkpt><trkpt lat="38.960288504656205" lon="8.903643207359083"><ele>484.0</ele><time>2026-03-26T12:07:39Z</time></trkpt><trkpt lat="38.96039502909907" lon="8.903589662852555"><ele>484.0</ele><time>2026-03-26T12:07:41Z</time></trkpt><trkpt lat="38.96046362853706" lon="8.903598823296743"><ele>484.0</ele><time>2026-03-26T12:07:42Z</time></trkpt><trkpt lat="38.96053283699102" lon="8.90361596348594"><ele>484.0</ele><time>2026-03-26T12:07:43Z</time></trkpt><trkpt lat="38.96059422255941" lon="8.903637546618446"><ele>484.0</ele><time>2026-03-26T12:07:44Z</time></trkpt><trkpt lat="38.960695683683575" lon="8.90368563322489"><ele>484.0</ele><time>2026-03-26T12:07:46Z</time></trkpt><trkpt lat="38.960802290804985" lon="8.90371657294444"><ele>484.0</ele><time>2026-03-26T12:07:48Z</time></trkpt><trkpt lat="38.96092153080886" lon="8.903734808372194"><ele>484.0</ele><time>2026-03-26T12:07:50Z</time></trkpt><trkpt lat="38.961040858756355" lon="8.903762629864463"><ele>483.0</ele><time>2026-03-26T12:07:52Z</time></trkpt><trkpt lat="38.96110244945628" lon="8.903824956469286"><ele>481.99999999999994</ele><time>2026-03-26T12:07:54Z</time></trkpt><trkpt lat="38.96116370259809" lon="8.903915608832715"><ele>481.0</ele><time>2026-03-26T12:07:57Z</time></trkpt><trkpt lat="38.961213282071995" lon="8.903999910509501"><ele>480.0</ele><time>2026-03-26T12:08:01Z</time></trkpt><trkpt lat="38.96125755199998" lon="8.904061178072991"><ele>478.99999999999994</ele><time>2026-03-26T12:08:05Z</time></trkpt><trkpt lat="38.96129700290864" lon="8.904124438579398"><ele>478.0</ele><time>2026-03-26T12:08:11Z</time></trkpt><trkpt lat="38.96132785893851" lon="8.904196770522924"><ele>477.0</ele><time>2026-03-26T12:08:43Z</time></trkpt><trkpt lat="38.96133769553656" lon="8.904292492273987"><ele>479.8333333333333</ele><time>2026-03-26T12:09:23Z</time></trkpt><trkpt lat="38.96134037860207" lon="8.904379152723566"><ele>482.66666666666663</ele><time>2026-03-26T12:09:27Z</time></trkpt><trkpt lat="38.96136631617376" lon="8.904472782877773"><ele>485.5</ele><time>2026-03-26T12:09:30Z</time></trkpt><trkpt lat="38.96138299236815" lon="8.90455522971599"><ele>488.3333333333333</ele><time>2026-03-26T12:10:09Z</time></trkpt><trkpt lat="38.961442806337026" lon="8.904630706137114"><ele>491.16666666666663</ele><time>2026-03-26T12:10:13Z</time></trkpt><trkpt lat="38.96147157492633" lon="8.904706782138188"><ele>494.0</ele><time>2026-03-26T12:10:16Z</time></trkpt><trkpt lat="38.96154972385443" lon="8.904790049061779"><ele>493.99999999999994</ele><time>2026-03-26T12:10:20Z</time></trkpt><trkpt lat="38.961594960764565" lon="8.904887486847246"><ele>494.0</ele><time>2026-03-26T12:10:23Z</time></trkpt><trkpt lat="38.961595401909584" lon="8.904988416943151"><ele>494.0</ele><time>2026-03-26T12:10:27Z</time></trkpt><trkpt lat="38.961611894414304" lon="8.905088373762561"><ele>494.0</ele><time>2026-03-26T12:10:30Z</time></trkpt><trkpt lat="38.96162087845203" lon="8.905170499131774"><ele>493.99999999999994</ele><time>2026-03-26T12:10:34Z</time></trkpt><trkpt lat="38.961621263556076" lon="8.905271536558402"><ele>494.0</ele><time>2026-03-26T12:10:37Z</time></trkpt><trkpt lat="38.96169278504313" lon="8.905344649083538"><ele>494.7142857142857</ele><time>2026-03-26T12:10:40Z</time></trkpt><trkpt lat="38.961700476577576" lon="8.905430913331012"><ele>495.42857142857144</ele><time>2026-03-26T12:10:43Z</time></trkpt><trkpt lat="38.96171306837574" lon="8.90551553748433"><ele>496.14285714285717</ele><time>2026-03-26T12:10:51Z</time></trkpt><trkpt lat="38.9617293383223" lon="8.905605835823993"><ele>496.8571428571429</ele><time>2026-03-26T12:10:55Z</time></trkpt><trkpt lat="38.96178816861311" lon="8.905654386746724"><ele>497.57142857142856</ele><time>2026-03-26T12:10:58Z</time></trkpt><trkpt lat="38.96181515646512" lon="8.905730359234166"><ele>498.28571428571433</ele><time>2026-03-26T12:11:01Z</time></trkpt><trkpt lat="38.96183121576394" lon="8.905823399299713"><ele>499.00000000000006</ele><time>2026-03-26T12:11:04.999Z</time></trkpt><trkpt lat="38.96188788052545" lon="8.905884729488706"><ele>497.6666666666667</ele><time>2026-03-26T12:11:07.999Z</time></trkpt><trkpt lat="38.96193727423077" lon="8.905954346397117"><ele>496.33333333333337</ele><time>2026-03-26T12:11:11.999Z</time></trkpt><trkpt lat="38.96196230143775" lon="8.906039511195512"><ele>495.0</ele><time>2026-03-26T12:11:15.999Z</time></trkpt><trkpt lat="38.962013841827975" lon="8.906142818599527"><ele>493.66666666666663</ele><time>2026-03-26T12:11:58Z</time></trkpt><trkpt lat="38.9621053800788" lon="8.906093830855113"><ele>492.3333333333333</ele><time>2026-03-26T12:12:01Z</time></trkpt><trkpt lat="38.9621596299639" lon="8.906049179597185"><ele>491.0</ele><time>2026-03-26T12:12:02Z</time></trkpt><trkpt lat="38.962260175906025" lon="8.905976217117418"><ele>490.99999999999994</ele><time>2026-03-26T12:12:04Z</time></trkpt><trkpt lat="38.96231995728301" lon="8.905935597963403"><ele>491.0</ele><time>2026-03-26T12:12:05Z</time></trkpt><trkpt lat="38.96237770356115" lon="8.905879901791119"><ele>491.0</ele><time>2026-03-26T12:12:06Z</time></trkpt><trkpt lat="38.962442582114726" lon="8.905802755771534"><ele>491.0</ele><time>2026-03-26T12:12:07Z</time></trkpt><trkpt lat="38.962490618619306" lon="8.905732675606625"><ele>490.99999999999994</ele><time>2026-03-26T12:12:08Z</time></trkpt><trkpt lat="38.96259203054335" lon="8.905626254556818"><ele>491.0</ele><time>2026-03-26T12:12:10Z</time></trkpt><trkpt lat="38.96266070174391" lon="8.905570963039295"><ele>491.16666666666663</ele><time>2026-03-26T12:12:11Z</time></trkpt><trkpt lat="38.96273481635708" lon="8.905515743715018"><ele>491.3333333333333</ele><time>2026-03-26T12:12:12Z</time></trkpt><trkpt lat="38.962810749501294" lon="8.905461502320552"><ele>491.5</ele><time>2026-03-26T12:12:13Z</time></trkpt><trkpt lat="38.962878639547675" lon="8.905410638451945"><ele>491.66666666666663</ele><time>2026-03-26T12:12:14Z</time></trkpt><trkpt lat="38.96293740708939" lon="8.905364976033265"><ele>491.8333333333333</ele><time>2026-03-26T12:12:15Z</time></trkpt><trkpt lat="38.96300292703999" lon="8.905316515492713"><ele>492.0</ele><time>2026-03-26T12:12:16Z</time></trkpt><trkpt lat="38.96307765628423" lon="8.905281623409822"><ele>492.0</ele><time>2026-03-26T12:12:17Z</time></trkpt><trkpt lat="38.96316060453499" lon="8.905256165085184"><ele>492.0</ele><time>2026-03-26T12:12:18Z</time></trkpt><trkpt lat="38.96324863601711" lon="8.905230259298524"><ele>492.0</ele><time>2026-03-26T12:12:19Z</time></trkpt><trkpt lat="38.96333467481529" lon="8.905203208538857"><ele>492.0</ele><time>2026-03-26T12:12:20Z</time></trkpt><trkpt lat="38.96341424988477" lon="8.905185526893634"><ele>492.0</ele><time>2026-03-26T12:12:21Z</time></trkpt><trkpt lat="38.96349296135278" lon="8.905166559266005"><ele>492.0</ele><time>2026-03-26T12:12:22Z</time></trkpt><trkpt lat="38.963569992093134" lon="8.905139472039126"><ele>491.0</ele><time>2026-03-26T12:12:23Z</time></trkpt><trkpt lat="38.963640916208085" lon="8.905115512742231"><ele>490.0</ele><time>2026-03-26T12:12:24Z</time></trkpt><trkpt lat="38.96371732487093" lon="8.905097882536573"><ele>489.0</ele><time>2026-03-26T12:12:25Z</time></trkpt><trkpt lat="38.963799632543804" lon="8.905086882406936"><ele>488.0</ele><time>2026-03-26T12:12:26Z</time></trkpt><trkpt lat="38.96388373833713" lon="8.905074027637703"><ele>487.0</ele><time>2026-03-26T12:12:27Z</time></trkpt><trkpt lat="38.963968471641884" lon="8.90506596190116"><ele>486.0</ele><time>2026-03-26T12:12:28Z</time></trkpt><trkpt lat="38.96405232694479" lon="8.905054404863986"><ele>486.85714285714283</ele><time>2026-03-26T12:12:29Z</time></trkpt><trkpt lat="38.96412038020355" lon="8.905020865178516"><ele>487.7142857142858</ele><time>2026-03-26T12:12:30Z</time></trkpt><trkpt lat="38.96416793702599" lon="8.904963315115973"><ele>488.5714285714286</ele><time>2026-03-26T12:12:31Z</time></trkpt><trkpt lat="38.964212386427235" lon="8.904888324850964"><ele>489.42857142857144</ele><time>2026-03-26T12:12:32Z</time></trkpt><trkpt lat="38.96425472908226" lon="8.904807903527495"><ele>490.28571428571433</ele><time>2026-03-26T12:12:33Z</time></trkpt><trkpt lat="38.964287647704765" lon="8.904729918642627"><ele>491.1428571428572</ele><time>2026-03-26T12:12:34Z</time></trkpt><trkpt lat="38.96432143434354" lon="8.904652071165447"><ele>492.00000000000006</ele><time>2026-03-26T12:12:35Z</time></trkpt><trkpt lat="38.96436569224342" lon="8.904567234746109"><ele>492.0</ele><time>2026-03-26T12:12:36Z</time></trkpt><trkpt lat="38.96441408890581" lon="8.904473764055277"><ele>492.0</ele><time>2026-03-26T12:12:37Z</time></trkpt><trkpt lat="38.964459384893516" lon="8.904382212878584"><ele>492.0</ele><time>2026-03-26T12:12:38Z</time></trkpt><trkpt lat="38.96450522098257" lon="8.904288560706034"><ele>492.0</ele><time>2026-03-26T12:12:39Z</time></trkpt><trkpt lat="38.96455025440792" lon="8.904193499221666"><ele>492.0</ele><time>2026-03-26T12:12:40Z</time></trkpt><trkpt lat="38.96459039396897" lon="8.904103434070867"><ele>492.0</ele><time>2026-03-26T12:12:41Z</time></trkpt><trkpt lat="38.96462902571203" lon="8.904022610742906"><ele>493.1666666666667</ele><time>2026-03-26T12:12:42Z</time></trkpt><trkpt lat="38.964660219896835" lon="8.903944870388"><ele>494.33333333333337</ele><time>2026-03-26T12:12:43Z</time></trkpt><trkpt lat="38.96472402671264" lon="8.903807537534492"><ele>495.5</ele><time>2026-03-26T12:12:45Z</time></trkpt><trkpt lat="38.96476869486382" lon="8.903739786466613"><ele>496.6666666666667</ele><time>2026-03-26T12:12:46Z</time></trkpt><trkpt lat="38.9648162895692" lon="8.903685427486403"><ele>497.83333333333337</ele><time>2026-03-26T12:12:47Z</time></trkpt><trkpt lat="38.964878690215976" lon="8.903646974755286"><ele>499.0</ele><time>2026-03-26T12:12:48Z</time></trkpt><trkpt lat="38.96494874248126" lon="8.90361751182265"><ele>499.00000000000006</ele><time>2026-03-26T12:12:49Z</time></trkpt><trkpt lat="38.96501712891677" lon="8.903569662605491"><ele>499.0</ele><time>2026-03-26T12:12:50Z</time></trkpt><trkpt lat="38.96507749176251" lon="8.903498524967702"><ele>499.0</ele><time>2026-03-26T12:12:51Z</time></trkpt><trkpt lat="38.965124174774324" lon="8.903408356684551"><ele>499.0</ele><time>2026-03-26T12:12:52Z</time></trkpt><trkpt lat="38.965157772584085" lon="8.903321770811715"><ele>499.00000000000006</ele><time>2026-03-26T12:12:53Z</time></trkpt><trkpt lat="38.96521507171274" lon="8.903191502603203"><ele>499.0</ele><time>2026-03-26T12:12:55Z</time></trkpt><trkpt lat="38.965312738356644" lon="8.903105879961608"><ele>499.1666666666667</ele><time>2026-03-26T12:12:57Z</time></trkpt><trkpt lat="38.96538003582028" lon="8.903097056912511"><ele>499.33333333333337</ele><time>2026-03-26T12:12:58Z</time></trkpt><trkpt lat="38.96546412466665" lon="8.903103645105842"><ele>499.5</ele><time>2026-03-26T12:12:59Z</time></trkpt><trkpt lat="38.96556027137071" lon="8.903121080637645"><ele>499.66666666666663</ele><time>2026-03-26T12:13:00Z</time></trkpt><trkpt lat="38.965657440473436" lon="8.903143024883402"><ele>499.8333333333333</ele><time>2026-03-26T12:13:01Z</time></trkpt><trkpt lat="38.96574311435437" lon="8.90316530256094"><ele>500.0</ele><time>2026-03-26T12:13:02Z</time></trkpt><trkpt lat="38.9658323408572" lon="8.903190880419292"><ele>501.6</ele><time>2026-03-26T12:13:03Z</time></trkpt><trkpt lat="38.96591876550674" lon="8.903230195522811"><ele>503.2</ele><time>2026-03-26T12:13:04Z</time></trkpt><trkpt lat="38.96600372668563" lon="8.9032758887782"><ele>504.79999999999995</ele><time>2026-03-26T12:13:05Z</time></trkpt><trkpt lat="38.96609470286502" lon="8.903308297377748"><ele>506.4</ele><time>2026-03-26T12:13:06Z</time></trkpt><trkpt lat="38.966186516616006" lon="8.903328769364476"><ele>508.0</ele><time>2026-03-26T12:13:07Z</time></trkpt><trkpt lat="38.966271495588245" lon="8.903356366485449"><ele>508.00000000000006</ele><time>2026-03-26T12:13:08Z</time></trkpt><trkpt lat="38.96634719182318" lon="8.903397261798604"><ele>508.0</ele><time>2026-03-26T12:13:09Z</time></trkpt><trkpt lat="38.96641886861924" lon="8.903457258873637"><ele>508.0</ele><time>2026-03-26T12:13:10Z</time></trkpt><trkpt lat="38.96648675114377" lon="8.903527619605502"><ele>508.0</ele><time>2026-03-26T12:13:11Z</time></trkpt><trkpt lat="38.966547283310085" lon="8.903604230143904"><ele>508.00000000000006</ele><time>2026-03-26T12:13:12Z</time></trkpt><trkpt lat="38.966607472957605" lon="8.903689143228279"><ele>508.0</ele><time>2026-03-26T12:13:13Z</time></trkpt><trkpt lat="38.966689366985" lon="8.903749615843363"><ele>507.28571428571433</ele><time>2026-03-26T12:13:13.999Z</time></trkpt><trkpt lat="38.96676638491994" lon="8.903790341798434"><ele>506.57142857142856</ele><time>2026-03-26T12:13:14.999Z</time></trkpt><trkpt lat="38.96682871515372" lon="8.903803857569951"><ele>505.8571428571429</ele><time>2026-03-26T12:13:15.999Z</time></trkpt><trkpt lat="38.96689255834364" lon="8.903814283800429"><ele>505.14285714285717</ele><time>2026-03-26T12:13:16.999Z</time></trkpt><trkpt lat="38.966958875559854" lon="8.903828070358655"><ele>504.42857142857144</ele><time>2026-03-26T12:13:17.999Z</time></trkpt><trkpt lat="38.96703926520251" lon="8.903847560190023"><ele>503.7142857142857</ele><time>2026-03-26T12:13:18.999Z</time></trkpt><trkpt lat="38.96711127392293" lon="8.903863855185907"><ele>503.0</ele><time>2026-03-26T12:13:19.999Z</time></trkpt><trkpt lat="38.96717984624262" lon="8.903881445748457"><ele>503.0</ele><time>2026-03-26T12:13:20.999Z</time></trkpt><trkpt lat="38.96728195535138" lon="8.90395175709521"><ele>502.99999999999994</ele><time>2026-03-26T12:13:22.999Z</time></trkpt><trkpt lat="38.96737420557441" lon="8.904026576947668"><ele>502.99999999999994</ele><time>2026-03-26T12:13:24.999Z</time></trkpt><trkpt lat="38.96745080202836" lon="8.904105216257665"><ele>503.0</ele><time>2026-03-26T12:13:26.999Z</time></trkpt><trkpt lat="38.967514731188274" lon="8.904175074006965"><ele>503.0</ele><time>2026-03-26T12:13:29Z</time></trkpt><trkpt lat="38.967572341158025" lon="8.904241515168618"><ele>500.2</ele><time>2026-03-26T12:13:31Z</time></trkpt><trkpt lat="38.967669423952046" lon="8.904225315258467"><ele>497.4</ele><time>2026-03-26T12:13:34Z</time></trkpt><trkpt lat="38.967707401544665" lon="8.904117425655624"><ele>494.59999999999997</ele><time>2026-03-26T12:13:36Z</time></trkpt><trkpt lat="38.96774503562169" lon="8.903982214898722"><ele>491.79999999999995</ele><time>2026-03-26T12:13:38Z</time></trkpt><trkpt lat="38.967807497785536" lon="8.903890410706252"><ele>489.0</ele><time>2026-03-26T12:13:40Z</time></trkpt><trkpt lat="38.9678889974017" lon="8.903792563566139"><ele>489.0</ele><time>2026-03-26T12:13:42Z</time></trkpt><trkpt lat="38.967926013795335" lon="8.903689958624165"><ele>489.0</ele><time>2026-03-26T12:13:44Z</time></trkpt><trkpt lat="38.9679713542849" lon="8.903609952375696"><ele>489.0</ele><time>2026-03-26T12:13:46Z</time></trkpt><trkpt lat="38.96800903024139" lon="8.90354141571293"><ele>489.0</ele><time>2026-03-26T12:13:47Z</time></trkpt><trkpt lat="38.96804449583653" lon="8.903390522328088"><ele>489.0</ele><time>2026-03-26T12:13:49Z</time></trkpt><trkpt lat="38.968075017750216" lon="8.9032406789925"><ele>487.79999999999995</ele><time>2026-03-26T12:13:51Z</time></trkpt><trkpt lat="38.96810455170779" lon="8.903089841481641"><ele>486.59999999999997</ele><time>2026-03-26T12:13:53Z</time></trkpt><trkpt lat="38.96813301866614" lon="8.902926297027209"><ele>485.4</ele><time>2026-03-26T12:13:55Z</time></trkpt><trkpt lat="38.968142937470844" lon="8.902779968233192"><ele>484.2</ele><time>2026-03-26T12:13:57Z</time></trkpt><trkpt lat="38.96815172529343" lon="8.902697685774232"><ele>483.0</ele><time>2026-03-26T12:13:58Z</time></trkpt><trkpt lat="38.96815704630061" lon="8.90261028382318"><ele>481.6666666666667</ele><time>2026-03-26T12:13:59Z</time></trkpt><trkpt lat="38.96815362711531" lon="8.902510659082338"><ele>480.33333333333337</ele><time>2026-03-26T12:14:00Z</time></trkpt><trkpt lat="38.96813633599335" lon="8.902413404620388"><ele>479.0</ele><time>2026-03-26T12:14:01Z</time></trkpt><trkpt lat="38.96811836832055" lon="8.902315911430703"><ele>477.6666666666667</ele><time>2026-03-26T12:14:02Z</time></trkpt><trkpt lat="38.968097295701874" lon="8.902223322844407"><ele>476.33333333333337</ele><time>2026-03-26T12:14:03Z</time></trkpt><trkpt lat="38.96807166274483" lon="8.902135513869226"><ele>475.0</ele><time>2026-03-26T12:14:04Z</time></trkpt><trkpt lat="38.968037931974216" lon="8.902051149557606"><ele>475.00000000000006</ele><time>2026-03-26T12:14:05Z</time></trkpt><trkpt lat="38.96800246995898" lon="8.90196536778032"><ele>475.0</ele><time>2026-03-26T12:14:06Z</time></trkpt><trkpt lat="38.96796634081095" lon="8.901886210588598"><ele>475.0</ele><time>2026-03-26T12:14:07Z</time></trkpt><trkpt lat="38.96793157306971" lon="8.901816395206577"><ele>475.0</ele><time>2026-03-26T12:14:08Z</time></trkpt><trkpt lat="38.96786691170669" lon="8.90169666652445"><ele>475.00000000000006</ele><time>2026-03-26T12:14:10Z</time></trkpt><trkpt lat="38.96783860411678" lon="8.901574888252082"><ele>475.0</ele><time>2026-03-26T12:14:12Z</time></trkpt><trkpt lat="38.967865239373204" lon="8.901477462003143"><ele>472.6</ele><time>2026-03-26T12:14:14Z</time></trkpt><trkpt lat="38.96793082187247" lon="8.90143777474397"><ele>470.2</ele><time>2026-03-26T12:14:16Z</time></trkpt><trkpt lat="38.96803729681844" lon="8.90144189200463"><ele>467.79999999999995</ele><time>2026-03-26T12:14:18Z</time></trkpt><trkpt lat="38.96815935695067" lon="8.901432889978446"><ele>465.4</ele><time>2026-03-26T12:14:20Z</time></trkpt><trkpt lat="38.9682242412755" lon="8.901410003973753"><ele>463.0</ele><time>2026-03-26T12:14:21Z</time></trkpt><trkpt lat="38.9682948904863" lon="8.901353656245233"><ele>459.2</ele><time>2026-03-26T12:14:22Z</time></trkpt><trkpt lat="38.968364203458385" lon="8.901311897101358"><ele>455.4</ele><time>2026-03-26T12:14:23Z</time></trkpt><trkpt lat="38.96847636708677" lon="8.901317961437073"><ele>451.59999999999997</ele><time>2026-03-26T12:14:25Z</time></trkpt><trkpt lat="38.96853798527773" lon="8.901355570565068"><ele>447.79999999999995</ele><time>2026-03-26T12:14:26Z</time></trkpt><trkpt lat="38.96861476596731" lon="8.901438859046419"><ele>444.0</ele><time>2026-03-26T12:14:28Z</time></trkpt><trkpt lat="38.968706246084416" lon="8.901475750877449"><ele>444.0</ele><time>2026-03-26T12:14:30Z</time></trkpt><trkpt lat="38.96880246790371" lon="8.901482504718834"><ele>444.0</ele><time>2026-03-26T12:14:32Z</time></trkpt><trkpt lat="38.96890459975279" lon="8.901467769144968"><ele>444.0</ele><time>2026-03-26T12:14:34Z</time></trkpt><trkpt lat="38.96903213693254" lon="8.901467505505957"><ele>444.0</ele><time>2026-03-26T12:14:36Z</time></trkpt><trkpt lat="38.96909991808253" lon="8.901480808323289"><ele>444.0</ele><time>2026-03-26T12:14:37Z</time></trkpt><trkpt lat="38.96921357228083" lon="8.901535654312292"><ele>441.6</ele><time>2026-03-26T12:14:39Z</time></trkpt><trkpt lat="38.96931216686478" lon="8.901606983222141"><ele>439.2</ele><time>2026-03-26T12:14:41Z</time></trkpt><trkpt lat="38.96942583865036" lon="8.901667417449229"><ele>436.80000000000007</ele><time>2026-03-26T12:14:43Z</time></trkpt><trkpt lat="38.96948361672966" lon="8.901702762637676"><ele>434.40000000000003</ele><time>2026-03-26T12:14:44Z</time></trkpt><trkpt lat="38.96953807267257" lon="8.901751255194926"><ele>432.0</ele><time>2026-03-26T12:14:45Z</time></trkpt><trkpt lat="38.96961599676252" lon="8.901842870733363"><ele>432.0</ele><time>2026-03-26T12:14:47Z</time></trkpt><trkpt lat="38.96969269592724" lon="8.901904508532189"><ele>432.0</ele><time>2026-03-26T12:14:49Z</time></trkpt><trkpt lat="38.969763063573176" lon="8.901924792530442"><ele>432.0</ele><time>2026-03-26T12:14:51Z</time></trkpt><trkpt lat="38.969813857816824" lon="8.90183498096202"><ele>432.0</ele><time>2026-03-26T12:14:54Z</time></trkpt><trkpt lat="38.969775858339716" lon="8.901726264535416"><ele>432.0</ele><time>2026-03-26T12:14:56Z</time></trkpt><trkpt lat="38.969720832844644" lon="8.90163583484109"><ele>432.0</ele><time>2026-03-26T12:14:58Z</time></trkpt><trkpt lat="38.96967623195376" lon="8.901537726990801"><ele>429.20000000000005</ele><time>2026-03-26T12:15:00Z</time></trkpt><trkpt lat="38.969632766107196" lon="8.901439525172606"><ele>426.40000000000003</ele><time>2026-03-26T12:15:02Z</time></trkpt><trkpt lat="38.96959610747237" lon="8.90135273758474"><ele>423.6</ele><time>2026-03-26T12:15:04Z</time></trkpt><trkpt lat="38.96956201845547" lon="8.901244206892251"><ele>420.79999999999995</ele><time>2026-03-26T12:15:06Z</time></trkpt><trkpt lat="38.96953349927011" lon="8.901117990658527"><ele>418.0</ele><time>2026-03-26T12:15:08Z</time></trkpt><trkpt lat="38.969522576709814" lon="8.90097827297443"><ele>415.1666666666667</ele><time>2026-03-26T12:15:10Z</time></trkpt><trkpt lat="38.96949705360476" lon="8.900854893635946"><ele>412.33333333333337</ele><time>2026-03-26T12:15:12Z</time></trkpt><trkpt lat="38.96945523967617" lon="8.90075538051156"><ele>409.5</ele><time>2026-03-26T12:15:14Z</time></trkpt><trkpt lat="38.96938965910552" lon="8.900666137694904"><ele>406.66666666666663</ele><time>2026-03-26T12:15:16Z</time></trkpt><trkpt lat="38.96936017649039" lon="8.900579172700995"><ele>403.8333333333333</ele><time>2026-03-26T12:15:18Z</time></trkpt><trkpt lat="38.969432410330334" lon="8.900540380899967"><ele>401.0</ele><time>2026-03-26T12:15:20Z</time></trkpt><trkpt lat="38.96953198859383" lon="8.900581287862599"><ele>401.0</ele><time>2026-03-26T12:15:22Z</time></trkpt><trkpt lat="38.969631664715955" lon="8.900638019657341"><ele>401.0</ele><time>2026-03-26T12:15:24Z</time></trkpt><trkpt lat="38.969710039949064" lon="8.900727055146541"><ele>401.0</ele><time>2026-03-26T12:15:26Z</time></trkpt><trkpt lat="38.96979030317255" lon="8.900850107258426"><ele>401.0</ele><time>2026-03-26T12:15:28Z</time></trkpt><trkpt lat="38.96988161578888" lon="8.900944867992159"><ele>397.8</ele><time>2026-03-26T12:15:29.999Z</time></trkpt><trkpt lat="38.96997283328416" lon="8.901029559831237"><ele>394.6</ele><time>2026-03-26T12:15:31.999Z</time></trkpt><trkpt lat="38.97006057776081" lon="8.901096646139184"><ele>391.4</ele><time>2026-03-26T12:15:33.999Z</time></trkpt><trkpt lat="38.97013714510886" lon="8.901124052402652"><ele>388.2</ele><time>2026-03-26T12:15:36Z</time></trkpt><trkpt lat="38.97017452509708" lon="8.901044515032291"><ele>385.0</ele><time>2026-03-26T12:15:39Z</time></trkpt><trkpt lat="38.970111572832494" lon="8.900949385758953"><ele>382.6</ele><time>2026-03-26T12:15:42Z</time></trkpt><trkpt lat="38.97003099098973" lon="8.90087943811481"><ele>380.2</ele><time>2026-03-26T12:15:44.001Z</time></trkpt><trkpt lat="38.96996258767626" lon="8.900764665857187"><ele>377.79999999999995</ele><time>2026-03-26T12:15:46.001Z</time></trkpt><trkpt lat="38.969920284897974" lon="8.900653919451473"><ele>375.4</ele><time>2026-03-26T12:15:48.001Z</time></trkpt><trkpt lat="38.9698578220313" lon="8.900522541851155"><ele>373.0</ele><time>2026-03-26T12:15:50Z</time></trkpt><trkpt lat="38.96982091473672" lon="8.900455051511162"><ele>377.66666666666663</ele><time>2026-03-26T12:15:51Z</time></trkpt><trkpt lat="38.96977388184198" lon="8.900383217180636"><ele>382.3333333333333</ele><time>2026-03-26T12:15:52Z</time></trkpt><trkpt lat="38.96971731433919" lon="8.900317778830857"><ele>387.0</ele><time>2026-03-26T12:15:53Z</time></trkpt><trkpt lat="38.96965604833228" lon="8.900261526638927"><ele>391.66666666666663</ele><time>2026-03-26T12:15:54Z</time></trkpt><trkpt lat="38.96959345146496" lon="8.900227488959116"><ele>396.3333333333333</ele><time>2026-03-26T12:15:55Z</time></trkpt><trkpt lat="38.969506101937824" lon="8.900174418417562"><ele>401.0</ele><time>2026-03-26T12:15:57Z</time></trkpt><trkpt lat="38.969438542901756" lon="8.900123171076693"><ele>397.99999999999994</ele><time>2026-03-26T12:15:59Z</time></trkpt><trkpt lat="38.96938421261475" lon="8.900058672231129"><ele>395.0</ele><time>2026-03-26T12:16:01Z</time></trkpt><trkpt lat="38.969371515555686" lon="8.899968210752837"><ele>392.0</ele><time>2026-03-26T12:16:03Z</time></trkpt><trkpt lat="38.969434639308865" lon="8.899922080055353"><ele>389.0</ele><time>2026-03-26T12:16:05Z</time></trkpt><trkpt lat="38.9695304713817" lon="8.899945102467688"><ele>386.0</ele><time>2026-03-26T12:16:07Z</time></trkpt><trkpt lat="38.96963567208446" lon="8.899951836886947"><ele>383.0</ele><time>2026-03-26T12:16:09Z</time></trkpt><trkpt lat="38.969732702146445" lon="8.899923303670105"><ele>383.0</ele><time>2026-03-26T12:16:11Z</time></trkpt><trkpt lat="38.969818037170015" lon="8.899889740183937"><ele>383.0</ele><time>2026-03-26T12:16:13Z</time></trkpt><trkpt lat="38.969899643248226" lon="8.899862148793018"><ele>383.0</ele><time>2026-03-26T12:16:15Z</time></trkpt><trkpt lat="38.96998271695142" lon="8.899816240415193"><ele>383.0</ele><time>2026-03-26T12:16:17Z</time></trkpt><trkpt lat="38.97003914486176" lon="8.899749956239981"><ele>383.0</ele><time>2026-03-26T12:16:19Z</time></trkpt><trkpt lat="38.970036021053325" lon="8.899642459356885"><ele>383.0</ele><time>2026-03-26T12:16:21Z</time></trkpt><trkpt lat="38.96996259832904" lon="8.899559001845322"><ele>383.0</ele><time>2026-03-26T12:16:23Z</time></trkpt><trkpt lat="38.969860185891335" lon="8.899538461678379"><ele>383.0</ele><time>2026-03-26T12:16:25Z</time></trkpt><trkpt lat="38.96976528761464" lon="8.899514240014671"><ele>383.0</ele><time>2026-03-26T12:16:27Z</time></trkpt><trkpt lat="38.96968361335161" lon="8.8994919688971"><ele>383.0</ele><time>2026-03-26T12:16:29Z</time></trkpt><trkpt lat="38.96961884920484" lon="8.899476234376834"><ele>383.0</ele><time>2026-03-26T12:16:30Z</time></trkpt><trkpt lat="38.969510089160934" lon="8.899443026340315"><ele>383.0</ele><time>2026-03-26T12:16:32Z</time></trkpt><trkpt lat="38.96941276341948" lon="8.899403763384324"><ele>383.0</ele><time>2026-03-26T12:16:34Z</time></trkpt><trkpt lat="38.969322085201696" lon="8.899356893425416"><ele>383.0</ele><time>2026-03-26T12:16:36Z</time></trkpt><trkpt lat="38.9692496022795" lon="8.899308972800922"><ele>383.0</ele><time>2026-03-26T12:16:38Z</time></trkpt><trkpt lat="38.96921861460687" lon="8.89922477835121"><ele>383.0</ele><time>2026-03-26T12:16:40Z</time></trkpt><trkpt lat="38.96925750401587" lon="8.899120711288088"><ele>383.0</ele><time>2026-03-26T12:16:42Z</time></trkpt><trkpt lat="38.96931020937916" lon="8.899057505465965"><ele>380.2857142857143</ele><time>2026-03-26T12:16:43Z</time></trkpt><trkpt lat="38.96936138649603" lon="8.898996547937532"><ele>377.57142857142856</ele><time>2026-03-26T12:16:44Z</time></trkpt><trkpt lat="38.96940074405091" lon="8.898921712907383"><ele>374.8571428571429</ele><time>2026-03-26T12:16:45Z</time></trkpt><trkpt lat="38.96942852868042" lon="8.898836734226407"><ele>372.1428571428571</ele><time>2026-03-26T12:16:46Z</time></trkpt><trkpt lat="38.969447946255" lon="8.89874711667156"><ele>369.42857142857144</ele><time>2026-03-26T12:16:47Z</time></trkpt><trkpt lat="38.96946251110559" lon="8.89865390374096"><ele>366.7142857142857</ele><time>2026-03-26T12:16:48Z</time></trkpt><trkpt lat="38.96947745219425" lon="8.898566727651009"><ele>364.0</ele><time>2026-03-26T12:16:49Z</time></trkpt><trkpt lat="38.96949592998667" lon="8.89848321132064"><ele>361.5</ele><time>2026-03-26T12:16:50Z</time></trkpt><trkpt lat="38.969548056835656" lon="8.898336529214617"><ele>359.0</ele><time>2026-03-26T12:16:52Z</time></trkpt><trkpt lat="38.96957534375752" lon="8.898260006959633"><ele>356.5</ele><time>2026-03-26T12:16:53Z</time></trkpt><trkpt lat="38.969601915551685" lon="8.898175589183078"><ele>354.0</ele><time>2026-03-26T12:16:54Z</time></trkpt><trkpt lat="38.96960490156895" lon="8.898087140686075"><ele>351.5</ele><time>2026-03-26T12:16:55Z</time></trkpt><trkpt lat="38.96958020033944" lon="8.897993403856926"><ele>349.0</ele><time>2026-03-26T12:16:56Z</time></trkpt><trkpt lat="38.969545626076716" lon="8.89789735815814"><ele>348.99999999999994</ele><time>2026-03-26T12:16:57Z</time></trkpt><trkpt lat="38.96951727859965" lon="8.897813147670037"><ele>349.0</ele><time>2026-03-26T12:16:58Z</time></trkpt><trkpt lat="38.96951235787439" lon="8.897721478541127"><ele>349.0</ele><time>2026-03-26T12:16:59Z</time></trkpt><trkpt lat="38.96951931212438" lon="8.897625452083117"><ele>349.0</ele><time>2026-03-26T12:17:00Z</time></trkpt><trkpt lat="38.969528347737345" lon="8.897523431309322"><ele>349.0</ele><time>2026-03-26T12:17:01Z</time></trkpt><trkpt lat="38.969529771095104" lon="8.897420427658671"><ele>348.99999999999994</ele><time>2026-03-26T12:17:02Z</time></trkpt><trkpt lat="38.969520659390554" lon="8.89733198299256"><ele>349.0</ele><time>2026-03-26T12:17:03Z</time></trkpt><trkpt lat="38.96950833381023" lon="8.897248012437164"><ele>349.16666666666663</ele><time>2026-03-26T12:17:04Z</time></trkpt><trkpt lat="38.96949994798885" lon="8.897156909106531"><ele>349.3333333333333</ele><time>2026-03-26T12:17:05Z</time></trkpt><trkpt lat="38.96949986391631" lon="8.897051304427903"><ele>349.5</ele><time>2026-03-26T12:17:06Z</time></trkpt><trkpt lat="38.96951035484233" lon="8.896944220978263"><ele>349.6666666666667</ele><time>2026-03-26T12:17:07Z</time></trkpt><trkpt lat="38.96951923017749" lon="8.896846649457713"><ele>349.83333333333337</ele><time>2026-03-26T12:17:08Z</time></trkpt><trkpt lat="38.96951765942722" lon="8.89676283659352"><ele>350.0</ele><time>2026-03-26T12:17:09Z</time></trkpt><trkpt lat="38.969525477732944" lon="8.896657957988905"><ele>350.0</ele><time>2026-03-26T12:17:11Z</time></trkpt><trkpt lat="38.96956365033962" lon="8.896580889173364"><ele>350.0</ele><time>2026-03-26T12:17:14Z</time></trkpt><trkpt lat="38.96960618595058" lon="8.896508930407558"><ele>350.0</ele><time>2026-03-26T12:18:49Z</time></trkpt><trkpt lat="38.969676860675214" lon="8.896567750391355"><ele>350.0</ele><time>2026-03-26T12:18:52Z</time></trkpt><trkpt lat="38.96969698577151" lon="8.896647323726603"><ele>350.0</ele><time>2026-03-26T12:18:54Z</time></trkpt><trkpt lat="38.96972184569368" lon="8.896727783685607"><ele>350.0</ele><time>2026-03-26T12:18:56Z</time></trkpt><trkpt lat="38.96975735308365" lon="8.896805478090435"><ele>350.0</ele><time>2026-03-26T12:18:58Z</time></trkpt><trkpt lat="38.96980021376152" lon="8.896930343430427"><ele>350.0</ele><time>2026-03-26T12:19:00Z</time></trkpt><trkpt lat="38.96984472435598" lon="8.897066441678534"><ele>350.0</ele><time>2026-03-26T12:19:02Z</time></trkpt><trkpt lat="38.969869971033575" lon="8.897143349219284"><ele>350.0</ele><time>2026-03-26T12:19:03Z</time></trkpt><trkpt lat="38.96993450258223" lon="8.897288963406156"><ele>350.0</ele><time>2026-03-26T12:19:05Z</time></trkpt><trkpt lat="38.969972347782" lon="8.89737112908944"><ele>350.0</ele><time>2026-03-26T12:19:06Z</time></trkpt><trkpt lat="38.97001127655668" lon="8.897446778127925"><ele>348.6</ele><time>2026-03-26T12:19:07Z</time></trkpt><trkpt lat="38.97004856328126" lon="8.8975197176782"><ele>347.2</ele><time>2026-03-26T12:19:08Z</time></trkpt><trkpt lat="38.97012113329312" lon="8.897647574033375"><ele>345.79999999999995</ele><time>2026-03-26T12:19:10Z</time></trkpt><trkpt lat="38.970206476738014" lon="8.897779989530617"><ele>344.4</ele><time>2026-03-26T12:19:12Z</time></trkpt><trkpt lat="38.970261903855" lon="8.897839367613825"><ele>343.0</ele><time>2026-03-26T12:19:13Z</time></trkpt><trkpt lat="38.97032373347663" lon="8.897882147775935"><ele>343.0</ele><time>2026-03-26T12:19:14Z</time></trkpt><trkpt lat="38.97038863428302" lon="8.897922541553879"><ele>343.0</ele><time>2026-03-26T12:19:15Z</time></trkpt><trkpt lat="38.97044809633577" lon="8.897959474112934"><ele>343.0</ele><time>2026-03-26T12:19:16Z</time></trkpt><trkpt lat="38.97056074316305" lon="8.898002211520353"><ele>343.0</ele><time>2026-03-26T12:19:18Z</time></trkpt><trkpt lat="38.97067065431236" lon="8.89807894646418"><ele>343.0</ele><time>2026-03-26T12:19:20Z</time></trkpt><trkpt lat="38.970740708976344" lon="8.89815228610373"><ele>343.0</ele><time>2026-03-26T12:19:22Z</time></trkpt><trkpt lat="38.970799670113806" lon="8.898230493786805"><ele>343.0</ele><time>2026-03-26T12:19:23Z</time></trkpt><trkpt lat="38.97089013067657" lon="8.89832641831472"><ele>343.0</ele><time>2026-03-26T12:19:25Z</time></trkpt><trkpt lat="38.97097075567214" lon="8.89842971859176"><ele>343.0</ele><time>2026-03-26T12:19:27Z</time></trkpt><trkpt lat="38.97106057486134" lon="8.898546821790099"><ele>343.0</ele><time>2026-03-26T12:19:29Z</time></trkpt><trkpt lat="38.97111134687275" lon="8.898604422426159"><ele>340.0</ele><time>2026-03-26T12:19:30Z</time></trkpt><trkpt lat="38.971158206618014" lon="8.898669846253103"><ele>337.0</ele><time>2026-03-26T12:19:31Z</time></trkpt><trkpt lat="38.9712046112296" lon="8.898734508823264"><ele>334.0</ele><time>2026-03-26T12:19:32Z</time></trkpt><trkpt lat="38.97125617826107" lon="8.898807862127317"><ele>331.0</ele><time>2026-03-26T12:19:33Z</time></trkpt><trkpt lat="38.971303941304065" lon="8.898884010124975"><ele>328.0</ele><time>2026-03-26T12:19:34Z</time></trkpt><trkpt lat="38.97135153909067" lon="8.898969891143674"><ele>325.0</ele><time>2026-03-26T12:19:35Z</time></trkpt><trkpt lat="38.9713826447768" lon="8.899047758409283"><ele>322.0</ele><time>2026-03-26T12:19:36Z</time></trkpt><trkpt lat="38.97141314059727" lon="8.899122785357564"><ele>322.0</ele><time>2026-03-26T12:19:37Z</time></trkpt><trkpt lat="38.971454089110686" lon="8.899186053579427"><ele>322.0</ele><time>2026-03-26T12:19:38Z</time></trkpt><trkpt lat="38.9715483139213" lon="8.899292035064658"><ele>322.0</ele><time>2026-03-26T12:19:40Z</time></trkpt><trkpt lat="38.97160487499444" lon="8.89934470755846"><ele>322.0</ele><time>2026-03-26T12:19:41Z</time></trkpt><trkpt lat="38.97166034308695" lon="8.899400559889239"><ele>322.0</ele><time>2026-03-26T12:19:42Z</time></trkpt><trkpt lat="38.97170849489078" lon="8.899462133195009"><ele>322.0</ele><time>2026-03-26T12:19:43Z</time></trkpt><trkpt lat="38.97175496907428" lon="8.89952015711665"><ele>321.16666666666663</ele><time>2026-03-26T12:19:44Z</time></trkpt><trkpt lat="38.97179722105413" lon="8.899596333657096"><ele>320.3333333333333</ele><time>2026-03-26T12:19:45Z</time></trkpt><trkpt lat="38.971847440569796" lon="8.89968751698049"><ele>319.5</ele><time>2026-03-26T12:19:46Z</time></trkpt><trkpt lat="38.971899366725985" lon="8.899772708142175"><ele>318.6666666666667</ele><time>2026-03-26T12:19:47.001Z</time></trkpt><trkpt lat="38.97194137572431" lon="8.8998574094531"><ele>317.83333333333337</ele><time>2026-03-26T12:19:48.001Z</time></trkpt><trkpt lat="38.97196885583524" lon="8.899948219731003"><ele>317.0</ele><time>2026-03-26T12:19:49Z</time></trkpt><trkpt lat="38.97199793875917" lon="8.900043293609011"><ele>318.1666666666667</ele><time>2026-03-26T12:19:50Z</time></trkpt><trkpt lat="38.97203388357317" lon="8.900124340904744"><ele>319.33333333333337</ele><time>2026-03-26T12:19:51Z</time></trkpt><trkpt lat="38.972085433337945" lon="8.900201915779064"><ele>320.5</ele><time>2026-03-26T12:19:52Z</time></trkpt><trkpt lat="38.972156047269614" lon="8.900276069192607"><ele>321.6666666666667</ele><time>2026-03-26T12:19:53Z</time></trkpt><trkpt lat="38.97222763429526" lon="8.90033701593043"><ele>322.8333333333333</ele><time>2026-03-26T12:19:54Z</time></trkpt><trkpt lat="38.97230060547919" lon="8.90037894388334"><ele>324.0</ele><time>2026-03-26T12:19:55Z</time></trkpt><trkpt lat="38.97237891610569" lon="8.900397189348023"><ele>324.0</ele><time>2026-03-26T12:19:56Z</time></trkpt><trkpt lat="38.972451222035325" lon="8.900415213812206"><ele>324.0</ele><time>2026-03-26T12:19:57Z</time></trkpt><trkpt lat="38.97250835459893" lon="8.900470239460981"><ele>324.0</ele><time>2026-03-26T12:19:58Z</time></trkpt><trkpt lat="38.97255027355933" lon="8.900553591886837"><ele>324.0</ele><time>2026-03-26T12:19:59Z</time></trkpt><trkpt lat="38.97258197464694" lon="8.900666019265909"><ele>324.0</ele><time>2026-03-26T12:20:00Z</time></trkpt><trkpt lat="38.972605089985606" lon="8.90076954855878"><ele>324.0</ele><time>2026-03-26T12:20:01Z</time></trkpt><trkpt lat="38.97261180139246" lon="8.900872166295008"><ele>324.6666666666667</ele><time>2026-03-26T12:20:02Z</time></trkpt><trkpt lat="38.97260627620827" lon="8.900977023162"><ele>325.3333333333333</ele><time>2026-03-26T12:20:03Z</time></trkpt><trkpt lat="38.97260851754065" lon="8.90106949607154"><ele>326.0</ele><time>2026-03-26T12:20:04Z</time></trkpt><trkpt lat="38.97263417620907" lon="8.901163106526306"><ele>326.66666666666663</ele><time>2026-03-26T12:20:05Z</time></trkpt><trkpt lat="38.97268268660589" lon="8.901244044519366"><ele>327.3333333333333</ele><time>2026-03-26T12:20:06Z</time></trkpt><trkpt lat="38.97273844534025" lon="8.90131083431338"><ele>328.0</ele><time>2026-03-26T12:20:07Z</time></trkpt><trkpt lat="38.972808259080765" lon="8.901384676848027"><ele>328.0</ele><time>2026-03-26T12:20:07.999Z</time></trkpt><trkpt lat="38.97288226966518" lon="8.901453505834967"><ele>328.0</ele><time>2026-03-26T12:20:08.999Z</time></trkpt><trkpt lat="38.97294073979935" lon="8.90151626535032"><ele>328.0</ele><time>2026-03-26T12:20:09.999Z</time></trkpt><trkpt lat="38.973019229594904" lon="8.901631819982056"><ele>328.0</ele><time>2026-03-26T12:20:11.999Z</time></trkpt><trkpt lat="38.97310147407545" lon="8.901745529098502"><ele>328.0</ele><time>2026-03-26T12:20:13.999Z</time></trkpt><trkpt lat="38.973185021901116" lon="8.901841935755883"><ele>326.0</ele><time>2026-03-26T12:20:15.999Z</time></trkpt><trkpt lat="38.973242507028466" lon="8.901971399466857"><ele>324.0</ele><time>2026-03-26T12:20:17.999Z</time></trkpt><trkpt lat="38.97326473596883" lon="8.902111962518227"><ele>322.0</ele><time>2026-03-26T12:20:19.999Z</time></trkpt><trkpt lat="38.97326233772145" lon="8.902233786405512"><ele>320.0</ele><time>2026-03-26T12:20:21.999Z</time></trkpt><trkpt lat="38.973277304992614" lon="8.902323041728105"><ele>318.0</ele><time>2026-03-26T12:20:23.999Z</time></trkpt><trkpt lat="38.97331288332898" lon="8.902412379602854"><ele>314.2</ele><time>2026-03-26T12:20:25.999Z</time></trkpt><trkpt lat="38.97336515401105" lon="8.902522212893528"><ele>310.4</ele><time>2026-03-26T12:20:27.999Z</time></trkpt><trkpt lat="38.97340857104815" lon="8.902645815332177"><ele>306.59999999999997</ele><time>2026-03-26T12:20:29.999Z</time></trkpt><trkpt lat="38.97346031549829" lon="8.902793613115527"><ele>302.8</ele><time>2026-03-26T12:20:31.999Z</time></trkpt><trkpt lat="38.973523911732705" lon="8.902900937804596"><ele>299.0</ele><time>2026-03-26T12:20:33.999Z</time></trkpt><trkpt lat="38.97357399251831" lon="8.903036590920784"><ele>296.2</ele><time>2026-03-26T12:20:35.999Z</time></trkpt><trkpt lat="38.9736065825978" lon="8.903203581231043"><ele>293.4</ele><time>2026-03-26T12:20:37.999Z</time></trkpt><trkpt lat="38.97360245469058" lon="8.903290827506744"><ele>290.6</ele><time>2026-03-26T12:20:38.999Z</time></trkpt><trkpt lat="38.97358351570887" lon="8.903374352937151"><ele>287.8</ele><time>2026-03-26T12:20:39.999Z</time></trkpt><trkpt lat="38.97354944107935" lon="8.903505210745523"><ele>285.0</ele><time>2026-03-26T12:20:41.999Z</time></trkpt><trkpt lat="38.97355031348844" lon="8.903620551350754"><ele>284.4</ele><time>2026-03-26T12:20:43.999Z</time></trkpt><trkpt lat="38.973635892237525" lon="8.903727254195209"><ele>283.8</ele><time>2026-03-26T12:20:45.999Z</time></trkpt><trkpt lat="38.9737132709871" lon="8.903822887740688"><ele>283.2</ele><time>2026-03-26T12:20:47.999Z</time></trkpt><trkpt lat="38.97377985303792" lon="8.903802878940002"><ele>282.6</ele><time>2026-03-26T12:20:49.999Z</time></trkpt><trkpt lat="38.97378737368807" lon="8.903705106156531"><ele>282.0</ele><time>2026-03-26T12:20:51.999Z</time></trkpt><trkpt lat="38.97371860784627" lon="8.903601239504985"><ele>282.0</ele><time>2026-03-26T12:20:53.999Z</time></trkpt><trkpt lat="38.97370226678741" lon="8.903504523095584"><ele>282.0</ele><time>2026-03-26T12:20:55.999Z</time></trkpt><trkpt lat="38.97376244917241" lon="8.903409583088376"><ele>282.0</ele><time>2026-03-26T12:20:57.999Z</time></trkpt><trkpt lat="38.97384537150471" lon="8.90329378003536"><ele>282.0</ele><time>2026-03-26T12:20:59.999Z</time></trkpt><trkpt lat="38.973842454787174" lon="8.903141105211592"><ele>282.0</ele><time>2026-03-26T12:21:01.999Z</time></trkpt><trkpt lat="38.97382653488086" lon="8.903059907800625"><ele>282.5</ele><time>2026-03-26T12:21:02.999Z</time></trkpt><trkpt lat="38.97382112859358" lon="8.902968282151663"><ele>283.0</ele><time>2026-03-26T12:21:04.999Z</time></trkpt><trkpt lat="38.97391097715033" lon="8.902979208549372"><ele>283.5</ele><time>2026-03-26T12:21:07.999Z</time></trkpt><trkpt lat="38.97394246997267" lon="8.903069677095655"><ele>284.0</ele><time>2026-03-26T12:21:09.999Z</time></trkpt><trkpt lat="38.97396948871692" lon="8.903178432567035"><ele>284.5</ele><time>2026-03-26T12:21:11.999Z</time></trkpt><trkpt lat="38.97402412575804" lon="8.903275383415767"><ele>285.0</ele><time>2026-03-26T12:21:13.999Z</time></trkpt><trkpt lat="38.97412958009703" lon="8.903379811184575"><ele>284.5</ele><time>2026-03-26T12:21:15.999Z</time></trkpt><trkpt lat="38.974188027458496" lon="8.903426042445775"><ele>284.0</ele><time>2026-03-26T12:21:16.999Z</time></trkpt><trkpt lat="38.974241467707735" lon="8.903537453827887"><ele>283.5</ele><time>2026-03-26T12:21:18.999Z</time></trkpt><trkpt lat="38.97425145718455" lon="8.903664623464232"><ele>283.0</ele><time>2026-03-26T12:21:20.999Z</time></trkpt><trkpt lat="38.974258171903536" lon="8.903785025115353"><ele>282.5</ele><time>2026-03-26T12:21:22.999Z</time></trkpt><trkpt lat="38.97427427102537" lon="8.90387172643257"><ele>282.0</ele><time>2026-03-26T12:21:24.999Z</time></trkpt><trkpt lat="38.97430338019118" lon="8.903995784058864"><ele>278.6</ele><time>2026-03-26T12:21:26.999Z</time></trkpt><trkpt lat="38.97437035415186" lon="8.904072422038373"><ele>275.2</ele><time>2026-03-26T12:21:28.999Z</time></trkpt><trkpt lat="38.974467231323466" lon="8.90411382159374"><ele>271.8</ele><time>2026-03-26T12:21:30.999Z</time></trkpt><trkpt lat="38.97453055440267" lon="8.90413574072776"><ele>268.4</ele><time>2026-03-26T12:21:31.999Z</time></trkpt><trkpt lat="38.97465771856725" lon="8.904174063613233"><ele>265.0</ele><time>2026-03-26T12:21:33.999Z</time></trkpt><trkpt lat="38.974724986063414" lon="8.904181511025158"><ele>265.0</ele><time>2026-03-26T12:21:34.999Z</time></trkpt><trkpt lat="38.97484319364293" lon="8.90421315547512"><ele>265.0</ele><time>2026-03-26T12:21:36.999Z</time></trkpt><trkpt lat="38.974941485893204" lon="8.904232831607969"><ele>265.0</ele><time>2026-03-26T12:21:38.999Z</time></trkpt><trkpt lat="38.97504112560677" lon="8.904226123894983"><ele>265.0</ele><time>2026-03-26T12:21:40.999Z</time></trkpt><trkpt lat="38.97514425744241" lon="8.904204889829357"><ele>265.0</ele><time>2026-03-26T12:21:42.999Z</time></trkpt><trkpt lat="38.975265623529864" lon="8.904222320431016"><ele>264.0</ele><time>2026-03-26T12:21:44.999Z</time></trkpt><trkpt lat="38.97537444623336" lon="8.904217578507264"><ele>263.0</ele><time>2026-03-26T12:21:46.999Z</time></trkpt><trkpt lat="38.97548007119549" lon="8.904211511122423"><ele>262.0</ele><time>2026-03-26T12:21:48.999Z</time></trkpt><trkpt lat="38.975594770808215" lon="8.904233785121564"><ele>261.0</ele><time>2026-03-26T12:21:50.999Z</time></trkpt><trkpt lat="38.97569897314678" lon="8.904287551197111"><ele>260.0</ele><time>2026-03-26T12:21:53Z</time></trkpt><trkpt lat="38.97579138201039" lon="8.904339348062495"><ele>256.8</ele><time>2026-03-26T12:21:55Z</time></trkpt><trkpt lat="38.975870029711565" lon="8.904424355170054"><ele>253.6</ele><time>2026-03-26T12:21:57Z</time></trkpt><trkpt lat="38.97595614146986" lon="8.904504026763977"><ele>250.39999999999998</ele><time>2026-03-26T12:21:59Z</time></trkpt><trkpt lat="38.97603898564964" lon="8.904526830513909"><ele>247.2</ele><time>2026-03-26T12:22:01Z</time></trkpt><trkpt lat="38.976118538601646" lon="8.904535192634139"><ele>244.0</ele><time>2026-03-26T12:22:03Z</time></trkpt><trkpt lat="38.976203192481535" lon="8.904541466650016"><ele>243.99999999999997</ele><time>2026-03-26T12:22:05Z</time></trkpt><trkpt lat="38.976302167302336" lon="8.904587521234511"><ele>244.0</ele><time>2026-03-26T12:22:07Z</time></trkpt><trkpt lat="38.976404181070265" lon="8.904669164598069"><ele>244.0</ele><time>2026-03-26T12:22:09Z</time></trkpt><trkpt lat="38.976453790024024" lon="8.904728557038561"><ele>244.0</ele><time>2026-03-26T12:22:10Z</time></trkpt><trkpt lat="38.97650362372385" lon="8.904785513595936"><ele>243.99999999999997</ele><time>2026-03-26T12:22:11Z</time></trkpt><trkpt lat="38.976554227970134" lon="8.90483473287524"><ele>244.0</ele><time>2026-03-26T12:22:12Z</time></trkpt><trkpt lat="38.97665833130561" lon="8.90493161581635"><ele>242.83333333333331</ele><time>2026-03-26T12:22:14Z</time></trkpt><trkpt lat="38.97671392186684" lon="8.904989624456736"><ele>241.66666666666666</ele><time>2026-03-26T12:22:15Z</time></trkpt><trkpt lat="38.97675816647802" lon="8.905049621904684"><ele>240.5</ele><time>2026-03-26T12:22:15.999Z</time></trkpt><trkpt lat="38.976812141508205" lon="8.9051965669827"><ele>239.33333333333331</ele><time>2026-03-26T12:22:17.999Z</time></trkpt><trkpt lat="38.97682601797266" lon="8.905288304808126"><ele>238.16666666666666</ele><time>2026-03-26T12:22:18.999Z</time></trkpt><trkpt lat="38.97683117285896" lon="8.905388804681658"><ele>237.0</ele><time>2026-03-26T12:22:19.999Z</time></trkpt><trkpt lat="38.97682499741818" lon="8.905489738595731"><ele>235.83333333333334</ele><time>2026-03-26T12:22:20.999Z</time></trkpt><trkpt lat="38.97684912502562" lon="8.905617306582347"><ele>234.66666666666669</ele><time>2026-03-26T12:22:22.999Z</time></trkpt><trkpt lat="38.976875845442066" lon="8.90569224924209"><ele>233.5</ele><time>2026-03-26T12:22:23.999Z</time></trkpt><trkpt lat="38.9769327305849" lon="8.905844498774693"><ele>232.33333333333334</ele><time>2026-03-26T12:22:25.999Z</time></trkpt><trkpt lat="38.97696398970183" lon="8.905915430711193"><ele>231.16666666666669</ele><time>2026-03-26T12:22:26.999Z</time></trkpt><trkpt lat="38.97700299263391" lon="8.905989795387162"><ele>230.0</ele><time>2026-03-26T12:22:27.999Z</time></trkpt><trkpt lat="38.97705227889551" lon="8.90605147276011"><ele>229.50000000000003</ele><time>2026-03-26T12:22:28.999Z</time></trkpt><trkpt lat="38.977100746249874" lon="8.906104883032592"><ele>229.0</ele><time>2026-03-26T12:22:29.999Z</time></trkpt><trkpt lat="38.97721186042992" lon="8.906179993705528"><ele>228.5</ele><time>2026-03-26T12:22:31.999Z</time></trkpt><trkpt lat="38.97726589713173" lon="8.906241771377395"><ele>228.0</ele><time>2026-03-26T12:22:32.999Z</time></trkpt><trkpt lat="38.977315419566125" lon="8.90632139750888"><ele>227.50000000000003</ele><time>2026-03-26T12:22:33.999Z</time></trkpt><trkpt lat="38.97735785005417" lon="8.906397981394337"><ele>227.0</ele><time>2026-03-26T12:22:34.999Z</time></trkpt><trkpt lat="38.97738107770446" lon="8.906481808645484"><ele>227.00000000000003</ele><time>2026-03-26T12:22:35.999Z</time></trkpt><trkpt lat="38.97740011873847" lon="8.906582005055652"><ele>227.0</ele><time>2026-03-26T12:22:36.999Z</time></trkpt><trkpt lat="38.97741761556534" lon="8.906663909837821"><ele>227.0</ele><time>2026-03-26T12:22:37.999Z</time></trkpt><trkpt lat="38.97748925731783" lon="8.906786229551114"><ele>227.0</ele><time>2026-03-26T12:22:39.999Z</time></trkpt><trkpt lat="38.977554790242664" lon="8.906830963209792"><ele>227.00000000000003</ele><time>2026-03-26T12:22:40.999Z</time></trkpt><trkpt lat="38.97762900512829" lon="8.90687919368891"><ele>227.0</ele><time>2026-03-26T12:22:41.999Z</time></trkpt><trkpt lat="38.977701819179934" lon="8.90693696444593"><ele>226.66666666666669</ele><time>2026-03-26T12:22:42.999Z</time></trkpt><trkpt lat="38.9777732166192" lon="8.906995906992163"><ele>226.33333333333334</ele><time>2026-03-26T12:22:43.999Z</time></trkpt><trkpt lat="38.977838096568064" lon="8.907043753383597"><ele>226.0</ele><time>2026-03-26T12:22:44.999Z</time></trkpt><trkpt lat="38.97790199567093" lon="8.90708671862446"><ele>225.66666666666669</ele><time>2026-03-26T12:22:45.999Z</time></trkpt><trkpt lat="38.977971809121236" lon="8.907126649943171"><ele>225.33333333333334</ele><time>2026-03-26T12:22:46.999Z</time></trkpt><trkpt lat="38.978040729355904" lon="8.907163624479413"><ele>225.0</ele><time>2026-03-26T12:22:47.999Z</time></trkpt><trkpt lat="38.97810009188756" lon="8.907204646123114"><ele>225.0</ele><time>2026-03-26T12:22:48.999Z</time></trkpt><trkpt lat="38.97816049077379" lon="8.907263357245776"><ele>225.0</ele><time>2026-03-26T12:22:49.999Z</time></trkpt><trkpt lat="38.97821497690838" lon="8.907308023619798"><ele>225.0</ele><time>2026-03-26T12:22:50.999Z</time></trkpt><trkpt lat="38.97829240817895" lon="8.907402940803806"><ele>225.0</ele><time>2026-03-26T12:22:52.999Z</time></trkpt><trkpt lat="38.97835316366418" lon="8.9075645304718"><ele>225.0</ele><time>2026-03-26T12:22:54.999Z</time></trkpt><trkpt lat="38.97838079124464" lon="8.90766280129335"><ele>224.16666666666666</ele><time>2026-03-26T12:22:55.999Z</time></trkpt><trkpt lat="38.97842456812352" lon="8.90776335132018"><ele>223.33333333333331</ele><time>2026-03-26T12:22:56.999Z</time></trkpt><trkpt lat="38.97847843051566" lon="8.907855380435432"><ele>222.5</ele><time>2026-03-26T12:22:57.999Z</time></trkpt><trkpt lat="38.9785308351722" lon="8.907941815818061"><ele>221.66666666666666</ele><time>2026-03-26T12:22:58.999Z</time></trkpt><trkpt lat="38.978575173644984" lon="8.908038125500795"><ele>220.83333333333331</ele><time>2026-03-26T12:22:59.999Z</time></trkpt><trkpt lat="38.978605802073574" lon="8.90813652005559"><ele>220.0</ele><time>2026-03-26T12:23:00.999Z</time></trkpt><trkpt lat="38.978631090088214" lon="8.90823371898648"><ele>219.99999999999997</ele><time>2026-03-26T12:23:01.999Z</time></trkpt><trkpt lat="38.97865462843056" lon="8.908328615886973"><ele>220.0</ele><time>2026-03-26T12:23:02.999Z</time></trkpt><trkpt lat="38.97867674693352" lon="8.908423836580575"><ele>220.0</ele><time>2026-03-26T12:23:03.999Z</time></trkpt><trkpt lat="38.9786976643533" lon="8.908532287933784"><ele>220.0</ele><time>2026-03-26T12:23:04.999Z</time></trkpt><trkpt lat="38.97871362398887" lon="8.908648538884178"><ele>219.99999999999997</ele><time>2026-03-26T12:23:05.999Z</time></trkpt><trkpt lat="38.97872264831964" lon="8.90875626904243"><ele>220.0</ele><time>2026-03-26T12:23:06.999Z</time></trkpt><trkpt lat="38.97872652961181" lon="8.908845729187096"><ele>219.6</ele><time>2026-03-26T12:23:07.999Z</time></trkpt><trkpt lat="38.978739699399455" lon="8.909003087874762"><ele>219.2</ele><time>2026-03-26T12:23:09.999Z</time></trkpt><trkpt lat="38.97877321771071" lon="8.909094718660477"><ele>218.8</ele><time>2026-03-26T12:23:10.999Z</time></trkpt><trkpt lat="38.97881734985012" lon="8.90920102179179"><ele>218.4</ele><time>2026-03-26T12:23:11.999Z</time></trkpt><trkpt lat="38.97886100135192" lon="8.909308970714093"><ele>218.0</ele><time>2026-03-26T12:23:12.999Z</time></trkpt><trkpt lat="38.97890084463848" lon="8.909418005293494"><ele>217.33333333333334</ele><time>2026-03-26T12:23:13.999Z</time></trkpt><trkpt lat="38.97893930429877" lon="8.909527920593511"><ele>216.66666666666669</ele><time>2026-03-26T12:23:14.999Z</time></trkpt><trkpt lat="38.97897257154106" lon="8.909632574757977"><ele>216.0</ele><time>2026-03-26T12:23:15.999Z</time></trkpt><trkpt lat="38.979004311159464" lon="8.909731962001638"><ele>215.33333333333331</ele><time>2026-03-26T12:23:16.999Z</time></trkpt><trkpt lat="38.97903385843627" lon="8.909827202404255"><ele>214.66666666666666</ele><time>2026-03-26T12:23:17.999Z</time></trkpt><trkpt lat="38.97906882090901" lon="8.909906494321897"><ele>214.0</ele><time>2026-03-26T12:23:18.999Z</time></trkpt><trkpt lat="38.97911219070631" lon="8.909980812607845"><ele>213.99999999999997</ele><time>2026-03-26T12:23:19.999Z</time></trkpt><trkpt lat="38.97917190899344" lon="8.910044422889612"><ele>214.0</ele><time>2026-03-26T12:23:20.999Z</time></trkpt><trkpt lat="38.979245344382605" lon="8.910102592994757"><ele>214.0</ele><time>2026-03-26T12:23:21.999Z</time></trkpt><trkpt lat="38.979314099539764" lon="8.910165857206598"><ele>214.0</ele><time>2026-03-26T12:23:22.999Z</time></trkpt><trkpt lat="38.9793653252975" lon="8.910231598189716"><ele>213.99999999999997</ele><time>2026-03-26T12:23:23.999Z</time></trkpt><trkpt lat="38.979408396009276" lon="8.910322035784917"><ele>214.0</ele><time>2026-03-26T12:23:24.999Z</time></trkpt><trkpt lat="38.979448590907765" lon="8.910427681637202"><ele>213.33333333333331</ele><time>2026-03-26T12:23:25.999Z</time></trkpt><trkpt lat="38.97948501096922" lon="8.910536044477517"><ele>212.66666666666666</ele><time>2026-03-26T12:23:26.999Z</time></trkpt><trkpt lat="38.97951395198181" lon="8.910639190953692"><ele>212.0</ele><time>2026-03-26T12:23:27.999Z</time></trkpt><trkpt lat="38.97954967853423" lon="8.910718988273509"><ele>211.33333333333331</ele><time>2026-03-26T12:23:28.999Z</time></trkpt><trkpt lat="38.97961342400763" lon="8.910779145927233"><ele>210.66666666666666</ele><time>2026-03-26T12:23:29.999Z</time></trkpt><trkpt lat="38.97970112890991" lon="8.910826679593471"><ele>210.0</ele><time>2026-03-26T12:23:30.999Z</time></trkpt><trkpt lat="38.97979638142893" lon="8.910870655639155"><ele>210.0</ele><time>2026-03-26T12:23:31.999Z</time></trkpt><trkpt lat="38.97988913319678" lon="8.91090414162294"><ele>210.0</ele><time>2026-03-26T12:23:32.999Z</time></trkpt><trkpt lat="38.979975168368576" lon="8.910932658314676"><ele>210.0</ele><time>2026-03-26T12:23:33.999Z</time></trkpt><trkpt lat="38.98006099863032" lon="8.910962075657054"><ele>210.0</ele><time>2026-03-26T12:23:34.999Z</time></trkpt><trkpt lat="38.980143274132374" lon="8.910989195648812"><ele>210.0</ele><time>2026-03-26T12:23:35.999Z</time></trkpt><trkpt lat="38.980216188526704" lon="8.91101768025275"><ele>210.0</ele><time>2026-03-26T12:23:36.999Z</time></trkpt><trkpt lat="38.98028713308843" lon="8.911056446533324"><ele>209.4</ele><time>2026-03-26T12:23:37.999Z</time></trkpt><trkpt lat="38.98036237578215" lon="8.911112410364822"><ele>208.8</ele><time>2026-03-26T12:23:38.999Z</time></trkpt><trkpt lat="38.98043750863946" lon="8.91118364702965"><ele>208.2</ele><time>2026-03-26T12:23:39.999Z</time></trkpt><trkpt lat="38.9805123994066" lon="8.911266508110202"><ele>207.6</ele><time>2026-03-26T12:23:40.999Z</time></trkpt><trkpt lat="38.98059528333905" lon="8.911341548005515"><ele>207.0</ele><time>2026-03-26T12:23:41.999Z</time></trkpt><trkpt lat="38.98067788358967" lon="8.911399295131117"><ele>207.0</ele><time>2026-03-26T12:23:42.999Z</time></trkpt><trkpt lat="38.98076208995195" lon="8.911444125434123"><ele>207.0</ele><time>2026-03-26T12:23:43.999Z</time></trkpt><trkpt lat="38.98083525372144" lon="8.911478224255815"><ele>207.0</ele><time>2026-03-26T12:23:44.999Z</time></trkpt><trkpt lat="38.980898330769975" lon="8.911520928135808"><ele>207.0</ele><time>2026-03-26T12:23:45.999Z</time></trkpt><trkpt lat="38.98095984522699" lon="8.91158335406089"><ele>207.0</ele><time>2026-03-26T12:23:46.999Z</time></trkpt><trkpt lat="38.98101733735871" lon="8.911673629072716"><ele>207.0</ele><time>2026-03-26T12:23:47.999Z</time></trkpt><trkpt lat="38.98107643053744" lon="8.911776259509452"><ele>206.6</ele><time>2026-03-26T12:23:48.999Z</time></trkpt><trkpt lat="38.98113895631863" lon="8.911874700103544"><ele>206.2</ele><time>2026-03-26T12:23:49.999Z</time></trkpt><trkpt lat="38.98119899211042" lon="8.91197550105617"><ele>205.8</ele><time>2026-03-26T12:23:50.999Z</time></trkpt><trkpt lat="38.98126699612887" lon="8.912072199488636"><ele>205.4</ele><time>2026-03-26T12:23:51.999Z</time></trkpt><trkpt lat="38.98133910064175" lon="8.912168364967913"><ele>205.0</ele><time>2026-03-26T12:23:52.999Z</time></trkpt><trkpt lat="38.98139383896334" lon="8.912259602980676"><ele>205.0</ele><time>2026-03-26T12:23:53.999Z</time></trkpt><trkpt lat="38.98144407156037" lon="8.912346041921888"><ele>205.0</ele><time>2026-03-26T12:23:54.999Z</time></trkpt><trkpt lat="38.981515433369" lon="8.912414465094166"><ele>205.0</ele><time>2026-03-26T12:23:55.999Z</time></trkpt><trkpt lat="38.98160220288992" lon="8.912463984560116"><ele>205.0</ele><time>2026-03-26T12:23:56.999Z</time></trkpt><trkpt lat="38.981697518228295" lon="8.912510992643046"><ele>205.0</ele><time>2026-03-26T12:23:57.999Z</time></trkpt><trkpt lat="38.981802071758985" lon="8.912543244240398"><ele>204.57142857142858</ele><time>2026-03-26T12:23:59Z</time></trkpt><trkpt lat="38.981886429545234" lon="8.912571005049411"><ele>204.14285714285714</ele><time>2026-03-26T12:24:00Z</time></trkpt><trkpt lat="38.981956642309804" lon="8.912614031267456"><ele>203.71428571428572</ele><time>2026-03-26T12:24:01Z</time></trkpt><trkpt lat="38.98201796584783" lon="8.912652449775255"><ele>203.28571428571428</ele><time>2026-03-26T12:24:02Z</time></trkpt><trkpt lat="38.98207876200735" lon="8.912694975996788"><ele>202.85714285714283</ele><time>2026-03-26T12:24:03Z</time></trkpt><trkpt lat="38.982136226430484" lon="8.912746690669156"><ele>202.42857142857142</ele><time>2026-03-26T12:24:04Z</time></trkpt><trkpt lat="38.98218585993584" lon="8.912816792956948"><ele>202.0</ele><time>2026-03-26T12:24:05Z</time></trkpt><trkpt lat="38.982235497303805" lon="8.9128930175987"><ele>203.33333333333331</ele><time>2026-03-26T12:24:06Z</time></trkpt><trkpt lat="38.98229772283343" lon="8.912948186741247"><ele>204.66666666666666</ele><time>2026-03-26T12:24:07Z</time></trkpt><trkpt lat="38.98236942463375" lon="8.912986836796632"><ele>206.0</ele><time>2026-03-26T12:24:08Z</time></trkpt><trkpt lat="38.9824460122213" lon="8.913015679444184"><ele>207.33333333333331</ele><time>2026-03-26T12:24:09Z</time></trkpt><trkpt lat="38.98252487802085" lon="8.91305720184597"><ele>208.66666666666666</ele><time>2026-03-26T12:24:10Z</time></trkpt><trkpt lat="38.98259632113222" lon="8.913104574068623"><ele>210.0</ele><time>2026-03-26T12:24:11Z</time></trkpt><trkpt lat="38.982664632058956" lon="8.913157929440999"><ele>210.16666666666666</ele><time>2026-03-26T12:24:12Z</time></trkpt><trkpt lat="38.98273553163936" lon="8.913210089125359"><ele>210.33333333333331</ele><time>2026-03-26T12:24:13Z</time></trkpt><trkpt lat="38.982805433240145" lon="8.913257861565542"><ele>210.5</ele><time>2026-03-26T12:24:14Z</time></trkpt><trkpt lat="38.98286644825998" lon="8.913311463551077"><ele>210.66666666666666</ele><time>2026-03-26T12:24:15Z</time></trkpt><trkpt lat="38.982945328000554" lon="8.913396159645922"><ele>210.83333333333331</ele><time>2026-03-26T12:24:17Z</time></trkpt><trkpt lat="38.98303041317169" lon="8.913445698996265"><ele>211.0</ele><time>2026-03-26T12:24:19Z</time></trkpt><trkpt lat="38.983104649930915" lon="8.91350740260464"><ele>210.99999999999997</ele><time>2026-03-26T12:24:21Z</time></trkpt><trkpt lat="38.98315388170365" lon="8.913572646362308"><ele>211.0</ele><time>2026-03-26T12:24:28.999Z</time></trkpt><trkpt lat="38.98321245364079" lon="8.913608590294118"><ele>211.0</ele><time>2026-03-26T12:24:31.999Z</time></trkpt><trkpt lat="38.98324492747675" lon="8.91370119751659"><ele>211.0</ele><time>2026-03-26T12:24:35.999Z</time></trkpt><trkpt lat="38.98330911816736" lon="8.913770936643134"><ele>210.99999999999997</ele><time>2026-03-26T12:24:37.999Z</time></trkpt><trkpt lat="38.983397222961685" lon="8.913821719203968"><ele>211.0</ele><time>2026-03-26T12:24:39.999Z</time></trkpt><trkpt lat="38.98347857143198" lon="8.913894933709019"><ele>209.20000000000002</ele><time>2026-03-26T12:24:41.999Z</time></trkpt><trkpt lat="38.98353929305541" lon="8.913973209988479"><ele>207.4</ele><time>2026-03-26T12:24:43.999Z</time></trkpt><trkpt lat="38.983604147465705" lon="8.914054332590286"><ele>205.6</ele><time>2026-03-26T12:24:45.999Z</time></trkpt><trkpt lat="38.98368243959472" lon="8.914147368007809"><ele>203.8</ele><time>2026-03-26T12:24:47.999Z</time></trkpt><trkpt lat="38.983757264009164" lon="8.914232113371712"><ele>202.0</ele><time>2026-03-26T12:24:49.999Z</time></trkpt><trkpt lat="38.98382127809537" lon="8.914329616295687"><ele>201.99999999999997</ele><time>2026-03-26T12:24:51.999Z</time></trkpt><trkpt lat="38.98386996574205" lon="8.914428395934317"><ele>202.0</ele><time>2026-03-26T12:24:53.999Z</time></trkpt><trkpt lat="38.983909129223406" lon="8.914501650403473"><ele>202.0</ele><time>2026-03-26T12:24:55.999Z</time></trkpt><trkpt lat="38.98393057077927" lon="8.914594686832222"><ele>202.0</ele><time>2026-03-26T12:24:58.999Z</time></trkpt><trkpt lat="38.983959842974265" lon="8.914669358350553"><ele>201.99999999999997</ele><time>2026-03-26T12:25:02.999Z</time></trkpt><trkpt lat="38.98404030303987" lon="8.914763464173754"><ele>202.0</ele><time>2026-03-26T12:25:32.999Z</time></trkpt><trkpt lat="38.98410103572155" lon="8.914803647694477"><ele>202.0</ele><time>2026-03-26T12:25:33.999Z</time></trkpt><trkpt lat="38.98417292158308" lon="8.914834497487577"><ele>202.0</ele><time>2026-03-26T12:25:34.999Z</time></trkpt><trkpt lat="38.98424006756338" lon="8.914857397269547"><ele>202.0</ele><time>2026-03-26T12:25:35.999Z</time></trkpt><trkpt lat="38.98434443512343" lon="8.914918954362497"><ele>202.0</ele><time>2026-03-26T12:25:37.999Z</time></trkpt><trkpt lat="38.98442544539446" lon="8.915017186478805"><ele>202.0</ele><time>2026-03-26T12:25:39.999Z</time></trkpt><trkpt lat="38.98451949651599" lon="8.915133354095463"><ele>199.0</ele><time>2026-03-26T12:25:41.999Z</time></trkpt><trkpt lat="38.98457918949568" lon="8.91520305498339"><ele>196.0</ele><time>2026-03-26T12:25:42.999Z</time></trkpt><trkpt lat="38.98465052363166" lon="8.915269622449108"><ele>193.0</ele><time>2026-03-26T12:25:43.999Z</time></trkpt><trkpt lat="38.98472512426824" lon="8.91533448014035"><ele>190.0</ele><time>2026-03-26T12:25:44.999Z</time></trkpt><trkpt lat="38.984805824435185" lon="8.915397220125557"><ele>187.0</ele><time>2026-03-26T12:25:45.999Z</time></trkpt><trkpt lat="38.9848952387696" lon="8.915448517214994"><ele>187.0</ele><time>2026-03-26T12:25:46.999Z</time></trkpt><trkpt lat="38.98497865428765" lon="8.915487341236291"><ele>187.0</ele><time>2026-03-26T12:25:47.999Z</time></trkpt><trkpt lat="38.985048311853134" lon="8.915524688304181"><ele>187.0</ele><time>2026-03-26T12:25:48.999Z</time></trkpt><trkpt lat="38.98513984162412" lon="8.915626072240551"><ele>187.0</ele><time>2026-03-26T12:25:50.999Z</time></trkpt><trkpt lat="38.98517978261169" lon="8.915771769337361"><ele>187.0</ele><time>2026-03-26T12:25:52.999Z</time></trkpt><trkpt lat="38.9851677311218" lon="8.915924749312717"><ele>187.66666666666669</ele><time>2026-03-26T12:25:54.999Z</time></trkpt><trkpt lat="38.98516034502518" lon="8.916008267664129"><ele>188.33333333333334</ele><time>2026-03-26T12:25:55.999Z</time></trkpt><trkpt lat="38.98515935318402" lon="8.916103770420023"><ele>189.0</ele><time>2026-03-26T12:25:56.999Z</time></trkpt><trkpt lat="38.98516731595415" lon="8.916206741403519"><ele>189.66666666666666</ele><time>2026-03-26T12:25:57.999Z</time></trkpt><trkpt lat="38.985196266927325" lon="8.916297765171281"><ele>190.33333333333331</ele><time>2026-03-26T12:25:58.999Z</time></trkpt><trkpt lat="38.98524549345875" lon="8.916375128765965"><ele>191.0</ele><time>2026-03-26T12:25:59.999Z</time></trkpt><trkpt lat="38.98531157949372" lon="8.916451817784914"><ele>191.0</ele><time>2026-03-26T12:26:00.999Z</time></trkpt><trkpt lat="38.985396159236224" lon="8.916541637783"><ele>191.0</ele><time>2026-03-26T12:26:01.999Z</time></trkpt><trkpt lat="38.985486990079906" lon="8.916631465999545"><ele>191.0</ele><time>2026-03-26T12:26:02.999Z</time></trkpt><trkpt lat="38.98556238627162" lon="8.916721938721258"><ele>191.0</ele><time>2026-03-26T12:26:03.999Z</time></trkpt><trkpt lat="38.98562871214953" lon="8.916807585707653"><ele>191.0</ele><time>2026-03-26T12:26:05Z</time></trkpt><trkpt lat="38.9856937492959" lon="8.91688549347756"><ele>190.8</ele><time>2026-03-26T12:26:06Z</time></trkpt><trkpt lat="38.98576253839893" lon="8.916957830065227"><ele>190.60000000000002</ele><time>2026-03-26T12:26:07Z</time></trkpt><trkpt lat="38.98582756224349" lon="8.917032168444637"><ele>190.4</ele><time>2026-03-26T12:26:08Z</time></trkpt><trkpt lat="38.98588479933367" lon="8.917114555284543"><ele>190.2</ele><time>2026-03-26T12:26:09Z</time></trkpt><trkpt lat="38.98594452366559" lon="8.917205052095106"><ele>190.0</ele><time>2026-03-26T12:26:10Z</time></trkpt><trkpt lat="38.98601982596623" lon="8.917292668617435"><ele>190.0</ele><time>2026-03-26T12:26:11Z</time></trkpt><trkpt lat="38.986102399949594" lon="8.917374024966751"><ele>190.0</ele><time>2026-03-26T12:26:12Z</time></trkpt><trkpt lat="38.98617963730673" lon="8.917451922955637"><ele>190.0</ele><time>2026-03-26T12:26:13Z</time></trkpt><trkpt lat="38.98624787128439" lon="8.91752438452422"><ele>190.0</ele><time>2026-03-26T12:26:14Z</time></trkpt><trkpt lat="38.98630803314067" lon="8.917590848881984"><ele>190.0</ele><time>2026-03-26T12:26:15Z</time></trkpt><trkpt lat="38.98635355414343" lon="8.917668134380477"><ele>190.0</ele><time>2026-03-26T12:26:16Z</time></trkpt><trkpt lat="38.986397149917856" lon="8.917734070650404"><ele>184.0</ele><time>2026-03-26T12:26:17Z</time></trkpt><trkpt lat="38.9864648303607" lon="8.91785467576357"><ele>178.0</ele><time>2026-03-26T12:26:19Z</time></trkpt><trkpt lat="38.986482377424586" lon="8.917936510552432"><ele>172.0</ele><time>2026-03-26T12:26:20Z</time></trkpt><trkpt lat="38.98652550502702" lon="8.918099041213738"><ele>166.0</ele><time>2026-03-26T12:26:22Z</time></trkpt><trkpt lat="38.98657624765981" lon="8.918184974547264"><ele>160.0</ele><time>2026-03-26T12:26:22.999Z</time></trkpt><trkpt lat="38.98662043463821" lon="8.91825866750915"><ele>160.0</ele><time>2026-03-26T12:26:23.999Z</time></trkpt><trkpt lat="38.98666466147983" lon="8.918324933872588"><ele>160.0</ele><time>2026-03-26T12:26:24.999Z</time></trkpt><trkpt lat="38.98670197329711" lon="8.918407387823395"><ele>160.0</ele><time>2026-03-26T12:26:25.999Z</time></trkpt><trkpt lat="38.98673228166415" lon="8.918495864670977"><ele>160.0</ele><time>2026-03-26T12:26:26.999Z</time></trkpt><trkpt lat="38.98676216787416" lon="8.918577566717047"><ele>160.0</ele><time>2026-03-26T12:26:27.999Z</time></trkpt><trkpt lat="38.98681108079905" lon="8.91865418467419"><ele>160.0</ele><time>2026-03-26T12:26:28.999Z</time></trkpt><trkpt lat="38.9868820633083" lon="8.91873380511008"><ele>158.5</ele><time>2026-03-26T12:26:29.999Z</time></trkpt><trkpt lat="38.98695760467069" lon="8.918809743543667"><ele>157.0</ele><time>2026-03-26T12:26:30.999Z</time></trkpt><trkpt lat="38.987037034257746" lon="8.918885964477747"><ele>155.5</ele><time>2026-03-26T12:26:31.999Z</time></trkpt><trkpt lat="38.9871137021869" lon="8.91895344668807"><ele>154.0</ele><time>2026-03-26T12:26:32.999Z</time></trkpt><trkpt lat="38.98719025237535" lon="8.919007208356883"><ele>152.5</ele><time>2026-03-26T12:26:33.999Z</time></trkpt><trkpt lat="38.98725370879818" lon="8.919030481182789"><ele>151.0</ele><time>2026-03-26T12:26:34.999Z</time></trkpt><trkpt lat="38.98732466113781" lon="8.919047355760782"><ele>151.0</ele><time>2026-03-26T12:26:35.999Z</time></trkpt><trkpt lat="38.98743184311306" lon="8.91905714840792"><ele>151.0</ele><time>2026-03-26T12:26:37.999Z</time></trkpt><trkpt lat="38.987495116993344" lon="8.919141752898888"><ele>151.0</ele><time>2026-03-26T12:26:39.999Z</time></trkpt><trkpt lat="38.98752617942951" lon="8.919224477096915"><ele>151.0</ele><time>2026-03-26T12:26:40.999Z</time></trkpt><trkpt lat="38.987561329679245" lon="8.919302307281985"><ele>151.0</ele><time>2026-03-26T12:26:41.999Z</time></trkpt><trkpt lat="38.98761490854354" lon="8.919378056839566"><ele>151.0</ele><time>2026-03-26T12:26:42.999Z</time></trkpt><trkpt lat="38.987676190897965" lon="8.919432726862443"><ele>150.42857142857144</ele><time>2026-03-26T12:26:43.999Z</time></trkpt><trkpt lat="38.98772943295283" lon="8.919482712516192"><ele>149.85714285714286</ele><time>2026-03-26T12:26:44.999Z</time></trkpt><trkpt lat="38.98776956902285" lon="8.91954950723555"><ele>149.28571428571428</ele><time>2026-03-26T12:26:45.999Z</time></trkpt><trkpt lat="38.98780792842825" lon="8.919623506897869"><ele>148.71428571428572</ele><time>2026-03-26T12:26:46.999Z</time></trkpt><trkpt lat="38.98784446642708" lon="8.919697303329581"><ele>148.14285714285714</ele><time>2026-03-26T12:26:47.999Z</time></trkpt><trkpt lat="38.9878815484753" lon="8.919763133544441"><ele>147.57142857142858</ele><time>2026-03-26T12:26:48.999Z</time></trkpt><trkpt lat="38.98792341995803" lon="8.919831017492601"><ele>147.0</ele><time>2026-03-26T12:26:49.999Z</time></trkpt><trkpt lat="38.98798275662962" lon="8.919891401070824"><ele>147.0</ele><time>2026-03-26T12:26:50.999Z</time></trkpt><trkpt lat="38.98804897876304" lon="8.91993988601714"><ele>147.0</ele><time>2026-03-26T12:26:51.999Z</time></trkpt><trkpt lat="38.98811358844584" lon="8.919988169467308"><ele>147.0</ele><time>2026-03-26T12:26:52.999Z</time></trkpt><trkpt lat="38.988197050343125" lon="8.920112852829929"><ele>147.0</ele><time>2026-03-26T12:26:54.999Z</time></trkpt><trkpt lat="38.98822302969565" lon="8.92021213013979"><ele>147.0</ele><time>2026-03-26T12:26:55.999Z</time></trkpt><trkpt lat="38.988247408446135" lon="8.920316547519516"><ele>147.0</ele><time>2026-03-26T12:26:56.999Z</time></trkpt><trkpt lat="38.98827669091213" lon="8.920403012757458"><ele>145.33333333333334</ele><time>2026-03-26T12:26:57.999Z</time></trkpt><trkpt lat="38.988317495481176" lon="8.920483323011304"><ele>143.66666666666666</ele><time>2026-03-26T12:26:58.999Z</time></trkpt><trkpt lat="38.98836137069061" lon="8.920567882559864"><ele>142.0</ele><time>2026-03-26T12:26:59.999Z</time></trkpt><trkpt lat="38.98841764086846" lon="8.920650876357225"><ele>140.33333333333331</ele><time>2026-03-26T12:27:00.999Z</time></trkpt><trkpt lat="38.988470858935486" lon="8.920727909028715"><ele>138.66666666666666</ele><time>2026-03-26T12:27:01.999Z</time></trkpt><trkpt lat="38.98852521527059" lon="8.92079956693896"><ele>137.0</ele><time>2026-03-26T12:27:02.999Z</time></trkpt><trkpt lat="38.98857791145319" lon="8.920862985695686"><ele>133.66666666666666</ele><time>2026-03-26T12:27:03.999Z</time></trkpt><trkpt lat="38.98862500109419" lon="8.920925089188092"><ele>130.33333333333331</ele><time>2026-03-26T12:27:04.999Z</time></trkpt><trkpt lat="38.988740474518025" lon="8.921007326119074"><ele>127.0</ele><time>2026-03-26T12:27:06.999Z</time></trkpt><trkpt lat="38.988815737122295" lon="8.921039359972696"><ele>123.66666666666666</ele><time>2026-03-26T12:27:07.999Z</time></trkpt><trkpt lat="38.98887658525892" lon="8.921085463191694"><ele>120.33333333333333</ele><time>2026-03-26T12:27:08.999Z</time></trkpt><trkpt lat="38.988928808989456" lon="8.921135466952506"><ele>117.0</ele><time>2026-03-26T12:27:09.999Z</time></trkpt><trkpt lat="38.988979021475394" lon="8.921188113214251"><ele>117.0</ele><time>2026-03-26T12:27:10.999Z</time></trkpt><trkpt lat="38.989021158071466" lon="8.921250118484933"><ele>117.0</ele><time>2026-03-26T12:27:11.999Z</time></trkpt><trkpt lat="38.98905905890917" lon="8.921320300442684"><ele>117.0</ele><time>2026-03-26T12:27:12.999Z</time></trkpt><trkpt lat="38.98909729654601" lon="8.921386510791839"><ele>117.0</ele><time>2026-03-26T12:27:13.999Z</time></trkpt><trkpt lat="38.98917418626571" lon="8.921496022462449"><ele>117.0</ele><time>2026-03-26T12:27:15.999Z</time></trkpt><trkpt lat="38.98918559478201" lon="8.921583799918931"><ele>117.0</ele><time>2026-03-26T12:27:16.999Z</time></trkpt><trkpt lat="38.989190991487575" lon="8.921681637849574"><ele>115.33333333333333</ele><time>2026-03-26T12:27:17.999Z</time></trkpt><trkpt lat="38.98918579523798" lon="8.92179989859067"><ele>113.66666666666666</ele><time>2026-03-26T12:27:18.999Z</time></trkpt><trkpt lat="38.98918047948367" lon="8.921930776574323"><ele>112.0</ele><time>2026-03-26T12:27:20.999Z</time></trkpt><trkpt lat="38.98917593920843" lon="8.922049997093726"><ele>110.33333333333333</ele><time>2026-03-26T12:27:22.999Z</time></trkpt><trkpt lat="38.989174188409194" lon="8.9221426661855"><ele>108.66666666666666</ele><time>2026-03-26T12:27:23.999Z</time></trkpt><trkpt lat="38.989174988049626" lon="8.922248557611724"><ele>107.0</ele><time>2026-03-26T12:27:24.999Z</time></trkpt><trkpt lat="38.98919085630525" lon="8.922363850227153"><ele>106.66666666666666</ele><time>2026-03-26T12:27:25.999Z</time></trkpt><trkpt lat="38.98922097691151" lon="8.922482711968758"><ele>106.33333333333333</ele><time>2026-03-26T12:27:26.998Z</time></trkpt><trkpt lat="38.989245501213325" lon="8.92259857903708"><ele>106.0</ele><time>2026-03-26T12:27:27.998Z</time></trkpt><trkpt lat="38.98927046952132" lon="8.922691868379347"><ele>105.66666666666666</ele><time>2026-03-26T12:27:28.998Z</time></trkpt><trkpt lat="38.98930784634054" lon="8.9227655264852"><ele>105.33333333333333</ele><time>2026-03-26T12:27:29.998Z</time></trkpt><trkpt lat="38.98935985053389" lon="8.922838221405465"><ele>105.0</ele><time>2026-03-26T12:27:30.998Z</time></trkpt><trkpt lat="38.98943190544189" lon="8.922934085808908"><ele>104.16666666666667</ele><time>2026-03-26T12:27:31.998Z</time></trkpt><trkpt lat="38.98951351084131" lon="8.923013479560357"><ele>103.33333333333334</ele><time>2026-03-26T12:27:32.998Z</time></trkpt><trkpt lat="38.98957247641024" lon="8.92307203880408"><ele>102.5</ele><time>2026-03-26T12:27:33.998Z</time></trkpt><trkpt lat="38.98963897526896" lon="8.923114026212634"><ele>101.66666666666667</ele><time>2026-03-26T12:27:34.998Z</time></trkpt><trkpt lat="38.989702378784315" lon="8.923183975528946"><ele>100.83333333333334</ele><time>2026-03-26T12:27:35.998Z</time></trkpt><trkpt lat="38.98975758013236" lon="8.923280657784613"><ele>100.0</ele><time>2026-03-26T12:27:36.998Z</time></trkpt><trkpt lat="38.98980137529159" lon="8.92339080687469"><ele>99.4</ele><time>2026-03-26T12:27:37.998Z</time></trkpt><trkpt lat="38.989852571768814" lon="8.92350426432175"><ele>98.8</ele><time>2026-03-26T12:27:38.998Z</time></trkpt><trkpt lat="38.98990103170981" lon="8.923613621499376"><ele>98.19999999999999</ele><time>2026-03-26T12:27:39.998Z</time></trkpt><trkpt lat="38.98996217421537" lon="8.923715367227173"><ele>97.6</ele><time>2026-03-26T12:27:40.998Z</time></trkpt><trkpt lat="38.99002552122408" lon="8.923816695451174"><ele>97.0</ele><time>2026-03-26T12:27:41.998Z</time></trkpt><trkpt lat="38.99007176690935" lon="8.923927262967593"><ele>96.19999999999999</ele><time>2026-03-26T12:27:42.998Z</time></trkpt><trkpt lat="38.99010090164553" lon="8.92404622734814"><ele>95.4</ele><time>2026-03-26T12:27:43.998Z</time></trkpt><trkpt lat="38.99011797868277" lon="8.924160213892264"><ele>94.6</ele><time>2026-03-26T12:27:44.998Z</time></trkpt><trkpt lat="38.99013877015704" lon="8.92426558364687"><ele>93.80000000000001</ele><time>2026-03-26T12:27:45.998Z</time></trkpt><trkpt lat="38.9901726352449" lon="8.9243815353161"><ele>93.0</ele><time>2026-03-26T12:27:46.998Z</time></trkpt><trkpt lat="38.990210664246234" lon="8.924514428539045"><ele>93.0</ele><time>2026-03-26T12:27:47.998Z</time></trkpt><trkpt lat="38.99020093887258" lon="8.924648195277989"><ele>93.0</ele><time>2026-03-26T12:27:48.998Z</time></trkpt><trkpt lat="38.99019946550159" lon="8.924752908071643"><ele>93.0</ele><time>2026-03-26T12:27:49.998Z</time></trkpt><trkpt lat="38.99020663704437" lon="8.924853490822752"><ele>93.0</ele><time>2026-03-26T12:27:50.998Z</time></trkpt><trkpt lat="38.99021985783439" lon="8.924948102417957"><ele>93.0</ele><time>2026-03-26T12:27:51.998Z</time></trkpt><trkpt lat="38.99022027007871" lon="8.925036161441215"><ele>93.0</ele><time>2026-03-26T12:27:52.998Z</time></trkpt><trkpt lat="38.9902191752459" lon="8.925119893900641"><ele>92.83333333333333</ele><time>2026-03-26T12:27:53.998Z</time></trkpt><trkpt lat="38.99022679739578" lon="8.925202811029164"><ele>92.66666666666667</ele><time>2026-03-26T12:27:54.998Z</time></trkpt><trkpt lat="38.99024890665242" lon="8.925281667297535"><ele>92.5</ele><time>2026-03-26T12:27:55.998Z</time></trkpt><trkpt lat="38.990309702071336" lon="8.925406437322954"><ele>92.33333333333334</ele><time>2026-03-26T12:27:57.998Z</time></trkpt><trkpt lat="38.99034722486916" lon="8.925549107270044"><ele>92.16666666666667</ele><time>2026-03-26T12:27:59.998Z</time></trkpt><trkpt lat="38.990347600586105" lon="8.925644432562354"><ele>92.0</ele><time>2026-03-26T12:28:00.998Z</time></trkpt><trkpt lat="38.99032751787733" lon="8.925749973781048"><ele>92.0</ele><time>2026-03-26T12:28:01.998Z</time></trkpt><trkpt lat="38.99029488784402" lon="8.92586136173057"><ele>92.0</ele><time>2026-03-26T12:28:02.998Z</time></trkpt><trkpt lat="38.990264781137085" lon="8.92597978137839"><ele>92.0</ele><time>2026-03-26T12:28:03.998Z</time></trkpt><trkpt lat="38.990248295748025" lon="8.926097241029161"><ele>92.0</ele><time>2026-03-26T12:28:04.998Z</time></trkpt><trkpt lat="38.990234403698906" lon="8.926232056795047"><ele>92.0</ele><time>2026-03-26T12:28:05.998Z</time></trkpt><trkpt lat="38.99022174548559" lon="8.926388232612286"><ele>91.75</ele><time>2026-03-26T12:28:06.998Z</time></trkpt><trkpt lat="38.99021206125958" lon="8.926556002177499"><ele>91.5</ele><time>2026-03-26T12:28:07.998Z</time></trkpt><trkpt lat="38.99021171821956" lon="8.92672982441667"><ele>91.25</ele><time>2026-03-26T12:28:08.998Z</time></trkpt><trkpt lat="38.99021961290572" lon="8.926901521985789"><ele>91.0</ele><time>2026-03-26T12:28:09.998Z</time></trkpt><trkpt lat="38.99022909990342" lon="8.927069028942816"><ele>90.25</ele><time>2026-03-26T12:28:10.999Z</time></trkpt><trkpt lat="38.99024847597708" lon="8.927232227871645"><ele>89.5</ele><time>2026-03-26T12:28:11.999Z</time></trkpt><trkpt lat="38.990263706922384" lon="8.927386605478844"><ele>88.75</ele><time>2026-03-26T12:28:12.999Z</time></trkpt><trkpt lat="38.990272603993674" lon="8.927539079031327"><ele>88.0</ele><time>2026-03-26T12:28:13.999Z</time></trkpt><trkpt lat="38.990284448596874" lon="8.927692849559653"><ele>87.75</ele><time>2026-03-26T12:28:14.999Z</time></trkpt><trkpt lat="38.99030025736409" lon="8.927850786434837"><ele>87.5</ele><time>2026-03-26T12:28:15.999Z</time></trkpt><trkpt lat="38.990314183633004" lon="8.928010371246971"><ele>87.25</ele><time>2026-03-26T12:28:16.999Z</time></trkpt><trkpt lat="38.99032433267639" lon="8.928166361329529"><ele>87.0</ele><time>2026-03-26T12:28:17.999Z</time></trkpt><trkpt lat="38.990339360025494" lon="8.928323652323625"><ele>87.0</ele><time>2026-03-26T12:28:18.999Z</time></trkpt><trkpt lat="38.990354632584406" lon="8.92848107008957"><ele>87.0</ele><time>2026-03-26T12:28:19.999Z</time></trkpt><trkpt lat="38.99036587544339" lon="8.92863499139026"><ele>87.0</ele><time>2026-03-26T12:28:20.999Z</time></trkpt><trkpt lat="38.9903783212166" lon="8.928787011103257"><ele>87.0</ele><time>2026-03-26T12:28:21.999Z</time></trkpt><trkpt lat="38.99039570446743" lon="8.928942587538126"><ele>87.0</ele><time>2026-03-26T12:28:22.999Z</time></trkpt><trkpt lat="38.99041138195068" lon="8.929099299426785"><ele>87.0</ele><time>2026-03-26T12:28:23.999Z</time></trkpt><trkpt lat="38.99042071211094" lon="8.929256867427863"><ele>87.0</ele><time>2026-03-26T12:28:24.999Z</time></trkpt><trkpt lat="38.99043224657066" lon="8.929416876530214"><ele>87.0</ele><time>2026-03-26T12:28:25.999Z</time></trkpt><trkpt lat="38.99044660298478" lon="8.929573931602388"><ele>86.5</ele><time>2026-03-26T12:28:26.999Z</time></trkpt><trkpt lat="38.99046194970943" lon="8.929725684702763"><ele>86.0</ele><time>2026-03-26T12:28:27.999Z</time></trkpt><trkpt lat="38.9904729211318" lon="8.929877197700527"><ele>85.5</ele><time>2026-03-26T12:28:29Z</time></trkpt><trkpt lat="38.99046841982672" lon="8.930024404779138"><ele>85.0</ele><time>2026-03-26T12:28:30Z</time></trkpt><trkpt lat="38.99044656692757" lon="8.93017697836821"><ele>84.25</ele><time>2026-03-26T12:28:31Z</time></trkpt><trkpt lat="38.99041188192156" lon="8.930332429067914"><ele>83.5</ele><time>2026-03-26T12:28:32Z</time></trkpt><trkpt lat="38.99038209820277" lon="8.930489001279318"><ele>82.75</ele><time>2026-03-26T12:28:33Z</time></trkpt><trkpt lat="38.99035516447011" lon="8.930648479823198"><ele>82.0</ele><time>2026-03-26T12:28:34Z</time></trkpt><trkpt lat="38.99032875328502" lon="8.93081016577354"><ele>81.5</ele><time>2026-03-26T12:28:35Z</time></trkpt><trkpt lat="38.99029832136269" lon="8.930973849993627"><ele>81.0</ele><time>2026-03-26T12:28:36Z</time></trkpt><trkpt lat="38.99025907685023" lon="8.93113448013376"><ele>80.5</ele><time>2026-03-26T12:28:37Z</time></trkpt><trkpt lat="38.990201738507864" lon="8.931280449886513"><ele>80.0</ele><time>2026-03-26T12:28:38Z</time></trkpt><trkpt lat="38.99012642458168" lon="8.931412121276043"><ele>80.0</ele><time>2026-03-26T12:28:39Z</time></trkpt><trkpt lat="38.9900671899028" lon="8.931555235512752"><ele>80.0</ele><time>2026-03-26T12:28:40Z</time></trkpt><trkpt lat="38.990029352394615" lon="8.93170727113909"><ele>80.0</ele><time>2026-03-26T12:28:41Z</time></trkpt><trkpt lat="38.99000689601487" lon="8.931862941906223"><ele>80.0</ele><time>2026-03-26T12:28:42Z</time></trkpt><trkpt lat="38.98999927895816" lon="8.932022506341244"><ele>80.25</ele><time>2026-03-26T12:28:43Z</time></trkpt><trkpt lat="38.99000590416727" lon="8.932184123383058"><ele>80.5</ele><time>2026-03-26T12:28:43.999Z</time></trkpt><trkpt lat="38.99003027187699" lon="8.932346302575034"><ele>80.75</ele><time>2026-03-26T12:28:44.999Z</time></trkpt><trkpt lat="38.99007659706705" lon="8.932508903572733"><ele>81.0</ele><time>2026-03-26T12:28:45.999Z</time></trkpt><trkpt lat="38.99013790286731" lon="8.932671818456047"><ele>80.5</ele><time>2026-03-26T12:28:46.999Z</time></trkpt><trkpt lat="38.9902090597159" lon="8.932824547215056"><ele>80.0</ele><time>2026-03-26T12:28:47.999Z</time></trkpt><trkpt lat="38.99028331881988" lon="8.932979199718034"><ele>79.5</ele><time>2026-03-26T12:28:48.999Z</time></trkpt><trkpt lat="38.990350546514556" lon="8.933137461983119"><ele>79.0</ele><time>2026-03-26T12:28:49.999Z</time></trkpt><trkpt lat="38.990412503503904" lon="8.933297434065091"><ele>78.75</ele><time>2026-03-26T12:28:50.999Z</time></trkpt><trkpt lat="38.990471692097174" lon="8.933459171946973"><ele>78.5</ele><time>2026-03-26T12:28:51.999Z</time></trkpt><trkpt lat="38.99052143599925" lon="8.933622563638824"><ele>78.25</ele><time>2026-03-26T12:28:52.999Z</time></trkpt><trkpt lat="38.990557919420866" lon="8.933789633621739"><ele>78.0</ele><time>2026-03-26T12:28:53.999Z</time></trkpt><trkpt lat="38.99057554747045" lon="8.933950631673026"><ele>78.0</ele><time>2026-03-26T12:28:54.999Z</time></trkpt><trkpt lat="38.99057508355265" lon="8.934118069492712"><ele>78.0</ele><time>2026-03-26T12:28:55.999Z</time></trkpt><trkpt lat="38.990563859162165" lon="8.9342877395718"><ele>78.0</ele><time>2026-03-26T12:28:56.999Z</time></trkpt><trkpt lat="38.99055306933716" lon="8.934456930649464"><ele>78.0</ele><time>2026-03-26T12:28:57.999Z</time></trkpt><trkpt lat="38.99054626374286" lon="8.934627284287876"><ele>77.5</ele><time>2026-03-26T12:28:58.999Z</time></trkpt><trkpt lat="38.99054215974294" lon="8.93479582190655"><ele>77.0</ele><time>2026-03-26T12:28:59.999Z</time></trkpt><trkpt lat="38.99053916710771" lon="8.934963052942617"><ele>76.5</ele><time>2026-03-26T12:29:00.999Z</time></trkpt><trkpt lat="38.99054544960895" lon="8.935113529198707"><ele>76.0</ele><time>2026-03-26T12:29:01.999Z</time></trkpt><trkpt lat="38.99056292205543" lon="8.93525183961932"><ele>75.5</ele><time>2026-03-26T12:29:02.999Z</time></trkpt><trkpt lat="38.990587916148506" lon="8.935395060114821"><ele>75.0</ele><time>2026-03-26T12:29:03.999Z</time></trkpt><trkpt lat="38.990609440310195" lon="8.935543888580932"><ele>74.5</ele><time>2026-03-26T12:29:04.999Z</time></trkpt><trkpt lat="38.99062655466779" lon="8.93570186487981"><ele>74.0</ele><time>2026-03-26T12:29:05.999Z</time></trkpt><trkpt lat="38.99064636252273" lon="8.935855410402553"><ele>73.60000000000001</ele><time>2026-03-26T12:29:06.999Z</time></trkpt><trkpt lat="38.9906685409285" lon="8.936011526251258"><ele>73.2</ele><time>2026-03-26T12:29:07.999Z</time></trkpt><trkpt lat="38.990687732523696" lon="8.936161166061376"><ele>72.80000000000001</ele><time>2026-03-26T12:29:08.999Z</time></trkpt><trkpt lat="38.9906998288032" lon="8.936291882600788"><ele>72.4</ele><time>2026-03-26T12:29:09.999Z</time></trkpt><trkpt lat="38.99070047860851" lon="8.936417307261504"><ele>72.0</ele><time>2026-03-26T12:29:10.999Z</time></trkpt><trkpt lat="38.99067983559408" lon="8.936544583387496"><ele>72.0</ele><time>2026-03-26T12:29:11.999Z</time></trkpt><trkpt lat="38.99062908090754" lon="8.936661996991608"><ele>72.0</ele><time>2026-03-26T12:29:12.999Z</time></trkpt><trkpt lat="38.990563465620404" lon="8.93677253225575"><ele>72.0</ele><time>2026-03-26T12:29:13.999Z</time></trkpt><trkpt lat="38.990477808734674" lon="8.936861078375212"><ele>72.0</ele><time>2026-03-26T12:29:14.999Z</time></trkpt><trkpt lat="38.99037631926446" lon="8.93693236334402"><ele>72.0</ele><time>2026-03-26T12:29:15.999Z</time></trkpt><trkpt lat="38.99026140045629" lon="8.937001300394998"><ele>72.75</ele><time>2026-03-26T12:29:16.999Z</time></trkpt><trkpt lat="38.990152782720315" lon="8.93706893258692"><ele>73.5</ele><time>2026-03-26T12:29:17.999Z</time></trkpt><trkpt lat="38.99004219226419" lon="8.937148773713671"><ele>74.25</ele><time>2026-03-26T12:29:18.999Z</time></trkpt><trkpt lat="38.98993265949634" lon="8.937233469225824"><ele>75.0</ele><time>2026-03-26T12:29:19.999Z</time></trkpt><trkpt lat="38.989822729133515" lon="8.93731532155111"><ele>75.5</ele><time>2026-03-26T12:29:20.999Z</time></trkpt><trkpt lat="38.989711637189636" lon="8.937397064215581"><ele>76.0</ele><time>2026-03-26T12:29:21.999Z</time></trkpt><trkpt lat="38.98960251282358" lon="8.937480853578137"><ele>76.5</ele><time>2026-03-26T12:29:22.999Z</time></trkpt><trkpt lat="38.9894922416385" lon="8.937565453852994"><ele>77.0</ele><time>2026-03-26T12:29:23.999Z</time></trkpt><trkpt lat="38.98938316055243" lon="8.937648188832245"><ele>77.25</ele><time>2026-03-26T12:29:24.999Z</time></trkpt><trkpt lat="38.989274897261524" lon="8.937725910811835"><ele>77.5</ele><time>2026-03-26T12:29:25.999Z</time></trkpt><trkpt lat="38.98916718951001" lon="8.937800207041501"><ele>77.75</ele><time>2026-03-26T12:29:26.999Z</time></trkpt><trkpt lat="38.98906185312274" lon="8.937876125984888"><ele>78.0</ele><time>2026-03-26T12:29:27.999Z</time></trkpt><trkpt lat="38.98896066981128" lon="8.937955596190756"><ele>78.6</ele><time>2026-03-26T12:29:28.999Z</time></trkpt><trkpt lat="38.98886751994612" lon="8.938042885944329"><ele>79.19999999999999</ele><time>2026-03-26T12:29:29.999Z</time></trkpt><trkpt lat="38.9887991747407" lon="8.938145234239046"><ele>79.8</ele><time>2026-03-26T12:29:30.999Z</time></trkpt><trkpt lat="38.98876047895469" lon="8.938257784431551"><ele>80.39999999999999</ele><time>2026-03-26T12:29:31.999Z</time></trkpt><trkpt lat="38.988737909481145" lon="8.938373066874036"><ele>81.0</ele><time>2026-03-26T12:29:32.999Z</time></trkpt><trkpt lat="38.98873755609298" lon="8.938489364897569"><ele>82.4</ele><time>2026-03-26T12:29:33.999Z</time></trkpt><trkpt lat="38.988763813345344" lon="8.938607099212616"><ele>83.8</ele><time>2026-03-26T12:29:34.999Z</time></trkpt><trkpt lat="38.988811691233145" lon="8.938717158252915"><ele>85.2</ele><time>2026-03-26T12:29:35.999Z</time></trkpt><trkpt lat="38.988880890588305" lon="8.938817520351003"><ele>86.60000000000001</ele><time>2026-03-26T12:29:36.999Z</time></trkpt><trkpt lat="38.98896272499995" lon="8.938896764069415"><ele>88.0</ele><time>2026-03-26T12:29:37.999Z</time></trkpt><trkpt lat="38.98905096105494" lon="8.938970679798244"><ele>88.0</ele><time>2026-03-26T12:29:38.999Z</time></trkpt><trkpt lat="38.989151206034386" lon="8.939039499657426"><ele>88.0</ele><time>2026-03-26T12:29:39.999Z</time></trkpt><trkpt lat="38.98925720291684" lon="8.939105367584679"><ele>88.0</ele><time>2026-03-26T12:29:40.999Z</time></trkpt><trkpt lat="38.989367255647394" lon="8.939167535295526"><ele>88.0</ele><time>2026-03-26T12:29:41.999Z</time></trkpt><trkpt lat="38.98948707559422" lon="8.939217900841577"><ele>85.75</ele><time>2026-03-26T12:29:42.999Z</time></trkpt><trkpt lat="38.989611679343284" lon="8.93926205703751"><ele>83.5</ele><time>2026-03-26T12:29:43.999Z</time></trkpt><trkpt lat="38.98972205655291" lon="8.939312287682514"><ele>81.25</ele><time>2026-03-26T12:29:44.999Z</time></trkpt><trkpt lat="38.98982685559896" lon="8.93937952772429"><ele>79.0</ele><time>2026-03-26T12:29:45.999Z</time></trkpt><trkpt lat="38.989931098593836" lon="8.939464801972814"><ele>77.0</ele><time>2026-03-26T12:29:46.999Z</time></trkpt><trkpt lat="38.990035346957875" lon="8.939572424421776"><ele>75.0</ele><time>2026-03-26T12:29:47.999Z</time></trkpt><trkpt lat="38.990136750374944" lon="8.93969366721379"><ele>73.0</ele><time>2026-03-26T12:29:48.999Z</time></trkpt><trkpt lat="38.990236609099604" lon="8.939819863650122"><ele>71.0</ele><time>2026-03-26T12:29:49.999Z</time></trkpt><trkpt lat="38.99033748980669" lon="8.93994822281924"><ele>71.0</ele><time>2026-03-26T12:29:50.999Z</time></trkpt><trkpt lat="38.99043858693879" lon="8.940075275360076"><ele>71.0</ele><time>2026-03-26T12:29:51.999Z</time></trkpt><trkpt lat="38.9905333806582" lon="8.940206707013704"><ele>71.0</ele><time>2026-03-26T12:29:52.999Z</time></trkpt><trkpt lat="38.990614929585135" lon="8.940348543044804"><ele>71.0</ele><time>2026-03-26T12:29:53.999Z</time></trkpt><trkpt lat="38.9906749858244" lon="8.940507124465471"><ele>71.0</ele><time>2026-03-26T12:29:54.999Z</time></trkpt><trkpt lat="38.99071449495384" lon="8.94067891573966"><ele>71.0</ele><time>2026-03-26T12:29:55.999Z</time></trkpt><trkpt lat="38.99073770465763" lon="8.940857831554556"><ele>71.0</ele><time>2026-03-26T12:29:56.999Z</time></trkpt><trkpt lat="38.99073976597012" lon="8.941040795459646"><ele>71.0</ele><time>2026-03-26T12:29:57.999Z</time></trkpt><trkpt lat="38.99072331780577" lon="8.941222627083594"><ele>70.75</ele><time>2026-03-26T12:29:58.999Z</time></trkpt><trkpt lat="38.990699271724814" lon="8.941399091521815"><ele>70.5</ele><time>2026-03-26T12:29:59.999Z</time></trkpt><trkpt lat="38.99067859999255" lon="8.941575476790078"><ele>70.25</ele><time>2026-03-26T12:30:00.999Z</time></trkpt><trkpt lat="38.99066049072159" lon="8.941735301742314"><ele>70.0</ele><time>2026-03-26T12:30:01.999Z</time></trkpt><trkpt lat="38.99066169497022" lon="8.94189256772007"><ele>70.5</ele><time>2026-03-26T12:30:02.999Z</time></trkpt><trkpt lat="38.9906875367527" lon="8.942054637726338"><ele>71.0</ele><time>2026-03-26T12:30:03.999Z</time></trkpt><trkpt lat="38.990741096694094" lon="8.942210451795171"><ele>71.5</ele><time>2026-03-26T12:30:04.999Z</time></trkpt><trkpt lat="38.99081966688416" lon="8.942353259363667"><ele>72.0</ele><time>2026-03-26T12:30:05.999Z</time></trkpt><trkpt lat="38.99092204555707" lon="8.94247000565865"><ele>69.75</ele><time>2026-03-26T12:30:06.999Z</time></trkpt><trkpt lat="38.99103431153223" lon="8.942563267099922"><ele>67.5</ele><time>2026-03-26T12:30:07.999Z</time></trkpt><trkpt lat="38.99114332973639" lon="8.942642358512572"><ele>65.25</ele><time>2026-03-26T12:30:08.999Z</time></trkpt><trkpt lat="38.99124492942651" lon="8.94273144070828"><ele>63.0</ele><time>2026-03-26T12:30:09.999Z</time></trkpt><trkpt lat="38.99133875080237" lon="8.942844764679911"><ele>63.0</ele><time>2026-03-26T12:30:10.999Z</time></trkpt><trkpt lat="38.99142271835945" lon="8.94297884937272"><ele>63.0</ele><time>2026-03-26T12:30:11.999Z</time></trkpt><trkpt lat="38.99149723506842" lon="8.943127500688213"><ele>63.0</ele><time>2026-03-26T12:30:12.999Z</time></trkpt><trkpt lat="38.99156869055691" lon="8.943274667554917"><ele>63.0</ele><time>2026-03-26T12:30:13.999Z</time></trkpt><trkpt lat="38.991642978174916" lon="8.943418008708287"><ele>62.75</ele><time>2026-03-26T12:30:14.999Z</time></trkpt><trkpt lat="38.991719290586886" lon="8.943558875613931"><ele>62.5</ele><time>2026-03-26T12:30:15.999Z</time></trkpt><trkpt lat="38.991791787164104" lon="8.943704657478857"><ele>62.25</ele><time>2026-03-26T12:30:17Z</time></trkpt><trkpt lat="38.99186104635683" lon="8.943849379428713"><ele>62.0</ele><time>2026-03-26T12:30:18Z</time></trkpt><trkpt lat="38.991924544336" lon="8.943976658098498"><ele>62.0</ele><time>2026-03-26T12:30:19Z</time></trkpt><trkpt lat="38.99198209145193" lon="8.944095743094277"><ele>62.0</ele><time>2026-03-26T12:30:20Z</time></trkpt><trkpt lat="38.99203651116758" lon="8.944209622341328"><ele>62.0</ele><time>2026-03-26T12:30:21Z</time></trkpt><trkpt lat="38.99208842451764" lon="8.944322051122683"><ele>62.0</ele><time>2026-03-26T12:30:22Z</time></trkpt><trkpt lat="38.992140977710136" lon="8.944433746861401"><ele>62.0</ele><time>2026-03-26T12:30:23Z</time></trkpt><trkpt lat="38.99219186010837" lon="8.944533389194953"><ele>61.66666666666667</ele><time>2026-03-26T12:30:24Z</time></trkpt><trkpt lat="38.99223191312484" lon="8.9446311086645"><ele>61.333333333333336</ele><time>2026-03-26T12:30:25Z</time></trkpt><trkpt lat="38.99224400939526" lon="8.944735777573513"><ele>61.0</ele><time>2026-03-26T12:30:26Z</time></trkpt><trkpt lat="38.992246268754286" lon="8.944832099526952"><ele>60.66666666666667</ele><time>2026-03-26T12:30:27Z</time></trkpt><trkpt lat="38.992238357498096" lon="8.944915829407588"><ele>60.333333333333336</ele><time>2026-03-26T12:30:28Z</time></trkpt><trkpt lat="38.992240667704266" lon="8.94500222582604"><ele>60.0</ele><time>2026-03-26T12:30:29Z</time></trkpt><trkpt lat="38.992242988983136" lon="8.945114068001782"><ele>59.8</ele><time>2026-03-26T12:30:30Z</time></trkpt><trkpt lat="38.992245727464315" lon="8.945232618463852"><ele>59.6</ele><time>2026-03-26T12:30:31Z</time></trkpt><trkpt lat="38.9922488171011" lon="8.945366022538117"><ele>59.400000000000006</ele><time>2026-03-26T12:30:32Z</time></trkpt><trkpt lat="38.992250566078155" lon="8.945505683765735"><ele>59.2</ele><time>2026-03-26T12:30:33Z</time></trkpt><trkpt lat="38.99225622277866" lon="8.945652925142817"><ele>59.0</ele><time>2026-03-26T12:30:34Z</time></trkpt><trkpt lat="38.99226436159246" lon="8.945805113409602"><ele>58.75</ele><time>2026-03-26T12:30:35Z</time></trkpt><trkpt lat="38.99227113585196" lon="8.945961593784382"><ele>58.5</ele><time>2026-03-26T12:30:36Z</time></trkpt><trkpt lat="38.992273820744934" lon="8.946119953749548"><ele>58.25</ele><time>2026-03-26T12:30:37Z</time></trkpt><trkpt lat="38.992278509858906" lon="8.946282180536953"><ele>58.0</ele><time>2026-03-26T12:30:38Z</time></trkpt><trkpt lat="38.992290717829256" lon="8.946446475255904"><ele>58.0</ele><time>2026-03-26T12:30:39Z</time></trkpt><trkpt lat="38.99229865762355" lon="8.946608865937437"><ele>58.0</ele><time>2026-03-26T12:30:40Z</time></trkpt><trkpt lat="38.99230226127884" lon="8.946771815358161"><ele>58.0</ele><time>2026-03-26T12:30:41Z</time></trkpt><trkpt lat="38.992313895136434" lon="8.946938483700952"><ele>58.0</ele><time>2026-03-26T12:30:42Z</time></trkpt><trkpt lat="38.992323517681314" lon="8.947105539020246"><ele>57.75</ele><time>2026-03-26T12:30:43Z</time></trkpt><trkpt lat="38.99233087109141" lon="8.947274870618708"><ele>57.5</ele><time>2026-03-26T12:30:44Z</time></trkpt><trkpt lat="38.99233724374733" lon="8.94744449301492"><ele>57.25</ele><time>2026-03-26T12:30:45Z</time></trkpt><trkpt lat="38.99234479214645" lon="8.947611911187805"><ele>57.0</ele><time>2026-03-26T12:30:46Z</time></trkpt><trkpt lat="38.99235296900844" lon="8.947778837024266"><ele>56.5</ele><time>2026-03-26T12:30:47Z</time></trkpt><trkpt lat="38.99235871911966" lon="8.947935534689767"><ele>56.0</ele><time>2026-03-26T12:30:48Z</time></trkpt><trkpt lat="38.992362793173164" lon="8.94808970565728"><ele>55.5</ele><time>2026-03-26T12:30:49Z</time></trkpt><trkpt lat="38.992367696789984" lon="8.948266661917865"><ele>55.0</ele><time>2026-03-26T12:30:50Z</time></trkpt><trkpt lat="38.9923753899242" lon="8.948469173604604"><ele>54.33333333333333</ele><time>2026-03-26T12:30:51Z</time></trkpt><trkpt lat="38.992380331476255" lon="8.948682439002765"><ele>53.66666666666667</ele><time>2026-03-26T12:30:52Z</time></trkpt><trkpt lat="38.992377602734976" lon="8.948921722714172"><ele>53.0</ele><time>2026-03-26T12:30:53Z</time></trkpt><trkpt lat="38.992367064626414" lon="8.949166341219193"><ele>52.66666666666667</ele><time>2026-03-26T12:30:54Z</time></trkpt><trkpt lat="38.99235181338786" lon="8.949405321999844"><ele>52.33333333333333</ele><time>2026-03-26T12:30:55Z</time></trkpt><trkpt lat="38.992329356542434" lon="8.949627915342564"><ele>52.0</ele><time>2026-03-26T12:30:56Z</time></trkpt><trkpt lat="38.99230052669719" lon="8.94983843848074"><ele>52.0</ele><time>2026-03-26T12:30:57Z</time></trkpt><trkpt lat="38.992267109265654" lon="8.95003826671243"><ele>52.0</ele><time>2026-03-26T12:30:58Z</time></trkpt><trkpt lat="38.99223032088779" lon="8.950235739070834"><ele>52.0</ele><time>2026-03-26T12:30:59Z</time></trkpt><trkpt lat="38.992186694302724" lon="8.950433783012794"><ele>51.666666666666664</ele><time>2026-03-26T12:31:00Z</time></trkpt><trkpt lat="38.99213445754837" lon="8.950633763222173"><ele>51.33333333333333</ele><time>2026-03-26T12:31:00.999Z</time></trkpt><trkpt lat="38.9920781141627" lon="8.950824890346977"><ele>51.0</ele><time>2026-03-26T12:31:01.999Z</time></trkpt><trkpt lat="38.99201402784439" lon="8.951013334036986"><ele>51.0</ele><time>2026-03-26T12:31:02.999Z</time></trkpt><trkpt lat="38.99194334085272" lon="8.951201605293452"><ele>51.0</ele><time>2026-03-26T12:31:03.999Z</time></trkpt><trkpt lat="38.991872100251136" lon="8.95138811158819"><ele>51.0</ele><time>2026-03-26T12:31:04.999Z</time></trkpt><trkpt lat="38.991798126324454" lon="8.951572357797687"><ele>51.25</ele><time>2026-03-26T12:31:05.999Z</time></trkpt><trkpt lat="38.99172791785719" lon="8.951749326076246"><ele>51.5</ele><time>2026-03-26T12:31:06.999Z</time></trkpt><trkpt lat="38.99166307952412" lon="8.95190962255941"><ele>51.75</ele><time>2026-03-26T12:31:07.999Z</time></trkpt><trkpt lat="38.99159710885675" lon="8.952071132693268"><ele>52.0</ele><time>2026-03-26T12:31:08.999Z</time></trkpt><trkpt lat="38.99152549215113" lon="8.952234440416452"><ele>51.666666666666664</ele><time>2026-03-26T12:31:09.999Z</time></trkpt><trkpt lat="38.99145456029968" lon="8.952406638350253"><ele>51.33333333333333</ele><time>2026-03-26T12:31:10.999Z</time></trkpt><trkpt lat="38.99138125996917" lon="8.95258253904662"><ele>51.0</ele><time>2026-03-26T12:31:11.999Z</time></trkpt><trkpt lat="38.99131332834011" lon="8.9527462552338"><ele>51.0</ele><time>2026-03-26T12:31:12.999Z</time></trkpt><trkpt lat="38.99124786164766" lon="8.952906295215367"><ele>51.0</ele><time>2026-03-26T12:31:13.999Z</time></trkpt><trkpt lat="38.99117888292129" lon="8.95307236086117"><ele>51.0</ele><time>2026-03-26T12:31:14.999Z</time></trkpt><trkpt lat="38.991111796569754" lon="8.953231767717991"><ele>51.0</ele><time>2026-03-26T12:31:15.999Z</time></trkpt><trkpt lat="38.99104357225692" lon="8.953393698026282"><ele>51.5</ele><time>2026-03-26T12:31:16.999Z</time></trkpt><trkpt lat="38.99097668446762" lon="8.9535588011493"><ele>52.0</ele><time>2026-03-26T12:31:17.999Z</time></trkpt><trkpt lat="38.99091384269618" lon="8.953721333366811"><ele>52.5</ele><time>2026-03-26T12:31:18.999Z</time></trkpt><trkpt lat="38.99085351648904" lon="8.953879529472824"><ele>53.0</ele><time>2026-03-26T12:31:19.999Z</time></trkpt><trkpt lat="38.99079015072733" lon="8.954032904301684"><ele>52.0</ele><time>2026-03-26T12:31:20.999Z</time></trkpt><trkpt lat="38.99072340939996" lon="8.954194723322889"><ele>51.0</ele><time>2026-03-26T12:31:21.999Z</time></trkpt><trkpt lat="38.990664498460156" lon="8.954378036303092"><ele>50.0</ele><time>2026-03-26T12:31:22.999Z</time></trkpt><trkpt lat="38.99061198171951" lon="8.954569530472941"><ele>50.0</ele><time>2026-03-26T12:31:23.999Z</time></trkpt><trkpt lat="38.99056540836407" lon="8.954762813730662"><ele>50.0</ele><time>2026-03-26T12:31:24.999Z</time></trkpt><trkpt lat="38.990517904671734" lon="8.954950008944682"><ele>50.0</ele><time>2026-03-26T12:31:25.999Z</time></trkpt><trkpt lat="38.99047042839148" lon="8.955127367502964"><ele>50.75</ele><time>2026-03-26T12:31:26.999Z</time></trkpt><trkpt lat="38.99042943999352" lon="8.955299875702417"><ele>51.5</ele><time>2026-03-26T12:31:27.999Z</time></trkpt><trkpt lat="38.990387199963415" lon="8.955473607819195"><ele>52.25</ele><time>2026-03-26T12:31:28.999Z</time></trkpt><trkpt lat="38.99033874450934" lon="8.955647523151363"><ele>53.0</ele><time>2026-03-26T12:31:29.999Z</time></trkpt><trkpt lat="38.99029672256246" lon="8.955822025495108"><ele>52.5</ele><time>2026-03-26T12:31:30.999Z</time></trkpt><trkpt lat="38.99026028801392" lon="8.95599093246585"><ele>52.0</ele><time>2026-03-26T12:31:31.999Z</time></trkpt><trkpt lat="38.990225459286876" lon="8.956163865366603"><ele>51.5</ele><time>2026-03-26T12:31:32.999Z</time></trkpt><trkpt lat="38.9902178233851" lon="8.956338423315744"><ele>51.0</ele><time>2026-03-26T12:31:33.999Z</time></trkpt><trkpt lat="38.99023517273854" lon="8.956517432903675"><ele>51.0</ele><time>2026-03-26T12:31:34.999Z</time></trkpt><trkpt lat="38.99027225597949" lon="8.956688635828375"><ele>51.0</ele><time>2026-03-26T12:31:35.999Z</time></trkpt><trkpt lat="38.99033803097771" lon="8.956854153143347"><ele>51.0</ele><time>2026-03-26T12:31:36.999Z</time></trkpt><trkpt lat="38.99042553852828" lon="8.957016801960767"><ele>51.0</ele><time>2026-03-26T12:31:37.999Z</time></trkpt><trkpt lat="38.99050275455556" lon="8.957170085736292"><ele>50.5</ele><time>2026-03-26T12:31:38.999Z</time></trkpt><trkpt lat="38.99056877668762" lon="8.95732181137844"><ele>50.0</ele><time>2026-03-26T12:31:39.999Z</time></trkpt><trkpt lat="38.99063528208151" lon="8.957470079442485"><ele>49.5</ele><time>2026-03-26T12:31:40.999Z</time></trkpt><trkpt lat="38.99070070284695" lon="8.957622865800644"><ele>49.0</ele><time>2026-03-26T12:31:41.999Z</time></trkpt><trkpt lat="38.99076686571746" lon="8.957777786861685"><ele>49.0</ele><time>2026-03-26T12:31:42.999Z</time></trkpt><trkpt lat="38.99083521480863" lon="8.957921587231782"><ele>49.0</ele><time>2026-03-26T12:31:43.999Z</time></trkpt><trkpt lat="38.990900623634055" lon="8.958052695060623"><ele>49.0</ele><time>2026-03-26T12:31:44.999Z</time></trkpt><trkpt lat="38.990984312009566" lon="8.958188392259977"><ele>49.0</ele><time>2026-03-26T12:31:45.999Z</time></trkpt><trkpt lat="38.991076347021135" lon="8.958332961299783"><ele>48.75</ele><time>2026-03-26T12:31:46.999Z</time></trkpt><trkpt lat="38.99116041546803" lon="8.958469310475559"><ele>48.5</ele><time>2026-03-26T12:31:47.999Z</time></trkpt><trkpt lat="38.99125138193365" lon="8.95859975374443"><ele>48.25</ele><time>2026-03-26T12:31:48.999Z</time></trkpt><trkpt lat="38.9913477684828" lon="8.958727491185543"><ele>48.0</ele><time>2026-03-26T12:31:49.999Z</time></trkpt><trkpt lat="38.991436453769936" lon="8.958852668488055"><ele>48.0</ele><time>2026-03-26T12:31:50.999Z</time></trkpt><trkpt lat="38.99152141669788" lon="8.95897965455302"><ele>48.0</ele><time>2026-03-26T12:31:51.999Z</time></trkpt><trkpt lat="38.99159271980172" lon="8.959101343362015"><ele>48.0</ele><time>2026-03-26T12:31:52.999Z</time></trkpt><trkpt lat="38.991648147121204" lon="8.959224583562003"><ele>48.0</ele><time>2026-03-26T12:31:53.999Z</time></trkpt><trkpt lat="38.99169319896296" lon="8.959352631236804"><ele>47.2</ele><time>2026-03-26T12:31:54.999Z</time></trkpt><trkpt lat="38.99175229909509" lon="8.959471076327823"><ele>46.4</ele><time>2026-03-26T12:31:55.999Z</time></trkpt><trkpt lat="38.99183416543665" lon="8.959567555323774"><ele>45.6</ele><time>2026-03-26T12:31:56.999Z</time></trkpt><trkpt lat="38.99192215026565" lon="8.9596300591204"><ele>44.800000000000004</ele><time>2026-03-26T12:31:57.999Z</time></trkpt><trkpt lat="38.992021632127866" lon="8.95966784386281"><ele>44.0</ele><time>2026-03-26T12:31:58.999Z</time></trkpt><trkpt lat="38.9921433250326" lon="8.95967270271124"><ele>44.0</ele><time>2026-03-26T12:31:59.999Z</time></trkpt><trkpt lat="38.99227237271505" lon="8.959676194393245"><ele>44.0</ele><time>2026-03-26T12:32:00.999Z</time></trkpt><trkpt lat="38.992405072783285" lon="8.959711465938176"><ele>44.0</ele><time>2026-03-26T12:32:01.999Z</time></trkpt><trkpt lat="38.99253545856119" lon="8.959771897553544"><ele>44.0</ele><time>2026-03-26T12:32:02.999Z</time></trkpt><trkpt lat="38.992657845480565" lon="8.959832934742543"><ele>44.0</ele><time>2026-03-26T12:32:03.999Z</time></trkpt><trkpt lat="38.9927712646197" lon="8.95989471747287"><ele>44.0</ele><time>2026-03-26T12:32:04.999Z</time></trkpt><trkpt lat="38.99289156150787" lon="8.95993860361123"><ele>44.0</ele><time>2026-03-26T12:32:05.999Z</time></trkpt><trkpt lat="38.993023904525074" lon="8.959949227191679"><ele>44.0</ele><time>2026-03-26T12:32:06.999Z</time></trkpt><trkpt lat="38.99315457551941" lon="8.959936578650106"><ele>44.0</ele><time>2026-03-26T12:32:07.999Z</time></trkpt><trkpt lat="38.99327545740951" lon="8.959930943373202"><ele>44.0</ele><time>2026-03-26T12:32:08.999Z</time></trkpt><trkpt lat="38.993398208181524" lon="8.95994464360676"><ele>44.0</ele><time>2026-03-26T12:32:09.999Z</time></trkpt><trkpt lat="38.99352312784174" lon="8.959974828035016"><ele>44.0</ele><time>2026-03-26T12:32:10.999Z</time></trkpt><trkpt lat="38.99364453328174" lon="8.96002559672694"><ele>43.5</ele><time>2026-03-26T12:32:11.999Z</time></trkpt><trkpt lat="38.99375970170914" lon="8.96010397573833"><ele>43.0</ele><time>2026-03-26T12:32:12.999Z</time></trkpt><trkpt lat="38.99386302939399" lon="8.960207495995045"><ele>42.5</ele><time>2026-03-26T12:32:13.999Z</time></trkpt><trkpt lat="38.99395866523233" lon="8.96032092514103"><ele>42.0</ele><time>2026-03-26T12:32:14.999Z</time></trkpt><trkpt lat="38.994053213180635" lon="8.960436593168842"><ele>42.0</ele><time>2026-03-26T12:32:15.999Z</time></trkpt><trkpt lat="38.99414183369083" lon="8.960555922576605"><ele>42.0</ele><time>2026-03-26T12:32:16.999Z</time></trkpt><trkpt lat="38.99423090089411" lon="8.96067192800792"><ele>42.0</ele><time>2026-03-26T12:32:17.999Z</time></trkpt><trkpt lat="38.994332508376786" lon="8.960771937803592"><ele>42.0</ele><time>2026-03-26T12:32:18.999Z</time></trkpt><trkpt lat="38.994444896580376" lon="8.960863542155034"><ele>42.0</ele><time>2026-03-26T12:32:19.999Z</time></trkpt><trkpt lat="38.994560361606304" lon="8.96094824647707"><ele>42.0</ele><time>2026-03-26T12:32:20.999Z</time></trkpt><trkpt lat="38.99468388151334" lon="8.961025960016215"><ele>42.0</ele><time>2026-03-26T12:32:21.999Z</time></trkpt><trkpt lat="38.994808605503465" lon="8.961100553070663"><ele>42.0</ele><time>2026-03-26T12:32:23Z</time></trkpt><trkpt lat="38.994933414241764" lon="8.961172139947607"><ele>42.5</ele><time>2026-03-26T12:32:24Z</time></trkpt><trkpt lat="38.99506183551879" lon="8.961239418886043"><ele>43.0</ele><time>2026-03-26T12:32:25Z</time></trkpt><trkpt lat="38.99519617571211" lon="8.961293042609888"><ele>43.5</ele><time>2026-03-26T12:32:26Z</time></trkpt><trkpt lat="38.99533374951699" lon="8.961332774615926"><ele>44.0</ele><time>2026-03-26T12:32:27Z</time></trkpt><trkpt lat="38.995471024619505" lon="8.961353710374091"><ele>44.0</ele><time>2026-03-26T12:32:28Z</time></trkpt><trkpt lat="38.99559663610746" lon="8.961375148733845"><ele>44.0</ele><time>2026-03-26T12:32:29Z</time></trkpt><trkpt lat="38.99571783194414" lon="8.961396988945234"><ele>44.0</ele><time>2026-03-26T12:32:30Z</time></trkpt><trkpt lat="38.9958342725649" lon="8.96143300996372"><ele>44.0</ele><time>2026-03-26T12:32:31Z</time></trkpt><trkpt lat="38.99593471844773" lon="8.961485718707427"><ele>43.25</ele><time>2026-03-26T12:32:32Z</time></trkpt><trkpt lat="38.99603373722863" lon="8.961555357127997"><ele>42.5</ele><time>2026-03-26T12:32:33Z</time></trkpt><trkpt lat="38.996132877388575" lon="8.96163802613446"><ele>41.75</ele><time>2026-03-26T12:32:34Z</time></trkpt><trkpt lat="38.996227501997275" lon="8.961733330835251"><ele>41.0</ele><time>2026-03-26T12:32:35Z</time></trkpt><trkpt lat="38.99631951841708" lon="8.96183904846658"><ele>41.0</ele><time>2026-03-26T12:32:36Z</time></trkpt><trkpt lat="38.99640860385905" lon="8.96194801337634"><ele>41.0</ele><time>2026-03-26T12:32:37Z</time></trkpt><trkpt lat="38.996490477469905" lon="8.96205214080163"><ele>41.0</ele><time>2026-03-26T12:32:38Z</time></trkpt><trkpt lat="38.99657195661022" lon="8.962153856688925"><ele>41.0</ele><time>2026-03-26T12:32:39Z</time></trkpt><trkpt lat="38.99665670018153" lon="8.96225938719607"><ele>41.0</ele><time>2026-03-26T12:32:40Z</time></trkpt><trkpt lat="38.99674217133287" lon="8.962379951423792"><ele>41.0</ele><time>2026-03-26T12:32:41Z</time></trkpt><trkpt lat="38.99682369981669" lon="8.962511427008058"><ele>41.0</ele><time>2026-03-26T12:32:42Z</time></trkpt><trkpt lat="38.99690102607428" lon="8.962652737910215"><ele>41.0</ele><time>2026-03-26T12:32:43Z</time></trkpt><trkpt lat="38.99697255027305" lon="8.96279835372772"><ele>39.75</ele><time>2026-03-26T12:32:44Z</time></trkpt><trkpt lat="38.99704526901191" lon="8.962948811539453"><ele>38.5</ele><time>2026-03-26T12:32:45Z</time></trkpt><trkpt lat="38.99712884523663" lon="8.963088763175495"><ele>37.25</ele><time>2026-03-26T12:32:46Z</time></trkpt><trkpt lat="38.997228325243825" lon="8.963224607265774"><ele>36.0</ele><time>2026-03-26T12:32:47Z</time></trkpt><trkpt lat="38.99732989275633" lon="8.963356641233593"><ele>35.5</ele><time>2026-03-26T12:32:48Z</time></trkpt><trkpt lat="38.997431834267395" lon="8.963486646823192"><ele>35.0</ele><time>2026-03-26T12:32:49Z</time></trkpt><trkpt lat="38.99753380901345" lon="8.963620139002673"><ele>34.5</ele><time>2026-03-26T12:32:50Z</time></trkpt><trkpt lat="38.997634510568886" lon="8.963754441686309"><ele>34.0</ele><time>2026-03-26T12:32:51Z</time></trkpt><trkpt lat="38.99773281779142" lon="8.96388290198096"><ele>34.0</ele><time>2026-03-26T12:32:52Z</time></trkpt><trkpt lat="38.997822481592955" lon="8.96399509014571"><ele>34.0</ele><time>2026-03-26T12:32:53Z</time></trkpt><trkpt lat="38.99790875126533" lon="8.964103086982748"><ele>34.0</ele><time>2026-03-26T12:32:54Z</time></trkpt><trkpt lat="38.99799462909308" lon="8.964217237893326"><ele>34.0</ele><time>2026-03-26T12:32:55Z</time></trkpt><trkpt lat="38.998078376638375" lon="8.964328731085368"><ele>34.0</ele><time>2026-03-26T12:32:56Z</time></trkpt><trkpt lat="38.998163211344604" lon="8.96443464104693"><ele>34.0</ele><time>2026-03-26T12:32:57Z</time></trkpt><trkpt lat="38.99824074090786" lon="8.964530858580162"><ele>34.0</ele><time>2026-03-26T12:32:58Z</time></trkpt><trkpt lat="38.99830969611123" lon="8.964623257843467"><ele>34.0</ele><time>2026-03-26T12:32:59Z</time></trkpt><trkpt lat="38.99837640583289" lon="8.964709387951142"><ele>34.0</ele><time>2026-03-26T12:33:00Z</time></trkpt><trkpt lat="38.99844123991498" lon="8.964790810905845"><ele>34.66666666666667</ele><time>2026-03-26T12:33:01Z</time></trkpt><trkpt lat="38.998499992603" lon="8.964866054919149"><ele>35.333333333333336</ele><time>2026-03-26T12:33:02Z</time></trkpt><trkpt lat="38.99855373980374" lon="8.964948149084384"><ele>36.0</ele><time>2026-03-26T12:33:03Z</time></trkpt><trkpt lat="38.99860278111479" lon="8.965039581546796"><ele>36.666666666666664</ele><time>2026-03-26T12:33:04Z</time></trkpt><trkpt lat="38.9986477839712" lon="8.965138129849654"><ele>37.33333333333333</ele><time>2026-03-26T12:33:05Z</time></trkpt><trkpt lat="38.99869000892353" lon="8.965241830861805"><ele>38.0</ele><time>2026-03-26T12:33:06Z</time></trkpt><trkpt lat="38.99872994326745" lon="8.965349396291327"><ele>38.0</ele><time>2026-03-26T12:33:07Z</time></trkpt><trkpt lat="38.9987660467624" lon="8.965461643006886"><ele>38.0</ele><time>2026-03-26T12:33:08Z</time></trkpt><trkpt lat="38.99880241169723" lon="8.965571511300734"><ele>38.0</ele><time>2026-03-26T12:33:09Z</time></trkpt><trkpt lat="38.998836476884485" lon="8.965679171531216"><ele>38.0</ele><time>2026-03-26T12:33:10Z</time></trkpt><trkpt lat="38.99886649327554" lon="8.965786662179445"><ele>38.0</ele><time>2026-03-26T12:33:11Z</time></trkpt><trkpt lat="38.99889441034497" lon="8.965893115438469"><ele>37.33333333333333</ele><time>2026-03-26T12:33:12Z</time></trkpt><trkpt lat="38.99892236733789" lon="8.96599807037596"><ele>36.666666666666664</ele><time>2026-03-26T12:33:13Z</time></trkpt><trkpt lat="38.99895048627929" lon="8.966102797227261"><ele>36.0</ele><time>2026-03-26T12:33:14Z</time></trkpt><trkpt lat="38.99897394913846" lon="8.966204775415541"><ele>35.333333333333336</ele><time>2026-03-26T12:33:14.999Z</time></trkpt><trkpt lat="38.99899964696079" lon="8.966308734691493"><ele>34.66666666666667</ele><time>2026-03-26T12:33:15.999Z</time></trkpt><trkpt lat="38.99902330078745" lon="8.966413508754973"><ele>34.0</ele><time>2026-03-26T12:33:16.999Z</time></trkpt><trkpt lat="38.999047246966704" lon="8.966513267062016"><ele>34.0</ele><time>2026-03-26T12:33:17.999Z</time></trkpt><trkpt lat="38.99907137392971" lon="8.966619403731736"><ele>34.0</ele><time>2026-03-26T12:33:18.999Z</time></trkpt><trkpt lat="38.99909764396211" lon="8.966725832459757"><ele>34.0</ele><time>2026-03-26T12:33:19.999Z</time></trkpt><trkpt lat="38.99912477697984" lon="8.966827589320422"><ele>34.0</ele><time>2026-03-26T12:33:20.999Z</time></trkpt><trkpt lat="38.99914814108417" lon="8.966931392256031"><ele>34.0</ele><time>2026-03-26T12:33:21.999Z</time></trkpt><trkpt lat="38.999179209599404" lon="8.967034220607074"><ele>34.0</ele><time>2026-03-26T12:33:22.999Z</time></trkpt><trkpt lat="38.99921100723419" lon="8.967138957953319"><ele>34.16666666666667</ele><time>2026-03-26T12:33:23.999Z</time></trkpt><trkpt lat="38.99924608585168" lon="8.967242492788262"><ele>34.333333333333336</ele><time>2026-03-26T12:33:24.999Z</time></trkpt><trkpt lat="38.99928277340484" lon="8.967347486785084"><ele>34.5</ele><time>2026-03-26T12:33:25.999Z</time></trkpt><trkpt lat="38.99932043404942" lon="8.967452395275759"><ele>34.666666666666664</ele><time>2026-03-26T12:33:26.999Z</time></trkpt><trkpt lat="38.99935787606321" lon="8.967558408655911"><ele>34.83333333333333</ele><time>2026-03-26T12:33:27.999Z</time></trkpt><trkpt lat="38.99939389471973" lon="8.967663579462682"><ele>35.0</ele><time>2026-03-26T12:33:28.999Z</time></trkpt><trkpt lat="38.9994244767078" lon="8.967759973432821"><ele>35.0</ele><time>2026-03-26T12:33:29.999Z</time></trkpt><trkpt lat="38.999454949552415" lon="8.967855091383072"><ele>35.0</ele><time>2026-03-26T12:33:30.999Z</time></trkpt><trkpt lat="38.99949253713707" lon="8.967950920093553"><ele>35.0</ele><time>2026-03-26T12:33:31.999Z</time></trkpt><trkpt lat="38.999527354620035" lon="8.968053246593762"><ele>35.0</ele><time>2026-03-26T12:33:32.999Z</time></trkpt><trkpt lat="38.99956653178371" lon="8.968146208166093"><ele>35.0</ele><time>2026-03-26T12:33:33.999Z</time></trkpt><trkpt lat="38.99960424033284" lon="8.968244539740233"><ele>35.0</ele><time>2026-03-26T12:33:34.999Z</time></trkpt><trkpt lat="38.999643353407066" lon="8.96834679391562"><ele>34.4</ele><time>2026-03-26T12:33:35.999Z</time></trkpt><trkpt lat="38.99969300975819" lon="8.968457243016278"><ele>33.8</ele><time>2026-03-26T12:33:36.999Z</time></trkpt><trkpt lat="38.999753551137154" lon="8.968569951320822"><ele>33.2</ele><time>2026-03-26T12:33:37.999Z</time></trkpt><trkpt lat="38.999816225008566" lon="8.968685055092921"><ele>32.6</ele><time>2026-03-26T12:33:38.999Z</time></trkpt><trkpt lat="38.99987928996233" lon="8.968801853276602"><ele>32.0</ele><time>2026-03-26T12:33:39.999Z</time></trkpt><trkpt lat="38.99994577927066" lon="8.968917998801112"><ele>32.0</ele><time>2026-03-26T12:33:40.999Z</time></trkpt><trkpt lat="39.0000207045528" lon="8.96902966620793"><ele>32.0</ele><time>2026-03-26T12:33:41.999Z</time></trkpt><trkpt lat="39.000099190212495" lon="8.969140508764923"><ele>32.0</ele><time>2026-03-26T12:33:42.999Z</time></trkpt><trkpt lat="39.00017971924666" lon="8.969250047512627"><ele>32.0</ele><time>2026-03-26T12:33:43.999Z</time></trkpt><trkpt lat="39.000263525694955" lon="8.969356513352203"><ele>31.5</ele><time>2026-03-26T12:33:44.999Z</time></trkpt><trkpt lat="39.00035573310068" lon="8.969454553927"><ele>31.0</ele><time>2026-03-26T12:33:45.999Z</time></trkpt><trkpt lat="39.00045393721474" lon="8.969541499031711"><ele>30.5</ele><time>2026-03-26T12:33:46.999Z</time></trkpt><trkpt lat="39.00055184866634" lon="8.969624865556158"><ele>30.0</ele><time>2026-03-26T12:33:47.999Z</time></trkpt><trkpt lat="39.00064381024002" lon="8.969714081012329"><ele>30.0</ele><time>2026-03-26T12:33:48.999Z</time></trkpt><trkpt lat="39.00073280338994" lon="8.969809257350295"><ele>30.0</ele><time>2026-03-26T12:33:49.999Z</time></trkpt><trkpt lat="39.000814301389845" lon="8.969912343650403"><ele>30.0</ele><time>2026-03-26T12:33:50.999Z</time></trkpt><trkpt lat="39.00088255432905" lon="8.970030298189005"><ele>30.0</ele><time>2026-03-26T12:33:51.999Z</time></trkpt><trkpt lat="39.00094703196404" lon="8.970173701404244"><ele>29.75</ele><time>2026-03-26T12:33:52.999Z</time></trkpt><trkpt lat="39.00099774694902" lon="8.970328156604348"><ele>29.5</ele><time>2026-03-26T12:33:53.999Z</time></trkpt><trkpt lat="39.00103560782173" lon="8.970488434610283"><ele>29.25</ele><time>2026-03-26T12:33:54.999Z</time></trkpt><trkpt lat="39.001063637421545" lon="8.970652471373626"><ele>29.0</ele><time>2026-03-26T12:33:55.999Z</time></trkpt><trkpt lat="39.00107995722556" lon="8.970817550947483"><ele>28.5</ele><time>2026-03-26T12:33:56.999Z</time></trkpt><trkpt lat="39.001087841304255" lon="8.970985253654534"><ele>28.0</ele><time>2026-03-26T12:33:57.999Z</time></trkpt><trkpt lat="39.00109858247032" lon="8.971151578067847"><ele>27.5</ele><time>2026-03-26T12:33:58.999Z</time></trkpt><trkpt lat="39.00112124319681" lon="8.971319453114798"><ele>27.0</ele><time>2026-03-26T12:33:59.999Z</time></trkpt><trkpt lat="39.00115241370613" lon="8.971496966242066"><ele>27.0</ele><time>2026-03-26T12:34:00.999Z</time></trkpt><trkpt lat="39.001184850587244" lon="8.971665174386278"><ele>27.0</ele><time>2026-03-26T12:34:01.999Z</time></trkpt><trkpt lat="39.001220581700196" lon="8.971836310372213"><ele>27.0</ele><time>2026-03-26T12:34:02.999Z</time></trkpt><trkpt lat="39.001259645248936" lon="8.972008620837789"><ele>27.0</ele><time>2026-03-26T12:34:03.999Z</time></trkpt><trkpt lat="39.001301357568984" lon="8.972190048705345"><ele>27.0</ele><time>2026-03-26T12:34:04.999Z</time></trkpt><trkpt lat="39.00133657936834" lon="8.972372636487075"><ele>27.0</ele><time>2026-03-26T12:34:05.999Z</time></trkpt><trkpt lat="39.00136978714664" lon="8.972555071983765"><ele>27.0</ele><time>2026-03-26T12:34:06.999Z</time></trkpt><trkpt lat="39.00139583106345" lon="8.97273848115546"><ele>27.0</ele><time>2026-03-26T12:34:07.999Z</time></trkpt><trkpt lat="39.00140990623818" lon="8.972913398992299"><ele>27.0</ele><time>2026-03-26T12:34:08.999Z</time></trkpt><trkpt lat="39.00140215930857" lon="8.973085556000036"><ele>27.0</ele><time>2026-03-26T12:34:09.999Z</time></trkpt><trkpt lat="39.00141081879744" lon="8.973264782457031"><ele>27.0</ele><time>2026-03-26T12:34:10.999Z</time></trkpt><trkpt lat="39.001417638843705" lon="8.973436908154069"><ele>27.0</ele><time>2026-03-26T12:34:11.999Z</time></trkpt><trkpt lat="39.00141777655305" lon="8.973606093956116"><ele>26.400000000000002</ele><time>2026-03-26T12:34:12.999Z</time></trkpt><trkpt lat="39.001410056200896" lon="8.97377374631589"><ele>25.800000000000004</ele><time>2026-03-26T12:34:13.999Z</time></trkpt><trkpt lat="39.001399962914945" lon="8.973916645206655"><ele>25.2</ele><time>2026-03-26T12:34:14.999Z</time></trkpt><trkpt lat="39.001388427792854" lon="8.97404619214646"><ele>24.6</ele><time>2026-03-26T12:34:15.999Z</time></trkpt><trkpt lat="39.00137630094937" lon="8.974167149632633"><ele>24.0</ele><time>2026-03-26T12:34:16.999Z</time></trkpt><trkpt lat="39.001361332269845" lon="8.97428064502027"><ele>23.4</ele><time>2026-03-26T12:34:17.999Z</time></trkpt><trkpt lat="39.00134604908618" lon="8.97438571835286"><ele>22.799999999999997</ele><time>2026-03-26T12:34:18.999Z</time></trkpt><trkpt lat="39.00132840246473" lon="8.974493902984356"><ele>22.200000000000003</ele><time>2026-03-26T12:34:19.999Z</time></trkpt><trkpt lat="39.00130514403552" lon="8.974608652028417"><ele>21.6</ele><time>2026-03-26T12:34:20.999Z</time></trkpt><trkpt lat="39.0012788710156" lon="8.974726929098837"><ele>21.0</ele><time>2026-03-26T12:34:21.999Z</time></trkpt><trkpt lat="39.0013824599521" lon="8.974904459770903"><ele>21.0</ele><time>2026-03-26T12:34:22.999Z</time></trkpt><trkpt lat="39.001407556018954" lon="8.97501839205865"><ele>21.0</ele><time>2026-03-26T12:34:23.999Z</time></trkpt><trkpt lat="39.001431481589805" lon="8.975143673557467"><ele>21.0</ele><time>2026-03-26T12:34:24.999Z</time></trkpt><trkpt lat="39.00145604591898" lon="8.975272299785182"><ele>21.0</ele><time>2026-03-26T12:34:25.999Z</time></trkpt><trkpt lat="39.00148044028399" lon="8.975400036032552"><ele>21.0</ele><time>2026-03-26T12:34:26.999Z</time></trkpt><trkpt lat="39.001501078724836" lon="8.975520491333185"><ele>21.200000000000003</ele><time>2026-03-26T12:34:27.999Z</time></trkpt><trkpt lat="39.00151712458507" lon="8.975644023176654"><ele>21.400000000000002</ele><time>2026-03-26T12:34:29Z</time></trkpt><trkpt lat="39.0015266493201" lon="8.975775982829505"><ele>21.6</ele><time>2026-03-26T12:34:30Z</time></trkpt><trkpt lat="39.00152721181786" lon="8.975911705634694"><ele>21.8</ele><time>2026-03-26T12:34:31Z</time></trkpt><trkpt lat="39.001525269698156" lon="8.976057331330775"><ele>22.0</ele><time>2026-03-26T12:34:32Z</time></trkpt><trkpt lat="39.00153231486296" lon="8.976200990541459"><ele>22.0</ele><time>2026-03-26T12:34:33Z</time></trkpt><trkpt lat="39.00154542746512" lon="8.976342399711825"><ele>22.0</ele><time>2026-03-26T12:34:34Z</time></trkpt><trkpt lat="39.00156535099452" lon="8.976489018834206"><ele>22.0</ele><time>2026-03-26T12:34:35Z</time></trkpt><trkpt lat="39.00158762856157" lon="8.976630911444419"><ele>22.0</ele><time>2026-03-26T12:34:36Z</time></trkpt><trkpt lat="39.00160819488217" lon="8.976772477250908"><ele>22.0</ele><time>2026-03-26T12:34:37Z</time></trkpt><trkpt lat="39.00162660599582" lon="8.976920647815835"><ele>22.0</ele><time>2026-03-26T12:34:38Z</time></trkpt><trkpt lat="39.00164703895411" lon="8.97707229367505"><ele>22.0</ele><time>2026-03-26T12:34:39Z</time></trkpt><trkpt lat="39.00166961843164" lon="8.977224087971479"><ele>22.0</ele><time>2026-03-26T12:34:40Z</time></trkpt><trkpt lat="39.001692893321156" lon="8.97737577680216"><ele>22.25</ele><time>2026-03-26T12:34:41Z</time></trkpt><trkpt lat="39.00171610645852" lon="8.977525649149124"><ele>22.5</ele><time>2026-03-26T12:34:42Z</time></trkpt><trkpt lat="39.00173745079961" lon="8.97766345588358"><ele>22.75</ele><time>2026-03-26T12:34:43Z</time></trkpt><trkpt lat="39.00175938210957" lon="8.977804010270019"><ele>23.0</ele><time>2026-03-26T12:34:44Z</time></trkpt><trkpt lat="39.001782127686845" lon="8.977945240983257"><ele>23.0</ele><time>2026-03-26T12:34:45Z</time></trkpt><trkpt lat="39.001804410827155" lon="8.978083600360396"><ele>23.0</ele><time>2026-03-26T12:34:46Z</time></trkpt><trkpt lat="39.00182742517639" lon="8.978226499929596"><ele>23.0</ele><time>2026-03-26T12:34:47Z</time></trkpt><trkpt lat="39.00185127123501" lon="8.978372260397292"><ele>23.0</ele><time>2026-03-26T12:34:48Z</time></trkpt><trkpt lat="39.00187646231824" lon="8.978510234083389"><ele>23.0</ele><time>2026-03-26T12:34:49Z</time></trkpt><trkpt lat="39.00190560337381" lon="8.978646607472289"><ele>22.4</ele><time>2026-03-26T12:34:50Z</time></trkpt><trkpt lat="39.00194205919745" lon="8.97878839763281"><ele>21.799999999999997</ele><time>2026-03-26T12:34:51Z</time></trkpt><trkpt lat="39.001980986525396" lon="8.978924530015895"><ele>21.2</ele><time>2026-03-26T12:34:52Z</time></trkpt><trkpt lat="39.00201716450432" lon="8.979044140183577"><ele>20.6</ele><time>2026-03-26T12:34:53Z</time></trkpt><trkpt lat="39.002053577054795" lon="8.97915651483971"><ele>20.0</ele><time>2026-03-26T12:34:54Z</time></trkpt><trkpt lat="39.00209268091319" lon="8.97926455984187"><ele>19.8</ele><time>2026-03-26T12:34:55Z</time></trkpt><trkpt lat="39.00214222305099" lon="8.979371335739861"><ele>19.6</ele><time>2026-03-26T12:34:56Z</time></trkpt><trkpt lat="39.00220001349182" lon="8.979460336566401"><ele>19.4</ele><time>2026-03-26T12:34:57Z</time></trkpt><trkpt lat="39.00227740828865" lon="8.979534129894581"><ele>19.2</ele><time>2026-03-26T12:34:58Z</time></trkpt><trkpt lat="39.00237878812404" lon="8.979568389082113"><ele>19.0</ele><time>2026-03-26T12:34:59Z</time></trkpt><trkpt lat="39.00248140608476" lon="8.979615119962807"><ele>19.25</ele><time>2026-03-26T12:35:00Z</time></trkpt><trkpt lat="39.00259289977832" lon="8.97966002146828"><ele>19.5</ele><time>2026-03-26T12:35:01Z</time></trkpt><trkpt lat="39.00270829848068" lon="8.979700358186594"><ele>19.75</ele><time>2026-03-26T12:35:02Z</time></trkpt><trkpt lat="39.00281787336004" lon="8.979744367757485"><ele>20.0</ele><time>2026-03-26T12:35:03Z</time></trkpt><trkpt lat="39.00292641234788" lon="8.97979347967582"><ele>20.0</ele><time>2026-03-26T12:35:04Z</time></trkpt><trkpt lat="39.00303530449348" lon="8.979842109652441"><ele>20.0</ele><time>2026-03-26T12:35:05Z</time></trkpt><trkpt lat="39.00314422334422" lon="8.979891895044055"><ele>20.0</ele><time>2026-03-26T12:35:06Z</time></trkpt><trkpt lat="39.00325646347813" lon="8.979945373494829"><ele>20.0</ele><time>2026-03-26T12:35:07Z</time></trkpt><trkpt lat="39.0033709283608" lon="8.979998606466717"><ele>20.25</ele><time>2026-03-26T12:35:08Z</time></trkpt><trkpt lat="39.00348597670753" lon="8.980059300728431"><ele>20.5</ele><time>2026-03-26T12:35:09Z</time></trkpt><trkpt lat="39.00360574547679" lon="8.980122972098393"><ele>20.75</ele><time>2026-03-26T12:35:10Z</time></trkpt><trkpt lat="39.003727870604116" lon="8.980184177084986"><ele>21.0</ele><time>2026-03-26T12:35:11Z</time></trkpt><trkpt lat="39.003851198766064" lon="8.980250773873086"><ele>21.0</ele><time>2026-03-26T12:35:12Z</time></trkpt><trkpt lat="39.003972375906166" lon="8.98031493563959"><ele>21.0</ele><time>2026-03-26T12:35:13Z</time></trkpt><trkpt lat="39.004091350017426" lon="8.980377547453227"><ele>21.0</ele><time>2026-03-26T12:35:14Z</time></trkpt><trkpt lat="39.00420942249193" lon="8.980442120183293"><ele>21.0</ele><time>2026-03-26T12:35:15Z</time></trkpt><trkpt lat="39.0043260648101" lon="8.980506580825454"><ele>20.25</ele><time>2026-03-26T12:35:16Z</time></trkpt><trkpt lat="39.00443478876721" lon="8.980568601610697"><ele>19.5</ele><time>2026-03-26T12:35:17Z</time></trkpt><trkpt lat="39.004538752661986" lon="8.980628041307677"><ele>18.75</ele><time>2026-03-26T12:35:18Z</time></trkpt><trkpt lat="39.00463755470963" lon="8.980688202137213"><ele>18.0</ele><time>2026-03-26T12:35:19Z</time></trkpt><trkpt lat="39.00473544289406" lon="8.980751336989668"><ele>18.0</ele><time>2026-03-26T12:35:20Z</time></trkpt><trkpt lat="39.004830451972744" lon="8.980817978245915"><ele>18.0</ele><time>2026-03-26T12:35:21Z</time></trkpt><trkpt lat="39.00491466741859" lon="8.980890840864197"><ele>18.0</ele><time>2026-03-26T12:35:22Z</time></trkpt><trkpt lat="39.00498367613501" lon="8.980978835975451"><ele>18.0</ele><time>2026-03-26T12:35:22.999Z</time></trkpt><trkpt lat="39.00504529442918" lon="8.981086805754483"><ele>18.0</ele><time>2026-03-26T12:35:23.999Z</time></trkpt><trkpt lat="39.005100697802064" lon="8.981213390305873"><ele>18.25</ele><time>2026-03-26T12:35:24.999Z</time></trkpt><trkpt lat="39.00515612331492" lon="8.98135002738016"><ele>18.5</ele><time>2026-03-26T12:35:25.999Z</time></trkpt><trkpt lat="39.00521526268263" lon="8.981495524068603"><ele>18.75</ele><time>2026-03-26T12:35:26.999Z</time></trkpt><trkpt lat="39.00527785426504" lon="8.98164896612065"><ele>19.0</ele><time>2026-03-26T12:35:27.999Z</time></trkpt><trkpt lat="39.00534641180971" lon="8.981812641044426"><ele>19.0</ele><time>2026-03-26T12:35:28.999Z</time></trkpt><trkpt lat="39.00540796468042" lon="8.981960742562523"><ele>19.0</ele><time>2026-03-26T12:35:29.999Z</time></trkpt><trkpt lat="39.00545944049732" lon="8.982103922336805"><ele>19.0</ele><time>2026-03-26T12:35:30.999Z</time></trkpt><trkpt lat="39.00550774872362" lon="8.982252158339397"><ele>19.0</ele><time>2026-03-26T12:35:31.999Z</time></trkpt><trkpt lat="39.00555355025484" lon="8.982397939285992"><ele>19.25</ele><time>2026-03-26T12:35:32.999Z</time></trkpt><trkpt lat="39.005593010521665" lon="8.9825356598803"><ele>19.5</ele><time>2026-03-26T12:35:33.999Z</time></trkpt><trkpt lat="39.00563110504029" lon="8.982673298846601"><ele>19.75</ele><time>2026-03-26T12:35:34.999Z</time></trkpt><trkpt lat="39.00567160222534" lon="8.982810852093504"><ele>20.0</ele><time>2026-03-26T12:35:35.999Z</time></trkpt><trkpt lat="39.00571196042229" lon="8.982956749198117"><ele>20.0</ele><time>2026-03-26T12:35:36.999Z</time></trkpt><trkpt lat="39.00574981462686" lon="8.98311354554034"><ele>20.0</ele><time>2026-03-26T12:35:37.999Z</time></trkpt><trkpt lat="39.005783584727986" lon="8.983272713397165"><ele>20.0</ele><time>2026-03-26T12:35:38.999Z</time></trkpt><trkpt lat="39.00581286353975" lon="8.983431560457673"><ele>20.0</ele><time>2026-03-26T12:35:39.999Z</time></trkpt><trkpt lat="39.00583675243488" lon="8.983580833322334"><ele>20.0</ele><time>2026-03-26T12:35:40.999Z</time></trkpt><trkpt lat="39.005857452159184" lon="8.983718355372295"><ele>20.0</ele><time>2026-03-26T12:35:41.999Z</time></trkpt><trkpt lat="39.00587169301542" lon="8.98384530739398"><ele>20.0</ele><time>2026-03-26T12:35:42.999Z</time></trkpt><trkpt lat="39.00587934205052" lon="8.983964488047013"><ele>20.0</ele><time>2026-03-26T12:35:43.999Z</time></trkpt><trkpt lat="39.00588471628398" lon="8.984090543344905"><ele>20.0</ele><time>2026-03-26T12:35:44.999Z</time></trkpt><trkpt lat="39.005884516708456" lon="8.984227554469529"><ele>20.0</ele><time>2026-03-26T12:35:45.999Z</time></trkpt><trkpt lat="39.00588622135166" lon="8.984374251207472"><ele>20.0</ele><time>2026-03-26T12:35:46.999Z</time></trkpt><trkpt lat="39.00589092945452" lon="8.984526909715314"><ele>20.0</ele><time>2026-03-26T12:35:47.999Z</time></trkpt><trkpt lat="39.00589721651527" lon="8.984684827988326"><ele>20.0</ele><time>2026-03-26T12:35:48.999Z</time></trkpt><trkpt lat="39.00590384585274" lon="8.984847379620334"><ele>19.5</ele><time>2026-03-26T12:35:49.999Z</time></trkpt><trkpt lat="39.00591232454501" lon="8.985014032174817"><ele>19.0</ele><time>2026-03-26T12:35:50.999Z</time></trkpt><trkpt lat="39.00592321774995" lon="8.985180751008855"><ele>18.5</ele><time>2026-03-26T12:35:51.999Z</time></trkpt><trkpt lat="39.00594071749665" lon="8.985345095357415"><ele>18.0</ele><time>2026-03-26T12:35:52.999Z</time></trkpt><trkpt lat="39.00596472528004" lon="8.985505591043216"><ele>18.0</ele><time>2026-03-26T12:35:53.999Z</time></trkpt><trkpt lat="39.0059870701631" lon="8.98566341204967"><ele>18.0</ele><time>2026-03-26T12:35:54.999Z</time></trkpt><trkpt lat="39.0060084748262" lon="8.98582339093167"><ele>18.0</ele><time>2026-03-26T12:35:55.999Z</time></trkpt><trkpt lat="39.00603648320485" lon="8.985996351185493"><ele>18.0</ele><time>2026-03-26T12:35:56.999Z</time></trkpt><trkpt lat="39.00606298413138" lon="8.986168672142787"><ele>17.5</ele><time>2026-03-26T12:35:57.999Z</time></trkpt><trkpt lat="39.00608792861602" lon="8.986338561738298"><ele>17.0</ele><time>2026-03-26T12:35:58.999Z</time></trkpt><trkpt lat="39.00611181448766" lon="8.986505816744087"><ele>16.5</ele><time>2026-03-26T12:35:59.999Z</time></trkpt><trkpt lat="39.006112692348495" lon="8.986677028440646"><ele>16.0</ele><time>2026-03-26T12:36:00.999Z</time></trkpt><trkpt lat="39.00612973578479" lon="8.986851835737266"><ele>16.0</ele><time>2026-03-26T12:36:01.999Z</time></trkpt><trkpt lat="39.00615198043909" lon="8.987018007668304"><ele>16.0</ele><time>2026-03-26T12:36:02.999Z</time></trkpt><trkpt lat="39.00617427578673" lon="8.987190820583276"><ele>16.0</ele><time>2026-03-26T12:36:03.999Z</time></trkpt><trkpt lat="39.0061964107325" lon="8.987361322617827"><ele>16.0</ele><time>2026-03-26T12:36:04.999Z</time></trkpt><trkpt lat="39.00621854400126" lon="8.987531811762008"><ele>16.0</ele><time>2026-03-26T12:36:05.999Z</time></trkpt><trkpt lat="39.006239199679264" lon="8.987690919253088"><ele>16.0</ele><time>2026-03-26T12:36:06.999Z</time></trkpt><trkpt lat="39.00625596495158" lon="8.98783638422732"><ele>16.0</ele><time>2026-03-26T12:36:07.999Z</time></trkpt><trkpt lat="39.00627227632261" lon="8.987982217067698"><ele>16.0</ele><time>2026-03-26T12:36:08.999Z</time></trkpt><trkpt lat="39.006287303714345" lon="8.988116725643312"><ele>15.999999999999998</ele><time>2026-03-26T12:36:09.999Z</time></trkpt><trkpt lat="39.00630096323599" lon="8.988238990557157"><ele>16.0</ele><time>2026-03-26T12:36:10.999Z</time></trkpt><trkpt lat="39.00631420836195" lon="8.988347762233706"><ele>16.0</ele><time>2026-03-26T12:36:11.999Z</time></trkpt><trkpt lat="39.006326906905656" lon="8.988449688292281"><ele>16.0</ele><time>2026-03-26T12:36:12.999Z</time></trkpt><trkpt lat="39.00633934730163" lon="8.988549542340754"><ele>15.999999999999998</ele><time>2026-03-26T12:36:13.999Z</time></trkpt><trkpt lat="39.00634907790827" lon="8.988632921161415"><ele>16.0</ele><time>2026-03-26T12:36:14.999Z</time></trkpt><trkpt lat="39.00636271955678" lon="8.988751584827122"><ele>16.0</ele><time>2026-03-26T12:36:16.999Z</time></trkpt><trkpt lat="39.00655381477545" lon="8.988745600976499"><ele>16.0</ele><time>2026-03-26T12:36:18.999Z</time></trkpt><trkpt lat="39.006666903696555" lon="8.988688477233604"><ele>16.0</ele><time>2026-03-26T12:36:20.999Z</time></trkpt><trkpt lat="39.00674523724883" lon="8.988652856555401"><ele>16.0</ele><time>2026-03-26T12:36:21.999Z</time></trkpt><trkpt lat="39.00683357595747" lon="8.988617703455347"><ele>16.0</ele><time>2026-03-26T12:36:22.999Z</time></trkpt><trkpt lat="39.00693278608984" lon="8.988581972380405"><ele>16.0</ele><time>2026-03-26T12:36:23.999Z</time></trkpt><trkpt lat="39.00703473211854" lon="8.988544465675327"><ele>16.0</ele><time>2026-03-26T12:36:24.999Z</time></trkpt><trkpt lat="39.00713725856361" lon="8.988499493893421"><ele>16.0</ele><time>2026-03-26T12:36:25.999Z</time></trkpt><trkpt lat="39.00723838948706" lon="8.98844869853921"><ele>16.0</ele><time>2026-03-26T12:36:26.999Z</time></trkpt><trkpt lat="39.0073368936628" lon="8.988402550842846"><ele>15.999999999999998</ele><time>2026-03-26T12:36:27.999Z</time></trkpt><trkpt lat="39.007415921062226" lon="8.98835355277209"><ele>16.0</ele><time>2026-03-26T12:36:28.999Z</time></trkpt><trkpt lat="39.00749436838412" lon="8.9883071679211"><ele>16.0</ele><time>2026-03-26T12:36:29.999Z</time></trkpt><trkpt lat="39.00756485862682" lon="8.988254946735951"><ele>16.0</ele><time>2026-03-26T12:36:30.999Z</time></trkpt><trkpt lat="39.007639789068406" lon="8.988191389268023"><ele>15.999999999999998</ele><time>2026-03-26T12:36:31.999Z</time></trkpt><trkpt lat="39.00771491254675" lon="8.988123955585834"><ele>16.0</ele><time>2026-03-26T12:36:32.999Z</time></trkpt><trkpt lat="39.007799787399854" lon="8.988052896802133"><ele>15.75</ele><time>2026-03-26T12:36:33.999Z</time></trkpt><trkpt lat="39.007885900779556" lon="8.987963628766304"><ele>15.5</ele><time>2026-03-26T12:36:35Z</time></trkpt><trkpt lat="39.00798507322332" lon="8.98785076869182"><ele>15.25</ele><time>2026-03-26T12:36:36Z</time></trkpt><trkpt lat="39.00807357162027" lon="8.987742900173116"><ele>15.0</ele><time>2026-03-26T12:36:37Z</time></trkpt><trkpt lat="39.00815118539085" lon="8.987655523609131"><ele>15.0</ele><time>2026-03-26T12:36:38Z</time></trkpt><trkpt lat="39.00822888595716" lon="8.987566078814735"><ele>15.0</ele><time>2026-03-26T12:36:39Z</time></trkpt><trkpt lat="39.00830707607473" lon="8.98746796992667"><ele>15.0</ele><time>2026-03-26T12:36:40Z</time></trkpt><trkpt lat="39.008387779948904" lon="8.987372430925392"><ele>15.0</ele><time>2026-03-26T12:36:41Z</time></trkpt><trkpt lat="39.00846987397538" lon="8.987277201636513"><ele>15.0</ele><time>2026-03-26T12:36:42Z</time></trkpt><trkpt lat="39.00855210622582" lon="8.987180545526149"><ele>15.25</ele><time>2026-03-26T12:36:43Z</time></trkpt><trkpt lat="39.00863348345649" lon="8.98708292868946"><ele>15.5</ele><time>2026-03-26T12:36:44Z</time></trkpt><trkpt lat="39.00871490916768" lon="8.986982409293251"><ele>15.75</ele><time>2026-03-26T12:36:45Z</time></trkpt><trkpt lat="39.008795382107266" lon="8.986875175856552"><ele>16.0</ele><time>2026-03-26T12:36:46Z</time></trkpt><trkpt lat="39.008874196247035" lon="8.986775878886927"><ele>16.0</ele><time>2026-03-26T12:36:47Z</time></trkpt><trkpt lat="39.00895731507722" lon="8.98666569243754"><ele>16.0</ele><time>2026-03-26T12:36:48Z</time></trkpt><trkpt lat="39.009040829315204" lon="8.986552372251872"><ele>16.0</ele><time>2026-03-26T12:36:49Z</time></trkpt><trkpt lat="39.009126746103675" lon="8.986441342409405"><ele>16.0</ele><time>2026-03-26T12:36:50Z</time></trkpt><trkpt lat="39.009205850634515" lon="8.986325608847347"><ele>16.0</ele><time>2026-03-26T12:36:51Z</time></trkpt><trkpt lat="39.00927487935335" lon="8.98617469038738"><ele>16.0</ele><time>2026-03-26T12:36:52Z</time></trkpt><trkpt lat="39.00932854120667" lon="8.986021585101787"><ele>16.0</ele><time>2026-03-26T12:36:53Z</time></trkpt><trkpt lat="39.00939494650025" lon="8.985877423293688"><ele>16.0</ele><time>2026-03-26T12:36:54Z</time></trkpt><trkpt lat="39.00943439284842" lon="8.985716239077114"><ele>16.75</ele><time>2026-03-26T12:36:55Z</time></trkpt><trkpt lat="39.009485150320266" lon="8.985556444005255"><ele>17.5</ele><time>2026-03-26T12:36:56Z</time></trkpt><trkpt lat="39.009529583966774" lon="8.9853853928825"><ele>18.25</ele><time>2026-03-26T12:36:57Z</time></trkpt><trkpt lat="39.00957306928493" lon="8.985214948686613"><ele>19.0</ele><time>2026-03-26T12:36:58Z</time></trkpt><trkpt lat="39.009613298659026" lon="8.985039356379515"><ele>19.5</ele><time>2026-03-26T12:36:59Z</time></trkpt><trkpt lat="39.009673725761516" lon="8.984869597207968"><ele>20.0</ele><time>2026-03-26T12:37:00Z</time></trkpt><trkpt lat="39.00970759425858" lon="8.984680096967363"><ele>20.5</ele><time>2026-03-26T12:37:01Z</time></trkpt><trkpt lat="39.00975322680091" lon="8.984503681164934"><ele>21.0</ele><time>2026-03-26T12:37:02Z</time></trkpt><trkpt lat="39.00979551253088" lon="8.984332210613136"><ele>21.5</ele><time>2026-03-26T12:37:03Z</time></trkpt><trkpt lat="39.00983739329605" lon="8.98416231864301"><ele>22.0</ele><time>2026-03-26T12:37:04Z</time></trkpt><trkpt lat="39.009879455076344" lon="8.983995384795445"><ele>22.5</ele><time>2026-03-26T12:37:05Z</time></trkpt><trkpt lat="39.009920041159255" lon="8.983829701828261"><ele>23.0</ele><time>2026-03-26T12:37:06Z</time></trkpt><trkpt lat="39.00996035507424" lon="8.983667384592598"><ele>22.75</ele><time>2026-03-26T12:37:07Z</time></trkpt><trkpt lat="39.00999703876321" lon="8.983506717439223"><ele>22.5</ele><time>2026-03-26T12:37:08Z</time></trkpt><trkpt lat="39.010033193689125" lon="8.983345972209792"><ele>22.25</ele><time>2026-03-26T12:37:09Z</time></trkpt><trkpt lat="39.01007611494266" lon="8.983186835300124"><ele>22.0</ele><time>2026-03-26T12:37:10Z</time></trkpt><trkpt lat="39.01012003347529" lon="8.983045183209628"><ele>22.5</ele><time>2026-03-26T12:37:11Z</time></trkpt><trkpt lat="39.01017346480577" lon="8.982905561594384"><ele>23.0</ele><time>2026-03-26T12:37:12Z</time></trkpt><trkpt lat="39.0102399185078" lon="8.982766220507894"><ele>23.5</ele><time>2026-03-26T12:37:13Z</time></trkpt><trkpt lat="39.010316891110136" lon="8.982625227916664"><ele>24.0</ele><time>2026-03-26T12:37:14Z</time></trkpt><trkpt lat="39.01040191199287" lon="8.98247672775742"><ele>24.25</ele><time>2026-03-26T12:37:15Z</time></trkpt><trkpt lat="39.0104867319056" lon="8.982339532667893"><ele>24.5</ele><time>2026-03-26T12:37:16Z</time></trkpt><trkpt lat="39.010570934208374" lon="8.982210436616164"><ele>24.75</ele><time>2026-03-26T12:37:17Z</time></trkpt><trkpt lat="39.01064800416883" lon="8.982089759131533"><ele>25.0</ele><time>2026-03-26T12:37:18Z</time></trkpt><trkpt lat="39.01071372857657" lon="8.981959102159204"><ele>25.0</ele><time>2026-03-26T12:37:19Z</time></trkpt><trkpt lat="39.01078261490077" lon="8.981819156185155"><ele>25.0</ele><time>2026-03-26T12:37:20Z</time></trkpt><trkpt lat="39.01081003525306" lon="8.981660199308473"><ele>25.0</ele><time>2026-03-26T12:37:21Z</time></trkpt><trkpt lat="39.01084128735438" lon="8.981505238228262"><ele>25.0</ele><time>2026-03-26T12:37:22Z</time></trkpt><trkpt lat="39.01086461028124" lon="8.981341708431033"><ele>25.0</ele><time>2026-03-26T12:37:23Z</time></trkpt><trkpt lat="39.01087643646373" lon="8.981172585381772"><ele>25.0</ele><time>2026-03-26T12:37:24Z</time></trkpt><trkpt lat="39.010878385974145" lon="8.981001982312751"><ele>25.0</ele><time>2026-03-26T12:37:25Z</time></trkpt><trkpt lat="39.01087591699183" lon="8.980849016454329"><ele>25.0</ele><time>2026-03-26T12:37:26Z</time></trkpt><trkpt lat="39.01087553573543" lon="8.980702957174024"><ele>24.8</ele><time>2026-03-26T12:37:27Z</time></trkpt><trkpt lat="39.010876978625454" lon="8.98055360088776"><ele>24.6</ele><time>2026-03-26T12:37:28Z</time></trkpt><trkpt lat="39.010882282612485" lon="8.980414520901064"><ele>24.4</ele><time>2026-03-26T12:37:29Z</time></trkpt><trkpt lat="39.010897199541674" lon="8.980296116591045"><ele>24.2</ele><time>2026-03-26T12:37:30Z</time></trkpt><trkpt lat="39.01092872334321" lon="8.980174408263709"><ele>24.0</ele><time>2026-03-26T12:37:31Z</time></trkpt><trkpt lat="39.01098148636594" lon="8.980062629966095"><ele>24.333333333333332</ele><time>2026-03-26T12:37:32Z</time></trkpt><trkpt lat="39.01103134366535" lon="8.979980341736074"><ele>24.666666666666664</ele><time>2026-03-26T12:37:33Z</time></trkpt><trkpt lat="39.0110776648569" lon="8.97990381842444"><ele>25.0</ele><time>2026-03-26T12:37:34Z</time></trkpt><trkpt lat="39.011144598886915" lon="8.979785160770831"><ele>25.333333333333332</ele><time>2026-03-26T12:37:35.999Z</time></trkpt><trkpt lat="39.01120592161828" lon="8.979731712883613"><ele>25.666666666666664</ele><time>2026-03-26T12:37:37.999Z</time></trkpt><trkpt lat="39.01128328813228" lon="8.979650082016308"><ele>26.0</ele><time>2026-03-26T12:37:40.999Z</time></trkpt><trkpt lat="39.01134589090889" lon="8.979596623743387"><ele>26.0</ele><time>2026-03-26T12:37:41.999Z</time></trkpt><trkpt lat="39.01136391091851" lon="8.979466889815894"><ele>26.0</ele><time>2026-03-26T12:37:42.999Z</time></trkpt><trkpt lat="39.01138846690283" lon="8.979331395012185"><ele>26.0</ele><time>2026-03-26T12:37:43.999Z</time></trkpt><trkpt lat="39.01142489344407" lon="8.97918186915209"><ele>26.0</ele><time>2026-03-26T12:37:44.999Z</time></trkpt><trkpt lat="39.01146804296239" lon="8.97902757630284"><ele>25.75</ele><time>2026-03-26T12:37:45.999Z</time></trkpt><trkpt lat="39.011522276122" lon="8.97887773732238"><ele>25.5</ele><time>2026-03-26T12:37:46.999Z</time></trkpt><trkpt lat="39.01159224253256" lon="8.978738888970062"><ele>25.25</ele><time>2026-03-26T12:37:47.999Z</time></trkpt><trkpt lat="39.0116763310111" lon="8.978611627367282"><ele>25.0</ele><time>2026-03-26T12:37:48.999Z</time></trkpt><trkpt lat="39.01176113854582" lon="8.978479876391654"><ele>25.25</ele><time>2026-03-26T12:37:49.999Z</time></trkpt><trkpt lat="39.01184382752834" lon="8.978344615947389"><ele>25.5</ele><time>2026-03-26T12:37:50.999Z</time></trkpt><trkpt lat="39.01192416930789" lon="8.978206092816878"><ele>25.75</ele><time>2026-03-26T12:37:51.999Z</time></trkpt><trkpt lat="39.01199824423706" lon="8.978062470534978"><ele>26.0</ele><time>2026-03-26T12:37:52.999Z</time></trkpt><trkpt lat="39.012067746327126" lon="8.977915964654427"><ele>26.0</ele><time>2026-03-26T12:37:53.999Z</time></trkpt><trkpt lat="39.01213140283054" lon="8.97776533301371"><ele>26.0</ele><time>2026-03-26T12:37:54.999Z</time></trkpt><trkpt lat="39.01218926750218" lon="8.977613209281671"><ele>26.0</ele><time>2026-03-26T12:37:55.999Z</time></trkpt><trkpt lat="39.01224198619042" lon="8.977454605713103"><ele>26.0</ele><time>2026-03-26T12:37:56.999Z</time></trkpt><trkpt lat="39.012293988550965" lon="8.97729118566767"><ele>26.75</ele><time>2026-03-26T12:37:57.999Z</time></trkpt><trkpt lat="39.01235043614515" lon="8.97712559920434"><ele>27.5</ele><time>2026-03-26T12:37:58.999Z</time></trkpt><trkpt lat="39.012405861522055" lon="8.976968279027886"><ele>28.25</ele><time>2026-03-26T12:37:59.999Z</time></trkpt><trkpt lat="39.01246123495055" lon="8.976812907017989"><ele>29.0</ele><time>2026-03-26T12:38:00.999Z</time></trkpt><trkpt lat="39.012522984666035" lon="8.976654590270854"><ele>29.0</ele><time>2026-03-26T12:38:01.999Z</time></trkpt><trkpt lat="39.01258356641691" lon="8.976500866497693"><ele>29.0</ele><time>2026-03-26T12:38:02.999Z</time></trkpt><trkpt lat="39.01262948183462" lon="8.976355585153721"><ele>29.0</ele><time>2026-03-26T12:38:03.999Z</time></trkpt><trkpt lat="39.012662166031774" lon="8.976204531809229"><ele>29.0</ele><time>2026-03-26T12:38:04.999Z</time></trkpt><trkpt lat="39.01267823084022" lon="8.97605427962218"><ele>29.0</ele><time>2026-03-26T12:38:05.999Z</time></trkpt><trkpt lat="39.01268266284831" lon="8.975898736572029"><ele>29.0</ele><time>2026-03-26T12:38:06.999Z</time></trkpt><trkpt lat="39.012686936671045" lon="8.975740751463952"><ele>29.0</ele><time>2026-03-26T12:38:07.999Z</time></trkpt><trkpt lat="39.01268892870709" lon="8.97557937363106"><ele>29.0</ele><time>2026-03-26T12:38:08.999Z</time></trkpt><trkpt lat="39.012690138659245" lon="8.975417368532124"><ele>29.0</ele><time>2026-03-26T12:38:09.999Z</time></trkpt><trkpt lat="39.0127022800434" lon="8.97525755890529"><ele>29.0</ele><time>2026-03-26T12:38:10.999Z</time></trkpt><trkpt lat="39.012727633233865" lon="8.975108927752647"><ele>29.0</ele><time>2026-03-26T12:38:11.999Z</time></trkpt><trkpt lat="39.012746351255245" lon="8.9750166207381"><ele>29.0</ele><time>2026-03-26T12:38:12.999Z</time></trkpt><trkpt lat="39.012777105168375" lon="8.974932503047043"><ele>29.0</ele><time>2026-03-26T12:38:14.999Z</time></trkpt><trkpt lat="39.01282092749802" lon="8.974858804578846"><ele>28.999999999999996</ele><time>2026-03-26T12:38:18.999Z</time></trkpt><trkpt lat="39.01278629449661" lon="8.97497432851619"><ele>29.0</ele><time>2026-03-26T12:38:34.999Z</time></trkpt><trkpt lat="39.01287946778035" lon="8.97509091464407"><ele>29.0</ele><time>2026-03-26T12:38:36.999Z</time></trkpt><trkpt lat="39.01294874344915" lon="8.975124816409537"><ele>29.0</ele><time>2026-03-26T12:38:37.999Z</time></trkpt><trkpt lat="39.013003708943735" lon="8.975190138472303"><ele>28.999999999999996</ele><time>2026-03-26T12:38:38.999Z</time></trkpt><trkpt lat="39.01306587160036" lon="8.97523948648732"><ele>29.0</ele><time>2026-03-26T12:38:39.999Z</time></trkpt><trkpt lat="39.013123112502214" lon="8.975284206639055"><ele>29.166666666666664</ele><time>2026-03-26T12:38:41Z</time></trkpt><trkpt lat="39.013181070751706" lon="8.975329301393394"><ele>29.333333333333332</ele><time>2026-03-26T12:38:42Z</time></trkpt><trkpt lat="39.01324361870382" lon="8.975377967192102"><ele>29.5</ele><time>2026-03-26T12:38:43Z</time></trkpt><trkpt lat="39.01330741122633" lon="8.975427601341282"><ele>29.666666666666664</ele><time>2026-03-26T12:38:44Z</time></trkpt><trkpt lat="39.013385155145556" lon="8.975468692335994"><ele>29.833333333333332</ele><time>2026-03-26T12:38:45Z</time></trkpt><trkpt lat="39.01345584932799" lon="8.975518160377854"><ele>30.0</ele><time>2026-03-26T12:38:46Z</time></trkpt><trkpt lat="39.01352688288478" lon="8.975572848118794"><ele>30.0</ele><time>2026-03-26T12:38:47Z</time></trkpt><trkpt lat="39.01360184691254" lon="8.975624785031766"><ele>30.0</ele><time>2026-03-26T12:38:48Z</time></trkpt><trkpt lat="39.013663965075004" lon="8.975695199868058"><ele>30.0</ele><time>2026-03-26T12:38:49Z</time></trkpt><trkpt lat="39.013746196301184" lon="8.975715371607828"><ele>30.0</ele><time>2026-03-26T12:38:50Z</time></trkpt><trkpt lat="39.01382245164996" lon="8.975763225570299"><ele>30.0</ele><time>2026-03-26T12:38:51Z</time></trkpt><trkpt lat="39.01388302972956" lon="8.975859282797755"><ele>30.0</ele><time>2026-03-26T12:38:52Z</time></trkpt><trkpt lat="39.01396850970383" lon="8.975923771558913"><ele>30.0</ele><time>2026-03-26T12:38:53Z</time></trkpt><trkpt lat="39.01406002683542" lon="8.975992814983192"><ele>30.0</ele><time>2026-03-26T12:38:54Z</time></trkpt><trkpt lat="39.014157183291125" lon="8.976066112878609"><ele>30.0</ele><time>2026-03-26T12:38:55Z</time></trkpt><trkpt lat="39.014254619018914" lon="8.976139621466464"><ele>30.0</ele><time>2026-03-26T12:38:56Z</time></trkpt><trkpt lat="39.0143518895884" lon="8.976215551123255"><ele>30.0</ele><time>2026-03-26T12:38:57Z</time></trkpt><trkpt lat="39.0144469627187" lon="8.976291296506114"><ele>29.6</ele><time>2026-03-26T12:38:58Z</time></trkpt><trkpt lat="39.014543147662884" lon="8.976368108280171"><ele>29.2</ele><time>2026-03-26T12:38:59Z</time></trkpt><trkpt lat="39.01463393455086" lon="8.9764412984792"><ele>28.799999999999997</ele><time>2026-03-26T12:39:00Z</time></trkpt><trkpt lat="39.01472017742923" lon="8.976511173188774"><ele>28.4</ele><time>2026-03-26T12:39:01Z</time></trkpt><trkpt lat="39.01480067928642" lon="8.97657639648484"><ele>28.0</ele><time>2026-03-26T12:39:02Z</time></trkpt><trkpt lat="39.01487254723633" lon="8.97663424041439"><ele>28.000000000000004</ele><time>2026-03-26T12:39:03Z</time></trkpt><trkpt lat="39.01493683817137" lon="8.976685117638603"><ele>28.0</ele><time>2026-03-26T12:39:04Z</time></trkpt><trkpt lat="39.01505098219699" lon="8.976737521320496"><ele>28.0</ele><time>2026-03-26T12:39:06Z</time></trkpt><trkpt lat="39.01512313995426" lon="8.97676524624454"><ele>28.0</ele><time>2026-03-26T12:39:08Z</time></trkpt><trkpt lat="39.01518450864389" lon="8.976741324646555"><ele>28.000000000000004</ele><time>2026-03-26T12:39:10Z</time></trkpt><trkpt lat="39.01526844640051" lon="8.976703248820202"><ele>28.0</ele><time>2026-03-26T12:39:12Z</time></trkpt><trkpt lat="39.015174521147344" lon="8.976593743065594"><ele>28.2</ele><time>2026-03-26T12:39:14Z</time></trkpt><trkpt lat="39.01518268867086" lon="8.976462086840906"><ele>28.4</ele><time>2026-03-26T12:39:16Z</time></trkpt><trkpt lat="39.01522093542363" lon="8.976344953186144"><ele>28.599999999999998</ele><time>2026-03-26T12:39:18Z</time></trkpt><trkpt lat="39.01526886360828" lon="8.976226831760405"><ele>28.799999999999997</ele><time>2026-03-26T12:39:20Z</time></trkpt><trkpt lat="39.0153336546406" lon="8.976185838196411"><ele>29.0</ele><time>2026-03-26T12:39:23Z</time></trkpt><trkpt lat="39.01573307249693" lon="8.97641465730662"><ele>29.0</ele><time>2026-03-26T12:39:27Z</time></trkpt><trkpt lat="39.015815995013774" lon="8.976297864897486"><ele>29.0</ele><time>2026-03-26T12:39:29Z</time></trkpt><trkpt lat="39.015892278215766" lon="8.97627693394819"><ele>29.0</ele><time>2026-03-26T12:39:30Z</time></trkpt><trkpt lat="39.01596854961611" lon="8.976222556050173"><ele>29.0</ele><time>2026-03-26T12:39:31Z</time></trkpt><trkpt lat="39.01604812284108" lon="8.97615656019857"><ele>29.0</ele><time>2026-03-26T12:39:32Z</time></trkpt><trkpt lat="39.0161137763026" lon="8.976066395133666"><ele>29.0</ele><time>2026-03-26T12:39:33Z</time></trkpt><trkpt lat="39.0161818399973" lon="8.975979128368449"><ele>29.0</ele><time>2026-03-26T12:39:34Z</time></trkpt><trkpt lat="39.01624472536934" lon="8.975868428528877"><ele>29.0</ele><time>2026-03-26T12:39:35Z</time></trkpt><trkpt lat="39.01632805710438" lon="8.975742355518367"><ele>29.0</ele><time>2026-03-26T12:39:36Z</time></trkpt><trkpt lat="39.01639222319373" lon="8.975616388147236"><ele>29.0</ele><time>2026-03-26T12:39:37Z</time></trkpt><trkpt lat="39.016455479254184" lon="8.97550758354288"><ele>29.0</ele><time>2026-03-26T12:39:38Z</time></trkpt><trkpt lat="39.016521576428445" lon="8.975409887914932"><ele>29.0</ele><time>2026-03-26T12:39:39Z</time></trkpt><trkpt lat="39.01660541269558" lon="8.975325134295812"><ele>29.0</ele><time>2026-03-26T12:39:40Z</time></trkpt><trkpt lat="39.01669160423417" lon="8.975235929736538"><ele>29.0</ele><time>2026-03-26T12:39:41Z</time></trkpt><trkpt lat="39.01677525189042" lon="8.975130980555006"><ele>29.0</ele><time>2026-03-26T12:39:42Z</time></trkpt><trkpt lat="39.016888854296624" lon="8.975107387114367"><ele>29.5</ele><time>2026-03-26T12:39:43Z</time></trkpt><trkpt lat="39.016984959800276" lon="8.975040853023179"><ele>30.0</ele><time>2026-03-26T12:39:44Z</time></trkpt><trkpt lat="39.0170776141211" lon="8.974976708252596"><ele>30.5</ele><time>2026-03-26T12:39:45Z</time></trkpt><trkpt lat="39.017157491136324" lon="8.974908145457587"><ele>31.0</ele><time>2026-03-26T12:39:46Z</time></trkpt><trkpt lat="39.01713501441488" lon="8.97464916312514"><ele>31.000000000000004</ele><time>2026-03-26T12:39:47Z</time></trkpt><trkpt lat="39.01719076385022" lon="8.974608351989007"><ele>31.0</ele><time>2026-03-26T12:40:13.999Z</time></trkpt><trkpt lat="39.01727687149589" lon="8.974692738586993"><ele>31.0</ele><time>2026-03-26T12:40:16.999Z</time></trkpt><trkpt lat="39.01734080968543" lon="8.974816903939763"><ele>31.0</ele><time>2026-03-26T12:40:18.999Z</time></trkpt><trkpt lat="39.01738884193134" lon="8.97488697893809"><ele>31.000000000000004</ele><time>2026-03-26T12:40:19.999Z</time></trkpt><trkpt lat="39.01743705841254" lon="8.974951764389665"><ele>31.0</ele><time>2026-03-26T12:40:20.999Z</time></trkpt><trkpt lat="39.017480060522765" lon="8.975025633383927"><ele>31.857142857142858</ele><time>2026-03-26T12:40:21.999Z</time></trkpt><trkpt lat="39.01751978346477" lon="8.975096831014804"><ele>32.714285714285715</ele><time>2026-03-26T12:40:22.999Z</time></trkpt><trkpt lat="39.01756088553115" lon="8.97516959793366"><ele>33.57142857142857</ele><time>2026-03-26T12:40:23.999Z</time></trkpt><trkpt lat="39.01760277566937" lon="8.975241351524998"><ele>34.42857142857143</ele><time>2026-03-26T12:40:24.999Z</time></trkpt><trkpt lat="39.017643240091196" lon="8.975313581466756"><ele>35.285714285714285</ele><time>2026-03-26T12:40:25.999Z</time></trkpt><trkpt lat="39.01768610429404" lon="8.97538302324305"><ele>36.142857142857146</ele><time>2026-03-26T12:40:26.999Z</time></trkpt><trkpt lat="39.017720851882466" lon="8.975453016298703"><ele>37.0</ele><time>2026-03-26T12:40:27.999Z</time></trkpt><trkpt lat="39.017758609442666" lon="8.975522654984893"><ele>37.0</ele><time>2026-03-26T12:40:28.999Z</time></trkpt><trkpt lat="39.01780096590776" lon="8.975592668997184"><ele>37.0</ele><time>2026-03-26T12:40:29.999Z</time></trkpt><trkpt lat="39.01783745333769" lon="8.975663527657538"><ele>37.0</ele><time>2026-03-26T12:40:30.999Z</time></trkpt><trkpt lat="39.017905313103256" lon="8.975778632719647"><ele>37.0</ele><time>2026-03-26T12:40:32.999Z</time></trkpt><trkpt lat="39.01797703026747" lon="8.975822764051877"><ele>37.0</ele><time>2026-03-26T12:40:34.999Z</time></trkpt><trkpt lat="39.01807461485068" lon="8.975772494278587"><ele>37.0</ele><time>2026-03-26T12:40:36.999Z</time></trkpt><trkpt lat="39.01812457636679" lon="8.975711946595473"><ele>37.0</ele><time>2026-03-26T12:40:37.999Z</time></trkpt><trkpt lat="39.01816720495906" lon="8.975647170571797"><ele>37.0</ele><time>2026-03-26T12:40:38.999Z</time></trkpt><trkpt lat="39.01824371984771" lon="8.975601388135294"><ele>37.0</ele><time>2026-03-26T12:40:40.999Z</time></trkpt><trkpt lat="39.018320791044324" lon="8.975644661896878"><ele>37.0</ele><time>2026-03-26T12:40:42.999Z</time></trkpt><trkpt lat="39.0184094515051" lon="8.97570680945792"><ele>37.0</ele><time>2026-03-26T12:40:44.999Z</time></trkpt><trkpt lat="39.01848920101455" lon="8.97579410655513"><ele>37.0</ele><time>2026-03-26T12:40:47Z</time></trkpt><trkpt lat="39.01853478273644" lon="8.975884925903035"><ele>38.8</ele><time>2026-03-26T12:40:49Z</time></trkpt><trkpt lat="39.01856118323172" lon="8.976001871093379"><ele>40.6</ele><time>2026-03-26T12:40:51Z</time></trkpt><trkpt lat="39.01863098909912" lon="8.976080295440157"><ele>42.4</ele><time>2026-03-26T12:40:54Z</time></trkpt><trkpt lat="39.018671800604764" lon="8.976145533556272"><ele>44.199999999999996</ele><time>2026-03-26T12:40:56Z</time></trkpt><trkpt lat="39.01873707527824" lon="8.976145406249548"><ele>46.0</ele><time>2026-03-26T12:41:02Z</time></trkpt><trkpt lat="39.0188792220095" lon="8.976051641362412"><ele>46.0</ele><time>2026-03-26T12:41:05Z</time></trkpt><trkpt lat="39.01907178478461" lon="8.97595763468136"><ele>46.0</ele><time>2026-03-26T12:41:07Z</time></trkpt><trkpt lat="39.019196406910496" lon="8.975860290385473"><ele>46.0</ele><time>2026-03-26T12:41:08Z</time></trkpt><trkpt lat="39.019293966586964" lon="8.975772187759354"><ele>46.4</ele><time>2026-03-26T12:41:09Z</time></trkpt><trkpt lat="39.01937381452632" lon="8.975687963131934"><ele>46.8</ele><time>2026-03-26T12:41:10Z</time></trkpt><trkpt lat="39.019446207008194" lon="8.975605528515974"><ele>47.199999999999996</ele><time>2026-03-26T12:41:11Z</time></trkpt><trkpt lat="39.01951816618546" lon="8.97552481271921"><ele>47.599999999999994</ele><time>2026-03-26T12:41:12Z</time></trkpt><trkpt lat="39.01959256798484" lon="8.975443774071211"><ele>48.0</ele><time>2026-03-26T12:41:13Z</time></trkpt><trkpt lat="39.01967034750568" lon="8.975355516340464"><ele>48.0</ele><time>2026-03-26T12:41:14Z</time></trkpt><trkpt lat="39.019744657932804" lon="8.975262479227993"><ele>48.0</ele><time>2026-03-26T12:41:15Z</time></trkpt><trkpt lat="39.01981589404886" lon="8.97516539890296"><ele>48.0</ele><time>2026-03-26T12:41:16Z</time></trkpt><trkpt lat="39.01988321624884" lon="8.975072153851338"><ele>48.0</ele><time>2026-03-26T12:41:17Z</time></trkpt><trkpt lat="39.019951330564" lon="8.974973967919912"><ele>48.0</ele><time>2026-03-26T12:41:18Z</time></trkpt><trkpt lat="39.02002543512846" lon="8.974876046292852"><ele>49.0</ele><time>2026-03-26T12:41:19Z</time></trkpt><trkpt lat="39.020100973519675" lon="8.97476707574107"><ele>50.0</ele><time>2026-03-26T12:41:20Z</time></trkpt><trkpt lat="39.020169316608104" lon="8.974650955754406"><ele>51.0</ele><time>2026-03-26T12:41:21Z</time></trkpt><trkpt lat="39.020243091148735" lon="8.974526817637736"><ele>52.0</ele><time>2026-03-26T12:41:22Z</time></trkpt><trkpt lat="39.02031402662881" lon="8.97441227088701"><ele>52.0</ele><time>2026-03-26T12:41:23Z</time></trkpt><trkpt lat="39.020370107271276" lon="8.97430024479414"><ele>52.0</ele><time>2026-03-26T12:41:24Z</time></trkpt><trkpt lat="39.02040878599496" lon="8.974166470338394"><ele>52.0</ele><time>2026-03-26T12:41:25Z</time></trkpt><trkpt lat="39.020427027423544" lon="8.974013052721116"><ele>52.0</ele><time>2026-03-26T12:41:26Z</time></trkpt><trkpt lat="39.02045666250217" lon="8.973869378900469"><ele>52.0</ele><time>2026-03-26T12:41:27Z</time></trkpt><trkpt lat="39.02046344468005" lon="8.973748483379007"><ele>52.0</ele><time>2026-03-26T12:41:28Z</time></trkpt><trkpt lat="39.020476759647266" lon="8.973636478489773"><ele>52.0</ele><time>2026-03-26T12:41:29Z</time></trkpt><trkpt lat="39.02051221295026" lon="8.973474311481919"><ele>52.0</ele><time>2026-03-26T12:41:30Z</time></trkpt><trkpt lat="39.02054892200758" lon="8.973336097220447"><ele>52.0</ele><time>2026-03-26T12:41:31Z</time></trkpt><trkpt lat="39.02059192334576" lon="8.973204290104006"><ele>51.400000000000006</ele><time>2026-03-26T12:41:32Z</time></trkpt><trkpt lat="39.02064385217483" lon="8.973085351741583"><ele>50.800000000000004</ele><time>2026-03-26T12:41:33Z</time></trkpt><trkpt lat="39.02070523904845" lon="8.972974940441244"><ele>50.2</ele><time>2026-03-26T12:41:34Z</time></trkpt><trkpt lat="39.02076994570304" lon="8.972869298120564"><ele>49.6</ele><time>2026-03-26T12:41:35Z</time></trkpt><trkpt lat="39.02084278318883" lon="8.972768012427958"><ele>49.0</ele><time>2026-03-26T12:41:36Z</time></trkpt><trkpt lat="39.02091867807024" lon="8.97267428507287"><ele>50.25</ele><time>2026-03-26T12:41:37Z</time></trkpt><trkpt lat="39.02101189855322" lon="8.97259336681448"><ele>51.5</ele><time>2026-03-26T12:41:38Z</time></trkpt><trkpt lat="39.021107975236" lon="8.972510879583316"><ele>52.75</ele><time>2026-03-26T12:41:39Z</time></trkpt><trkpt lat="39.02121489612524" lon="8.972429882399014"><ele>54.0</ele><time>2026-03-26T12:41:40Z</time></trkpt><trkpt lat="39.02132219626446" lon="8.972337544318203"><ele>54.0</ele><time>2026-03-26T12:41:41Z</time></trkpt><trkpt lat="39.0214254835664" lon="8.972250380525027"><ele>54.0</ele><time>2026-03-26T12:41:42Z</time></trkpt><trkpt lat="39.02152514657174" lon="8.97216673098716"><ele>54.0</ele><time>2026-03-26T12:41:43Z</time></trkpt><trkpt lat="39.02162634897941" lon="8.972083023677122"><ele>54.0</ele><time>2026-03-26T12:41:44Z</time></trkpt><trkpt lat="39.02172436048914" lon="8.971995266969117"><ele>54.25</ele><time>2026-03-26T12:41:45Z</time></trkpt><trkpt lat="39.02182833340941" lon="8.971904982046055"><ele>54.5</ele><time>2026-03-26T12:41:46Z</time></trkpt><trkpt lat="39.02194019743897" lon="8.971808433351365"><ele>54.75</ele><time>2026-03-26T12:41:47Z</time></trkpt><trkpt lat="39.022052851202275" lon="8.971716385637368"><ele>55.0</ele><time>2026-03-26T12:41:48Z</time></trkpt><trkpt lat="39.022164840622764" lon="8.971617588419852"><ele>55.0</ele><time>2026-03-26T12:41:49Z</time></trkpt><trkpt lat="39.02227237130075" lon="8.97151563715212"><ele>55.0</ele><time>2026-03-26T12:41:50Z</time></trkpt><trkpt lat="39.022372084299604" lon="8.97141509030997"><ele>55.0</ele><time>2026-03-26T12:41:51Z</time></trkpt><trkpt lat="39.02245212125769" lon="8.971298475542094"><ele>55.0</ele><time>2026-03-26T12:41:52Z</time></trkpt><trkpt lat="39.02255837856986" lon="8.971222564978106"><ele>55.75</ele><time>2026-03-26T12:41:53Z</time></trkpt><trkpt lat="39.02265609325933" lon="8.97113843281373"><ele>56.5</ele><time>2026-03-26T12:41:54Z</time></trkpt><trkpt lat="39.02276207880854" lon="8.97107119203971"><ele>57.25</ele><time>2026-03-26T12:41:55Z</time></trkpt><trkpt lat="39.0228675463686" lon="8.971001030272737"><ele>58.0</ele><time>2026-03-26T12:41:56Z</time></trkpt><trkpt lat="39.02296768003731" lon="8.970926318823675"><ele>57.8</ele><time>2026-03-26T12:41:57Z</time></trkpt><trkpt lat="39.02305869376702" lon="8.970847368979731"><ele>57.599999999999994</ele><time>2026-03-26T12:41:58Z</time></trkpt><trkpt lat="39.02312690786439" lon="8.970763889887714"><ele>57.400000000000006</ele><time>2026-03-26T12:41:59Z</time></trkpt><trkpt lat="39.02319816401083" lon="8.970663193270234"><ele>57.2</ele><time>2026-03-26T12:42:00Z</time></trkpt><trkpt lat="39.02326079422602" lon="8.97053470406349"><ele>57.0</ele><time>2026-03-26T12:42:00.999Z</time></trkpt><trkpt lat="39.02331498050783" lon="8.970400495065023"><ele>57.6</ele><time>2026-03-26T12:42:01.999Z</time></trkpt><trkpt lat="39.023370139327746" lon="8.970282999239846"><ele>58.2</ele><time>2026-03-26T12:42:02.999Z</time></trkpt><trkpt lat="39.02343651029778" lon="8.970180052775078"><ele>58.8</ele><time>2026-03-26T12:42:03.999Z</time></trkpt><trkpt lat="39.023519579604816" lon="8.970085855829842"><ele>59.4</ele><time>2026-03-26T12:42:04.999Z</time></trkpt><trkpt lat="39.02361288566127" lon="8.97000086795479"><ele>60.0</ele><time>2026-03-26T12:42:05.999Z</time></trkpt><trkpt lat="39.02371505411553" lon="8.96991123068967"><ele>60.0</ele><time>2026-03-26T12:42:06.999Z</time></trkpt><trkpt lat="39.023816813929656" lon="8.969809623233918"><ele>60.0</ele><time>2026-03-26T12:42:07.999Z</time></trkpt><trkpt lat="39.023915149021576" lon="8.9697129680433"><ele>60.0</ele><time>2026-03-26T12:42:08.999Z</time></trkpt><trkpt lat="39.024024624179624" lon="8.969619168086854"><ele>60.0</ele><time>2026-03-26T12:42:09.999Z</time></trkpt><trkpt lat="39.0241328767069" lon="8.969525602018093"><ele>61.0</ele><time>2026-03-26T12:42:10.999Z</time></trkpt><trkpt lat="39.0242325880258" lon="8.969429895287835"><ele>62.0</ele><time>2026-03-26T12:42:11.999Z</time></trkpt><trkpt lat="39.024330300365776" lon="8.969336951355729"><ele>63.0</ele><time>2026-03-26T12:42:12.999Z</time></trkpt><trkpt lat="39.02443364142592" lon="8.96924866161054"><ele>64.0</ele><time>2026-03-26T12:42:13.999Z</time></trkpt><trkpt lat="39.0245369283195" lon="8.969168579542542"><ele>64.0</ele><time>2026-03-26T12:42:14.999Z</time></trkpt><trkpt lat="39.02463498915691" lon="8.969095776648466"><ele>64.0</ele><time>2026-03-26T12:42:15.999Z</time></trkpt><trkpt lat="39.02472587606569" lon="8.969029325118155"><ele>64.0</ele><time>2026-03-26T12:42:16.999Z</time></trkpt><trkpt lat="39.02481804955466" lon="8.968960366735441"><ele>64.0</ele><time>2026-03-26T12:42:17.999Z</time></trkpt><trkpt lat="39.02491250033714" lon="8.968901854391433"><ele>64.0</ele><time>2026-03-26T12:42:18.999Z</time></trkpt><trkpt lat="39.025006310904004" lon="8.968857881520206"><ele>65.0</ele><time>2026-03-26T12:42:19.999Z</time></trkpt><trkpt lat="39.02510200921216" lon="8.968818994520355"><ele>66.0</ele><time>2026-03-26T12:42:20.999Z</time></trkpt><trkpt lat="39.02520178425922" lon="8.968767515709148"><ele>67.0</ele><time>2026-03-26T12:42:21.999Z</time></trkpt><trkpt lat="39.02529682608125" lon="8.968703113210722"><ele>68.0</ele><time>2026-03-26T12:42:22.999Z</time></trkpt><trkpt lat="39.02539052151618" lon="8.968624504829181"><ele>69.0</ele><time>2026-03-26T12:42:23.999Z</time></trkpt><trkpt lat="39.02548068756715" lon="8.968532066668004"><ele>69.0</ele><time>2026-03-26T12:42:24.999Z</time></trkpt><trkpt lat="39.02557052794333" lon="8.968439323742832"><ele>69.0</ele><time>2026-03-26T12:42:25.999Z</time></trkpt><trkpt lat="39.02565891348826" lon="8.968344796066962"><ele>69.0</ele><time>2026-03-26T12:42:26.999Z</time></trkpt><trkpt lat="39.02574412721215" lon="8.968245587729848"><ele>69.0</ele><time>2026-03-26T12:42:27.999Z</time></trkpt><trkpt lat="39.02582740765448" lon="8.968138767015853"><ele>69.0</ele><time>2026-03-26T12:42:28.999Z</time></trkpt><trkpt lat="39.02590680624821" lon="8.968028352127217"><ele>69.0</ele><time>2026-03-26T12:42:29.999Z</time></trkpt><trkpt lat="39.02598293322755" lon="8.96792007929458"><ele>69.0</ele><time>2026-03-26T12:42:30.999Z</time></trkpt><trkpt lat="39.026055035749785" lon="8.967811253139148"><ele>69.0</ele><time>2026-03-26T12:42:31.999Z</time></trkpt><trkpt lat="39.02613531762045" lon="8.96771065416518"><ele>69.0</ele><time>2026-03-26T12:42:32.999Z</time></trkpt><trkpt lat="39.026212442301336" lon="8.967607879914269"><ele>69.0</ele><time>2026-03-26T12:42:33.999Z</time></trkpt><trkpt lat="39.026298650805415" lon="8.967506667144946"><ele>69.0</ele><time>2026-03-26T12:42:34.999Z</time></trkpt><trkpt lat="39.026392823363096" lon="8.96740882939832"><ele>69.0</ele><time>2026-03-26T12:42:35.999Z</time></trkpt><trkpt lat="39.026487195796435" lon="8.967316010268238"><ele>69.25</ele><time>2026-03-26T12:42:36.999Z</time></trkpt><trkpt lat="39.0265799008458" lon="8.967219679797681"><ele>69.5</ele><time>2026-03-26T12:42:37.999Z</time></trkpt><trkpt lat="39.02666617965772" lon="8.967101975533913"><ele>69.75</ele><time>2026-03-26T12:42:38.999Z</time></trkpt><trkpt lat="39.02674846876512" lon="8.966970388394254"><ele>70.0</ele><time>2026-03-26T12:42:39.999Z</time></trkpt><trkpt lat="39.02682268862435" lon="8.966847424141399"><ele>70.5</ele><time>2026-03-26T12:42:40.999Z</time></trkpt><trkpt lat="39.02689173592241" lon="8.966732597779519"><ele>71.0</ele><time>2026-03-26T12:42:41.999Z</time></trkpt><trkpt lat="39.02696442073245" lon="8.966624491166664"><ele>71.5</ele><time>2026-03-26T12:42:42.999Z</time></trkpt><trkpt lat="39.027047499158456" lon="8.966526920038294"><ele>72.0</ele><time>2026-03-26T12:42:43.999Z</time></trkpt><trkpt lat="39.02713781250816" lon="8.966436152198362"><ele>72.0</ele><time>2026-03-26T12:42:44.999Z</time></trkpt><trkpt lat="39.02722005244588" lon="8.966361921948325"><ele>72.0</ele><time>2026-03-26T12:42:45.999Z</time></trkpt><trkpt lat="39.02728708470184" lon="8.966305555763821"><ele>72.0</ele><time>2026-03-26T12:42:46.999Z</time></trkpt><trkpt lat="39.027351555649595" lon="8.966258523109637"><ele>72.0</ele><time>2026-03-26T12:42:47.999Z</time></trkpt><trkpt lat="39.0274306109462" lon="8.966203551195525"><ele>72.0</ele><time>2026-03-26T12:42:48.999Z</time></trkpt><trkpt lat="39.02751182761294" lon="8.966141974901829"><ele>72.0</ele><time>2026-03-26T12:42:49.999Z</time></trkpt><trkpt lat="39.02759318206869" lon="8.966075720440701"><ele>72.6</ele><time>2026-03-26T12:42:50.999Z</time></trkpt><trkpt lat="39.027672182275616" lon="8.96600577844896"><ele>73.2</ele><time>2026-03-26T12:42:51.999Z</time></trkpt><trkpt lat="39.02774589156473" lon="8.965937064841034"><ele>73.8</ele><time>2026-03-26T12:42:53Z</time></trkpt><trkpt lat="39.027819113258744" lon="8.965875920348212"><ele>74.4</ele><time>2026-03-26T12:42:54Z</time></trkpt><trkpt lat="39.02790236170709" lon="8.965815237466167"><ele>75.0</ele><time>2026-03-26T12:42:55Z</time></trkpt><trkpt lat="39.02798319703176" lon="8.96575987471883"><ele>75.2</ele><time>2026-03-26T12:42:56Z</time></trkpt><trkpt lat="39.02803777830945" lon="8.965711722420581"><ele>75.4</ele><time>2026-03-26T12:42:57Z</time></trkpt><trkpt lat="39.02811926164966" lon="8.965617040349274"><ele>75.6</ele><time>2026-03-26T12:42:59Z</time></trkpt><trkpt lat="39.02819348542218" lon="8.965536158169625"><ele>75.8</ele><time>2026-03-26T12:43:01Z</time></trkpt><trkpt lat="39.02826929092055" lon="8.965382892240491"><ele>76.0</ele><time>2026-03-26T12:43:03Z</time></trkpt><trkpt lat="39.02831340531952" lon="8.965255425088898"><ele>76.75</ele><time>2026-03-26T12:43:04Z</time></trkpt><trkpt lat="39.028370940042265" lon="8.965108922885891"><ele>77.5</ele><time>2026-03-26T12:43:05Z</time></trkpt><trkpt lat="39.02843772061604" lon="8.96496146473109"><ele>78.25</ele><time>2026-03-26T12:43:06Z</time></trkpt><trkpt lat="39.028518266179056" lon="8.964834518045473"><ele>79.0</ele><time>2026-03-26T12:43:07Z</time></trkpt><trkpt lat="39.028603187402936" lon="8.96474135833227"><ele>79.0</ele><time>2026-03-26T12:43:08Z</time></trkpt><trkpt lat="39.02869082299342" lon="8.964666150727892"><ele>79.0</ele><time>2026-03-26T12:43:09Z</time></trkpt><trkpt lat="39.02876457545387" lon="8.96457886985255"><ele>79.0</ele><time>2026-03-26T12:43:10Z</time></trkpt><trkpt lat="39.02881748637094" lon="8.96447332876576"><ele>79.0</ele><time>2026-03-26T12:43:11Z</time></trkpt><trkpt lat="39.028854589078044" lon="8.964354814459032"><ele>79.0</ele><time>2026-03-26T12:43:12Z</time></trkpt><trkpt lat="39.02888093642429" lon="8.96423280720531"><ele>78.8</ele><time>2026-03-26T12:43:13Z</time></trkpt><trkpt lat="39.02891127344639" lon="8.964102652756846"><ele>78.60000000000001</ele><time>2026-03-26T12:43:14Z</time></trkpt><trkpt lat="39.02893426818094" lon="8.963958505609897"><ele>78.4</ele><time>2026-03-26T12:43:15Z</time></trkpt><trkpt lat="39.028954084555636" lon="8.963815037647102"><ele>78.2</ele><time>2026-03-26T12:43:16Z</time></trkpt><trkpt lat="39.028979279872786" lon="8.963674548185583"><ele>78.0</ele><time>2026-03-26T12:43:17Z</time></trkpt><trkpt lat="39.02900304785089" lon="8.963535911473897"><ele>78.0</ele><time>2026-03-26T12:43:18Z</time></trkpt><trkpt lat="39.02902584675162" lon="8.963398938597514"><ele>78.0</ele><time>2026-03-26T12:43:19Z</time></trkpt><trkpt lat="39.02905055772183" lon="8.963265311280628"><ele>78.0</ele><time>2026-03-26T12:43:20Z</time></trkpt><trkpt lat="39.02907395174259" lon="8.96313333377897"><ele>78.0</ele><time>2026-03-26T12:43:21Z</time></trkpt><trkpt lat="39.029096803644464" lon="8.963008135486414"><ele>78.0</ele><time>2026-03-26T12:43:22Z</time></trkpt><trkpt lat="39.02911974150262" lon="8.96288708887699"><ele>79.2</ele><time>2026-03-26T12:43:23Z</time></trkpt><trkpt lat="39.029143948530425" lon="8.962767060162747"><ele>80.4</ele><time>2026-03-26T12:43:24Z</time></trkpt><trkpt lat="39.02917139471481" lon="8.962639144521873"><ele>81.60000000000001</ele><time>2026-03-26T12:43:25Z</time></trkpt><trkpt lat="39.029207793611825" lon="8.962501055781477"><ele>82.8</ele><time>2026-03-26T12:43:26Z</time></trkpt><trkpt lat="39.02925307742136" lon="8.962365143676022"><ele>84.0</ele><time>2026-03-26T12:43:27Z</time></trkpt><trkpt lat="39.029282394275796" lon="8.96221475391365"><ele>84.2</ele><time>2026-03-26T12:43:28Z</time></trkpt><trkpt lat="39.029326414487706" lon="8.962060788830073"><ele>84.4</ele><time>2026-03-26T12:43:29Z</time></trkpt><trkpt lat="39.029372151268646" lon="8.961931543831643"><ele>84.6</ele><time>2026-03-26T12:43:30Z</time></trkpt><trkpt lat="39.029409003182415" lon="8.961814067134583"><ele>84.8</ele><time>2026-03-26T12:43:31Z</time></trkpt><trkpt lat="39.02944853516427" lon="8.961684820571225"><ele>85.0</ele><time>2026-03-26T12:43:32Z</time></trkpt><trkpt lat="39.02949932837775" lon="8.961557150183694"><ele>85.0</ele><time>2026-03-26T12:43:33Z</time></trkpt><trkpt lat="39.02955745003869" lon="8.961435724894367"><ele>85.0</ele><time>2026-03-26T12:43:34Z</time></trkpt><trkpt lat="39.02962013112717" lon="8.961309070253838"><ele>85.0</ele><time>2026-03-26T12:43:35Z</time></trkpt><trkpt lat="39.02966752717878" lon="8.961186340884025"><ele>85.0</ele><time>2026-03-26T12:43:36Z</time></trkpt><trkpt lat="39.02970340997846" lon="8.96106031388031"><ele>85.0</ele><time>2026-03-26T12:43:37Z</time></trkpt><trkpt lat="39.02977303347837" lon="8.96095318724117"><ele>84.4</ele><time>2026-03-26T12:43:38Z</time></trkpt><trkpt lat="39.02983105384964" lon="8.960835910806615"><ele>83.8</ele><time>2026-03-26T12:43:39Z</time></trkpt><trkpt lat="39.02989379273637" lon="8.960722058573706"><ele>83.19999999999999</ele><time>2026-03-26T12:43:40Z</time></trkpt><trkpt lat="39.02996083467105" lon="8.9606119774532"><ele>82.6</ele><time>2026-03-26T12:43:41Z</time></trkpt><trkpt lat="39.03002066103347" lon="8.960499489528482"><ele>82.0</ele><time>2026-03-26T12:43:42Z</time></trkpt><trkpt lat="39.030077595535296" lon="8.960385749844718"><ele>83.39999999999999</ele><time>2026-03-26T12:43:43Z</time></trkpt><trkpt lat="39.030140813550396" lon="8.96027118865431"><ele>84.8</ele><time>2026-03-26T12:43:44Z</time></trkpt><trkpt lat="39.03018536869534" lon="8.960144193255815"><ele>86.2</ele><time>2026-03-26T12:43:45Z</time></trkpt><trkpt lat="39.03022821215993" lon="8.960030942593264"><ele>87.6</ele><time>2026-03-26T12:43:46Z</time></trkpt><trkpt lat="39.03024663132121" lon="8.959915338548601"><ele>89.0</ele><time>2026-03-26T12:43:47Z</time></trkpt><trkpt lat="39.030318851999596" lon="8.959813100438785"><ele>89.0</ele><time>2026-03-26T12:43:48Z</time></trkpt><trkpt lat="39.03036660277758" lon="8.959692987827639"><ele>89.0</ele><time>2026-03-26T12:43:49Z</time></trkpt><trkpt lat="39.03041493609162" lon="8.959585672986952"><ele>89.0</ele><time>2026-03-26T12:43:50Z</time></trkpt><trkpt lat="39.030478660833325" lon="8.959495465913381"><ele>89.0</ele><time>2026-03-26T12:43:51Z</time></trkpt><trkpt lat="39.03053468875321" lon="8.959391405814218"><ele>89.0</ele><time>2026-03-26T12:43:52Z</time></trkpt><trkpt lat="39.03059314951943" lon="8.959303269954182"><ele>89.0</ele><time>2026-03-26T12:43:53Z</time></trkpt><trkpt lat="39.03065658096635" lon="8.959233270146328"><ele>89.0</ele><time>2026-03-26T12:43:54Z</time></trkpt><trkpt lat="39.03072089846051" lon="8.959195934661967"><ele>89.0</ele><time>2026-03-26T12:43:55Z</time></trkpt><trkpt lat="39.030791411458594" lon="8.95917942679532"><ele>89.0</ele><time>2026-03-26T12:43:56Z</time></trkpt><trkpt lat="39.03086128270542" lon="8.959156736736066"><ele>89.0</ele><time>2026-03-26T12:43:57Z</time></trkpt><trkpt lat="39.030924985848465" lon="8.959090202244527"><ele>89.0</ele><time>2026-03-26T12:43:58Z</time></trkpt><trkpt lat="39.03100063743515" lon="8.959023121062033"><ele>89.28571428571428</ele><time>2026-03-26T12:43:59Z</time></trkpt><trkpt lat="39.03106666857706" lon="8.958955090204272"><ele>89.57142857142857</ele><time>2026-03-26T12:44:00Z</time></trkpt><trkpt lat="39.03112483361425" lon="8.95889165943706"><ele>89.85714285714286</ele><time>2026-03-26T12:44:01Z</time></trkpt><trkpt lat="39.03118089897802" lon="8.958828838880034"><ele>90.14285714285714</ele><time>2026-03-26T12:44:02Z</time></trkpt><trkpt lat="39.03123254573358" lon="8.958768369733958"><ele>90.42857142857143</ele><time>2026-03-26T12:44:03Z</time></trkpt><trkpt lat="39.03129073791592" lon="8.958717822263376"><ele>90.71428571428571</ele><time>2026-03-26T12:44:04Z</time></trkpt><trkpt lat="39.03132384228763" lon="8.958645990151998"><ele>91.0</ele><time>2026-03-26T12:44:05Z</time></trkpt><trkpt lat="39.03136456739288" lon="8.958581727500752"><ele>91.0</ele><time>2026-03-26T12:44:06Z</time></trkpt><trkpt lat="39.03141305668185" lon="8.95852275613818"><ele>91.0</ele><time>2026-03-26T12:44:07Z</time></trkpt><trkpt lat="39.03146753158397" lon="8.958474216460768"><ele>91.0</ele><time>2026-03-26T12:44:08Z</time></trkpt><trkpt lat="39.03154740356369" lon="8.95838521195994"><ele>91.0</ele><time>2026-03-26T12:44:10Z</time></trkpt><trkpt lat="39.031587103506084" lon="8.958253409908208"><ele>91.0</ele><time>2026-03-26T12:44:12Z</time></trkpt><trkpt lat="39.03159444814536" lon="8.958166788465132"><ele>91.0</ele><time>2026-03-26T12:44:13Z</time></trkpt><trkpt lat="39.03160238507834" lon="8.958077015928508"><ele>91.0</ele><time>2026-03-26T12:44:13.999Z</time></trkpt><trkpt lat="39.03161592413729" lon="8.957990290523757"><ele>91.0</ele><time>2026-03-26T12:44:14.999Z</time></trkpt><trkpt lat="39.031640337804966" lon="8.957908854999578"><ele>91.0</ele><time>2026-03-26T12:44:15.999Z</time></trkpt><trkpt lat="39.031668042277175" lon="8.957831107354679"><ele>91.0</ele><time>2026-03-26T12:44:16.999Z</time></trkpt><trkpt lat="39.03169969613944" lon="8.957743955160222"><ele>91.0</ele><time>2026-03-26T12:44:17.999Z</time></trkpt><trkpt lat="39.03172626682619" lon="8.957643953210926"><ele>91.0</ele><time>2026-03-26T12:44:18.999Z</time></trkpt><trkpt lat="39.03174951580481" lon="8.957539202495134"><ele>91.0</ele><time>2026-03-26T12:44:19.999Z</time></trkpt><trkpt lat="39.03177076243997" lon="8.957435154730284"><ele>91.16666666666666</ele><time>2026-03-26T12:44:20.999Z</time></trkpt><trkpt lat="39.03180045196047" lon="8.957348319391784"><ele>91.33333333333333</ele><time>2026-03-26T12:44:21.999Z</time></trkpt><trkpt lat="39.03183482059956" lon="8.957210964173493"><ele>91.5</ele><time>2026-03-26T12:44:23.999Z</time></trkpt><trkpt lat="39.031883933113896" lon="8.957067786409246"><ele>91.66666666666667</ele><time>2026-03-26T12:44:25.999Z</time></trkpt><trkpt lat="39.03190013485919" lon="8.956985928566443"><ele>91.83333333333334</ele><time>2026-03-26T12:44:26.999Z</time></trkpt><trkpt lat="39.03191653052874" lon="8.95689803839711"><ele>92.0</ele><time>2026-03-26T12:44:27.999Z</time></trkpt><trkpt lat="39.0319388016143" lon="8.956811797126703"><ele>92.0</ele><time>2026-03-26T12:44:28.999Z</time></trkpt><trkpt lat="39.03196371948067" lon="8.956714895048933"><ele>92.0</ele><time>2026-03-26T12:44:29.999Z</time></trkpt><trkpt lat="39.031986242749674" lon="8.956617225440144"><ele>92.0</ele><time>2026-03-26T12:44:30.999Z</time></trkpt><trkpt lat="39.03200747126335" lon="8.956517294523746"><ele>92.0</ele><time>2026-03-26T12:44:31.999Z</time></trkpt><trkpt lat="39.03201907648465" lon="8.9564125227344"><ele>92.0</ele><time>2026-03-26T12:44:32.999Z</time></trkpt><trkpt lat="39.03202952718516" lon="8.95630911312872"><ele>92.0</ele><time>2026-03-26T12:44:33.999Z</time></trkpt><trkpt lat="39.03204546690553" lon="8.956214437077906"><ele>92.14285714285715</ele><time>2026-03-26T12:44:34.999Z</time></trkpt><trkpt lat="39.03206563201276" lon="8.956114900033304"><ele>92.28571428571428</ele><time>2026-03-26T12:44:35.999Z</time></trkpt><trkpt lat="39.032078074546575" lon="8.956033907683807"><ele>92.42857142857143</ele><time>2026-03-26T12:44:36.999Z</time></trkpt><trkpt lat="39.03208947316188" lon="8.955953408536447"><ele>92.57142857142858</ele><time>2026-03-26T12:44:37.999Z</time></trkpt><trkpt lat="39.032104945923614" lon="8.955866209065112"><ele>92.71428571428572</ele><time>2026-03-26T12:44:38.999Z</time></trkpt><trkpt lat="39.03211956577398" lon="8.9557747862608"><ele>92.85714285714286</ele><time>2026-03-26T12:44:39.999Z</time></trkpt><trkpt lat="39.03213164269585" lon="8.955674666872401"><ele>93.0</ele><time>2026-03-26T12:44:40.999Z</time></trkpt><trkpt lat="39.03214466966557" lon="8.955566651735715"><ele>93.5</ele><time>2026-03-26T12:44:41.999Z</time></trkpt><trkpt lat="39.03215422466043" lon="8.95546104622329"><ele>94.0</ele><time>2026-03-26T12:44:42.999Z</time></trkpt><trkpt lat="39.03215982053315" lon="8.955364078173362"><ele>94.5</ele><time>2026-03-26T12:44:43.999Z</time></trkpt><trkpt lat="39.03214062562425" lon="8.955266677271624"><ele>95.0</ele><time>2026-03-26T12:44:44.999Z</time></trkpt><trkpt lat="39.03215585955527" lon="8.955184725360068"><ele>95.5</ele><time>2026-03-26T12:44:45.999Z</time></trkpt><trkpt lat="39.03216186728366" lon="8.955032868387537"><ele>96.0</ele><time>2026-03-26T12:44:47.999Z</time></trkpt><trkpt lat="39.03219631871503" lon="8.954959058390088"><ele>96.5</ele><time>2026-03-26T12:44:48.999Z</time></trkpt><trkpt lat="39.03224461931718" lon="8.954878052104343"><ele>97.0</ele><time>2026-03-26T12:44:49.999Z</time></trkpt><trkpt lat="39.032289578309715" lon="8.95477923970744"><ele>97.5</ele><time>2026-03-26T12:44:50.999Z</time></trkpt><trkpt lat="39.03233970058632" lon="8.954682290915747"><ele>98.0</ele><time>2026-03-26T12:44:51.999Z</time></trkpt><trkpt lat="39.03239784364062" lon="8.954600969575354"><ele>98.5</ele><time>2026-03-26T12:44:52.999Z</time></trkpt><trkpt lat="39.03245474252934" lon="8.954532437942339"><ele>99.0</ele><time>2026-03-26T12:44:53.999Z</time></trkpt><trkpt lat="39.032509433967675" lon="8.954490948797307"><ele>99.66666666666667</ele><time>2026-03-26T12:44:54.999Z</time></trkpt><trkpt lat="39.0325820898919" lon="8.954455470883163"><ele>100.33333333333334</ele><time>2026-03-26T12:44:55.999Z</time></trkpt><trkpt lat="39.0326682406809" lon="8.954420396046995"><ele>101.0</ele><time>2026-03-26T12:44:56.999Z</time></trkpt><trkpt lat="39.03275503405701" lon="8.954383537797124"><ele>101.66666666666667</ele><time>2026-03-26T12:44:57.999Z</time></trkpt><trkpt lat="39.03282955586515" lon="8.954350602166357"><ele>102.33333333333334</ele><time>2026-03-26T12:44:59Z</time></trkpt><trkpt lat="39.03289246885571" lon="8.954324645708803"><ele>103.0</ele><time>2026-03-26T12:45:00Z</time></trkpt><trkpt lat="39.0330016447575" lon="8.954268757304503"><ele>102.99999999999999</ele><time>2026-03-26T12:45:02Z</time></trkpt><trkpt lat="39.03306490345416" lon="8.95422094353395"><ele>103.0</ele><time>2026-03-26T12:45:03Z</time></trkpt><trkpt lat="39.03312898018623" lon="8.954168253187357"><ele>103.0</ele><time>2026-03-26T12:45:04Z</time></trkpt><trkpt lat="39.03319842053744" lon="8.954107665479878"><ele>103.0</ele><time>2026-03-26T12:45:05Z</time></trkpt><trkpt lat="39.033263248224046" lon="8.954045160261316"><ele>103.0</ele><time>2026-03-26T12:45:06Z</time></trkpt><trkpt lat="39.0333188931183" lon="8.953998476937882"><ele>102.99999999999999</ele><time>2026-03-26T12:45:07Z</time></trkpt><trkpt lat="39.03337193423333" lon="8.953950890268228"><ele>103.0</ele><time>2026-03-26T12:45:08Z</time></trkpt><trkpt lat="39.033434786618244" lon="8.95393160333467"><ele>103.83333333333334</ele><time>2026-03-26T12:45:09Z</time></trkpt><trkpt lat="39.03351392767776" lon="8.9539226753124"><ele>104.66666666666667</ele><time>2026-03-26T12:45:10Z</time></trkpt><trkpt lat="39.03358519081621" lon="8.953906515341226"><ele>105.5</ele><time>2026-03-26T12:45:11Z</time></trkpt><trkpt lat="39.03368866646683" lon="8.953868788062998"><ele>106.33333333333334</ele><time>2026-03-26T12:45:13Z</time></trkpt><trkpt lat="39.033779104782056" lon="8.95378601999226"><ele>107.16666666666667</ele><time>2026-03-26T12:45:15Z</time></trkpt><trkpt lat="39.033817410768016" lon="8.953714636621612"><ele>108.0</ele><time>2026-03-26T12:45:16Z</time></trkpt><trkpt lat="39.033866640785185" lon="8.953636873731977"><ele>108.0</ele><time>2026-03-26T12:45:17Z</time></trkpt><trkpt lat="39.03392765385402" lon="8.953557135295954"><ele>108.0</ele><time>2026-03-26T12:45:18Z</time></trkpt><trkpt lat="39.03398654385984" lon="8.953493033086467"><ele>108.0</ele><time>2026-03-26T12:45:19Z</time></trkpt><trkpt lat="39.03405565263487" lon="8.953427219405636"><ele>108.0</ele><time>2026-03-26T12:45:20Z</time></trkpt><trkpt lat="39.034126001824866" lon="8.953353030531003"><ele>108.0</ele><time>2026-03-26T12:45:21Z</time></trkpt><trkpt lat="39.034182428301435" lon="8.95327896905431"><ele>108.0</ele><time>2026-03-26T12:45:22Z</time></trkpt><trkpt lat="39.03422836259137" lon="8.953216054274511"><ele>109.16666666666667</ele><time>2026-03-26T12:45:23Z</time></trkpt><trkpt lat="39.03432074607247" lon="8.953122887099529"><ele>110.33333333333334</ele><time>2026-03-26T12:45:25Z</time></trkpt><trkpt lat="39.034424677810726" lon="8.953058335278202"><ele>111.5</ele><time>2026-03-26T12:45:27Z</time></trkpt><trkpt lat="39.03448734165505" lon="8.953035092072453"><ele>112.66666666666667</ele><time>2026-03-26T12:45:28Z</time></trkpt><trkpt lat="39.034552845595044" lon="8.953013729499906"><ele>113.83333333333334</ele><time>2026-03-26T12:45:29Z</time></trkpt><trkpt lat="39.03462737602926" lon="8.95298192342477"><ele>115.0</ele><time>2026-03-26T12:45:30Z</time></trkpt><trkpt lat="39.0346984696599" lon="8.952943957015021"><ele>115.00000000000001</ele><time>2026-03-26T12:45:31Z</time></trkpt><trkpt lat="39.03476022348948" lon="8.952915449985458"><ele>115.0</ele><time>2026-03-26T12:45:32Z</time></trkpt><trkpt lat="39.0348724754721" lon="8.952894279100335"><ele>115.0</ele><time>2026-03-26T12:45:34Z</time></trkpt><trkpt lat="39.03498637226408" lon="8.952931201414618"><ele>115.0</ele><time>2026-03-26T12:45:36Z</time></trkpt><trkpt lat="39.03503520775681" lon="8.952983077094578"><ele>115.00000000000001</ele><time>2026-03-26T12:45:37Z</time></trkpt><trkpt lat="39.03508392177203" lon="8.953051278884985"><ele>115.0</ele><time>2026-03-26T12:45:38Z</time></trkpt><trkpt lat="39.03512920629192" lon="8.953130604608594"><ele>116.83333333333334</ele><time>2026-03-26T12:45:39Z</time></trkpt><trkpt lat="39.035173449520975" lon="8.953215928610238"><ele>118.66666666666667</ele><time>2026-03-26T12:45:40Z</time></trkpt><trkpt lat="39.03522323922726" lon="8.953292450878344"><ele>120.5</ele><time>2026-03-26T12:45:41Z</time></trkpt><trkpt lat="39.035264979121756" lon="8.953370666124707"><ele>122.33333333333334</ele><time>2026-03-26T12:45:42Z</time></trkpt><trkpt lat="39.03531165901872" lon="8.953440372610226"><ele>124.16666666666667</ele><time>2026-03-26T12:45:43Z</time></trkpt><trkpt lat="39.035386853593714" lon="8.953531954477995"><ele>126.0</ele><time>2026-03-26T12:45:45Z</time></trkpt><trkpt lat="39.03547677000098" lon="8.953588136902194"><ele>126.33333333333333</ele><time>2026-03-26T12:45:47Z</time></trkpt><trkpt lat="39.03556712791139" lon="8.953681003704638"><ele>126.66666666666666</ele><time>2026-03-26T12:45:49Z</time></trkpt><trkpt lat="39.03563062315888" lon="8.953727723831152"><ele>127.0</ele><time>2026-03-26T12:45:50Z</time></trkpt><trkpt lat="39.035702628161395" lon="8.953754526341342"><ele>127.33333333333333</ele><time>2026-03-26T12:45:51Z</time></trkpt><trkpt lat="39.03578098499221" lon="8.953773527816791"><ele>127.66666666666666</ele><time>2026-03-26T12:45:52Z</time></trkpt><trkpt lat="39.035860644167016" lon="8.953789921976774"><ele>128.0</ele><time>2026-03-26T12:45:53Z</time></trkpt><trkpt lat="39.03593796784161" lon="8.953795012127637"><ele>128.71428571428572</ele><time>2026-03-26T12:45:54Z</time></trkpt><trkpt lat="39.0360105793348" lon="8.953782529738856"><ele>129.42857142857142</ele><time>2026-03-26T12:45:55Z</time></trkpt><trkpt lat="39.036076688255974" lon="8.95376596948806"><ele>130.14285714285714</ele><time>2026-03-26T12:45:56Z</time></trkpt><trkpt lat="39.03614354417242" lon="8.95376303358482"><ele>130.85714285714286</ele><time>2026-03-26T12:45:57Z</time></trkpt><trkpt lat="39.03621074807528" lon="8.953741787250289"><ele>131.57142857142856</ele><time>2026-03-26T12:45:58Z</time></trkpt><trkpt lat="39.03628074967109" lon="8.953717081467083"><ele>132.28571428571428</ele><time>2026-03-26T12:45:59Z</time></trkpt><trkpt lat="39.03635731442297" lon="8.953693383350807"><ele>133.0</ele><time>2026-03-26T12:46:00Z</time></trkpt><trkpt lat="39.036429465598836" lon="8.953674964152349"><ele>133.0</ele><time>2026-03-26T12:46:01Z</time></trkpt><trkpt lat="39.0365048170456" lon="8.953670903426554"><ele>133.0</ele><time>2026-03-26T12:46:02Z</time></trkpt><trkpt lat="39.036582934131346" lon="8.953671950944653"><ele>133.0</ele><time>2026-03-26T12:46:03Z</time></trkpt><trkpt lat="39.03666266309542" lon="8.953656017877922"><ele>133.0</ele><time>2026-03-26T12:46:04Z</time></trkpt><trkpt lat="39.03673912873358" lon="8.953635481703225"><ele>133.0</ele><time>2026-03-26T12:46:05Z</time></trkpt><trkpt lat="39.03681482799507" lon="8.953591636155842"><ele>133.0</ele><time>2026-03-26T12:46:06Z</time></trkpt><trkpt lat="39.03689080995462" lon="8.953552885989591"><ele>134.83333333333334</ele><time>2026-03-26T12:46:07Z</time></trkpt><trkpt lat="39.03696902909744" lon="8.953527049221833"><ele>136.66666666666669</ele><time>2026-03-26T12:46:08Z</time></trkpt><trkpt lat="39.03705623802718" lon="8.95350154196106"><ele>138.5</ele><time>2026-03-26T12:46:09Z</time></trkpt><trkpt lat="39.03712550794284" lon="8.953485894968338"><ele>140.33333333333334</ele><time>2026-03-26T12:46:10Z</time></trkpt><trkpt lat="39.03722526570159" lon="8.953480813307094"><ele>142.16666666666666</ele><time>2026-03-26T12:46:12Z</time></trkpt><trkpt lat="39.03731467870755" lon="8.953439151150855"><ele>144.0</ele><time>2026-03-26T12:46:14Z</time></trkpt><trkpt lat="39.03743545993798" lon="8.953281091406426"><ele>146.83333333333334</ele><time>2026-03-26T12:46:17Z</time></trkpt><trkpt lat="39.0375323168566" lon="8.953307192001786"><ele>149.66666666666666</ele><time>2026-03-26T12:46:21Z</time></trkpt><trkpt lat="39.03754033840551" lon="8.95340451173687"><ele>152.5</ele><time>2026-03-26T12:46:24Z</time></trkpt><trkpt lat="39.03756800262681" lon="8.95347764900126"><ele>155.33333333333331</ele><time>2026-03-26T12:46:24.999Z</time></trkpt><trkpt lat="39.03754960155686" lon="8.953587312367636"><ele>158.16666666666666</ele><time>2026-03-26T12:46:26.999Z</time></trkpt><trkpt lat="39.037551930897855" lon="8.953695083783467"><ele>161.0</ele><time>2026-03-26T12:46:29.999Z</time></trkpt><trkpt lat="39.037626231888474" lon="8.953743229663253"><ele>161.0</ele><time>2026-03-26T12:46:31.999Z</time></trkpt><trkpt lat="39.03774757076583" lon="8.953787621295197"><ele>161.0</ele><time>2026-03-26T12:46:33.999Z</time></trkpt><trkpt lat="39.03787897720142" lon="8.953793464200901"><ele>161.0</ele><time>2026-03-26T12:46:35.999Z</time></trkpt><trkpt lat="39.037993488346046" lon="8.953809958435672"><ele>161.0</ele><time>2026-03-26T12:46:37.999Z</time></trkpt><trkpt lat="39.038066526178184" lon="8.953805557435482"><ele>161.0</ele><time>2026-03-26T12:46:38.999Z</time></trkpt><trkpt lat="39.0381314075314" lon="8.953805028883242"><ele>161.0</ele><time>2026-03-26T12:46:39.999Z</time></trkpt><trkpt lat="39.03823436869435" lon="8.953838522690788"><ele>161.0</ele><time>2026-03-26T12:46:41.999Z</time></trkpt><trkpt lat="39.038308772411305" lon="8.95398015927684"><ele>161.0</ele><time>2026-03-26T12:46:43.999Z</time></trkpt><trkpt lat="39.038369177417344" lon="8.954036531301357"><ele>161.0</ele><time>2026-03-26T12:46:44.999Z</time></trkpt><trkpt lat="39.03847383839297" lon="8.954093894002702"><ele>161.0</ele><time>2026-03-26T12:46:46.999Z</time></trkpt><trkpt lat="39.03858143421624" lon="8.954088734590368"><ele>162.83333333333331</ele><time>2026-03-26T12:46:48.999Z</time></trkpt><trkpt lat="39.03862907837046" lon="8.954191475993534"><ele>164.66666666666666</ele><time>2026-03-26T12:46:50.999Z</time></trkpt><trkpt lat="39.03863641707656" lon="8.954278712800798"><ele>166.5</ele><time>2026-03-26T12:46:51.999Z</time></trkpt><trkpt lat="39.03865288448927" lon="8.954357940674486"><ele>168.33333333333334</ele><time>2026-03-26T12:46:52.999Z</time></trkpt><trkpt lat="39.038689390212404" lon="8.954435746822687"><ele>170.16666666666669</ele><time>2026-03-26T12:46:53.999Z</time></trkpt><trkpt lat="39.03873579269063" lon="8.954508273933868"><ele>172.0</ele><time>2026-03-26T12:46:54.999Z</time></trkpt><trkpt lat="39.03881155107104" lon="8.954618965938764"><ele>172.00000000000003</ele><time>2026-03-26T12:46:56.999Z</time></trkpt><trkpt lat="39.038870222666084" lon="8.95467644743279"><ele>172.0</ele><time>2026-03-26T12:46:58.999Z</time></trkpt><trkpt lat="39.03892785642064" lon="8.954735635783422"><ele>172.0</ele><time>2026-03-26T12:47:01.999Z</time></trkpt><trkpt lat="39.03898353770377" lon="8.954807929888956"><ele>172.0</ele><time>2026-03-26T12:47:05Z</time></trkpt><trkpt lat="39.03901857873128" lon="8.954889636486973"><ele>172.0</ele><time>2026-03-26T12:49:37Z</time></trkpt><trkpt lat="39.03901547000799" lon="8.95497435615596"><ele>172.00000000000003</ele><time>2026-03-26T12:49:39Z</time></trkpt><trkpt lat="39.0390069288211" lon="8.955068598840244"><ele>172.0</ele><time>2026-03-26T12:49:41Z</time></trkpt><trkpt lat="39.03901659709276" lon="8.9551808005291"><ele>171.0</ele><time>2026-03-26T12:49:55Z</time></trkpt><trkpt lat="39.03903610563622" lon="8.95528939681565"><ele>170.0</ele><time>2026-03-26T12:49:57Z</time></trkpt><trkpt lat="39.03905740453779" lon="8.955398709338136"><ele>169.0</ele><time>2026-03-26T12:49:59Z</time></trkpt><trkpt lat="39.03906968700707" lon="8.955504842115475"><ele>168.0</ele><time>2026-03-26T12:50:01Z</time></trkpt><trkpt lat="39.039070030368855" lon="8.95559843294337"><ele>167.0</ele><time>2026-03-26T12:50:03Z</time></trkpt><trkpt lat="39.03908054038722" lon="8.955706382534547"><ele>166.0</ele><time>2026-03-26T12:50:05Z</time></trkpt><trkpt lat="39.03904286868712" lon="8.955799049753187"><ele>166.0</ele><time>2026-03-26T12:50:07Z</time></trkpt><trkpt lat="39.03898413792334" lon="8.955863368615018"><ele>166.0</ele><time>2026-03-26T12:50:09Z</time></trkpt><trkpt lat="39.0388884978835" lon="8.955920893027061"><ele>166.0</ele><time>2026-03-26T12:50:11Z</time></trkpt><trkpt lat="39.038794332908644" lon="8.956000334369186"><ele>166.0</ele><time>2026-03-26T12:50:13Z</time></trkpt><trkpt lat="39.03870233275516" lon="8.956089193701304"><ele>166.0</ele><time>2026-03-26T12:50:15Z</time></trkpt><trkpt lat="39.0386009100597" lon="8.956175021394838"><ele>164.33333333333334</ele><time>2026-03-26T12:50:17Z</time></trkpt><trkpt lat="39.03850444000512" lon="8.956267237400148"><ele>162.66666666666669</ele><time>2026-03-26T12:50:19Z</time></trkpt><trkpt lat="39.03845803801484" lon="8.956326674423838"><ele>161.0</ele><time>2026-03-26T12:50:20Z</time></trkpt><trkpt lat="39.03840694302936" lon="8.95639103503943"><ele>159.33333333333334</ele><time>2026-03-26T12:50:21Z</time></trkpt><trkpt lat="39.038353274401466" lon="8.956449839893043"><ele>157.66666666666666</ele><time>2026-03-26T12:50:22Z</time></trkpt><trkpt lat="39.038304355051736" lon="8.956503871607897"><ele>156.0</ele><time>2026-03-26T12:50:23Z</time></trkpt><trkpt lat="39.038219464412265" lon="8.956611913304336"><ele>153.5</ele><time>2026-03-26T12:50:25Z</time></trkpt><trkpt lat="39.03811149413104" lon="8.956691868857368"><ele>151.0</ele><time>2026-03-26T12:50:27Z</time></trkpt><trkpt lat="39.038003945583085" lon="8.956745112115163"><ele>148.5</ele><time>2026-03-26T12:50:29Z</time></trkpt><trkpt lat="39.03789820209407" lon="8.956758767574541"><ele>146.0</ele><time>2026-03-26T12:50:31Z</time></trkpt><trkpt lat="39.03778843536222" lon="8.956748063585117"><ele>144.4</ele><time>2026-03-26T12:50:33Z</time></trkpt><trkpt lat="39.03769012686958" lon="8.95674415293236"><ele>142.8</ele><time>2026-03-26T12:50:35Z</time></trkpt><trkpt lat="39.037605435700016" lon="8.95678667549581"><ele>141.20000000000002</ele><time>2026-03-26T12:50:37Z</time></trkpt><trkpt lat="39.03750781449109" lon="8.956858850510734"><ele>139.6</ele><time>2026-03-26T12:50:38.999Z</time></trkpt><trkpt lat="39.03744138991384" lon="8.956884349993182"><ele>138.0</ele><time>2026-03-26T12:50:39.999Z</time></trkpt><trkpt lat="39.037327248840946" lon="8.956939511110157"><ele>136.6</ele><time>2026-03-26T12:50:41.999Z</time></trkpt><trkpt lat="39.03721956098983" lon="8.956982690006637"><ele>135.20000000000002</ele><time>2026-03-26T12:50:43.999Z</time></trkpt><trkpt lat="39.03711977749177" lon="8.95703339511415"><ele>133.8</ele><time>2026-03-26T12:50:45.999Z</time></trkpt><trkpt lat="39.037015875635255" lon="8.957080802659798"><ele>132.4</ele><time>2026-03-26T12:50:47.999Z</time></trkpt><trkpt lat="39.03691159874837" lon="8.957152057818675"><ele>131.0</ele><time>2026-03-26T12:50:49.999Z</time></trkpt><trkpt lat="39.03681706722291" lon="8.957228000893672"><ele>131.0</ele><time>2026-03-26T12:50:51.999Z</time></trkpt><trkpt lat="39.036759776918736" lon="8.957261778827268"><ele>131.0</ele><time>2026-03-26T12:50:52.999Z</time></trkpt><trkpt lat="39.0366890071235" lon="8.957313991712029"><ele>131.0</ele><time>2026-03-26T12:50:53.999Z</time></trkpt><trkpt lat="39.03662794963476" lon="8.957381029441704"><ele>131.0</ele><time>2026-03-26T12:50:54.999Z</time></trkpt><trkpt lat="39.03656895125766" lon="8.95743951614533"><ele>131.0</ele><time>2026-03-26T12:50:55.999Z</time></trkpt><trkpt lat="39.036509133571904" lon="8.957497443734535"><ele>131.0</ele><time>2026-03-26T12:50:56.999Z</time></trkpt><trkpt lat="39.036446466258184" lon="8.957558911064778"><ele>129.83333333333331</ele><time>2026-03-26T12:50:57.999Z</time></trkpt><trkpt lat="39.03638668195595" lon="8.957612971293765"><ele>128.66666666666666</ele><time>2026-03-26T12:50:58.999Z</time></trkpt><trkpt lat="39.03632749611965" lon="8.957665273692049"><ele>127.5</ele><time>2026-03-26T12:50:59.999Z</time></trkpt><trkpt lat="39.03627532251772" lon="8.95771314838704"><ele>126.33333333333334</ele><time>2026-03-26T12:51:00.999Z</time></trkpt><trkpt lat="39.03617013690438" lon="8.957806727148116"><ele>125.16666666666667</ele><time>2026-03-26T12:51:02.999Z</time></trkpt><trkpt lat="39.036108739002685" lon="8.957856344013598"><ele>124.0</ele><time>2026-03-26T12:51:03.999Z</time></trkpt><trkpt lat="39.03605132665782" lon="8.95790292182636"><ele>124.0</ele><time>2026-03-26T12:51:04.999Z</time></trkpt><trkpt lat="39.035991437005514" lon="8.957951706381355"><ele>124.00000000000001</ele><time>2026-03-26T12:51:05.999Z</time></trkpt><trkpt lat="39.03592777201909" lon="8.958006582426675"><ele>124.0</ele><time>2026-03-26T12:51:06.999Z</time></trkpt><trkpt lat="39.03586339919004" lon="8.958068289177719"><ele>124.0</ele><time>2026-03-26T12:51:07.999Z</time></trkpt><trkpt lat="39.03580555645582" lon="8.958132542599637"><ele>124.00000000000001</ele><time>2026-03-26T12:51:08.999Z</time></trkpt><trkpt lat="39.03575560398333" lon="8.958198925130757"><ele>124.0</ele><time>2026-03-26T12:51:09.999Z</time></trkpt><trkpt lat="39.03570091885029" lon="8.958256893298621"><ele>124.0</ele><time>2026-03-26T12:51:10.999Z</time></trkpt><trkpt lat="39.03563946749894" lon="8.958307762365779"><ele>122.50000000000001</ele><time>2026-03-26T12:51:11.999Z</time></trkpt><trkpt lat="39.03557239435207" lon="8.958375077656562"><ele>121.0</ele><time>2026-03-26T12:51:12.999Z</time></trkpt><trkpt lat="39.03550712497039" lon="8.958443088029782"><ele>119.5</ele><time>2026-03-26T12:51:13.999Z</time></trkpt><trkpt lat="39.03544695467019" lon="8.958512019571952"><ele>118.0</ele><time>2026-03-26T12:51:14.999Z</time></trkpt><trkpt lat="39.035390930927086" lon="8.958588458006316"><ele>116.50000000000001</ele><time>2026-03-26T12:51:15.999Z</time></trkpt><trkpt lat="39.03534032042472" lon="8.958661736960261"><ele>115.0</ele><time>2026-03-26T12:51:17Z</time></trkpt><trkpt lat="39.03526376574746" lon="8.958734396203878"><ele>115.00000000000001</ele><time>2026-03-26T12:51:18Z</time></trkpt><trkpt lat="39.035184792158034" lon="8.958807164291658"><ele>115.0</ele><time>2026-03-26T12:51:19Z</time></trkpt><trkpt lat="39.035111638025306" lon="8.958881774489084"><ele>115.0</ele><time>2026-03-26T12:51:20Z</time></trkpt><trkpt lat="39.035044446166516" lon="8.958946309599245"><ele>115.0</ele><time>2026-03-26T12:51:21Z</time></trkpt><trkpt lat="39.034981703988755" lon="8.959016661295811"><ele>115.00000000000001</ele><time>2026-03-26T12:51:22Z</time></trkpt><trkpt lat="39.03492543373956" lon="8.959084303936795"><ele>115.0</ele><time>2026-03-26T12:51:23Z</time></trkpt><trkpt lat="39.034869228543116" lon="8.95914920443629"><ele>112.85714285714285</ele><time>2026-03-26T12:51:24Z</time></trkpt><trkpt lat="39.03481327941485" lon="8.959213404882934"><ele>110.71428571428571</ele><time>2026-03-26T12:51:25Z</time></trkpt><trkpt lat="39.03476404757683" lon="8.959277658357102"><ele>108.57142857142857</ele><time>2026-03-26T12:51:26Z</time></trkpt><trkpt lat="39.034723635799836" lon="8.959353652824147"><ele>106.42857142857142</ele><time>2026-03-26T12:51:27Z</time></trkpt><trkpt lat="39.034688656305185" lon="8.959429714652003"><ele>104.28571428571428</ele><time>2026-03-26T12:51:28Z</time></trkpt><trkpt lat="39.03465197405916" lon="8.959513308165551"><ele>102.14285714285715</ele><time>2026-03-26T12:51:29Z</time></trkpt><trkpt lat="39.03462749209334" lon="8.959589573352345"><ele>100.0</ele><time>2026-03-26T12:51:30Z</time></trkpt><trkpt lat="39.034611562938885" lon="8.959716090616027"><ele>100.0</ele><time>2026-03-26T12:51:32Z</time></trkpt><trkpt lat="39.034663413742884" lon="8.95983192714873"><ele>100.0</ele><time>2026-03-26T12:51:34Z</time></trkpt><trkpt lat="39.034708143352525" lon="8.959891721699886"><ele>100.0</ele><time>2026-03-26T12:51:35Z</time></trkpt><trkpt lat="39.03475528107806" lon="8.959956767380618"><ele>100.0</ele><time>2026-03-26T12:51:36Z</time></trkpt><trkpt lat="39.034831489472296" lon="8.96006826579364"><ele>100.0</ele><time>2026-03-26T12:51:38Z</time></trkpt><trkpt lat="39.03490389702797" lon="8.960194996701926"><ele>100.5</ele><time>2026-03-26T12:51:39Z</time></trkpt><trkpt lat="39.03496594255874" lon="8.960323466410111"><ele>101.0</ele><time>2026-03-26T12:51:40Z</time></trkpt><trkpt lat="39.03505651829923" lon="8.960456364534279"><ele>101.5</ele><time>2026-03-26T12:51:41Z</time></trkpt><trkpt lat="39.03512578085731" lon="8.960561306339226"><ele>102.0</ele><time>2026-03-26T12:51:42Z</time></trkpt><trkpt lat="39.035211763594965" lon="8.960689794024688"><ele>102.0</ele><time>2026-03-26T12:51:43Z</time></trkpt><trkpt lat="39.0352855496738" lon="8.960793717040046"><ele>102.0</ele><time>2026-03-26T12:51:44Z</time></trkpt><trkpt lat="39.03534655548462" lon="8.960883058449966"><ele>102.0</ele><time>2026-03-26T12:51:45Z</time></trkpt><trkpt lat="39.03539867770871" lon="8.960965336612915"><ele>102.0</ele><time>2026-03-26T12:51:46Z</time></trkpt><trkpt lat="39.03544353762241" lon="8.961042876158187"><ele>102.0</ele><time>2026-03-26T12:51:47Z</time></trkpt><trkpt lat="39.03548346645186" lon="8.961110710304723"><ele>102.0</ele><time>2026-03-26T12:51:48Z</time></trkpt><trkpt lat="39.03554582861316" lon="8.961241359877546"><ele>100.8</ele><time>2026-03-26T12:51:50Z</time></trkpt><trkpt lat="39.03555698041942" lon="8.961391424759434"><ele>99.6</ele><time>2026-03-26T12:51:52Z</time></trkpt><trkpt lat="39.03553156772426" lon="8.961520766990347"><ele>98.39999999999999</ele><time>2026-03-26T12:51:54Z</time></trkpt><trkpt lat="39.0355080065757" lon="8.961638837365909"><ele>97.19999999999999</ele><time>2026-03-26T12:51:56Z</time></trkpt><trkpt lat="39.03554149180294" lon="8.961762864451199"><ele>96.0</ele><time>2026-03-26T12:51:58Z</time></trkpt><trkpt lat="39.035621768651055" lon="8.961843713041562"><ele>94.6</ele><time>2026-03-26T12:52:00Z</time></trkpt><trkpt lat="39.03570574696086" lon="8.96189683484061"><ele>93.19999999999999</ele><time>2026-03-26T12:52:02Z</time></trkpt><trkpt lat="39.0357815658414" lon="8.961957328283038"><ele>91.80000000000001</ele><time>2026-03-26T12:52:04Z</time></trkpt><trkpt lat="39.03586766703843" lon="8.962038920430139"><ele>90.4</ele><time>2026-03-26T12:52:06Z</time></trkpt><trkpt lat="39.035964068187916" lon="8.962115338286262"><ele>89.0</ele><time>2026-03-26T12:52:08Z</time></trkpt><trkpt lat="39.036052551307804" lon="8.962184242206918"><ele>89.0</ele><time>2026-03-26T12:52:10Z</time></trkpt><trkpt lat="39.0361502066099" lon="8.962283112348457"><ele>89.0</ele><time>2026-03-26T12:52:12Z</time></trkpt><trkpt lat="39.03625232743846" lon="8.962368996249523"><ele>89.0</ele><time>2026-03-26T12:52:14Z</time></trkpt><trkpt lat="39.03630762466132" lon="8.962412894053218"><ele>89.0</ele><time>2026-03-26T12:52:15Z</time></trkpt><trkpt lat="39.03636567057452" lon="8.96246405892242"><ele>89.0</ele><time>2026-03-26T12:52:16Z</time></trkpt><trkpt lat="39.03642418253383" lon="8.96252050310293"><ele>88.5</ele><time>2026-03-26T12:52:17Z</time></trkpt><trkpt lat="39.03648592983665" lon="8.962574476419121"><ele>88.0</ele><time>2026-03-26T12:52:18Z</time></trkpt><trkpt lat="39.03654945830274" lon="8.962623462758433"><ele>87.5</ele><time>2026-03-26T12:52:19Z</time></trkpt><trkpt lat="39.03661238553835" lon="8.962674955898931"><ele>87.0</ele><time>2026-03-26T12:52:20Z</time></trkpt><trkpt lat="39.03666910837889" lon="8.962732594464688"><ele>86.5</ele><time>2026-03-26T12:52:21Z</time></trkpt><trkpt lat="39.03672569484629" lon="8.962780691540145"><ele>86.0</ele><time>2026-03-26T12:52:22Z</time></trkpt><trkpt lat="39.036827488341224" lon="8.962867263859797"><ele>87.0</ele><time>2026-03-26T12:52:24Z</time></trkpt><trkpt lat="39.036890233952526" lon="8.962893535327543"><ele>88.0</ele><time>2026-03-26T12:52:25Z</time></trkpt><trkpt lat="39.03695563408454" lon="8.962908150064884"><ele>89.0</ele><time>2026-03-26T12:52:26Z</time></trkpt><trkpt lat="39.03701895841213" lon="8.962915287639897"><ele>90.0</ele><time>2026-03-26T12:52:27Z</time></trkpt><trkpt lat="39.03713938911683" lon="8.96290612314908"><ele>91.0</ele><time>2026-03-26T12:52:29Z</time></trkpt><trkpt lat="39.037252508389436" lon="8.962923081843083"><ele>92.0</ele><time>2026-03-26T12:52:31Z</time></trkpt><trkpt lat="39.03733837712838" lon="8.963015838820453"><ele>92.0</ele><time>2026-03-26T12:52:33Z</time></trkpt><trkpt lat="39.03738144914212" lon="8.96308999396164"><ele>92.0</ele><time>2026-03-26T12:52:34Z</time></trkpt><trkpt lat="39.03743306412429" lon="8.963160436490538"><ele>92.0</ele><time>2026-03-26T12:52:35Z</time></trkpt><trkpt lat="39.037480351625945" lon="8.96323240225293"><ele>92.0</ele><time>2026-03-26T12:52:36Z</time></trkpt><trkpt lat="39.03751664858388" lon="8.96332040884408"><ele>92.0</ele><time>2026-03-26T12:52:37Z</time></trkpt><trkpt lat="39.037555354918354" lon="8.963403979347879"><ele>92.0</ele><time>2026-03-26T12:52:38Z</time></trkpt><trkpt lat="39.03760458044018" lon="8.963469182934514"><ele>92.0</ele><time>2026-03-26T12:52:39Z</time></trkpt><trkpt lat="39.037673977042765" lon="8.963572196115248"><ele>91.8</ele><time>2026-03-26T12:52:41Z</time></trkpt><trkpt lat="39.0377272402905" lon="8.963650000651413"><ele>91.6</ele><time>2026-03-26T12:52:44Z</time></trkpt><trkpt lat="39.03768574701139" lon="8.963750478574575"><ele>91.39999999999999</ele><time>2026-03-26T12:52:59Z</time></trkpt><trkpt lat="39.03760249564412" lon="8.96383767589908"><ele>91.19999999999999</ele><time>2026-03-26T12:53:00.999Z</time></trkpt><trkpt lat="39.03752743900183" lon="8.963943391823141"><ele>91.0</ele><time>2026-03-26T12:53:02.999Z</time></trkpt><trkpt lat="39.037456820437804" lon="8.963965458817446"><ele>91.0</ele><time>2026-03-26T12:53:03.999Z</time></trkpt><trkpt lat="39.037374082433345" lon="8.964077060675434"><ele>91.0</ele><time>2026-03-26T12:53:05.999Z</time></trkpt><trkpt lat="39.0373021783619" lon="8.964161439143762"><ele>91.0</ele><time>2026-03-26T12:53:07.999Z</time></trkpt><trkpt lat="39.03721781138597" lon="8.964245539147303"><ele>91.0</ele><time>2026-03-26T12:53:09.999Z</time></trkpt><trkpt lat="39.03711668816752" lon="8.964318246193661"><ele>91.0</ele><time>2026-03-26T12:53:11.999Z</time></trkpt><trkpt lat="39.03705892367989" lon="8.964354914289217"><ele>90.5</ele><time>2026-03-26T12:53:12.999Z</time></trkpt><trkpt lat="39.03699710727825" lon="8.96439161682841"><ele>90.0</ele><time>2026-03-26T12:53:13.999Z</time></trkpt><trkpt lat="39.03691195488946" lon="8.964442174722054"><ele>89.5</ele><time>2026-03-26T12:53:15.999Z</time></trkpt><trkpt lat="39.03681152704425" lon="8.964503349998221"><ele>89.0</ele><time>2026-03-26T12:53:17.999Z</time></trkpt><trkpt lat="39.03675338285366" lon="8.96454410935543"><ele>88.5</ele><time>2026-03-26T12:53:18.999Z</time></trkpt><trkpt lat="39.03669562158814" lon="8.964584600280917"><ele>88.0</ele><time>2026-03-26T12:53:19.999Z</time></trkpt><trkpt lat="39.03663933371758" lon="8.964624058370225"><ele>87.33333333333333</ele><time>2026-03-26T12:53:20.999Z</time></trkpt><trkpt lat="39.036583295937" lon="8.964661508574798"><ele>86.66666666666666</ele><time>2026-03-26T12:53:21.999Z</time></trkpt><trkpt lat="39.036534014550845" lon="8.964753048038661"><ele>86.0</ele><time>2026-03-26T12:53:23Z</time></trkpt><trkpt lat="39.036462195825095" lon="8.964794380299576"><ele>85.33333333333333</ele><time>2026-03-26T12:53:24Z</time></trkpt><trkpt lat="39.03638741369122" lon="8.964837934894414"><ele>84.66666666666667</ele><time>2026-03-26T12:53:25Z</time></trkpt><trkpt lat="39.03630902137224" lon="8.964874336527759"><ele>84.0</ele><time>2026-03-26T12:53:26Z</time></trkpt><trkpt lat="39.03622780548525" lon="8.964900609344872"><ele>84.0</ele><time>2026-03-26T12:53:27Z</time></trkpt><trkpt lat="39.03615020069796" lon="8.964923596327452"><ele>84.0</ele><time>2026-03-26T12:53:28Z</time></trkpt><trkpt lat="39.0360781689796" lon="8.96494773925568"><ele>84.0</ele><time>2026-03-26T12:53:29Z</time></trkpt><trkpt lat="39.03600416756929" lon="8.964937022892668"><ele>84.0</ele><time>2026-03-26T12:53:30Z</time></trkpt><trkpt lat="39.035941001412624" lon="8.964958271996457"><ele>84.0</ele><time>2026-03-26T12:53:31Z</time></trkpt><trkpt lat="39.03587493541712" lon="8.964979129288622"><ele>84.0</ele><time>2026-03-26T12:53:32Z</time></trkpt><trkpt lat="39.03580621743078" lon="8.96500207426747"><ele>84.0</ele><time>2026-03-26T12:53:33Z</time></trkpt><trkpt lat="39.03574169486486" lon="8.965027658920253"><ele>82.5</ele><time>2026-03-26T12:53:34Z</time></trkpt><trkpt lat="39.035642477543185" lon="8.965074905879701"><ele>81.0</ele><time>2026-03-26T12:53:36Z</time></trkpt><trkpt lat="39.035574063778924" lon="8.96511173947569"><ele>79.5</ele><time>2026-03-26T12:53:38Z</time></trkpt><trkpt lat="39.035599645079344" lon="8.965362661492748"><ele>78.0</ele><time>2026-03-26T12:53:40Z</time></trkpt><trkpt lat="39.03564225399188" lon="8.96545104276865"><ele>78.0</ele><time>2026-03-26T12:53:41Z</time></trkpt><trkpt lat="39.03567093541013" lon="8.965555609567303"><ele>78.0</ele><time>2026-03-26T12:53:42Z</time></trkpt><trkpt lat="39.03569570610306" lon="8.96564844822396"><ele>78.0</ele><time>2026-03-26T12:53:43Z</time></trkpt><trkpt lat="39.03571733154713" lon="8.96573078720302"><ele>78.0</ele><time>2026-03-26T12:53:44Z</time></trkpt><trkpt lat="39.03579213145608" lon="8.965835244280258"><ele>78.0</ele><time>2026-03-26T12:53:46Z</time></trkpt><trkpt lat="39.035934497484185" lon="8.965850443117631"><ele>79.0</ele><time>2026-03-26T12:53:48Z</time></trkpt><trkpt lat="39.03603757037438" lon="8.96583813785285"><ele>80.0</ele><time>2026-03-26T12:53:49Z</time></trkpt><trkpt lat="39.03614433527435" lon="8.965830179329505"><ele>81.0</ele><time>2026-03-26T12:53:50Z</time></trkpt><trkpt lat="39.03624699792948" lon="8.965834825780352"><ele>82.0</ele><time>2026-03-26T12:53:51Z</time></trkpt><trkpt lat="39.03635065399646" lon="8.965839676065816"><ele>83.0</ele><time>2026-03-26T12:53:52Z</time></trkpt><trkpt lat="39.03645419692691" lon="8.965839999550536"><ele>83.0</ele><time>2026-03-26T12:53:53Z</time></trkpt><trkpt lat="39.03655569525729" lon="8.965838934279525"><ele>83.0</ele><time>2026-03-26T12:53:54Z</time></trkpt><trkpt lat="39.036654123970415" lon="8.965842737548897"><ele>83.0</ele><time>2026-03-26T12:53:55Z</time></trkpt><trkpt lat="39.03675287216429" lon="8.965850339288645"><ele>83.0</ele><time>2026-03-26T12:53:56Z</time></trkpt><trkpt lat="39.036853604509815" lon="8.965852843963168"><ele>83.0</ele><time>2026-03-26T12:53:57Z</time></trkpt><trkpt lat="39.036953785034456" lon="8.965856634897293"><ele>83.0</ele><time>2026-03-26T12:53:58Z</time></trkpt><trkpt lat="39.03705377078288" lon="8.965859729280565"><ele>83.0</ele><time>2026-03-26T12:53:59Z</time></trkpt><trkpt lat="39.03715056236471" lon="8.965866341588248"><ele>83.0</ele><time>2026-03-26T12:54:00Z</time></trkpt><trkpt lat="39.037251750917854" lon="8.965869487202346"><ele>83.0</ele><time>2026-03-26T12:54:01Z</time></trkpt><trkpt lat="39.03735738664595" lon="8.965868068569813"><ele>83.0</ele><time>2026-03-26T12:54:02Z</time></trkpt><trkpt lat="39.037464994598665" lon="8.965867970946762"><ele>83.0</ele><time>2026-03-26T12:54:03Z</time></trkpt><trkpt lat="39.037574235299715" lon="8.965871258045443"><ele>83.0</ele><time>2026-03-26T12:54:04Z</time></trkpt><trkpt lat="39.03768489658034" lon="8.965873017620364"><ele>83.0</ele><time>2026-03-26T12:54:05Z</time></trkpt><trkpt lat="39.037800214720164" lon="8.965876052773808"><ele>83.0</ele><time>2026-03-26T12:54:06Z</time></trkpt><trkpt lat="39.03792493515122" lon="8.965884500382787"><ele>83.0</ele><time>2026-03-26T12:54:07Z</time></trkpt><trkpt lat="39.03807435228109" lon="8.965881277761769"><ele>83.0</ele><time>2026-03-26T12:54:08Z</time></trkpt><trkpt lat="39.03823401077444" lon="8.96587904717478"><ele>83.0</ele><time>2026-03-26T12:54:09Z</time></trkpt><trkpt lat="39.03838949394191" lon="8.965895174223421"><ele>83.0</ele><time>2026-03-26T12:54:10Z</time></trkpt><trkpt lat="39.03853763376469" lon="8.965904908852574"><ele>83.0</ele><time>2026-03-26T12:54:11Z</time></trkpt><trkpt lat="39.038659565055355" lon="8.96590511812922"><ele>83.0</ele><time>2026-03-26T12:54:12Z</time></trkpt><trkpt lat="39.038770995778336" lon="8.965911902944347"><ele>83.0</ele><time>2026-03-26T12:54:13Z</time></trkpt><trkpt lat="39.03888371491573" lon="8.96591477586112"><ele>83.0</ele><time>2026-03-26T12:54:14Z</time></trkpt><trkpt lat="39.038987823885556" lon="8.965915115084087"><ele>83.0</ele><time>2026-03-26T12:54:15Z</time></trkpt><trkpt lat="39.03907390976203" lon="8.965914008876881"><ele>83.0</ele><time>2026-03-26T12:54:16Z</time></trkpt><trkpt lat="39.03914004950798" lon="8.965913701690246"><ele>83.0</ele><time>2026-03-26T12:54:17Z</time></trkpt><trkpt lat="39.0392397143516" lon="8.965910165186802"><ele>83.0</ele><time>2026-03-26T12:54:19Z</time></trkpt><trkpt lat="39.03930840949697" lon="8.965934695033907"><ele>83.0</ele><time>2026-03-26T12:54:21Z</time></trkpt><trkpt lat="39.039347708610286" lon="8.966007875998736"><ele>83.2</ele><time>2026-03-26T12:54:23Z</time></trkpt><trkpt lat="39.03935398588041" lon="8.966187421168959"><ele>83.4</ele><time>2026-03-26T12:54:25Z</time></trkpt><trkpt lat="39.03935120970333" lon="8.966307290751796"><ele>83.60000000000001</ele><time>2026-03-26T12:54:26Z</time></trkpt><trkpt lat="39.039306552666844" lon="8.966429781710104"><ele>83.80000000000001</ele><time>2026-03-26T12:54:27Z</time></trkpt><trkpt lat="39.03931086866306" lon="8.966545795679721"><ele>84.0</ele><time>2026-03-26T12:54:28Z</time></trkpt><trkpt lat="39.0393166365037" lon="8.966672983994554"><ele>83.33333333333333</ele><time>2026-03-26T12:54:29Z</time></trkpt><trkpt lat="39.03932270153165" lon="8.96680137266325"><ele>82.66666666666667</ele><time>2026-03-26T12:54:30Z</time></trkpt><trkpt lat="39.03932855604215" lon="8.966925304830164"><ele>82.0</ele><time>2026-03-26T12:54:31Z</time></trkpt><trkpt lat="39.03933002671968" lon="8.967042506897535"><ele>81.33333333333334</ele><time>2026-03-26T12:54:32Z</time></trkpt><trkpt lat="39.03932930684867" lon="8.96715638594939"><ele>80.66666666666667</ele><time>2026-03-26T12:54:33Z</time></trkpt><trkpt lat="39.03932246310547" lon="8.967250723682879"><ele>80.0</ele><time>2026-03-26T12:54:34Z</time></trkpt><trkpt lat="39.0393108487282" lon="8.967349360241851"><ele>80.0</ele><time>2026-03-26T12:54:35Z</time></trkpt><trkpt lat="39.039298224955154" lon="8.967449393930886"><ele>80.0</ele><time>2026-03-26T12:54:36Z</time></trkpt><trkpt lat="39.0392896762998" lon="8.967561001212797"><ele>80.0</ele><time>2026-03-26T12:54:37Z</time></trkpt><trkpt lat="39.03928080869475" lon="8.967671385111963"><ele>80.0</ele><time>2026-03-26T12:54:38Z</time></trkpt><trkpt lat="39.039272458040024" lon="8.96777533384959"><ele>80.0</ele><time>2026-03-26T12:54:39Z</time></trkpt><trkpt lat="39.03926283745859" lon="8.967883216102566"><ele>80.0</ele><time>2026-03-26T12:54:40Z</time></trkpt><trkpt lat="39.03924604614571" lon="8.967980042804635"><ele>79.4</ele><time>2026-03-26T12:54:41Z</time></trkpt><trkpt lat="39.03922446173075" lon="8.968082169148655"><ele>78.8</ele><time>2026-03-26T12:54:42Z</time></trkpt><trkpt lat="39.0391911066357" lon="8.968198782450814"><ele>78.2</ele><time>2026-03-26T12:54:43Z</time></trkpt><trkpt lat="39.0391442899251" lon="8.968323489365767"><ele>77.6</ele><time>2026-03-26T12:54:44Z</time></trkpt><trkpt lat="39.03909397108463" lon="8.96845630338021"><ele>77.0</ele><time>2026-03-26T12:54:45Z</time></trkpt><trkpt lat="39.0390529136548" lon="8.968588835729198"><ele>76.6</ele><time>2026-03-26T12:54:46Z</time></trkpt><trkpt lat="39.03901907493341" lon="8.968710973183091"><ele>76.2</ele><time>2026-03-26T12:54:47Z</time></trkpt><trkpt lat="39.038991636150506" lon="8.968831215749212"><ele>75.8</ele><time>2026-03-26T12:54:48Z</time></trkpt><trkpt lat="39.038968498349895" lon="8.968951300780734"><ele>75.4</ele><time>2026-03-26T12:54:49Z</time></trkpt><trkpt lat="39.03894736798553" lon="8.969076938660924"><ele>75.0</ele><time>2026-03-26T12:54:50Z</time></trkpt><trkpt lat="39.038930615317746" lon="8.9692077712118"><ele>74.33333333333333</ele><time>2026-03-26T12:54:51Z</time></trkpt><trkpt lat="39.038923424127255" lon="8.969317598147398"><ele>73.66666666666667</ele><time>2026-03-26T12:54:52Z</time></trkpt><trkpt lat="39.038916934964206" lon="8.969424269451473"><ele>73.0</ele><time>2026-03-26T12:54:53Z</time></trkpt><trkpt lat="39.03891219702967" lon="8.969529286798656"><ele>72.33333333333334</ele><time>2026-03-26T12:54:54Z</time></trkpt><trkpt lat="39.03890698440683" lon="8.969644825714811"><ele>71.66666666666667</ele><time>2026-03-26T12:54:55Z</time></trkpt><trkpt lat="39.03890103765278" lon="8.969756415107405"><ele>71.0</ele><time>2026-03-26T12:54:56Z</time></trkpt><trkpt lat="39.038895140172265" lon="8.969860924694666"><ele>71.0</ele><time>2026-03-26T12:54:57Z</time></trkpt><trkpt lat="39.03888644799897" lon="8.969968021981622"><ele>71.0</ele><time>2026-03-26T12:54:58Z</time></trkpt><trkpt lat="39.03887086941848" lon="8.970084321867098"><ele>71.0</ele><time>2026-03-26T12:54:59Z</time></trkpt><trkpt lat="39.038853044670134" lon="8.970199011952637"><ele>71.0</ele><time>2026-03-26T12:55:00Z</time></trkpt><trkpt lat="39.03883161291554" lon="8.970302127950262"><ele>71.0</ele><time>2026-03-26T12:55:01Z</time></trkpt><trkpt lat="39.03881192866794" lon="8.970424000881712"><ele>71.0</ele><time>2026-03-26T12:55:02Z</time></trkpt><trkpt lat="39.038812272613036" lon="8.970538280858225"><ele>70.2</ele><time>2026-03-26T12:55:03Z</time></trkpt><trkpt lat="39.038836365782174" lon="8.97066466276169"><ele>69.39999999999999</ele><time>2026-03-26T12:55:04Z</time></trkpt><trkpt lat="39.03887608181809" lon="8.970786633484378"><ele>68.6</ele><time>2026-03-26T12:55:05Z</time></trkpt><trkpt lat="39.0389214170917" lon="8.970895345288636"><ele>67.8</ele><time>2026-03-26T12:55:06Z</time></trkpt><trkpt lat="39.03897480562709" lon="8.970984225948042"><ele>67.0</ele><time>2026-03-26T12:55:07Z</time></trkpt><trkpt lat="39.03903325862545" lon="8.971056305813567"><ele>66.83333333333333</ele><time>2026-03-26T12:55:08Z</time></trkpt><trkpt lat="39.03909772386709" lon="8.971109811131333"><ele>66.66666666666666</ele><time>2026-03-26T12:55:09Z</time></trkpt><trkpt lat="39.039137695038846" lon="8.971176546599144"><ele>66.5</ele><time>2026-03-26T12:55:10Z</time></trkpt><trkpt lat="39.03915102904699" lon="8.9713176147172"><ele>66.33333333333333</ele><time>2026-03-26T12:55:12Z</time></trkpt><trkpt lat="39.0391580743442" lon="8.971420499574283"><ele>66.16666666666667</ele><time>2026-03-26T12:55:12.999Z</time></trkpt><trkpt lat="39.039164548873494" lon="8.971541693508398"><ele>66.0</ele><time>2026-03-26T12:55:13.999Z</time></trkpt><trkpt lat="39.03917127685854" lon="8.971667631864687"><ele>65.6</ele><time>2026-03-26T12:55:14.999Z</time></trkpt><trkpt lat="39.039174261178516" lon="8.971802000823033"><ele>65.19999999999999</ele><time>2026-03-26T12:55:15.999Z</time></trkpt><trkpt lat="39.0391725350255" lon="8.97194590792086"><ele>64.80000000000001</ele><time>2026-03-26T12:55:16.999Z</time></trkpt><trkpt lat="39.039167483112436" lon="8.972097769613912"><ele>64.4</ele><time>2026-03-26T12:55:17.999Z</time></trkpt><trkpt lat="39.039161639327496" lon="8.97224233111824"><ele>64.0</ele><time>2026-03-26T12:55:18.999Z</time></trkpt><trkpt lat="39.039155083598516" lon="8.97237604987985"><ele>64.0</ele><time>2026-03-26T12:55:19.999Z</time></trkpt><trkpt lat="39.039148359647456" lon="8.972505988988667"><ele>64.0</ele><time>2026-03-26T12:55:20.999Z</time></trkpt><trkpt lat="39.039140900517204" lon="8.97263006865149"><ele>64.0</ele><time>2026-03-26T12:55:21.999Z</time></trkpt><trkpt lat="39.03913175519416" lon="8.972748091322345"><ele>64.0</ele><time>2026-03-26T12:55:22.999Z</time></trkpt><trkpt lat="39.03912210139599" lon="8.972868261871097"><ele>64.0</ele><time>2026-03-26T12:55:23.999Z</time></trkpt><trkpt lat="39.03911362336474" lon="8.972978610213659"><ele>63.33333333333333</ele><time>2026-03-26T12:55:24.999Z</time></trkpt><trkpt lat="39.03910695905618" lon="8.973086629934999"><ele>62.666666666666664</ele><time>2026-03-26T12:55:25.999Z</time></trkpt><trkpt lat="39.03910174965441" lon="8.973194440015835"><ele>62.0</ele><time>2026-03-26T12:55:26.999Z</time></trkpt><trkpt lat="39.03909827334159" lon="8.973301136100167"><ele>61.33333333333333</ele><time>2026-03-26T12:55:27.999Z</time></trkpt><trkpt lat="39.039097068788664" lon="8.973411627969426"><ele>60.666666666666664</ele><time>2026-03-26T12:55:29Z</time></trkpt><trkpt lat="39.03910453265606" lon="8.973528083378465"><ele>60.0</ele><time>2026-03-26T12:55:30Z</time></trkpt><trkpt lat="39.03911249475878" lon="8.973620171237584"><ele>59.666666666666664</ele><time>2026-03-26T12:55:31Z</time></trkpt><trkpt lat="39.03911504326231" lon="8.973718288523434"><ele>59.33333333333333</ele><time>2026-03-26T12:55:32Z</time></trkpt><trkpt lat="39.039117396591294" lon="8.97380889170158"><ele>59.0</ele><time>2026-03-26T12:55:33Z</time></trkpt><trkpt lat="39.039120866950164" lon="8.973893133423635"><ele>58.666666666666664</ele><time>2026-03-26T12:55:34Z</time></trkpt><trkpt lat="39.03913741359113" lon="8.974026090346605"><ele>58.33333333333333</ele><time>2026-03-26T12:55:36Z</time></trkpt><trkpt lat="39.039160275033055" lon="8.974114866402042"><ele>58.0</ele><time>2026-03-26T12:55:39Z</time></trkpt><trkpt lat="39.03919201019322" lon="8.974191015255403"><ele>58.0</ele><time>2026-03-26T12:55:47Z</time></trkpt><trkpt lat="39.03928193259805" lon="8.97401003990234"><ele>58.0</ele><time>2026-03-26T12:55:51Z</time></trkpt><trkpt lat="39.0393120910863" lon="8.973907424599568"><ele>58.0</ele><time>2026-03-26T12:55:52Z</time></trkpt><trkpt lat="39.03933059961932" lon="8.973799109039293"><ele>58.0</ele><time>2026-03-26T12:55:53Z</time></trkpt><trkpt lat="39.03936135045469" lon="8.973678882750812"><ele>58.0</ele><time>2026-03-26T12:55:54Z</time></trkpt><trkpt lat="39.039401544771344" lon="8.973557445297127"><ele>58.0</ele><time>2026-03-26T12:55:55Z</time></trkpt><trkpt lat="39.03945450464093" lon="8.973454055119104"><ele>58.0</ele><time>2026-03-26T12:55:56Z</time></trkpt><trkpt lat="39.03952486219236" lon="8.973365152457085"><ele>58.0</ele><time>2026-03-26T12:55:57Z</time></trkpt><trkpt lat="39.039612433899066" lon="8.97329740167855"><ele>58.0</ele><time>2026-03-26T12:55:58Z</time></trkpt><trkpt lat="39.039727591208184" lon="8.973252673903389"><ele>58.0</ele><time>2026-03-26T12:55:59Z</time></trkpt><trkpt lat="39.03985185203097" lon="8.973226985638766"><ele>58.75</ele><time>2026-03-26T12:56:00Z</time></trkpt><trkpt lat="39.03997334081444" lon="8.973196635130403"><ele>59.5</ele><time>2026-03-26T12:56:01Z</time></trkpt><trkpt lat="39.04008952418324" lon="8.973154215863126"><ele>60.25</ele><time>2026-03-26T12:56:02Z</time></trkpt><trkpt lat="39.04020529123619" lon="8.973106173111601"><ele>61.0</ele><time>2026-03-26T12:56:03Z</time></trkpt><trkpt lat="39.04031953230521" lon="8.973044147941375"><ele>61.0</ele><time>2026-03-26T12:56:04Z</time></trkpt><trkpt lat="39.04042832426226" lon="8.972971536274331"><ele>61.0</ele><time>2026-03-26T12:56:05Z</time></trkpt><trkpt lat="39.040534247949196" lon="8.972890568405838"><ele>61.0</ele><time>2026-03-26T12:56:06Z</time></trkpt><trkpt lat="39.04063089955227" lon="8.972807202190047"><ele>61.0</ele><time>2026-03-26T12:56:07Z</time></trkpt><trkpt lat="39.04071589354394" lon="8.97271532586312"><ele>61.0</ele><time>2026-03-26T12:56:08Z</time></trkpt><trkpt lat="39.04079087925913" lon="8.972606629220142"><ele>61.0</ele><time>2026-03-26T12:56:09Z</time></trkpt><trkpt lat="39.04085849793993" lon="8.972476402483393"><ele>61.0</ele><time>2026-03-26T12:56:10Z</time></trkpt><trkpt lat="39.04092361040643" lon="8.972338038991102"><ele>61.0</ele><time>2026-03-26T12:56:11Z</time></trkpt><trkpt lat="39.04099290634368" lon="8.97220141401172"><ele>62.0</ele><time>2026-03-26T12:56:12Z</time></trkpt><trkpt lat="39.04106956491243" lon="8.972064553038207"><ele>63.0</ele><time>2026-03-26T12:56:13Z</time></trkpt><trkpt lat="39.041129251018916" lon="8.971910745734656"><ele>64.0</ele><time>2026-03-26T12:56:14Z</time></trkpt><trkpt lat="39.041208446826026" lon="8.971776170716879"><ele>65.0</ele><time>2026-03-26T12:56:15Z</time></trkpt><trkpt lat="39.04130852031719" lon="8.971658503573313"><ele>65.75</ele><time>2026-03-26T12:56:16Z</time></trkpt><trkpt lat="39.041396994283566" lon="8.971531858302479"><ele>66.5</ele><time>2026-03-26T12:56:17Z</time></trkpt><trkpt lat="39.0414888093588" lon="8.971405967360235"><ele>67.25</ele><time>2026-03-26T12:56:18Z</time></trkpt><trkpt lat="39.04158262277546" lon="8.971281346173447"><ele>68.0</ele><time>2026-03-26T12:56:19Z</time></trkpt><trkpt lat="39.041670877679216" lon="8.97115496892698"><ele>69.0</ele><time>2026-03-26T12:56:20Z</time></trkpt><trkpt lat="39.04175422875609" lon="8.971029733243624"><ele>70.0</ele><time>2026-03-26T12:56:21Z</time></trkpt><trkpt lat="39.04184252939255" lon="8.970903422572151"><ele>71.0</ele><time>2026-03-26T12:56:22Z</time></trkpt><trkpt lat="39.04193154560165" lon="8.970778904557447"><ele>72.0</ele><time>2026-03-26T12:56:23Z</time></trkpt><trkpt lat="39.04202606347288" lon="8.970655682015444"><ele>72.5</ele><time>2026-03-26T12:56:24Z</time></trkpt><trkpt lat="39.042131962634286" lon="8.97053073675504"><ele>73.0</ele><time>2026-03-26T12:56:25Z</time></trkpt><trkpt lat="39.04224139987361" lon="8.970409773575385"><ele>73.5</ele><time>2026-03-26T12:56:26Z</time></trkpt><trkpt lat="39.04234642711384" lon="8.97030010155805"><ele>74.0</ele><time>2026-03-26T12:56:27Z</time></trkpt><trkpt lat="39.04244677738534" lon="8.970188585924056"><ele>74.0</ele><time>2026-03-26T12:56:28Z</time></trkpt><trkpt lat="39.04254852355598" lon="8.970073817264236"><ele>74.0</ele><time>2026-03-26T12:56:29Z</time></trkpt><trkpt lat="39.04265407881772" lon="8.969960835276122"><ele>74.0</ele><time>2026-03-26T12:56:30Z</time></trkpt><trkpt lat="39.042761076545375" lon="8.969848542902133"><ele>74.0</ele><time>2026-03-26T12:56:31Z</time></trkpt><trkpt lat="39.042863738062245" lon="8.96973414180356"><ele>74.75</ele><time>2026-03-26T12:56:32Z</time></trkpt><trkpt lat="39.04296036122806" lon="8.969609013856132"><ele>75.5</ele><time>2026-03-26T12:56:33Z</time></trkpt><trkpt lat="39.0430512185239" lon="8.969469249038635"><ele>76.25</ele><time>2026-03-26T12:56:34Z</time></trkpt><trkpt lat="39.043134814972895" lon="8.969324081597563"><ele>77.0</ele><time>2026-03-26T12:56:35Z</time></trkpt><trkpt lat="39.04321669413314" lon="8.96917346987717"><ele>77.75</ele><time>2026-03-26T12:56:36Z</time></trkpt><trkpt lat="39.04329185824274" lon="8.969035652670255"><ele>78.5</ele><time>2026-03-26T12:56:37Z</time></trkpt><trkpt lat="39.0433658507371" lon="8.968902028393703"><ele>79.25</ele><time>2026-03-26T12:56:38Z</time></trkpt><trkpt lat="39.043435972629894" lon="8.968765319698997"><ele>80.0</ele><time>2026-03-26T12:56:39Z</time></trkpt><trkpt lat="39.04349636959911" lon="8.968621122391074"><ele>80.0</ele><time>2026-03-26T12:56:40Z</time></trkpt><trkpt lat="39.04354603651971" lon="8.968464912769653"><ele>80.0</ele><time>2026-03-26T12:56:41Z</time></trkpt><trkpt lat="39.04359754614808" lon="8.968292926527411"><ele>80.0</ele><time>2026-03-26T12:56:42Z</time></trkpt><trkpt lat="39.04365649244102" lon="8.96812625124968"><ele>80.0</ele><time>2026-03-26T12:56:43Z</time></trkpt><trkpt lat="39.043714605107695" lon="8.967961760673756"><ele>81.0</ele><time>2026-03-26T12:56:44Z</time></trkpt><trkpt lat="39.04377364472239" lon="8.967801965195306"><ele>82.0</ele><time>2026-03-26T12:56:45Z</time></trkpt><trkpt lat="39.04383077762715" lon="8.96763881363375"><ele>83.0</ele><time>2026-03-26T12:56:46Z</time></trkpt><trkpt lat="39.043875351503324" lon="8.967473762392515"><ele>84.0</ele><time>2026-03-26T12:56:47Z</time></trkpt><trkpt lat="39.04391151436691" lon="8.967302431209347"><ele>84.5</ele><time>2026-03-26T12:56:48Z</time></trkpt><trkpt lat="39.04394180023839" lon="8.96713469307637"><ele>85.0</ele><time>2026-03-26T12:56:49Z</time></trkpt><trkpt lat="39.043970212390974" lon="8.966966749388911"><ele>85.5</ele><time>2026-03-26T12:56:50Z</time></trkpt><trkpt lat="39.043995581852265" lon="8.966802146909032"><ele>86.0</ele><time>2026-03-26T12:56:51Z</time></trkpt><trkpt lat="39.044024320905464" lon="8.96663877646373"><ele>86.25</ele><time>2026-03-26T12:56:52Z</time></trkpt><trkpt lat="39.04405411147578" lon="8.96647791568821"><ele>86.5</ele><time>2026-03-26T12:56:53Z</time></trkpt><trkpt lat="39.044083266522094" lon="8.966321908753622"><ele>86.75</ele><time>2026-03-26T12:56:54Z</time></trkpt><trkpt lat="39.04411127163788" lon="8.966166211579276"><ele>87.0</ele><time>2026-03-26T12:56:55Z</time></trkpt><trkpt lat="39.04413527250844" lon="8.966008748790642"><ele>88.75</ele><time>2026-03-26T12:56:56Z</time></trkpt><trkpt lat="39.0441625152213" lon="8.965849526860145"><ele>90.5</ele><time>2026-03-26T12:56:57Z</time></trkpt><trkpt lat="39.04419651672907" lon="8.965688089718421"><ele>92.25</ele><time>2026-03-26T12:56:58Z</time></trkpt><trkpt lat="39.04423644663231" lon="8.96553322531126"><ele>94.0</ele><time>2026-03-26T12:56:59Z</time></trkpt><trkpt lat="39.04428218916314" lon="8.96538106751913"><ele>94.0</ele><time>2026-03-26T12:57:00Z</time></trkpt><trkpt lat="39.044332028318095" lon="8.965231996061867"><ele>94.0</ele><time>2026-03-26T12:57:01Z</time></trkpt><trkpt lat="39.04438944974267" lon="8.9650890494218"><ele>94.0</ele><time>2026-03-26T12:57:02Z</time></trkpt><trkpt lat="39.044449137930805" lon="8.964946354728022"><ele>94.0</ele><time>2026-03-26T12:57:03Z</time></trkpt><trkpt lat="39.04450460802657" lon="8.964795211801789"><ele>95.5</ele><time>2026-03-26T12:57:04Z</time></trkpt><trkpt lat="39.04455882840813" lon="8.964650798102163"><ele>97.0</ele><time>2026-03-26T12:57:05Z</time></trkpt><trkpt lat="39.04462066788269" lon="8.964510223492717"><ele>98.5</ele><time>2026-03-26T12:57:06Z</time></trkpt><trkpt lat="39.04468267811276" lon="8.964364623158543"><ele>100.0</ele><time>2026-03-26T12:57:07Z</time></trkpt><trkpt lat="39.04474070094802" lon="8.964209781038463"><ele>101.0</ele><time>2026-03-26T12:57:08Z</time></trkpt><trkpt lat="39.04479640058972" lon="8.964066415313356"><ele>102.0</ele><time>2026-03-26T12:57:09Z</time></trkpt><trkpt lat="39.04485223921033" lon="8.963931501400044"><ele>103.0</ele><time>2026-03-26T12:57:10Z</time></trkpt><trkpt lat="39.04490777871652" lon="8.963801823194016"><ele>104.0</ele><time>2026-03-26T12:57:11Z</time></trkpt><trkpt lat="39.044962830019976" lon="8.96367859493013"><ele>105.75</ele><time>2026-03-26T12:57:12Z</time></trkpt><trkpt lat="39.04502743211175" lon="8.963559212696321"><ele>107.5</ele><time>2026-03-26T12:57:13Z</time></trkpt><trkpt lat="39.04511013441012" lon="8.963451623178557"><ele>109.25</ele><time>2026-03-26T12:57:14Z</time></trkpt><trkpt lat="39.04521151244932" lon="8.963371226547544"><ele>111.0</ele><time>2026-03-26T12:57:15Z</time></trkpt><trkpt lat="39.045321109306734" lon="8.963306845999233"><ele>112.25</ele><time>2026-03-26T12:57:16Z</time></trkpt><trkpt lat="39.04543100942565" lon="8.963235780417204"><ele>113.5</ele><time>2026-03-26T12:57:17Z</time></trkpt><trkpt lat="39.04553977519531" lon="8.963160779487035"><ele>114.75</ele><time>2026-03-26T12:57:18Z</time></trkpt><trkpt lat="39.045645502000795" lon="8.963093551521053"><ele>116.0</ele><time>2026-03-26T12:57:18.999Z</time></trkpt><trkpt lat="39.045748114855314" lon="8.963026512778553"><ele>117.19999999999999</ele><time>2026-03-26T12:57:19.999Z</time></trkpt><trkpt lat="39.045823065194824" lon="8.96297210932655"><ele>118.39999999999999</ele><time>2026-03-26T12:57:20.999Z</time></trkpt><trkpt lat="39.045883796016284" lon="8.96292246344299"><ele>119.6</ele><time>2026-03-26T12:57:21.999Z</time></trkpt><trkpt lat="39.04598622368619" lon="8.962858286910036"><ele>120.8</ele><time>2026-03-26T12:57:23.999Z</time></trkpt><trkpt lat="39.046096079127075" lon="8.962770151108975"><ele>122.0</ele><time>2026-03-26T12:57:25.999Z</time></trkpt><trkpt lat="39.046205171372925" lon="8.962673193880486"><ele>122.0</ele><time>2026-03-26T12:57:26.999Z</time></trkpt><trkpt lat="39.04630777898806" lon="8.962552047821362"><ele>122.0</ele><time>2026-03-26T12:57:27.999Z</time></trkpt><trkpt lat="39.046408988288405" lon="8.962430182911218"><ele>122.0</ele><time>2026-03-26T12:57:28.999Z</time></trkpt><trkpt lat="39.04647707508467" lon="8.962344295923913"><ele>122.0</ele><time>2026-03-26T12:57:29.999Z</time></trkpt><trkpt lat="39.04657448261552" lon="8.962242366193736"><ele>123.5</ele><time>2026-03-26T12:57:31.999Z</time></trkpt><trkpt lat="39.046635426299964" lon="8.962413717743006"><ele>125.0</ele><time>2026-03-26T12:57:35Z</time></trkpt><trkpt lat="39.04666813917288" lon="8.962536827044842"><ele>126.5</ele><time>2026-03-26T12:57:36Z</time></trkpt><trkpt lat="39.04670471756048" lon="8.962678559237352"><ele>128.0</ele><time>2026-03-26T12:57:37Z</time></trkpt><trkpt lat="39.04675048654126" lon="8.962855902521623"><ele>128.0</ele><time>2026-03-26T12:57:38Z</time></trkpt><trkpt lat="39.04679553524296" lon="8.963035591122054"><ele>128.0</ele><time>2026-03-26T12:57:39Z</time></trkpt><trkpt lat="39.046835489699234" lon="8.963195179822671"><ele>128.0</ele><time>2026-03-26T12:57:40Z</time></trkpt><trkpt lat="39.04687896721287" lon="8.963367840439783"><ele>128.0</ele><time>2026-03-26T12:57:41Z</time></trkpt><trkpt lat="39.04692525204138" lon="8.963540477289312"><ele>126.0</ele><time>2026-03-26T12:57:42Z</time></trkpt><trkpt lat="39.046975053423225" lon="8.963717710243541"><ele>124.0</ele><time>2026-03-26T12:57:43Z</time></trkpt><trkpt lat="39.04702361644919" lon="8.963890944037317"><ele>122.0</ele><time>2026-03-26T12:57:44Z</time></trkpt><trkpt lat="39.0470706970966" lon="8.96407484360196"><ele>120.0</ele><time>2026-03-26T12:57:45Z</time></trkpt><trkpt lat="39.047119726308715" lon="8.964266399151647"><ele>117.66666666666666</ele><time>2026-03-26T12:57:46Z</time></trkpt><trkpt lat="39.047172014397006" lon="8.964472135413569"><ele>115.33333333333333</ele><time>2026-03-26T12:57:47Z</time></trkpt><trkpt lat="39.047225077567376" lon="8.964680921311253"><ele>113.0</ele><time>2026-03-26T12:57:48Z</time></trkpt><trkpt lat="39.0472777151441" lon="8.964887097618652"><ele>110.33333333333333</ele><time>2026-03-26T12:57:49Z</time></trkpt><trkpt lat="39.0473311587138" lon="8.965092142097943"><ele>107.66666666666666</ele><time>2026-03-26T12:57:50Z</time></trkpt><trkpt lat="39.04738478582857" lon="8.965297890758283"><ele>105.0</ele><time>2026-03-26T12:57:51Z</time></trkpt><trkpt lat="39.047435529515475" lon="8.965492576758956"><ele>105.0</ele><time>2026-03-26T12:57:52Z</time></trkpt><trkpt lat="39.047484842433676" lon="8.965681773349495"><ele>105.0</ele><time>2026-03-26T12:57:53Z</time></trkpt><trkpt lat="39.04753146748473" lon="8.965859524366595"><ele>105.0</ele><time>2026-03-26T12:57:54Z</time></trkpt><trkpt lat="39.04758062277115" lon="8.966043569841581"><ele>103.66666666666666</ele><time>2026-03-26T12:57:55Z</time></trkpt><trkpt lat="39.047631307056086" lon="8.966233340267529"><ele>102.33333333333333</ele><time>2026-03-26T12:57:56Z</time></trkpt><trkpt lat="39.047680304342265" lon="8.966419720929489"><ele>101.0</ele><time>2026-03-26T12:57:57Z</time></trkpt><trkpt lat="39.047730047211076" lon="8.96660917434659"><ele>99.0</ele><time>2026-03-26T12:57:58Z</time></trkpt><trkpt lat="39.04777946886227" lon="8.966797404358086"><ele>97.0</ele><time>2026-03-26T12:57:59Z</time></trkpt><trkpt lat="39.04782854052181" lon="8.966989995896045"><ele>95.0</ele><time>2026-03-26T12:58:00Z</time></trkpt><trkpt lat="39.047880267741455" lon="8.9671934443675"><ele>95.0</ele><time>2026-03-26T12:58:01Z</time></trkpt><trkpt lat="39.04793325858186" lon="8.967401862671581"><ele>95.0</ele><time>2026-03-26T12:58:02Z</time></trkpt><trkpt lat="39.04798674014642" lon="8.967612211136837"><ele>95.0</ele><time>2026-03-26T12:58:03Z</time></trkpt><trkpt lat="39.0480374737466" lon="8.967810862873252"><ele>93.0</ele><time>2026-03-26T12:58:04Z</time></trkpt><trkpt lat="39.048089027453784" lon="8.96801175953722"><ele>91.0</ele><time>2026-03-26T12:58:05Z</time></trkpt><trkpt lat="39.048138344788796" lon="8.968203941410714"><ele>89.0</ele><time>2026-03-26T12:58:06Z</time></trkpt><trkpt lat="39.048187111254386" lon="8.968393976637145"><ele>87.0</ele><time>2026-03-26T12:58:07Z</time></trkpt><trkpt lat="39.04823669180772" lon="8.96858718424553"><ele>85.0</ele><time>2026-03-26T12:58:08Z</time></trkpt><trkpt lat="39.04828677879956" lon="8.968781486161499"><ele>83.0</ele><time>2026-03-26T12:58:09Z</time></trkpt><trkpt lat="39.04834046480365" lon="8.968989391893134"><ele>83.0</ele><time>2026-03-26T12:58:10Z</time></trkpt><trkpt lat="39.04839154138204" lon="8.969187192270798"><ele>83.0</ele><time>2026-03-26T12:58:11Z</time></trkpt><trkpt lat="39.04844057835025" lon="8.969377094038283"><ele>83.0</ele><time>2026-03-26T12:58:12Z</time></trkpt><trkpt lat="39.04848727363734" lon="8.969557927264232"><ele>82.0</ele><time>2026-03-26T12:58:13Z</time></trkpt><trkpt lat="39.04853202687339" lon="8.969731239662524"><ele>81.0</ele><time>2026-03-26T12:58:14Z</time></trkpt><trkpt lat="39.0485748370159" lon="8.969897027298325"><ele>80.0</ele><time>2026-03-26T12:58:15Z</time></trkpt><trkpt lat="39.0486168868953" lon="8.970059870698046"><ele>79.0</ele><time>2026-03-26T12:58:16Z</time></trkpt><trkpt lat="39.04865858692958" lon="8.970221359208864"><ele>77.75</ele><time>2026-03-26T12:58:17Z</time></trkpt><trkpt lat="39.04870059104017" lon="8.97037873575001"><ele>76.5</ele><time>2026-03-26T12:58:18Z</time></trkpt><trkpt lat="39.048742968827305" lon="8.970535191080238"><ele>75.25</ele><time>2026-03-26T12:58:19Z</time></trkpt><trkpt lat="39.048794920118425" lon="8.970699871998157"><ele>74.0</ele><time>2026-03-26T12:58:20Z</time></trkpt><trkpt lat="39.048897332886135" lon="8.970868925483462"><ele>72.66666666666667</ele><time>2026-03-26T12:58:21Z</time></trkpt><trkpt lat="39.049013804673535" lon="8.971012185284339"><ele>71.33333333333333</ele><time>2026-03-26T12:58:22Z</time></trkpt><trkpt lat="39.049102996248" lon="8.971176797767185"><ele>70.0</ele><time>2026-03-26T12:58:23Z</time></trkpt><trkpt lat="39.04920302659618" lon="8.97132250984394"><ele>69.0</ele><time>2026-03-26T12:58:24Z</time></trkpt><trkpt lat="39.049296305101485" lon="8.971456441503229"><ele>68.0</ele><time>2026-03-26T12:58:25Z</time></trkpt><trkpt lat="39.049397206336856" lon="8.971572576672722"><ele>67.0</ele><time>2026-03-26T12:58:26Z</time></trkpt><trkpt lat="39.04946756106107" lon="8.971702334937651"><ele>66.0</ele><time>2026-03-26T12:58:27Z</time></trkpt><trkpt lat="39.04955927234243" lon="8.971802279333303"><ele>65.2</ele><time>2026-03-26T12:58:28Z</time></trkpt><trkpt lat="39.04962287937108" lon="8.971925344668298"><ele>64.39999999999999</ele><time>2026-03-26T12:58:29Z</time></trkpt><trkpt lat="39.04969269780526" lon="8.97202410540377"><ele>63.6</ele><time>2026-03-26T12:58:30Z</time></trkpt><trkpt lat="39.04975329551245" lon="8.972109603891333"><ele>62.8</ele><time>2026-03-26T12:58:31Z</time></trkpt><trkpt lat="39.04981654560828" lon="8.972174874902066"><ele>62.0</ele><time>2026-03-26T12:58:32Z</time></trkpt><trkpt lat="39.049861102409054" lon="8.972249282452642"><ele>62.00000000000001</ele><time>2026-03-26T12:58:33Z</time></trkpt><trkpt lat="39.0499313891588" lon="8.97235052354915"><ele>62.0</ele><time>2026-03-26T12:58:35Z</time></trkpt><trkpt lat="39.04998414570979" lon="8.972409845833468"><ele>62.0</ele><time>2026-03-26T12:58:38Z</time></trkpt><trkpt lat="39.05006288653936" lon="8.972299589415417"><ele>62.0</ele><time>2026-03-26T12:58:40Z</time></trkpt><trkpt lat="39.0501014283792" lon="8.97222473531936"><ele>62.00000000000001</ele><time>2026-03-26T12:58:41Z</time></trkpt><trkpt lat="39.05012887685075" lon="8.972138608968303"><ele>62.0</ele><time>2026-03-26T12:58:42Z</time></trkpt><trkpt lat="39.05016667838197" lon="8.972039365929584"><ele>61.2</ele><time>2026-03-26T12:58:43Z</time></trkpt><trkpt lat="39.05021434152784" lon="8.971923452658357"><ele>60.400000000000006</ele><time>2026-03-26T12:58:44Z</time></trkpt><trkpt lat="39.05027079414065" lon="8.971812517832193"><ele>59.599999999999994</ele><time>2026-03-26T12:58:45Z</time></trkpt><trkpt lat="39.05034199338051" lon="8.97170470173895"><ele>58.8</ele><time>2026-03-26T12:58:46Z</time></trkpt><trkpt lat="39.050420811061194" lon="8.971598095144817"><ele>58.0</ele><time>2026-03-26T12:58:47Z</time></trkpt><trkpt lat="39.05050175212316" lon="8.971484095931805"><ele>58.0</ele><time>2026-03-26T12:58:48Z</time></trkpt><trkpt lat="39.05058415699707" lon="8.971366064879845"><ele>58.0</ele><time>2026-03-26T12:58:49Z</time></trkpt><trkpt lat="39.05066914244114" lon="8.971247609071728"><ele>58.0</ele><time>2026-03-26T12:58:50Z</time></trkpt><trkpt lat="39.05075192894863" lon="8.971127841177003"><ele>58.0</ele><time>2026-03-26T12:58:51Z</time></trkpt><trkpt lat="39.05083561402302" lon="8.97100793373304"><ele>57.0</ele><time>2026-03-26T12:58:52Z</time></trkpt><trkpt lat="39.05092188744177" lon="8.97088274654881"><ele>56.0</ele><time>2026-03-26T12:58:53Z</time></trkpt><trkpt lat="39.051014483685336" lon="8.970758878666155"><ele>55.0</ele><time>2026-03-26T12:58:54Z</time></trkpt><trkpt lat="39.05110659860798" lon="8.970631730633428"><ele>54.0</ele><time>2026-03-26T12:58:55Z</time></trkpt><trkpt lat="39.05119869419946" lon="8.970501493817295"><ele>54.0</ele><time>2026-03-26T12:58:56Z</time></trkpt><trkpt lat="39.05129026742476" lon="8.970376503330893"><ele>54.0</ele><time>2026-03-26T12:58:57Z</time></trkpt><trkpt lat="39.05137827251985" lon="8.970252404338309"><ele>54.0</ele><time>2026-03-26T12:58:58Z</time></trkpt><trkpt lat="39.0514644522744" lon="8.97012740402172"><ele>54.0</ele><time>2026-03-26T12:58:59Z</time></trkpt><trkpt lat="39.05155213913457" lon="8.970003292587448"><ele>53.75</ele><time>2026-03-26T12:59:00Z</time></trkpt><trkpt lat="39.05164093926756" lon="8.969877311364217"><ele>53.5</ele><time>2026-03-26T12:59:01Z</time></trkpt><trkpt lat="39.05172926564824" lon="8.969749065760709"><ele>53.25</ele><time>2026-03-26T12:59:02Z</time></trkpt><trkpt lat="39.05181965509559" lon="8.969619335622532"><ele>53.0</ele><time>2026-03-26T12:59:03Z</time></trkpt><trkpt lat="39.05190940317531" lon="8.96948905500229"><ele>53.0</ele><time>2026-03-26T12:59:04Z</time></trkpt><trkpt lat="39.05200260046684" lon="8.96936121722702"><ele>53.0</ele><time>2026-03-26T12:59:05Z</time></trkpt><trkpt lat="39.05209764010421" lon="8.9692358061936"><ele>53.0</ele><time>2026-03-26T12:59:06Z</time></trkpt><trkpt lat="39.05218856439977" lon="8.969109354220432"><ele>53.0</ele><time>2026-03-26T12:59:07Z</time></trkpt><trkpt lat="39.0522776179268" lon="8.968979939134943"><ele>53.75</ele><time>2026-03-26T12:59:08Z</time></trkpt><trkpt lat="39.052366147238196" lon="8.968849955091791"><ele>54.5</ele><time>2026-03-26T12:59:09Z</time></trkpt><trkpt lat="39.052452199218074" lon="8.968718503766155"><ele>55.25</ele><time>2026-03-26T12:59:10Z</time></trkpt><trkpt lat="39.05253366821941" lon="8.968585451660157"><ele>56.0</ele><time>2026-03-26T12:59:11Z</time></trkpt><trkpt lat="39.05260719021551" lon="8.968451472815087"><ele>56.8</ele><time>2026-03-26T12:59:12Z</time></trkpt><trkpt lat="39.05266480234774" lon="8.968313061686713"><ele>57.599999999999994</ele><time>2026-03-26T12:59:13Z</time></trkpt><trkpt lat="39.052709700289924" lon="8.968171544981015"><ele>58.4</ele><time>2026-03-26T12:59:14Z</time></trkpt><trkpt lat="39.05274438816608" lon="8.9680466437397"><ele>59.2</ele><time>2026-03-26T12:59:15Z</time></trkpt><trkpt lat="39.0527754741737" lon="8.967938064879247"><ele>60.0</ele><time>2026-03-26T12:59:16Z</time></trkpt><trkpt lat="39.05280784620939" lon="8.967837229110241"><ele>60.0</ele><time>2026-03-26T12:59:17Z</time></trkpt><trkpt lat="39.05283854244274" lon="8.967754766351648"><ele>60.0</ele><time>2026-03-26T12:59:18Z</time></trkpt><trkpt lat="39.052867973887416" lon="8.967667283616398"><ele>60.0</ele><time>2026-03-26T12:59:19Z</time></trkpt><trkpt lat="39.052901171695765" lon="8.967570122204254"><ele>60.0</ele><time>2026-03-26T12:59:20Z</time></trkpt><trkpt lat="39.05294738104625" lon="8.967473962389601"><ele>60.0</ele><time>2026-03-26T12:59:21Z</time></trkpt><trkpt lat="39.052992323554626" lon="8.96738930659"><ele>60.0</ele><time>2026-03-26T12:59:22Z</time></trkpt><trkpt lat="39.05303478997326" lon="8.967325739642567"><ele>60.0</ele><time>2026-03-26T12:59:23Z</time></trkpt><trkpt lat="39.05309756348973" lon="8.96729148880741"><ele>60.0</ele><time>2026-03-26T12:59:24Z</time></trkpt><trkpt lat="39.05317478541661" lon="8.967303580913063"><ele>60.0</ele><time>2026-03-26T12:59:25Z</time></trkpt><trkpt lat="39.053246239492" lon="8.967344481704668"><ele>60.0</ele><time>2026-03-26T12:59:26Z</time></trkpt><trkpt lat="39.05331176136667" lon="8.967373987638672"><ele>60.0</ele><time>2026-03-26T12:59:27Z</time></trkpt><trkpt lat="39.05336976914682" lon="8.967433415155881"><ele>60.0</ele><time>2026-03-26T12:59:28Z</time></trkpt><trkpt lat="39.05344387865319" lon="8.967475479258498"><ele>60.0</ele><time>2026-03-26T12:59:29Z</time></trkpt><trkpt lat="39.053532929772125" lon="8.967520782228991"><ele>58.75</ele><time>2026-03-26T12:59:30Z</time></trkpt><trkpt lat="39.05364017249732" lon="8.967549229573622"><ele>57.5</ele><time>2026-03-26T12:59:31Z</time></trkpt><trkpt lat="39.05375157936163" lon="8.967552947277944"><ele>56.25</ele><time>2026-03-26T12:59:31.999Z</time></trkpt><trkpt lat="39.05386556243599" lon="8.967573145004094"><ele>55.0</ele><time>2026-03-26T12:59:32.999Z</time></trkpt><trkpt lat="39.05398166560902" lon="8.967586155995146"><ele>55.0</ele><time>2026-03-26T12:59:33.999Z</time></trkpt><trkpt lat="39.054098742270966" lon="8.967594100395104"><ele>55.0</ele><time>2026-03-26T12:59:34.999Z</time></trkpt><trkpt lat="39.05421604443711" lon="8.967593443679654"><ele>55.0</ele><time>2026-03-26T12:59:35.999Z</time></trkpt><trkpt lat="39.054332153459114" lon="8.96759266297128"><ele>55.0</ele><time>2026-03-26T12:59:36.999Z</time></trkpt><trkpt lat="39.05444717527329" lon="8.9675909512847"><ele>55.5</ele><time>2026-03-26T12:59:37.999Z</time></trkpt><trkpt lat="39.05457504803813" lon="8.96758891101187"><ele>56.0</ele><time>2026-03-26T12:59:38.999Z</time></trkpt><trkpt lat="39.054704280771894" lon="8.967594332277454"><ele>56.5</ele><time>2026-03-26T12:59:39.999Z</time></trkpt><trkpt lat="39.054834001321034" lon="8.967594602470822"><ele>57.0</ele><time>2026-03-26T12:59:41Z</time></trkpt><trkpt lat="39.05496711092823" lon="8.967589192255957"><ele>57.5</ele><time>2026-03-26T12:59:42Z</time></trkpt><trkpt lat="39.055104387055046" lon="8.967583825738755"><ele>58.0</ele><time>2026-03-26T12:59:43Z</time></trkpt><trkpt lat="39.05524779082423" lon="8.967580922365004"><ele>58.5</ele><time>2026-03-26T12:59:44Z</time></trkpt><trkpt lat="39.05539276163715" lon="8.967581502278977"><ele>59.0</ele><time>2026-03-26T12:59:45Z</time></trkpt><trkpt lat="39.05553872375666" lon="8.96758394820117"><ele>59.0</ele><time>2026-03-26T12:59:46Z</time></trkpt><trkpt lat="39.05568644520051" lon="8.967584900908903"><ele>59.0</ele><time>2026-03-26T12:59:47Z</time></trkpt><trkpt lat="39.05583461399898" lon="8.967585492033185"><ele>59.0</ele><time>2026-03-26T12:59:48.001Z</time></trkpt><trkpt lat="39.05598195094229" lon="8.967586871915227"><ele>59.0</ele><time>2026-03-26T12:59:49Z</time></trkpt><trkpt lat="39.05612804419712" lon="8.967586622077357"><ele>60.0</ele><time>2026-03-26T12:59:50.001Z</time></trkpt><trkpt lat="39.05627232323935" lon="8.96758434025096"><ele>61.0</ele><time>2026-03-26T12:59:51.001Z</time></trkpt><trkpt lat="39.05641464837494" lon="8.967579222057143"><ele>62.0</ele><time>2026-03-26T12:59:52Z</time></trkpt><trkpt lat="39.056555034848365" lon="8.96757509843649"><ele>63.0</ele><time>2026-03-26T12:59:53.001Z</time></trkpt><trkpt lat="39.05669494381673" lon="8.967574673031041"><ele>63.0</ele><time>2026-03-26T12:59:54.001Z</time></trkpt><trkpt lat="39.05683238189874" lon="8.967580616702115"><ele>63.0</ele><time>2026-03-26T12:59:55.001Z</time></trkpt><trkpt lat="39.05697146557172" lon="8.967587797036987"><ele>63.0</ele><time>2026-03-26T12:59:56Z</time></trkpt><trkpt lat="39.05711492265447" lon="8.967588839389633"><ele>63.0</ele><time>2026-03-26T12:59:57Z</time></trkpt><trkpt lat="39.05726509589854" lon="8.967586480674555"><ele>63.0</ele><time>2026-03-26T12:59:58Z</time></trkpt><trkpt lat="39.05741818486059" lon="8.967585544453653"><ele>63.0</ele><time>2026-03-26T12:59:59Z</time></trkpt><trkpt lat="39.05756887242887" lon="8.967586715066682"><ele>63.0</ele><time>2026-03-26T13:00:00Z</time></trkpt><trkpt lat="39.05772088247389" lon="8.967592220870491"><ele>63.5</ele><time>2026-03-26T13:00:01Z</time></trkpt><trkpt lat="39.05787063670143" lon="8.967601378597415"><ele>64.0</ele><time>2026-03-26T13:00:02Z</time></trkpt><trkpt lat="39.05802083392754" lon="8.967616110959987"><ele>64.5</ele><time>2026-03-26T13:00:03Z</time></trkpt><trkpt lat="39.05816771392629" lon="8.967637371964637"><ele>65.0</ele><time>2026-03-26T13:00:04Z</time></trkpt><trkpt lat="39.05831234981119" lon="8.967666714236804"><ele>65.5</ele><time>2026-03-26T13:00:05Z</time></trkpt><trkpt lat="39.05845448770752" lon="8.967697037800239"><ele>66.0</ele><time>2026-03-26T13:00:06Z</time></trkpt><trkpt lat="39.05859514774953" lon="8.967730815880477"><ele>66.5</ele><time>2026-03-26T13:00:07Z</time></trkpt><trkpt lat="39.05873732031504" lon="8.967763825486207"><ele>67.0</ele><time>2026-03-26T13:00:08Z</time></trkpt><trkpt lat="39.0588855564527" lon="8.967791887233881"><ele>67.0</ele><time>2026-03-26T13:00:09Z</time></trkpt><trkpt lat="39.05903255100811" lon="8.967816748056512"><ele>67.0</ele><time>2026-03-26T13:00:10Z</time></trkpt><trkpt lat="39.05917668689908" lon="8.967846026086306"><ele>67.0</ele><time>2026-03-26T13:00:11Z</time></trkpt><trkpt lat="39.059318492895" lon="8.967877254169947"><ele>67.0</ele><time>2026-03-26T13:00:12Z</time></trkpt><trkpt lat="39.05946100599377" lon="8.967909847767725"><ele>67.5</ele><time>2026-03-26T13:00:13Z</time></trkpt><trkpt lat="39.059599172544175" lon="8.967946277091812"><ele>68.0</ele><time>2026-03-26T13:00:14Z</time></trkpt><trkpt lat="39.05973337245916" lon="8.96798133182562"><ele>68.5</ele><time>2026-03-26T13:00:15Z</time></trkpt><trkpt lat="39.0598629934634" lon="8.96801648624375"><ele>69.0</ele><time>2026-03-26T13:00:16Z</time></trkpt><trkpt lat="39.05998612837922" lon="8.96804840485434"><ele>69.5</ele><time>2026-03-26T13:00:17Z</time></trkpt><trkpt lat="39.06010866213667" lon="8.968078188941087"><ele>70.0</ele><time>2026-03-26T13:00:18Z</time></trkpt><trkpt lat="39.060228535743654" lon="8.968106041873178"><ele>70.5</ele><time>2026-03-26T13:00:19Z</time></trkpt><trkpt lat="39.0603382911422" lon="8.968128859714952"><ele>71.0</ele><time>2026-03-26T13:00:20Z</time></trkpt><trkpt lat="39.06044160716024" lon="8.968151808492326"><ele>71.0</ele><time>2026-03-26T13:00:21Z</time></trkpt><trkpt lat="39.06054400541537" lon="8.968184023626305"><ele>71.0</ele><time>2026-03-26T13:00:22Z</time></trkpt><trkpt lat="39.06064744551626" lon="8.968236876836468"><ele>71.0</ele><time>2026-03-26T13:00:23Z</time></trkpt><trkpt lat="39.06074683951986" lon="8.96831838887046"><ele>71.0</ele><time>2026-03-26T13:00:24Z</time></trkpt><trkpt lat="39.06083047705464" lon="8.968431219510656"><ele>69.0</ele><time>2026-03-26T13:00:25Z</time></trkpt><trkpt lat="39.060895881195634" lon="8.968549391596694"><ele>67.0</ele><time>2026-03-26T13:00:26Z</time></trkpt><trkpt lat="39.06095522438797" lon="8.9686724028824"><ele>65.0</ele><time>2026-03-26T13:00:27Z</time></trkpt><trkpt lat="39.06101221379277" lon="8.968798022703776"><ele>63.0</ele><time>2026-03-26T13:00:28Z</time></trkpt><trkpt lat="39.0610638989202" lon="8.968908996901376"><ele>61.0</ele><time>2026-03-26T13:00:29Z</time></trkpt><trkpt lat="39.06111726113896" lon="8.969019906422906"><ele>61.0</ele><time>2026-03-26T13:00:30Z</time></trkpt><trkpt lat="39.06117482677609" lon="8.96914326798869"><ele>61.0</ele><time>2026-03-26T13:00:31Z</time></trkpt><trkpt lat="39.061236226748846" lon="8.969273973121156"><ele>61.0</ele><time>2026-03-26T13:00:32Z</time></trkpt><trkpt lat="39.061299441306296" lon="8.96940854053467"><ele>61.0</ele><time>2026-03-26T13:00:33Z</time></trkpt><trkpt lat="39.06136310661788" lon="8.969544539167293"><ele>60.5</ele><time>2026-03-26T13:00:34Z</time></trkpt><trkpt lat="39.06142698546621" lon="8.969681148087634"><ele>60.0</ele><time>2026-03-26T13:00:35Z</time></trkpt><trkpt lat="39.06149111308147" lon="8.96981828897741"><ele>59.5</ele><time>2026-03-26T13:00:36Z</time></trkpt><trkpt lat="39.061558267900566" lon="8.969961903828276"><ele>59.0</ele><time>2026-03-26T13:00:37Z</time></trkpt><trkpt lat="39.06162640037866" lon="8.970107609360632"><ele>58.75</ele><time>2026-03-26T13:00:38Z</time></trkpt><trkpt lat="39.06169494453903" lon="8.970254195597839"><ele>58.5</ele><time>2026-03-26T13:00:39Z</time></trkpt><trkpt lat="39.06176315661401" lon="8.970400071414382"><ele>58.25</ele><time>2026-03-26T13:00:40Z</time></trkpt><trkpt lat="39.06183046293645" lon="8.97054421182017"><ele>58.0</ele><time>2026-03-26T13:00:41Z</time></trkpt><trkpt lat="39.06189411443054" lon="8.970678658932131"><ele>58.0</ele><time>2026-03-26T13:00:42Z</time></trkpt><trkpt lat="39.06195726166705" lon="8.970811613010897"><ele>58.0</ele><time>2026-03-26T13:00:43Z</time></trkpt><trkpt lat="39.062019735854946" lon="8.970943149518288"><ele>58.0</ele><time>2026-03-26T13:00:44Z</time></trkpt><trkpt lat="39.062082518231726" lon="8.971075334861816"><ele>58.0</ele><time>2026-03-26T13:00:45Z</time></trkpt><trkpt lat="39.06214605208164" lon="8.971209102581634"><ele>58.0</ele><time>2026-03-26T13:00:46Z</time></trkpt><trkpt lat="39.06221045625428" lon="8.97134441657556"><ele>58.0</ele><time>2026-03-26T13:00:47Z</time></trkpt><trkpt lat="39.062276318795114" lon="8.971482492435848"><ele>58.0</ele><time>2026-03-26T13:00:48Z</time></trkpt><trkpt lat="39.06234053813499" lon="8.971616824975081"><ele>58.0</ele><time>2026-03-26T13:00:49Z</time></trkpt><trkpt lat="39.06239630578623" lon="8.971733478143577"><ele>59.666666666666664</ele><time>2026-03-26T13:00:49.999Z</time></trkpt><trkpt lat="39.062464282091945" lon="8.971836303962515"><ele>61.33333333333333</ele><time>2026-03-26T13:00:50.999Z</time></trkpt><trkpt lat="39.062501388090084" lon="8.97195538695594"><ele>63.0</ele><time>2026-03-26T13:00:51.999Z</time></trkpt><trkpt lat="39.06254743713135" lon="8.972054091406962"><ele>64.66666666666667</ele><time>2026-03-26T13:00:52.999Z</time></trkpt><trkpt lat="39.062587787903105" lon="8.972140581647766"><ele>66.33333333333334</ele><time>2026-03-26T13:00:53.999Z</time></trkpt><trkpt lat="39.06262220205702" lon="8.972214347055065"><ele>68.0</ele><time>2026-03-26T13:00:54.999Z</time></trkpt><trkpt lat="39.06267733276258" lon="8.972332515391178"><ele>68.0</ele><time>2026-03-26T13:00:56.999Z</time></trkpt><trkpt lat="39.062692285003735" lon="8.972411479717982"><ele>68.0</ele><time>2026-03-26T13:00:58.999Z</time></trkpt><trkpt lat="39.06257173059432" lon="8.97239679766985"><ele>68.0</ele><time>2026-03-26T13:00:59.999Z</time></trkpt><trkpt lat="39.06249043266392" lon="8.972448917171258"><ele>68.0</ele><time>2026-03-26T13:01:00.999Z</time></trkpt><trkpt lat="39.062400538394385" lon="8.972507497508506"><ele>68.0</ele><time>2026-03-26T13:01:01.999Z</time></trkpt><trkpt lat="39.06230414681433" lon="8.97257521640958"><ele>67.8</ele><time>2026-03-26T13:01:02.999Z</time></trkpt><trkpt lat="39.0622114099816" lon="8.972665864757072"><ele>67.6</ele><time>2026-03-26T13:01:03.999Z</time></trkpt><trkpt lat="39.06212837367157" lon="8.972761180633634"><ele>67.4</ele><time>2026-03-26T13:01:04.999Z</time></trkpt><trkpt lat="39.062052075530985" lon="8.972857282888434"><ele>67.2</ele><time>2026-03-26T13:01:05.999Z</time></trkpt><trkpt lat="39.061976438338554" lon="8.972965161776521"><ele>67.0</ele><time>2026-03-26T13:01:06.999Z</time></trkpt><trkpt lat="39.06191157080733" lon="8.973087276716178"><ele>67.0</ele><time>2026-03-26T13:01:07.999Z</time></trkpt><trkpt lat="39.061908666594206" lon="8.973260380914226"><ele>67.0</ele><time>2026-03-26T13:01:08.999Z</time></trkpt><trkpt lat="39.06187944709376" lon="8.973433627268356"><ele>67.0</ele><time>2026-03-26T13:01:09.999Z</time></trkpt><trkpt lat="39.06184922204398" lon="8.973606350774343"><ele>67.0</ele><time>2026-03-26T13:01:10.999Z</time></trkpt><trkpt lat="39.061818965308724" lon="8.973778640481775"><ele>67.5</ele><time>2026-03-26T13:01:11.999Z</time></trkpt><trkpt lat="39.06175656195284" lon="8.973925112056115"><ele>68.0</ele><time>2026-03-26T13:01:12.999Z</time></trkpt><trkpt lat="39.06174516784045" lon="8.974074168571963"><ele>68.5</ele><time>2026-03-26T13:01:13.999Z</time></trkpt><trkpt lat="39.06174458306591" lon="8.974224135272667"><ele>69.0</ele><time>2026-03-26T13:01:14.999Z</time></trkpt><trkpt lat="39.06174833465541" lon="8.974376018179314"><ele>69.25</ele><time>2026-03-26T13:01:15.999Z</time></trkpt><trkpt lat="39.06175604138065" lon="8.974519406766202"><ele>69.5</ele><time>2026-03-26T13:01:16.999Z</time></trkpt><trkpt lat="39.06177053826247" lon="8.974663321378824"><ele>69.75</ele><time>2026-03-26T13:01:17.999Z</time></trkpt><trkpt lat="39.06179691359489" lon="8.974816284827952"><ele>70.0</ele><time>2026-03-26T13:01:18.999Z</time></trkpt><trkpt lat="39.06183151469465" lon="8.974970561497361"><ele>70.25</ele><time>2026-03-26T13:01:19.999Z</time></trkpt><trkpt lat="39.061878149651534" lon="8.975135750379405"><ele>70.5</ele><time>2026-03-26T13:01:20.999Z</time></trkpt><trkpt lat="39.06192600656374" lon="8.975289209016545"><ele>70.75</ele><time>2026-03-26T13:01:21.999Z</time></trkpt><trkpt lat="39.06197338926022" lon="8.975441177284287"><ele>71.0</ele><time>2026-03-26T13:01:22.999Z</time></trkpt><trkpt lat="39.062021263797135" lon="8.975594722919947"><ele>71.0</ele><time>2026-03-26T13:01:23.999Z</time></trkpt><trkpt lat="39.06206926223713" lon="8.975748665977177"><ele>71.0</ele><time>2026-03-26T13:01:24.999Z</time></trkpt><trkpt lat="39.06211814690128" lon="8.975903116970173"><ele>71.0</ele><time>2026-03-26T13:01:25.999Z</time></trkpt><trkpt lat="39.06216843312829" lon="8.976058802627689"><ele>71.0</ele><time>2026-03-26T13:01:26.999Z</time></trkpt><trkpt lat="39.0622202253546" lon="8.976213868114929"><ele>71.25</ele><time>2026-03-26T13:01:27.999Z</time></trkpt><trkpt lat="39.06226916978809" lon="8.976359042260665"><ele>71.5</ele><time>2026-03-26T13:01:28.999Z</time></trkpt><trkpt lat="39.06231530420518" lon="8.976498585909637"><ele>71.75</ele><time>2026-03-26T13:01:29.999Z</time></trkpt><trkpt lat="39.06236127334871" lon="8.97664571663925"><ele>72.0</ele><time>2026-03-26T13:01:30.999Z</time></trkpt><trkpt lat="39.06240594904907" lon="8.976796907240855"><ele>72.25</ele><time>2026-03-26T13:01:31.999Z</time></trkpt><trkpt lat="39.06245092298679" lon="8.97695783610045"><ele>72.5</ele><time>2026-03-26T13:01:32.999Z</time></trkpt><trkpt lat="39.06249606259264" lon="8.977128887028872"><ele>72.75</ele><time>2026-03-26T13:01:33.999Z</time></trkpt><trkpt lat="39.06254026697901" lon="8.977302462546817"><ele>73.0</ele><time>2026-03-26T13:01:34.999Z</time></trkpt><trkpt lat="39.062583354119006" lon="8.977473979426776"><ele>73.25</ele><time>2026-03-26T13:01:35.999Z</time></trkpt><trkpt lat="39.06262595644892" lon="8.9776439487408"><ele>73.5</ele><time>2026-03-26T13:01:36.999Z</time></trkpt><trkpt lat="39.06267044771302" lon="8.977805678276576"><ele>73.75</ele><time>2026-03-26T13:01:37.999Z</time></trkpt><trkpt lat="39.062719203400945" lon="8.97795366279144"><ele>74.0</ele><time>2026-03-26T13:01:38.999Z</time></trkpt><trkpt lat="39.06276288278535" lon="8.978082939203194"><ele>74.0</ele><time>2026-03-26T13:01:39.999Z</time></trkpt><trkpt lat="39.06279896836792" lon="8.978201822592354"><ele>74.0</ele><time>2026-03-26T13:01:40.999Z</time></trkpt><trkpt lat="39.06282683810748" lon="8.978313995459569"><ele>74.0</ele><time>2026-03-26T13:01:41.999Z</time></trkpt><trkpt lat="39.062839309735395" lon="8.978423788249897"><ele>74.0</ele><time>2026-03-26T13:01:42.998Z</time></trkpt><trkpt lat="39.062860106711504" lon="8.978545469219716"><ele>74.0</ele><time>2026-03-26T13:01:43.998Z</time></trkpt><trkpt lat="39.06281396191482" lon="8.978680448713313"><ele>74.25</ele><time>2026-03-26T13:01:44.998Z</time></trkpt><trkpt lat="39.06275872276249" lon="8.97882870253536"><ele>74.5</ele><time>2026-03-26T13:01:45.998Z</time></trkpt><trkpt lat="39.062722283454065" lon="8.978985148549254"><ele>74.75</ele><time>2026-03-26T13:01:47Z</time></trkpt><trkpt lat="39.06266180732722" lon="8.979141701902426"><ele>75.0</ele><time>2026-03-26T13:01:48Z</time></trkpt><trkpt lat="39.062653619736984" lon="8.979306555739527"><ele>75.0</ele><time>2026-03-26T13:01:49Z</time></trkpt><trkpt lat="39.06266267333785" lon="8.97947685267747"><ele>75.0</ele><time>2026-03-26T13:01:50Z</time></trkpt><trkpt lat="39.062682843537004" lon="8.979639492976414"><ele>75.0</ele><time>2026-03-26T13:01:51Z</time></trkpt><trkpt lat="39.062700207425095" lon="8.97979134485731"><ele>75.0</ele><time>2026-03-26T13:01:52Z</time></trkpt><trkpt lat="39.06270313602513" lon="8.979934899012115"><ele>74.5</ele><time>2026-03-26T13:01:53Z</time></trkpt><trkpt lat="39.06269534216659" lon="8.980081734525978"><ele>74.0</ele><time>2026-03-26T13:01:54Z</time></trkpt><trkpt lat="39.06267998005569" lon="8.980225151064278"><ele>73.5</ele><time>2026-03-26T13:01:55Z</time></trkpt><trkpt lat="39.06265672027288" lon="8.98037266227881"><ele>73.0</ele><time>2026-03-26T13:01:56Z</time></trkpt><trkpt lat="39.062627529803216" lon="8.980521895113439"><ele>73.0</ele><time>2026-03-26T13:01:57Z</time></trkpt><trkpt lat="39.06260249256822" lon="8.980682327960766"><ele>73.0</ele><time>2026-03-26T13:01:58Z</time></trkpt><trkpt lat="39.06258208083344" lon="8.980842954762725"><ele>73.0</ele><time>2026-03-26T13:01:59Z</time></trkpt><trkpt lat="39.06256231223174" lon="8.981007215562368"><ele>73.0</ele><time>2026-03-26T13:02:00Z</time></trkpt><trkpt lat="39.062544188360945" lon="8.981173678375361"><ele>72.75</ele><time>2026-03-26T13:02:01Z</time></trkpt><trkpt lat="39.06252595821044" lon="8.981341558088959"><ele>72.5</ele><time>2026-03-26T13:02:02Z</time></trkpt><trkpt lat="39.062513187844516" lon="8.981514726413744"><ele>72.25</ele><time>2026-03-26T13:02:03Z</time></trkpt><trkpt lat="39.06251253602053" lon="8.98168515091476"><ele>72.0</ele><time>2026-03-26T13:02:04Z</time></trkpt><trkpt lat="39.06251550946571" lon="8.981836576470323"><ele>72.0</ele><time>2026-03-26T13:02:05Z</time></trkpt><trkpt lat="39.06251725001429" lon="8.981983301536017"><ele>72.0</ele><time>2026-03-26T13:02:05.999Z</time></trkpt><trkpt lat="39.06251846734371" lon="8.982134382427487"><ele>72.0</ele><time>2026-03-26T13:02:06.999Z</time></trkpt><trkpt lat="39.06251971335696" lon="8.982289023130543"><ele>72.0</ele><time>2026-03-26T13:02:07.999Z</time></trkpt><trkpt lat="39.06252097655618" lon="8.982445796827177"><ele>71.75</ele><time>2026-03-26T13:02:08.999Z</time></trkpt><trkpt lat="39.06252223473231" lon="8.98260194714877"><ele>71.5</ele><time>2026-03-26T13:02:09.999Z</time></trkpt><trkpt lat="39.062523534269964" lon="8.982763230666096"><ele>71.25</ele><time>2026-03-26T13:02:10.999Z</time></trkpt><trkpt lat="39.062524879323064" lon="8.982930163112934"><ele>71.0</ele><time>2026-03-26T13:02:11.999Z</time></trkpt><trkpt lat="39.06252810660757" lon="8.983101836158907"><ele>71.0</ele><time>2026-03-26T13:02:12.999Z</time></trkpt><trkpt lat="39.06253166116638" lon="8.983277862503662"><ele>71.0</ele><time>2026-03-26T13:02:13.999Z</time></trkpt><trkpt lat="39.06253579407233" lon="8.983455179340751"><ele>71.0</ele><time>2026-03-26T13:02:14.999Z</time></trkpt><trkpt lat="39.06254149796671" lon="8.983621966815212"><ele>71.0</ele><time>2026-03-26T13:02:15.999Z</time></trkpt><trkpt lat="39.06255126918302" lon="8.983792327680696"><ele>71.0</ele><time>2026-03-26T13:02:16.999Z</time></trkpt><trkpt lat="39.062566583967595" lon="8.983968030053836"><ele>71.0</ele><time>2026-03-26T13:02:17.999Z</time></trkpt><trkpt lat="39.062586486509495" lon="8.98414392724261"><ele>71.0</ele><time>2026-03-26T13:02:18.999Z</time></trkpt><trkpt lat="39.06261086730636" lon="8.984317869049397"><ele>71.0</ele><time>2026-03-26T13:02:19.999Z</time></trkpt><trkpt lat="39.06263996341804" lon="8.984488113264565"><ele>71.0</ele><time>2026-03-26T13:02:20.999Z</time></trkpt><trkpt lat="39.062672081476144" lon="8.98464922401476"><ele>71.0</ele><time>2026-03-26T13:02:21.999Z</time></trkpt><trkpt lat="39.062707107416486" lon="8.984814033155724"><ele>71.0</ele><time>2026-03-26T13:02:22.999Z</time></trkpt><trkpt lat="39.06274264955693" lon="8.984980836463226"><ele>71.0</ele><time>2026-03-26T13:02:23.999Z</time></trkpt><trkpt lat="39.06277682414149" lon="8.985143870729702"><ele>71.0</ele><time>2026-03-26T13:02:24.999Z</time></trkpt><trkpt lat="39.062795433020746" lon="8.985311294574647"><ele>71.0</ele><time>2026-03-26T13:02:25.999Z</time></trkpt><trkpt lat="39.06280519159825" lon="8.985497265467195"><ele>71.0</ele><time>2026-03-26T13:02:26.999Z</time></trkpt><trkpt lat="39.06281207626591" lon="8.985690830283074"><ele>71.0</ele><time>2026-03-26T13:02:27.999Z</time></trkpt><trkpt lat="39.06281691220756" lon="8.98586217714799"><ele>70.75</ele><time>2026-03-26T13:02:28.999Z</time></trkpt><trkpt lat="39.062821599702495" lon="8.986021212071199"><ele>70.5</ele><time>2026-03-26T13:02:29.999Z</time></trkpt><trkpt lat="39.06283249686239" lon="8.986174877868654"><ele>70.25</ele><time>2026-03-26T13:02:30.999Z</time></trkpt><trkpt lat="39.06286495867013" lon="8.986337645619813"><ele>70.0</ele><time>2026-03-26T13:02:31.999Z</time></trkpt><trkpt lat="39.062928871229914" lon="8.986496782664677"><ele>70.0</ele><time>2026-03-26T13:02:32.999Z</time></trkpt><trkpt lat="39.06299947330563" lon="8.986655200162506"><ele>70.0</ele><time>2026-03-26T13:02:33.999Z</time></trkpt><trkpt lat="39.06307142820278" lon="8.986812550691734"><ele>70.0</ele><time>2026-03-26T13:02:34.999Z</time></trkpt><trkpt lat="39.06314047817643" lon="8.986950745997197"><ele>70.0</ele><time>2026-03-26T13:02:35.999Z</time></trkpt><trkpt lat="39.063206844089656" lon="8.987077934936124"><ele>69.8</ele><time>2026-03-26T13:02:36.999Z</time></trkpt><trkpt lat="39.06326988186876" lon="8.987198745644855"><ele>69.6</ele><time>2026-03-26T13:02:37.999Z</time></trkpt><trkpt lat="39.0633248174296" lon="8.987316584686548"><ele>69.4</ele><time>2026-03-26T13:02:38.999Z</time></trkpt><trkpt lat="39.06335262786823" lon="8.987446561253162"><ele>69.2</ele><time>2026-03-26T13:02:39.999Z</time></trkpt><trkpt lat="39.063355137066765" lon="8.987590138872758"><ele>69.0</ele><time>2026-03-26T13:02:40.999Z</time></trkpt><trkpt lat="39.063357136006694" lon="8.987750786167235"><ele>68.75</ele><time>2026-03-26T13:02:41.999Z</time></trkpt><trkpt lat="39.063365530405186" lon="8.987930109691366"><ele>68.5</ele><time>2026-03-26T13:02:42.999Z</time></trkpt><trkpt lat="39.06337820064523" lon="8.988092106986683"><ele>68.25</ele><time>2026-03-26T13:02:43.999Z</time></trkpt><trkpt lat="39.06339014886197" lon="8.988242290392911"><ele>68.0</ele><time>2026-03-26T13:02:44.999Z</time></trkpt><trkpt lat="39.06340249355392" lon="8.98838465103139"><ele>67.4</ele><time>2026-03-26T13:02:45.999Z</time></trkpt><trkpt lat="39.06341249004615" lon="8.98851265132279"><ele>66.8</ele><time>2026-03-26T13:02:46.999Z</time></trkpt><trkpt lat="39.06340535255623" lon="8.988624789237534"><ele>66.2</ele><time>2026-03-26T13:02:47.999Z</time></trkpt><trkpt lat="39.06336931057343" lon="8.988720144868202"><ele>65.6</ele><time>2026-03-26T13:02:48.999Z</time></trkpt><trkpt lat="39.06331359157455" lon="8.988827212111753"><ele>65.0</ele><time>2026-03-26T13:02:49.999Z</time></trkpt><trkpt lat="39.063256403816446" lon="8.988922576786253"><ele>65.0</ele><time>2026-03-26T13:02:50.999Z</time></trkpt><trkpt lat="39.06319378370777" lon="8.989027691708854"><ele>65.0</ele><time>2026-03-26T13:02:51.999Z</time></trkpt><trkpt lat="39.0631186751299" lon="8.98913411749947"><ele>65.0</ele><time>2026-03-26T13:02:52.999Z</time></trkpt><trkpt lat="39.063030641509954" lon="8.98923282191305"><ele>65.0</ele><time>2026-03-26T13:02:53.999Z</time></trkpt><trkpt lat="39.062952194340234" lon="8.989355089951333"><ele>65.0</ele><time>2026-03-26T13:02:54.999Z</time></trkpt><trkpt lat="39.06287191034129" lon="8.989501465242592"><ele>65.0</ele><time>2026-03-26T13:02:55.999Z</time></trkpt><trkpt lat="39.06281973281273" lon="8.989675126594639"><ele>65.0</ele><time>2026-03-26T13:02:56.999Z</time></trkpt><trkpt lat="39.0627840756352" lon="8.989831171685056"><ele>65.0</ele><time>2026-03-26T13:02:57.999Z</time></trkpt><trkpt lat="39.062763148569026" lon="8.989995539449922"><ele>65.0</ele><time>2026-03-26T13:02:58.999Z</time></trkpt><trkpt lat="39.0627642279604" lon="8.990143759973966"><ele>65.0</ele><time>2026-03-26T13:02:59.999Z</time></trkpt><trkpt lat="39.06277423690812" lon="8.990269605208585"><ele>65.0</ele><time>2026-03-26T13:03:00.999Z</time></trkpt><trkpt lat="39.062786999300265" lon="8.990379773082406"><ele>65.0</ele><time>2026-03-26T13:03:01.999Z</time></trkpt><trkpt lat="39.06280258157004" lon="8.990465037157692"><ele>65.0</ele><time>2026-03-26T13:03:02.999Z</time></trkpt><trkpt lat="39.06282938326576" lon="8.99056174552216"><ele>65.0</ele><time>2026-03-26T13:03:04.999Z</time></trkpt><trkpt lat="39.06300170121457" lon="8.990443883337797"><ele>65.0</ele><time>2026-03-26T13:03:06.999Z</time></trkpt><trkpt lat="39.06311569881161" lon="8.99016435405877"><ele>65.0</ele><time>2026-03-26T13:03:08.999Z</time></trkpt><trkpt lat="39.06320332325942" lon="8.990160201952172"><ele>65.0</ele><time>2026-03-26T13:03:09.999Z</time></trkpt><trkpt lat="39.063278346086854" lon="8.990169604229768"><ele>65.0</ele><time>2026-03-26T13:03:10.999Z</time></trkpt><trkpt lat="39.06336200972383" lon="8.990222510360937"><ele>65.6</ele><time>2026-03-26T13:03:11.999Z</time></trkpt><trkpt lat="39.06347695763524" lon="8.99025993709647"><ele>66.2</ele><time>2026-03-26T13:03:13.999Z</time></trkpt><trkpt lat="39.06354121950452" lon="8.990297124281282"><ele>66.8</ele><time>2026-03-26T13:03:14.999Z</time></trkpt><trkpt lat="39.063636211315895" lon="8.990319273878322"><ele>67.4</ele><time>2026-03-26T13:03:15.999Z</time></trkpt><trkpt lat="39.06374674553002" lon="8.990359798399098"><ele>68.0</ele><time>2026-03-26T13:03:16.999Z</time></trkpt><trkpt lat="39.06385044471837" lon="8.990395088429112"><ele>68.0</ele><time>2026-03-26T13:03:17.999Z</time></trkpt><trkpt lat="39.06395056677728" lon="8.990423809067178"><ele>68.0</ele><time>2026-03-26T13:03:18.999Z</time></trkpt><trkpt lat="39.06404531801145" lon="8.990447766489101"><ele>68.0</ele><time>2026-03-26T13:03:19.999Z</time></trkpt><trkpt lat="39.06412436646582" lon="8.990504273332666"><ele>68.0</ele><time>2026-03-26T13:03:20.999Z</time></trkpt><trkpt lat="39.06413000477359" lon="8.990649786560082"><ele>68.0</ele><time>2026-03-26T13:03:21.999Z</time></trkpt><trkpt lat="39.064230118857296" lon="8.990765866046342"><ele>68.25</ele><time>2026-03-26T13:03:22.999Z</time></trkpt><trkpt lat="39.06427710744638" lon="8.990919929837728"><ele>68.5</ele><time>2026-03-26T13:03:23.999Z</time></trkpt><trkpt lat="39.06432734781501" lon="8.991059589028852"><ele>68.75</ele><time>2026-03-26T13:03:24.999Z</time></trkpt><trkpt lat="39.06430317060756" lon="8.991218969396984"><ele>69.0</ele><time>2026-03-26T13:03:25.999Z</time></trkpt><trkpt lat="39.06430975437566" lon="8.991392494769078"><ele>69.0</ele><time>2026-03-26T13:03:26.999Z</time></trkpt><trkpt lat="39.06432067625319" lon="8.991571239864953"><ele>69.0</ele><time>2026-03-26T13:03:27.999Z</time></trkpt><trkpt lat="39.064337864423436" lon="8.9917424508481"><ele>69.0</ele><time>2026-03-26T13:03:28.999Z</time></trkpt><trkpt lat="39.06438094453134" lon="8.991915761844648"><ele>69.0</ele><time>2026-03-26T13:03:29.999Z</time></trkpt><trkpt lat="39.06444661689735" lon="8.992101673378695"><ele>69.33333333333333</ele><time>2026-03-26T13:03:30.999Z</time></trkpt><trkpt lat="39.06450487881026" lon="8.992294742598796"><ele>69.66666666666666</ele><time>2026-03-26T13:03:31.999Z</time></trkpt><trkpt lat="39.06455858220545" lon="8.992478000961135"><ele>70.0</ele><time>2026-03-26T13:03:32.999Z</time></trkpt><trkpt lat="39.064609639386816" lon="8.992653909939394"><ele>71.25</ele><time>2026-03-26T13:03:33.999Z</time></trkpt><trkpt lat="39.064658501301935" lon="8.992825680564769"><ele>72.5</ele><time>2026-03-26T13:03:34.999Z</time></trkpt><trkpt lat="39.064705534553006" lon="8.992993530766487"><ele>73.75</ele><time>2026-03-26T13:03:35.999Z</time></trkpt><trkpt lat="39.06474878347355" lon="8.993147875591692"><ele>75.0</ele><time>2026-03-26T13:03:36.999Z</time></trkpt><trkpt lat="39.06478783537275" lon="8.993291562896188"><ele>74.8</ele><time>2026-03-26T13:03:37.999Z</time></trkpt><trkpt lat="39.064824246093245" lon="8.993426097514435"><ele>74.6</ele><time>2026-03-26T13:03:38.999Z</time></trkpt><trkpt lat="39.06485880706559" lon="8.993558773062457"><ele>74.4</ele><time>2026-03-26T13:03:39.999Z</time></trkpt><trkpt lat="39.064890758436064" lon="8.993689819868212"><ele>74.2</ele><time>2026-03-26T13:03:40.999Z</time></trkpt><trkpt lat="39.06492365104731" lon="8.993833810691907"><ele>74.0</ele><time>2026-03-26T13:03:41.999Z</time></trkpt><trkpt lat="39.06496170592909" lon="8.993994079780313"><ele>74.0</ele><time>2026-03-26T13:03:42.999Z</time></trkpt><trkpt lat="39.06500083966312" lon="8.994155111490993"><ele>74.0</ele><time>2026-03-26T13:03:43.999Z</time></trkpt><trkpt lat="39.06503922206546" lon="8.994307026508872"><ele>74.0</ele><time>2026-03-26T13:03:44.999Z</time></trkpt><trkpt lat="39.06507546289509" lon="8.994446354654302"><ele>74.0</ele><time>2026-03-26T13:03:45.999Z</time></trkpt><trkpt lat="39.065113996980294" lon="8.99457214809969"><ele>72.60000000000001</ele><time>2026-03-26T13:03:46.999Z</time></trkpt><trkpt lat="39.06517001913873" lon="8.994695733331218"><ele>71.2</ele><time>2026-03-26T13:03:47.999Z</time></trkpt><trkpt lat="39.06525473030284" lon="8.994785424472747"><ele>69.80000000000001</ele><time>2026-03-26T13:03:48.999Z</time></trkpt><trkpt lat="39.06533102714344" lon="8.994868696178035"><ele>68.4</ele><time>2026-03-26T13:03:49.999Z</time></trkpt><trkpt lat="39.065398878705636" lon="8.994957046287032"><ele>67.0</ele><time>2026-03-26T13:03:50.999Z</time></trkpt><trkpt lat="39.065482571796636" lon="8.995004264928236"><ele>66.4</ele><time>2026-03-26T13:03:51.999Z</time></trkpt><trkpt lat="39.06555210248079" lon="8.995071769022589"><ele>65.80000000000001</ele><time>2026-03-26T13:03:53Z</time></trkpt><trkpt lat="39.065623818426005" lon="8.995142025087898"><ele>65.2</ele><time>2026-03-26T13:03:54Z</time></trkpt><trkpt lat="39.065673433299004" lon="8.99524193736613"><ele>64.60000000000001</ele><time>2026-03-26T13:03:55Z</time></trkpt><trkpt lat="39.06571464492214" lon="8.995358111637604"><ele>64.0</ele><time>2026-03-26T13:03:56Z</time></trkpt><trkpt lat="39.06576002606697" lon="8.995491555790963"><ele>62.5</ele><time>2026-03-26T13:03:57Z</time></trkpt><trkpt lat="39.06580443043726" lon="8.995633727925213"><ele>61.0</ele><time>2026-03-26T13:03:58Z</time></trkpt><trkpt lat="39.065848560941276" lon="8.995780088381634"><ele>59.5</ele><time>2026-03-26T13:03:59Z</time></trkpt><trkpt lat="39.0658840747453" lon="8.995913603640695"><ele>58.0</ele><time>2026-03-26T13:04:00Z</time></trkpt><trkpt lat="39.065904912207294" lon="8.996052963716377"><ele>57.5</ele><time>2026-03-26T13:04:01Z</time></trkpt><trkpt lat="39.06589577410519" lon="8.99619541855273"><ele>57.0</ele><time>2026-03-26T13:04:02Z</time></trkpt><trkpt lat="39.06588740965306" lon="8.996354276817184"><ele>56.5</ele><time>2026-03-26T13:04:03Z</time></trkpt><trkpt lat="39.06587359424203" lon="8.996509298327611"><ele>56.0</ele><time>2026-03-26T13:04:04Z</time></trkpt><trkpt lat="39.065847509582824" lon="8.996662155279399"><ele>55.75</ele><time>2026-03-26T13:04:05Z</time></trkpt><trkpt lat="39.065820122364954" lon="8.99681754730553"><ele>55.5</ele><time>2026-03-26T13:04:06Z</time></trkpt><trkpt lat="39.065817894878975" lon="8.996984770722328"><ele>55.25</ele><time>2026-03-26T13:04:07Z</time></trkpt><trkpt lat="39.06582764236215" lon="8.997151509858272"><ele>55.0</ele><time>2026-03-26T13:04:08Z</time></trkpt><trkpt lat="39.065845294127655" lon="8.997316808294736"><ele>55.0</ele><time>2026-03-26T13:04:09Z</time></trkpt><trkpt lat="39.065871649112445" lon="8.997482782707392"><ele>55.0</ele><time>2026-03-26T13:04:10Z</time></trkpt><trkpt lat="39.065895283447496" lon="8.997637554656912"><ele>55.0</ele><time>2026-03-26T13:04:11Z</time></trkpt><trkpt lat="39.06591282971077" lon="8.997787189196934"><ele>55.0</ele><time>2026-03-26T13:04:12Z</time></trkpt><trkpt lat="39.065921233701296" lon="8.99792368542869"><ele>54.0</ele><time>2026-03-26T13:04:13Z</time></trkpt><trkpt lat="39.06590487702759" lon="8.998049291081848"><ele>53.0</ele><time>2026-03-26T13:04:14Z</time></trkpt><trkpt lat="39.06584673423885" lon="8.99815958181671"><ele>52.0</ele><time>2026-03-26T13:04:15Z</time></trkpt><trkpt lat="39.06578039102439" lon="8.998295023138477"><ele>51.0</ele><time>2026-03-26T13:04:16Z</time></trkpt><trkpt lat="39.06570766317816" lon="8.998436526871089"><ele>51.0</ele><time>2026-03-26T13:04:17Z</time></trkpt><trkpt lat="39.06563864464328" lon="8.998586952855634"><ele>51.0</ele><time>2026-03-26T13:04:17.999Z</time></trkpt><trkpt lat="39.06557224064924" lon="8.998742659943797"><ele>51.0</ele><time>2026-03-26T13:04:18.999Z</time></trkpt><trkpt lat="39.06551914610511" lon="8.99890830660148"><ele>51.0</ele><time>2026-03-26T13:04:19.999Z</time></trkpt><trkpt lat="39.06548588609738" lon="8.999089023622568"><ele>50.75</ele><time>2026-03-26T13:04:20.999Z</time></trkpt><trkpt lat="39.06546498700167" lon="8.999263325577475"><ele>50.5</ele><time>2026-03-26T13:04:21.999Z</time></trkpt><trkpt lat="39.065446539597865" lon="8.999440676807609"><ele>50.25</ele><time>2026-03-26T13:04:22.999Z</time></trkpt><trkpt lat="39.0654317242059" lon="8.999615375130068"><ele>50.0</ele><time>2026-03-26T13:04:23.999Z</time></trkpt><trkpt lat="39.065416945147206" lon="8.99979223623235"><ele>50.0</ele><time>2026-03-26T13:04:24.999Z</time></trkpt><trkpt lat="39.06540197116095" lon="8.99997246920371"><ele>50.0</ele><time>2026-03-26T13:04:25.999Z</time></trkpt><trkpt lat="39.06538585497039" lon="9.000152676852741"><ele>50.0</ele><time>2026-03-26T13:04:26.999Z</time></trkpt><trkpt lat="39.065368913007866" lon="9.000336279645637"><ele>50.0</ele><time>2026-03-26T13:04:27.999Z</time></trkpt><trkpt lat="39.06535222195957" lon="9.000517163176806"><ele>50.0</ele><time>2026-03-26T13:04:28.999Z</time></trkpt><trkpt lat="39.06533717014863" lon="9.000686917851182"><ele>50.0</ele><time>2026-03-26T13:04:29.999Z</time></trkpt><trkpt lat="39.065322899911415" lon="9.000849280419281"><ele>50.0</ele><time>2026-03-26T13:04:30.999Z</time></trkpt><trkpt lat="39.065308813177275" lon="9.001011941574065"><ele>50.0</ele><time>2026-03-26T13:04:31.999Z</time></trkpt><trkpt lat="39.0652944794784" lon="9.001180333839608"><ele>49.5</ele><time>2026-03-26T13:04:32.999Z</time></trkpt><trkpt lat="39.065277757031666" lon="9.001353803002047"><ele>49.0</ele><time>2026-03-26T13:04:33.999Z</time></trkpt><trkpt lat="39.0652597508595" lon="9.001527484093211"><ele>48.5</ele><time>2026-03-26T13:04:34.999Z</time></trkpt><trkpt lat="39.06523644031257" lon="9.001690938681918"><ele>48.0</ele><time>2026-03-26T13:04:35.999Z</time></trkpt><trkpt lat="39.065195373198875" lon="9.00184222866994"><ele>47.75</ele><time>2026-03-26T13:04:36.999Z</time></trkpt><trkpt lat="39.06514417296808" lon="9.00198892845768"><ele>47.5</ele><time>2026-03-26T13:04:37.999Z</time></trkpt><trkpt lat="39.065088971862316" lon="9.002146264650525"><ele>47.25</ele><time>2026-03-26T13:04:38.999Z</time></trkpt><trkpt lat="39.065034047688236" lon="9.002310460083343"><ele>47.0</ele><time>2026-03-26T13:04:39.999Z</time></trkpt><trkpt lat="39.064981867454996" lon="9.002453201190914"><ele>46.0</ele><time>2026-03-26T13:04:40.999Z</time></trkpt><trkpt lat="39.064939065609686" lon="9.002593777205481"><ele>45.0</ele><time>2026-03-26T13:04:41.999Z</time></trkpt><trkpt lat="39.064872132695754" lon="9.002707924599488"><ele>44.0</ele><time>2026-03-26T13:04:42.999Z</time></trkpt><trkpt lat="39.06482012319488" lon="9.00281783256879"><ele>43.0</ele><time>2026-03-26T13:04:43.999Z</time></trkpt><trkpt lat="39.06477070318308" lon="9.002918658503589"><ele>42.0</ele><time>2026-03-26T13:04:44.999Z</time></trkpt><trkpt lat="39.06472033020252" lon="9.003014345811039"><ele>42.0</ele><time>2026-03-26T13:04:45.999Z</time></trkpt><trkpt lat="39.06467072445362" lon="9.003105658224333"><ele>42.0</ele><time>2026-03-26T13:04:46.999Z</time></trkpt><trkpt lat="39.06461783284049" lon="9.003197811385391"><ele>42.0</ele><time>2026-03-26T13:04:47.999Z</time></trkpt><trkpt lat="39.06457322985672" lon="9.003275523190519"><ele>42.0</ele><time>2026-03-26T13:04:48.999Z</time></trkpt><trkpt lat="39.06453468008866" lon="9.00334268843868"><ele>42.0</ele><time>2026-03-26T13:04:49.999Z</time></trkpt><trkpt lat="39.06450741519032" lon="9.003420138895924"><ele>42.0</ele><time>2026-03-26T13:04:51.999Z</time></trkpt><trkpt lat="39.06468589769504" lon="9.003561564241153"><ele>41.4</ele><time>2026-03-26T13:04:52.999Z</time></trkpt><trkpt lat="39.064771629213155" lon="9.00362306648766"><ele>40.800000000000004</ele><time>2026-03-26T13:04:53.999Z</time></trkpt><trkpt lat="39.064856942844365" lon="9.00367836983351"><ele>40.2</ele><time>2026-03-26T13:04:54.999Z</time></trkpt><trkpt lat="39.06494774538566" lon="9.003714011239737"><ele>39.6</ele><time>2026-03-26T13:04:55.999Z</time></trkpt><trkpt lat="39.06504490962161" lon="9.00377153693645"><ele>39.0</ele><time>2026-03-26T13:04:56.999Z</time></trkpt><trkpt lat="39.06512943745844" lon="9.00382323546181"><ele>38.833333333333336</ele><time>2026-03-26T13:04:57.999Z</time></trkpt><trkpt lat="39.0652196294106" lon="9.003861946776654"><ele>38.666666666666664</ele><time>2026-03-26T13:04:58.999Z</time></trkpt><trkpt lat="39.065295523598884" lon="9.003899329459388"><ele>38.5</ele><time>2026-03-26T13:04:59.999Z</time></trkpt><trkpt lat="39.065355332587735" lon="9.003952227811379"><ele>38.33333333333333</ele><time>2026-03-26T13:05:00.999Z</time></trkpt><trkpt lat="39.06541431430888" lon="9.003991961754942"><ele>38.166666666666664</ele><time>2026-03-26T13:05:01.999Z</time></trkpt><trkpt lat="39.06547810006938" lon="9.00399317312521"><ele>38.0</ele><time>2026-03-26T13:05:02.999Z</time></trkpt><trkpt lat="39.065559668340434" lon="9.003962953578691"><ele>38.0</ele><time>2026-03-26T13:05:03.999Z</time></trkpt><trkpt lat="39.065635505891485" lon="9.003950356864634"><ele>38.0</ele><time>2026-03-26T13:05:04.999Z</time></trkpt><trkpt lat="39.06570367565072" lon="9.003984720989122"><ele>38.0</ele><time>2026-03-26T13:05:05.999Z</time></trkpt><trkpt lat="39.06576607409406" lon="9.004048630350137"><ele>38.0</ele><time>2026-03-26T13:05:06.999Z</time></trkpt><trkpt lat="39.065812999698565" lon="9.004124528805264"><ele>38.0</ele><time>2026-03-26T13:05:07.999Z</time></trkpt><trkpt lat="39.065847323629434" lon="9.004214108386956"><ele>38.0</ele><time>2026-03-26T13:05:08.999Z</time></trkpt><trkpt lat="39.06588963213857" lon="9.00433248584815"><ele>38.25</ele><time>2026-03-26T13:05:09.999Z</time></trkpt><trkpt lat="39.06595271594091" lon="9.004464691487682"><ele>38.5</ele><time>2026-03-26T13:05:10.999Z</time></trkpt><trkpt lat="39.06604624901301" lon="9.00459876029654"><ele>38.75</ele><time>2026-03-26T13:05:11.999Z</time></trkpt><trkpt lat="39.066155734210994" lon="9.004730715255635"><ele>39.0</ele><time>2026-03-26T13:05:12.999Z</time></trkpt><trkpt lat="39.06625545081919" lon="9.004850580369148"><ele>39.0</ele><time>2026-03-26T13:05:13.999Z</time></trkpt><trkpt lat="39.06634047490788" lon="9.004951645222103"><ele>39.0</ele><time>2026-03-26T13:05:14.999Z</time></trkpt><trkpt lat="39.06641865159375" lon="9.005042294535135"><ele>39.0</ele><time>2026-03-26T13:05:15.999Z</time></trkpt><trkpt lat="39.06647526492237" lon="9.005146536682766"><ele>39.0</ele><time>2026-03-26T13:05:16.999Z</time></trkpt><trkpt lat="39.06649702700094" lon="9.005284657832595"><ele>39.0</ele><time>2026-03-26T13:05:17.999Z</time></trkpt><trkpt lat="39.066496850660045" lon="9.005456646120898"><ele>38.4</ele><time>2026-03-26T13:05:18.999Z</time></trkpt><trkpt lat="39.066496123957855" lon="9.005619383963921"><ele>37.8</ele><time>2026-03-26T13:05:19.999Z</time></trkpt><trkpt lat="39.06650163725363" lon="9.005747781367686"><ele>37.2</ele><time>2026-03-26T13:05:20.999Z</time></trkpt><trkpt lat="39.066509057709816" lon="9.005847373325704"><ele>36.6</ele><time>2026-03-26T13:05:21.999Z</time></trkpt><trkpt lat="39.06651632361163" lon="9.005930622675507"><ele>36.0</ele><time>2026-03-26T13:05:22.999Z</time></trkpt><trkpt lat="39.06651258780597" lon="9.00605210931526"><ele>35.833333333333336</ele><time>2026-03-26T13:05:24.999Z</time></trkpt><trkpt lat="39.06645073330722" lon="9.006114240318276"><ele>35.666666666666664</ele><time>2026-03-26T13:05:28.999Z</time></trkpt><trkpt lat="39.06640718729969" lon="9.006179676858267"><ele>35.5</ele><time>2026-03-26T13:05:29.999Z</time></trkpt><trkpt lat="39.06635170216469" lon="9.006263052636795"><ele>35.33333333333333</ele><time>2026-03-26T13:05:30.999Z</time></trkpt><trkpt lat="39.066295302246914" lon="9.006347802882633"><ele>35.166666666666664</ele><time>2026-03-26T13:05:31.999Z</time></trkpt><trkpt lat="39.066247826089764" lon="9.006419269707207"><ele>35.0</ele><time>2026-03-26T13:05:32.999Z</time></trkpt><trkpt lat="39.06619099894402" lon="9.006555946533192"><ele>35.0</ele><time>2026-03-26T13:05:34.999Z</time></trkpt><trkpt lat="39.06613252037583" lon="9.006646843672419"><ele>35.0</ele><time>2026-03-26T13:05:36.999Z</time></trkpt><trkpt lat="39.06608988097293" lon="9.006708058662394"><ele>35.0</ele><time>2026-03-26T13:05:38.999Z</time></trkpt><trkpt lat="39.06603306838072" lon="9.006743192697149"><ele>35.0</ele><time>2026-03-26T13:05:41.999Z</time></trkpt><trkpt lat="39.06598233607807" lon="9.006809355652392"><ele>35.0</ele><time>2026-03-26T13:05:47.999Z</time></trkpt><trkpt lat="39.06607418185076" lon="9.006933106883169"><ele>35.0</ele><time>2026-03-26T13:05:48.999Z</time></trkpt><trkpt lat="39.06613687813468" lon="9.00700775301985"><ele>35.2</ele><time>2026-03-26T13:05:49.999Z</time></trkpt><trkpt lat="39.066208961672466" lon="9.00707130882127"><ele>35.4</ele><time>2026-03-26T13:05:50.999Z</time></trkpt><trkpt lat="39.06629032525565" lon="9.007144244399914"><ele>35.6</ele><time>2026-03-26T13:05:51.999Z</time></trkpt><trkpt lat="39.0663751569614" lon="9.00722318140441"><ele>35.8</ele><time>2026-03-26T13:05:52.999Z</time></trkpt><trkpt lat="39.066465940169415" lon="9.00730815370876"><ele>36.0</ele><time>2026-03-26T13:05:53.999Z</time></trkpt><trkpt lat="39.0665597421745" lon="9.007392691179817"><ele>35.5</ele><time>2026-03-26T13:05:54.999Z</time></trkpt><trkpt lat="39.066644147002975" lon="9.007465752052907"><ele>35.0</ele><time>2026-03-26T13:05:55.999Z</time></trkpt><trkpt lat="39.06671986454384" lon="9.00753205593895"><ele>34.5</ele><time>2026-03-26T13:05:56.999Z</time></trkpt><trkpt lat="39.06679384729431" lon="9.007599091453573"><ele>34.0</ele><time>2026-03-26T13:05:57.999Z</time></trkpt><trkpt lat="39.0668602998615" lon="9.007659303923704"><ele>33.5</ele><time>2026-03-26T13:05:59Z</time></trkpt><trkpt lat="39.066926443130804" lon="9.007719236168276"><ele>33.0</ele><time>2026-03-26T13:06:00Z</time></trkpt><trkpt lat="39.0669921990119" lon="9.007754959887828"><ele>32.8</ele><time>2026-03-26T13:06:01Z</time></trkpt><trkpt lat="39.06706966204468" lon="9.007837948908765"><ele>32.599999999999994</ele><time>2026-03-26T13:06:03Z</time></trkpt><trkpt lat="39.06715864506238" lon="9.007912468013782"><ele>32.400000000000006</ele><time>2026-03-26T13:06:05Z</time></trkpt><trkpt lat="39.067227812709845" lon="9.007992308147294"><ele>32.2</ele><time>2026-03-26T13:06:07Z</time></trkpt><trkpt lat="39.067327999441424" lon="9.008082260949086"><ele>32.0</ele><time>2026-03-26T13:06:09Z</time></trkpt><trkpt lat="39.067387990035996" lon="9.008136301258205"><ele>31.6</ele><time>2026-03-26T13:06:10Z</time></trkpt><trkpt lat="39.06746416174675" lon="9.008206458405308"><ele>31.200000000000003</ele><time>2026-03-26T13:06:11Z</time></trkpt><trkpt lat="39.06754432206136" lon="9.008279914787861"><ele>30.8</ele><time>2026-03-26T13:06:12Z</time></trkpt><trkpt lat="39.06762138416093" lon="9.0083620555218"><ele>30.4</ele><time>2026-03-26T13:06:13Z</time></trkpt><trkpt lat="39.067683664306365" lon="9.008446168219924"><ele>30.0</ele><time>2026-03-26T13:06:14Z</time></trkpt><trkpt lat="39.06773556132295" lon="9.008539330880316"><ele>29.666666666666668</ele><time>2026-03-26T13:06:15Z</time></trkpt><trkpt lat="39.06778600672229" lon="9.008618353031316"><ele>29.333333333333336</ele><time>2026-03-26T13:06:16Z</time></trkpt><trkpt lat="39.06781962622549" lon="9.008705604425234"><ele>29.0</ele><time>2026-03-26T13:06:17Z</time></trkpt><trkpt lat="39.06785226494995" lon="9.008786269809834"><ele>28.666666666666668</ele><time>2026-03-26T13:06:18Z</time></trkpt><trkpt lat="39.06788800568262" lon="9.008872159256065"><ele>28.333333333333336</ele><time>2026-03-26T13:06:19Z</time></trkpt><trkpt lat="39.067919839338686" lon="9.008962728506255"><ele>28.0</ele><time>2026-03-26T13:06:20Z</time></trkpt><trkpt lat="39.06793023987303" lon="9.009076858483466"><ele>28.4</ele><time>2026-03-26T13:06:21Z</time></trkpt><trkpt lat="39.06787998379368" lon="9.009188675434755"><ele>28.799999999999997</ele><time>2026-03-26T13:06:22Z</time></trkpt><trkpt lat="39.067813764638615" lon="9.00933804423189"><ele>29.2</ele><time>2026-03-26T13:06:23Z</time></trkpt><trkpt lat="39.067776837802725" lon="9.009465856194723"><ele>29.6</ele><time>2026-03-26T13:06:24Z</time></trkpt><trkpt lat="39.06771925360697" lon="9.009558665208708"><ele>30.0</ele><time>2026-03-26T13:06:25Z</time></trkpt><trkpt lat="39.067664406429905" lon="9.009629215637721"><ele>30.0</ele><time>2026-03-26T13:06:26Z</time></trkpt><trkpt lat="39.06760538551296" lon="9.009677724979214"><ele>30.0</ele><time>2026-03-26T13:06:27Z</time></trkpt><trkpt lat="39.067517918570154" lon="9.009743794844695"><ele>30.0</ele><time>2026-03-26T13:06:28.999Z</time></trkpt><trkpt lat="39.06745147344833" lon="9.009797513674696"><ele>30.0</ele><time>2026-03-26T13:06:30.999Z</time></trkpt><trkpt lat="39.06737353630377" lon="9.009859136412548"><ele>30.0</ele><time>2026-03-26T13:06:32.999Z</time></trkpt><trkpt lat="39.067292806435326" lon="9.009891279048034"><ele>30.0</ele><time>2026-03-26T13:06:34.999Z</time></trkpt><trkpt lat="39.06719661080741" lon="9.010033251486856"><ele>30.5</ele><time>2026-03-26T13:06:36.999Z</time></trkpt><trkpt lat="39.06712142680973" lon="9.01009773899951"><ele>31.0</ele><time>2026-03-26T13:06:37.999Z</time></trkpt><trkpt lat="39.06706233439253" lon="9.010135634276642"><ele>31.5</ele><time>2026-03-26T13:06:38.999Z</time></trkpt><trkpt lat="39.067006548809516" lon="9.010179231354417"><ele>32.0</ele><time>2026-03-26T13:06:39.999Z</time></trkpt><trkpt lat="39.06689706385279" lon="9.010230308685838"><ele>32.5</ele><time>2026-03-26T13:06:41.999Z</time></trkpt><trkpt lat="39.066840540599166" lon="9.01027670266157"><ele>33.0</ele><time>2026-03-26T13:06:42.999Z</time></trkpt><trkpt lat="39.06678610875364" lon="9.010321182369575"><ele>33.0</ele><time>2026-03-26T13:06:43.999Z</time></trkpt><trkpt lat="39.06673284956199" lon="9.010364741237568"><ele>33.0</ele><time>2026-03-26T13:06:44.999Z</time></trkpt><trkpt lat="39.06663807451836" lon="9.010445192888287"><ele>33.0</ele><time>2026-03-26T13:06:46.999Z</time></trkpt><trkpt lat="39.06654753905555" lon="9.010526439312594"><ele>33.0</ele><time>2026-03-26T13:06:48.999Z</time></trkpt><trkpt lat="39.06648083630509" lon="9.01060214040067"><ele>33.0</ele><time>2026-03-26T13:06:50.999Z</time></trkpt><trkpt lat="39.06641208353421" lon="9.01064488442938"><ele>34.599999999999994</ele><time>2026-03-26T13:06:53.999Z</time></trkpt><trkpt lat="39.06635149930261" lon="9.010683731764562"><ele>36.199999999999996</ele><time>2026-03-26T13:06:57.999Z</time></trkpt><trkpt lat="39.06623973448904" lon="9.010753046763321"><ele>37.8</ele><time>2026-03-26T13:07:01.999Z</time></trkpt><trkpt lat="39.06614173651687" lon="9.010778033060388"><ele>39.4</ele><time>2026-03-26T13:07:03.999Z</time></trkpt><trkpt lat="39.06601665936938" lon="9.01076636059696"><ele>41.0</ele><time>2026-03-26T13:07:05.999Z</time></trkpt><trkpt lat="39.065938841683206" lon="9.010761045393572"><ele>41.0</ele><time>2026-03-26T13:07:06.999Z</time></trkpt><trkpt lat="39.06587431050172" lon="9.010760767099534"><ele>41.0</ele><time>2026-03-26T13:07:07.999Z</time></trkpt><trkpt lat="39.06580935158101" lon="9.010765708785474"><ele>41.0</ele><time>2026-03-26T13:07:08.999Z</time></trkpt><trkpt lat="39.065702965766015" lon="9.010745326577394"><ele>41.0</ele><time>2026-03-26T13:07:10.999Z</time></trkpt><trkpt lat="39.06563170830905" lon="9.010806162130647"><ele>41.0</ele><time>2026-03-26T13:07:11.999Z</time></trkpt><trkpt lat="39.06557532264253" lon="9.01085178180151"><ele>41.0</ele><time>2026-03-26T13:07:12.999Z</time></trkpt><trkpt lat="39.06547988837313" lon="9.010925286315022"><ele>40.0</ele><time>2026-03-26T13:07:14.999Z</time></trkpt><trkpt lat="39.065376631307416" lon="9.011015439379584"><ele>39.0</ele><time>2026-03-26T13:07:16.999Z</time></trkpt><trkpt lat="39.06528664712563" lon="9.011106343858023"><ele>38.0</ele><time>2026-03-26T13:07:18.999Z</time></trkpt><trkpt lat="39.06522094347259" lon="9.011157202997087"><ele>37.0</ele><time>2026-03-26T13:07:19.999Z</time></trkpt><trkpt lat="39.06514920197199" lon="9.011216235985781"><ele>36.0</ele><time>2026-03-26T13:07:20.999Z</time></trkpt><trkpt lat="39.06508194378213" lon="9.011272888584282"><ele>36.0</ele><time>2026-03-26T13:07:21.999Z</time></trkpt><trkpt lat="39.06502080167539" lon="9.011327223084544"><ele>36.0</ele><time>2026-03-26T13:07:22.999Z</time></trkpt><trkpt lat="39.06495684613785" lon="9.011384834833448"><ele>36.0</ele><time>2026-03-26T13:07:23.999Z</time></trkpt><trkpt lat="39.06489868719736" lon="9.011444281015219"><ele>36.0</ele><time>2026-03-26T13:07:24.999Z</time></trkpt><trkpt lat="39.064849821180296" lon="9.011496114068393"><ele>36.0</ele><time>2026-03-26T13:07:25.999Z</time></trkpt><trkpt lat="39.06475680211158" lon="9.011593757977735"><ele>36.0</ele><time>2026-03-26T13:07:27.999Z</time></trkpt><trkpt lat="39.06470654565297" lon="9.011654669755039"><ele>36.833333333333336</ele><time>2026-03-26T13:07:28.999Z</time></trkpt><trkpt lat="39.064649188779406" lon="9.011713592713361"><ele>37.666666666666664</ele><time>2026-03-26T13:07:29.999Z</time></trkpt><trkpt lat="39.064576940274634" lon="9.011763380323059"><ele>38.5</ele><time>2026-03-26T13:07:30.999Z</time></trkpt><trkpt lat="39.064503709027846" lon="9.011799714023693"><ele>39.33333333333333</ele><time>2026-03-26T13:07:31.999Z</time></trkpt><trkpt lat="39.064427976734166" lon="9.011828238056161"><ele>40.166666666666664</ele><time>2026-03-26T13:07:32.999Z</time></trkpt><trkpt lat="39.06434246804048" lon="9.011834770104667"><ele>41.0</ele><time>2026-03-26T13:07:33.999Z</time></trkpt><trkpt lat="39.06426109743147" lon="9.011832856762975"><ele>41.0</ele><time>2026-03-26T13:07:34.999Z</time></trkpt><trkpt lat="39.064182101357574" lon="9.01183104891732"><ele>41.0</ele><time>2026-03-26T13:07:35.999Z</time></trkpt><trkpt lat="39.06410235164972" lon="9.01182681554651"><ele>41.0</ele><time>2026-03-26T13:07:36.999Z</time></trkpt><trkpt lat="39.06402391461505" lon="9.011823885104937"><ele>41.0</ele><time>2026-03-26T13:07:37.999Z</time></trkpt><trkpt lat="39.06394631286078" lon="9.011820925095419"><ele>41.0</ele><time>2026-03-26T13:07:38.999Z</time></trkpt><trkpt lat="39.06387954517314" lon="9.011821861339309"><ele>41.0</ele><time>2026-03-26T13:07:39.999Z</time></trkpt><trkpt lat="39.06375104078133" lon="9.011797716888744"><ele>42.0</ele><time>2026-03-26T13:07:41.999Z</time></trkpt><trkpt lat="39.063684374144025" lon="9.011794455991996"><ele>43.0</ele><time>2026-03-26T13:07:42.999Z</time></trkpt><trkpt lat="39.06358498227768" lon="9.011779561950663"><ele>44.0</ele><time>2026-03-26T13:07:44.999Z</time></trkpt><trkpt lat="39.063556906123175" lon="9.011690580300426"><ele>45.0</ele><time>2026-03-26T13:07:46.999Z</time></trkpt><trkpt lat="39.063547871776095" lon="9.011578388341558"><ele>46.0</ele><time>2026-03-26T13:07:49.999Z</time></trkpt><trkpt lat="39.06341472410152" lon="9.01154354308442"><ele>46.16666666666667</ele><time>2026-03-26T13:07:53.999Z</time></trkpt><trkpt lat="39.06333533441532" lon="9.011591353207212"><ele>46.333333333333336</ele><time>2026-03-26T13:07:55.999Z</time></trkpt><trkpt lat="39.063260459733144" lon="9.011636179584109"><ele>46.5</ele><time>2026-03-26T13:07:57.999Z</time></trkpt><trkpt lat="39.06320531597995" lon="9.011675561715496"><ele>46.666666666666664</ele><time>2026-03-26T13:07:59.999Z</time></trkpt><trkpt lat="39.063163224507086" lon="9.011773261242086"><ele>46.83333333333333</ele><time>2026-03-26T13:08:02.999Z</time></trkpt><trkpt lat="39.063182291237624" lon="9.011881675817408"><ele>47.0</ele><time>2026-03-26T13:08:06Z</time></trkpt><trkpt lat="39.06321791602336" lon="9.011969665527431"><ele>46.83333333333333</ele><time>2026-03-26T13:08:09Z</time></trkpt><trkpt lat="39.063242094661575" lon="9.012055941189216"><ele>46.666666666666664</ele><time>2026-03-26T13:08:11Z</time></trkpt><trkpt lat="39.06326063162601" lon="9.012149981465518"><ele>46.5</ele><time>2026-03-26T13:08:13Z</time></trkpt><trkpt lat="39.063271976757264" lon="9.012249354431596"><ele>46.333333333333336</ele><time>2026-03-26T13:08:15Z</time></trkpt><trkpt lat="39.06328878966934" lon="9.01235759386672"><ele>46.16666666666667</ele><time>2026-03-26T13:08:17Z</time></trkpt><trkpt lat="39.0633164404646" lon="9.012456426388876"><ele>46.0</ele><time>2026-03-26T13:08:19Z</time></trkpt><trkpt lat="39.06334538734641" lon="9.012537459100107"><ele>46.4</ele><time>2026-03-26T13:08:21Z</time></trkpt><trkpt lat="39.063388085354475" lon="9.012623632469383"><ele>46.8</ele><time>2026-03-26T13:08:23Z</time></trkpt><trkpt lat="39.06342743428376" lon="9.012710179549858"><ele>47.199999999999996</ele><time>2026-03-26T13:08:25Z</time></trkpt><trkpt lat="39.0634805484782" lon="9.012858549620269"><ele>47.599999999999994</ele><time>2026-03-26T13:08:27Z</time></trkpt><trkpt lat="39.063502047027384" lon="9.012965557457207"><ele>48.0</ele><time>2026-03-26T13:08:28Z</time></trkpt><trkpt lat="39.063484741024716" lon="9.013087917714726"><ele>48.0</ele><time>2026-03-26T13:08:29Z</time></trkpt><trkpt lat="39.06349996915083" lon="9.01321172408136"><ele>48.0</ele><time>2026-03-26T13:08:30Z</time></trkpt><trkpt lat="39.063455008348484" lon="9.013334146354007"><ele>48.0</ele><time>2026-03-26T13:08:31Z</time></trkpt><trkpt lat="39.063387876995975" lon="9.013467843362353"><ele>48.0</ele><time>2026-03-26T13:08:32Z</time></trkpt><trkpt lat="39.06333642416043" lon="9.013638431501262"><ele>51.33333333333333</ele><time>2026-03-26T13:08:33Z</time></trkpt><trkpt lat="39.0632632298147" lon="9.013828781648858"><ele>54.666666666666664</ele><time>2026-03-26T13:08:34Z</time></trkpt><trkpt lat="39.063164003132215" lon="9.014027760325998"><ele>58.0</ele><time>2026-03-26T13:08:35Z</time></trkpt><trkpt lat="39.06306667648804" lon="9.01421456541181"><ele>58.0</ele><time>2026-03-26T13:08:36Z</time></trkpt><trkpt lat="39.06297935055302" lon="9.014388898977533"><ele>58.0</ele><time>2026-03-26T13:08:37Z</time></trkpt><trkpt lat="39.062880828335004" lon="9.01456733873375"><ele>58.0</ele><time>2026-03-26T13:08:38Z</time></trkpt><trkpt lat="39.062787389642956" lon="9.014744413727884"><ele>58.0</ele><time>2026-03-26T13:08:38.999Z</time></trkpt><trkpt lat="39.06272869074252" lon="9.01490383579151"><ele>58.0</ele><time>2026-03-26T13:08:39.999Z</time></trkpt><trkpt lat="39.062690927193195" lon="9.015023433038232"><ele>58.0</ele><time>2026-03-26T13:08:40.999Z</time></trkpt><trkpt lat="39.062661430371236" lon="9.01512914392216"><ele>58.0</ele><time>2026-03-26T13:08:41.999Z</time></trkpt><trkpt lat="39.06267833375244" lon="9.015288932146044"><ele>57.0</ele><time>2026-03-26T13:08:42.999Z</time></trkpt><trkpt lat="39.062700571715695" lon="9.015432415436441"><ele>56.0</ele><time>2026-03-26T13:08:43.999Z</time></trkpt><trkpt lat="39.062763920844276" lon="9.015579644925436"><ele>55.0</ele><time>2026-03-26T13:08:44.999Z</time></trkpt><trkpt lat="39.06277156706828" lon="9.0157115477631"><ele>54.0</ele><time>2026-03-26T13:08:45.999Z</time></trkpt><trkpt lat="39.06277514543546" lon="9.0158141150728"><ele>53.0</ele><time>2026-03-26T13:08:46.999Z</time></trkpt><trkpt lat="39.06279874675976" lon="9.015901414589646"><ele>52.599999999999994</ele><time>2026-03-26T13:08:47.999Z</time></trkpt><trkpt lat="39.062868800195595" lon="9.015958841391178"><ele>52.199999999999996</ele><time>2026-03-26T13:08:48.999Z</time></trkpt><trkpt lat="39.06297332540977" lon="9.015995401542275"><ele>51.8</ele><time>2026-03-26T13:08:49.999Z</time></trkpt><trkpt lat="39.06308302970751" lon="9.016000121951208"><ele>51.4</ele><time>2026-03-26T13:08:50.999Z</time></trkpt><trkpt lat="39.06318287624992" lon="9.015956321797841"><ele>51.0</ele><time>2026-03-26T13:08:51.999Z</time></trkpt><trkpt lat="39.06326846556106" lon="9.015866038343376"><ele>49.5</ele><time>2026-03-26T13:08:52.999Z</time></trkpt><trkpt lat="39.06334794936899" lon="9.015735534506927"><ele>48.0</ele><time>2026-03-26T13:08:53.999Z</time></trkpt><trkpt lat="39.063419377882035" lon="9.015599976039729"><ele>46.5</ele><time>2026-03-26T13:08:54.999Z</time></trkpt><trkpt lat="39.06348175999601" lon="9.015491446801066"><ele>45.0</ele><time>2026-03-26T13:08:55.999Z</time></trkpt><trkpt lat="39.063542553328716" lon="9.015404823553837"><ele>45.0</ele><time>2026-03-26T13:08:56.999Z</time></trkpt><trkpt lat="39.06360053312062" lon="9.015329742256116"><ele>45.0</ele><time>2026-03-26T13:08:57.999Z</time></trkpt><trkpt lat="39.06365582055435" lon="9.01526014317545"><ele>45.0</ele><time>2026-03-26T13:08:58.999Z</time></trkpt><trkpt lat="39.06372037030922" lon="9.015217733228587"><ele>45.0</ele><time>2026-03-26T13:08:59.999Z</time></trkpt><trkpt lat="39.06379758246482" lon="9.015219324490475"><ele>45.0</ele><time>2026-03-26T13:09:00.999Z</time></trkpt><trkpt lat="39.063861231755226" lon="9.015315176708203"><ele>45.0</ele><time>2026-03-26T13:09:01.999Z</time></trkpt><trkpt lat="39.063933346619926" lon="9.015377346370858"><ele>45.0</ele><time>2026-03-26T13:09:02.999Z</time></trkpt><trkpt lat="39.06401168736373" lon="9.015407758228866"><ele>45.0</ele><time>2026-03-26T13:09:03.999Z</time></trkpt><trkpt lat="39.06408127448417" lon="9.015425440464291"><ele>45.0</ele><time>2026-03-26T13:09:04.999Z</time></trkpt><trkpt lat="39.06414685633395" lon="9.015403736491885"><ele>45.0</ele><time>2026-03-26T13:09:05.999Z</time></trkpt><trkpt lat="39.064229682558114" lon="9.015330076288432"><ele>45.0</ele><time>2026-03-26T13:09:07.999Z</time></trkpt><trkpt lat="39.06427710339349" lon="9.015273784980625"><ele>45.0</ele><time>2026-03-26T13:09:10.999Z</time></trkpt><trkpt lat="39.06432809666879" lon="9.015224326189749"><ele>45.0</ele><time>2026-03-26T13:09:12.999Z</time></trkpt><trkpt lat="39.064364551146355" lon="9.015152790676714"><ele>40.0</ele><time>2026-03-26T13:09:13.999Z</time></trkpt><trkpt lat="39.064292892240616" lon="9.015216014939663"><ele>40.0</ele><time>2026-03-26T13:09:17.999Z</time></trkpt><trkpt lat="39.064174015418146" lon="9.015162076900546"><ele>40.0</ele><time>2026-03-26T13:09:32.999Z</time></trkpt><trkpt lat="39.06424017674703" lon="9.015201898296537"><ele>40.0</ele><time>2026-03-26T13:10:18Z</time></trkpt></trkseg></trk></gpx>